<?xml version="1.0" encoding="utf-8"?>
<gpx xmlns:xsi="http://www.w3.org/2001/XMLSchema-instance" xmlns:xsd="http://www.w3.org/2001/XMLSchema" version="1.1" creator="Shapelink.com" xmlns="http://www.topografix.com/GPX/1/1" xmlns:gpxtpx="http://www.garmin.com/xmlschemas/TrackPointExtension/v1">
  <metadata>
    <name>Cykling 86.26 km, 2016-04-10</name>
    <desc></desc>
    <author><name>Alexander Engvall</name></author> 
    <time>2016-04-10T13:11:54Z</time>
  </metadata>
  <trk>
    <name>Cykling 86.26 km, 2016-04-10</name>
    <trkseg>
      <trkpt lat="59.219384892131" lon="17.906891586961">
        <ele>1.4</ele>
        <time>2016-04-10T13:11:54Z</time>
      </trkpt>
      <trkpt lat="59.219322027881" lon="17.906963252206">
        <ele>3</ele>
        <time>2016-04-10T13:11:57Z</time>
      </trkpt>
      <trkpt lat="59.219265366237" lon="17.907051178337">
        <ele>4.8</ele>
        <time>2016-04-10T13:11:58Z</time>
      </trkpt>
      <trkpt lat="59.219212560267" lon="17.907138853011">
        <ele>4.8</ele>
        <time>2016-04-10T13:11:59Z</time>
      </trkpt>
      <trkpt lat="59.219104266119" lon="17.907291068315">
        <ele>4.8</ele>
        <time>2016-04-10T13:12:01Z</time>
      </trkpt>
      <trkpt lat="59.21897593923" lon="17.907266257891">
        <ele>4.8</ele>
        <time>2016-04-10T13:12:03Z</time>
      </trkpt>
      <trkpt lat="59.218886085262" lon="17.907051094518">
        <ele>4.8</ele>
        <time>2016-04-10T13:12:05Z</time>
      </trkpt>
      <trkpt lat="59.218798578226" lon="17.906786477935">
        <ele>4.8</ele>
        <time>2016-04-10T13:12:07Z</time>
      </trkpt>
      <trkpt lat="59.218696486684" lon="17.906515155832">
        <ele>4.8</ele>
        <time>2016-04-10T13:12:09Z</time>
      </trkpt>
      <trkpt lat="59.218438827078" lon="17.905887938255">
        <ele>4.8</ele>
        <time>2016-04-10T13:12:14Z</time>
      </trkpt>
      <trkpt lat="59.218329443283" lon="17.905606306415">
        <ele>4.8</ele>
        <time>2016-04-10T13:12:16Z</time>
      </trkpt>
      <trkpt lat="59.218287617602" lon="17.905457360052">
        <ele>3</ele>
        <time>2016-04-10T13:12:17Z</time>
      </trkpt>
      <trkpt lat="59.218239840772" lon="17.90532760824">
        <ele>1.2</ele>
        <time>2016-04-10T13:12:18Z</time>
      </trkpt>
      <trkpt lat="59.218189884648" lon="17.905199281351">
        <ele>0</ele>
        <time>2016-04-10T13:12:19Z</time>
      </trkpt>
      <trkpt lat="59.218140096162" lon="17.905065422408">
        <ele>0</ele>
        <time>2016-04-10T13:12:20Z</time>
      </trkpt>
      <trkpt lat="59.218090642952" lon="17.904929132714">
        <ele>0</ele>
        <time>2016-04-10T13:12:21Z</time>
      </trkpt>
      <trkpt lat="59.217875731036" lon="17.904380285902">
        <ele>0</ele>
        <time>2016-04-10T13:12:25Z</time>
      </trkpt>
      <trkpt lat="59.217616646507" lon="17.903704620943">
        <ele>0</ele>
        <time>2016-04-10T13:12:30Z</time>
      </trkpt>
      <trkpt lat="59.217350018268" lon="17.903104225446">
        <ele>0</ele>
        <time>2016-04-10T13:12:35Z</time>
      </trkpt>
      <trkpt lat="59.217293859538" lon="17.902992578538">
        <ele>0</ele>
        <time>2016-04-10T13:12:36Z</time>
      </trkpt>
      <trkpt lat="59.217250189839" lon="17.902867269133">
        <ele>0</ele>
        <time>2016-04-10T13:12:37Z</time>
      </trkpt>
      <trkpt lat="59.217138459112" lon="17.902701642789">
        <ele>0</ele>
        <time>2016-04-10T13:12:39Z</time>
      </trkpt>
      <trkpt lat="59.217010132223" lon="17.902792251128">
        <ele>0</ele>
        <time>2016-04-10T13:12:41Z</time>
      </trkpt>
      <trkpt lat="59.216957912986" lon="17.90305778972">
        <ele>0</ele>
        <time>2016-04-10T13:12:43Z</time>
      </trkpt>
      <trkpt lat="59.216856659634" lon="17.90345760635">
        <ele>0</ele>
        <time>2016-04-10T13:12:46Z</time>
      </trkpt>
      <trkpt lat="59.216829167002" lon="17.903616778631">
        <ele>0</ele>
        <time>2016-04-10T13:12:47Z</time>
      </trkpt>
      <trkpt lat="59.216777618317" lon="17.903949120966">
        <ele>0</ele>
        <time>2016-04-10T13:12:49Z</time>
      </trkpt>
      <trkpt lat="59.216720789035" lon="17.904466116558">
        <ele>0</ele>
        <time>2016-04-10T13:12:52Z</time>
      </trkpt>
      <trkpt lat="59.216623894271" lon="17.905215961332">
        <ele>0</ele>
        <time>2016-04-10T13:12:57Z</time>
      </trkpt>
      <trkpt lat="59.216604867358" lon="17.905345796963">
        <ele>0</ele>
        <time>2016-04-10T13:12:58Z</time>
      </trkpt>
      <trkpt lat="59.216588606472" lon="17.905471860739">
        <ele>0</ele>
        <time>2016-04-10T13:12:59Z</time>
      </trkpt>
      <trkpt lat="59.216567903179" lon="17.90560253456">
        <ele>0</ele>
        <time>2016-04-10T13:13:00Z</time>
      </trkpt>
      <trkpt lat="59.216543344212" lon="17.905732956924">
        <ele>0</ele>
        <time>2016-04-10T13:13:01Z</time>
      </trkpt>
      <trkpt lat="59.216516019218" lon="17.90586237346">
        <ele>0</ele>
        <time>2016-04-10T13:13:02Z</time>
      </trkpt>
      <trkpt lat="59.216492633717" lon="17.905998663154">
        <ele>0</ele>
        <time>2016-04-10T13:13:03Z</time>
      </trkpt>
      <trkpt lat="59.21639096127" lon="17.906383308545">
        <ele>0</ele>
        <time>2016-04-10T13:13:06Z</time>
      </trkpt>
      <trkpt lat="59.216338909671" lon="17.906478526929">
        <ele>0</ele>
        <time>2016-04-10T13:13:07Z</time>
      </trkpt>
      <trkpt lat="59.216293898868" lon="17.906550443631">
        <ele>0</ele>
        <time>2016-04-10T13:13:08Z</time>
      </trkpt>
      <trkpt lat="59.216244026563" lon="17.9066469193">
        <ele>0</ele>
        <time>2016-04-10T13:13:09Z</time>
      </trkpt>
      <trkpt lat="59.216189711851" lon="17.906727888454">
        <ele>0.2</ele>
        <time>2016-04-10T13:13:10Z</time>
      </trkpt>
      <trkpt lat="59.216135480958" lon="17.906808019418">
        <ele>0.8</ele>
        <time>2016-04-10T13:13:11Z</time>
      </trkpt>
      <trkpt lat="59.216096086028" lon="17.906887060735">
        <ele>1.2</ele>
        <time>2016-04-10T13:13:12Z</time>
      </trkpt>
      <trkpt lat="59.216049566483" lon="17.906929054054">
        <ele>1.6</ele>
        <time>2016-04-10T13:13:13Z</time>
      </trkpt>
      <trkpt lat="59.215996006142" lon="17.906988314087">
        <ele>2</ele>
        <time>2016-04-10T13:13:14Z</time>
      </trkpt>
      <trkpt lat="59.215967172406" lon="17.9070743962">
        <ele>2.6</ele>
        <time>2016-04-10T13:13:15Z</time>
      </trkpt>
      <trkpt lat="59.21593833867" lon="17.907174056991">
        <ele>3.2</ele>
        <time>2016-04-10T13:13:16Z</time>
      </trkpt>
      <trkpt lat="59.215917216282" lon="17.907265587339">
        <ele>3.8</ele>
        <time>2016-04-10T13:13:17Z</time>
      </trkpt>
      <trkpt lat="59.215902045043" lon="17.907379916455">
        <ele>4.4</ele>
        <time>2016-04-10T13:13:18Z</time>
      </trkpt>
      <trkpt lat="59.215892992591" lon="17.907508997715">
        <ele>5</ele>
        <time>2016-04-10T13:13:19Z</time>
      </trkpt>
      <trkpt lat="59.215891232392" lon="17.907633217473">
        <ele>5</ele>
        <time>2016-04-10T13:13:20Z</time>
      </trkpt>
      <trkpt lat="59.215895842437" lon="17.907915352227">
        <ele>5</ele>
        <time>2016-04-10T13:13:22Z</time>
      </trkpt>
      <trkpt lat="59.215885951795" lon="17.908376524365">
        <ele>5</ele>
        <time>2016-04-10T13:13:25Z</time>
      </trkpt>
      <trkpt lat="59.215873211307" lon="17.908542653623">
        <ele>4.4</ele>
        <time>2016-04-10T13:13:26Z</time>
      </trkpt>
      <trkpt lat="59.215867176339" lon="17.908703083189">
        <ele>4</ele>
        <time>2016-04-10T13:13:27Z</time>
      </trkpt>
      <trkpt lat="59.215864326493" lon="17.908860076176">
        <ele>3.6</ele>
        <time>2016-04-10T13:13:28Z</time>
      </trkpt>
      <trkpt lat="59.215853849118" lon="17.909020924837">
        <ele>3.2</ele>
        <time>2016-04-10T13:13:29Z</time>
      </trkpt>
      <trkpt lat="59.215840521897" lon="17.909180264756">
        <ele>2.8</ele>
        <time>2016-04-10T13:13:30Z</time>
      </trkpt>
      <trkpt lat="59.215738933269" lon="17.910309055229">
        <ele>2.8</ele>
        <time>2016-04-10T13:13:37Z</time>
      </trkpt>
      <trkpt lat="59.21564161941" lon="17.911429799078">
        <ele>2.8</ele>
        <time>2016-04-10T13:13:44Z</time>
      </trkpt>
      <trkpt lat="59.215526200647" lon="17.912480973157">
        <ele>2.8</ele>
        <time>2016-04-10T13:13:51Z</time>
      </trkpt>
      <trkpt lat="59.215373985343" lon="17.913371382394">
        <ele>2.8</ele>
        <time>2016-04-10T13:13:57Z</time>
      </trkpt>
      <trkpt lat="59.215225625713" lon="17.913892652755">
        <ele>2.8</ele>
        <time>2016-04-10T13:14:01Z</time>
      </trkpt>
      <trkpt lat="59.215167120051" lon="17.913983261094">
        <ele>2.8</ele>
        <time>2016-04-10T13:14:02Z</time>
      </trkpt>
      <trkpt lat="59.215075757341" lon="17.91419314387">
        <ele>2.8</ele>
        <time>2016-04-10T13:14:04Z</time>
      </trkpt>
      <trkpt lat="59.215012473996" lon="17.914434794047">
        <ele>2.8</ele>
        <time>2016-04-10T13:14:06Z</time>
      </trkpt>
      <trkpt lat="59.214965032442" lon="17.914521546712">
        <ele>2.8</ele>
        <time>2016-04-10T13:14:07Z</time>
      </trkpt>
      <trkpt lat="59.214845506548" lon="17.914647359031">
        <ele>2.8</ele>
        <time>2016-04-10T13:14:09Z</time>
      </trkpt>
      <trkpt lat="59.214779708633" lon="17.914694632947">
        <ele>3.2</ele>
        <time>2016-04-10T13:14:10Z</time>
      </trkpt>
      <trkpt lat="59.214722711713" lon="17.914726148891">
        <ele>3.6</ele>
        <time>2016-04-10T13:14:11Z</time>
      </trkpt>
      <trkpt lat="59.214666552983" lon="17.914761269052">
        <ele>4.2</ele>
        <time>2016-04-10T13:14:12Z</time>
      </trkpt>
      <trkpt lat="59.214612238271" lon="17.914805525484">
        <ele>4.6</ele>
        <time>2016-04-10T13:14:13Z</time>
      </trkpt>
      <trkpt lat="59.214549122564" lon="17.91485028483">
        <ele>5</ele>
        <time>2016-04-10T13:14:14Z</time>
      </trkpt>
      <trkpt lat="59.214146707545" lon="17.915125043512">
        <ele>5</ele>
        <time>2016-04-10T13:14:20Z</time>
      </trkpt>
      <trkpt lat="59.213703137397" lon="17.915450512689">
        <ele>5</ele>
        <time>2016-04-10T13:14:27Z</time>
      </trkpt>
      <trkpt lat="59.213593334507" lon="17.915537097716">
        <ele>5.4</ele>
        <time>2016-04-10T13:14:29Z</time>
      </trkpt>
      <trkpt lat="59.213535918492" lon="17.915576744103">
        <ele>6</ele>
        <time>2016-04-10T13:14:30Z</time>
      </trkpt>
      <trkpt lat="59.213480346495" lon="17.915619910888">
        <ele>6.4</ele>
        <time>2016-04-10T13:14:31Z</time>
      </trkpt>
      <trkpt lat="59.213421086462" lon="17.915659892551">
        <ele>6.8</ele>
        <time>2016-04-10T13:14:32Z</time>
      </trkpt>
      <trkpt lat="59.213365011551" lon="17.915699538938">
        <ele>7.2</ele>
        <time>2016-04-10T13:14:33Z</time>
      </trkpt>
      <trkpt lat="59.213198044103" lon="17.915801211385">
        <ele>7.8</ele>
        <time>2016-04-10T13:14:36Z</time>
      </trkpt>
      <trkpt lat="59.213141885373" lon="17.915836247727">
        <ele>8.2</ele>
        <time>2016-04-10T13:14:37Z</time>
      </trkpt>
      <trkpt lat="59.213081619512" lon="17.915869440051">
        <ele>8.6</ele>
        <time>2016-04-10T13:14:38Z</time>
      </trkpt>
      <trkpt lat="59.213018252348" lon="17.91587203844">
        <ele>9</ele>
        <time>2016-04-10T13:14:39Z</time>
      </trkpt>
      <trkpt lat="59.212951364786" lon="17.915877738132">
        <ele>9.4</ele>
        <time>2016-04-10T13:14:40Z</time>
      </trkpt>
      <trkpt lat="59.212833431453" lon="17.915910511361">
        <ele>9.4</ele>
        <time>2016-04-10T13:14:42Z</time>
      </trkpt>
      <trkpt lat="59.212786073718" lon="17.915897770873">
        <ele>10</ele>
        <time>2016-04-10T13:14:43Z</time>
      </trkpt>
      <trkpt lat="59.212730501721" lon="17.915921240193">
        <ele>10.4</ele>
        <time>2016-04-10T13:14:44Z</time>
      </trkpt>
      <trkpt lat="59.212676773742" lon="17.915941859667">
        <ele>10.8</ele>
        <time>2016-04-10T13:14:45Z</time>
      </trkpt>
      <trkpt lat="59.212630170378" lon="17.915958036734">
        <ele>11.2</ele>
        <time>2016-04-10T13:14:46Z</time>
      </trkpt>
      <trkpt lat="59.212574849838" lon="17.915951834128">
        <ele>11.6</ele>
        <time>2016-04-10T13:14:47Z</time>
      </trkpt>
      <trkpt lat="59.212456329772" lon="17.915945966798">
        <ele>12</ele>
        <time>2016-04-10T13:14:49Z</time>
      </trkpt>
      <trkpt lat="59.212396231549" lon="17.915961473313">
        <ele>12.4</ele>
        <time>2016-04-10T13:14:50Z</time>
      </trkpt>
      <trkpt lat="59.212335211317" lon="17.915980248769">
        <ele>12.8</ele>
        <time>2016-04-10T13:14:51Z</time>
      </trkpt>
      <trkpt lat="59.21227796294" lon="17.91603800006">
        <ele>13.2</ele>
        <time>2016-04-10T13:14:52Z</time>
      </trkpt>
      <trkpt lat="59.212231359576" lon="17.916100109939">
        <ele>13.6</ele>
        <time>2016-04-10T13:14:53Z</time>
      </trkpt>
      <trkpt lat="59.212042180093" lon="17.916238998022">
        <ele>13.6</ele>
        <time>2016-04-10T13:14:56Z</time>
      </trkpt>
      <trkpt lat="59.211619229419" lon="17.916536052558">
        <ele>14</ele>
        <time>2016-04-10T13:15:03Z</time>
      </trkpt>
      <trkpt lat="59.211563238327" lon="17.916575028393">
        <ele>14.4</ele>
        <time>2016-04-10T13:15:04Z</time>
      </trkpt>
      <trkpt lat="59.211504397389" lon="17.916616434979">
        <ele>14.8</ele>
        <time>2016-04-10T13:15:05Z</time>
      </trkpt>
      <trkpt lat="59.211446981374" lon="17.916647615647">
        <ele>15.4</ele>
        <time>2016-04-10T13:15:06Z</time>
      </trkpt>
      <trkpt lat="59.211388978626" lon="17.916689608966">
        <ele>15.8</ele>
        <time>2016-04-10T13:15:07Z</time>
      </trkpt>
      <trkpt lat="59.211290072206" lon="17.916770242844">
        <ele>15.8</ele>
        <time>2016-04-10T13:15:09Z</time>
      </trkpt>
      <trkpt lat="59.210984887227" lon="17.916998817257">
        <ele>15.8</ele>
        <time>2016-04-10T13:15:14Z</time>
      </trkpt>
      <trkpt lat="59.210494713715" lon="17.917340379682">
        <ele>15.8</ele>
        <time>2016-04-10T13:15:22Z</time>
      </trkpt>
      <trkpt lat="59.210436794786" lon="17.917377176223">
        <ele>15.4</ele>
        <time>2016-04-10T13:15:23Z</time>
      </trkpt>
      <trkpt lat="59.210377283296" lon="17.9174260427">
        <ele>14.8</ele>
        <time>2016-04-10T13:15:24Z</time>
      </trkpt>
      <trkpt lat="59.210320370195" lon="17.917471807874">
        <ele>14.4</ele>
        <time>2016-04-10T13:15:25Z</time>
      </trkpt>
      <trkpt lat="59.210265720207" lon="17.917521847817">
        <ele>14</ele>
        <time>2016-04-10T13:15:26Z</time>
      </trkpt>
      <trkpt lat="59.21020595726" lon="17.917565349878">
        <ele>13.6</ele>
        <time>2016-04-10T13:15:27Z</time>
      </trkpt>
      <trkpt lat="59.210147200141" lon="17.917606756464">
        <ele>13.6</ele>
        <time>2016-04-10T13:15:28Z</time>
      </trkpt>
      <trkpt lat="59.209906974887" lon="17.917792080273">
        <ele>13.6</ele>
        <time>2016-04-10T13:15:32Z</time>
      </trkpt>
      <trkpt lat="59.208216680933" lon="17.920927832882">
        <ele>13.6</ele>
        <time>2016-04-10T13:16:09Z</time>
      </trkpt>
      <trkpt lat="59.208083911637" lon="17.921266545461">
        <ele>13.6</ele>
        <time>2016-04-10T13:16:12Z</time>
      </trkpt>
      <trkpt lat="59.207890373566" lon="17.921683628805">
        <ele>13.6</ele>
        <time>2016-04-10T13:16:16Z</time>
      </trkpt>
      <trkpt lat="59.207837902872" lon="17.92179133622">
        <ele>13.2</ele>
        <time>2016-04-10T13:16:17Z</time>
      </trkpt>
      <trkpt lat="59.207786857101" lon="17.921892589572">
        <ele>12.8</ele>
        <time>2016-04-10T13:16:18Z</time>
      </trkpt>
      <trkpt lat="59.207734889321" lon="17.92200088372">
        <ele>12.4</ele>
        <time>2016-04-10T13:16:19Z</time>
      </trkpt>
      <trkpt lat="59.207678982048" lon="17.922105825108">
        <ele>12</ele>
        <time>2016-04-10T13:16:20Z</time>
      </trkpt>
      <trkpt lat="59.20762014111" lon="17.922218477844">
        <ele>11.6</ele>
        <time>2016-04-10T13:16:21Z</time>
      </trkpt>
      <trkpt lat="59.207491311307" lon="17.922432048656">
        <ele>11.6</ele>
        <time>2016-04-10T13:16:23Z</time>
      </trkpt>
      <trkpt lat="59.207282769635" lon="17.922756428186">
        <ele>11</ele>
        <time>2016-04-10T13:16:26Z</time>
      </trkpt>
      <trkpt lat="59.207206242888" lon="17.922858519728">
        <ele>10.2</ele>
        <time>2016-04-10T13:16:27Z</time>
      </trkpt>
      <trkpt lat="59.207127033933" lon="17.922961030365">
        <ele>9.6</ele>
        <time>2016-04-10T13:16:28Z</time>
      </trkpt>
      <trkpt lat="59.207046902969" lon="17.923067229038">
        <ele>9</ele>
        <time>2016-04-10T13:16:29Z</time>
      </trkpt>
      <trkpt lat="59.206965011806" lon="17.923169069123">
        <ele>8.4</ele>
        <time>2016-04-10T13:16:30Z</time>
      </trkpt>
      <trkpt lat="59.206880689892" lon="17.923269651923">
        <ele>8</ele>
        <time>2016-04-10T13:16:31Z</time>
      </trkpt>
      <trkpt lat="59.206793182856" lon="17.923373587483">
        <ele>7.4</ele>
        <time>2016-04-10T13:16:32Z</time>
      </trkpt>
      <trkpt lat="59.206710202046" lon="17.923463776727">
        <ele>6.8</ele>
        <time>2016-04-10T13:16:33Z</time>
      </trkpt>
      <trkpt lat="59.206372746752" lon="17.923777092149">
        <ele>6.8</ele>
        <time>2016-04-10T13:16:37Z</time>
      </trkpt>
      <trkpt lat="59.205881315955" lon="17.924138100582">
        <ele>6.8</ele>
        <time>2016-04-10T13:16:43Z</time>
      </trkpt>
      <trkpt lat="59.205370271512" lon="17.924344043865">
        <ele>6.8</ele>
        <time>2016-04-10T13:16:49Z</time>
      </trkpt>
      <trkpt lat="59.204925527898" lon="17.924459043533">
        <ele>6.8</ele>
        <time>2016-04-10T13:16:55Z</time>
      </trkpt>
      <trkpt lat="59.204799380303" lon="17.924489637468">
        <ele>7.4</ele>
        <time>2016-04-10T13:16:57Z</time>
      </trkpt>
      <trkpt lat="59.204739701175" lon="17.924507490915">
        <ele>7.8</ele>
        <time>2016-04-10T13:16:58Z</time>
      </trkpt>
      <trkpt lat="59.204683793902" lon="17.924521404869">
        <ele>8.4</ele>
        <time>2016-04-10T13:16:59Z</time>
      </trkpt>
      <trkpt lat="59.204622522213" lon="17.924536743746">
        <ele>9</ele>
        <time>2016-04-10T13:17:00Z</time>
      </trkpt>
      <trkpt lat="59.204565273836" lon="17.924544622732">
        <ele>9.4</ele>
        <time>2016-04-10T13:17:01Z</time>
      </trkpt>
      <trkpt lat="59.204402078243" lon="17.924585610223">
        <ele>9.8</ele>
        <time>2016-04-10T13:17:04Z</time>
      </trkpt>
      <trkpt lat="59.20435036192" lon="17.924599440358">
        <ele>10.2</ele>
        <time>2016-04-10T13:17:05Z</time>
      </trkpt>
      <trkpt lat="59.204295544294" lon="17.924612180846">
        <ele>10.6</ele>
        <time>2016-04-10T13:17:06Z</time>
      </trkpt>
      <trkpt lat="59.204236954813" lon="17.924628525551">
        <ele>11</ele>
        <time>2016-04-10T13:17:07Z</time>
      </trkpt>
      <trkpt lat="59.204179035884" lon="17.924643277695">
        <ele>11.6</ele>
        <time>2016-04-10T13:17:08Z</time>
      </trkpt>
      <trkpt lat="59.20412237424" lon="17.924660292952">
        <ele>12.2</ele>
        <time>2016-04-10T13:17:09Z</time>
      </trkpt>
      <trkpt lat="59.20406286275" lon="17.924670099775">
        <ele>12.8</ele>
        <time>2016-04-10T13:17:10Z</time>
      </trkpt>
      <trkpt lat="59.204004943821" lon="17.924682840263">
        <ele>13.4</ele>
        <time>2016-04-10T13:17:11Z</time>
      </trkpt>
      <trkpt lat="59.20394719253" lon="17.924691976534">
        <ele>14</ele>
        <time>2016-04-10T13:17:12Z</time>
      </trkpt>
      <trkpt lat="59.203733202623" lon="17.924737071156">
        <ele>14.6</ele>
        <time>2016-04-10T13:17:16Z</time>
      </trkpt>
      <trkpt lat="59.203671092744" lon="17.924748889635">
        <ele>15</ele>
        <time>2016-04-10T13:17:17Z</time>
      </trkpt>
      <trkpt lat="59.203615017833" lon="17.924768670919">
        <ele>15.4</ele>
        <time>2016-04-10T13:17:18Z</time>
      </trkpt>
      <trkpt lat="59.203554584334" lon="17.924777052819">
        <ele>15.8</ele>
        <time>2016-04-10T13:17:19Z</time>
      </trkpt>
      <trkpt lat="59.203496078672" lon="17.924796498827">
        <ele>16.2</ele>
        <time>2016-04-10T13:17:20Z</time>
      </trkpt>
      <trkpt lat="59.203305306628" lon="17.924827176581">
        <ele>16.6</ele>
        <time>2016-04-10T13:17:23Z</time>
      </trkpt>
      <trkpt lat="59.203242107102" lon="17.924837234861">
        <ele>17.2</ele>
        <time>2016-04-10T13:17:24Z</time>
      </trkpt>
      <trkpt lat="59.203178404662" lon="17.924850562082">
        <ele>17.6</ele>
        <time>2016-04-10T13:17:25Z</time>
      </trkpt>
      <trkpt lat="59.203114702222" lon="17.924867409701">
        <ele>18</ele>
        <time>2016-04-10T13:17:26Z</time>
      </trkpt>
      <trkpt lat="59.203048401393" lon="17.924883586768">
        <ele>18.6</ele>
        <time>2016-04-10T13:17:27Z</time>
      </trkpt>
      <trkpt lat="59.202848912173" lon="17.924935973643">
        <ele>18.6</ele>
        <time>2016-04-10T13:17:30Z</time>
      </trkpt>
      <trkpt lat="59.20237726266" lon="17.92506949731">
        <ele>19</ele>
        <time>2016-04-10T13:17:37Z</time>
      </trkpt>
      <trkpt lat="59.202314230772" lon="17.925090200603">
        <ele>19.4</ele>
        <time>2016-04-10T13:17:38Z</time>
      </trkpt>
      <trkpt lat="59.20224734321" lon="17.925124231117">
        <ele>19.8</ele>
        <time>2016-04-10T13:17:39Z</time>
      </trkpt>
      <trkpt lat="59.202177186707" lon="17.925158429269">
        <ele>20.6</ele>
        <time>2016-04-10T13:17:40Z</time>
      </trkpt>
      <trkpt lat="59.201839563775" lon="17.925356325928">
        <ele>20.6</ele>
        <time>2016-04-10T13:17:45Z</time>
      </trkpt>
      <trkpt lat="59.201374619782" lon="17.925717585818">
        <ele>20.6</ele>
        <time>2016-04-10T13:17:52Z</time>
      </trkpt>
      <trkpt lat="59.200898276405" lon="17.926233324125">
        <ele>20.6</ele>
        <time>2016-04-10T13:18:00Z</time>
      </trkpt>
      <trkpt lat="59.20046032213" lon="17.92682131441">
        <ele>21.2</ele>
        <time>2016-04-10T13:18:08Z</time>
      </trkpt>
      <trkpt lat="59.200401229735" lon="17.926899433718">
        <ele>21.6</ele>
        <time>2016-04-10T13:18:09Z</time>
      </trkpt>
      <trkpt lat="59.20034800467" lon="17.926975373732">
        <ele>22</ele>
        <time>2016-04-10T13:18:10Z</time>
      </trkpt>
      <trkpt lat="59.200295114881" lon="17.927049721185">
        <ele>22.4</ele>
        <time>2016-04-10T13:18:11Z</time>
      </trkpt>
      <trkpt lat="59.200238872332" lon="17.92712641557">
        <ele>22.8</ele>
        <time>2016-04-10T13:18:12Z</time>
      </trkpt>
      <trkpt lat="59.200065702278" lon="17.927376866742">
        <ele>22.8</ele>
        <time>2016-04-10T13:18:15Z</time>
      </trkpt>
      <trkpt lat="59.199613666411" lon="17.927932838169">
        <ele>22.8</ele>
        <time>2016-04-10T13:18:22Z</time>
      </trkpt>
      <trkpt lat="59.199120223958" lon="17.928391663375">
        <ele>22.8</ele>
        <time>2016-04-10T13:18:29Z</time>
      </trkpt>
      <trkpt lat="59.198590823154" lon="17.928722245511">
        <ele>22.8</ele>
        <time>2016-04-10T13:18:36Z</time>
      </trkpt>
      <trkpt lat="59.198031079872" lon="17.928941599834">
        <ele>22.8</ele>
        <time>2016-04-10T13:18:43Z</time>
      </trkpt>
      <trkpt lat="59.197603686791" lon="17.929075877872">
        <ele>22.8</ele>
        <time>2016-04-10T13:18:48Z</time>
      </trkpt>
      <trkpt lat="59.197036399799" lon="17.929151063515">
        <ele>22.8</ele>
        <time>2016-04-10T13:18:55Z</time>
      </trkpt>
      <trkpt lat="59.196962219984" lon="17.929164558374">
        <ele>22.8</ele>
        <time>2016-04-10T13:18:56Z</time>
      </trkpt>
      <trkpt lat="59.19641940814" lon="17.929163552546">
        <ele>22.8</ele>
        <time>2016-04-10T13:19:03Z</time>
      </trkpt>
      <trkpt lat="59.196018418044" lon="17.929116865363">
        <ele>22.4</ele>
        <time>2016-04-10T13:19:08Z</time>
      </trkpt>
      <trkpt lat="59.195935437234" lon="17.929100604477">
        <ele>22</ele>
        <time>2016-04-10T13:19:09Z</time>
      </trkpt>
      <trkpt lat="59.19584692437" lon="17.929085097962">
        <ele>21.4</ele>
        <time>2016-04-10T13:19:10Z</time>
      </trkpt>
      <trkpt lat="59.195759920248" lon="17.929064981402">
        <ele>21</ele>
        <time>2016-04-10T13:19:11Z</time>
      </trkpt>
      <trkpt lat="59.195673586678" lon="17.929048469059">
        <ele>20.4</ele>
        <time>2016-04-10T13:19:12Z</time>
      </trkpt>
      <trkpt lat="59.195494549294" lon="17.929006978654">
        <ele>20</ele>
        <time>2016-04-10T13:19:14Z</time>
      </trkpt>
      <trkpt lat="59.195402013118" lon="17.92897965366">
        <ele>19.6</ele>
        <time>2016-04-10T13:19:15Z</time>
      </trkpt>
      <trkpt lat="59.19530880639" lon="17.928952999218">
        <ele>19.2</ele>
        <time>2016-04-10T13:19:16Z</time>
      </trkpt>
      <trkpt lat="59.195204535554" lon="17.928930451907">
        <ele>18.8</ele>
        <time>2016-04-10T13:19:17Z</time>
      </trkpt>
      <trkpt lat="59.195104120392" lon="17.928907988415">
        <ele>18.4</ele>
        <time>2016-04-10T13:19:18Z</time>
      </trkpt>
      <trkpt lat="59.195004291963" lon="17.928877645937">
        <ele>17.8</ele>
        <time>2016-04-10T13:19:19Z</time>
      </trkpt>
      <trkpt lat="59.194902954792" lon="17.928846632907">
        <ele>17.2</ele>
        <time>2016-04-10T13:19:20Z</time>
      </trkpt>
      <trkpt lat="59.19480086325" lon="17.928818385904">
        <ele>16.6</ele>
        <time>2016-04-10T13:19:21Z</time>
      </trkpt>
      <trkpt lat="59.19469860407" lon="17.928792402014">
        <ele>16</ele>
        <time>2016-04-10T13:19:22Z</time>
      </trkpt>
      <trkpt lat="59.194593746501" lon="17.928764406468">
        <ele>15.4</ele>
        <time>2016-04-10T13:19:23Z</time>
      </trkpt>
      <trkpt lat="59.194488972751" lon="17.928736410922">
        <ele>15</ele>
        <time>2016-04-10T13:19:24Z</time>
      </trkpt>
      <trkpt lat="59.194375817101" lon="17.928710846127">
        <ele>14.4</ele>
        <time>2016-04-10T13:19:25Z</time>
      </trkpt>
      <trkpt lat="59.194268780238" lon="17.928685784246">
        <ele>14</ele>
        <time>2016-04-10T13:19:26Z</time>
      </trkpt>
      <trkpt lat="59.194164844678" lon="17.928663739849">
        <ele>13.6</ele>
        <time>2016-04-10T13:19:27Z</time>
      </trkpt>
      <trkpt lat="59.194061663489" lon="17.928643623289">
        <ele>13.2</ele>
        <time>2016-04-10T13:19:28Z</time>
      </trkpt>
      <trkpt lat="59.193452802273" lon="17.928643036556">
        <ele>13.2</ele>
        <time>2016-04-10T13:19:34Z</time>
      </trkpt>
      <trkpt lat="59.192860872495" lon="17.928861385051">
        <ele>13.2</ele>
        <time>2016-04-10T13:19:40Z</time>
      </trkpt>
      <trkpt lat="59.192767246672" lon="17.928913604288">
        <ele>12.8</ele>
        <time>2016-04-10T13:19:41Z</time>
      </trkpt>
      <trkpt lat="59.192672447383" lon="17.928966074982">
        <ele>12.4</ele>
        <time>2016-04-10T13:19:42Z</time>
      </trkpt>
      <trkpt lat="59.192575887895" lon="17.92902072497">
        <ele>11.6</ele>
        <time>2016-04-10T13:19:43Z</time>
      </trkpt>
      <trkpt lat="59.192484273728" lon="17.929075542596">
        <ele>11</ele>
        <time>2016-04-10T13:19:44Z</time>
      </trkpt>
      <trkpt lat="59.19221001796" lon="17.929254496161">
        <ele>11</ele>
        <time>2016-04-10T13:19:47Z</time>
      </trkpt>
      <trkpt lat="59.19171380948" lon="17.92968457145">
        <ele>11</ele>
        <time>2016-04-10T13:19:53Z</time>
      </trkpt>
      <trkpt lat="59.191638204742" lon="17.929768641907">
        <ele>11</ele>
        <time>2016-04-10T13:19:54Z</time>
      </trkpt>
      <trkpt lat="59.191113833078" lon="17.930386052661">
        <ele>11</ele>
        <time>2016-04-10T13:20:01Z</time>
      </trkpt>
      <trkpt lat="59.190968742389" lon="17.930568107529">
        <ele>11</ele>
        <time>2016-04-10T13:20:03Z</time>
      </trkpt>
      <trkpt lat="59.190529279372" lon="17.931084516388">
        <ele>11</ele>
        <time>2016-04-10T13:20:09Z</time>
      </trkpt>
      <trkpt lat="59.190448058761" lon="17.931146542448">
        <ele>11</ele>
        <time>2016-04-10T13:20:10Z</time>
      </trkpt>
      <trkpt lat="59.190282097141" lon="17.931111506106">
        <ele>11</ele>
        <time>2016-04-10T13:20:12Z</time>
      </trkpt>
      <trkpt lat="59.190176652839" lon="17.930881842046">
        <ele>11</ele>
        <time>2016-04-10T13:20:14Z</time>
      </trkpt>
      <trkpt lat="59.190103227395" lon="17.930630552684">
        <ele>11.6</ele>
        <time>2016-04-10T13:20:16Z</time>
      </trkpt>
      <trkpt lat="59.190066933768" lon="17.930491916058">
        <ele>12.2</ele>
        <time>2016-04-10T13:20:17Z</time>
      </trkpt>
      <trkpt lat="59.190040949878" lon="17.930357302744">
        <ele>12.6</ele>
        <time>2016-04-10T13:20:18Z</time>
      </trkpt>
      <trkpt lat="59.190008763382" lon="17.930213134064">
        <ele>13.2</ele>
        <time>2016-04-10T13:20:19Z</time>
      </trkpt>
      <trkpt lat="59.189972134479" lon="17.930074581257">
        <ele>13.8</ele>
        <time>2016-04-10T13:20:20Z</time>
      </trkpt>
      <trkpt lat="59.189842466486" lon="17.929542833521">
        <ele>13.8</ele>
        <time>2016-04-10T13:20:24Z</time>
      </trkpt>
      <trkpt lat="59.189758228391" lon="17.929285006277">
        <ele>13.8</ele>
        <time>2016-04-10T13:20:26Z</time>
      </trkpt>
      <trkpt lat="59.189616239005" lon="17.929172269722">
        <ele>13.8</ele>
        <time>2016-04-10T13:20:28Z</time>
      </trkpt>
      <trkpt lat="59.189372158077" lon="17.929142765434">
        <ele>13.8</ele>
        <time>2016-04-10T13:20:31Z</time>
      </trkpt>
      <trkpt lat="59.18878936457" lon="17.929029777422">
        <ele>13.8</ele>
        <time>2016-04-10T13:20:38Z</time>
      </trkpt>
      <trkpt lat="59.188710658529" lon="17.929006308102">
        <ele>13.8</ele>
        <time>2016-04-10T13:20:39Z</time>
      </trkpt>
      <trkpt lat="59.188150244695" lon="17.928848309287">
        <ele>13.8</ele>
        <time>2016-04-10T13:20:46Z</time>
      </trkpt>
      <trkpt lat="59.187911947278" lon="17.928766334305">
        <ele>13.8</ele>
        <time>2016-04-10T13:20:49Z</time>
      </trkpt>
      <trkpt lat="59.187334518187" lon="17.928554858968">
        <ele>13.8</ele>
        <time>2016-04-10T13:20:56Z</time>
      </trkpt>
      <trkpt lat="59.186758346381" lon="17.928322261243">
        <ele>13.8</ele>
        <time>2016-04-10T13:21:03Z</time>
      </trkpt>
      <trkpt lat="59.186683244557" lon="17.928289655652">
        <ele>13.8</ele>
        <time>2016-04-10T13:21:04Z</time>
      </trkpt>
      <trkpt lat="59.186137918143" lon="17.928025625802">
        <ele>13.8</ele>
        <time>2016-04-10T13:21:11Z</time>
      </trkpt>
      <trkpt lat="59.185647157898" lon="17.927815240112">
        <ele>13.8</ele>
        <time>2016-04-10T13:21:17Z</time>
      </trkpt>
      <trkpt lat="59.185059167613" lon="17.927585827509">
        <ele>13.8</ele>
        <time>2016-04-10T13:21:24Z</time>
      </trkpt>
      <trkpt lat="59.184489868965" lon="17.927596556341">
        <ele>13.8</ele>
        <time>2016-04-10T13:21:31Z</time>
      </trkpt>
      <trkpt lat="59.183975052667" lon="17.927764361979">
        <ele>13.8</ele>
        <time>2016-04-10T13:21:37Z</time>
      </trkpt>
      <trkpt lat="59.183364263614" lon="17.92805848285">
        <ele>13.8</ele>
        <time>2016-04-10T13:21:44Z</time>
      </trkpt>
      <trkpt lat="59.183276672759" lon="17.928104164205">
        <ele>13.8</ele>
        <time>2016-04-10T13:21:45Z</time>
      </trkpt>
      <trkpt lat="59.182740817892" lon="17.928386298959">
        <ele>13.8</ele>
        <time>2016-04-10T13:21:51Z</time>
      </trkpt>
      <trkpt lat="59.182223319386" lon="17.928636414855">
        <ele>13.8</ele>
        <time>2016-04-10T13:21:57Z</time>
      </trkpt>
      <trkpt lat="59.181717387902" lon="17.92873490218">
        <ele>13.8</ele>
        <time>2016-04-10T13:22:03Z</time>
      </trkpt>
      <trkpt lat="59.181204164165" lon="17.928646724592">
        <ele>13.8</ele>
        <time>2016-04-10T13:22:09Z</time>
      </trkpt>
      <trkpt lat="59.180714661205" lon="17.928487133216">
        <ele>13.8</ele>
        <time>2016-04-10T13:22:15Z</time>
      </trkpt>
      <trkpt lat="59.180637044811" lon="17.928462574249">
        <ele>14.2</ele>
        <time>2016-04-10T13:22:16Z</time>
      </trkpt>
      <trkpt lat="59.180567307403" lon="17.928444385526">
        <ele>14.6</ele>
        <time>2016-04-10T13:22:17Z</time>
      </trkpt>
      <trkpt lat="59.180496899443" lon="17.92842225731">
        <ele>15</ele>
        <time>2016-04-10T13:22:18Z</time>
      </trkpt>
      <trkpt lat="59.180426910578" lon="17.928400045275">
        <ele>15.6</ele>
        <time>2016-04-10T13:22:19Z</time>
      </trkpt>
      <trkpt lat="59.180361280301" lon="17.928375570127">
        <ele>16</ele>
        <time>2016-04-10T13:22:20Z</time>
      </trkpt>
      <trkpt lat="59.180295482386" lon="17.928359057784">
        <ele>16</ele>
        <time>2016-04-10T13:22:21Z</time>
      </trkpt>
      <trkpt lat="59.180231528489" lon="17.928336342835">
        <ele>16.4</ele>
        <time>2016-04-10T13:22:22Z</time>
      </trkpt>
      <trkpt lat="59.180171597904" lon="17.928323434709">
        <ele>17</ele>
        <time>2016-04-10T13:22:23Z</time>
      </trkpt>
      <trkpt lat="59.180110493853" lon="17.928305665081">
        <ele>17.4</ele>
        <time>2016-04-10T13:22:24Z</time>
      </trkpt>
      <trkpt lat="59.180053245476" lon="17.928289907109">
        <ele>17.8</ele>
        <time>2016-04-10T13:22:25Z</time>
      </trkpt>
      <trkpt lat="59.179995410366" lon="17.928275071146">
        <ele>18.4</ele>
        <time>2016-04-10T13:22:26Z</time>
      </trkpt>
      <trkpt lat="59.179940676559" lon="17.928260989554">
        <ele>19</ele>
        <time>2016-04-10T13:22:27Z</time>
      </trkpt>
      <trkpt lat="59.179884936924" lon="17.928245650677">
        <ele>19.4</ele>
        <time>2016-04-10T13:22:28Z</time>
      </trkpt>
      <trkpt lat="59.179831041307" lon="17.928225617936">
        <ele>20</ele>
        <time>2016-04-10T13:22:29Z</time>
      </trkpt>
      <trkpt lat="59.179779744079" lon="17.928219666787">
        <ele>20.4</ele>
        <time>2016-04-10T13:22:30Z</time>
      </trkpt>
      <trkpt lat="59.179552259313" lon="17.928168872473">
        <ele>20.4</ele>
        <time>2016-04-10T13:22:34Z</time>
      </trkpt>
      <trkpt lat="59.179495430031" lon="17.928161244944">
        <ele>21.4</ele>
        <time>2016-04-10T13:22:35Z</time>
      </trkpt>
      <trkpt lat="59.179439690396" lon="17.928152863044">
        <ele>21.8</ele>
        <time>2016-04-10T13:22:36Z</time>
      </trkpt>
      <trkpt lat="59.179384788951" lon="17.92814397823">
        <ele>22.2</ele>
        <time>2016-04-10T13:22:37Z</time>
      </trkpt>
      <trkpt lat="59.179328211126" lon="17.928138194719">
        <ele>22.6</ele>
        <time>2016-04-10T13:22:38Z</time>
      </trkpt>
      <trkpt lat="59.179105084948" lon="17.928143726773">
        <ele>22.6</ele>
        <time>2016-04-10T13:22:42Z</time>
      </trkpt>
      <trkpt lat="59.179051189331" lon="17.92814314004">
        <ele>23</ele>
        <time>2016-04-10T13:22:43Z</time>
      </trkpt>
      <trkpt lat="59.178995701153" lon="17.928139368185">
        <ele>23.4</ele>
        <time>2016-04-10T13:22:44Z</time>
      </trkpt>
      <trkpt lat="59.178940548251" lon="17.928139368185">
        <ele>24</ele>
        <time>2016-04-10T13:22:45Z</time>
      </trkpt>
      <trkpt lat="59.178881204399" lon="17.92814314004">
        <ele>24.4</ele>
        <time>2016-04-10T13:22:46Z</time>
      </trkpt>
      <trkpt lat="59.178822531099" lon="17.928158562736">
        <ele>24.8</ele>
        <time>2016-04-10T13:22:47Z</time>
      </trkpt>
      <trkpt lat="59.178462360856" lon="17.928238023148">
        <ele>24.8</ele>
        <time>2016-04-10T13:22:53Z</time>
      </trkpt>
      <trkpt lat="59.178148207244" lon="17.928379425801">
        <ele>24.8</ele>
        <time>2016-04-10T13:22:58Z</time>
      </trkpt>
      <trkpt lat="59.178082409329" lon="17.928419658921">
        <ele>24.8</ele>
        <time>2016-04-10T13:22:59Z</time>
      </trkpt>
      <trkpt lat="59.177598354604" lon="17.928682431486">
        <ele>24.8</ele>
        <time>2016-04-10T13:23:06Z</time>
      </trkpt>
      <trkpt lat="59.177444546739" lon="17.928772201635">
        <ele>24.4</ele>
        <time>2016-04-10T13:23:08Z</time>
      </trkpt>
      <trkpt lat="59.177363577585" lon="17.92881955937">
        <ele>24</ele>
        <time>2016-04-10T13:23:09Z</time>
      </trkpt>
      <trkpt lat="59.177279674766" lon="17.928869180218">
        <ele>23.4</ele>
        <time>2016-04-10T13:23:10Z</time>
      </trkpt>
      <trkpt lat="59.177194095567" lon="17.928913520469">
        <ele>23</ele>
        <time>2016-04-10T13:23:11Z</time>
      </trkpt>
      <trkpt lat="59.177106504712" lon="17.928953921227">
        <ele>22.4</ele>
        <time>2016-04-10T13:23:12Z</time>
      </trkpt>
      <trkpt lat="59.177013884717" lon="17.928991807415">
        <ele>22</ele>
        <time>2016-04-10T13:23:13Z</time>
      </trkpt>
      <trkpt lat="59.176916487039" lon="17.929027179033">
        <ele>21.4</ele>
        <time>2016-04-10T13:23:14Z</time>
      </trkpt>
      <trkpt lat="59.176816490972" lon="17.929060622814">
        <ele>20.8</ele>
        <time>2016-04-10T13:23:15Z</time>
      </trkpt>
      <trkpt lat="59.17671356124" lon="17.929088199265">
        <ele>20.2</ele>
        <time>2016-04-10T13:23:16Z</time>
      </trkpt>
      <trkpt lat="59.176606859653" lon="17.929110746576">
        <ele>19.6</ele>
        <time>2016-04-10T13:23:17Z</time>
      </trkpt>
      <trkpt lat="59.176504516654" lon="17.929128767661">
        <ele>19</ele>
        <time>2016-04-10T13:23:18Z</time>
      </trkpt>
      <trkpt lat="59.176398317981" lon="17.92914058614">
        <ele>18.4</ele>
        <time>2016-04-10T13:23:19Z</time>
      </trkpt>
      <trkpt lat="59.176293041317" lon="17.929142597796">
        <ele>17.8</ele>
        <time>2016-04-10T13:23:20Z</time>
      </trkpt>
      <trkpt lat="59.176083409998" lon="17.929127007462">
        <ele>17.8</ele>
        <time>2016-04-10T13:23:22Z</time>
      </trkpt>
      <trkpt lat="59.175875035964" lon="17.929105298341">
        <ele>17</ele>
        <time>2016-04-10T13:23:24Z</time>
      </trkpt>
      <trkpt lat="59.175771687137" lon="17.929086187609">
        <ele>16.4</ele>
        <time>2016-04-10T13:23:25Z</time>
      </trkpt>
      <trkpt lat="59.175673199812" lon="17.929060455176">
        <ele>16</ele>
        <time>2016-04-10T13:23:26Z</time>
      </trkpt>
      <trkpt lat="59.175577059419" lon="17.929028603956">
        <ele>15.6</ele>
        <time>2016-04-10T13:23:27Z</time>
      </trkpt>
      <trkpt lat="59.175090406305" lon="17.92880363376">
        <ele>15</ele>
        <time>2016-04-10T13:23:32Z</time>
      </trkpt>
      <trkpt lat="59.174993008627" lon="17.928745631012">
        <ele>14.6</ele>
        <time>2016-04-10T13:23:33Z</time>
      </trkpt>
      <trkpt lat="59.174895778587" lon="17.928684024047">
        <ele>13.8</ele>
        <time>2016-04-10T13:23:34Z</time>
      </trkpt>
      <trkpt lat="59.174797877995" lon="17.928617471761">
        <ele>12.8</ele>
        <time>2016-04-10T13:23:35Z</time>
      </trkpt>
      <trkpt lat="59.174700983231" lon="17.928550332742">
        <ele>12</ele>
        <time>2016-04-10T13:23:36Z</time>
      </trkpt>
      <trkpt lat="59.174603250277" lon="17.928481684981">
        <ele>11.2</ele>
        <time>2016-04-10T13:23:37Z</time>
      </trkpt>
      <trkpt lat="59.174504762952" lon="17.928409935917">
        <ele>10.6</ele>
        <time>2016-04-10T13:23:38Z</time>
      </trkpt>
      <trkpt lat="59.174402252315" lon="17.928339527957">
        <ele>9.8</ele>
        <time>2016-04-10T13:23:39Z</time>
      </trkpt>
      <trkpt lat="59.174302172429" lon="17.928271466929">
        <ele>9.2</ele>
        <time>2016-04-10T13:23:40Z</time>
      </trkpt>
      <trkpt lat="59.17420318219" lon="17.928202567711">
        <ele>8.6</ele>
        <time>2016-04-10T13:23:41Z</time>
      </trkpt>
      <trkpt lat="59.174105533055" lon="17.92813140538">
        <ele>8</ele>
        <time>2016-04-10T13:23:42Z</time>
      </trkpt>
      <trkpt lat="59.174007381006" lon="17.928058399031">
        <ele>7.6</ele>
        <time>2016-04-10T13:23:43Z</time>
      </trkpt>
      <trkpt lat="59.17390981569" lon="17.927984051578">
        <ele>7.2</ele>
        <time>2016-04-10T13:23:44Z</time>
      </trkpt>
      <trkpt lat="59.173812334193" lon="17.927909787944">
        <ele>6.6</ele>
        <time>2016-04-10T13:23:45Z</time>
      </trkpt>
      <trkpt lat="59.173712924859" lon="17.927836865414">
        <ele>6.2</ele>
        <time>2016-04-10T13:23:46Z</time>
      </trkpt>
      <trkpt lat="59.173607732014" lon="17.927763020875">
        <ele>5.8</ele>
        <time>2016-04-10T13:23:47Z</time>
      </trkpt>
      <trkpt lat="59.173322747414" lon="17.927569650442">
        <ele>5.8</ele>
        <time>2016-04-10T13:23:50Z</time>
      </trkpt>
      <trkpt lat="59.1727858029" lon="17.927175701142">
        <ele>5.8</ele>
        <time>2016-04-10T13:23:56Z</time>
      </trkpt>
      <trkpt lat="59.172528394751" lon="17.926986186383">
        <ele>6.2</ele>
        <time>2016-04-10T13:23:59Z</time>
      </trkpt>
      <trkpt lat="59.172444575751" lon="17.926927932178">
        <ele>6.6</ele>
        <time>2016-04-10T13:24:00Z</time>
      </trkpt>
      <trkpt lat="59.17236167876" lon="17.926868588326">
        <ele>7</ele>
        <time>2016-04-10T13:24:01Z</time>
      </trkpt>
      <trkpt lat="59.17227534519" lon="17.926805891714">
        <ele>7.4</ele>
        <time>2016-04-10T13:24:02Z</time>
      </trkpt>
      <trkpt lat="59.172193789303" lon="17.926747386052">
        <ele>7.8</ele>
        <time>2016-04-10T13:24:03Z</time>
      </trkpt>
      <trkpt lat="59.172028665873" lon="17.92663523623">
        <ele>7.8</ele>
        <time>2016-04-10T13:24:05Z</time>
      </trkpt>
      <trkpt lat="59.171472526808" lon="17.926266600268">
        <ele>7.8</ele>
        <time>2016-04-10T13:24:12Z</time>
      </trkpt>
      <trkpt lat="59.171292483596" lon="17.925902071437">
        <ele>7.8</ele>
        <time>2016-04-10T13:24:15Z</time>
      </trkpt>
      <trkpt lat="59.171233558839" lon="17.925541146823">
        <ele>7.8</ele>
        <time>2016-04-10T13:24:17Z</time>
      </trkpt>
      <trkpt lat="59.171197097574" lon="17.925364875466">
        <ele>7.2</ele>
        <time>2016-04-10T13:24:18Z</time>
      </trkpt>
      <trkpt lat="59.171149069287" lon="17.925213330714">
        <ele>6.8</ele>
        <time>2016-04-10T13:24:19Z</time>
      </trkpt>
      <trkpt lat="59.171084612476" lon="17.92511056862">
        <ele>6.2</ele>
        <time>2016-04-10T13:24:20Z</time>
      </trkpt>
      <trkpt lat="59.17100716372" lon="17.925065138722">
        <ele>5.6</ele>
        <time>2016-04-10T13:24:21Z</time>
      </trkpt>
      <trkpt lat="59.170926026928" lon="17.925081315789">
        <ele>5</ele>
        <time>2016-04-10T13:24:22Z</time>
      </trkpt>
      <trkpt lat="59.170850254552" lon="17.92513906708">
        <ele>5</ele>
        <time>2016-04-10T13:24:23Z</time>
      </trkpt>
      <trkpt lat="59.170771716149" lon="17.925221461157">
        <ele>5</ele>
        <time>2016-04-10T13:24:24Z</time>
      </trkpt>
      <trkpt lat="59.17028464394" lon="17.925654973025">
        <ele>4.6</ele>
        <time>2016-04-10T13:24:30Z</time>
      </trkpt>
      <trkpt lat="59.170205099709" lon="17.925717501999">
        <ele>4.2</ele>
        <time>2016-04-10T13:24:31Z</time>
      </trkpt>
      <trkpt lat="59.17012706422" lon="17.92578028243">
        <ele>3.8</ele>
        <time>2016-04-10T13:24:32Z</time>
      </trkpt>
      <trkpt lat="59.170046514161" lon="17.925841135024">
        <ele>3.4</ele>
        <time>2016-04-10T13:24:33Z</time>
      </trkpt>
      <trkpt lat="59.169960432048" lon="17.925901317066">
        <ele>3</ele>
        <time>2016-04-10T13:24:34Z</time>
      </trkpt>
      <trkpt lat="59.169777790447" lon="17.926012712517">
        <ele>3</ele>
        <time>2016-04-10T13:24:36Z</time>
      </trkpt>
      <trkpt lat="59.169584420014" lon="17.926096447698">
        <ele>2.6</ele>
        <time>2016-04-10T13:24:38Z</time>
      </trkpt>
      <trkpt lat="59.169479897721" lon="17.926122180131">
        <ele>2.2</ele>
        <time>2016-04-10T13:24:39Z</time>
      </trkpt>
      <trkpt lat="59.169383924966" lon="17.926139446845">
        <ele>1.8</ele>
        <time>2016-04-10T13:24:40Z</time>
      </trkpt>
      <trkpt lat="59.16928803603" lon="17.926151349143">
        <ele>1.2</ele>
        <time>2016-04-10T13:24:41Z</time>
      </trkpt>
      <trkpt lat="59.169193404379" lon="17.9261599825">
        <ele>0.8</ele>
        <time>2016-04-10T13:24:42Z</time>
      </trkpt>
      <trkpt lat="59.168648161784" lon="17.926209687167">
        <ele>0.8</ele>
        <time>2016-04-10T13:24:48Z</time>
      </trkpt>
      <trkpt lat="59.168008203719" lon="17.926243969138">
        <ele>0.8</ele>
        <time>2016-04-10T13:24:55Z</time>
      </trkpt>
      <trkpt lat="59.167911225136" lon="17.926269282476">
        <ele>0.8</ele>
        <time>2016-04-10T13:24:56Z</time>
      </trkpt>
      <trkpt lat="59.167716597418" lon="17.926374642959">
        <ele>0.8</ele>
        <time>2016-04-10T13:24:58Z</time>
      </trkpt>
      <trkpt lat="59.167523562261" lon="17.926525098064">
        <ele>0.8</ele>
        <time>2016-04-10T13:25:00Z</time>
      </trkpt>
      <trkpt lat="59.167329605095" lon="17.926667338907">
        <ele>0.4</ele>
        <time>2016-04-10T13:25:02Z</time>
      </trkpt>
      <trkpt lat="59.167233213245" lon="17.926727940044">
        <ele>0</ele>
        <time>2016-04-10T13:25:03Z</time>
      </trkpt>
      <trkpt lat="59.167134977377" lon="17.926768759897">
        <ele>0</ele>
        <time>2016-04-10T13:25:04Z</time>
      </trkpt>
      <trkpt lat="59.167040764821" lon="17.92678359586">
        <ele>0</ele>
        <time>2016-04-10T13:25:05Z</time>
      </trkpt>
      <trkpt lat="59.166944205333" lon="17.926784266412">
        <ele>0</ele>
        <time>2016-04-10T13:25:06Z</time>
      </trkpt>
      <trkpt lat="59.16651530351" lon="17.92681544708">
        <ele>0</ele>
        <time>2016-04-10T13:25:11Z</time>
      </trkpt>
      <trkpt lat="59.1664407046" lon="17.926817207279">
        <ele>0</ele>
        <time>2016-04-10T13:25:12Z</time>
      </trkpt>
      <trkpt lat="59.16636778207" lon="17.92681796165">
        <ele>0</ele>
        <time>2016-04-10T13:25:13Z</time>
      </trkpt>
      <trkpt lat="59.166296200644" lon="17.926821146772">
        <ele>0.4</ele>
        <time>2016-04-10T13:25:14Z</time>
      </trkpt>
      <trkpt lat="59.166222859019" lon="17.926825756817">
        <ele>0.8</ele>
        <time>2016-04-10T13:25:15Z</time>
      </trkpt>
      <trkpt lat="59.166091933741" lon="17.926823409885">
        <ele>1.2</ele>
        <time>2016-04-10T13:25:17Z</time>
      </trkpt>
      <trkpt lat="59.166026052007" lon="17.926821565867">
        <ele>1.6</ele>
        <time>2016-04-10T13:25:18Z</time>
      </trkpt>
      <trkpt lat="59.165961427558" lon="17.926815111804">
        <ele>2</ele>
        <time>2016-04-10T13:25:19Z</time>
      </trkpt>
      <trkpt lat="59.165895964919" lon="17.926808909198">
        <ele>2.4</ele>
        <time>2016-04-10T13:25:20Z</time>
      </trkpt>
      <trkpt lat="59.16582966409" lon="17.926805304981">
        <ele>2.8</ele>
        <time>2016-04-10T13:25:21Z</time>
      </trkpt>
      <trkpt lat="59.165760261958" lon="17.926794073235">
        <ele>2.8</ele>
        <time>2016-04-10T13:25:22Z</time>
      </trkpt>
      <trkpt lat="59.165626654472" lon="17.926761132368">
        <ele>3.2</ele>
        <time>2016-04-10T13:25:24Z</time>
      </trkpt>
      <trkpt lat="59.165564460774" lon="17.926735986668">
        <ele>3.6</ele>
        <time>2016-04-10T13:25:25Z</time>
      </trkpt>
      <trkpt lat="59.165502937628" lon="17.926707991122">
        <ele>4</ele>
        <time>2016-04-10T13:25:26Z</time>
      </trkpt>
      <trkpt lat="59.165441414482" lon="17.926674295884">
        <ele>4.6</ele>
        <time>2016-04-10T13:25:27Z</time>
      </trkpt>
      <trkpt lat="59.16538039425" lon="17.926638924266">
        <ele>5</ele>
        <time>2016-04-10T13:25:28Z</time>
      </trkpt>
      <trkpt lat="59.165083842628" lon="17.926352095648">
        <ele>5</ele>
        <time>2016-04-10T13:25:33Z</time>
      </trkpt>
      <trkpt lat="59.165028689726" lon="17.926280849498">
        <ele>5.4</ele>
        <time>2016-04-10T13:25:34Z</time>
      </trkpt>
      <trkpt lat="59.164973117729" lon="17.926205747674">
        <ele>5.8</ele>
        <time>2016-04-10T13:25:35Z</time>
      </trkpt>
      <trkpt lat="59.164916791361" lon="17.926122515407">
        <ele>6.2</ele>
        <time>2016-04-10T13:25:36Z</time>
      </trkpt>
      <trkpt lat="59.164861470821" lon="17.926035259828">
        <ele>6.6</ele>
        <time>2016-04-10T13:25:37Z</time>
      </trkpt>
      <trkpt lat="59.164805731186" lon="17.925945322041">
        <ele>7</ele>
        <time>2016-04-10T13:25:38Z</time>
      </trkpt>
      <trkpt lat="59.16474504623" lon="17.925852953503">
        <ele>7</ele>
        <time>2016-04-10T13:25:39Z</time>
      </trkpt>
      <trkpt lat="59.164487051348" lon="17.925532262009">
        <ele>7</ele>
        <time>2016-04-10T13:25:43Z</time>
      </trkpt>
      <trkpt lat="59.164412536257" lon="17.925480294229">
        <ele>6.6</ele>
        <time>2016-04-10T13:25:44Z</time>
      </trkpt>
      <trkpt lat="59.164331231827" lon="17.925437881815">
        <ele>6.2</ele>
        <time>2016-04-10T13:25:45Z</time>
      </trkpt>
      <trkpt lat="59.164246406999" lon="17.925408377527">
        <ele>5.6</ele>
        <time>2016-04-10T13:25:46Z</time>
      </trkpt>
      <trkpt lat="59.164163174732" lon="17.925394798849">
        <ele>5.2</ele>
        <time>2016-04-10T13:25:47Z</time>
      </trkpt>
      <trkpt lat="59.164079774827" lon="17.925396894324">
        <ele>4.8</ele>
        <time>2016-04-10T13:25:48Z</time>
      </trkpt>
      <trkpt lat="59.1639177527" lon="17.925434780512">
        <ele>4.8</ele>
        <time>2016-04-10T13:25:50Z</time>
      </trkpt>
      <trkpt lat="59.163686076984" lon="17.925528993068">
        <ele>4.8</ele>
        <time>2016-04-10T13:25:53Z</time>
      </trkpt>
      <trkpt lat="59.163348789328" lon="17.92562857004">
        <ele>4.8</ele>
        <time>2016-04-10T13:25:58Z</time>
      </trkpt>
      <trkpt lat="59.163300341946" lon="17.925637622492">
        <ele>5.2</ele>
        <time>2016-04-10T13:25:59Z</time>
      </trkpt>
      <trkpt lat="59.163257426618" lon="17.925647429315">
        <ele>5.6</ele>
        <time>2016-04-10T13:26:00Z</time>
      </trkpt>
      <trkpt lat="59.163217444955" lon="17.925656314129">
        <ele>6.4</ele>
        <time>2016-04-10T13:26:01Z</time>
      </trkpt>
      <trkpt lat="59.163179223491" lon="17.925656481767">
        <ele>7.2</ele>
        <time>2016-04-10T13:26:02Z</time>
      </trkpt>
      <trkpt lat="59.163139577104" lon="17.925650111523">
        <ele>7.8</ele>
        <time>2016-04-10T13:26:03Z</time>
      </trkpt>
      <trkpt lat="59.16310135564" lon="17.925645585297">
        <ele>8.6</ele>
        <time>2016-04-10T13:26:04Z</time>
      </trkpt>
      <trkpt lat="59.163068833868" lon="17.925640472338">
        <ele>9.2</ele>
        <time>2016-04-10T13:26:05Z</time>
      </trkpt>
      <trkpt lat="59.163039413399" lon="17.925635024103">
        <ele>10</ele>
        <time>2016-04-10T13:26:06Z</time>
      </trkpt>
      <trkpt lat="59.16300664017" lon="17.9256319228">
        <ele>10.6</ele>
        <time>2016-04-10T13:26:07Z</time>
      </trkpt>
      <trkpt lat="59.162972944932" lon="17.925628067126">
        <ele>11.4</ele>
        <time>2016-04-10T13:26:08Z</time>
      </trkpt>
      <trkpt lat="59.162939333513" lon="17.925626558384">
        <ele>12</ele>
        <time>2016-04-10T13:26:09Z</time>
      </trkpt>
      <trkpt lat="59.162903710438" lon="17.925627145117">
        <ele>12.4</ele>
        <time>2016-04-10T13:26:10Z</time>
      </trkpt>
      <trkpt lat="59.162876217806" lon="17.925628150945">
        <ele>13</ele>
        <time>2016-04-10T13:26:11Z</time>
      </trkpt>
      <trkpt lat="59.162849144269" lon="17.925630162601">
        <ele>13.6</ele>
        <time>2016-04-10T13:26:12Z</time>
      </trkpt>
      <trkpt lat="59.162822908922" lon="17.925627396574">
        <ele>14.2</ele>
        <time>2016-04-10T13:26:13Z</time>
      </trkpt>
      <trkpt lat="59.162797847041" lon="17.925626726022">
        <ele>14.6</ele>
        <time>2016-04-10T13:26:14Z</time>
      </trkpt>
      <trkpt lat="59.162767923658" lon="17.925622283615">
        <ele>15</ele>
        <time>2016-04-10T13:26:15Z</time>
      </trkpt>
      <trkpt lat="59.162734982791" lon="17.925614823724">
        <ele>15.4</ele>
        <time>2016-04-10T13:26:16Z</time>
      </trkpt>
      <trkpt lat="59.16269986263" lon="17.925608369661">
        <ele>15.8</ele>
        <time>2016-04-10T13:26:17Z</time>
      </trkpt>
      <trkpt lat="59.162666502668" lon="17.925603256702">
        <ele>16.4</ele>
        <time>2016-04-10T13:26:18Z</time>
      </trkpt>
      <trkpt lat="59.1625934125" lon="17.925608369661">
        <ele>16.8</ele>
        <time>2016-04-10T13:26:20Z</time>
      </trkpt>
      <trkpt lat="59.162556113045" lon="17.925617086837">
        <ele>17.2</ele>
        <time>2016-04-10T13:26:21Z</time>
      </trkpt>
      <trkpt lat="59.162520406151" lon="17.925624127633">
        <ele>17.8</ele>
        <time>2016-04-10T13:26:22Z</time>
      </trkpt>
      <trkpt lat="59.162481765592" lon="17.925635191741">
        <ele>18.2</ele>
        <time>2016-04-10T13:26:23Z</time>
      </trkpt>
      <trkpt lat="59.162445807241" lon="17.925642483994">
        <ele>18.8</ele>
        <time>2016-04-10T13:26:24Z</time>
      </trkpt>
      <trkpt lat="59.162338183645" lon="17.925671653006">
        <ele>18.8</ele>
        <time>2016-04-10T13:26:27Z</time>
      </trkpt>
      <trkpt lat="59.162303147303" lon="17.925681962743">
        <ele>19.2</ele>
        <time>2016-04-10T13:26:28Z</time>
      </trkpt>
      <trkpt lat="59.162269452065" lon="17.925694367955">
        <ele>19.6</ele>
        <time>2016-04-10T13:26:29Z</time>
      </trkpt>
      <trkpt lat="59.162235924465" lon="17.925706773167">
        <ele>20</ele>
        <time>2016-04-10T13:26:30Z</time>
      </trkpt>
      <trkpt lat="59.162206336358" lon="17.925719848931">
        <ele>20.4</ele>
        <time>2016-04-10T13:26:31Z</time>
      </trkpt>
      <trkpt lat="59.162175071871" lon="17.925746000459">
        <ele>20.8</ele>
        <time>2016-04-10T13:26:32Z</time>
      </trkpt>
      <trkpt lat="59.16208127841" lon="17.925832166391">
        <ele>21.2</ele>
        <time>2016-04-10T13:26:35Z</time>
      </trkpt>
      <trkpt lat="59.162052025579" lon="17.925858569376">
        <ele>21.6</ele>
        <time>2016-04-10T13:26:36Z</time>
      </trkpt>
      <trkpt lat="59.162016989237" lon="17.925891174967">
        <ele>22.2</ele>
        <time>2016-04-10T13:26:37Z</time>
      </trkpt>
      <trkpt lat="59.161981114705" lon="17.925916572124">
        <ele>22.6</ele>
        <time>2016-04-10T13:26:38Z</time>
      </trkpt>
      <trkpt lat="59.161942641784" lon="17.925949764448">
        <ele>23</ele>
        <time>2016-04-10T13:26:39Z</time>
      </trkpt>
      <trkpt lat="59.161903079216" lon="17.925988321188">
        <ele>23.4</ele>
        <time>2016-04-10T13:26:40Z</time>
      </trkpt>
      <trkpt lat="59.161859660974" lon="17.926028973403">
        <ele>23.8</ele>
        <time>2016-04-10T13:26:41Z</time>
      </trkpt>
      <trkpt lat="59.161816829465" lon="17.926075660586">
        <ele>24.6</ele>
        <time>2016-04-10T13:26:42Z</time>
      </trkpt>
      <trkpt lat="59.161778943277" lon="17.926120168475">
        <ele>25</ele>
        <time>2016-04-10T13:26:43Z</time>
      </trkpt>
      <trkpt lat="59.161741057089" lon="17.926157970844">
        <ele>25</ele>
        <time>2016-04-10T13:26:44Z</time>
      </trkpt>
      <trkpt lat="59.161580543704" lon="17.92632594412">
        <ele>25</ele>
        <time>2016-04-10T13:26:48Z</time>
      </trkpt>
      <trkpt lat="59.161539975308" lon="17.926359304082">
        <ele>25</ele>
        <time>2016-04-10T13:26:49Z</time>
      </trkpt>
      <trkpt lat="59.161460682534" lon="17.92642568873">
        <ele>25.6</ele>
        <time>2016-04-10T13:26:51Z</time>
      </trkpt>
      <trkpt lat="59.161412318971" lon="17.926461814719">
        <ele>26</ele>
        <time>2016-04-10T13:26:52Z</time>
      </trkpt>
      <trkpt lat="59.161361524657" lon="17.926494587948">
        <ele>26.4</ele>
        <time>2016-04-10T13:26:53Z</time>
      </trkpt>
      <trkpt lat="59.161313244913" lon="17.926530378661">
        <ele>27</ele>
        <time>2016-04-10T13:26:54Z</time>
      </trkpt>
      <trkpt lat="59.161265468083" lon="17.926568264849">
        <ele>27.4</ele>
        <time>2016-04-10T13:26:55Z</time>
      </trkpt>
      <trkpt lat="59.16109724335" lon="17.926711343882">
        <ele>27.4</ele>
        <time>2016-04-10T13:26:58Z</time>
      </trkpt>
      <trkpt lat="59.160801865194" lon="17.926952323507">
        <ele>27.4</ele>
        <time>2016-04-10T13:27:03Z</time>
      </trkpt>
      <trkpt lat="59.160463739348" lon="17.927307716067">
        <ele>27.4</ele>
        <time>2016-04-10T13:27:09Z</time>
      </trkpt>
      <trkpt lat="59.160082111441" lon="17.92770895762">
        <ele>27.4</ele>
        <time>2016-04-10T13:27:15Z</time>
      </trkpt>
      <trkpt lat="59.159808777682" lon="17.927919175672">
        <ele>27.4</ele>
        <time>2016-04-10T13:27:19Z</time>
      </trkpt>
      <trkpt lat="59.15973350822" lon="17.927957397136">
        <ele>27.4</ele>
        <time>2016-04-10T13:27:20Z</time>
      </trkpt>
      <trkpt lat="59.159653209618" lon="17.927987655795">
        <ele>27</ele>
        <time>2016-04-10T13:27:21Z</time>
      </trkpt>
      <trkpt lat="59.15956503203" lon="17.928018501187">
        <ele>26.4</ele>
        <time>2016-04-10T13:27:22Z</time>
      </trkpt>
      <trkpt lat="59.159472998768" lon="17.928052531701">
        <ele>25.8</ele>
        <time>2016-04-10T13:27:23Z</time>
      </trkpt>
      <trkpt lat="59.159372583606" lon="17.928092094269">
        <ele>25.2</ele>
        <time>2016-04-10T13:27:24Z</time>
      </trkpt>
      <trkpt lat="59.159266720209" lon="17.928138529995">
        <ele>24.4</ele>
        <time>2016-04-10T13:27:25Z</time>
      </trkpt>
      <trkpt lat="59.159157001138" lon="17.928182702608">
        <ele>23.6</ele>
        <time>2016-04-10T13:27:26Z</time>
      </trkpt>
      <trkpt lat="59.159044348402" lon="17.92821773895">
        <ele>22.6</ele>
        <time>2016-04-10T13:27:27Z</time>
      </trkpt>
      <trkpt lat="59.158932114761" lon="17.92824372284">
        <ele>21.4</ele>
        <time>2016-04-10T13:27:28Z</time>
      </trkpt>
      <trkpt lat="59.158819126749" lon="17.928265264323">
        <ele>20.2</ele>
        <time>2016-04-10T13:27:29Z</time>
      </trkpt>
      <trkpt lat="59.158699936131" lon="17.928289571833">
        <ele>19</ele>
        <time>2016-04-10T13:27:30Z</time>
      </trkpt>
      <trkpt lat="59.158581248427" lon="17.92831245442">
        <ele>17.2</ele>
        <time>2016-04-10T13:27:31Z</time>
      </trkpt>
      <trkpt lat="59.158461303438" lon="17.928335756102">
        <ele>16.2</ele>
        <time>2016-04-10T13:27:32Z</time>
      </trkpt>
      <trkpt lat="59.158339262974" lon="17.928349921513">
        <ele>15.4</ele>
        <time>2016-04-10T13:27:33Z</time>
      </trkpt>
      <trkpt lat="59.1582180607" lon="17.92835101116">
        <ele>14.6</ele>
        <time>2016-04-10T13:27:34Z</time>
      </trkpt>
      <trkpt lat="59.158102222842" lon="17.928333995903">
        <ele>13.8</ele>
        <time>2016-04-10T13:27:35Z</time>
      </trkpt>
      <trkpt lat="59.157987893726" lon="17.928307257642">
        <ele>13.2</ele>
        <time>2016-04-10T13:27:36Z</time>
      </trkpt>
      <trkpt lat="59.157871217678" lon="17.928273143309">
        <ele>12.4</ele>
        <time>2016-04-10T13:27:37Z</time>
      </trkpt>
      <trkpt lat="59.15776208534" lon="17.928238442243">
        <ele>11.8</ele>
        <time>2016-04-10T13:27:38Z</time>
      </trkpt>
      <trkpt lat="59.157547173424" lon="17.928181445323">
        <ele>11.8</ele>
        <time>2016-04-10T13:27:40Z</time>
      </trkpt>
      <trkpt lat="59.157046606356" lon="17.928018501187">
        <ele>11.8</ele>
        <time>2016-04-10T13:27:45Z</time>
      </trkpt>
      <trkpt lat="59.156957339121" lon="17.927999977188">
        <ele>12.2</ele>
        <time>2016-04-10T13:27:46Z</time>
      </trkpt>
      <trkpt lat="59.156873268664" lon="17.927984889768">
        <ele>12.6</ele>
        <time>2016-04-10T13:27:47Z</time>
      </trkpt>
      <trkpt lat="59.15679062313" lon="17.927984219216">
        <ele>13</ele>
        <time>2016-04-10T13:27:48Z</time>
      </trkpt>
      <trkpt lat="59.156710492166" lon="17.927998300808">
        <ele>13.4</ele>
        <time>2016-04-10T13:27:49Z</time>
      </trkpt>
      <trkpt lat="59.15663471979" lon="17.928031828408">
        <ele>14</ele>
        <time>2016-04-10T13:27:50Z</time>
      </trkpt>
      <trkpt lat="59.156419975512" lon="17.928217068398">
        <ele>14</ele>
        <time>2016-04-10T13:27:53Z</time>
      </trkpt>
      <trkpt lat="59.156302042179" lon="17.928395854325">
        <ele>14.4</ele>
        <time>2016-04-10T13:27:55Z</time>
      </trkpt>
      <trkpt lat="59.156242530689" lon="17.928492413813">
        <ele>14.8</ele>
        <time>2016-04-10T13:27:56Z</time>
      </trkpt>
      <trkpt lat="59.15618544995" lon="17.928582519238">
        <ele>15.2</ele>
        <time>2016-04-10T13:27:57Z</time>
      </trkpt>
      <trkpt lat="59.156131554333" lon="17.928677821441">
        <ele>15.6</ele>
        <time>2016-04-10T13:27:58Z</time>
      </trkpt>
      <trkpt lat="59.156079586553" lon="17.928769351789">
        <ele>16</ele>
        <time>2016-04-10T13:27:59Z</time>
      </trkpt>
      <trkpt lat="59.155802564758" lon="17.929231026841">
        <ele>16</ele>
        <time>2016-04-10T13:28:04Z</time>
      </trkpt>
      <trkpt lat="59.155695779352" lon="17.929403526343">
        <ele>16.4</ele>
        <time>2016-04-10T13:28:06Z</time>
      </trkpt>
      <trkpt lat="59.155641045545" lon="17.929488267352">
        <ele>17</ele>
        <time>2016-04-10T13:28:07Z</time>
      </trkpt>
      <trkpt lat="59.155587149928" lon="17.929562782443">
        <ele>17.4</ele>
        <time>2016-04-10T13:28:08Z</time>
      </trkpt>
      <trkpt lat="59.155534008682" lon="17.929642075217">
        <ele>17.8</ele>
        <time>2016-04-10T13:28:09Z</time>
      </trkpt>
      <trkpt lat="59.155477933771" lon="17.929719272516">
        <ele>18.2</ele>
        <time>2016-04-10T13:28:10Z</time>
      </trkpt>
      <trkpt lat="59.155364107569" lon="17.929861932454">
        <ele>18.6</ele>
        <time>2016-04-10T13:28:12Z</time>
      </trkpt>
      <trkpt lat="59.155301578595" lon="17.929922785048">
        <ele>19.2</ele>
        <time>2016-04-10T13:28:13Z</time>
      </trkpt>
      <trkpt lat="59.155237289422" lon="17.929970310421">
        <ele>19.6</ele>
        <time>2016-04-10T13:28:14Z</time>
      </trkpt>
      <trkpt lat="59.155168809299" lon="17.929998222148">
        <ele>20</ele>
        <time>2016-04-10T13:28:15Z</time>
      </trkpt>
      <trkpt lat="59.155098401339" lon="17.930016578509">
        <ele>20.4</ele>
        <time>2016-04-10T13:28:16Z</time>
      </trkpt>
      <trkpt lat="59.155022126049" lon="17.930025379504">
        <ele>20.4</ele>
        <time>2016-04-10T13:28:17Z</time>
      </trkpt>
      <trkpt lat="59.154941324533" lon="17.930025044228">
        <ele>20.4</ele>
        <time>2016-04-10T13:28:18Z</time>
      </trkpt>
      <trkpt lat="59.154866222709" lon="17.930014231577">
        <ele>20.4</ele>
        <time>2016-04-10T13:28:19Z</time>
      </trkpt>
      <trkpt lat="59.154711995749" lon="17.929958240485">
        <ele>20.4</ele>
        <time>2016-04-10T13:28:21Z</time>
      </trkpt>
      <trkpt lat="59.154549973622" lon="17.929893448398">
        <ele>20.4</ele>
        <time>2016-04-10T13:28:23Z</time>
      </trkpt>
      <trkpt lat="59.154062985232" lon="17.929601255364">
        <ele>20.4</ele>
        <time>2016-04-10T13:28:29Z</time>
      </trkpt>
      <trkpt lat="59.153566692933" lon="17.929201103458">
        <ele>20.4</ele>
        <time>2016-04-10T13:28:35Z</time>
      </trkpt>
      <trkpt lat="59.153394780164" lon="17.92904251791">
        <ele>20.4</ele>
        <time>2016-04-10T13:28:37Z</time>
      </trkpt>
      <trkpt lat="59.15323753572" lon="17.928868342028">
        <ele>20.4</ele>
        <time>2016-04-10T13:28:39Z</time>
      </trkpt>
      <trkpt lat="59.153158075308" lon="17.928769770884">
        <ele>20</ele>
        <time>2016-04-10T13:28:40Z</time>
      </trkpt>
      <trkpt lat="59.153079033991" lon="17.92867203793">
        <ele>19.6</ele>
        <time>2016-04-10T13:28:41Z</time>
      </trkpt>
      <trkpt lat="59.153001082321" lon="17.928569862569">
        <ele>19.2</ele>
        <time>2016-04-10T13:28:42Z</time>
      </trkpt>
      <trkpt lat="59.152920532262" lon="17.928482774628">
        <ele>18.6</ele>
        <time>2016-04-10T13:28:43Z</time>
      </trkpt>
      <trkpt lat="59.15283352814" lon="17.92840884627">
        <ele>18.2</ele>
        <time>2016-04-10T13:28:44Z</time>
      </trkpt>
      <trkpt lat="59.152553824137" lon="17.928284375055">
        <ele>18.2</ele>
        <time>2016-04-10T13:28:47Z</time>
      </trkpt>
      <trkpt lat="59.15245550445" lon="17.928269790549">
        <ele>18.2</ele>
        <time>2016-04-10T13:28:48Z</time>
      </trkpt>
      <trkpt lat="59.152357100944" lon="17.928262246839">
        <ele>17.8</ele>
        <time>2016-04-10T13:28:49Z</time>
      </trkpt>
      <trkpt lat="59.152257943067" lon="17.928256630966">
        <ele>17.4</ele>
        <time>2016-04-10T13:28:50Z</time>
      </trkpt>
      <trkpt lat="59.152157863181" lon="17.928262414477">
        <ele>16.6</ele>
        <time>2016-04-10T13:28:51Z</time>
      </trkpt>
      <trkpt lat="59.15205149687" lon="17.9282806032">
        <ele>15.8</ele>
        <time>2016-04-10T13:28:52Z</time>
      </trkpt>
      <trkpt lat="59.151949740604" lon="17.928304156339">
        <ele>15.2</ele>
        <time>2016-04-10T13:28:53Z</time>
      </trkpt>
      <trkpt lat="59.15185033127" lon="17.928337516301">
        <ele>14.4</ele>
        <time>2016-04-10T13:28:54Z</time>
      </trkpt>
      <trkpt lat="59.151748575004" lon="17.928375653946">
        <ele>13.8</ele>
        <time>2016-04-10T13:28:55Z</time>
      </trkpt>
      <trkpt lat="59.151646483462" lon="17.928412785763">
        <ele>13.2</ele>
        <time>2016-04-10T13:28:56Z</time>
      </trkpt>
      <trkpt lat="59.151545481567" lon="17.92844572663">
        <ele>12.6</ele>
        <time>2016-04-10T13:28:57Z</time>
      </trkpt>
      <trkpt lat="59.151441126912" lon="17.928479086592">
        <ele>12</ele>
        <time>2016-04-10T13:28:58Z</time>
      </trkpt>
      <trkpt lat="59.151334341506" lon="17.928513703839">
        <ele>11.2</ele>
        <time>2016-04-10T13:28:59Z</time>
      </trkpt>
      <trkpt lat="59.15088808915" lon="17.92867287612">
        <ele>11.2</ele>
        <time>2016-04-10T13:29:03Z</time>
      </trkpt>
      <trkpt lat="59.150339996709" lon="17.928867671476">
        <ele>11.2</ele>
        <time>2016-04-10T13:29:08Z</time>
      </trkpt>
      <trkpt lat="59.150233881855" lon="17.92890505475">
        <ele>10.8</ele>
        <time>2016-04-10T13:29:09Z</time>
      </trkpt>
      <trkpt lat="59.150129443381" lon="17.92894361149">
        <ele>10.4</ele>
        <time>2016-04-10T13:29:10Z</time>
      </trkpt>
      <trkpt lat="59.150026010735" lon="17.928984096067">
        <ele>10</ele>
        <time>2016-04-10T13:29:11Z</time>
      </trkpt>
      <trkpt lat="59.149924589745" lon="17.92902240135">
        <ele>9.6</ele>
        <time>2016-04-10T13:29:12Z</time>
      </trkpt>
      <trkpt lat="59.149825850963" lon="17.929064143212">
        <ele>9.2</ele>
        <time>2016-04-10T13:29:13Z</time>
      </trkpt>
      <trkpt lat="59.149731135493" lon="17.929106136531">
        <ele>9.6</ele>
        <time>2016-04-10T13:29:14Z</time>
      </trkpt>
      <trkpt lat="59.149632145254" lon="17.929148632764">
        <ele>10.2</ele>
        <time>2016-04-10T13:29:15Z</time>
      </trkpt>
      <trkpt lat="59.149538016517" lon="17.929188195332">
        <ele>10.6</ele>
        <time>2016-04-10T13:29:16Z</time>
      </trkpt>
      <trkpt lat="59.149444474513" lon="17.929229182823">
        <ele>11.2</ele>
        <time>2016-04-10T13:29:17Z</time>
      </trkpt>
      <trkpt lat="59.149352105975" lon="17.929274780359">
        <ele>11.8</ele>
        <time>2016-04-10T13:29:18Z</time>
      </trkpt>
      <trkpt lat="59.148800660774" lon="17.929590191256">
        <ele>11.8</ele>
        <time>2016-04-10T13:29:24Z</time>
      </trkpt>
      <trkpt lat="59.148711477358" lon="17.92965355842">
        <ele>11.8</ele>
        <time>2016-04-10T13:29:25Z</time>
      </trkpt>
      <trkpt lat="59.148186686599" lon="17.930004005659">
        <ele>11.8</ele>
        <time>2016-04-10T13:29:31Z</time>
      </trkpt>
      <trkpt lat="59.14768368878" lon="17.930415054035">
        <ele>11.8</ele>
        <time>2016-04-10T13:29:37Z</time>
      </trkpt>
      <trkpt lat="59.147447738295" lon="17.930638766946">
        <ele>11.8</ele>
        <time>2016-04-10T13:29:40Z</time>
      </trkpt>
      <trkpt lat="59.147227294325" lon="17.93087983039">
        <ele>12.2</ele>
        <time>2016-04-10T13:29:43Z</time>
      </trkpt>
      <trkpt lat="59.147154707071" lon="17.930969935815">
        <ele>12.6</ele>
        <time>2016-04-10T13:29:44Z</time>
      </trkpt>
      <trkpt lat="59.147088238604" lon="17.931058532498">
        <ele>13</ele>
        <time>2016-04-10T13:29:45Z</time>
      </trkpt>
      <trkpt lat="59.147024452345" lon="17.93115391852">
        <ele>13.4</ele>
        <time>2016-04-10T13:29:46Z</time>
      </trkpt>
      <trkpt lat="59.146960666086" lon="17.931254585139">
        <ele>13.8</ele>
        <time>2016-04-10T13:29:47Z</time>
      </trkpt>
      <trkpt lat="59.146648859406" lon="17.931794128042">
        <ele>13.8</ele>
        <time>2016-04-10T13:29:52Z</time>
      </trkpt>
      <trkpt lat="59.146233452442" lon="17.932496782719">
        <ele>13.8</ele>
        <time>2016-04-10T13:29:59Z</time>
      </trkpt>
      <trkpt lat="59.146173857133" lon="17.932601053555">
        <ele>13.8</ele>
        <time>2016-04-10T13:30:00Z</time>
      </trkpt>
      <trkpt lat="59.145899936641" lon="17.933066919557">
        <ele>13.8</ele>
        <time>2016-04-10T13:30:05Z</time>
      </trkpt>
      <trkpt lat="59.145838748771" lon="17.933146966702">
        <ele>13.8</ele>
        <time>2016-04-10T13:30:06Z</time>
      </trkpt>
      <trkpt lat="59.145527947919" lon="17.933537395604">
        <ele>13.8</ele>
        <time>2016-04-10T13:30:11Z</time>
      </trkpt>
      <trkpt lat="59.145056633682" lon="17.933915922208">
        <ele>13.8</ele>
        <time>2016-04-10T13:30:18Z</time>
      </trkpt>
      <trkpt lat="59.144568220369" lon="17.934155979824">
        <ele>13.8</ele>
        <time>2016-04-10T13:30:25Z</time>
      </trkpt>
      <trkpt lat="59.14450024316" lon="17.934180790248">
        <ele>14.2</ele>
        <time>2016-04-10T13:30:26Z</time>
      </trkpt>
      <trkpt lat="59.144432182132" lon="17.93420241555">
        <ele>14.6</ele>
        <time>2016-04-10T13:30:27Z</time>
      </trkpt>
      <trkpt lat="59.144366300398" lon="17.934224543766">
        <ele>15</ele>
        <time>2016-04-10T13:30:28Z</time>
      </trkpt>
      <trkpt lat="59.144304693433" lon="17.934244744145">
        <ele>15.4</ele>
        <time>2016-04-10T13:30:29Z</time>
      </trkpt>
      <trkpt lat="59.144244427572" lon="17.934264609248">
        <ele>15.8</ele>
        <time>2016-04-10T13:30:30Z</time>
      </trkpt>
      <trkpt lat="59.144182066236" lon="17.934279193754">
        <ele>15.8</ele>
        <time>2016-04-10T13:30:31Z</time>
      </trkpt>
      <trkpt lat="59.143954832927" lon="17.934311966983">
        <ele>16.4</ele>
        <time>2016-04-10T13:30:35Z</time>
      </trkpt>
      <trkpt lat="59.143897249274" lon="17.934317582856">
        <ele>16.8</ele>
        <time>2016-04-10T13:30:36Z</time>
      </trkpt>
      <trkpt lat="59.143837486327" lon="17.934321187073">
        <ele>17.2</ele>
        <time>2016-04-10T13:30:37Z</time>
      </trkpt>
      <trkpt lat="59.143776298457" lon="17.934312721354">
        <ele>17.6</ele>
        <time>2016-04-10T13:30:38Z</time>
      </trkpt>
      <trkpt lat="59.143718295709" lon="17.9342988074">
        <ele>18.2</ele>
        <time>2016-04-10T13:30:39Z</time>
      </trkpt>
      <trkpt lat="59.143596506702" lon="17.934267710551">
        <ele>18.2</ele>
        <time>2016-04-10T13:30:41Z</time>
      </trkpt>
      <trkpt lat="59.143464324139" lon="17.934229740544">
        <ele>18.2</ele>
        <time>2016-04-10T13:30:43Z</time>
      </trkpt>
      <trkpt lat="59.143402800993" lon="17.93420912107">
        <ele>18.2</ele>
        <time>2016-04-10T13:30:44Z</time>
      </trkpt>
      <trkpt lat="59.143278413597" lon="17.934154219625">
        <ele>18.2</ele>
        <time>2016-04-10T13:30:46Z</time>
      </trkpt>
      <trkpt lat="59.143095604358" lon="17.934012733153">
        <ele>18.2</ele>
        <time>2016-04-10T13:30:49Z</time>
      </trkpt>
      <trkpt lat="59.142836771286" lon="17.93377577684">
        <ele>18.2</ele>
        <time>2016-04-10T13:30:53Z</time>
      </trkpt>
      <trkpt lat="59.142619260981" lon="17.93356622934">
        <ele>17.6</ele>
        <time>2016-04-10T13:30:56Z</time>
      </trkpt>
      <trkpt lat="59.14254474589" lon="17.933485344005">
        <ele>17.2</ele>
        <time>2016-04-10T13:30:57Z</time>
      </trkpt>
      <trkpt lat="59.142466961858" lon="17.93340948781">
        <ele>16.8</ele>
        <time>2016-04-10T13:30:58Z</time>
      </trkpt>
      <trkpt lat="59.142387669084" lon="17.933332122873">
        <ele>16</ele>
        <time>2016-04-10T13:30:59Z</time>
      </trkpt>
      <trkpt lat="59.142307286663" lon="17.933251740452">
        <ele>15.4</ele>
        <time>2016-04-10T13:31:00Z</time>
      </trkpt>
      <trkpt lat="59.142228412984" lon="17.93315803081">
        <ele>14.8</ele>
        <time>2016-04-10T13:31:01Z</time>
      </trkpt>
      <trkpt lat="59.142153059703" lon="17.933072200154">
        <ele>14.2</ele>
        <time>2016-04-10T13:31:02Z</time>
      </trkpt>
      <trkpt lat="59.14207619768" lon="17.932981507996">
        <ele>13.6</ele>
        <time>2016-04-10T13:31:03Z</time>
      </trkpt>
      <trkpt lat="59.142001766408" lon="17.932883775042">
        <ele>13.6</ele>
        <time>2016-04-10T13:31:04Z</time>
      </trkpt>
      <trkpt lat="59.141858603556" lon="17.932671210058">
        <ele>13.2</ele>
        <time>2016-04-10T13:31:06Z</time>
      </trkpt>
      <trkpt lat="59.141792135089" lon="17.932558305865">
        <ele>12.8</ele>
        <time>2016-04-10T13:31:07Z</time>
      </trkpt>
      <trkpt lat="59.141730192848" lon="17.932440959265">
        <ele>12.4</ele>
        <time>2016-04-10T13:31:08Z</time>
      </trkpt>
      <trkpt lat="59.141671435729" lon="17.932315901317">
        <ele>11.8</ele>
        <time>2016-04-10T13:31:09Z</time>
      </trkpt>
      <trkpt lat="59.141615444637" lon="17.932190172817">
        <ele>11.4</ele>
        <time>2016-04-10T13:31:10Z</time>
      </trkpt>
      <trkpt lat="59.141273044022" lon="17.931459103499">
        <ele>11.4</ele>
        <time>2016-04-10T13:31:16Z</time>
      </trkpt>
      <trkpt lat="59.140849255158" lon="17.930877986372">
        <ele>11.4</ele>
        <time>2016-04-10T13:31:22Z</time>
      </trkpt>
      <trkpt lat="59.140385819907" lon="17.930461322123">
        <ele>11.4</ele>
        <time>2016-04-10T13:31:28Z</time>
      </trkpt>
      <trkpt lat="59.139866561202" lon="17.929986906583">
        <ele>11.4</ele>
        <time>2016-04-10T13:31:35Z</time>
      </trkpt>
      <trkpt lat="59.139490716806" lon="17.929435796658">
        <ele>11.4</ele>
        <time>2016-04-10T13:31:41Z</time>
      </trkpt>
      <trkpt lat="59.139099868809" lon="17.928765412296">
        <ele>11.4</ele>
        <time>2016-04-10T13:31:48Z</time>
      </trkpt>
      <trkpt lat="59.139049996504" lon="17.9286829344">
        <ele>12</ele>
        <time>2016-04-10T13:31:49Z</time>
      </trkpt>
      <trkpt lat="59.139001549122" lon="17.928599785952">
        <ele>12.4</ele>
        <time>2016-04-10T13:31:50Z</time>
      </trkpt>
      <trkpt lat="59.138953856111" lon="17.928516888961">
        <ele>12.8</ele>
        <time>2016-04-10T13:31:51Z</time>
      </trkpt>
      <trkpt lat="59.138905492548" lon="17.928436590359">
        <ele>13.2</ele>
        <time>2016-04-10T13:31:52Z</time>
      </trkpt>
      <trkpt lat="59.138859140641" lon="17.928356962309">
        <ele>13.6</ele>
        <time>2016-04-10T13:31:53Z</time>
      </trkpt>
      <trkpt lat="59.138812118182" lon="17.928275071146">
        <ele>14</ele>
        <time>2016-04-10T13:31:54Z</time>
      </trkpt>
      <trkpt lat="59.138771298329" lon="17.928191084508">
        <ele>14.4</ele>
        <time>2016-04-10T13:31:55Z</time>
      </trkpt>
      <trkpt lat="59.138728299182" lon="17.928117910521">
        <ele>15</ele>
        <time>2016-04-10T13:31:56Z</time>
      </trkpt>
      <trkpt lat="59.138682198732" lon="17.928046915828">
        <ele>15.4</ele>
        <time>2016-04-10T13:31:57Z</time>
      </trkpt>
      <trkpt lat="59.138635763006" lon="17.927980363542">
        <ele>15.8</ele>
        <time>2016-04-10T13:31:58Z</time>
      </trkpt>
      <trkpt lat="59.138589494918" lon="17.927909117392">
        <ele>16.2</ele>
        <time>2016-04-10T13:31:59Z</time>
      </trkpt>
      <trkpt lat="59.138546076676" lon="17.927837116871">
        <ele>16.6</ele>
        <time>2016-04-10T13:32:00Z</time>
      </trkpt>
      <trkpt lat="59.138501820244" lon="17.927759081382">
        <ele>17</ele>
        <time>2016-04-10T13:32:01Z</time>
      </trkpt>
      <trkpt lat="59.138458653459" lon="17.927692864372">
        <ele>17.4</ele>
        <time>2016-04-10T13:32:02Z</time>
      </trkpt>
      <trkpt lat="59.138413391199" lon="17.927627234095">
        <ele>17.8</ele>
        <time>2016-04-10T13:32:03Z</time>
      </trkpt>
      <trkpt lat="59.138325632706" lon="17.927483568329">
        <ele>18.4</ele>
        <time>2016-04-10T13:32:05Z</time>
      </trkpt>
      <trkpt lat="59.13828171155" lon="17.927410897256">
        <ele>18.8</ele>
        <time>2016-04-10T13:32:06Z</time>
      </trkpt>
      <trkpt lat="59.138242065163" lon="17.927331101568">
        <ele>19.2</ele>
        <time>2016-04-10T13:32:07Z</time>
      </trkpt>
      <trkpt lat="59.138201329129" lon="17.927254993916">
        <ele>19.6</ele>
        <time>2016-04-10T13:32:08Z</time>
      </trkpt>
      <trkpt lat="59.138158078525" lon="17.927182239024">
        <ele>20.2</ele>
        <time>2016-04-10T13:32:09Z</time>
      </trkpt>
      <trkpt lat="59.138114827921" lon="17.927104371173">
        <ele>20.2</ele>
        <time>2016-04-10T13:32:10Z</time>
      </trkpt>
      <trkpt lat="59.137910644837" lon="17.92669977686">
        <ele>20.6</ele>
        <time>2016-04-10T13:32:15Z</time>
      </trkpt>
      <trkpt lat="59.137873345382" lon="17.926612521281">
        <ele>21</ele>
        <time>2016-04-10T13:32:16Z</time>
      </trkpt>
      <trkpt lat="59.137838141402" lon="17.926531635946">
        <ele>21.4</ele>
        <time>2016-04-10T13:32:17Z</time>
      </trkpt>
      <trkpt lat="59.137803607974" lon="17.926453516638">
        <ele>21.8</ele>
        <time>2016-04-10T13:32:18Z</time>
      </trkpt>
      <trkpt lat="59.137768906908" lon="17.926381516117">
        <ele>22.4</ele>
        <time>2016-04-10T13:32:19Z</time>
      </trkpt>
      <trkpt lat="59.13765139267" lon="17.926077504604">
        <ele>22.8</ele>
        <time>2016-04-10T13:32:23Z</time>
      </trkpt>
      <trkpt lat="59.137623564762" lon="17.926001061676">
        <ele>23.4</ele>
        <time>2016-04-10T13:32:24Z</time>
      </trkpt>
      <trkpt lat="59.137599843985" lon="17.925934006476">
        <ele>23.8</ele>
        <time>2016-04-10T13:32:25Z</time>
      </trkpt>
      <trkpt lat="59.137581319986" lon="17.925866280724">
        <ele>24.4</ele>
        <time>2016-04-10T13:32:26Z</time>
      </trkpt>
      <trkpt lat="59.137563717996" lon="17.925802745922">
        <ele>25.2</ele>
        <time>2016-04-10T13:32:27Z</time>
      </trkpt>
      <trkpt lat="59.137542260332" lon="17.925744910812">
        <ele>25.6</ele>
        <time>2016-04-10T13:32:28Z</time>
      </trkpt>
      <trkpt lat="59.137521305582" lon="17.925685986055">
        <ele>26.2</ele>
        <time>2016-04-10T13:32:29Z</time>
      </trkpt>
      <trkpt lat="59.13749968028" lon="17.925626390746">
        <ele>26.6</ele>
        <time>2016-04-10T13:32:30Z</time>
      </trkpt>
      <trkpt lat="59.137478474073" lon="17.92556402941">
        <ele>27</ele>
        <time>2016-04-10T13:32:31Z</time>
      </trkpt>
      <trkpt lat="59.137434636736" lon="17.925437965634">
        <ele>27.4</ele>
        <time>2016-04-10T13:32:33Z</time>
      </trkpt>
      <trkpt lat="59.137411754149" lon="17.925375771936">
        <ele>27.8</ele>
        <time>2016-04-10T13:32:34Z</time>
      </trkpt>
      <trkpt lat="59.137391302313" lon="17.925311315125">
        <ele>28.2</ele>
        <time>2016-04-10T13:32:35Z</time>
      </trkpt>
      <trkpt lat="59.137367497717" lon="17.925249205246">
        <ele>28.6</ele>
        <time>2016-04-10T13:32:36Z</time>
      </trkpt>
      <trkpt lat="59.137343525483" lon="17.925183658788">
        <ele>29.2</ele>
        <time>2016-04-10T13:32:37Z</time>
      </trkpt>
      <trkpt lat="59.137324414751" lon="17.925115430122">
        <ele>29.2</ele>
        <time>2016-04-10T13:32:38Z</time>
      </trkpt>
      <trkpt lat="59.137230118376" lon="17.924870930099">
        <ele>29.6</ele>
        <time>2016-04-10T13:32:42Z</time>
      </trkpt>
      <trkpt lat="59.137206649056" lon="17.924813933179">
        <ele>30</ele>
        <time>2016-04-10T13:32:43Z</time>
      </trkpt>
      <trkpt lat="59.137183598831" lon="17.924760289019">
        <ele>30.4</ele>
        <time>2016-04-10T13:32:44Z</time>
      </trkpt>
      <trkpt lat="59.137161638253" lon="17.924705303755">
        <ele>30.8</ele>
        <time>2016-04-10T13:32:45Z</time>
      </trkpt>
      <trkpt lat="59.137137833657" lon="17.92464369679">
        <ele>31.2</ele>
        <time>2016-04-10T13:32:46Z</time>
      </trkpt>
      <trkpt lat="59.137046135671" lon="17.924406069925">
        <ele>31.6</ele>
        <time>2016-04-10T13:32:50Z</time>
      </trkpt>
      <trkpt lat="59.137023923636" lon="17.92435200667">
        <ele>32</ele>
        <time>2016-04-10T13:32:51Z</time>
      </trkpt>
      <trkpt lat="59.13700011904" lon="17.924302385822">
        <ele>32.8</ele>
        <time>2016-04-10T13:32:52Z</time>
      </trkpt>
      <trkpt lat="59.136977907005" lon="17.924255195725">
        <ele>33.2</ele>
        <time>2016-04-10T13:32:53Z</time>
      </trkpt>
      <trkpt lat="59.136885957562" lon="17.924042044008">
        <ele>33.6</ele>
        <time>2016-04-10T13:32:57Z</time>
      </trkpt>
      <trkpt lat="59.136862572061" lon="17.923984460355">
        <ele>34</ele>
        <time>2016-04-10T13:32:58Z</time>
      </trkpt>
      <trkpt lat="59.136836839628" lon="17.923926038512">
        <ele>34.6</ele>
        <time>2016-04-10T13:32:59Z</time>
      </trkpt>
      <trkpt lat="59.136811442471" lon="17.923866527022">
        <ele>35</ele>
        <time>2016-04-10T13:33:00Z</time>
      </trkpt>
      <trkpt lat="59.136785458581" lon="17.92380802136">
        <ele>35.4</ele>
        <time>2016-04-10T13:33:01Z</time>
      </trkpt>
      <trkpt lat="59.136574150882" lon="17.923359338253">
        <ele>35.4</ele>
        <time>2016-04-10T13:33:08Z</time>
      </trkpt>
      <trkpt lat="59.136485051285" lon="17.923129674193">
        <ele>35.8</ele>
        <time>2016-04-10T13:33:11Z</time>
      </trkpt>
      <trkpt lat="59.136454792626" lon="17.923056500206">
        <ele>36.2</ele>
        <time>2016-04-10T13:33:12Z</time>
      </trkpt>
      <trkpt lat="59.136426880899" lon="17.922989277368">
        <ele>36.6</ele>
        <time>2016-04-10T13:33:13Z</time>
      </trkpt>
      <trkpt lat="59.136400058819" lon="17.922929179145">
        <ele>37</ele>
        <time>2016-04-10T13:33:14Z</time>
      </trkpt>
      <trkpt lat="59.136371141264" lon="17.922872768958">
        <ele>37.4</ele>
        <time>2016-04-10T13:33:15Z</time>
      </trkpt>
      <trkpt lat="59.136330740506" lon="17.922777634393">
        <ele>37.4</ele>
        <time>2016-04-10T13:33:16Z</time>
      </trkpt>
      <trkpt lat="59.136254213759" lon="17.922602871778">
        <ele>37.4</ele>
        <time>2016-04-10T13:33:19Z</time>
      </trkpt>
      <trkpt lat="59.136202413617" lon="17.922466582084">
        <ele>37.8</ele>
        <time>2016-04-10T13:33:21Z</time>
      </trkpt>
      <trkpt lat="59.1361736637" lon="17.92239148026">
        <ele>38.2</ele>
        <time>2016-04-10T13:33:22Z</time>
      </trkpt>
      <trkpt lat="59.136145081421" lon="17.922305817242">
        <ele>38.6</ele>
        <time>2016-04-10T13:33:23Z</time>
      </trkpt>
      <trkpt lat="59.136117421151" lon="17.922225351002">
        <ele>39.2</ele>
        <time>2016-04-10T13:33:24Z</time>
      </trkpt>
      <trkpt lat="59.136087581587" lon="17.92214756697">
        <ele>39.6</ele>
        <time>2016-04-10T13:33:25Z</time>
      </trkpt>
      <trkpt lat="59.136053886349" lon="17.922080930865">
        <ele>39.6</ele>
        <time>2016-04-10T13:33:26Z</time>
      </trkpt>
      <trkpt lat="59.136017173627" lon="17.922012199285">
        <ele>39.6</ele>
        <time>2016-04-10T13:33:27Z</time>
      </trkpt>
      <trkpt lat="59.135946598029" lon="17.921862666189">
        <ele>40</ele>
        <time>2016-04-10T13:33:29Z</time>
      </trkpt>
      <trkpt lat="59.135914746809" lon="17.921776835533">
        <ele>40.4</ele>
        <time>2016-04-10T13:33:30Z</time>
      </trkpt>
      <trkpt lat="59.135883482322" lon="17.921692094524">
        <ele>40.8</ele>
        <time>2016-04-10T13:33:31Z</time>
      </trkpt>
      <trkpt lat="59.135845009401" lon="17.921604922764">
        <ele>41.2</ele>
        <time>2016-04-10T13:33:32Z</time>
      </trkpt>
      <trkpt lat="59.13580821286" lon="17.921528479836">
        <ele>41.6</ele>
        <time>2016-04-10T13:33:33Z</time>
      </trkpt>
      <trkpt lat="59.135640491041" lon="17.921101841126">
        <ele>41.6</ele>
        <time>2016-04-10T13:33:38Z</time>
      </trkpt>
      <trkpt lat="59.135602101939" lon="17.921017854488">
        <ele>42</ele>
        <time>2016-04-10T13:33:39Z</time>
      </trkpt>
      <trkpt lat="59.135555833851" lon="17.920923139018">
        <ele>42.6</ele>
        <time>2016-04-10T13:33:40Z</time>
      </trkpt>
      <trkpt lat="59.135511325962" lon="17.920833955602">
        <ele>43</ele>
        <time>2016-04-10T13:33:41Z</time>
      </trkpt>
      <trkpt lat="59.135466063702" lon="17.920736641743">
        <ele>43.4</ele>
        <time>2016-04-10T13:33:42Z</time>
      </trkpt>
      <trkpt lat="59.135421639632" lon="17.920639830798">
        <ele>43.8</ele>
        <time>2016-04-10T13:33:43Z</time>
      </trkpt>
      <trkpt lat="59.135380987417" lon="17.920542014025">
        <ele>43.8</ele>
        <time>2016-04-10T13:33:44Z</time>
      </trkpt>
      <trkpt lat="59.135047723073" lon="17.919914125896">
        <ele>43.8</ele>
        <time>2016-04-10T13:33:51Z</time>
      </trkpt>
      <trkpt lat="59.134805653801" lon="17.919379612133">
        <ele>43.8</ele>
        <time>2016-04-10T13:33:56Z</time>
      </trkpt>
      <trkpt lat="59.134771120373" lon="17.919256398203">
        <ele>43.8</ele>
        <time>2016-04-10T13:33:57Z</time>
      </trkpt>
      <trkpt lat="59.134737089859" lon="17.919137039947">
        <ele>43</ele>
        <time>2016-04-10T13:33:58Z</time>
      </trkpt>
      <trkpt lat="59.134698197843" lon="17.919019693347">
        <ele>42.6</ele>
        <time>2016-04-10T13:33:59Z</time>
      </trkpt>
      <trkpt lat="59.134660646931" lon="17.918902430566">
        <ele>42.2</ele>
        <time>2016-04-10T13:34:00Z</time>
      </trkpt>
      <trkpt lat="59.134623179838" lon="17.918785922156">
        <ele>41.8</ele>
        <time>2016-04-10T13:34:01Z</time>
      </trkpt>
      <trkpt lat="59.134534331698" lon="17.918562712159">
        <ele>42.2</ele>
        <time>2016-04-10T13:34:03Z</time>
      </trkpt>
      <trkpt lat="59.134484878488" lon="17.918461961721">
        <ele>42.6</ele>
        <time>2016-04-10T13:34:04Z</time>
      </trkpt>
      <trkpt lat="59.134430312319" lon="17.91836062455">
        <ele>43</ele>
        <time>2016-04-10T13:34:05Z</time>
      </trkpt>
      <trkpt lat="59.134373566856" lon="17.918268507469">
        <ele>43.4</ele>
        <time>2016-04-10T13:34:06Z</time>
      </trkpt>
      <trkpt lat="59.134313133357" lon="17.918194160016">
        <ele>43.8</ele>
        <time>2016-04-10T13:34:07Z</time>
      </trkpt>
      <trkpt lat="59.134184135916" lon="17.91805719977">
        <ele>43.8</ele>
        <time>2016-04-10T13:34:09Z</time>
      </trkpt>
      <trkpt lat="59.134107022436" lon="17.918000370488">
        <ele>43.8</ele>
        <time>2016-04-10T13:34:10Z</time>
      </trkpt>
      <trkpt lat="59.133876017272" lon="17.917878078567">
        <ele>43.8</ele>
        <time>2016-04-10T13:34:13Z</time>
      </trkpt>
      <trkpt lat="59.133796808317" lon="17.917860644215">
        <ele>43.8</ele>
        <time>2016-04-10T13:34:14Z</time>
      </trkpt>
      <trkpt lat="59.133547362973" lon="17.917860811853">
        <ele>43.8</ele>
        <time>2016-04-10T13:34:17Z</time>
      </trkpt>
      <trkpt lat="59.133051741226" lon="17.917934572573">
        <ele>43.8</ele>
        <time>2016-04-10T13:34:23Z</time>
      </trkpt>
      <trkpt lat="59.132717135778" lon="17.917902218439">
        <ele>43.4</ele>
        <time>2016-04-10T13:34:27Z</time>
      </trkpt>
      <trkpt lat="59.13263398733" lon="17.917881263689">
        <ele>43</ele>
        <time>2016-04-10T13:34:28Z</time>
      </trkpt>
      <trkpt lat="59.132549497778" lon="17.917865505717">
        <ele>42.6</ele>
        <time>2016-04-10T13:34:29Z</time>
      </trkpt>
      <trkpt lat="59.132465259683" lon="17.917856788541">
        <ele>42.2</ele>
        <time>2016-04-10T13:34:30Z</time>
      </trkpt>
      <trkpt lat="59.132379512846" lon="17.917852178496">
        <ele>41.8</ele>
        <time>2016-04-10T13:34:31Z</time>
      </trkpt>
      <trkpt lat="59.132034094747" lon="17.917891657245">
        <ele>41.8</ele>
        <time>2016-04-10T13:34:35Z</time>
      </trkpt>
      <trkpt lat="59.131564037795" lon="17.917974554236">
        <ele>41.8</ele>
        <time>2016-04-10T13:34:41Z</time>
      </trkpt>
      <trkpt lat="59.131152235048" lon="17.917953515667">
        <ele>41.8</ele>
        <time>2016-04-10T13:34:46Z</time>
      </trkpt>
      <trkpt lat="59.131065147107" lon="17.917977823177">
        <ele>41.8</ele>
        <time>2016-04-10T13:34:47Z</time>
      </trkpt>
      <trkpt lat="59.130890049216" lon="17.918065162575">
        <ele>41.8</ele>
        <time>2016-04-10T13:34:49Z</time>
      </trkpt>
      <trkpt lat="59.130810756442" lon="17.918152166697">
        <ele>41.8</ele>
        <time>2016-04-10T13:34:50Z</time>
      </trkpt>
      <trkpt lat="59.130589809558" lon="17.918465314481">
        <ele>41.8</ele>
        <time>2016-04-10T13:34:53Z</time>
      </trkpt>
      <trkpt lat="59.130521329435" lon="17.918575117371">
        <ele>41.8</ele>
        <time>2016-04-10T13:34:54Z</time>
      </trkpt>
      <trkpt lat="59.130081531142" lon="17.919347257999">
        <ele>41.8</ele>
        <time>2016-04-10T13:35:01Z</time>
      </trkpt>
      <trkpt lat="59.130017074331" lon="17.919458821088">
        <ele>41.8</ele>
        <time>2016-04-10T13:35:02Z</time>
      </trkpt>
      <trkpt lat="59.129618095891" lon="17.920007081167">
        <ele>41.8</ele>
        <time>2016-04-10T13:35:08Z</time>
      </trkpt>
      <trkpt lat="59.129267481014" lon="17.920425421796">
        <ele>41.8</ele>
        <time>2016-04-10T13:35:13Z</time>
      </trkpt>
      <trkpt lat="59.12920076109" lon="17.920524412035">
        <ele>41.8</ele>
        <time>2016-04-10T13:35:14Z</time>
      </trkpt>
      <trkpt lat="59.129000517499" lon="17.920828088272">
        <ele>41.2</ele>
        <time>2016-04-10T13:35:17Z</time>
      </trkpt>
      <trkpt lat="59.128936898878" lon="17.920921630276">
        <ele>40.8</ele>
        <time>2016-04-10T13:35:18Z</time>
      </trkpt>
      <trkpt lat="59.12887470518" lon="17.921030594976">
        <ele>40.2</ele>
        <time>2016-04-10T13:35:19Z</time>
      </trkpt>
      <trkpt lat="59.128810667464" lon="17.921139811133">
        <ele>39.8</ele>
        <time>2016-04-10T13:35:20Z</time>
      </trkpt>
      <trkpt lat="59.128747132662" lon="17.921245842168">
        <ele>39.2</ele>
        <time>2016-04-10T13:35:21Z</time>
      </trkpt>
      <trkpt lat="59.128679490729" lon="17.921349777728">
        <ele>38.6</ele>
        <time>2016-04-10T13:35:22Z</time>
      </trkpt>
      <trkpt lat="59.128606400561" lon="17.921450611985">
        <ele>38.2</ele>
        <time>2016-04-10T13:35:23Z</time>
      </trkpt>
      <trkpt lat="59.128531550194" lon="17.921563264721">
        <ele>37.6</ele>
        <time>2016-04-10T13:35:24Z</time>
      </trkpt>
      <trkpt lat="59.128451922144" lon="17.921676923285">
        <ele>36.8</ele>
        <time>2016-04-10T13:35:25Z</time>
      </trkpt>
      <trkpt lat="59.128365169479" lon="17.921801310681">
        <ele>36</ele>
        <time>2016-04-10T13:35:26Z</time>
      </trkpt>
      <trkpt lat="59.128278668271" lon="17.921913628141">
        <ele>35</ele>
        <time>2016-04-10T13:35:27Z</time>
      </trkpt>
      <trkpt lat="59.128193927262" lon="17.922023347212">
        <ele>34.2</ele>
        <time>2016-04-10T13:35:28Z</time>
      </trkpt>
      <trkpt lat="59.12811698142" lon="17.922111776257">
        <ele>33.2</ele>
        <time>2016-04-10T13:35:29Z</time>
      </trkpt>
      <trkpt lat="59.128041628139" lon="17.922178412362">
        <ele>32.4</ele>
        <time>2016-04-10T13:35:30Z</time>
      </trkpt>
      <trkpt lat="59.127974656758" lon="17.922221998242">
        <ele>31.4</ele>
        <time>2016-04-10T13:35:31Z</time>
      </trkpt>
      <trkpt lat="59.127889748111" lon="17.922272708737">
        <ele>31.4</ele>
        <time>2016-04-10T13:35:33Z</time>
      </trkpt>
      <trkpt lat="59.127875498881" lon="17.922360802506">
        <ele>31.4</ele>
        <time>2016-04-10T13:35:36Z</time>
      </trkpt>
      <trkpt lat="59.127821687083" lon="17.922576133517">
        <ele>31.4</ele>
        <time>2016-04-10T13:35:39Z</time>
      </trkpt>
      <trkpt lat="59.12780182198" lon="17.92296061127">
        <ele>31</ele>
        <time>2016-04-10T13:35:42Z</time>
      </trkpt>
      <trkpt lat="59.127795284098" lon="17.923112491298">
        <ele>30.6</ele>
        <time>2016-04-10T13:35:43Z</time>
      </trkpt>
      <trkpt lat="59.127791093148" lon="17.923265796249">
        <ele>30.2</ele>
        <time>2016-04-10T13:35:44Z</time>
      </trkpt>
      <trkpt lat="59.127788578578" lon="17.92342915948">
        <ele>29.6</ele>
        <time>2016-04-10T13:35:45Z</time>
      </trkpt>
      <trkpt lat="59.127789584406" lon="17.923596546023">
        <ele>29.2</ele>
        <time>2016-04-10T13:35:46Z</time>
      </trkpt>
      <trkpt lat="59.12778673456" lon="17.92375940634">
        <ele>28.6</ele>
        <time>2016-04-10T13:35:47Z</time>
      </trkpt>
      <trkpt lat="59.127787991845" lon="17.923925200322">
        <ele>28.2</ele>
        <time>2016-04-10T13:35:48Z</time>
      </trkpt>
      <trkpt lat="59.127787824207" lon="17.924095436711">
        <ele>27.6</ele>
        <time>2016-04-10T13:35:49Z</time>
      </trkpt>
      <trkpt lat="59.127785225818" lon="17.92426399672">
        <ele>27</ele>
        <time>2016-04-10T13:35:50Z</time>
      </trkpt>
      <trkpt lat="59.127793272442" lon="17.924925831544">
        <ele>27</ele>
        <time>2016-04-10T13:35:54Z</time>
      </trkpt>
      <trkpt lat="59.127847168059" lon="17.926067865419">
        <ele>27</ele>
        <time>2016-04-10T13:36:01Z</time>
      </trkpt>
      <trkpt lat="59.12795521075" lon="17.926869594154">
        <ele>27</ele>
        <time>2016-04-10T13:36:06Z</time>
      </trkpt>
      <trkpt lat="59.127985469409" lon="17.92702750915">
        <ele>27</ele>
        <time>2016-04-10T13:36:07Z</time>
      </trkpt>
      <trkpt lat="59.128207757397" lon="17.927908782116">
        <ele>27</ele>
        <time>2016-04-10T13:36:13Z</time>
      </trkpt>
      <trkpt lat="59.128473463627" lon="17.92876340064">
        <ele>27</ele>
        <time>2016-04-10T13:36:19Z</time>
      </trkpt>
      <trkpt lat="59.128622996723" lon="17.929172688817">
        <ele>26.6</ele>
        <time>2016-04-10T13:36:22Z</time>
      </trkpt>
      <trkpt lat="59.128673958675" lon="17.929311493081">
        <ele>26</ele>
        <time>2016-04-10T13:36:23Z</time>
      </trkpt>
      <trkpt lat="59.128712683053" lon="17.929448704784">
        <ele>25.6</ele>
        <time>2016-04-10T13:36:24Z</time>
      </trkpt>
      <trkpt lat="59.128751155974" lon="17.929594801301">
        <ele>24.6</ele>
        <time>2016-04-10T13:36:25Z</time>
      </trkpt>
      <trkpt lat="59.128852996059" lon="17.930121519897">
        <ele>24.6</ele>
        <time>2016-04-10T13:36:28Z</time>
      </trkpt>
      <trkpt lat="59.128876884474" lon="17.930316231434">
        <ele>24.2</ele>
        <time>2016-04-10T13:36:29Z</time>
      </trkpt>
      <trkpt lat="59.128892810084" lon="17.930515301559">
        <ele>23.8</ele>
        <time>2016-04-10T13:36:30Z</time>
      </trkpt>
      <trkpt lat="59.12890488002" lon="17.930716467159">
        <ele>23.2</ele>
        <time>2016-04-10T13:36:31Z</time>
      </trkpt>
      <trkpt lat="59.128922230553" lon="17.93091838713">
        <ele>22.8</ele>
        <time>2016-04-10T13:36:32Z</time>
      </trkpt>
      <trkpt lat="59.128937737068" lon="17.93111536178">
        <ele>22.4</ele>
        <time>2016-04-10T13:36:33Z</time>
      </trkpt>
      <trkpt lat="59.128954584687" lon="17.931325915108">
        <ele>21.8</ele>
        <time>2016-04-10T13:36:34Z</time>
      </trkpt>
      <trkpt lat="59.128968917736" lon="17.931518698808">
        <ele>21.2</ele>
        <time>2016-04-10T13:36:35Z</time>
      </trkpt>
      <trkpt lat="59.128985932993" lon="17.931713326526">
        <ele>20.8</ele>
        <time>2016-04-10T13:36:36Z</time>
      </trkpt>
      <trkpt lat="59.129000517499" lon="17.931901500181">
        <ele>20.2</ele>
        <time>2016-04-10T13:36:37Z</time>
      </trkpt>
      <trkpt lat="59.129052736736" lon="17.932264184994">
        <ele>20.2</ele>
        <time>2016-04-10T13:36:39Z</time>
      </trkpt>
      <trkpt lat="59.129136052822" lon="17.932609603093">
        <ele>20.2</ele>
        <time>2016-04-10T13:36:41Z</time>
      </trkpt>
      <trkpt lat="59.129228086084" lon="17.932933731166">
        <ele>20.2</ele>
        <time>2016-04-10T13:36:43Z</time>
      </trkpt>
      <trkpt lat="59.129580125884" lon="17.933850543388">
        <ele>20.2</ele>
        <time>2016-04-10T13:36:49Z</time>
      </trkpt>
      <trkpt lat="59.12987801861" lon="17.934324875109">
        <ele>20.2</ele>
        <time>2016-04-10T13:36:53Z</time>
      </trkpt>
      <trkpt lat="59.130278086697" lon="17.934791076387">
        <ele>20.2</ele>
        <time>2016-04-10T13:36:58Z</time>
      </trkpt>
      <trkpt lat="59.130742779233" lon="17.935284937935">
        <ele>20.2</ele>
        <time>2016-04-10T13:37:04Z</time>
      </trkpt>
      <trkpt lat="59.130816959048" lon="17.935361129406">
        <ele>20.2</ele>
        <time>2016-04-10T13:37:05Z</time>
      </trkpt>
      <trkpt lat="59.1311780513" lon="17.935793803084">
        <ele>20.2</ele>
        <time>2016-04-10T13:37:10Z</time>
      </trkpt>
      <trkpt lat="59.131396567433" lon="17.936272325755">
        <ele>20.2</ele>
        <time>2016-04-10T13:37:14Z</time>
      </trkpt>
      <trkpt lat="59.131440488589" lon="17.936402915757">
        <ele>20.2</ele>
        <time>2016-04-10T13:37:15Z</time>
      </trkpt>
      <trkpt lat="59.131723042438" lon="17.93719475385">
        <ele>20.2</ele>
        <time>2016-04-10T13:37:21Z</time>
      </trkpt>
      <trkpt lat="59.131959160561" lon="17.938089689313">
        <ele>20.2</ele>
        <time>2016-04-10T13:37:27Z</time>
      </trkpt>
      <trkpt lat="59.132060246275" lon="17.938886053632">
        <ele>20.2</ele>
        <time>2016-04-10T13:37:32Z</time>
      </trkpt>
      <trkpt lat="59.132090924029" lon="17.939055870926">
        <ele>20.2</ele>
        <time>2016-04-10T13:37:33Z</time>
      </trkpt>
      <trkpt lat="59.132188321707" lon="17.939521401652">
        <ele>20.2</ele>
        <time>2016-04-10T13:37:36Z</time>
      </trkpt>
      <trkpt lat="59.132397198655" lon="17.940520440313">
        <ele>20.2</ele>
        <time>2016-04-10T13:37:42Z</time>
      </trkpt>
      <trkpt lat="59.132518820024" lon="17.94163129352">
        <ele>20.2</ele>
        <time>2016-04-10T13:37:48Z</time>
      </trkpt>
      <trkpt lat="59.132539523317" lon="17.94220880643">
        <ele>19.8</ele>
        <time>2016-04-10T13:37:51Z</time>
      </trkpt>
      <trkpt lat="59.132541870249" lon="17.942398405008">
        <ele>19.4</ele>
        <time>2016-04-10T13:37:52Z</time>
      </trkpt>
      <trkpt lat="59.132543546629" lon="17.942586159568">
        <ele>18.8</ele>
        <time>2016-04-10T13:37:53Z</time>
      </trkpt>
      <trkpt lat="59.132542289344" lon="17.942771902472">
        <ele>18.4</ele>
        <time>2016-04-10T13:37:54Z</time>
      </trkpt>
      <trkpt lat="59.13254513919" lon="17.942956052815">
        <ele>18</ele>
        <time>2016-04-10T13:37:55Z</time>
      </trkpt>
      <trkpt lat="59.132581684274" lon="17.943877894177">
        <ele>18</ele>
        <time>2016-04-10T13:38:00Z</time>
      </trkpt>
      <trkpt lat="59.132682350893" lon="17.94490442547">
        <ele>18</ele>
        <time>2016-04-10T13:38:06Z</time>
      </trkpt>
      <trkpt lat="59.132715878493" lon="17.945412955343">
        <ele>18</ele>
        <time>2016-04-10T13:38:09Z</time>
      </trkpt>
      <trkpt lat="59.132717554873" lon="17.945742783108">
        <ele>18</ele>
        <time>2016-04-10T13:38:11Z</time>
      </trkpt>
      <trkpt lat="59.132637256271" lon="17.946542667825">
        <ele>18</ele>
        <time>2016-04-10T13:38:16Z</time>
      </trkpt>
      <trkpt lat="59.1325610648" lon="17.947481356806">
        <ele>18.6</ele>
        <time>2016-04-10T13:38:22Z</time>
      </trkpt>
      <trkpt lat="59.132565423388" lon="17.947632817739">
        <ele>19</ele>
        <time>2016-04-10T13:38:23Z</time>
      </trkpt>
      <trkpt lat="59.132576571315" lon="17.947784194853">
        <ele>19.6</ele>
        <time>2016-04-10T13:38:24Z</time>
      </trkpt>
      <trkpt lat="59.132600878825" lon="17.947924340221">
        <ele>20.2</ele>
        <time>2016-04-10T13:38:25Z</time>
      </trkpt>
      <trkpt lat="59.132631724217" lon="17.948056187508">
        <ele>20.8</ele>
        <time>2016-04-10T13:38:26Z</time>
      </trkpt>
      <trkpt lat="59.132703138005" lon="17.948318205702">
        <ele>20.8</ele>
        <time>2016-04-10T13:38:28Z</time>
      </trkpt>
      <trkpt lat="59.132776814906" lon="17.948562621906">
        <ele>21.2</ele>
        <time>2016-04-10T13:38:30Z</time>
      </trkpt>
      <trkpt lat="59.132813695266" lon="17.948683237447">
        <ele>21.8</ele>
        <time>2016-04-10T13:38:31Z</time>
      </trkpt>
      <trkpt lat="59.132850072712" lon="17.948807121929">
        <ele>22.2</ele>
        <time>2016-04-10T13:38:32Z</time>
      </trkpt>
      <trkpt lat="59.132882259208" lon="17.948935532637">
        <ele>22.6</ele>
        <time>2016-04-10T13:38:33Z</time>
      </trkpt>
      <trkpt lat="59.132907740184" lon="17.949072911978">
        <ele>23.2</ele>
        <time>2016-04-10T13:38:34Z</time>
      </trkpt>
      <trkpt lat="59.132931628599" lon="17.949372732541">
        <ele>23.2</ele>
        <time>2016-04-10T13:38:36Z</time>
      </trkpt>
      <trkpt lat="59.132894161506" lon="17.949799287432">
        <ele>23.2</ele>
        <time>2016-04-10T13:38:39Z</time>
      </trkpt>
      <trkpt lat="59.132874883136" lon="17.949939684257">
        <ele>23.2</ele>
        <time>2016-04-10T13:38:40Z</time>
      </trkpt>
      <trkpt lat="59.132845965581" lon="17.950069436069">
        <ele>23.2</ele>
        <time>2016-04-10T13:38:41Z</time>
      </trkpt>
      <trkpt lat="59.132784274797" lon="17.950308068762">
        <ele>23.6</ele>
        <time>2016-04-10T13:38:43Z</time>
      </trkpt>
      <trkpt lat="59.132748232627" lon="17.950424912448">
        <ele>24</ele>
        <time>2016-04-10T13:38:44Z</time>
      </trkpt>
      <trkpt lat="59.132704227652" lon="17.950531111121">
        <ele>24.4</ele>
        <time>2016-04-10T13:38:45Z</time>
      </trkpt>
      <trkpt lat="59.132663659256" lon="17.950641249287">
        <ele>24.8</ele>
        <time>2016-04-10T13:38:46Z</time>
      </trkpt>
      <trkpt lat="59.132618145539" lon="17.950751052177">
        <ele>25.2</ele>
        <time>2016-04-10T13:38:47Z</time>
      </trkpt>
      <trkpt lat="59.13252586082" lon="17.950952385415">
        <ele>25.2</ele>
        <time>2016-04-10T13:38:49Z</time>
      </trkpt>
      <trkpt lat="59.13223165613" lon="17.951531826162">
        <ele>25.2</ele>
        <time>2016-04-10T13:38:55Z</time>
      </trkpt>
      <trkpt lat="59.131977936017" lon="17.95199970382">
        <ele>25.2</ele>
        <time>2016-04-10T13:39:00Z</time>
      </trkpt>
      <trkpt lat="59.131926135875" lon="17.952088132865">
        <ele>25.2</ele>
        <time>2016-04-10T13:39:01Z</time>
      </trkpt>
      <trkpt lat="59.131880622158" lon="17.952187626018">
        <ele>25.2</ele>
        <time>2016-04-10T13:39:02Z</time>
      </trkpt>
      <trkpt lat="59.131700495127" lon="17.952553076858">
        <ele>25.2</ele>
        <time>2016-04-10T13:39:06Z</time>
      </trkpt>
      <trkpt lat="59.13156026594" lon="17.952865721728">
        <ele>24.8</ele>
        <time>2016-04-10T13:39:09Z</time>
      </trkpt>
      <trkpt lat="59.131510561273" lon="17.952963035587">
        <ele>24.2</ele>
        <time>2016-04-10T13:39:10Z</time>
      </trkpt>
      <trkpt lat="59.131463454995" lon="17.953070407726">
        <ele>23.6</ele>
        <time>2016-04-10T13:39:11Z</time>
      </trkpt>
      <trkpt lat="59.131416600174" lon="17.953173086001">
        <ele>23.2</ele>
        <time>2016-04-10T13:39:12Z</time>
      </trkpt>
      <trkpt lat="59.13136915862" lon="17.953273417344">
        <ele>22.6</ele>
        <time>2016-04-10T13:39:13Z</time>
      </trkpt>
      <trkpt lat="59.131158018559" lon="17.953789910022">
        <ele>22.6</ele>
        <time>2016-04-10T13:39:18Z</time>
      </trkpt>
      <trkpt lat="59.130966156868" lon="17.954458450366">
        <ele>22.6</ele>
        <time>2016-04-10T13:39:24Z</time>
      </trkpt>
      <trkpt lat="59.130923828273" lon="17.954698759439">
        <ele>22.6</ele>
        <time>2016-04-10T13:39:26Z</time>
      </trkpt>
      <trkpt lat="59.130891306501" lon="17.954946947498">
        <ele>22.6</ele>
        <time>2016-04-10T13:39:28Z</time>
      </trkpt>
      <trkpt lat="59.130883176058" lon="17.955077369862">
        <ele>22.6</ele>
        <time>2016-04-10T13:39:29Z</time>
      </trkpt>
      <trkpt lat="59.130878733651" lon="17.955348440508">
        <ele>22.6</ele>
        <time>2016-04-10T13:39:31Z</time>
      </trkpt>
      <trkpt lat="59.130922235712" lon="17.955620600801">
        <ele>22.6</ele>
        <time>2016-04-10T13:39:33Z</time>
      </trkpt>
      <trkpt lat="59.131017789372" lon="17.956039528163">
        <ele>22.6</ele>
        <time>2016-04-10T13:39:36Z</time>
      </trkpt>
      <trkpt lat="59.131065063288" lon="17.95615964079">
        <ele>22.6</ele>
        <time>2016-04-10T13:39:37Z</time>
      </trkpt>
      <trkpt lat="59.131261535024" lon="17.956780907218">
        <ele>22.6</ele>
        <time>2016-04-10T13:39:42Z</time>
      </trkpt>
      <trkpt lat="59.131376031778" lon="17.957208803213">
        <ele>22.6</ele>
        <time>2016-04-10T13:39:45Z</time>
      </trkpt>
      <trkpt lat="59.13143202287" lon="17.957512814726">
        <ele>22.6</ele>
        <time>2016-04-10T13:39:47Z</time>
      </trkpt>
      <trkpt lat="59.131468484135" lon="17.957807941425">
        <ele>22.2</ele>
        <time>2016-04-10T13:39:49Z</time>
      </trkpt>
      <trkpt lat="59.131489522704" lon="17.95796342567">
        <ele>21.6</ele>
        <time>2016-04-10T13:39:50Z</time>
      </trkpt>
      <trkpt lat="59.131509723083" lon="17.958107007617">
        <ele>21.2</ele>
        <time>2016-04-10T13:39:51Z</time>
      </trkpt>
      <trkpt lat="59.131535204059" lon="17.958247655899">
        <ele>21.4</ele>
        <time>2016-04-10T13:39:52Z</time>
      </trkpt>
      <trkpt lat="59.131566468546" lon="17.958382101575">
        <ele>21.8</ele>
        <time>2016-04-10T13:39:53Z</time>
      </trkpt>
      <trkpt lat="59.131602426897" lon="17.958512104844">
        <ele>22</ele>
        <time>2016-04-10T13:39:54Z</time>
      </trkpt>
      <trkpt lat="59.131652634478" lon="17.958638755353">
        <ele>22.2</ele>
        <time>2016-04-10T13:39:55Z</time>
      </trkpt>
      <trkpt lat="59.131709799036" lon="17.958758448885">
        <ele>22.6</ele>
        <time>2016-04-10T13:39:56Z</time>
      </trkpt>
      <trkpt lat="59.13183351588" lon="17.958992052438">
        <ele>22.6</ele>
        <time>2016-04-10T13:39:58Z</time>
      </trkpt>
      <trkpt lat="59.132022779182" lon="17.959320874375">
        <ele>22.6</ele>
        <time>2016-04-10T13:40:01Z</time>
      </trkpt>
      <trkpt lat="59.132141299248" lon="17.959541402164">
        <ele>22</ele>
        <time>2016-04-10T13:40:03Z</time>
      </trkpt>
      <trkpt lat="59.132203241489" lon="17.959661095696">
        <ele>21.6</ele>
        <time>2016-04-10T13:40:04Z</time>
      </trkpt>
      <trkpt lat="59.132265519006" lon="17.959778274658">
        <ele>21.2</ele>
        <time>2016-04-10T13:40:05Z</time>
      </trkpt>
      <trkpt lat="59.132331987473" lon="17.959902242959">
        <ele>20.8</ele>
        <time>2016-04-10T13:40:06Z</time>
      </trkpt>
      <trkpt lat="59.132399797044" lon="17.960024115785">
        <ele>19.8</ele>
        <time>2016-04-10T13:40:07Z</time>
      </trkpt>
      <trkpt lat="59.132467522796" lon="17.96015361614">
        <ele>19.2</ele>
        <time>2016-04-10T13:40:08Z</time>
      </trkpt>
      <trkpt lat="59.132531476693" lon="17.960285379608">
        <ele>18.6</ele>
        <time>2016-04-10T13:40:09Z</time>
      </trkpt>
      <trkpt lat="59.132584450301" lon="17.960433236324">
        <ele>18.2</ele>
        <time>2016-04-10T13:40:10Z</time>
      </trkpt>
      <trkpt lat="59.132658797754" lon="17.960753592542">
        <ele>18.2</ele>
        <time>2016-04-10T13:40:12Z</time>
      </trkpt>
      <trkpt lat="59.132703138005" lon="17.961472759562">
        <ele>18.2</ele>
        <time>2016-04-10T13:40:16Z</time>
      </trkpt>
      <trkpt lat="59.132689978422" lon="17.961656658448">
        <ele>17.8</ele>
        <time>2016-04-10T13:40:17Z</time>
      </trkpt>
      <trkpt lat="59.13266080941" lon="17.961834438547">
        <ele>17.4</ele>
        <time>2016-04-10T13:40:18Z</time>
      </trkpt>
      <trkpt lat="59.132627868543" lon="17.962005261669">
        <ele>16.8</ele>
        <time>2016-04-10T13:40:19Z</time>
      </trkpt>
      <trkpt lat="59.132593418934" lon="17.962172732031">
        <ele>16.4</ele>
        <time>2016-04-10T13:40:20Z</time>
      </trkpt>
      <trkpt lat="59.132556538574" lon="17.9623446448">
        <ele>16</ele>
        <time>2016-04-10T13:40:21Z</time>
      </trkpt>
      <trkpt lat="59.132371382403" lon="17.963140170929">
        <ele>16</ele>
        <time>2016-04-10T13:40:26Z</time>
      </trkpt>
      <trkpt lat="59.13217801197" lon="17.964210539559">
        <ele>16</ele>
        <time>2016-04-10T13:40:33Z</time>
      </trkpt>
      <trkpt lat="59.13212185324" lon="17.964693169361">
        <ele>16.4</ele>
        <time>2016-04-10T13:40:36Z</time>
      </trkpt>
      <trkpt lat="59.132112046417" lon="17.964851000538">
        <ele>16.8</ele>
        <time>2016-04-10T13:40:37Z</time>
      </trkpt>
      <trkpt lat="59.132104670345" lon="17.965004640765">
        <ele>17.2</ele>
        <time>2016-04-10T13:40:38Z</time>
      </trkpt>
      <trkpt lat="59.132092600409" lon="17.965156688431">
        <ele>17.6</ele>
        <time>2016-04-10T13:40:39Z</time>
      </trkpt>
      <trkpt lat="59.132085391975" lon="17.965299935102">
        <ele>18</ele>
        <time>2016-04-10T13:40:40Z</time>
      </trkpt>
      <trkpt lat="59.132075417514" lon="17.965557594708">
        <ele>18.6</ele>
        <time>2016-04-10T13:40:42Z</time>
      </trkpt>
      <trkpt lat="59.132077680627" lon="17.96569069928">
        <ele>19.2</ele>
        <time>2016-04-10T13:40:43Z</time>
      </trkpt>
      <trkpt lat="59.132079524645" lon="17.965819612902">
        <ele>19.6</ele>
        <time>2016-04-10T13:40:44Z</time>
      </trkpt>
      <trkpt lat="59.132081703939" lon="17.965949280895">
        <ele>20.2</ele>
        <time>2016-04-10T13:40:45Z</time>
      </trkpt>
      <trkpt lat="59.132089080011" lon="17.966073500653">
        <ele>20.8</ele>
        <time>2016-04-10T13:40:46Z</time>
      </trkpt>
      <trkpt lat="59.132106346725" lon="17.966189170873">
        <ele>20.8</ele>
        <time>2016-04-10T13:40:47Z</time>
      </trkpt>
      <trkpt lat="59.132145071103" lon="17.966440627873">
        <ele>20.8</ele>
        <time>2016-04-10T13:40:49Z</time>
      </trkpt>
      <trkpt lat="59.132176754685" lon="17.96655654955">
        <ele>20.8</ele>
        <time>2016-04-10T13:40:50Z</time>
      </trkpt>
      <trkpt lat="59.132264596997" lon="17.966898279613">
        <ele>20.8</ele>
        <time>2016-04-10T13:40:53Z</time>
      </trkpt>
      <trkpt lat="59.132299884796" lon="17.967016799679">
        <ele>20.8</ele>
        <time>2016-04-10T13:40:54Z</time>
      </trkpt>
      <trkpt lat="59.132331484559" lon="17.967141522351">
        <ele>21.2</ele>
        <time>2016-04-10T13:40:55Z</time>
      </trkpt>
      <trkpt lat="59.132354450965" lon="17.967268424317">
        <ele>21.6</ele>
        <time>2016-04-10T13:40:56Z</time>
      </trkpt>
      <trkpt lat="59.132383703796" lon="17.967394152817">
        <ele>22.6</ele>
        <time>2016-04-10T13:40:57Z</time>
      </trkpt>
      <trkpt lat="59.132413627179" lon="17.967524742819">
        <ele>23</ele>
        <time>2016-04-10T13:40:58Z</time>
      </trkpt>
      <trkpt lat="59.132443047648" lon="17.96766044578">
        <ele>23</ele>
        <time>2016-04-10T13:40:59Z</time>
      </trkpt>
      <trkpt lat="59.132680339237" lon="17.968720001759">
        <ele>23.4</ele>
        <time>2016-04-10T13:41:07Z</time>
      </trkpt>
      <trkpt lat="59.132707664231" lon="17.968842209861">
        <ele>23.8</ele>
        <time>2016-04-10T13:41:08Z</time>
      </trkpt>
      <trkpt lat="59.132730798275" lon="17.968963495954">
        <ele>24.2</ele>
        <time>2016-04-10T13:41:09Z</time>
      </trkpt>
      <trkpt lat="59.132757117441" lon="17.969085033504">
        <ele>24.6</ele>
        <time>2016-04-10T13:41:10Z</time>
      </trkpt>
      <trkpt lat="59.132777401639" lon="17.969206822511">
        <ele>25</ele>
        <time>2016-04-10T13:41:11Z</time>
      </trkpt>
      <trkpt lat="59.132827190125" lon="17.969461799909">
        <ele>25</ele>
        <time>2016-04-10T13:41:13Z</time>
      </trkpt>
      <trkpt lat="59.132946045467" lon="17.970039061362">
        <ele>24.4</ele>
        <time>2016-04-10T13:41:17Z</time>
      </trkpt>
      <trkpt lat="59.132974376289" lon="17.970206950819">
        <ele>24</ele>
        <time>2016-04-10T13:41:18Z</time>
      </trkpt>
      <trkpt lat="59.132998264704" lon="17.970378444493">
        <ele>23.4</ele>
        <time>2016-04-10T13:41:19Z</time>
      </trkpt>
      <trkpt lat="59.133023661861" lon="17.970560415542">
        <ele>22.6</ele>
        <time>2016-04-10T13:41:20Z</time>
      </trkpt>
      <trkpt lat="59.133052830873" lon="17.970764011893">
        <ele>21</ele>
        <time>2016-04-10T13:41:21Z</time>
      </trkpt>
      <trkpt lat="59.133087867215" lon="17.970964758398">
        <ele>20</ele>
        <time>2016-04-10T13:41:22Z</time>
      </trkpt>
      <trkpt lat="59.133119886073" lon="17.971166343093">
        <ele>18.6</ele>
        <time>2016-04-10T13:41:23Z</time>
      </trkpt>
      <trkpt lat="59.133151485836" lon="17.971361306087">
        <ele>17.2</ele>
        <time>2016-04-10T13:41:24Z</time>
      </trkpt>
      <trkpt lat="59.1331729435" lon="17.971551575217">
        <ele>15.8</ele>
        <time>2016-04-10T13:41:25Z</time>
      </trkpt>
      <trkpt lat="59.133203872711" lon="17.971745616202">
        <ele>14.6</ele>
        <time>2016-04-10T13:41:26Z</time>
      </trkpt>
      <trkpt lat="59.133238573777" lon="17.971932784029">
        <ele>13.2</ele>
        <time>2016-04-10T13:41:27Z</time>
      </trkpt>
      <trkpt lat="59.133273777757" lon="17.972127579385">
        <ele>13.2</ele>
        <time>2016-04-10T13:41:28Z</time>
      </trkpt>
      <trkpt lat="59.133351058875" lon="17.973017401889">
        <ele>13.2</ele>
        <time>2016-04-10T13:41:33Z</time>
      </trkpt>
      <trkpt lat="59.133302611493" lon="17.973648056045">
        <ele>13.2</ele>
        <time>2016-04-10T13:41:37Z</time>
      </trkpt>
      <trkpt lat="59.133274951223" lon="17.973793230553">
        <ele>13.2</ele>
        <time>2016-04-10T13:41:38Z</time>
      </trkpt>
      <trkpt lat="59.133210326774" lon="17.974073018375">
        <ele>13.6</ele>
        <time>2016-04-10T13:41:40Z</time>
      </trkpt>
      <trkpt lat="59.133180151934" lon="17.974193550097">
        <ele>14.2</ele>
        <time>2016-04-10T13:41:41Z</time>
      </trkpt>
      <trkpt lat="59.133149390361" lon="17.974316344932">
        <ele>14.6</ele>
        <time>2016-04-10T13:41:42Z</time>
      </trkpt>
      <trkpt lat="59.133120556625" lon="17.974451796436">
        <ele>15.2</ele>
        <time>2016-04-10T13:41:43Z</time>
      </trkpt>
      <trkpt lat="59.133099266599" lon="17.974577608755">
        <ele>15.6</ele>
        <time>2016-04-10T13:41:44Z</time>
      </trkpt>
      <trkpt lat="59.133085939378" lon="17.974706941472">
        <ele>15.6</ele>
        <time>2016-04-10T13:41:45Z</time>
      </trkpt>
      <trkpt lat="59.133061715687" lon="17.974966612734">
        <ele>15.6</ele>
        <time>2016-04-10T13:41:47Z</time>
      </trkpt>
      <trkpt lat="59.133051908864" lon="17.975478830643">
        <ele>16.2</ele>
        <time>2016-04-10T13:41:51Z</time>
      </trkpt>
      <trkpt lat="59.133053417606" lon="17.975606822256">
        <ele>16.6</ele>
        <time>2016-04-10T13:41:52Z</time>
      </trkpt>
      <trkpt lat="59.133058279108" lon="17.975726096693">
        <ele>17</ele>
        <time>2016-04-10T13:41:53Z</time>
      </trkpt>
      <trkpt lat="59.133060458402" lon="17.975848640071">
        <ele>17.4</ele>
        <time>2016-04-10T13:41:54Z</time>
      </trkpt>
      <trkpt lat="59.133057524737" lon="17.975967327775">
        <ele>18</ele>
        <time>2016-04-10T13:41:55Z</time>
      </trkpt>
      <trkpt lat="59.133037408177" lon="17.976300005386">
        <ele>18</ele>
        <time>2016-04-10T13:41:58Z</time>
      </trkpt>
      <trkpt lat="59.133000192541" lon="17.976704348242">
        <ele>18</ele>
        <time>2016-04-10T13:42:02Z</time>
      </trkpt>
      <trkpt lat="59.132988457881" lon="17.976799566626">
        <ele>18.4</ele>
        <time>2016-04-10T13:42:03Z</time>
      </trkpt>
      <trkpt lat="59.132972113176" lon="17.976879278495">
        <ele>18.8</ele>
        <time>2016-04-10T13:42:04Z</time>
      </trkpt>
      <trkpt lat="59.132965323837" lon="17.976964103323">
        <ele>19.2</ele>
        <time>2016-04-10T13:42:05Z</time>
      </trkpt>
      <trkpt lat="59.13295333772" lon="17.977049347246">
        <ele>19.6</ele>
        <time>2016-04-10T13:42:06Z</time>
      </trkpt>
      <trkpt lat="59.132940681051" lon="17.977125371079">
        <ele>20</ele>
        <time>2016-04-10T13:42:07Z</time>
      </trkpt>
      <trkpt lat="59.132916876455" lon="17.977288147577">
        <ele>20</ele>
        <time>2016-04-10T13:42:09Z</time>
      </trkpt>
      <trkpt lat="59.132884857597" lon="17.977463664563">
        <ele>21</ele>
        <time>2016-04-10T13:42:11Z</time>
      </trkpt>
      <trkpt lat="59.132865746865" lon="17.977540023672">
        <ele>21.6</ele>
        <time>2016-04-10T13:42:12Z</time>
      </trkpt>
      <trkpt lat="59.132850407988" lon="17.977628620355">
        <ele>22</ele>
        <time>2016-04-10T13:42:13Z</time>
      </trkpt>
      <trkpt lat="59.132832722179" lon="17.977721575626">
        <ele>22.6</ele>
        <time>2016-04-10T13:42:14Z</time>
      </trkpt>
      <trkpt lat="59.132822328623" lon="17.977791899767">
        <ele>22.6</ele>
        <time>2016-04-10T13:42:15Z</time>
      </trkpt>
      <trkpt lat="59.132805564823" lon="17.977869767618">
        <ele>22.6</ele>
        <time>2016-04-10T13:42:16Z</time>
      </trkpt>
      <trkpt lat="59.132785029168" lon="17.978038662903">
        <ele>22.6</ele>
        <time>2016-04-10T13:42:18Z</time>
      </trkpt>
      <trkpt lat="59.132749322274" lon="17.97820403779">
        <ele>22.6</ele>
        <time>2016-04-10T13:42:20Z</time>
      </trkpt>
      <trkpt lat="59.132722919289" lon="17.978340578941">
        <ele>23</ele>
        <time>2016-04-10T13:42:22Z</time>
      </trkpt>
      <trkpt lat="59.132704227652" lon="17.978429762357">
        <ele>23.4</ele>
        <time>2016-04-10T13:42:23Z</time>
      </trkpt>
      <trkpt lat="59.132681931798" lon="17.978519867782">
        <ele>23.8</ele>
        <time>2016-04-10T13:42:24Z</time>
      </trkpt>
      <trkpt lat="59.132666173826" lon="17.9786055308">
        <ele>24.2</ele>
        <time>2016-04-10T13:42:25Z</time>
      </trkpt>
      <trkpt lat="59.132657289012" lon="17.978695803863">
        <ele>24.6</ele>
        <time>2016-04-10T13:42:26Z</time>
      </trkpt>
      <trkpt lat="59.13264823656" lon="17.978778365578">
        <ele>25.2</ele>
        <time>2016-04-10T13:42:27Z</time>
      </trkpt>
      <trkpt lat="59.13263482552" lon="17.978873583962">
        <ele>25.6</ele>
        <time>2016-04-10T13:42:28Z</time>
      </trkpt>
      <trkpt lat="59.13262392905" lon="17.978948769605">
        <ele>26.2</ele>
        <time>2016-04-10T13:42:29Z</time>
      </trkpt>
      <trkpt lat="59.132615882426" lon="17.979030744587">
        <ele>26.6</ele>
        <time>2016-04-10T13:42:30Z</time>
      </trkpt>
      <trkpt lat="59.132602052291" lon="17.979116910519">
        <ele>27.2</ele>
        <time>2016-04-10T13:42:31Z</time>
      </trkpt>
      <trkpt lat="59.132582187188" lon="17.979210033428">
        <ele>27.6</ele>
        <time>2016-04-10T13:42:32Z</time>
      </trkpt>
      <trkpt lat="59.132559975153" lon="17.979302318147">
        <ele>28</ele>
        <time>2016-04-10T13:42:33Z</time>
      </trkpt>
      <trkpt lat="59.132545055371" lon="17.97940684044">
        <ele>28.4</ele>
        <time>2016-04-10T13:42:34Z</time>
      </trkpt>
      <trkpt lat="59.132522843336" lon="17.979502645557">
        <ele>29</ele>
        <time>2016-04-10T13:42:35Z</time>
      </trkpt>
      <trkpt lat="59.132482861673" lon="17.979695764533">
        <ele>29.4</ele>
        <time>2016-04-10T13:42:37Z</time>
      </trkpt>
      <trkpt lat="59.132465092045" lon="17.979791904926">
        <ele>30</ele>
        <time>2016-04-10T13:42:38Z</time>
      </trkpt>
      <trkpt lat="59.132446568046" lon="17.979887626224">
        <ele>30.4</ele>
        <time>2016-04-10T13:42:39Z</time>
      </trkpt>
      <trkpt lat="59.132425361839" lon="17.979972786328">
        <ele>31</ele>
        <time>2016-04-10T13:42:40Z</time>
      </trkpt>
      <trkpt lat="59.13240264689" lon="17.980058449346">
        <ele>31.4</ele>
        <time>2016-04-10T13:42:41Z</time>
      </trkpt>
      <trkpt lat="59.132371885317" lon="17.980137155387">
        <ele>31.8</ele>
        <time>2016-04-10T13:42:42Z</time>
      </trkpt>
      <trkpt lat="59.132344308866" lon="17.980229188649">
        <ele>32.4</ele>
        <time>2016-04-10T13:42:43Z</time>
      </trkpt>
      <trkpt lat="59.132312709103" lon="17.98031040926">
        <ele>32.8</ele>
        <time>2016-04-10T13:42:44Z</time>
      </trkpt>
      <trkpt lat="59.132290832344" lon="17.98040093378">
        <ele>33.4</ele>
        <time>2016-04-10T13:42:45Z</time>
      </trkpt>
      <trkpt lat="59.132262417703" lon="17.98048140002">
        <ele>33.8</ele>
        <time>2016-04-10T13:42:46Z</time>
      </trkpt>
      <trkpt lat="59.132204666412" lon="17.980629843469">
        <ele>34.4</ele>
        <time>2016-04-10T13:42:48Z</time>
      </trkpt>
      <trkpt lat="59.132179436893" lon="17.980705615845">
        <ele>34.8</ele>
        <time>2016-04-10T13:42:49Z</time>
      </trkpt>
      <trkpt lat="59.132153620641" lon="17.980773006321">
        <ele>35.2</ele>
        <time>2016-04-10T13:42:50Z</time>
      </trkpt>
      <trkpt lat="59.132130151321" lon="17.980836708761">
        <ele>35.6</ele>
        <time>2016-04-10T13:42:51Z</time>
      </trkpt>
      <trkpt lat="59.132107436372" lon="17.980891694025">
        <ele>36</ele>
        <time>2016-04-10T13:42:52Z</time>
      </trkpt>
      <trkpt lat="59.132059994818" lon="17.981014069765">
        <ele>36.6</ele>
        <time>2016-04-10T13:42:54Z</time>
      </trkpt>
      <trkpt lat="59.132034597661" lon="17.981080202956">
        <ele>37</ele>
        <time>2016-04-10T13:42:55Z</time>
      </trkpt>
      <trkpt lat="59.132009116685" lon="17.981160501558">
        <ele>37.4</ele>
        <time>2016-04-10T13:42:56Z</time>
      </trkpt>
      <trkpt lat="59.131980450587" lon="17.981242979454">
        <ele>37.8</ele>
        <time>2016-04-10T13:42:57Z</time>
      </trkpt>
      <trkpt lat="59.1319491861" lon="17.981318668011">
        <ele>38.4</ele>
        <time>2016-04-10T13:42:58Z</time>
      </trkpt>
      <trkpt lat="59.131890093705" lon="17.981483204708">
        <ele>38.4</ele>
        <time>2016-04-10T13:43:00Z</time>
      </trkpt>
      <trkpt lat="59.131793785674" lon="17.981764165996">
        <ele>37.8</ele>
        <time>2016-04-10T13:43:03Z</time>
      </trkpt>
      <trkpt lat="59.131757994961" lon="17.981866257538">
        <ele>37.4</ele>
        <time>2016-04-10T13:43:04Z</time>
      </trkpt>
      <trkpt lat="59.131716253099" lon="17.981983352681">
        <ele>37</ele>
        <time>2016-04-10T13:43:05Z</time>
      </trkpt>
      <trkpt lat="59.131673086314" lon="17.9821007831">
        <ele>36.6</ele>
        <time>2016-04-10T13:43:06Z</time>
      </trkpt>
      <trkpt lat="59.13163486485" lon="17.982231708378">
        <ele>36.2</ele>
        <time>2016-04-10T13:43:07Z</time>
      </trkpt>
      <trkpt lat="59.131593374445" lon="17.982360873457">
        <ele>35.6</ele>
        <time>2016-04-10T13:43:08Z</time>
      </trkpt>
      <trkpt lat="59.131556577904" lon="17.982487775423">
        <ele>35.2</ele>
        <time>2016-04-10T13:43:09Z</time>
      </trkpt>
      <trkpt lat="59.131515590413" lon="17.982620963814">
        <ele>34.4</ele>
        <time>2016-04-10T13:43:10Z</time>
      </trkpt>
      <trkpt lat="59.131471585438" lon="17.98275289492">
        <ele>33.6</ele>
        <time>2016-04-10T13:43:11Z</time>
      </trkpt>
      <trkpt lat="59.1314211264" lon="17.982903350025">
        <ele>33</ele>
        <time>2016-04-10T13:43:12Z</time>
      </trkpt>
      <trkpt lat="59.131374858312" lon="17.98304039409">
        <ele>32</ele>
        <time>2016-04-10T13:43:13Z</time>
      </trkpt>
      <trkpt lat="59.131327416758" lon="17.983182299657">
        <ele>31.2</ele>
        <time>2016-04-10T13:43:14Z</time>
      </trkpt>
      <trkpt lat="59.13128198686" lon="17.983330072554">
        <ele>30.4</ele>
        <time>2016-04-10T13:43:15Z</time>
      </trkpt>
      <trkpt lat="59.131246363785" lon="17.983474241234">
        <ele>29.6</ele>
        <time>2016-04-10T13:43:16Z</time>
      </trkpt>
      <trkpt lat="59.131213422918" lon="17.983638610293">
        <ele>28.6</ele>
        <time>2016-04-10T13:43:17Z</time>
      </trkpt>
      <trkpt lat="59.13116547845" lon="17.983792753434">
        <ele>28.6</ele>
        <time>2016-04-10T13:43:18Z</time>
      </trkpt>
      <trkpt lat="59.131138991646" lon="17.983956200484">
        <ele>28</ele>
        <time>2016-04-10T13:43:19Z</time>
      </trkpt>
      <trkpt lat="59.131149971935" lon="17.984149822374">
        <ele>27.2</ele>
        <time>2016-04-10T13:43:20Z</time>
      </trkpt>
      <trkpt lat="59.131168663572" lon="17.984345791196">
        <ele>26.4</ele>
        <time>2016-04-10T13:43:21Z</time>
      </trkpt>
      <trkpt lat="59.131196910575" lon="17.98453488686">
        <ele>25.8</ele>
        <time>2016-04-10T13:43:22Z</time>
      </trkpt>
      <trkpt lat="59.131223565017" lon="17.984729011664">
        <ele>25.2</ele>
        <time>2016-04-10T13:43:23Z</time>
      </trkpt>
      <trkpt lat="59.131248626898" lon="17.984925231943">
        <ele>24.6</ele>
        <time>2016-04-10T13:43:24Z</time>
      </trkpt>
      <trkpt lat="59.131279723747" lon="17.985130923769">
        <ele>23.2</ele>
        <time>2016-04-10T13:43:25Z</time>
      </trkpt>
      <trkpt lat="59.131315765917" lon="17.985324545659">
        <ele>22.8</ele>
        <time>2016-04-10T13:43:26Z</time>
      </trkpt>
      <trkpt lat="59.131346778947" lon="17.985515820617">
        <ele>22.2</ele>
        <time>2016-04-10T13:43:27Z</time>
      </trkpt>
      <trkpt lat="59.13137754052" lon="17.985711202706">
        <ele>21.6</ele>
        <time>2016-04-10T13:43:28Z</time>
      </trkpt>
      <trkpt lat="59.131407212446" lon="17.985911949211">
        <ele>21.2</ele>
        <time>2016-04-10T13:43:29Z</time>
      </trkpt>
      <trkpt lat="59.131442751702" lon="17.986088723482">
        <ele>20.6</ele>
        <time>2016-04-10T13:43:30Z</time>
      </trkpt>
      <trkpt lat="59.131503855753" lon="17.986424921491">
        <ele>20.6</ele>
        <time>2016-04-10T13:43:32Z</time>
      </trkpt>
      <trkpt lat="59.131577532654" lon="17.987093378016">
        <ele>20.6</ele>
        <time>2016-04-10T13:43:36Z</time>
      </trkpt>
      <trkpt lat="59.131572754971" lon="17.987261854206">
        <ele>20.6</ele>
        <time>2016-04-10T13:43:37Z</time>
      </trkpt>
      <trkpt lat="59.131488516876" lon="17.987787650793">
        <ele>20.6</ele>
        <time>2016-04-10T13:43:40Z</time>
      </trkpt>
      <trkpt lat="59.13139095156" lon="17.988131224874">
        <ele>20</ele>
        <time>2016-04-10T13:43:42Z</time>
      </trkpt>
      <trkpt lat="59.131340492522" lon="17.98830590367">
        <ele>19.6</ele>
        <time>2016-04-10T13:43:43Z</time>
      </trkpt>
      <trkpt lat="59.131285591077" lon="17.988485024873">
        <ele>18.6</ele>
        <time>2016-04-10T13:43:44Z</time>
      </trkpt>
      <trkpt lat="59.131232868926" lon="17.988666744465">
        <ele>17.8</ele>
        <time>2016-04-10T13:43:45Z</time>
      </trkpt>
      <trkpt lat="59.131167490106" lon="17.988848631695">
        <ele>16.8</ele>
        <time>2016-04-10T13:43:46Z</time>
      </trkpt>
      <trkpt lat="59.131086940047" lon="17.988995063488">
        <ele>16</ele>
        <time>2016-04-10T13:43:47Z</time>
      </trkpt>
      <trkpt lat="59.130992978948" lon="17.989117103952">
        <ele>15</ele>
        <time>2016-04-10T13:43:48Z</time>
      </trkpt>
      <trkpt lat="59.13078661657" lon="17.989266385591">
        <ele>14.4</ele>
        <time>2016-04-10T13:43:50Z</time>
      </trkpt>
      <trkpt lat="59.130674466748" lon="17.989293459128">
        <ele>13.8</ele>
        <time>2016-04-10T13:43:51Z</time>
      </trkpt>
      <trkpt lat="59.130563406573" lon="17.989288597626">
        <ele>13</ele>
        <time>2016-04-10T13:43:52Z</time>
      </trkpt>
      <trkpt lat="59.13044966419" lon="17.989289184359">
        <ele>12.2</ele>
        <time>2016-04-10T13:43:53Z</time>
      </trkpt>
      <trkpt lat="59.130331311762" lon="17.989303265951">
        <ele>11.2</ele>
        <time>2016-04-10T13:43:54Z</time>
      </trkpt>
      <trkpt lat="59.130219832492" lon="17.989336122999">
        <ele>10.2</ele>
        <time>2016-04-10T13:43:55Z</time>
      </trkpt>
      <trkpt lat="59.130108437041" lon="17.989401669457">
        <ele>9.2</ele>
        <time>2016-04-10T13:43:56Z</time>
      </trkpt>
      <trkpt lat="59.130000897264" lon="17.989495211461">
        <ele>8</ele>
        <time>2016-04-10T13:43:57Z</time>
      </trkpt>
      <trkpt lat="59.129900230645" lon="17.989604930532">
        <ele>6.8</ele>
        <time>2016-04-10T13:43:58Z</time>
      </trkpt>
      <trkpt lat="59.129802749148" lon="17.989726719539">
        <ele>5.6</ele>
        <time>2016-04-10T13:43:59Z</time>
      </trkpt>
      <trkpt lat="59.129709710058" lon="17.989847251261">
        <ele>4.4</ele>
        <time>2016-04-10T13:44:00Z</time>
      </trkpt>
      <trkpt lat="59.129620023728" lon="17.989981696937">
        <ele>3.2</ele>
        <time>2016-04-10T13:44:01Z</time>
      </trkpt>
      <trkpt lat="59.129539222212" lon="17.990120668839">
        <ele>2</ele>
        <time>2016-04-10T13:44:02Z</time>
      </trkpt>
      <trkpt lat="59.12947065827" lon="17.990278583835">
        <ele>2</ele>
        <time>2016-04-10T13:44:03Z</time>
      </trkpt>
      <trkpt lat="59.129362699398" lon="17.990586702479">
        <ele>2</ele>
        <time>2016-04-10T13:44:05Z</time>
      </trkpt>
      <trkpt lat="59.129299583691" lon="17.990897838607">
        <ele>2.4</ele>
        <time>2016-04-10T13:44:07Z</time>
      </trkpt>
      <trkpt lat="59.129272510154" lon="17.991039827993">
        <ele>2.8</ele>
        <time>2016-04-10T13:44:08Z</time>
      </trkpt>
      <trkpt lat="59.12924853792" lon="17.991173938393">
        <ele>3.4</ele>
        <time>2016-04-10T13:44:09Z</time>
      </trkpt>
      <trkpt lat="59.129223811315" lon="17.99128147817">
        <ele>4</ele>
        <time>2016-04-10T13:44:10Z</time>
      </trkpt>
      <trkpt lat="59.129206209325" lon="17.991393460354">
        <ele>4.8</ele>
        <time>2016-04-10T13:44:11Z</time>
      </trkpt>
      <trkpt lat="59.129194977579" lon="17.991510136402">
        <ele>5.6</ele>
        <time>2016-04-10T13:44:12Z</time>
      </trkpt>
      <trkpt lat="59.129174693381" lon="17.99159412304">
        <ele>6.4</ele>
        <time>2016-04-10T13:44:13Z</time>
      </trkpt>
      <trkpt lat="59.129166814395" lon="17.991699567342">
        <ele>8.2</ele>
        <time>2016-04-10T13:44:14Z</time>
      </trkpt>
      <trkpt lat="59.129157929581" lon="17.991800569237">
        <ele>9</ele>
        <time>2016-04-10T13:44:15Z</time>
      </trkpt>
      <trkpt lat="59.129152313708" lon="17.991912970516">
        <ele>10</ele>
        <time>2016-04-10T13:44:16Z</time>
      </trkpt>
      <trkpt lat="59.129146362559" lon="17.992019672103">
        <ele>10.4</ele>
        <time>2016-04-10T13:44:17Z</time>
      </trkpt>
      <trkpt lat="59.129147787482" lon="17.992126960423">
        <ele>10.8</ele>
        <time>2016-04-10T13:44:18Z</time>
      </trkpt>
      <trkpt lat="59.129149296224" lon="17.992239277883">
        <ele>11.2</ele>
        <time>2016-04-10T13:44:19Z</time>
      </trkpt>
      <trkpt lat="59.12915466064" lon="17.992341704701">
        <ele>11.6</ele>
        <time>2016-04-10T13:44:20Z</time>
      </trkpt>
      <trkpt lat="59.129155750287" lon="17.992443963881">
        <ele>12</ele>
        <time>2016-04-10T13:44:21Z</time>
      </trkpt>
      <trkpt lat="59.129166562938" lon="17.992544295224">
        <ele>12</ele>
        <time>2016-04-10T13:44:22Z</time>
      </trkpt>
      <trkpt lat="59.129193720294" lon="17.992799021165">
        <ele>12</ele>
        <time>2016-04-10T13:44:25Z</time>
      </trkpt>
      <trkpt lat="59.129208975352" lon="17.992857945922">
        <ele>12.4</ele>
        <time>2016-04-10T13:44:26Z</time>
      </trkpt>
      <trkpt lat="59.12922590679" lon="17.99292768333">
        <ele>12.8</ele>
        <time>2016-04-10T13:44:27Z</time>
      </trkpt>
      <trkpt lat="59.129230433016" lon="17.992972191219">
        <ele>13.2</ele>
        <time>2016-04-10T13:44:28Z</time>
      </trkpt>
      <trkpt lat="59.129242251495" lon="17.993025248646">
        <ele>13.6</ele>
        <time>2016-04-10T13:44:29Z</time>
      </trkpt>
      <trkpt lat="59.129241580943" lon="17.993080317729">
        <ele>14</ele>
        <time>2016-04-10T13:44:30Z</time>
      </trkpt>
      <trkpt lat="59.129241916219" lon="17.99315399463">
        <ele>14.6</ele>
        <time>2016-04-10T13:44:31Z</time>
      </trkpt>
      <trkpt lat="59.129240323658" lon="17.993228425902">
        <ele>15</ele>
        <time>2016-04-10T13:44:32Z</time>
      </trkpt>
      <trkpt lat="59.129241580943" lon="17.993291373971">
        <ele>15.4</ele>
        <time>2016-04-10T13:44:33Z</time>
      </trkpt>
      <trkpt lat="59.129242502952" lon="17.993365050872">
        <ele>15.8</ele>
        <time>2016-04-10T13:44:34Z</time>
      </trkpt>
      <trkpt lat="59.129248454101" lon="17.9934414938">
        <ele>16.2</ele>
        <time>2016-04-10T13:44:35Z</time>
      </trkpt>
      <trkpt lat="59.129247951187" lon="17.993518523461">
        <ele>16.6</ele>
        <time>2016-04-10T13:44:36Z</time>
      </trkpt>
      <trkpt lat="59.129255830173" lon="17.993586835946">
        <ele>17.2</ele>
        <time>2016-04-10T13:44:37Z</time>
      </trkpt>
      <trkpt lat="59.129263290064" lon="17.99366026139">
        <ele>17.6</ele>
        <time>2016-04-10T13:44:38Z</time>
      </trkpt>
      <trkpt lat="59.12926949267" lon="17.993744750942">
        <ele>18.6</ele>
        <time>2016-04-10T13:44:39Z</time>
      </trkpt>
      <trkpt lat="59.129280724416" lon="17.993810213581">
        <ele>18.6</ele>
        <time>2016-04-10T13:44:40Z</time>
      </trkpt>
      <trkpt lat="59.129271671964" lon="17.994048175722">
        <ele>18.6</ele>
        <time>2016-04-10T13:44:43Z</time>
      </trkpt>
      <trkpt lat="59.129259602028" lon="17.994226626373">
        <ele>18.6</ele>
        <time>2016-04-10T13:44:45Z</time>
      </trkpt>
      <trkpt lat="59.129231271206" lon="17.994395437839">
        <ele>18.6</ele>
        <time>2016-04-10T13:44:47Z</time>
      </trkpt>
      <trkpt lat="59.129214758863" lon="17.994471294034">
        <ele>18.6</ele>
        <time>2016-04-10T13:44:48Z</time>
      </trkpt>
      <trkpt lat="59.129189948439" lon="17.994611187945">
        <ele>19</ele>
        <time>2016-04-10T13:44:50Z</time>
      </trkpt>
      <trkpt lat="59.129180309254" lon="17.994684445751">
        <ele>19.4</ele>
        <time>2016-04-10T13:44:51Z</time>
      </trkpt>
      <trkpt lat="59.129166311481" lon="17.994771282235">
        <ele>19.8</ele>
        <time>2016-04-10T13:44:52Z</time>
      </trkpt>
      <trkpt lat="59.129145189093" lon="17.994853089579">
        <ele>20.2</ele>
        <time>2016-04-10T13:44:53Z</time>
      </trkpt>
      <trkpt lat="59.129121887411" lon="17.994935651294">
        <ele>20.6</ele>
        <time>2016-04-10T13:44:54Z</time>
      </trkpt>
      <trkpt lat="59.129118450832" lon="17.995033803343">
        <ele>21.2</ele>
        <time>2016-04-10T13:44:55Z</time>
      </trkpt>
      <trkpt lat="59.129110320389" lon="17.995142265129">
        <ele>21.6</ele>
        <time>2016-04-10T13:44:56Z</time>
      </trkpt>
      <trkpt lat="59.129100848842" lon="17.995264892326">
        <ele>22.2</ele>
        <time>2016-04-10T13:44:57Z</time>
      </trkpt>
      <trkpt lat="59.129091712571" lon="17.995373437931">
        <ele>22.6</ele>
        <time>2016-04-10T13:44:58Z</time>
      </trkpt>
      <trkpt lat="59.129064890491" lon="17.995966373537">
        <ele>22.6</ele>
        <time>2016-04-10T13:45:03Z</time>
      </trkpt>
      <trkpt lat="59.12903396128" lon="17.996335344775">
        <ele>22.2</ele>
        <time>2016-04-10T13:45:06Z</time>
      </trkpt>
      <trkpt lat="59.129015688738" lon="17.996460486542">
        <ele>21.8</ele>
        <time>2016-04-10T13:45:07Z</time>
      </trkpt>
      <trkpt lat="59.128992722332" lon="17.996574564201">
        <ele>21.4</ele>
        <time>2016-04-10T13:45:08Z</time>
      </trkpt>
      <trkpt lat="59.128961960759" lon="17.996696688484">
        <ele>21</ele>
        <time>2016-04-10T13:45:09Z</time>
      </trkpt>
      <trkpt lat="59.128923236381" lon="17.996811352876">
        <ele>20.6</ele>
        <time>2016-04-10T13:45:10Z</time>
      </trkpt>
      <trkpt lat="59.128750066327" lon="17.997245451477">
        <ele>20.6</ele>
        <time>2016-04-10T13:45:14Z</time>
      </trkpt>
      <trkpt lat="59.128460136406" lon="17.997759261947">
        <ele>20.6</ele>
        <time>2016-04-10T13:45:19Z</time>
      </trkpt>
      <trkpt lat="59.12814799445" lon="17.99828790838">
        <ele>20.6</ele>
        <time>2016-04-10T13:45:25Z</time>
      </trkpt>
      <trkpt lat="59.128105498217" lon="17.998388239723">
        <ele>20.6</ele>
        <time>2016-04-10T13:45:26Z</time>
      </trkpt>
      <trkpt lat="59.128026373081" lon="17.99861061153">
        <ele>21</ele>
        <time>2016-04-10T13:45:28Z</time>
      </trkpt>
      <trkpt lat="59.127994018947" lon="17.998729383053">
        <ele>21.4</ele>
        <time>2016-04-10T13:45:29Z</time>
      </trkpt>
      <trkpt lat="59.127962586822" lon="17.998865086014">
        <ele>21.8</ele>
        <time>2016-04-10T13:45:30Z</time>
      </trkpt>
      <trkpt lat="59.127943643728" lon="17.998996598025">
        <ele>22.2</ele>
        <time>2016-04-10T13:45:31Z</time>
      </trkpt>
      <trkpt lat="59.127919420037" lon="17.99912861295">
        <ele>22.6</ele>
        <time>2016-04-10T13:45:32Z</time>
      </trkpt>
      <trkpt lat="59.127899638753" lon="17.999267584852">
        <ele>22.6</ele>
        <time>2016-04-10T13:45:33Z</time>
      </trkpt>
      <trkpt lat="59.127860914375" lon="17.999831602903">
        <ele>22.6</ele>
        <time>2016-04-10T13:45:37Z</time>
      </trkpt>
      <trkpt lat="59.127858735081" lon="17.999973592289">
        <ele>22.6</ele>
        <time>2016-04-10T13:45:38Z</time>
      </trkpt>
      <trkpt lat="59.127873822501" lon="18.000680689373">
        <ele>22.6</ele>
        <time>2016-04-10T13:45:43Z</time>
      </trkpt>
      <trkpt lat="59.127857393977" lon="18.000821924388">
        <ele>22.6</ele>
        <time>2016-04-10T13:45:44Z</time>
      </trkpt>
      <trkpt lat="59.127766869457" lon="18.001223082122">
        <ele>22.6</ele>
        <time>2016-04-10T13:45:47Z</time>
      </trkpt>
      <trkpt lat="59.127617671637" lon="18.001536816639">
        <ele>22.6</ele>
        <time>2016-04-10T13:45:50Z</time>
      </trkpt>
      <trkpt lat="59.127561512907" lon="18.001632370299">
        <ele>22.6</ele>
        <time>2016-04-10T13:45:51Z</time>
      </trkpt>
      <trkpt lat="59.127330675381" lon="18.001997821139">
        <ele>22.6</ele>
        <time>2016-04-10T13:45:55Z</time>
      </trkpt>
      <trkpt lat="59.127203019044" lon="18.002154059755">
        <ele>22.6</ele>
        <time>2016-04-10T13:45:57Z</time>
      </trkpt>
      <trkpt lat="59.126924488507" lon="18.00240425947">
        <ele>22.2</ele>
        <time>2016-04-10T13:46:01Z</time>
      </trkpt>
      <trkpt lat="59.126857433307" lon="18.002458155087">
        <ele>21.8</ele>
        <time>2016-04-10T13:46:02Z</time>
      </trkpt>
      <trkpt lat="59.126784175501" lon="18.002500735139">
        <ele>21.2</ele>
        <time>2016-04-10T13:46:03Z</time>
      </trkpt>
      <trkpt lat="59.126708486944" lon="18.002541219716">
        <ele>20.8</ele>
        <time>2016-04-10T13:46:04Z</time>
      </trkpt>
      <trkpt lat="59.126636151147" lon="18.00257860299">
        <ele>20.4</ele>
        <time>2016-04-10T13:46:05Z</time>
      </trkpt>
      <trkpt lat="59.126276819094" lon="18.002802148263">
        <ele>20.4</ele>
        <time>2016-04-10T13:46:10Z</time>
      </trkpt>
      <trkpt lat="59.126019327126" lon="18.003080594981">
        <ele>20.4</ele>
        <time>2016-04-10T13:46:14Z</time>
      </trkpt>
      <trkpt lat="59.125957384885" lon="18.003163491972">
        <ele>20.4</ele>
        <time>2016-04-10T13:46:15Z</time>
      </trkpt>
      <trkpt lat="59.125849761289" lon="18.003358287328">
        <ele>20.4</ele>
        <time>2016-04-10T13:46:17Z</time>
      </trkpt>
      <trkpt lat="59.125759739683" lon="18.003581413506">
        <ele>20.4</ele>
        <time>2016-04-10T13:46:19Z</time>
      </trkpt>
      <trkpt lat="59.125415075955" lon="18.004180551718">
        <ele>20.4</ele>
        <time>2016-04-10T13:46:25Z</time>
      </trkpt>
      <trkpt lat="59.125247354136" lon="18.004400492774">
        <ele>19.6</ele>
        <time>2016-04-10T13:46:27Z</time>
      </trkpt>
      <trkpt lat="59.125163702774" lon="18.004514151338">
        <ele>19</ele>
        <time>2016-04-10T13:46:28Z</time>
      </trkpt>
      <trkpt lat="59.125085918742" lon="18.004628983368">
        <ele>17.8</ele>
        <time>2016-04-10T13:46:29Z</time>
      </trkpt>
      <trkpt lat="59.125006793606" lon="18.004776253351">
        <ele>16.8</ele>
        <time>2016-04-10T13:46:30Z</time>
      </trkpt>
      <trkpt lat="59.124940492777" lon="18.00493140232">
        <ele>15.8</ele>
        <time>2016-04-10T13:46:31Z</time>
      </trkpt>
      <trkpt lat="59.124884166409" lon="18.005090909877">
        <ele>14.6</ele>
        <time>2016-04-10T13:46:32Z</time>
      </trkpt>
      <trkpt lat="59.124839909977" lon="18.005266007768">
        <ele>13.6</ele>
        <time>2016-04-10T13:46:33Z</time>
      </trkpt>
      <trkpt lat="59.1248078073" lon="18.005451499215">
        <ele>12.6</ele>
        <time>2016-04-10T13:46:34Z</time>
      </trkpt>
      <trkpt lat="59.124786181998" lon="18.005649479693">
        <ele>11.4</ele>
        <time>2016-04-10T13:46:35Z</time>
      </trkpt>
      <trkpt lat="59.12474997219" lon="18.006221125273">
        <ele>11.4</ele>
        <time>2016-04-10T13:46:38Z</time>
      </trkpt>
      <trkpt lat="59.12473823753" lon="18.00640494034">
        <ele>11.4</ele>
        <time>2016-04-10T13:46:39Z</time>
      </trkpt>
      <trkpt lat="59.124675289461" lon="18.006781036193">
        <ele>11.4</ele>
        <time>2016-04-10T13:46:41Z</time>
      </trkpt>
      <trkpt lat="59.124630446296" lon="18.006983123802">
        <ele>11</ele>
        <time>2016-04-10T13:46:42Z</time>
      </trkpt>
      <trkpt lat="59.124576215403" lon="18.007170626905">
        <ele>10.4</ele>
        <time>2016-04-10T13:46:43Z</time>
      </trkpt>
      <trkpt lat="59.124517458284" lon="18.007340276561">
        <ele>10</ele>
        <time>2016-04-10T13:46:44Z</time>
      </trkpt>
      <trkpt lat="59.124456270414" lon="18.007487798001">
        <ele>9.4</ele>
        <time>2016-04-10T13:46:45Z</time>
      </trkpt>
      <trkpt lat="59.124378486382" lon="18.007625093523">
        <ele>9</ele>
        <time>2016-04-10T13:46:46Z</time>
      </trkpt>
      <trkpt lat="59.124232138408" lon="18.007876885799">
        <ele>9</ele>
        <time>2016-04-10T13:46:48Z</time>
      </trkpt>
      <trkpt lat="59.12410288951" lon="18.008149716644">
        <ele>9</ele>
        <time>2016-04-10T13:46:50Z</time>
      </trkpt>
      <trkpt lat="59.124054023033" lon="18.008301429034">
        <ele>9</ele>
        <time>2016-04-10T13:46:51Z</time>
      </trkpt>
      <trkpt lat="59.124009766601" lon="18.008824208137">
        <ele>9</ele>
        <time>2016-04-10T13:46:54Z</time>
      </trkpt>
      <trkpt lat="59.124007000574" lon="18.008976842536">
        <ele>9</ele>
        <time>2016-04-10T13:46:55Z</time>
      </trkpt>
      <trkpt lat="59.124014376646" lon="18.009134254618">
        <ele>9</ele>
        <time>2016-04-10T13:46:56Z</time>
      </trkpt>
      <trkpt lat="59.124030721351" lon="18.009436757389">
        <ele>9</ele>
        <time>2016-04-10T13:46:58Z</time>
      </trkpt>
      <trkpt lat="59.124020830709" lon="18.009560055138">
        <ele>9</ele>
        <time>2016-04-10T13:46:59Z</time>
      </trkpt>
      <trkpt lat="59.123980262313" lon="18.009788378094">
        <ele>9.4</ele>
        <time>2016-04-10T13:47:01Z</time>
      </trkpt>
      <trkpt lat="59.123941454116" lon="18.009883177383">
        <ele>9.8</ele>
        <time>2016-04-10T13:47:02Z</time>
      </trkpt>
      <trkpt lat="59.123895102209" lon="18.009985520382">
        <ele>10.2</ele>
        <time>2016-04-10T13:47:03Z</time>
      </trkpt>
      <trkpt lat="59.123854952908" lon="18.010070009934">
        <ele>10.6</ele>
        <time>2016-04-10T13:47:04Z</time>
      </trkpt>
      <trkpt lat="59.123801057291" lon="18.010146369043">
        <ele>11.2</ele>
        <time>2016-04-10T13:47:05Z</time>
      </trkpt>
      <trkpt lat="59.123751268805" lon="18.01022289579">
        <ele>11.6</ele>
        <time>2016-04-10T13:47:06Z</time>
      </trkpt>
      <trkpt lat="59.12370810202" lon="18.010308558808">
        <ele>12.8</ele>
        <time>2016-04-10T13:47:07Z</time>
      </trkpt>
      <trkpt lat="59.123657894439" lon="18.010388354496">
        <ele>13.4</ele>
        <time>2016-04-10T13:47:08Z</time>
      </trkpt>
      <trkpt lat="59.123611458713" lon="18.010470664754">
        <ele>14</ele>
        <time>2016-04-10T13:47:09Z</time>
      </trkpt>
      <trkpt lat="59.123579523674" lon="18.010582814576">
        <ele>14.6</ele>
        <time>2016-04-10T13:47:10Z</time>
      </trkpt>
      <trkpt lat="59.123543062409" lon="18.010663448454">
        <ele>15.2</ele>
        <time>2016-04-10T13:47:11Z</time>
      </trkpt>
      <trkpt lat="59.123510037723" lon="18.010791020972">
        <ele>15.8</ele>
        <time>2016-04-10T13:47:12Z</time>
      </trkpt>
      <trkpt lat="59.123441809057" lon="18.010981206283">
        <ele>15.8</ele>
        <time>2016-04-10T13:47:14Z</time>
      </trkpt>
      <trkpt lat="59.123336197117" lon="18.011287229452">
        <ele>15.8</ele>
        <time>2016-04-10T13:47:17Z</time>
      </trkpt>
      <trkpt lat="59.123294119979" lon="18.011376329049">
        <ele>16.2</ele>
        <time>2016-04-10T13:47:18Z</time>
      </trkpt>
      <trkpt lat="59.123246846063" lon="18.011457884936">
        <ele>16.6</ele>
        <time>2016-04-10T13:47:19Z</time>
      </trkpt>
      <trkpt lat="59.123193788636" lon="18.01152795762">
        <ele>17</ele>
        <time>2016-04-10T13:47:20Z</time>
      </trkpt>
      <trkpt lat="59.123140479752" lon="18.011590989508">
        <ele>17.6</ele>
        <time>2016-04-10T13:47:21Z</time>
      </trkpt>
      <trkpt lat="59.123086667954" lon="18.011651003912">
        <ele>18</ele>
        <time>2016-04-10T13:47:22Z</time>
      </trkpt>
      <trkpt lat="59.122959179255" lon="18.011749407418">
        <ele>18</ele>
        <time>2016-04-10T13:47:24Z</time>
      </trkpt>
      <trkpt lat="59.12281542967" lon="18.011790646366">
        <ele>18</ele>
        <time>2016-04-10T13:47:26Z</time>
      </trkpt>
      <trkpt lat="59.122661286529" lon="18.011816881713">
        <ele>17.4</ele>
        <time>2016-04-10T13:47:28Z</time>
      </trkpt>
      <trkpt lat="59.122582496669" lon="18.011824257785">
        <ele>16.8</ele>
        <time>2016-04-10T13:47:29Z</time>
      </trkpt>
      <trkpt lat="59.122504796456" lon="18.011823587233">
        <ele>16.4</ele>
        <time>2016-04-10T13:47:30Z</time>
      </trkpt>
      <trkpt lat="59.122420306904" lon="18.011826269441">
        <ele>15.8</ele>
        <time>2016-04-10T13:47:31Z</time>
      </trkpt>
      <trkpt lat="59.122341181768" lon="18.011815540609">
        <ele>15.4</ele>
        <time>2016-04-10T13:47:32Z</time>
      </trkpt>
      <trkpt lat="59.122173962863" lon="18.01179198747">
        <ele>14.8</ele>
        <time>2016-04-10T13:47:34Z</time>
      </trkpt>
      <trkpt lat="59.122091987881" lon="18.011785952502">
        <ele>14.4</ele>
        <time>2016-04-10T13:47:35Z</time>
      </trkpt>
      <trkpt lat="59.1220082527" lon="18.011757286404">
        <ele>13.8</ele>
        <time>2016-04-10T13:47:36Z</time>
      </trkpt>
      <trkpt lat="59.121919907474" lon="18.011748820685">
        <ele>13.4</ele>
        <time>2016-04-10T13:47:37Z</time>
      </trkpt>
      <trkpt lat="59.121829969687" lon="18.011741025518">
        <ele>12.8</ele>
        <time>2016-04-10T13:47:38Z</time>
      </trkpt>
      <trkpt lat="59.12173919371" lon="18.01173163779">
        <ele>12.4</ele>
        <time>2016-04-10T13:47:39Z</time>
      </trkpt>
      <trkpt lat="59.121646573715" lon="18.011746138477">
        <ele>12</ele>
        <time>2016-04-10T13:47:40Z</time>
      </trkpt>
      <trkpt lat="59.121546829105" lon="18.011778995525">
        <ele>11.6</ele>
        <time>2016-04-10T13:47:41Z</time>
      </trkpt>
      <trkpt lat="59.121449431427" lon="18.011814283324">
        <ele>11.2</ele>
        <time>2016-04-10T13:47:42Z</time>
      </trkpt>
      <trkpt lat="59.1213544645" lon="18.011857533928">
        <ele>10.6</ele>
        <time>2016-04-10T13:47:43Z</time>
      </trkpt>
      <trkpt lat="59.12125304351" lon="18.011920314359">
        <ele>10.6</ele>
        <time>2016-04-10T13:47:44Z</time>
      </trkpt>
      <trkpt lat="59.12116419537" lon="18.011986112274">
        <ele>10.2</ele>
        <time>2016-04-10T13:47:45Z</time>
      </trkpt>
      <trkpt lat="59.12107702361" lon="18.012060375908">
        <ele>9.8</ele>
        <time>2016-04-10T13:47:46Z</time>
      </trkpt>
      <trkpt lat="59.120994461895" lon="18.012134136628">
        <ele>9.2</ele>
        <time>2016-04-10T13:47:47Z</time>
      </trkpt>
      <trkpt lat="59.120912067818" lon="18.012215776334">
        <ele>8.8</ele>
        <time>2016-04-10T13:47:48Z</time>
      </trkpt>
      <trkpt lat="59.120831266302" lon="18.012299762972">
        <ele>8.2</ele>
        <time>2016-04-10T13:47:49Z</time>
      </trkpt>
      <trkpt lat="59.120674021858" lon="18.012494642147">
        <ele>8.2</ele>
        <time>2016-04-10T13:47:51Z</time>
      </trkpt>
      <trkpt lat="59.120308235742" lon="18.013049691565">
        <ele>7.8</ele>
        <time>2016-04-10T13:47:56Z</time>
      </trkpt>
      <trkpt lat="59.120233385375" lon="18.013177934635">
        <ele>7.2</ele>
        <time>2016-04-10T13:47:57Z</time>
      </trkpt>
      <trkpt lat="59.120155349886" lon="18.013306093886">
        <ele>6.2</ele>
        <time>2016-04-10T13:47:58Z</time>
      </trkpt>
      <trkpt lat="59.120071027972" lon="18.013450094928">
        <ele>5.2</ele>
        <time>2016-04-10T13:47:59Z</time>
      </trkpt>
      <trkpt lat="59.119964242566" lon="18.013579511464">
        <ele>3.8</ele>
        <time>2016-04-10T13:48:00Z</time>
      </trkpt>
      <trkpt lat="59.119857289522" lon="18.01368294411">
        <ele>2.4</ele>
        <time>2016-04-10T13:48:01Z</time>
      </trkpt>
      <trkpt lat="59.119743128044" lon="18.013756788649">
        <ele>1</ele>
        <time>2016-04-10T13:48:02Z</time>
      </trkpt>
      <trkpt lat="59.119629720937" lon="18.013812360646">
        <ele>0</ele>
        <time>2016-04-10T13:48:03Z</time>
      </trkpt>
      <trkpt lat="59.11950877012" lon="18.013828705351">
        <ele>0</ele>
        <time>2016-04-10T13:48:04Z</time>
      </trkpt>
      <trkpt lat="59.11938723257" lon="18.01386064039">
        <ele>0</ele>
        <time>2016-04-10T13:48:05Z</time>
      </trkpt>
      <trkpt lat="59.119270053608" lon="18.013927192676">
        <ele>0</ele>
        <time>2016-04-10T13:48:06Z</time>
      </trkpt>
      <trkpt lat="59.119164944582" lon="18.014063566189">
        <ele>0</ele>
        <time>2016-04-10T13:48:07Z</time>
      </trkpt>
      <trkpt lat="59.119071067302" lon="18.014226845601">
        <ele>0</ele>
        <time>2016-04-10T13:48:08Z</time>
      </trkpt>
      <trkpt lat="59.1190075325" lon="18.014384928235">
        <ele>0</ele>
        <time>2016-04-10T13:48:09Z</time>
      </trkpt>
      <trkpt lat="59.118945003526" lon="18.014559942307">
        <ele>0</ele>
        <time>2016-04-10T13:48:10Z</time>
      </trkpt>
      <trkpt lat="59.118897813429" lon="18.014756497862">
        <ele>0</ele>
        <time>2016-04-10T13:48:11Z</time>
      </trkpt>
      <trkpt lat="59.118853724635" lon="18.014941570214">
        <ele>0</ele>
        <time>2016-04-10T13:48:12Z</time>
      </trkpt>
      <trkpt lat="59.11877954482" lon="18.015309284167">
        <ele>0</ele>
        <time>2016-04-10T13:48:14Z</time>
      </trkpt>
      <trkpt lat="59.118572260433" lon="18.016358698047">
        <ele>0</ele>
        <time>2016-04-10T13:48:20Z</time>
      </trkpt>
      <trkpt lat="59.118493889668" lon="18.01666857689">
        <ele>0</ele>
        <time>2016-04-10T13:48:22Z</time>
      </trkpt>
      <trkpt lat="59.11845600348" lon="18.016824731687">
        <ele>0</ele>
        <time>2016-04-10T13:48:23Z</time>
      </trkpt>
      <trkpt lat="59.118423565527" lon="18.016976946991">
        <ele>0</ele>
        <time>2016-04-10T13:48:24Z</time>
      </trkpt>
      <trkpt lat="59.118393223049" lon="18.017125558078">
        <ele>0</ele>
        <time>2016-04-10T13:48:25Z</time>
      </trkpt>
      <trkpt lat="59.118361790924" lon="18.017264781437">
        <ele>0</ele>
        <time>2016-04-10T13:48:26Z</time>
      </trkpt>
      <trkpt lat="59.118320887252" lon="18.017386654263">
        <ele>0</ele>
        <time>2016-04-10T13:48:27Z</time>
      </trkpt>
      <trkpt lat="59.118195410209" lon="18.017517830998">
        <ele>0</ele>
        <time>2016-04-10T13:48:29Z</time>
      </trkpt>
      <trkpt lat="59.118117039444" lon="18.017468713064">
        <ele>0</ele>
        <time>2016-04-10T13:48:30Z</time>
      </trkpt>
      <trkpt lat="59.118037327575" lon="18.01740366952">
        <ele>0</ele>
        <time>2016-04-10T13:48:31Z</time>
      </trkpt>
      <trkpt lat="59.117981252664" lon="18.017345415315">
        <ele>0</ele>
        <time>2016-04-10T13:48:32Z</time>
      </trkpt>
      <trkpt lat="59.11791201817" lon="18.01728045559">
        <ele>0</ele>
        <time>2016-04-10T13:48:33Z</time>
      </trkpt>
      <trkpt lat="59.117635080194" lon="18.017057916145">
        <ele>0</ele>
        <time>2016-04-10T13:48:37Z</time>
      </trkpt>
      <trkpt lat="59.117343473893" lon="18.016813499941">
        <ele>0</ele>
        <time>2016-04-10T13:48:42Z</time>
      </trkpt>
      <trkpt lat="59.117295026511" lon="18.016771841898">
        <ele>0</ele>
        <time>2016-04-10T13:48:43Z</time>
      </trkpt>
      <trkpt lat="59.11724984807" lon="18.016734374805">
        <ele>0</ele>
        <time>2016-04-10T13:48:44Z</time>
      </trkpt>
      <trkpt lat="59.117203831439" lon="18.01670629544">
        <ele>0</ele>
        <time>2016-04-10T13:48:45Z</time>
      </trkpt>
      <trkpt lat="59.117162257215" lon="18.016678299894">
        <ele>0</ele>
        <time>2016-04-10T13:48:46Z</time>
      </trkpt>
      <trkpt lat="59.117121353543" lon="18.016649047063">
        <ele>0</ele>
        <time>2016-04-10T13:48:47Z</time>
      </trkpt>
      <trkpt lat="59.117081455699" lon="18.016614765092">
        <ele>0</ele>
        <time>2016-04-10T13:48:48Z</time>
      </trkpt>
      <trkpt lat="59.117040552027" lon="18.016580147845">
        <ele>0</ele>
        <time>2016-04-10T13:48:49Z</time>
      </trkpt>
      <trkpt lat="59.116998726346" lon="18.016549302453">
        <ele>0</ele>
        <time>2016-04-10T13:48:50Z</time>
      </trkpt>
      <trkpt lat="59.116956733027" lon="18.016520301079">
        <ele>0</ele>
        <time>2016-04-10T13:48:51Z</time>
      </trkpt>
      <trkpt lat="59.11691624845" lon="18.016489623325">
        <ele>0.2</ele>
        <time>2016-04-10T13:48:52Z</time>
      </trkpt>
      <trkpt lat="59.116871740561" lon="18.016458610295">
        <ele>0.6</ele>
        <time>2016-04-10T13:48:53Z</time>
      </trkpt>
      <trkpt lat="59.116827232672" lon="18.016429608921">
        <ele>1</ele>
        <time>2016-04-10T13:48:54Z</time>
      </trkpt>
      <trkpt lat="59.116782724783" lon="18.016408486533">
        <ele>1.4</ele>
        <time>2016-04-10T13:48:55Z</time>
      </trkpt>
      <trkpt lat="59.116738384532" lon="18.016378814607">
        <ele>1.4</ele>
        <time>2016-04-10T13:48:56Z</time>
      </trkpt>
      <trkpt lat="59.116608213625" lon="18.016260965093">
        <ele>1.8</ele>
        <time>2016-04-10T13:48:59Z</time>
      </trkpt>
      <trkpt lat="59.11656085589" lon="18.016211260426">
        <ele>2.2</ele>
        <time>2016-04-10T13:49:00Z</time>
      </trkpt>
      <trkpt lat="59.116515006897" lon="18.016160969026">
        <ele>2.6</ele>
        <time>2016-04-10T13:49:01Z</time>
      </trkpt>
      <trkpt lat="59.116472091569" lon="18.016107995418">
        <ele>3</ele>
        <time>2016-04-10T13:49:02Z</time>
      </trkpt>
      <trkpt lat="59.116430265888" lon="18.0160474781">
        <ele>3.6</ele>
        <time>2016-04-10T13:49:03Z</time>
      </trkpt>
      <trkpt lat="59.11629850242" lon="18.015817981678">
        <ele>3.6</ele>
        <time>2016-04-10T13:49:06Z</time>
      </trkpt>
      <trkpt lat="59.116257179653" lon="18.015725277864">
        <ele>3.6</ele>
        <time>2016-04-10T13:49:07Z</time>
      </trkpt>
      <trkpt lat="59.116094486974" lon="18.015336525342">
        <ele>3.6</ele>
        <time>2016-04-10T13:49:11Z</time>
      </trkpt>
      <trkpt lat="59.115790726918" lon="18.014754486206">
        <ele>3.6</ele>
        <time>2016-04-10T13:49:18Z</time>
      </trkpt>
      <trkpt lat="59.1156463906" lon="18.014536472987">
        <ele>4</ele>
        <time>2016-04-10T13:49:21Z</time>
      </trkpt>
      <trkpt lat="59.115602553263" lon="18.014459610964">
        <ele>4.4</ele>
        <time>2016-04-10T13:49:22Z</time>
      </trkpt>
      <trkpt lat="59.115555698442" lon="18.014380653466">
        <ele>4.8</ele>
        <time>2016-04-10T13:49:23Z</time>
      </trkpt>
      <trkpt lat="59.115502724834" lon="18.014300438683">
        <ele>5.2</ele>
        <time>2016-04-10T13:49:24Z</time>
      </trkpt>
      <trkpt lat="59.115445476457" lon="18.014222822289">
        <ele>5.6</ele>
        <time>2016-04-10T13:49:25Z</time>
      </trkpt>
      <trkpt lat="59.115283202873" lon="18.013982010302">
        <ele>5.6</ele>
        <time>2016-04-10T13:49:28Z</time>
      </trkpt>
      <trkpt lat="59.115063932369" lon="18.013462416321">
        <ele>5.6</ele>
        <time>2016-04-10T13:49:33Z</time>
      </trkpt>
      <trkpt lat="59.11482915535" lon="18.012790355579">
        <ele>5.6</ele>
        <time>2016-04-10T13:49:39Z</time>
      </trkpt>
      <trkpt lat="59.114783641633" lon="18.012687342028">
        <ele>5.6</ele>
        <time>2016-04-10T13:49:40Z</time>
      </trkpt>
      <trkpt lat="59.11463385708" lon="18.01240470436">
        <ele>6</ele>
        <time>2016-04-10T13:49:43Z</time>
      </trkpt>
      <trkpt lat="59.114578620359" lon="18.012318203152">
        <ele>6.4</ele>
        <time>2016-04-10T13:49:44Z</time>
      </trkpt>
      <trkpt lat="59.114520617611" lon="18.012233545962">
        <ele>6.8</ele>
        <time>2016-04-10T13:49:45Z</time>
      </trkpt>
      <trkpt lat="59.114458088637" lon="18.012144949279">
        <ele>7.2</ele>
        <time>2016-04-10T13:49:46Z</time>
      </trkpt>
      <trkpt lat="59.114397655138" lon="18.012059118623">
        <ele>7.6</ele>
        <time>2016-04-10T13:49:47Z</time>
      </trkpt>
      <trkpt lat="59.114109736873" lon="18.011629546248">
        <ele>7.6</ele>
        <time>2016-04-10T13:49:52Z</time>
      </trkpt>
      <trkpt lat="59.113693575538" lon="18.010965029216">
        <ele>7.6</ele>
        <time>2016-04-10T13:50:00Z</time>
      </trkpt>
      <trkpt lat="59.113353521855" lon="18.010425486313">
        <ele>7.6</ele>
        <time>2016-04-10T13:50:07Z</time>
      </trkpt>
      <trkpt lat="59.113126372365" lon="18.010021814009">
        <ele>8</ele>
        <time>2016-04-10T13:50:12Z</time>
      </trkpt>
      <trkpt lat="59.113084127589" lon="18.009939336113">
        <ele>8.6</ele>
        <time>2016-04-10T13:50:13Z</time>
      </trkpt>
      <trkpt lat="59.113042637184" lon="18.009855181837">
        <ele>9</ele>
        <time>2016-04-10T13:50:14Z</time>
      </trkpt>
      <trkpt lat="59.113000392408" lon="18.009770776104">
        <ele>9.4</ele>
        <time>2016-04-10T13:50:15Z</time>
      </trkpt>
      <trkpt lat="59.112955381605" lon="18.009685867457">
        <ele>9.8</ele>
        <time>2016-04-10T13:50:16Z</time>
      </trkpt>
      <trkpt lat="59.112908526784" lon="18.009597354593">
        <ele>9.8</ele>
        <time>2016-04-10T13:50:17Z</time>
      </trkpt>
      <trkpt lat="59.11286695256" lon="18.009504315503">
        <ele>9.8</ele>
        <time>2016-04-10T13:50:18Z</time>
      </trkpt>
      <trkpt lat="59.112672576299" lon="18.008931245">
        <ele>9.8</ele>
        <time>2016-04-10T13:50:23Z</time>
      </trkpt>
      <trkpt lat="59.112640808898" lon="18.008799313894">
        <ele>9.8</ele>
        <time>2016-04-10T13:50:24Z</time>
      </trkpt>
      <trkpt lat="59.112550200559" lon="18.008261447371">
        <ele>9.8</ele>
        <time>2016-04-10T13:50:28Z</time>
      </trkpt>
      <trkpt lat="59.112502926643" lon="18.007389897409">
        <ele>9.8</ele>
        <time>2016-04-10T13:50:34Z</time>
      </trkpt>
      <trkpt lat="59.112434278882" lon="18.006501080733">
        <ele>9.8</ele>
        <time>2016-04-10T13:50:40Z</time>
      </trkpt>
      <trkpt lat="59.112336965023" lon="18.005967069884">
        <ele>10.2</ele>
        <time>2016-04-10T13:50:44Z</time>
      </trkpt>
      <trkpt lat="59.112307628373" lon="18.005847208714">
        <ele>10.6</ele>
        <time>2016-04-10T13:50:45Z</time>
      </trkpt>
      <trkpt lat="59.112278878456" lon="18.005727263725">
        <ele>11</ele>
        <time>2016-04-10T13:50:46Z</time>
      </trkpt>
      <trkpt lat="59.112251302005" lon="18.005602457234">
        <ele>11.4</ele>
        <time>2016-04-10T13:50:47Z</time>
      </trkpt>
      <trkpt lat="59.112225401934" lon="18.005483098978">
        <ele>12</ele>
        <time>2016-04-10T13:50:48Z</time>
      </trkpt>
      <trkpt lat="59.112169662299" lon="18.00523231253">
        <ele>12</ele>
        <time>2016-04-10T13:50:50Z</time>
      </trkpt>
      <trkpt lat="59.111958019324" lon="18.004296138119">
        <ele>12</ele>
        <time>2016-04-10T13:50:57Z</time>
      </trkpt>
      <trkpt lat="59.111729361092" lon="18.003358706423">
        <ele>12</ele>
        <time>2016-04-10T13:51:04Z</time>
      </trkpt>
      <trkpt lat="59.11155686159" lon="18.002376766838">
        <ele>12</ele>
        <time>2016-04-10T13:51:11Z</time>
      </trkpt>
      <trkpt lat="59.111455356781" lon="18.001556765561">
        <ele>12</ele>
        <time>2016-04-10T13:51:17Z</time>
      </trkpt>
      <trkpt lat="59.111348822832" lon="18.000872718702">
        <ele>12</ele>
        <time>2016-04-10T13:51:22Z</time>
      </trkpt>
      <trkpt lat="59.111281683813" lon="18.000606006644">
        <ele>12.4</ele>
        <time>2016-04-10T13:51:24Z</time>
      </trkpt>
      <trkpt lat="59.111243797625" lon="18.000469549312">
        <ele>12.8</ele>
        <time>2016-04-10T13:51:25Z</time>
      </trkpt>
      <trkpt lat="59.111208426007" lon="18.000341725337">
        <ele>13.2</ele>
        <time>2016-04-10T13:51:26Z</time>
      </trkpt>
      <trkpt lat="59.111172383837" lon="18.000216415932">
        <ele>13.6</ele>
        <time>2016-04-10T13:51:27Z</time>
      </trkpt>
      <trkpt lat="59.111133408002" lon="18.000096051848">
        <ele>14</ele>
        <time>2016-04-10T13:51:28Z</time>
      </trkpt>
      <trkpt lat="59.110891841644" lon="17.999376046638">
        <ele>14</ele>
        <time>2016-04-10T13:51:34Z</time>
      </trkpt>
      <trkpt lat="59.110617166781" lon="17.998550178031">
        <ele>14</ele>
        <time>2016-04-10T13:51:41Z</time>
      </trkpt>
      <trkpt lat="59.110366799428" lon="17.997770912788">
        <ele>14</ele>
        <time>2016-04-10T13:51:47Z</time>
      </trkpt>
      <trkpt lat="59.110067230322" lon="17.996926520182">
        <ele>14</ele>
        <time>2016-04-10T13:51:54Z</time>
      </trkpt>
      <trkpt lat="59.109987015539" lon="17.996509017743">
        <ele>14</ele>
        <time>2016-04-10T13:51:57Z</time>
      </trkpt>
      <trkpt lat="59.109958936174" lon="17.996214561596">
        <ele>14</ele>
        <time>2016-04-10T13:51:59Z</time>
      </trkpt>
      <trkpt lat="59.109870171853" lon="17.995258773539">
        <ele>13.6</ele>
        <time>2016-04-10T13:52:05Z</time>
      </trkpt>
      <trkpt lat="59.109879140486" lon="17.995091722272">
        <ele>13.2</ele>
        <time>2016-04-10T13:52:06Z</time>
      </trkpt>
      <trkpt lat="59.109901687797" lon="17.994928778136">
        <ele>12.8</ele>
        <time>2016-04-10T13:52:07Z</time>
      </trkpt>
      <trkpt lat="59.109976705802" lon="17.994634824903">
        <ele>11.8</ele>
        <time>2016-04-10T13:52:09Z</time>
      </trkpt>
      <trkpt lat="59.110130848943" lon="17.994160241725">
        <ele>11.8</ele>
        <time>2016-04-10T13:52:13Z</time>
      </trkpt>
      <trkpt lat="59.110161526697" lon="17.994040212917">
        <ele>12.4</ele>
        <time>2016-04-10T13:52:14Z</time>
      </trkpt>
      <trkpt lat="59.110186253302" lon="17.993919094462">
        <ele>12.8</ele>
        <time>2016-04-10T13:52:15Z</time>
      </trkpt>
      <trkpt lat="59.110208549156" lon="17.993785235519">
        <ele>13.4</ele>
        <time>2016-04-10T13:52:16Z</time>
      </trkpt>
      <trkpt lat="59.110226318784" lon="17.993646598893">
        <ele>13.8</ele>
        <time>2016-04-10T13:52:17Z</time>
      </trkpt>
      <trkpt lat="59.110231599381" lon="17.993507878448">
        <ele>14.4</ele>
        <time>2016-04-10T13:52:18Z</time>
      </trkpt>
      <trkpt lat="59.110184996017" lon="17.992925336398">
        <ele>14.4</ele>
        <time>2016-04-10T13:52:22Z</time>
      </trkpt>
      <trkpt lat="59.110094806773" lon="17.992272554026">
        <ele>14</ele>
        <time>2016-04-10T13:52:26Z</time>
      </trkpt>
      <trkpt lat="59.110069744892" lon="17.992101814723">
        <ele>13.4</ele>
        <time>2016-04-10T13:52:27Z</time>
      </trkpt>
      <trkpt lat="59.110044347735" lon="17.991930907782">
        <ele>12.6</ele>
        <time>2016-04-10T13:52:28Z</time>
      </trkpt>
      <trkpt lat="59.110016938922" lon="17.991763269782">
        <ele>12</ele>
        <time>2016-04-10T13:52:29Z</time>
      </trkpt>
      <trkpt lat="59.109888444395" lon="17.991144769381">
        <ele>12</ele>
        <time>2016-04-10T13:52:33Z</time>
      </trkpt>
      <trkpt lat="59.109682417293" lon="17.990677394637">
        <ele>12</ele>
        <time>2016-04-10T13:52:37Z</time>
      </trkpt>
      <trkpt lat="59.109254940393" lon="17.989897877937">
        <ele>12</ele>
        <time>2016-04-10T13:52:44Z</time>
      </trkpt>
      <trkpt lat="59.108960903341" lon="17.989344756356">
        <ele>12</ele>
        <time>2016-04-10T13:52:49Z</time>
      </trkpt>
      <trkpt lat="59.10869108998" lon="17.988777888459">
        <ele>12</ele>
        <time>2016-04-10T13:52:54Z</time>
      </trkpt>
      <trkpt lat="59.108480452833" lon="17.988314453208">
        <ele>11.6</ele>
        <time>2016-04-10T13:52:58Z</time>
      </trkpt>
      <trkpt lat="59.108434520021" lon="17.988200543187">
        <ele>11.2</ele>
        <time>2016-04-10T13:52:59Z</time>
      </trkpt>
      <trkpt lat="59.10838682701" lon="17.9880854597">
        <ele>10.6</ele>
        <time>2016-04-10T13:53:00Z</time>
      </trkpt>
      <trkpt lat="59.108330081547" lon="17.987981356502">
        <ele>10.2</ele>
        <time>2016-04-10T13:53:01Z</time>
      </trkpt>
      <trkpt lat="59.108266798202" lon="17.987877923856">
        <ele>9.8</ele>
        <time>2016-04-10T13:53:02Z</time>
      </trkpt>
      <trkpt lat="59.108150038335" lon="17.987667119071">
        <ele>9.8</ele>
        <time>2016-04-10T13:53:04Z</time>
      </trkpt>
      <trkpt lat="59.107807972996" lon="17.986998578727">
        <ele>10.2</ele>
        <time>2016-04-10T13:53:10Z</time>
      </trkpt>
      <trkpt lat="59.107751898085" lon="17.986875867711">
        <ele>10.6</ele>
        <time>2016-04-10T13:53:11Z</time>
      </trkpt>
      <trkpt lat="59.107699678848" lon="17.986753659609">
        <ele>11</ele>
        <time>2016-04-10T13:53:12Z</time>
      </trkpt>
      <trkpt lat="59.107651147647" lon="17.986629691308">
        <ele>11.4</ele>
        <time>2016-04-10T13:53:13Z</time>
      </trkpt>
      <trkpt lat="59.107607142672" lon="17.986502873161">
        <ele>11.8</ele>
        <time>2016-04-10T13:53:14Z</time>
      </trkpt>
      <trkpt lat="59.107506224596" lon="17.986082772333">
        <ele>11.8</ele>
        <time>2016-04-10T13:53:16Z</time>
      </trkpt>
      <trkpt lat="59.107438666482" lon="17.985522861413">
        <ele>11.8</ele>
        <time>2016-04-10T13:53:21Z</time>
      </trkpt>
      <trkpt lat="59.107427350917" lon="17.98539235523">
        <ele>11.8</ele>
        <time>2016-04-10T13:53:22Z</time>
      </trkpt>
      <trkpt lat="59.10738351358" lon="17.984578137464">
        <ele>11.8</ele>
        <time>2016-04-10T13:53:28Z</time>
      </trkpt>
      <trkpt lat="59.107386698702" lon="17.984098441327">
        <ele>12.4</ele>
        <time>2016-04-10T13:53:32Z</time>
      </trkpt>
      <trkpt lat="59.10739273367" lon="17.983996433604">
        <ele>12.8</ele>
        <time>2016-04-10T13:53:33Z</time>
      </trkpt>
      <trkpt lat="59.107399020095" lon="17.983896605175">
        <ele>13.2</ele>
        <time>2016-04-10T13:53:34Z</time>
      </trkpt>
      <trkpt lat="59.10740614471" lon="17.983799710411">
        <ele>13.8</ele>
        <time>2016-04-10T13:53:35Z</time>
      </trkpt>
      <trkpt lat="59.107414275153" lon="17.983702228914">
        <ele>14.2</ele>
        <time>2016-04-10T13:53:36Z</time>
      </trkpt>
      <trkpt lat="59.107429865487" lon="17.983502069142">
        <ele>14.6</ele>
        <time>2016-04-10T13:53:38Z</time>
      </trkpt>
      <trkpt lat="59.107438750301" lon="17.983399558505">
        <ele>15</ele>
        <time>2016-04-10T13:53:39Z</time>
      </trkpt>
      <trkpt lat="59.107448557124" lon="17.983294952393">
        <ele>15.4</ele>
        <time>2016-04-10T13:53:40Z</time>
      </trkpt>
      <trkpt lat="59.107460375603" lon="17.983200991294">
        <ele>16.2</ele>
        <time>2016-04-10T13:53:41Z</time>
      </trkpt>
      <trkpt lat="59.10747906724" lon="17.983112729887">
        <ele>16.2</ele>
        <time>2016-04-10T13:53:42Z</time>
      </trkpt>
      <trkpt lat="59.107509074442" lon="17.98293310577">
        <ele>16.2</ele>
        <time>2016-04-10T13:53:44Z</time>
      </trkpt>
      <trkpt lat="59.107523575129" lon="17.98283922849">
        <ele>16.6</ele>
        <time>2016-04-10T13:53:45Z</time>
      </trkpt>
      <trkpt lat="59.107541763852" lon="17.982745015934">
        <ele>17</ele>
        <time>2016-04-10T13:53:46Z</time>
      </trkpt>
      <trkpt lat="59.107562215688" lon="17.982656167794">
        <ele>17.4</ele>
        <time>2016-04-10T13:53:47Z</time>
      </trkpt>
      <trkpt lat="59.107583924809" lon="17.982554830623">
        <ele>18</ele>
        <time>2016-04-10T13:53:48Z</time>
      </trkpt>
      <trkpt lat="59.107605214835" lon="17.982485344672">
        <ele>18.4</ele>
        <time>2016-04-10T13:53:49Z</time>
      </trkpt>
      <trkpt lat="59.107656092968" lon="17.982374368316">
        <ele>18.4</ele>
        <time>2016-04-10T13:53:51Z</time>
      </trkpt>
      <trkpt lat="59.107756675768" lon="17.982171274879">
        <ele>18.4</ele>
        <time>2016-04-10T13:53:54Z</time>
      </trkpt>
      <trkpt lat="59.107796825069" lon="17.982069099518">
        <ele>18.4</ele>
        <time>2016-04-10T13:53:55Z</time>
      </trkpt>
      <trkpt lat="59.108024896568" lon="17.981409443988">
        <ele>18.4</ele>
        <time>2016-04-10T13:54:01Z</time>
      </trkpt>
      <trkpt lat="59.108261601424" lon="17.98073956254">
        <ele>18</ele>
        <time>2016-04-10T13:54:06Z</time>
      </trkpt>
      <trkpt lat="59.108308120969" lon="17.980598076068">
        <ele>17.4</ele>
        <time>2016-04-10T13:54:07Z</time>
      </trkpt>
      <trkpt lat="59.108357238903" lon="17.980455583768">
        <ele>17</ele>
        <time>2016-04-10T13:54:08Z</time>
      </trkpt>
      <trkpt lat="59.108408955226" lon="17.980305715396">
        <ele>16.6</ele>
        <time>2016-04-10T13:54:09Z</time>
      </trkpt>
      <trkpt lat="59.108469556363" lon="17.980140508147">
        <ele>16.2</ele>
        <time>2016-04-10T13:54:10Z</time>
      </trkpt>
      <trkpt lat="59.108531750061" lon="17.979977731649">
        <ele>15.8</ele>
        <time>2016-04-10T13:54:11Z</time>
      </trkpt>
      <trkpt lat="59.108594446673" lon="17.979807914355">
        <ele>15.4</ele>
        <time>2016-04-10T13:54:12Z</time>
      </trkpt>
      <trkpt lat="59.108659909312" lon="17.979632984102">
        <ele>14.6</ele>
        <time>2016-04-10T13:54:13Z</time>
      </trkpt>
      <trkpt lat="59.108728976168" lon="17.979455204003">
        <ele>13.8</ele>
        <time>2016-04-10T13:54:14Z</time>
      </trkpt>
      <trkpt lat="59.108798965033" lon="17.979268706728">
        <ele>12.8</ele>
        <time>2016-04-10T13:54:15Z</time>
      </trkpt>
      <trkpt lat="59.108866774604" lon="17.979075587752">
        <ele>11.8</ele>
        <time>2016-04-10T13:54:16Z</time>
      </trkpt>
      <trkpt lat="59.108930644682" lon="17.978870231202">
        <ele>10.6</ele>
        <time>2016-04-10T13:54:17Z</time>
      </trkpt>
      <trkpt lat="59.108985462308" lon="17.978635286545">
        <ele>9.4</ele>
        <time>2016-04-10T13:54:18Z</time>
      </trkpt>
      <trkpt lat="59.109032317129" lon="17.978408639969">
        <ele>8.4</ele>
        <time>2016-04-10T13:54:19Z</time>
      </trkpt>
      <trkpt lat="59.109072298792" lon="17.978181741936">
        <ele>7.2</ele>
        <time>2016-04-10T13:54:20Z</time>
      </trkpt>
      <trkpt lat="59.10910180308" lon="17.977963561079">
        <ele>6.2</ele>
        <time>2016-04-10T13:54:21Z</time>
      </trkpt>
      <trkpt lat="59.109122506373" lon="17.977760300004">
        <ele>5</ele>
        <time>2016-04-10T13:54:22Z</time>
      </trkpt>
      <trkpt lat="59.109133905757" lon="17.977572713082">
        <ele>3.8</ele>
        <time>2016-04-10T13:54:23Z</time>
      </trkpt>
      <trkpt lat="59.109127032599" lon="17.977227127345">
        <ele>4.4</ele>
        <time>2016-04-10T13:54:25Z</time>
      </trkpt>
      <trkpt lat="59.109107083677" lon="17.977081366104">
        <ele>4.8</ele>
        <time>2016-04-10T13:54:26Z</time>
      </trkpt>
      <trkpt lat="59.109065928548" lon="17.976947423342">
        <ele>5.6</ele>
        <time>2016-04-10T13:54:27Z</time>
      </trkpt>
      <trkpt lat="59.109011865293" lon="17.97682605343">
        <ele>6.4</ele>
        <time>2016-04-10T13:54:28Z</time>
      </trkpt>
      <trkpt lat="59.108949420138" lon="17.976714071246">
        <ele>7.2</ele>
        <time>2016-04-10T13:54:29Z</time>
      </trkpt>
      <trkpt lat="59.108881526748" lon="17.976614242817">
        <ele>8.6</ele>
        <time>2016-04-10T13:54:30Z</time>
      </trkpt>
      <trkpt lat="59.108808520399" lon="17.976531932559">
        <ele>9.4</ele>
        <time>2016-04-10T13:54:31Z</time>
      </trkpt>
      <trkpt lat="59.108730736367" lon="17.976462949522">
        <ele>10.2</ele>
        <time>2016-04-10T13:54:32Z</time>
      </trkpt>
      <trkpt lat="59.108644486616" lon="17.976395559046">
        <ele>10.8</ele>
        <time>2016-04-10T13:54:33Z</time>
      </trkpt>
      <trkpt lat="59.108561254349" lon="17.97633487409">
        <ele>10.8</ele>
        <time>2016-04-10T13:54:34Z</time>
      </trkpt>
      <trkpt lat="59.108141404978" lon="17.976008985818">
        <ele>10.8</ele>
        <time>2016-04-10T13:54:39Z</time>
      </trkpt>
      <trkpt lat="59.10779674125" lon="17.975570612448">
        <ele>10.8</ele>
        <time>2016-04-10T13:54:44Z</time>
      </trkpt>
      <trkpt lat="59.107442605975" lon="17.975033248839">
        <ele>10.8</ele>
        <time>2016-04-10T13:54:50Z</time>
      </trkpt>
      <trkpt lat="59.107246469515" lon="17.974849852867">
        <ele>10.8</ele>
        <time>2016-04-10T13:54:53Z</time>
      </trkpt>
      <trkpt lat="59.107176145374" lon="17.974807608091">
        <ele>10.8</ele>
        <time>2016-04-10T13:54:54Z</time>
      </trkpt>
      <trkpt lat="59.106889400575" lon="17.974735439932">
        <ele>10.8</ele>
        <time>2016-04-10T13:54:58Z</time>
      </trkpt>
      <trkpt lat="59.106814717846" lon="17.974742145452">
        <ele>10.8</ele>
        <time>2016-04-10T13:54:59Z</time>
      </trkpt>
      <trkpt lat="59.106588406546" lon="17.974769218989">
        <ele>10.8</ele>
        <time>2016-04-10T13:55:02Z</time>
      </trkpt>
      <trkpt lat="59.106430994464" lon="17.974803752417">
        <ele>10.8</ele>
        <time>2016-04-10T13:55:04Z</time>
      </trkpt>
      <trkpt lat="59.106280958454" lon="17.974821857321">
        <ele>10.8</ele>
        <time>2016-04-10T13:55:06Z</time>
      </trkpt>
      <trkpt lat="59.106071997687" lon="17.97478673716">
        <ele>10.8</ele>
        <time>2016-04-10T13:55:09Z</time>
      </trkpt>
      <trkpt lat="59.106008714342" lon="17.974758154881">
        <ele>10.8</ele>
        <time>2016-04-10T13:55:10Z</time>
      </trkpt>
      <trkpt lat="59.105766980346" lon="17.974597725315">
        <ele>10.8</ele>
        <time>2016-04-10T13:55:14Z</time>
      </trkpt>
      <trkpt lat="59.105718113869" lon="17.974561515507">
        <ele>11.2</ele>
        <time>2016-04-10T13:55:15Z</time>
      </trkpt>
      <trkpt lat="59.105673354523" lon="17.974526814441">
        <ele>11.8</ele>
        <time>2016-04-10T13:55:16Z</time>
      </trkpt>
      <trkpt lat="59.10563253467" lon="17.974489766443">
        <ele>12.2</ele>
        <time>2016-04-10T13:55:17Z</time>
      </trkpt>
      <trkpt lat="59.10559062517" lon="17.974455568291">
        <ele>12.6</ele>
        <time>2016-04-10T13:55:18Z</time>
      </trkpt>
      <trkpt lat="59.105551733154" lon="17.974419861397">
        <ele>13.8</ele>
        <time>2016-04-10T13:55:19Z</time>
      </trkpt>
      <trkpt lat="59.105519295201" lon="17.974385747064">
        <ele>14.2</ele>
        <time>2016-04-10T13:55:20Z</time>
      </trkpt>
      <trkpt lat="59.1054791459" lon="17.974350626903">
        <ele>14.8</ele>
        <time>2016-04-10T13:55:21Z</time>
      </trkpt>
      <trkpt lat="59.105439499513" lon="17.974313914181">
        <ele>15.4</ele>
        <time>2016-04-10T13:55:22Z</time>
      </trkpt>
      <trkpt lat="59.105361547843" lon="17.974245434058">
        <ele>15.8</ele>
        <time>2016-04-10T13:55:24Z</time>
      </trkpt>
      <trkpt lat="59.105318464877" lon="17.974210565354">
        <ele>16.2</ele>
        <time>2016-04-10T13:55:25Z</time>
      </trkpt>
      <trkpt lat="59.105273454074" lon="17.97417485846">
        <ele>16.6</ele>
        <time>2016-04-10T13:55:26Z</time>
      </trkpt>
      <trkpt lat="59.105223162674" lon="17.974126997811">
        <ele>17</ele>
        <time>2016-04-10T13:55:27Z</time>
      </trkpt>
      <trkpt lat="59.105168512686" lon="17.97407511385">
        <ele>17.4</ele>
        <time>2016-04-10T13:55:28Z</time>
      </trkpt>
      <trkpt lat="59.105107576273" lon="17.97401476417">
        <ele>17.4</ele>
        <time>2016-04-10T13:55:29Z</time>
      </trkpt>
      <trkpt lat="59.104915379306" lon="17.973821896651">
        <ele>16.8</ele>
        <time>2016-04-10T13:55:32Z</time>
      </trkpt>
      <trkpt lat="59.104847402097" lon="17.973746208094">
        <ele>16.4</ele>
        <time>2016-04-10T13:55:33Z</time>
      </trkpt>
      <trkpt lat="59.104780346897" lon="17.973663143465">
        <ele>16</ele>
        <time>2016-04-10T13:55:34Z</time>
      </trkpt>
      <trkpt lat="59.104713291697" lon="17.973574882058">
        <ele>15.6</ele>
        <time>2016-04-10T13:55:35Z</time>
      </trkpt>
      <trkpt lat="59.104642464642" lon="17.973486788289">
        <ele>15</ele>
        <time>2016-04-10T13:55:36Z</time>
      </trkpt>
      <trkpt lat="59.104569961207" lon="17.973401795823">
        <ele>14.4</ele>
        <time>2016-04-10T13:55:37Z</time>
      </trkpt>
      <trkpt lat="59.104494607926" lon="17.973312444769">
        <ele>13.8</ele>
        <time>2016-04-10T13:55:38Z</time>
      </trkpt>
      <trkpt lat="59.104418584093" lon="17.973218818946">
        <ele>13.4</ele>
        <time>2016-04-10T13:55:39Z</time>
      </trkpt>
      <trkpt lat="59.104336273835" lon="17.973119325793">
        <ele>12.8</ele>
        <time>2016-04-10T13:55:40Z</time>
      </trkpt>
      <trkpt lat="59.104254215034" lon="17.973016312242">
        <ele>12.2</ele>
        <time>2016-04-10T13:55:41Z</time>
      </trkpt>
      <trkpt lat="59.104171485681" lon="17.972896367253">
        <ele>11.4</ele>
        <time>2016-04-10T13:55:42Z</time>
      </trkpt>
      <trkpt lat="59.104090097432" lon="17.972758065903">
        <ele>10.6</ele>
        <time>2016-04-10T13:55:43Z</time>
      </trkpt>
      <trkpt lat="59.104008876821" lon="17.972611550291">
        <ele>9.6</ele>
        <time>2016-04-10T13:55:44Z</time>
      </trkpt>
      <trkpt lat="59.103928410581" lon="17.972456066046">
        <ele>7.8</ele>
        <time>2016-04-10T13:55:45Z</time>
      </trkpt>
      <trkpt lat="59.103859176087" lon="17.972286248752">
        <ele>6.8</ele>
        <time>2016-04-10T13:55:46Z</time>
      </trkpt>
      <trkpt lat="59.103790025412" lon="17.972113497793">
        <ele>5.8</ele>
        <time>2016-04-10T13:55:47Z</time>
      </trkpt>
      <trkpt lat="59.103727580257" lon="17.97195365496">
        <ele>5</ele>
        <time>2016-04-10T13:55:48Z</time>
      </trkpt>
      <trkpt lat="59.103670080423" lon="17.971797500163">
        <ele>4</ele>
        <time>2016-04-10T13:55:49Z</time>
      </trkpt>
      <trkpt lat="59.103615933349" lon="17.971644111393">
        <ele>3.2</ele>
        <time>2016-04-10T13:55:50Z</time>
      </trkpt>
      <trkpt lat="59.10346162257" lon="17.971203977824">
        <ele>3.2</ele>
        <time>2016-04-10T13:55:53Z</time>
      </trkpt>
      <trkpt lat="59.103405380021" lon="17.971067352854">
        <ele>3.2</ele>
        <time>2016-04-10T13:55:54Z</time>
      </trkpt>
      <trkpt lat="59.103228689569" lon="17.970697711064">
        <ele>3.2</ele>
        <time>2016-04-10T13:55:57Z</time>
      </trkpt>
      <trkpt lat="59.103167166423" lon="17.970582208482">
        <ele>3.6</ele>
        <time>2016-04-10T13:55:58Z</time>
      </trkpt>
      <trkpt lat="59.103103212526" lon="17.970468717556">
        <ele>4</ele>
        <time>2016-04-10T13:55:59Z</time>
      </trkpt>
      <trkpt lat="59.103039510086" lon="17.970354723716">
        <ele>4.4</ele>
        <time>2016-04-10T13:56:00Z</time>
      </trkpt>
      <trkpt lat="59.102979411863" lon="17.970236036012">
        <ele>4.8</ele>
        <time>2016-04-10T13:56:01Z</time>
      </trkpt>
      <trkpt lat="59.102920319468" lon="17.970106954752">
        <ele>5.2</ele>
        <time>2016-04-10T13:56:02Z</time>
      </trkpt>
      <trkpt lat="59.102812947329" lon="17.969863041462">
        <ele>5.2</ele>
        <time>2016-04-10T13:56:04Z</time>
      </trkpt>
      <trkpt lat="59.102719656782" lon="17.969610410996">
        <ele>5.2</ele>
        <time>2016-04-10T13:56:06Z</time>
      </trkpt>
      <trkpt lat="59.102640699284" lon="17.969368844638">
        <ele>5.2</ele>
        <time>2016-04-10T13:56:08Z</time>
      </trkpt>
      <trkpt lat="59.102605076209" lon="17.969241858853">
        <ele>5.6</ele>
        <time>2016-04-10T13:56:09Z</time>
      </trkpt>
      <trkpt lat="59.102572973532" lon="17.969101378209">
        <ele>6</ele>
        <time>2016-04-10T13:56:10Z</time>
      </trkpt>
      <trkpt lat="59.10254296633" lon="17.968961400479">
        <ele>6.4</ele>
        <time>2016-04-10T13:56:11Z</time>
      </trkpt>
      <trkpt lat="59.102507175617" lon="17.968831648667">
        <ele>6.8</ele>
        <time>2016-04-10T13:56:12Z</time>
      </trkpt>
      <trkpt lat="59.102468954153" lon="17.968709440565">
        <ele>7.2</ele>
        <time>2016-04-10T13:56:13Z</time>
      </trkpt>
      <trkpt lat="59.102339369979" lon="17.968355137652">
        <ele>7.8</ele>
        <time>2016-04-10T13:56:16Z</time>
      </trkpt>
      <trkpt lat="59.102285558181" lon="17.968247011142">
        <ele>8.2</ele>
        <time>2016-04-10T13:56:17Z</time>
      </trkpt>
      <trkpt lat="59.102233255125" lon="17.968139303727">
        <ele>8.6</ele>
        <time>2016-04-10T13:56:18Z</time>
      </trkpt>
      <trkpt lat="59.102187825227" lon="17.968030255208">
        <ele>9</ele>
        <time>2016-04-10T13:56:19Z</time>
      </trkpt>
      <trkpt lat="59.102151699238" lon="17.967913495341">
        <ele>9.4</ele>
        <time>2016-04-10T13:56:20Z</time>
      </trkpt>
      <trkpt lat="59.102080033993" lon="17.967649214034">
        <ele>9.4</ele>
        <time>2016-04-10T13:56:22Z</time>
      </trkpt>
      <trkpt lat="59.102020103408" lon="17.967340927752">
        <ele>9.4</ele>
        <time>2016-04-10T13:56:24Z</time>
      </trkpt>
      <trkpt lat="59.101986156713" lon="17.966999197689">
        <ele>9.4</ele>
        <time>2016-04-10T13:56:26Z</time>
      </trkpt>
      <trkpt lat="59.101937960788" lon="17.965991190395">
        <ele>9.4</ele>
        <time>2016-04-10T13:56:32Z</time>
      </trkpt>
      <trkpt lat="59.101836204522" lon="17.965246039485">
        <ele>9.4</ele>
        <time>2016-04-10T13:56:37Z</time>
      </trkpt>
      <trkpt lat="59.101707877633" lon="17.96459434676">
        <ele>9.4</ele>
        <time>2016-04-10T13:56:42Z</time>
      </trkpt>
      <trkpt lat="59.101675523499" lon="17.964362084311">
        <ele>9.8</ele>
        <time>2016-04-10T13:56:44Z</time>
      </trkpt>
      <trkpt lat="59.101667644513" lon="17.964264435176">
        <ele>10.4</ele>
        <time>2016-04-10T13:56:45Z</time>
      </trkpt>
      <trkpt lat="59.101657753871" lon="17.964167372774">
        <ele>10.8</ele>
        <time>2016-04-10T13:56:46Z</time>
      </trkpt>
      <trkpt lat="59.10164945579" lon="17.964076177702">
        <ele>11.2</ele>
        <time>2016-04-10T13:56:47Z</time>
      </trkpt>
      <trkpt lat="59.101640654795" lon="17.963979702033">
        <ele>11.8</ele>
        <time>2016-04-10T13:56:48Z</time>
      </trkpt>
      <trkpt lat="59.101631686162" lon="17.96388607621">
        <ele>12.4</ele>
        <time>2016-04-10T13:56:49Z</time>
      </trkpt>
      <trkpt lat="59.101619951502" lon="17.963789097627">
        <ele>12.8</ele>
        <time>2016-04-10T13:56:50Z</time>
      </trkpt>
      <trkpt lat="59.101606456643" lon="17.963686503171">
        <ele>13.4</ele>
        <time>2016-04-10T13:56:51Z</time>
      </trkpt>
      <trkpt lat="59.101593799974" lon="17.963576113548">
        <ele>14</ele>
        <time>2016-04-10T13:56:52Z</time>
      </trkpt>
      <trkpt lat="59.101508975146" lon="17.962838590167">
        <ele>14</ele>
        <time>2016-04-10T13:56:58Z</time>
      </trkpt>
      <trkpt lat="59.101490786423" lon="17.962709760364">
        <ele>13</ele>
        <time>2016-04-10T13:56:59Z</time>
      </trkpt>
      <trkpt lat="59.101466478913" lon="17.962582104027">
        <ele>12.6</ele>
        <time>2016-04-10T13:57:00Z</time>
      </trkpt>
      <trkpt lat="59.101437645177" lon="17.962457213717">
        <ele>12.2</ele>
        <time>2016-04-10T13:57:01Z</time>
      </trkpt>
      <trkpt lat="59.101404871948" lon="17.962339280384">
        <ele>11.8</ele>
        <time>2016-04-10T13:57:02Z</time>
      </trkpt>
      <trkpt lat="59.101367069579" lon="17.962224615992">
        <ele>11.8</ele>
        <time>2016-04-10T13:57:03Z</time>
      </trkpt>
      <trkpt lat="59.101222314166" lon="17.961882131558">
        <ele>11.8</ele>
        <time>2016-04-10T13:57:06Z</time>
      </trkpt>
      <trkpt lat="59.10109457401" lon="17.961667135823">
        <ele>11.2</ele>
        <time>2016-04-10T13:57:08Z</time>
      </trkpt>
      <trkpt lat="59.101029279009" lon="17.961555824191">
        <ele>10.8</ele>
        <time>2016-04-10T13:57:09Z</time>
      </trkpt>
      <trkpt lat="59.100957613764" lon="17.961432107347">
        <ele>10.4</ele>
        <time>2016-04-10T13:57:10Z</time>
      </trkpt>
      <trkpt lat="59.100899611016" lon="17.961275701093">
        <ele>10</ele>
        <time>2016-04-10T13:57:11Z</time>
      </trkpt>
      <trkpt lat="59.100861976285" lon="17.961112170224">
        <ele>9.4</ele>
        <time>2016-04-10T13:57:12Z</time>
      </trkpt>
      <trkpt lat="59.100825598839" lon="17.960618308676">
        <ele>9.4</ele>
        <time>2016-04-10T13:57:15Z</time>
      </trkpt>
      <trkpt lat="59.100833142549" lon="17.960471960702">
        <ele>9.4</ele>
        <time>2016-04-10T13:57:16Z</time>
      </trkpt>
      <trkpt lat="59.100864490855" lon="17.960237183683">
        <ele>10</ele>
        <time>2016-04-10T13:57:18Z</time>
      </trkpt>
      <trkpt lat="59.100871196375" lon="17.960122770748">
        <ele>10.4</ele>
        <time>2016-04-10T13:57:19Z</time>
      </trkpt>
      <trkpt lat="59.100865999597" lon="17.960013554591">
        <ele>11</ele>
        <time>2016-04-10T13:57:20Z</time>
      </trkpt>
      <trkpt lat="59.100852169462" lon="17.959908780841">
        <ele>11.6</ele>
        <time>2016-04-10T13:57:21Z</time>
      </trkpt>
      <trkpt lat="59.100832471997" lon="17.95981247281">
        <ele>12.2</ele>
        <time>2016-04-10T13:57:22Z</time>
      </trkpt>
      <trkpt lat="59.100805566098" lon="17.959720020453">
        <ele>13.6</ele>
        <time>2016-04-10T13:57:23Z</time>
      </trkpt>
      <trkpt lat="59.100774050154" lon="17.959641733507">
        <ele>14.2</ele>
        <time>2016-04-10T13:57:24Z</time>
      </trkpt>
      <trkpt lat="59.100740606373" lon="17.959561937819">
        <ele>14.2</ele>
        <time>2016-04-10T13:57:25Z</time>
      </trkpt>
      <trkpt lat="59.100704731841" lon="17.959494044429">
        <ele>14.2</ele>
        <time>2016-04-10T13:57:26Z</time>
      </trkpt>
      <trkpt lat="59.100667516205" lon="17.959438304794">
        <ele>14.2</ele>
        <time>2016-04-10T13:57:27Z</time>
      </trkpt>
      <trkpt lat="59.100579673893" lon="17.959303607661">
        <ele>14.2</ele>
        <time>2016-04-10T13:57:29Z</time>
      </trkpt>
      <trkpt lat="59.10051203196" lon="17.959178382075">
        <ele>13.8</ele>
        <time>2016-04-10T13:57:30Z</time>
      </trkpt>
      <trkpt lat="59.100437013955" lon="17.959023903658">
        <ele>13.4</ele>
        <time>2016-04-10T13:57:31Z</time>
      </trkpt>
      <trkpt lat="59.100364342882" lon="17.958852158527">
        <ele>12.4</ele>
        <time>2016-04-10T13:57:32Z</time>
      </trkpt>
      <trkpt lat="59.100291336533" lon="17.958667672908">
        <ele>11.6</ele>
        <time>2016-04-10T13:57:33Z</time>
      </trkpt>
      <trkpt lat="59.100215647976" lon="17.958478241968">
        <ele>10.4</ele>
        <time>2016-04-10T13:57:34Z</time>
      </trkpt>
      <trkpt lat="59.100138366858" lon="17.958299958955">
        <ele>9.2</ele>
        <time>2016-04-10T13:57:35Z</time>
      </trkpt>
      <trkpt lat="59.100054883134" lon="17.958119496648">
        <ele>8</ele>
        <time>2016-04-10T13:57:36Z</time>
      </trkpt>
      <trkpt lat="59.099967459917" lon="17.957950601363">
        <ele>6.8</ele>
        <time>2016-04-10T13:57:37Z</time>
      </trkpt>
      <trkpt lat="59.099871906257" lon="17.957803750475">
        <ele>5.6</ele>
        <time>2016-04-10T13:57:38Z</time>
      </trkpt>
      <trkpt lat="59.099766629593" lon="17.957672992835">
        <ele>4.6</ele>
        <time>2016-04-10T13:57:39Z</time>
      </trkpt>
      <trkpt lat="59.099663448404" lon="17.957547599611">
        <ele>3.8</ele>
        <time>2016-04-10T13:57:40Z</time>
      </trkpt>
      <trkpt lat="59.099562781785" lon="17.957419775636">
        <ele>2.8</ele>
        <time>2016-04-10T13:57:41Z</time>
      </trkpt>
      <trkpt lat="59.099464713555" lon="17.957285581417">
        <ele>2</ele>
        <time>2016-04-10T13:57:42Z</time>
      </trkpt>
      <trkpt lat="59.099373183207" lon="17.95715205775">
        <ele>1.2</ele>
        <time>2016-04-10T13:57:43Z</time>
      </trkpt>
      <trkpt lat="59.099286430542" lon="17.957018534083">
        <ele>0.4</ele>
        <time>2016-04-10T13:57:44Z</time>
      </trkpt>
      <trkpt lat="59.099144860251" lon="17.956751905844">
        <ele>0.4</ele>
        <time>2016-04-10T13:57:46Z</time>
      </trkpt>
      <trkpt lat="59.099023574158" lon="17.956488295089">
        <ele>1</ele>
        <time>2016-04-10T13:57:48Z</time>
      </trkpt>
      <trkpt lat="59.098971941654" lon="17.95635829182">
        <ele>1.4</ele>
        <time>2016-04-10T13:57:49Z</time>
      </trkpt>
      <trkpt lat="59.098927936679" lon="17.956235496985">
        <ele>1.8</ele>
        <time>2016-04-10T13:57:50Z</time>
      </trkpt>
      <trkpt lat="59.098888206473" lon="17.956116474005">
        <ele>2.6</ele>
        <time>2016-04-10T13:57:51Z</time>
      </trkpt>
      <trkpt lat="59.098846967525" lon="17.956004659459">
        <ele>3.2</ele>
        <time>2016-04-10T13:57:52Z</time>
      </trkpt>
      <trkpt lat="59.098807237319" lon="17.955893012551">
        <ele>4</ele>
        <time>2016-04-10T13:57:53Z</time>
      </trkpt>
      <trkpt lat="59.098767507113" lon="17.955783125842">
        <ele>4.8</ele>
        <time>2016-04-10T13:57:54Z</time>
      </trkpt>
      <trkpt lat="59.098734063332" lon="17.955684135603">
        <ele>5.4</ele>
        <time>2016-04-10T13:57:55Z</time>
      </trkpt>
      <trkpt lat="59.098703804673" lon="17.955585648278">
        <ele>5.8</ele>
        <time>2016-04-10T13:57:56Z</time>
      </trkpt>
      <trkpt lat="59.09867723405" lon="17.955482802365">
        <ele>6.2</ele>
        <time>2016-04-10T13:57:57Z</time>
      </trkpt>
      <trkpt lat="59.098653010359" lon="17.955386578153">
        <ele>6.8</ele>
        <time>2016-04-10T13:57:58Z</time>
      </trkpt>
      <trkpt lat="59.098628954306" lon="17.955289348113">
        <ele>7.2</ele>
        <time>2016-04-10T13:57:59Z</time>
      </trkpt>
      <trkpt lat="59.098607999556" lon="17.955192034254">
        <ele>7.6</ele>
        <time>2016-04-10T13:58:00Z</time>
      </trkpt>
      <trkpt lat="59.098586290435" lon="17.955105700684">
        <ele>8</ele>
        <time>2016-04-10T13:58:01Z</time>
      </trkpt>
      <trkpt lat="59.098562234382" lon="17.95501215868">
        <ele>8.6</ele>
        <time>2016-04-10T13:58:02Z</time>
      </trkpt>
      <trkpt lat="59.098539351795" lon="17.95491325226">
        <ele>9</ele>
        <time>2016-04-10T13:58:03Z</time>
      </trkpt>
      <trkpt lat="59.098518732321" lon="17.954801940628">
        <ele>9.6</ele>
        <time>2016-04-10T13:58:04Z</time>
      </trkpt>
      <trkpt lat="59.098439858642" lon="17.954457528357">
        <ele>9.6</ele>
        <time>2016-04-10T13:58:07Z</time>
      </trkpt>
      <trkpt lat="59.098307508441" lon="17.953806925279">
        <ele>9.6</ele>
        <time>2016-04-10T13:58:12Z</time>
      </trkpt>
      <trkpt lat="59.098125118297" lon="17.952983990337">
        <ele>9.6</ele>
        <time>2016-04-10T13:58:18Z</time>
      </trkpt>
      <trkpt lat="59.097942057601" lon="17.952384684487">
        <ele>9.6</ele>
        <time>2016-04-10T13:58:23Z</time>
      </trkpt>
      <trkpt lat="59.09781976568" lon="17.951989058807">
        <ele>9.2</ele>
        <time>2016-04-10T13:58:26Z</time>
      </trkpt>
      <trkpt lat="59.097782633863" lon="17.951847572335">
        <ele>8.8</ele>
        <time>2016-04-10T13:58:27Z</time>
      </trkpt>
      <trkpt lat="59.097753464851" lon="17.951707846062">
        <ele>8.2</ele>
        <time>2016-04-10T13:58:28Z</time>
      </trkpt>
      <trkpt lat="59.097726558952" lon="17.95156971235">
        <ele>7.8</ele>
        <time>2016-04-10T13:58:29Z</time>
      </trkpt>
      <trkpt lat="59.097700155967" lon="17.95143308738">
        <ele>7.4</ele>
        <time>2016-04-10T13:58:30Z</time>
      </trkpt>
      <trkpt lat="59.097643326685" lon="17.951190347556">
        <ele>7.4</ele>
        <time>2016-04-10T13:58:32Z</time>
      </trkpt>
      <trkpt lat="59.09760770361" lon="17.951077024268">
        <ele>8</ele>
        <time>2016-04-10T13:58:33Z</time>
      </trkpt>
      <trkpt lat="59.097568476318" lon="17.95096537736">
        <ele>8.4</ele>
        <time>2016-04-10T13:58:34Z</time>
      </trkpt>
      <trkpt lat="59.097526231542" lon="17.950848701312">
        <ele>8.8</ele>
        <time>2016-04-10T13:58:35Z</time>
      </trkpt>
      <trkpt lat="59.097485160232" lon="17.950738479327">
        <ele>9.4</ele>
        <time>2016-04-10T13:58:36Z</time>
      </trkpt>
      <trkpt lat="59.097441490533" lon="17.95062591041">
        <ele>9.8</ele>
        <time>2016-04-10T13:58:37Z</time>
      </trkpt>
      <trkpt lat="59.09730763159" lon="17.95029314898">
        <ele>9.8</ele>
        <time>2016-04-10T13:58:40Z</time>
      </trkpt>
      <trkpt lat="59.097007978665" lon="17.949630811242">
        <ele>9.8</ele>
        <time>2016-04-10T13:58:46Z</time>
      </trkpt>
      <trkpt lat="59.096791641826" lon="17.94911465384">
        <ele>9.4</ele>
        <time>2016-04-10T13:58:50Z</time>
      </trkpt>
      <trkpt lat="59.0967368242" lon="17.948996804326">
        <ele>9</ele>
        <time>2016-04-10T13:58:51Z</time>
      </trkpt>
      <trkpt lat="59.096684269687" lon="17.948879206269">
        <ele>8.6</ele>
        <time>2016-04-10T13:58:52Z</time>
      </trkpt>
      <trkpt lat="59.096626937491" lon="17.948775857442">
        <ele>8.2</ele>
        <time>2016-04-10T13:58:53Z</time>
      </trkpt>
      <trkpt lat="59.09656331887" lon="17.948685081465">
        <ele>7.8</ele>
        <time>2016-04-10T13:58:54Z</time>
      </trkpt>
      <trkpt lat="59.096496431308" lon="17.948612158935">
        <ele>7.8</ele>
        <time>2016-04-10T13:58:55Z</time>
      </trkpt>
      <trkpt lat="59.096370283713" lon="17.948455082129">
        <ele>7.8</ele>
        <time>2016-04-10T13:58:57Z</time>
      </trkpt>
      <trkpt lat="59.096251596009" lon="17.948221562395">
        <ele>7.8</ele>
        <time>2016-04-10T13:58:59Z</time>
      </trkpt>
      <trkpt lat="59.096201639885" lon="17.947922663841">
        <ele>7.4</ele>
        <time>2016-04-10T13:59:01Z</time>
      </trkpt>
      <trkpt lat="59.096214464192" lon="17.947727197933">
        <ele>6</ele>
        <time>2016-04-10T13:59:02Z</time>
      </trkpt>
      <trkpt lat="59.096226701766" lon="17.94752041646">
        <ele>5.2</ele>
        <time>2016-04-10T13:59:03Z</time>
      </trkpt>
      <trkpt lat="59.096225863576" lon="17.947316401014">
        <ele>4.6</ele>
        <time>2016-04-10T13:59:04Z</time>
      </trkpt>
      <trkpt lat="59.096220834436" lon="17.947114145767">
        <ele>3.8</ele>
        <time>2016-04-10T13:59:05Z</time>
      </trkpt>
      <trkpt lat="59.096217816952" lon="17.946903927715">
        <ele>3</ele>
        <time>2016-04-10T13:59:06Z</time>
      </trkpt>
      <trkpt lat="59.096225947395" lon="17.946708126531">
        <ele>3</ele>
        <time>2016-04-10T13:59:07Z</time>
      </trkpt>
      <trkpt lat="59.096255367864" lon="17.946299341268">
        <ele>3</ele>
        <time>2016-04-10T13:59:09Z</time>
      </trkpt>
      <trkpt lat="59.096241370091" lon="17.945876474413">
        <ele>2.6</ele>
        <time>2016-04-10T13:59:11Z</time>
      </trkpt>
      <trkpt lat="59.096204489731" lon="17.945686708197">
        <ele>2</ele>
        <time>2016-04-10T13:59:12Z</time>
      </trkpt>
      <trkpt lat="59.096146319345" lon="17.945514543971">
        <ele>1.6</ele>
        <time>2016-04-10T13:59:13Z</time>
      </trkpt>
      <trkpt lat="59.096082113991" lon="17.945343301754">
        <ele>1</ele>
        <time>2016-04-10T13:59:14Z</time>
      </trkpt>
      <trkpt lat="59.096018998284" lon="17.945185722034">
        <ele>0.6</ele>
        <time>2016-04-10T13:59:15Z</time>
      </trkpt>
      <trkpt lat="59.095908441023" lon="17.944859917581">
        <ele>0.2</ele>
        <time>2016-04-10T13:59:17Z</time>
      </trkpt>
      <trkpt lat="59.095862424392" lon="17.944697727816">
        <ele>0</ele>
        <time>2016-04-10T13:59:18Z</time>
      </trkpt>
      <trkpt lat="59.095824119109" lon="17.944532436748">
        <ele>0</ele>
        <time>2016-04-10T13:59:19Z</time>
      </trkpt>
      <trkpt lat="59.095800482151" lon="17.944370666078">
        <ele>0</ele>
        <time>2016-04-10T13:59:20Z</time>
      </trkpt>
      <trkpt lat="59.095773911528" lon="17.944220294792">
        <ele>0</ele>
        <time>2016-04-10T13:59:21Z</time>
      </trkpt>
      <trkpt lat="59.095740132471" lon="17.944096242672">
        <ele>0</ele>
        <time>2016-04-10T13:59:22Z</time>
      </trkpt>
      <trkpt lat="59.095695456944" lon="17.944010998749">
        <ele>0.6</ele>
        <time>2016-04-10T13:59:23Z</time>
      </trkpt>
      <trkpt lat="59.095642064241" lon="17.943934723459">
        <ele>1.4</ele>
        <time>2016-04-10T13:59:24Z</time>
      </trkpt>
      <trkpt lat="59.095579619086" lon="17.943881917489">
        <ele>2.2</ele>
        <time>2016-04-10T13:59:25Z</time>
      </trkpt>
      <trkpt lat="59.095510384592" lon="17.943834643573">
        <ele>3</ele>
        <time>2016-04-10T13:59:26Z</time>
      </trkpt>
      <trkpt lat="59.095451124559" lon="17.943788710761">
        <ele>3.8</ele>
        <time>2016-04-10T13:59:27Z</time>
      </trkpt>
      <trkpt lat="59.095388344128" lon="17.943759541749">
        <ele>3.8</ele>
        <time>2016-04-10T13:59:28Z</time>
      </trkpt>
      <trkpt lat="59.095328078267" lon="17.943722661389">
        <ele>3.8</ele>
        <time>2016-04-10T13:59:29Z</time>
      </trkpt>
      <trkpt lat="59.095193045858" lon="17.943631550136">
        <ele>4.4</ele>
        <time>2016-04-10T13:59:31Z</time>
      </trkpt>
      <trkpt lat="59.095131271255" lon="17.943586623152">
        <ele>4.8</ele>
        <time>2016-04-10T13:59:32Z</time>
      </trkpt>
      <trkpt lat="59.095082656235" lon="17.943556448312">
        <ele>5.4</ele>
        <time>2016-04-10T13:59:33Z</time>
      </trkpt>
      <trkpt lat="59.095034041215" lon="17.94351386826">
        <ele>5.8</ele>
        <time>2016-04-10T13:59:34Z</time>
      </trkpt>
      <trkpt lat="59.094980397055" lon="17.943468103086">
        <ele>6.4</ele>
        <time>2016-04-10T13:59:35Z</time>
      </trkpt>
      <trkpt lat="59.094873108735" lon="17.943374393444">
        <ele>6.8</ele>
        <time>2016-04-10T13:59:37Z</time>
      </trkpt>
      <trkpt lat="59.094811585589" lon="17.943314043764">
        <ele>7.2</ele>
        <time>2016-04-10T13:59:38Z</time>
      </trkpt>
      <trkpt lat="59.094753079927" lon="17.943242462338">
        <ele>7.6</ele>
        <time>2016-04-10T13:59:39Z</time>
      </trkpt>
      <trkpt lat="59.094699938681" lon="17.943168198704">
        <ele>8</ele>
        <time>2016-04-10T13:59:40Z</time>
      </trkpt>
      <trkpt lat="59.094652497127" lon="17.943081948953">
        <ele>8.4</ele>
        <time>2016-04-10T13:59:41Z</time>
      </trkpt>
      <trkpt lat="59.094565576824" lon="17.942885058122">
        <ele>8.4</ele>
        <time>2016-04-10T13:59:43Z</time>
      </trkpt>
      <trkpt lat="59.094484272394" lon="17.942567970845">
        <ele>8.4</ele>
        <time>2016-04-10T13:59:46Z</time>
      </trkpt>
      <trkpt lat="59.094456779762" lon="17.942471914271">
        <ele>8.4</ele>
        <time>2016-04-10T13:59:47Z</time>
      </trkpt>
      <trkpt lat="59.09433205709" lon="17.942068996338">
        <ele>8.4</ele>
        <time>2016-04-10T13:59:51Z</time>
      </trkpt>
      <trkpt lat="59.094087808524" lon="17.941434151232">
        <ele>8.4</ele>
        <time>2016-04-10T13:59:57Z</time>
      </trkpt>
      <trkpt lat="59.094003151334" lon="17.941218233488">
        <ele>8.4</ele>
        <time>2016-04-10T13:59:59Z</time>
      </trkpt>
      <trkpt lat="59.093918997058" lon="17.941003992124">
        <ele>8.4</ele>
        <time>2016-04-10T14:00:01Z</time>
      </trkpt>
      <trkpt lat="59.093607693292" lon="17.940227492908">
        <ele>8.4</ele>
        <time>2016-04-10T14:00:08Z</time>
      </trkpt>
      <trkpt lat="59.093557820987" lon="17.940088353368">
        <ele>7.8</ele>
        <time>2016-04-10T14:00:09Z</time>
      </trkpt>
      <trkpt lat="59.093501997533" lon="17.939947453629">
        <ele>7.2</ele>
        <time>2016-04-10T14:00:10Z</time>
      </trkpt>
      <trkpt lat="59.093451873771" lon="17.939796411791">
        <ele>6.2</ele>
        <time>2016-04-10T14:00:11Z</time>
      </trkpt>
      <trkpt lat="59.09340501895" lon="17.93963723951">
        <ele>5.2</ele>
        <time>2016-04-10T14:00:12Z</time>
      </trkpt>
      <trkpt lat="59.093361097794" lon="17.939473541003">
        <ele>4.2</ele>
        <time>2016-04-10T14:00:13Z</time>
      </trkpt>
      <trkpt lat="59.093312398955" lon="17.939303304614">
        <ele>3.4</ele>
        <time>2016-04-10T14:00:14Z</time>
      </trkpt>
      <trkpt lat="59.093265711772" lon="17.939137762089">
        <ele>2.6</ele>
        <time>2016-04-10T14:00:15Z</time>
      </trkpt>
      <trkpt lat="59.093221539159" lon="17.938973141573">
        <ele>1</ele>
        <time>2016-04-10T14:00:16Z</time>
      </trkpt>
      <trkpt lat="59.093178623831" lon="17.938812795826">
        <ele>0.4</ele>
        <time>2016-04-10T14:00:17Z</time>
      </trkpt>
      <trkpt lat="59.092963963372" lon="17.9380371348">
        <ele>0.4</ele>
        <time>2016-04-10T14:00:22Z</time>
      </trkpt>
      <trkpt lat="59.092922808243" lon="17.937880477089">
        <ele>0.4</ele>
        <time>2016-04-10T14:00:23Z</time>
      </trkpt>
      <trkpt lat="59.092804539634" lon="17.937305730206">
        <ele>0.4</ele>
        <time>2016-04-10T14:00:27Z</time>
      </trkpt>
      <trkpt lat="59.092783417246" lon="17.937189389434">
        <ele>0.8</ele>
        <time>2016-04-10T14:00:28Z</time>
      </trkpt>
      <trkpt lat="59.092762462496" lon="17.937072545748">
        <ele>1.2</ele>
        <time>2016-04-10T14:00:29Z</time>
      </trkpt>
      <trkpt lat="59.092744776687" lon="17.936969699835">
        <ele>2</ele>
        <time>2016-04-10T14:00:30Z</time>
      </trkpt>
      <trkpt lat="59.092725665955" lon="17.936867440655">
        <ele>2.6</ele>
        <time>2016-04-10T14:00:31Z</time>
      </trkpt>
      <trkpt lat="59.092703370101" lon="17.93676392419">
        <ele>3.4</ele>
        <time>2016-04-10T14:00:32Z</time>
      </trkpt>
      <trkpt lat="59.09268249917" lon="17.936656216775">
        <ele>4</ele>
        <time>2016-04-10T14:00:33Z</time>
      </trkpt>
      <trkpt lat="59.092664394266" lon="17.936546246247">
        <ele>4.8</ele>
        <time>2016-04-10T14:00:34Z</time>
      </trkpt>
      <trkpt lat="59.092605134233" lon="17.936197391569">
        <ele>5.2</ele>
        <time>2016-04-10T14:00:37Z</time>
      </trkpt>
      <trkpt lat="59.0925877837" lon="17.936083146272">
        <ele>5.6</ele>
        <time>2016-04-10T14:00:38Z</time>
      </trkpt>
      <trkpt lat="59.092573618289" lon="17.93596596731">
        <ele>6.2</ele>
        <time>2016-04-10T14:00:39Z</time>
      </trkpt>
      <trkpt lat="59.092558866145" lon="17.935850213271">
        <ele>6.6</ele>
        <time>2016-04-10T14:00:40Z</time>
      </trkpt>
      <trkpt lat="59.092538581947" lon="17.935734375413">
        <ele>7</ele>
        <time>2016-04-10T14:00:41Z</time>
      </trkpt>
      <trkpt lat="59.092497007723" lon="17.93550747738">
        <ele>7</ele>
        <time>2016-04-10T14:00:43Z</time>
      </trkpt>
      <trkpt lat="59.092349821559" lon="17.93503809098">
        <ele>7</ele>
        <time>2016-04-10T14:00:47Z</time>
      </trkpt>
      <trkpt lat="59.092143543" lon="17.934465355753">
        <ele>7</ele>
        <time>2016-04-10T14:00:52Z</time>
      </trkpt>
      <trkpt lat="59.091867527033" lon="17.933772843175">
        <ele>7</ele>
        <time>2016-04-10T14:00:58Z</time>
      </trkpt>
      <trkpt lat="59.091542644589" lon="17.933134896766">
        <ele>7</ele>
        <time>2016-04-10T14:01:04Z</time>
      </trkpt>
      <trkpt lat="59.091494281026" lon="17.933033643414">
        <ele>6.6</ele>
        <time>2016-04-10T14:01:05Z</time>
      </trkpt>
      <trkpt lat="59.09144281616" lon="17.932924930171">
        <ele>5.8</ele>
        <time>2016-04-10T14:01:06Z</time>
      </trkpt>
      <trkpt lat="59.09139336295" lon="17.932816300747">
        <ele>5.4</ele>
        <time>2016-04-10T14:01:07Z</time>
      </trkpt>
      <trkpt lat="59.091343742102" lon="17.932706330219">
        <ele>5</ele>
        <time>2016-04-10T14:01:08Z</time>
      </trkpt>
      <trkpt lat="59.091295462358" lon="17.932592839293">
        <ele>5</ele>
        <time>2016-04-10T14:01:09Z</time>
      </trkpt>
      <trkpt lat="59.091094045301" lon="17.931957658911">
        <ele>5</ele>
        <time>2016-04-10T14:01:14Z</time>
      </trkpt>
      <trkpt lat="59.091065211565" lon="17.931814998973">
        <ele>5</ele>
        <time>2016-04-10T14:01:15Z</time>
      </trkpt>
      <trkpt lat="59.09091056551" lon="17.930951747092">
        <ele>5</ele>
        <time>2016-04-10T14:01:21Z</time>
      </trkpt>
      <trkpt lat="59.090733120687" lon="17.929892023475">
        <ele>5</ele>
        <time>2016-04-10T14:01:28Z</time>
      </trkpt>
      <trkpt lat="59.09071191448" lon="17.929742993293">
        <ele>5</ele>
        <time>2016-04-10T14:01:29Z</time>
      </trkpt>
      <trkpt lat="59.090640416873" lon="17.929288275218">
        <ele>4.6</ele>
        <time>2016-04-10T14:01:32Z</time>
      </trkpt>
      <trkpt lat="59.090614265345" lon="17.929137401018">
        <ele>4</ele>
        <time>2016-04-10T14:01:33Z</time>
      </trkpt>
      <trkpt lat="59.090587610903" lon="17.928984431343">
        <ele>3.6</ele>
        <time>2016-04-10T14:01:34Z</time>
      </trkpt>
      <trkpt lat="59.090560621185" lon="17.928829198555">
        <ele>3.2</ele>
        <time>2016-04-10T14:01:35Z</time>
      </trkpt>
      <trkpt lat="59.090531368354" lon="17.928668182256">
        <ele>2.8</ele>
        <time>2016-04-10T14:01:36Z</time>
      </trkpt>
      <trkpt lat="59.090500774419" lon="17.928514542029">
        <ele>2.8</ele>
        <time>2016-04-10T14:01:37Z</time>
      </trkpt>
      <trkpt lat="59.090471856864" lon="17.928363248734">
        <ele>2.4</ele>
        <time>2016-04-10T14:01:38Z</time>
      </trkpt>
      <trkpt lat="59.090443358404" lon="17.928210781973">
        <ele>2</ele>
        <time>2016-04-10T14:01:39Z</time>
      </trkpt>
      <trkpt lat="59.090418631799" lon="17.928059237221">
        <ele>1.6</ele>
        <time>2016-04-10T14:01:40Z</time>
      </trkpt>
      <trkpt lat="59.090395246298" lon="17.927904758804">
        <ele>1.2</ele>
        <time>2016-04-10T14:01:41Z</time>
      </trkpt>
      <trkpt lat="59.090372363711" lon="17.927743658686">
        <ele>0.8</ele>
        <time>2016-04-10T14:01:42Z</time>
      </trkpt>
      <trkpt lat="59.090330035116" lon="17.92739379818">
        <ele>0.2</ele>
        <time>2016-04-10T14:01:44Z</time>
      </trkpt>
      <trkpt lat="59.090315618248" lon="17.92721358733">
        <ele>0</ele>
        <time>2016-04-10T14:01:45Z</time>
      </trkpt>
      <trkpt lat="59.090314277144" lon="17.927029604625">
        <ele>0</ele>
        <time>2016-04-10T14:01:46Z</time>
      </trkpt>
      <trkpt lat="59.090325844166" lon="17.926846543929">
        <ele>0</ele>
        <time>2016-04-10T14:01:47Z</time>
      </trkpt>
      <trkpt lat="59.09034646364" lon="17.926662980319">
        <ele>0</ele>
        <time>2016-04-10T14:01:48Z</time>
      </trkpt>
      <trkpt lat="59.09052248354" lon="17.92601413744">
        <ele>0</ele>
        <time>2016-04-10T14:01:52Z</time>
      </trkpt>
      <trkpt lat="59.090757344378" lon="17.925795537488">
        <ele>0</ele>
        <time>2016-04-10T14:01:55Z</time>
      </trkpt>
      <trkpt lat="59.090930514432" lon="17.92572663827">
        <ele>0</ele>
        <time>2016-04-10T14:01:57Z</time>
      </trkpt>
      <trkpt lat="59.091179540681" lon="17.925613566439">
        <ele>0</ele>
        <time>2016-04-10T14:02:00Z</time>
      </trkpt>
      <trkpt lat="59.091251122107" lon="17.925572830405">
        <ele>0</ele>
        <time>2016-04-10T14:02:01Z</time>
      </trkpt>
      <trkpt lat="59.091323206447" lon="17.925516168761">
        <ele>0</ele>
        <time>2016-04-10T14:02:02Z</time>
      </trkpt>
      <trkpt lat="59.09139252476" lon="17.925449281199">
        <ele>0.4</ele>
        <time>2016-04-10T14:02:03Z</time>
      </trkpt>
      <trkpt lat="59.091458406494" lon="17.925368898778">
        <ele>0.8</ele>
        <time>2016-04-10T14:02:04Z</time>
      </trkpt>
      <trkpt lat="59.091691507133" lon="17.924881407474">
        <ele>0.8</ele>
        <time>2016-04-10T14:02:08Z</time>
      </trkpt>
      <trkpt lat="59.091907592515" lon="17.924195516597">
        <ele>0.8</ele>
        <time>2016-04-10T14:02:13Z</time>
      </trkpt>
      <trkpt lat="59.092109512486" lon="17.923397056803">
        <ele>0.8</ele>
        <time>2016-04-10T14:02:19Z</time>
      </trkpt>
      <trkpt lat="59.09217539422" lon="17.923158843205">
        <ele>0.8</ele>
        <time>2016-04-10T14:02:21Z</time>
      </trkpt>
      <trkpt lat="59.092250496044" lon="17.922968741713">
        <ele>1.2</ele>
        <time>2016-04-10T14:02:23Z</time>
      </trkpt>
      <trkpt lat="59.092283604549" lon="17.922876205537">
        <ele>1.8</ele>
        <time>2016-04-10T14:02:24Z</time>
      </trkpt>
      <trkpt lat="59.092313611751" lon="17.92278459137">
        <ele>2.2</ele>
        <time>2016-04-10T14:02:25Z</time>
      </trkpt>
      <trkpt lat="59.092340350012" lon="17.922696078506">
        <ele>2.6</ele>
        <time>2016-04-10T14:02:26Z</time>
      </trkpt>
      <trkpt lat="59.092366250083" lon="17.92261024785">
        <ele>3</ele>
        <time>2016-04-10T14:02:27Z</time>
      </trkpt>
      <trkpt lat="59.092386953376" lon="17.922529278696">
        <ele>3</ele>
        <time>2016-04-10T14:02:28Z</time>
      </trkpt>
      <trkpt lat="59.092402962805" lon="17.922451662302">
        <ele>3.6</ele>
        <time>2016-04-10T14:02:29Z</time>
      </trkpt>
      <trkpt lat="59.092410422696" lon="17.922371112243">
        <ele>4.2</ele>
        <time>2016-04-10T14:02:30Z</time>
      </trkpt>
      <trkpt lat="59.092410506515" lon="17.922278743705">
        <ele>4.6</ele>
        <time>2016-04-10T14:02:31Z</time>
      </trkpt>
      <trkpt lat="59.092406147927" lon="17.922192577773">
        <ele>5.2</ele>
        <time>2016-04-10T14:02:32Z</time>
      </trkpt>
      <trkpt lat="59.092395922009" lon="17.922110518972">
        <ele>5.8</ele>
        <time>2016-04-10T14:02:33Z</time>
      </trkpt>
      <trkpt lat="59.092343954229" lon="17.921910945933">
        <ele>6.2</ele>
        <time>2016-04-10T14:02:36Z</time>
      </trkpt>
      <trkpt lat="59.09232123928" lon="17.921852859366">
        <ele>6.6</ele>
        <time>2016-04-10T14:02:37Z</time>
      </trkpt>
      <trkpt lat="59.092300955082" lon="17.921802987061">
        <ele>7</ele>
        <time>2016-04-10T14:02:38Z</time>
      </trkpt>
      <trkpt lat="59.092279581237" lon="17.92175529405">
        <ele>7.4</ele>
        <time>2016-04-10T14:02:39Z</time>
      </trkpt>
      <trkpt lat="59.09225669865" lon="17.921710115609">
        <ele>7.8</ele>
        <time>2016-04-10T14:02:40Z</time>
      </trkpt>
      <trkpt lat="59.092218225729" lon="17.921631325749">
        <ele>8.2</ele>
        <time>2016-04-10T14:02:42Z</time>
      </trkpt>
      <trkpt lat="59.092198109169" lon="17.921601402366">
        <ele>8.6</ele>
        <time>2016-04-10T14:02:43Z</time>
      </trkpt>
      <trkpt lat="59.092176567686" lon="17.921571395164">
        <ele>9.4</ele>
        <time>2016-04-10T14:02:44Z</time>
      </trkpt>
      <trkpt lat="59.092157624592" lon="17.921543148161">
        <ele>9.8</ele>
        <time>2016-04-10T14:02:45Z</time>
      </trkpt>
      <trkpt lat="59.092091994315" lon="17.921458239514">
        <ele>10.2</ele>
        <time>2016-04-10T14:02:48Z</time>
      </trkpt>
      <trkpt lat="59.09206978228" lon="17.921434686375">
        <ele>10.6</ele>
        <time>2016-04-10T14:02:49Z</time>
      </trkpt>
      <trkpt lat="59.092046564417" lon="17.921407026105">
        <ele>11</ele>
        <time>2016-04-10T14:02:50Z</time>
      </trkpt>
      <trkpt lat="59.092019993794" lon="17.921385484622">
        <ele>11.4</ele>
        <time>2016-04-10T14:02:51Z</time>
      </trkpt>
      <trkpt lat="59.091995015732" lon="17.921368134089">
        <ele>11.8</ele>
        <time>2016-04-10T14:02:52Z</time>
      </trkpt>
      <trkpt lat="59.091929301636" lon="17.921284482727">
        <ele>12.4</ele>
        <time>2016-04-10T14:02:55Z</time>
      </trkpt>
      <trkpt lat="59.091910358542" lon="17.921266796918">
        <ele>12.8</ele>
        <time>2016-04-10T14:02:56Z</time>
      </trkpt>
      <trkpt lat="59.091888984697" lon="17.921246177444">
        <ele>13.2</ele>
        <time>2016-04-10T14:02:57Z</time>
      </trkpt>
      <trkpt lat="59.091869790146" lon="17.921224971237">
        <ele>13.6</ele>
        <time>2016-04-10T14:02:58Z</time>
      </trkpt>
      <trkpt lat="59.091851266147" lon="17.92120711779">
        <ele>14</ele>
        <time>2016-04-10T14:02:59Z</time>
      </trkpt>
      <trkpt lat="59.091786390241" lon="17.921164537738">
        <ele>14</ele>
        <time>2016-04-10T14:03:02Z</time>
      </trkpt>
      <trkpt lat="59.091714557358" lon="17.921122879695">
        <ele>14.4</ele>
        <time>2016-04-10T14:03:05Z</time>
      </trkpt>
      <trkpt lat="59.091689998391" lon="17.92111156413">
        <ele>15</ele>
        <time>2016-04-10T14:03:06Z</time>
      </trkpt>
      <trkpt lat="59.091663427768" lon="17.921089184457">
        <ele>15.4</ele>
        <time>2016-04-10T14:03:07Z</time>
      </trkpt>
      <trkpt lat="59.091632498557" lon="17.921064960766">
        <ele>15.8</ele>
        <time>2016-04-10T14:03:08Z</time>
      </trkpt>
      <trkpt lat="59.091601988441" lon="17.921029170053">
        <ele>16.2</ele>
        <time>2016-04-10T14:03:09Z</time>
      </trkpt>
      <trkpt lat="59.091523617676" lon="17.920876703292">
        <ele>16.2</ele>
        <time>2016-04-10T14:03:13Z</time>
      </trkpt>
      <trkpt lat="59.091486066764" lon="17.920755165742">
        <ele>16.2</ele>
        <time>2016-04-10T14:03:16Z</time>
      </trkpt>
      <trkpt lat="59.091446671834" lon="17.920631197441">
        <ele>16.2</ele>
        <time>2016-04-10T14:03:18Z</time>
      </trkpt>
      <trkpt lat="59.091380538643" lon="17.920465906373">
        <ele>16.2</ele>
        <time>2016-04-10T14:03:20Z</time>
      </trkpt>
      <trkpt lat="59.091321949162" lon="17.920298436011">
        <ele>16.2</ele>
        <time>2016-04-10T14:03:22Z</time>
      </trkpt>
      <trkpt lat="59.091168141297" lon="17.919785379912">
        <ele>16.2</ele>
        <time>2016-04-10T14:03:28Z</time>
      </trkpt>
      <trkpt lat="59.091121705571" lon="17.919616400808">
        <ele>16.6</ele>
        <time>2016-04-10T14:03:30Z</time>
      </trkpt>
      <trkpt lat="59.091104438857" lon="17.919546914857">
        <ele>17.2</ele>
        <time>2016-04-10T14:03:31Z</time>
      </trkpt>
      <trkpt lat="59.09109077636" lon="17.919483212417">
        <ele>17.6</ele>
        <time>2016-04-10T14:03:32Z</time>
      </trkpt>
      <trkpt lat="59.091078287329" lon="17.919419007063">
        <ele>18</ele>
        <time>2016-04-10T14:03:33Z</time>
      </trkpt>
      <trkpt lat="59.091067977592" lon="17.919368883301">
        <ele>18.8</ele>
        <time>2016-04-10T14:03:34Z</time>
      </trkpt>
      <trkpt lat="59.09105892514" lon="17.919329153095">
        <ele>19.4</ele>
        <time>2016-04-10T14:03:35Z</time>
      </trkpt>
      <trkpt lat="59.091051129973" lon="17.919292188916">
        <ele>19.8</ele>
        <time>2016-04-10T14:03:36Z</time>
      </trkpt>
      <trkpt lat="59.091048447765" lon="17.919256314384">
        <ele>20.2</ele>
        <time>2016-04-10T14:03:37Z</time>
      </trkpt>
      <trkpt lat="59.091041406969" lon="17.919214656341">
        <ele>20.6</ele>
        <time>2016-04-10T14:03:38Z</time>
      </trkpt>
      <trkpt lat="59.09101785383" lon="17.919108625306">
        <ele>21</ele>
        <time>2016-04-10T14:03:40Z</time>
      </trkpt>
      <trkpt lat="59.09100611917" lon="17.919053556223">
        <ele>21.4</ele>
        <time>2016-04-10T14:03:41Z</time>
      </trkpt>
      <trkpt lat="59.090994552148" lon="17.919005025022">
        <ele>21.8</ele>
        <time>2016-04-10T14:03:42Z</time>
      </trkpt>
      <trkpt lat="59.090984829144" lon="17.918963953712">
        <ele>22.2</ele>
        <time>2016-04-10T14:03:43Z</time>
      </trkpt>
      <trkpt lat="59.090972843027" lon="17.91891382995">
        <ele>22.6</ele>
        <time>2016-04-10T14:03:44Z</time>
      </trkpt>
      <trkpt lat="59.090930598251" lon="17.918795309884">
        <ele>23.2</ele>
        <time>2016-04-10T14:03:46Z</time>
      </trkpt>
      <trkpt lat="59.090911990433" lon="17.918734289652">
        <ele>23.6</ele>
        <time>2016-04-10T14:03:47Z</time>
      </trkpt>
      <trkpt lat="59.09089380171" lon="17.918671928316">
        <ele>24</ele>
        <time>2016-04-10T14:03:48Z</time>
      </trkpt>
      <trkpt lat="59.090872260227" lon="17.91861208155">
        <ele>24.4</ele>
        <time>2016-04-10T14:03:49Z</time>
      </trkpt>
      <trkpt lat="59.090850634925" lon="17.918549049662">
        <ele>24.8</ele>
        <time>2016-04-10T14:03:50Z</time>
      </trkpt>
      <trkpt lat="59.090781819526" lon="17.918352913202">
        <ele>24.8</ele>
        <time>2016-04-10T14:03:53Z</time>
      </trkpt>
      <trkpt lat="59.090684589486" lon="17.918092906664">
        <ele>25.2</ele>
        <time>2016-04-10T14:03:57Z</time>
      </trkpt>
      <trkpt lat="59.090660617252" lon="17.918031802613">
        <ele>26.2</ele>
        <time>2016-04-10T14:03:58Z</time>
      </trkpt>
      <trkpt lat="59.090633376077" lon="17.917955946418">
        <ele>26.6</ele>
        <time>2016-04-10T14:03:59Z</time>
      </trkpt>
      <trkpt lat="59.090605212893" lon="17.917872043599">
        <ele>27</ele>
        <time>2016-04-10T14:04:00Z</time>
      </trkpt>
      <trkpt lat="59.090536229856" lon="17.917496366841">
        <ele>27</ele>
        <time>2016-04-10T14:04:04Z</time>
      </trkpt>
      <trkpt lat="59.090521561531" lon="17.917392682738">
        <ele>27</ele>
        <time>2016-04-10T14:04:05Z</time>
      </trkpt>
      <trkpt lat="59.090457188539" lon="17.917064028439">
        <ele>27</ele>
        <time>2016-04-10T14:04:08Z</time>
      </trkpt>
      <trkpt lat="59.090382757267" lon="17.916874094585">
        <ele>27</ele>
        <time>2016-04-10T14:04:10Z</time>
      </trkpt>
      <trkpt lat="59.090308577452" lon="17.916727327516">
        <ele>27</ele>
        <time>2016-04-10T14:04:12Z</time>
      </trkpt>
      <trkpt lat="59.090225261366" lon="17.916611154382">
        <ele>27</ele>
        <time>2016-04-10T14:04:14Z</time>
      </trkpt>
      <trkpt lat="59.090080003039" lon="17.916403953814">
        <ele>26.6</ele>
        <time>2016-04-10T14:04:17Z</time>
      </trkpt>
      <trkpt lat="59.090029292544" lon="17.916322314108">
        <ele>26.2</ele>
        <time>2016-04-10T14:04:18Z</time>
      </trkpt>
      <trkpt lat="59.089988640329" lon="17.916241764049">
        <ele>25.6</ele>
        <time>2016-04-10T14:04:19Z</time>
      </trkpt>
      <trkpt lat="59.089937259282" lon="17.916163812379">
        <ele>25.2</ele>
        <time>2016-04-10T14:04:20Z</time>
      </trkpt>
      <trkpt lat="59.089892248479" lon="17.916073706954">
        <ele>24.8</ele>
        <time>2016-04-10T14:04:21Z</time>
      </trkpt>
      <trkpt lat="59.089850590436" lon="17.915994162723">
        <ele>24.8</ele>
        <time>2016-04-10T14:04:22Z</time>
      </trkpt>
      <trkpt lat="59.089807675108" lon="17.915901626547">
        <ele>24.8</ele>
        <time>2016-04-10T14:04:23Z</time>
      </trkpt>
      <trkpt lat="59.089774398965" lon="17.915825015981">
        <ele>24.2</ele>
        <time>2016-04-10T14:04:24Z</time>
      </trkpt>
      <trkpt lat="59.089738608252" lon="17.915739017687">
        <ele>23.8</ele>
        <time>2016-04-10T14:04:25Z</time>
      </trkpt>
      <trkpt lat="59.089700386788" lon="17.915663412949">
        <ele>23</ele>
        <time>2016-04-10T14:04:26Z</time>
      </trkpt>
      <trkpt lat="59.089658812564" lon="17.915590071324">
        <ele>22.2</ele>
        <time>2016-04-10T14:04:27Z</time>
      </trkpt>
      <trkpt lat="59.089608353526" lon="17.915518741355">
        <ele>21.2</ele>
        <time>2016-04-10T14:04:28Z</time>
      </trkpt>
      <trkpt lat="59.089530820951" lon="17.915429809396">
        <ele>20.2</ele>
        <time>2016-04-10T14:04:29Z</time>
      </trkpt>
      <trkpt lat="59.089424203183" lon="17.915321263791">
        <ele>19.4</ele>
        <time>2016-04-10T14:04:30Z</time>
      </trkpt>
      <trkpt lat="59.089315070845" lon="17.915206767037">
        <ele>18.6</ele>
        <time>2016-04-10T14:04:31Z</time>
      </trkpt>
      <trkpt lat="59.089200909367" lon="17.915073997741">
        <ele>17.8</ele>
        <time>2016-04-10T14:04:32Z</time>
      </trkpt>
      <trkpt lat="59.08909923692" lon="17.914919519324">
        <ele>16.6</ele>
        <time>2016-04-10T14:04:33Z</time>
      </trkpt>
      <trkpt lat="59.089013322445" lon="17.914768226029">
        <ele>15.6</ele>
        <time>2016-04-10T14:04:34Z</time>
      </trkpt>
      <trkpt lat="59.088936292784" lon="17.914626404281">
        <ele>14.6</ele>
        <time>2016-04-10T14:04:35Z</time>
      </trkpt>
      <trkpt lat="59.088860688046" lon="17.914462538136">
        <ele>13.6</ele>
        <time>2016-04-10T14:04:36Z</time>
      </trkpt>
      <trkpt lat="59.088788184611" lon="17.914275370309">
        <ele>12.8</ele>
        <time>2016-04-10T14:04:37Z</time>
      </trkpt>
      <trkpt lat="59.088707047819" lon="17.914063392058">
        <ele>12.2</ele>
        <time>2016-04-10T14:04:38Z</time>
      </trkpt>
      <trkpt lat="59.088638651515" lon="17.913856442947">
        <ele>11.6</ele>
        <time>2016-04-10T14:04:39Z</time>
      </trkpt>
      <trkpt lat="59.088573272695" lon="17.913644632334">
        <ele>11</ele>
        <time>2016-04-10T14:04:40Z</time>
      </trkpt>
      <trkpt lat="59.088502697097" lon="17.913431564436">
        <ele>10.2</ele>
        <time>2016-04-10T14:04:41Z</time>
      </trkpt>
      <trkpt lat="59.088441341589" lon="17.913223777135">
        <ele>10.2</ele>
        <time>2016-04-10T14:04:42Z</time>
      </trkpt>
      <trkpt lat="59.088235398306" lon="17.912237227505">
        <ele>10.2</ele>
        <time>2016-04-10T14:04:47Z</time>
      </trkpt>
      <trkpt lat="59.088140431379" lon="17.911706150321">
        <ele>10.2</ele>
        <time>2016-04-10T14:04:50Z</time>
      </trkpt>
      <trkpt lat="59.088026186082" lon="17.911396690573">
        <ele>10.2</ele>
        <time>2016-04-10T14:04:52Z</time>
      </trkpt>
      <trkpt lat="59.087873384045" lon="17.911094858354">
        <ele>10.2</ele>
        <time>2016-04-10T14:04:54Z</time>
      </trkpt>
      <trkpt lat="59.087795264737" lon="17.91096192142">
        <ele>10.2</ele>
        <time>2016-04-10T14:04:55Z</time>
      </trkpt>
      <trkpt lat="59.087717815981" lon="17.910837366386">
        <ele>9.8</ele>
        <time>2016-04-10T14:04:56Z</time>
      </trkpt>
      <trkpt lat="59.087642714157" lon="17.910706441108">
        <ele>9.4</ele>
        <time>2016-04-10T14:04:57Z</time>
      </trkpt>
      <trkpt lat="59.087568115247" lon="17.910575180554">
        <ele>9</ele>
        <time>2016-04-10T14:04:58Z</time>
      </trkpt>
      <trkpt lat="59.087496450002" lon="17.910434783729">
        <ele>8.6</ele>
        <time>2016-04-10T14:04:59Z</time>
      </trkpt>
      <trkpt lat="59.0874245333" lon="17.910280389131">
        <ele>8.2</ele>
        <time>2016-04-10T14:05:00Z</time>
      </trkpt>
      <trkpt lat="59.087384132542" lon="17.910104872145">
        <ele>8.2</ele>
        <time>2016-04-10T14:05:01Z</time>
      </trkpt>
      <trkpt lat="59.087353119512" lon="17.909912172264">
        <ele>8.6</ele>
        <time>2016-04-10T14:05:02Z</time>
      </trkpt>
      <trkpt lat="59.087328644364" lon="17.909718298917">
        <ele>9</ele>
        <time>2016-04-10T14:05:03Z</time>
      </trkpt>
      <trkpt lat="59.087305845596" lon="17.909523168285">
        <ele>9.4</ele>
        <time>2016-04-10T14:05:04Z</time>
      </trkpt>
      <trkpt lat="59.087281873362" lon="17.909324014341">
        <ele>9.8</ele>
        <time>2016-04-10T14:05:05Z</time>
      </trkpt>
      <trkpt lat="59.087257398214" lon="17.909127626424">
        <ele>10.4</ele>
        <time>2016-04-10T14:05:06Z</time>
      </trkpt>
      <trkpt lat="59.087121024701" lon="17.908394629269">
        <ele>10.4</ele>
        <time>2016-04-10T14:05:10Z</time>
      </trkpt>
      <trkpt lat="59.086875099755" lon="17.907570520861">
        <ele>10.4</ele>
        <time>2016-04-10T14:05:15Z</time>
      </trkpt>
      <trkpt lat="59.086751299092" lon="17.907079257702">
        <ele>10.4</ele>
        <time>2016-04-10T14:05:18Z</time>
      </trkpt>
      <trkpt lat="59.086698409303" lon="17.906759152941">
        <ele>10.4</ele>
        <time>2016-04-10T14:05:20Z</time>
      </trkpt>
      <trkpt lat="59.086685752634" lon="17.906602579049">
        <ele>10.4</ele>
        <time>2016-04-10T14:05:21Z</time>
      </trkpt>
      <trkpt lat="59.086660187839" lon="17.906142580377">
        <ele>10.4</ele>
        <time>2016-04-10T14:05:24Z</time>
      </trkpt>
      <trkpt lat="59.08665507488" lon="17.905749050172">
        <ele>10.8</ele>
        <time>2016-04-10T14:05:27Z</time>
      </trkpt>
      <trkpt lat="59.086650800111" lon="17.905626925889">
        <ele>11.2</ele>
        <time>2016-04-10T14:05:28Z</time>
      </trkpt>
      <trkpt lat="59.086644848962" lon="17.905518883198">
        <ele>11.6</ele>
        <time>2016-04-10T14:05:29Z</time>
      </trkpt>
      <trkpt lat="59.086636718519" lon="17.905413522715">
        <ele>12</ele>
        <time>2016-04-10T14:05:30Z</time>
      </trkpt>
      <trkpt lat="59.086632611388" lon="17.905321489453">
        <ele>12.6</ele>
        <time>2016-04-10T14:05:31Z</time>
      </trkpt>
      <trkpt lat="59.086628923352" lon="17.905236748444">
        <ele>13.2</ele>
        <time>2016-04-10T14:05:32Z</time>
      </trkpt>
      <trkpt lat="59.086626827877" lon="17.905161059887">
        <ele>13.8</ele>
        <time>2016-04-10T14:05:33Z</time>
      </trkpt>
      <trkpt lat="59.086618697434" lon="17.905089729918">
        <ele>14.4</ele>
        <time>2016-04-10T14:05:34Z</time>
      </trkpt>
      <trkpt lat="59.086614925579" lon="17.905006832927">
        <ele>15</ele>
        <time>2016-04-10T14:05:35Z</time>
      </trkpt>
      <trkpt lat="59.086618278339" lon="17.904932653112">
        <ele>16</ele>
        <time>2016-04-10T14:05:36Z</time>
      </trkpt>
      <trkpt lat="59.086616769597" lon="17.904859311487">
        <ele>16.4</ele>
        <time>2016-04-10T14:05:37Z</time>
      </trkpt>
      <trkpt lat="59.08661735633" lon="17.904778761428">
        <ele>16.8</ele>
        <time>2016-04-10T14:05:38Z</time>
      </trkpt>
      <trkpt lat="59.086612411009" lon="17.904698881921">
        <ele>17.2</ele>
        <time>2016-04-10T14:05:39Z</time>
      </trkpt>
      <trkpt lat="59.086606040765" lon="17.904547085712">
        <ele>17.8</ele>
        <time>2016-04-10T14:05:41Z</time>
      </trkpt>
      <trkpt lat="59.08660226891" lon="17.904471648612">
        <ele>18.2</ele>
        <time>2016-04-10T14:05:42Z</time>
      </trkpt>
      <trkpt lat="59.086594557562" lon="17.904400737738">
        <ele>18.6</ele>
        <time>2016-04-10T14:05:43Z</time>
      </trkpt>
      <trkpt lat="59.086592881182" lon="17.904332341434">
        <ele>19</ele>
        <time>2016-04-10T14:05:44Z</time>
      </trkpt>
      <trkpt lat="59.086579889237" lon="17.904248606253">
        <ele>19.4</ele>
        <time>2016-04-10T14:05:45Z</time>
      </trkpt>
      <trkpt lat="59.086547618922" lon="17.904067976308">
        <ele>19.4</ele>
        <time>2016-04-10T14:05:47Z</time>
      </trkpt>
      <trkpt lat="59.086389284831" lon="17.903651312059">
        <ele>19.4</ele>
        <time>2016-04-10T14:05:51Z</time>
      </trkpt>
      <trkpt lat="59.086278811389" lon="17.903406895855">
        <ele>19</ele>
        <time>2016-04-10T14:05:53Z</time>
      </trkpt>
      <trkpt lat="59.086225251048" lon="17.903278820423">
        <ele>18.6</ele>
        <time>2016-04-10T14:05:54Z</time>
      </trkpt>
      <trkpt lat="59.086172445078" lon="17.903150661172">
        <ele>18.2</ele>
        <time>2016-04-10T14:05:55Z</time>
      </trkpt>
      <trkpt lat="59.086122405135" lon="17.90301839479">
        <ele>17.8</ele>
        <time>2016-04-10T14:05:56Z</time>
      </trkpt>
      <trkpt lat="59.086074125391" lon="17.902887972426">
        <ele>17.4</ele>
        <time>2016-04-10T14:05:57Z</time>
      </trkpt>
      <trkpt lat="59.085804647306" lon="17.90228162578">
        <ele>17.4</ele>
        <time>2016-04-10T14:06:02Z</time>
      </trkpt>
      <trkpt lat="59.085741531599" lon="17.902188419052">
        <ele>17.4</ele>
        <time>2016-04-10T14:06:03Z</time>
      </trkpt>
      <trkpt lat="59.085530307719" lon="17.901949283445">
        <ele>17.4</ele>
        <time>2016-04-10T14:06:06Z</time>
      </trkpt>
      <trkpt lat="59.085392090188" lon="17.901740657954">
        <ele>17.4</ele>
        <time>2016-04-10T14:06:08Z</time>
      </trkpt>
      <trkpt lat="59.084959751786" lon="17.900904228153">
        <ele>17.4</ele>
        <time>2016-04-10T14:06:15Z</time>
      </trkpt>
      <trkpt lat="59.084789599216" lon="17.900551266344">
        <ele>17.4</ele>
        <time>2016-04-10T14:06:18Z</time>
      </trkpt>
      <trkpt lat="59.084643586518" lon="17.900217247629">
        <ele>17.4</ele>
        <time>2016-04-10T14:06:21Z</time>
      </trkpt>
      <trkpt lat="59.084258857308" lon="17.899533116951">
        <ele>17.4</ele>
        <time>2016-04-10T14:06:28Z</time>
      </trkpt>
      <trkpt lat="59.083887622957" lon="17.898973960402">
        <ele>17.4</ele>
        <time>2016-04-10T14:06:34Z</time>
      </trkpt>
      <trkpt lat="59.083471377803" lon="17.898340288762">
        <ele>17.4</ele>
        <time>2016-04-10T14:06:41Z</time>
      </trkpt>
      <trkpt lat="59.083119673279" lon="17.897794543253">
        <ele>17.4</ele>
        <time>2016-04-10T14:06:47Z</time>
      </trkpt>
      <trkpt lat="59.082841729475" lon="17.897373101321">
        <ele>17.4</ele>
        <time>2016-04-10T14:06:52Z</time>
      </trkpt>
      <trkpt lat="59.082792862998" lon="17.897282492982">
        <ele>17.4</ele>
        <time>2016-04-10T14:06:53Z</time>
      </trkpt>
      <trkpt lat="59.082658836417" lon="17.89696247204">
        <ele>17.8</ele>
        <time>2016-04-10T14:06:56Z</time>
      </trkpt>
      <trkpt lat="59.082623800075" lon="17.896841353585">
        <ele>18.2</ele>
        <time>2016-04-10T14:06:57Z</time>
      </trkpt>
      <trkpt lat="59.082592284131" lon="17.896706656452">
        <ele>18.6</ele>
        <time>2016-04-10T14:06:58Z</time>
      </trkpt>
      <trkpt lat="59.082579124548" lon="17.89656265541">
        <ele>19</ele>
        <time>2016-04-10T14:06:59Z</time>
      </trkpt>
      <trkpt lat="59.082570491191" lon="17.896428628829">
        <ele>19.4</ele>
        <time>2016-04-10T14:07:00Z</time>
      </trkpt>
      <trkpt lat="59.08257057501" lon="17.896297284456">
        <ele>20</ele>
        <time>2016-04-10T14:07:01Z</time>
      </trkpt>
      <trkpt lat="59.082572083752" lon="17.896180189313">
        <ele>20.6</ele>
        <time>2016-04-10T14:07:02Z</time>
      </trkpt>
      <trkpt lat="59.082582225851" lon="17.896062172161">
        <ele>21</ele>
        <time>2016-04-10T14:07:03Z</time>
      </trkpt>
      <trkpt lat="59.082597313271" lon="17.895945579932">
        <ele>21.6</ele>
        <time>2016-04-10T14:07:04Z</time>
      </trkpt>
      <trkpt lat="59.082617262193" lon="17.895816331034">
        <ele>22.2</ele>
        <time>2016-04-10T14:07:05Z</time>
      </trkpt>
      <trkpt lat="59.082643078445" lon="17.895670318336">
        <ele>22.8</ele>
        <time>2016-04-10T14:07:06Z</time>
      </trkpt>
      <trkpt lat="59.082678114787" lon="17.895531765529">
        <ele>23.4</ele>
        <time>2016-04-10T14:07:07Z</time>
      </trkpt>
      <trkpt lat="59.082721113934" lon="17.895414838024">
        <ele>24.2</ele>
        <time>2016-04-10T14:07:08Z</time>
      </trkpt>
      <trkpt lat="59.08290166006" lon="17.895137648591">
        <ele>24.2</ele>
        <time>2016-04-10T14:07:11Z</time>
      </trkpt>
      <trkpt lat="59.083036357193" lon="17.894991552074">
        <ele>24.2</ele>
        <time>2016-04-10T14:07:13Z</time>
      </trkpt>
      <trkpt lat="59.083179771502" lon="17.894871439447">
        <ele>23.6</ele>
        <time>2016-04-10T14:07:15Z</time>
      </trkpt>
      <trkpt lat="59.083266607986" lon="17.894811257405">
        <ele>23</ele>
        <time>2016-04-10T14:07:16Z</time>
      </trkpt>
      <trkpt lat="59.083352857737" lon="17.894759457263">
        <ele>22.4</ele>
        <time>2016-04-10T14:07:17Z</time>
      </trkpt>
      <trkpt lat="59.083438856031" lon="17.894695084271">
        <ele>22</ele>
        <time>2016-04-10T14:07:18Z</time>
      </trkpt>
      <trkpt lat="59.083527620352" lon="17.894625849777">
        <ele>21.4</ele>
        <time>2016-04-10T14:07:19Z</time>
      </trkpt>
      <trkpt lat="59.083621413813" lon="17.894562231156">
        <ele>20.8</ele>
        <time>2016-04-10T14:07:20Z</time>
      </trkpt>
      <trkpt lat="59.083715123455" lon="17.894497522888">
        <ele>20.2</ele>
        <time>2016-04-10T14:07:21Z</time>
      </trkpt>
      <trkpt lat="59.083806234708" lon="17.894419990313">
        <ele>19.6</ele>
        <time>2016-04-10T14:07:22Z</time>
      </trkpt>
      <trkpt lat="59.083893322649" lon="17.894336590408">
        <ele>19</ele>
        <time>2016-04-10T14:07:23Z</time>
      </trkpt>
      <trkpt lat="59.083969262663" lon="17.894192086452">
        <ele>18.2</ele>
        <time>2016-04-10T14:07:24Z</time>
      </trkpt>
      <trkpt lat="59.084017542407" lon="17.894003158426">
        <ele>17.2</ele>
        <time>2016-04-10T14:07:25Z</time>
      </trkpt>
      <trkpt lat="59.08404914217" lon="17.893810207088">
        <ele>16.4</ele>
        <time>2016-04-10T14:07:26Z</time>
      </trkpt>
      <trkpt lat="59.084061966477" lon="17.893621279062">
        <ele>15.6</ele>
        <time>2016-04-10T14:07:27Z</time>
      </trkpt>
      <trkpt lat="59.08406003864" lon="17.893438050728">
        <ele>15</ele>
        <time>2016-04-10T14:07:28Z</time>
      </trkpt>
      <trkpt lat="59.084046459962" lon="17.893266808511">
        <ele>14.2</ele>
        <time>2016-04-10T14:07:29Z</time>
      </trkpt>
      <trkpt lat="59.084027013954" lon="17.893079305408">
        <ele>13.6</ele>
        <time>2016-04-10T14:07:30Z</time>
      </trkpt>
      <trkpt lat="59.084002371168" lon="17.89289725054">
        <ele>12.8</ele>
        <time>2016-04-10T14:07:31Z</time>
      </trkpt>
      <trkpt lat="59.083978315115" lon="17.892715530948">
        <ele>12.4</ele>
        <time>2016-04-10T14:07:32Z</time>
      </trkpt>
      <trkpt lat="59.083951241578" lon="17.892534984822">
        <ele>11.8</ele>
        <time>2016-04-10T14:07:33Z</time>
      </trkpt>
      <trkpt lat="59.08391586996" lon="17.892360557483">
        <ele>11.2</ele>
        <time>2016-04-10T14:07:34Z</time>
      </trkpt>
      <trkpt lat="59.083878067591" lon="17.892197613347">
        <ele>10.6</ele>
        <time>2016-04-10T14:07:35Z</time>
      </trkpt>
      <trkpt lat="59.08383791829" lon="17.892040871817">
        <ele>10</ele>
        <time>2016-04-10T14:07:36Z</time>
      </trkpt>
      <trkpt lat="59.083786118148" lon="17.891865773926">
        <ele>9.6</ele>
        <time>2016-04-10T14:07:37Z</time>
      </trkpt>
      <trkpt lat="59.083724846459" lon="17.89169193332">
        <ele>9</ele>
        <time>2016-04-10T14:07:38Z</time>
      </trkpt>
      <trkpt lat="59.083656533974" lon="17.891527983356">
        <ele>8.4</ele>
        <time>2016-04-10T14:07:39Z</time>
      </trkpt>
      <trkpt lat="59.083574391354" lon="17.891362608469">
        <ele>7</ele>
        <time>2016-04-10T14:07:40Z</time>
      </trkpt>
      <trkpt lat="59.083489734164" lon="17.891191952985">
        <ele>6.4</ele>
        <time>2016-04-10T14:07:41Z</time>
      </trkpt>
      <trkpt lat="59.083391330658" lon="17.891002522045">
        <ele>5.8</ele>
        <time>2016-04-10T14:07:42Z</time>
      </trkpt>
      <trkpt lat="59.083284126157" lon="17.89085458151">
        <ele>5.8</ele>
        <time>2016-04-10T14:07:43Z</time>
      </trkpt>
      <trkpt lat="59.083170467593" lon="17.890698929627">
        <ele>5.8</ele>
        <time>2016-04-10T14:07:44Z</time>
      </trkpt>
      <trkpt lat="59.082836197421" lon="17.890286791604">
        <ele>5.4</ele>
        <time>2016-04-10T14:07:47Z</time>
      </trkpt>
      <trkpt lat="59.082729244377" lon="17.890153770851">
        <ele>5</ele>
        <time>2016-04-10T14:07:48Z</time>
      </trkpt>
      <trkpt lat="59.082643078445" lon="17.890040363744">
        <ele>4.4</ele>
        <time>2016-04-10T14:07:49Z</time>
      </trkpt>
      <trkpt lat="59.082549033527" lon="17.889906253344">
        <ele>4</ele>
        <time>2016-04-10T14:07:50Z</time>
      </trkpt>
      <trkpt lat="59.082455156247" lon="17.889776836808">
        <ele>3.6</ele>
        <time>2016-04-10T14:07:51Z</time>
      </trkpt>
      <trkpt lat="59.082277376148" lon="17.889540634866">
        <ele>3</ele>
        <time>2016-04-10T14:07:53Z</time>
      </trkpt>
      <trkpt lat="59.082187438361" lon="17.889422366257">
        <ele>2.6</ele>
        <time>2016-04-10T14:07:54Z</time>
      </trkpt>
      <trkpt lat="59.082090040683" lon="17.889305438752">
        <ele>2.2</ele>
        <time>2016-04-10T14:07:55Z</time>
      </trkpt>
      <trkpt lat="59.081992894462" lon="17.889181805727">
        <ele>1.8</ele>
        <time>2016-04-10T14:07:56Z</time>
      </trkpt>
      <trkpt lat="59.081895580603" lon="17.889061860738">
        <ele>1.2</ele>
        <time>2016-04-10T14:07:57Z</time>
      </trkpt>
      <trkpt lat="59.081565920476" lon="17.888662798479">
        <ele>0.6</ele>
        <time>2016-04-10T14:08:00Z</time>
      </trkpt>
      <trkpt lat="59.081453938292" lon="17.888534555409">
        <ele>0.2</ele>
        <time>2016-04-10T14:08:01Z</time>
      </trkpt>
      <trkpt lat="59.081347236705" lon="17.888412012031">
        <ele>0</ele>
        <time>2016-04-10T14:08:02Z</time>
      </trkpt>
      <trkpt lat="59.08124036748" lon="17.88829307287">
        <ele>0</ele>
        <time>2016-04-10T14:08:03Z</time>
      </trkpt>
      <trkpt lat="59.081139365585" lon="17.888183102342">
        <ele>0</ele>
        <time>2016-04-10T14:08:04Z</time>
      </trkpt>
      <trkpt lat="59.081044063382" lon="17.888077406583">
        <ele>0</ele>
        <time>2016-04-10T14:08:05Z</time>
      </trkpt>
      <trkpt lat="59.080948509722" lon="17.887982691113">
        <ele>0</ele>
        <time>2016-04-10T14:08:06Z</time>
      </trkpt>
      <trkpt lat="59.080854883899" lon="17.887883281779">
        <ele>0</ele>
        <time>2016-04-10T14:08:07Z</time>
      </trkpt>
      <trkpt lat="59.080528827989" lon="17.887510790143">
        <ele>0</ele>
        <time>2016-04-10T14:08:11Z</time>
      </trkpt>
      <trkpt lat="59.080459928771" lon="17.887416829044">
        <ele>0</ele>
        <time>2016-04-10T14:08:12Z</time>
      </trkpt>
      <trkpt lat="59.080396729245" lon="17.887316832977">
        <ele>0</ele>
        <time>2016-04-10T14:08:13Z</time>
      </trkpt>
      <trkpt lat="59.08033679866" lon="17.887206108078">
        <ele>0</ele>
        <time>2016-04-10T14:08:14Z</time>
      </trkpt>
      <trkpt lat="59.08027896355" lon="17.887085827813">
        <ele>0</ele>
        <time>2016-04-10T14:08:15Z</time>
      </trkpt>
      <trkpt lat="59.080229175064" lon="17.886962613883">
        <ele>0.8</ele>
        <time>2016-04-10T14:08:16Z</time>
      </trkpt>
      <trkpt lat="59.080184331899" lon="17.886832191519">
        <ele>1.4</ele>
        <time>2016-04-10T14:08:17Z</time>
      </trkpt>
      <trkpt lat="59.080133453766" lon="17.886701601517">
        <ele>2</ele>
        <time>2016-04-10T14:08:18Z</time>
      </trkpt>
      <trkpt lat="59.08008366528" lon="17.886579561053">
        <ele>2.6</ele>
        <time>2016-04-10T14:08:19Z</time>
      </trkpt>
      <trkpt lat="59.0800316975" lon="17.88646498048">
        <ele>3.2</ele>
        <time>2016-04-10T14:08:20Z</time>
      </trkpt>
      <trkpt lat="59.07997637696" lon="17.886359200902">
        <ele>3.8</ele>
        <time>2016-04-10T14:08:21Z</time>
      </trkpt>
      <trkpt lat="59.079714442585" lon="17.885865423173">
        <ele>3.8</ele>
        <time>2016-04-10T14:08:26Z</time>
      </trkpt>
      <trkpt lat="59.079608160093" lon="17.885526459137">
        <ele>3.8</ele>
        <time>2016-04-10T14:08:29Z</time>
      </trkpt>
      <trkpt lat="59.079582846755" lon="17.885399389533">
        <ele>4.6</ele>
        <time>2016-04-10T14:08:30Z</time>
      </trkpt>
      <trkpt lat="59.07956063472" lon="17.885263602753">
        <ele>5</ele>
        <time>2016-04-10T14:08:31Z</time>
      </trkpt>
      <trkpt lat="59.079553342467" lon="17.885108453784">
        <ele>5.4</ele>
        <time>2016-04-10T14:08:32Z</time>
      </trkpt>
      <trkpt lat="59.079559209797" lon="17.884947605123">
        <ele>5.8</ele>
        <time>2016-04-10T14:08:33Z</time>
      </trkpt>
      <trkpt lat="59.079580918918" lon="17.884776195268">
        <ele>5.8</ele>
        <time>2016-04-10T14:08:34Z</time>
      </trkpt>
      <trkpt lat="59.079630875042" lon="17.884606880888">
        <ele>5.4</ele>
        <time>2016-04-10T14:08:35Z</time>
      </trkpt>
      <trkpt lat="59.079692817283" lon="17.884439159069">
        <ele>4.8</ele>
        <time>2016-04-10T14:08:36Z</time>
      </trkpt>
      <trkpt lat="59.079767919107" lon="17.884291050896">
        <ele>4</ele>
        <time>2016-04-10T14:08:37Z</time>
      </trkpt>
      <trkpt lat="59.079856851066" lon="17.884160963808">
        <ele>3.2</ele>
        <time>2016-04-10T14:08:38Z</time>
      </trkpt>
      <trkpt lat="59.079948968147" lon="17.884029284159">
        <ele>2.2</ele>
        <time>2016-04-10T14:08:39Z</time>
      </trkpt>
      <trkpt lat="59.080046617282" lon="17.883870195697">
        <ele>1.4</ele>
        <time>2016-04-10T14:08:40Z</time>
      </trkpt>
      <trkpt lat="59.080135884517" lon="17.883705156086">
        <ele>0.2</ele>
        <time>2016-04-10T14:08:41Z</time>
      </trkpt>
      <trkpt lat="59.080202604441" lon="17.883522346847">
        <ele>0</ele>
        <time>2016-04-10T14:08:42Z</time>
      </trkpt>
      <trkpt lat="59.080247196149" lon="17.883326545663">
        <ele>0</ele>
        <time>2016-04-10T14:08:43Z</time>
      </trkpt>
      <trkpt lat="59.080262786483" lon="17.883122865493">
        <ele>0</ele>
        <time>2016-04-10T14:08:44Z</time>
      </trkpt>
      <trkpt lat="59.080260188094" lon="17.882930417069">
        <ele>0</ele>
        <time>2016-04-10T14:08:45Z</time>
      </trkpt>
      <trkpt lat="59.080236132041" lon="17.882756911739">
        <ele>0</ele>
        <time>2016-04-10T14:08:46Z</time>
      </trkpt>
      <trkpt lat="59.080189361039" lon="17.882581981486">
        <ele>0</ele>
        <time>2016-04-10T14:08:47Z</time>
      </trkpt>
      <trkpt lat="59.080140578381" lon="17.882424401766">
        <ele>0</ele>
        <time>2016-04-10T14:08:48Z</time>
      </trkpt>
      <trkpt lat="59.080088275325" lon="17.882283082932">
        <ele>0</ele>
        <time>2016-04-10T14:08:49Z</time>
      </trkpt>
      <trkpt lat="59.080046617282" lon="17.882144865401">
        <ele>0</ele>
        <time>2016-04-10T14:08:50Z</time>
      </trkpt>
      <trkpt lat="59.080014011691" lon="17.88200748606">
        <ele>0</ele>
        <time>2016-04-10T14:08:51Z</time>
      </trkpt>
      <trkpt lat="59.07998811162" lon="17.881875722592">
        <ele>0</ele>
        <time>2016-04-10T14:08:52Z</time>
      </trkpt>
      <trkpt lat="59.079965899585" lon="17.881758208354">
        <ele>0</ele>
        <time>2016-04-10T14:08:53Z</time>
      </trkpt>
      <trkpt lat="59.079944944835" lon="17.881648070188">
        <ele>0</ele>
        <time>2016-04-10T14:08:54Z</time>
      </trkpt>
      <trkpt lat="59.079923738628" lon="17.881539021669">
        <ele>0</ele>
        <time>2016-04-10T14:08:55Z</time>
      </trkpt>
      <trkpt lat="59.079910914321" lon="17.88144422238">
        <ele>0</ele>
        <time>2016-04-10T14:08:56Z</time>
      </trkpt>
      <trkpt lat="59.079896832729" lon="17.88135369786">
        <ele>0.4</ele>
        <time>2016-04-10T14:08:57Z</time>
      </trkpt>
      <trkpt lat="59.079882751137" lon="17.881271639059">
        <ele>1.2</ele>
        <time>2016-04-10T14:08:58Z</time>
      </trkpt>
      <trkpt lat="59.079867496079" lon="17.881194022665">
        <ele>1.8</ele>
        <time>2016-04-10T14:08:59Z</time>
      </trkpt>
      <trkpt lat="59.079849055899" lon="17.881119423755">
        <ele>2.4</ele>
        <time>2016-04-10T14:09:00Z</time>
      </trkpt>
      <trkpt lat="59.07983304647" lon="17.881045579216">
        <ele>3.2</ele>
        <time>2016-04-10T14:09:01Z</time>
      </trkpt>
      <trkpt lat="59.079815863575" lon="17.880971650858">
        <ele>3.8</ele>
        <time>2016-04-10T14:09:02Z</time>
      </trkpt>
      <trkpt lat="59.079762806148" lon="17.880765959032">
        <ele>4.2</ele>
        <time>2016-04-10T14:09:05Z</time>
      </trkpt>
      <trkpt lat="59.079750568574" lon="17.880700664031">
        <ele>4.6</ele>
        <time>2016-04-10T14:09:06Z</time>
      </trkpt>
      <trkpt lat="59.079733469498" lon="17.880633105917">
        <ele>5</ele>
        <time>2016-04-10T14:09:07Z</time>
      </trkpt>
      <trkpt lat="59.079718549716" lon="17.880569654934">
        <ele>5.4</ele>
        <time>2016-04-10T14:09:08Z</time>
      </trkpt>
      <trkpt lat="59.079699606622" lon="17.880506371589">
        <ele>5.8</ele>
        <time>2016-04-10T14:09:09Z</time>
      </trkpt>
      <trkpt lat="59.079634982173" lon="17.880309732215">
        <ele>6.2</ele>
        <time>2016-04-10T14:09:12Z</time>
      </trkpt>
      <trkpt lat="59.079613189233" lon="17.880246113594">
        <ele>6.8</ele>
        <time>2016-04-10T14:09:13Z</time>
      </trkpt>
      <trkpt lat="59.079590977198" lon="17.880180734774">
        <ele>7.2</ele>
        <time>2016-04-10T14:09:14Z</time>
      </trkpt>
      <trkpt lat="59.079570944457" lon="17.880120636551">
        <ele>7.6</ele>
        <time>2016-04-10T14:09:15Z</time>
      </trkpt>
      <trkpt lat="59.079546469309" lon="17.880066657115">
        <ele>8</ele>
        <time>2016-04-10T14:09:16Z</time>
      </trkpt>
      <trkpt lat="59.079449071631" lon="17.879918884218">
        <ele>8.8</ele>
        <time>2016-04-10T14:09:19Z</time>
      </trkpt>
      <trkpt lat="59.079422417189" lon="17.879876304166">
        <ele>9.2</ele>
        <time>2016-04-10T14:09:20Z</time>
      </trkpt>
      <trkpt lat="59.079393583453" lon="17.879840178177">
        <ele>9.8</ele>
        <time>2016-04-10T14:09:21Z</time>
      </trkpt>
      <trkpt lat="59.079359301482" lon="17.879804136007">
        <ele>10.2</ele>
        <time>2016-04-10T14:09:22Z</time>
      </trkpt>
      <trkpt lat="59.079271040075" lon="17.879730542925">
        <ele>10.2</ele>
        <time>2016-04-10T14:09:25Z</time>
      </trkpt>
      <trkpt lat="59.079165428135" lon="17.879655357282">
        <ele>10.2</ele>
        <time>2016-04-10T14:09:29Z</time>
      </trkpt>
      <trkpt lat="59.079102312428" lon="17.879638174387">
        <ele>10.6</ele>
        <time>2016-04-10T14:09:31Z</time>
      </trkpt>
      <trkpt lat="59.079067862819" lon="17.879611771402">
        <ele>11</ele>
        <time>2016-04-10T14:09:32Z</time>
      </trkpt>
      <trkpt lat="59.07903006045" lon="17.879602132217">
        <ele>11.4</ele>
        <time>2016-04-10T14:09:33Z</time>
      </trkpt>
      <trkpt lat="59.078989659692" lon="17.87958260239">
        <ele>11.8</ele>
        <time>2016-04-10T14:09:34Z</time>
      </trkpt>
      <trkpt lat="59.078951438228" lon="17.879564581305">
        <ele>12.2</ele>
        <time>2016-04-10T14:09:35Z</time>
      </trkpt>
      <trkpt lat="59.078775166871" lon="17.879492329327">
        <ele>12.2</ele>
        <time>2016-04-10T14:09:39Z</time>
      </trkpt>
      <trkpt lat="59.078393371326" lon="17.879323182585">
        <ele>12.2</ele>
        <time>2016-04-10T14:09:46Z</time>
      </trkpt>
      <trkpt lat="59.077943682391" lon="17.879000730892">
        <ele>12.2</ele>
        <time>2016-04-10T14:09:54Z</time>
      </trkpt>
      <trkpt lat="59.077719466566" lon="17.878912637123">
        <ele>12.2</ele>
        <time>2016-04-10T14:09:58Z</time>
      </trkpt>
      <trkpt lat="59.077661715275" lon="17.878907188888">
        <ele>12.2</ele>
        <time>2016-04-10T14:09:59Z</time>
      </trkpt>
      <trkpt lat="59.077597845197" lon="17.878914816417">
        <ele>12.2</ele>
        <time>2016-04-10T14:10:00Z</time>
      </trkpt>
      <trkpt lat="59.07733859303" lon="17.878923533593">
        <ele>12.2</ele>
        <time>2016-04-10T14:10:04Z</time>
      </trkpt>
      <trkpt lat="59.076982613737" lon="17.878839044041">
        <ele>12.2</ele>
        <time>2016-04-10T14:10:09Z</time>
      </trkpt>
      <trkpt lat="59.076916648184" lon="17.878796463989">
        <ele>12.2</ele>
        <time>2016-04-10T14:10:10Z</time>
      </trkpt>
      <trkpt lat="59.076712381281" lon="17.878685487633">
        <ele>12.2</ele>
        <time>2016-04-10T14:10:13Z</time>
      </trkpt>
      <trkpt lat="59.076349864106" lon="17.878444005094">
        <ele>12.2</ele>
        <time>2016-04-10T14:10:18Z</time>
      </trkpt>
      <trkpt lat="59.076264368726" lon="17.878406789458">
        <ele>12.2</ele>
        <time>2016-04-10T14:10:19Z</time>
      </trkpt>
      <trkpt lat="59.076029591707" lon="17.878345266312">
        <ele>12.2</ele>
        <time>2016-04-10T14:10:22Z</time>
      </trkpt>
      <trkpt lat="59.075949544562" lon="17.878346607416">
        <ele>11.8</ele>
        <time>2016-04-10T14:10:23Z</time>
      </trkpt>
      <trkpt lat="59.075866312295" lon="17.878344260484">
        <ele>11.4</ele>
        <time>2016-04-10T14:10:24Z</time>
      </trkpt>
      <trkpt lat="59.07578039782" lon="17.878355911325">
        <ele>11</ele>
        <time>2016-04-10T14:10:25Z</time>
      </trkpt>
      <trkpt lat="59.075703368159" lon="17.878380302654">
        <ele>10.6</ele>
        <time>2016-04-10T14:10:26Z</time>
      </trkpt>
      <trkpt lat="59.075624578299" lon="17.878399664843">
        <ele>10.2</ele>
        <time>2016-04-10T14:10:27Z</time>
      </trkpt>
      <trkpt lat="59.075111103105" lon="17.878522040583">
        <ele>10.2</ele>
        <time>2016-04-10T14:10:34Z</time>
      </trkpt>
      <trkpt lat="59.075038012937" lon="17.87852983575">
        <ele>10.2</ele>
        <time>2016-04-10T14:10:35Z</time>
      </trkpt>
      <trkpt lat="59.074510959065" lon="17.878501253471">
        <ele>10.2</ele>
        <time>2016-04-10T14:10:42Z</time>
      </trkpt>
      <trkpt lat="59.07428590505" lon="17.878433695357">
        <ele>10.2</ele>
        <time>2016-04-10T14:10:45Z</time>
      </trkpt>
      <trkpt lat="59.074068059469" lon="17.878333950747">
        <ele>10.6</ele>
        <time>2016-04-10T14:10:48Z</time>
      </trkpt>
      <trkpt lat="59.074004021753" lon="17.878283156433">
        <ele>11</ele>
        <time>2016-04-10T14:10:49Z</time>
      </trkpt>
      <trkpt lat="59.073935960725" lon="17.878245940797">
        <ele>11.4</ele>
        <time>2016-04-10T14:10:50Z</time>
      </trkpt>
      <trkpt lat="59.073867061507" lon="17.878218531984">
        <ele>11.8</ele>
        <time>2016-04-10T14:10:51Z</time>
      </trkpt>
      <trkpt lat="59.07379807847" lon="17.878176622484">
        <ele>12.2</ele>
        <time>2016-04-10T14:10:52Z</time>
      </trkpt>
      <trkpt lat="59.073607474064" lon="17.878060700807">
        <ele>12.6</ele>
        <time>2016-04-10T14:10:55Z</time>
      </trkpt>
      <trkpt lat="59.073541927606" lon="17.878045026654">
        <ele>13</ele>
        <time>2016-04-10T14:10:56Z</time>
      </trkpt>
      <trkpt lat="59.073480907374" lon="17.8780394946">
        <ele>13.6</ele>
        <time>2016-04-10T14:10:57Z</time>
      </trkpt>
      <trkpt lat="59.073418043124" lon="17.878012253425">
        <ele>14.4</ele>
        <time>2016-04-10T14:10:58Z</time>
      </trkpt>
      <trkpt lat="59.073351407019" lon="17.877991885408">
        <ele>14.4</ele>
        <time>2016-04-10T14:10:59Z</time>
      </trkpt>
      <trkpt lat="59.073285776742" lon="17.877976965626">
        <ele>14.4</ele>
        <time>2016-04-10T14:11:00Z</time>
      </trkpt>
      <trkpt lat="59.072803733673" lon="17.877939582352">
        <ele>14.4</ele>
        <time>2016-04-10T14:11:07Z</time>
      </trkpt>
      <trkpt lat="59.072440378308" lon="17.878053911468">
        <ele>14.4</ele>
        <time>2016-04-10T14:11:12Z</time>
      </trkpt>
      <trkpt lat="59.072372904013" lon="17.87808308048">
        <ele>14.4</ele>
        <time>2016-04-10T14:11:13Z</time>
      </trkpt>
      <trkpt lat="59.071888933107" lon="17.878258765104">
        <ele>14.4</ele>
        <time>2016-04-10T14:11:20Z</time>
      </trkpt>
      <trkpt lat="59.071518034032" lon="17.878376949894">
        <ele>14.4</ele>
        <time>2016-04-10T14:11:25Z</time>
      </trkpt>
      <trkpt lat="59.071365064357" lon="17.878450123881">
        <ele>14.4</ele>
        <time>2016-04-10T14:11:27Z</time>
      </trkpt>
      <trkpt lat="59.071121234886" lon="17.878499996186">
        <ele>14.4</ele>
        <time>2016-04-10T14:11:30Z</time>
      </trkpt>
      <trkpt lat="59.070960218587" lon="17.878457248496">
        <ele>14.4</ele>
        <time>2016-04-10T14:11:32Z</time>
      </trkpt>
      <trkpt lat="59.070729297242" lon="17.878285251908">
        <ele>14.4</ele>
        <time>2016-04-10T14:11:35Z</time>
      </trkpt>
      <trkpt lat="59.070657129083" lon="17.878219537812">
        <ele>14.4</ele>
        <time>2016-04-10T14:11:36Z</time>
      </trkpt>
      <trkpt lat="59.070178690231" lon="17.877805974866">
        <ele>14.4</ele>
        <time>2016-04-10T14:11:42Z</time>
      </trkpt>
      <trkpt lat="59.070099313638" lon="17.877729448119">
        <ele>14</ele>
        <time>2016-04-10T14:11:43Z</time>
      </trkpt>
      <trkpt lat="59.070019350312" lon="17.877645126205">
        <ele>13.6</ele>
        <time>2016-04-10T14:11:44Z</time>
      </trkpt>
      <trkpt lat="59.069937710606" lon="17.877552757667">
        <ele>13</ele>
        <time>2016-04-10T14:11:45Z</time>
      </trkpt>
      <trkpt lat="59.069858334013" lon="17.877456281998">
        <ele>12.6</ele>
        <time>2016-04-10T14:11:46Z</time>
      </trkpt>
      <trkpt lat="59.069784992388" lon="17.8773605607">
        <ele>12.2</ele>
        <time>2016-04-10T14:11:47Z</time>
      </trkpt>
      <trkpt lat="59.069709471469" lon="17.87725746333">
        <ele>12.2</ele>
        <time>2016-04-10T14:11:48Z</time>
      </trkpt>
      <trkpt lat="59.06920395908" lon="17.876642315689">
        <ele>12.2</ele>
        <time>2016-04-10T14:11:55Z</time>
      </trkpt>
      <trkpt lat="59.068808165762" lon="17.876216012255">
        <ele>12.2</ele>
        <time>2016-04-10T14:12:01Z</time>
      </trkpt>
      <trkpt lat="59.068743373675" lon="17.876159182973">
        <ele>12.6</ele>
        <time>2016-04-10T14:12:02Z</time>
      </trkpt>
      <trkpt lat="59.068677491941" lon="17.876104616804">
        <ele>13</ele>
        <time>2016-04-10T14:12:03Z</time>
      </trkpt>
      <trkpt lat="59.068611526388" lon="17.87605046973">
        <ele>13.4</ele>
        <time>2016-04-10T14:12:04Z</time>
      </trkpt>
      <trkpt lat="59.068545896111" lon="17.87599934014">
        <ele>13.8</ele>
        <time>2016-04-10T14:12:05Z</time>
      </trkpt>
      <trkpt lat="59.068478840911" lon="17.875954832251">
        <ele>14.2</ele>
        <time>2016-04-10T14:12:06Z</time>
      </trkpt>
      <trkpt lat="59.068079359557" lon="17.875726509295">
        <ele>14.6</ele>
        <time>2016-04-10T14:12:12Z</time>
      </trkpt>
      <trkpt lat="59.068012974909" lon="17.875699771034">
        <ele>15</ele>
        <time>2016-04-10T14:12:13Z</time>
      </trkpt>
      <trkpt lat="59.067947260813" lon="17.875679654474">
        <ele>15.6</ele>
        <time>2016-04-10T14:12:14Z</time>
      </trkpt>
      <trkpt lat="59.067881127622" lon="17.87566406414">
        <ele>16</ele>
        <time>2016-04-10T14:12:15Z</time>
      </trkpt>
      <trkpt lat="59.067816586992" lon="17.875644701951">
        <ele>16.4</ele>
        <time>2016-04-10T14:12:16Z</time>
      </trkpt>
      <trkpt lat="59.067687841008" lon="17.875612766912">
        <ele>16.4</ele>
        <time>2016-04-10T14:12:18Z</time>
      </trkpt>
      <trkpt lat="59.067493883842" lon="17.875574796905">
        <ele>16.4</ele>
        <time>2016-04-10T14:12:21Z</time>
      </trkpt>
      <trkpt lat="59.067241504833" lon="17.875531965396">
        <ele>16.8</ele>
        <time>2016-04-10T14:12:25Z</time>
      </trkpt>
      <trkpt lat="59.067178305307" lon="17.875525008419">
        <ele>17.2</ele>
        <time>2016-04-10T14:12:26Z</time>
      </trkpt>
      <trkpt lat="59.067113094125" lon="17.875521823297">
        <ele>17.6</ele>
        <time>2016-04-10T14:12:27Z</time>
      </trkpt>
      <trkpt lat="59.067050984246" lon="17.875524673143">
        <ele>18</ele>
        <time>2016-04-10T14:12:28Z</time>
      </trkpt>
      <trkpt lat="59.066986611254" lon="17.875521068926">
        <ele>18.4</ele>
        <time>2016-04-10T14:12:29Z</time>
      </trkpt>
      <trkpt lat="59.066594925067" lon="17.875507238791">
        <ele>18.4</ele>
        <time>2016-04-10T14:12:35Z</time>
      </trkpt>
      <trkpt lat="59.066115731844" lon="17.875433980985">
        <ele>18.4</ele>
        <time>2016-04-10T14:12:42Z</time>
      </trkpt>
      <trkpt lat="59.065661013769" lon="17.875271120668">
        <ele>18.4</ele>
        <time>2016-04-10T14:12:48Z</time>
      </trkpt>
      <trkpt lat="59.065175953216" lon="17.875103147392">
        <ele>18.4</ele>
        <time>2016-04-10T14:12:54Z</time>
      </trkpt>
      <trkpt lat="59.064633225191" lon="17.874863089776">
        <ele>18.4</ele>
        <time>2016-04-10T14:13:01Z</time>
      </trkpt>
      <trkpt lat="59.064188900672" lon="17.874717328535">
        <ele>18.4</ele>
        <time>2016-04-10T14:13:07Z</time>
      </trkpt>
      <trkpt lat="59.063791850069" lon="17.87464063415">
        <ele>18.4</ele>
        <time>2016-04-10T14:13:13Z</time>
      </trkpt>
      <trkpt lat="59.063610465753" lon="17.87458028447">
        <ele>18.8</ele>
        <time>2016-04-10T14:13:16Z</time>
      </trkpt>
      <trkpt lat="59.063558665611" lon="17.87456268248">
        <ele>19.4</ele>
        <time>2016-04-10T14:13:17Z</time>
      </trkpt>
      <trkpt lat="59.063509463858" lon="17.874542817377">
        <ele>19.8</ele>
        <time>2016-04-10T14:13:18Z</time>
      </trkpt>
      <trkpt lat="59.06345649025" lon="17.874519767152">
        <ele>20.2</ele>
        <time>2016-04-10T14:13:19Z</time>
      </trkpt>
      <trkpt lat="59.063397984588" lon="17.874499315316">
        <ele>20.6</ele>
        <time>2016-04-10T14:13:20Z</time>
      </trkpt>
      <trkpt lat="59.063160190085" lon="17.874404767484">
        <ele>20.6</ele>
        <time>2016-04-10T14:13:24Z</time>
      </trkpt>
      <trkpt lat="59.063102857889" lon="17.874382387811">
        <ele>21.2</ele>
        <time>2016-04-10T14:13:25Z</time>
      </trkpt>
      <trkpt lat="59.063044268408" lon="17.874359756681">
        <ele>21.6</ele>
        <time>2016-04-10T14:13:26Z</time>
      </trkpt>
      <trkpt lat="59.062981907072" lon="17.874333772791">
        <ele>22.4</ele>
        <time>2016-04-10T14:13:27Z</time>
      </trkpt>
      <trkpt lat="59.062925832161" lon="17.874304100865">
        <ele>23</ele>
        <time>2016-04-10T14:13:28Z</time>
      </trkpt>
      <trkpt lat="59.062712261349" lon="17.874188430645">
        <ele>23</ele>
        <time>2016-04-10T14:13:31Z</time>
      </trkpt>
      <trkpt lat="59.062451248983" lon="17.874010063813">
        <ele>23.4</ele>
        <time>2016-04-10T14:13:37Z</time>
      </trkpt>
      <trkpt lat="59.062389642018" lon="17.873980643344">
        <ele>23.8</ele>
        <time>2016-04-10T14:13:38Z</time>
      </trkpt>
      <trkpt lat="59.062337422781" lon="17.873948959762">
        <ele>24.2</ele>
        <time>2016-04-10T14:13:39Z</time>
      </trkpt>
      <trkpt lat="59.062279755309" lon="17.873915935076">
        <ele>24.6</ele>
        <time>2016-04-10T14:13:40Z</time>
      </trkpt>
      <trkpt lat="59.062229128633" lon="17.873883329485">
        <ele>25</ele>
        <time>2016-04-10T14:13:41Z</time>
      </trkpt>
      <trkpt lat="59.062074147302" lon="17.873796409182">
        <ele>25</ele>
        <time>2016-04-10T14:13:44Z</time>
      </trkpt>
      <trkpt lat="59.061819086085" lon="17.873660203307">
        <ele>25.6</ele>
        <time>2016-04-10T14:13:49Z</time>
      </trkpt>
      <trkpt lat="59.061773153273" lon="17.873616449789">
        <ele>26</ele>
        <time>2016-04-10T14:13:50Z</time>
      </trkpt>
      <trkpt lat="59.06173149523" lon="17.873592980469">
        <ele>26.6</ele>
        <time>2016-04-10T14:13:51Z</time>
      </trkpt>
      <trkpt lat="59.061679275993" lon="17.873554591367">
        <ele>27.6</ele>
        <time>2016-04-10T14:13:52Z</time>
      </trkpt>
      <trkpt lat="59.061632756448" lon="17.873514777342">
        <ele>27.6</ele>
        <time>2016-04-10T14:13:53Z</time>
      </trkpt>
      <trkpt lat="59.061326481822" lon="17.873306906222">
        <ele>27.6</ele>
        <time>2016-04-10T14:13:59Z</time>
      </trkpt>
      <trkpt lat="59.061000845007" lon="17.873013623541">
        <ele>27.6</ele>
        <time>2016-04-10T14:14:05Z</time>
      </trkpt>
      <trkpt lat="59.060705885946" lon="17.872691507124">
        <ele>27.6</ele>
        <time>2016-04-10T14:14:11Z</time>
      </trkpt>
      <trkpt lat="59.060370861403" lon="17.87240099047">
        <ele>27.6</ele>
        <time>2016-04-10T14:14:17Z</time>
      </trkpt>
      <trkpt lat="59.05992435759" lon="17.872052219611">
        <ele>27.6</ele>
        <time>2016-04-10T14:14:24Z</time>
      </trkpt>
      <trkpt lat="59.059531581756" lon="17.871635220086">
        <ele>27.6</ele>
        <time>2016-04-10T14:14:30Z</time>
      </trkpt>
      <trkpt lat="59.059201921629" lon="17.871296675145">
        <ele>27.2</ele>
        <time>2016-04-10T14:14:35Z</time>
      </trkpt>
      <trkpt lat="59.059130926936" lon="17.871242025157">
        <ele>26.8</ele>
        <time>2016-04-10T14:14:36Z</time>
      </trkpt>
      <trkpt lat="59.059060518976" lon="17.871195337974">
        <ele>26.4</ele>
        <time>2016-04-10T14:14:37Z</time>
      </trkpt>
      <trkpt lat="59.058985417152" lon="17.871159295804">
        <ele>26</ele>
        <time>2016-04-10T14:14:38Z</time>
      </trkpt>
      <trkpt lat="59.058914087183" lon="17.871121325797">
        <ele>25.6</ele>
        <time>2016-04-10T14:14:39Z</time>
      </trkpt>
      <trkpt lat="59.058319475197" lon="17.870846650934">
        <ele>25.6</ele>
        <time>2016-04-10T14:14:47Z</time>
      </trkpt>
      <trkpt lat="59.05778864947" lon="17.870732657094">
        <ele>25.6</ele>
        <time>2016-04-10T14:14:54Z</time>
      </trkpt>
      <trkpt lat="59.057710362524" lon="17.870740871356">
        <ele>25.6</ele>
        <time>2016-04-10T14:14:55Z</time>
      </trkpt>
      <trkpt lat="59.05763442251" lon="17.870763418667">
        <ele>25</ele>
        <time>2016-04-10T14:14:56Z</time>
      </trkpt>
      <trkpt lat="59.057553537175" lon="17.870790492204">
        <ele>24.6</ele>
        <time>2016-04-10T14:14:57Z</time>
      </trkpt>
      <trkpt lat="59.05747516641" lon="17.870820583225">
        <ele>24.2</ele>
        <time>2016-04-10T14:14:58Z</time>
      </trkpt>
      <trkpt lat="59.057397382378" lon="17.87085452992">
        <ele>23.6</ele>
        <time>2016-04-10T14:14:59Z</time>
      </trkpt>
      <trkpt lat="59.057320604174" lon="17.870881603457">
        <ele>23.2</ele>
        <time>2016-04-10T14:15:00Z</time>
      </trkpt>
      <trkpt lat="59.056825820617" lon="17.870979839325">
        <ele>23.2</ele>
        <time>2016-04-10T14:15:06Z</time>
      </trkpt>
      <trkpt lat="59.056316871649" lon="17.870966176828">
        <ele>23.2</ele>
        <time>2016-04-10T14:15:12Z</time>
      </trkpt>
      <trkpt lat="59.056152921685" lon="17.870958716937">
        <ele>22.8</ele>
        <time>2016-04-10T14:15:14Z</time>
      </trkpt>
      <trkpt lat="59.056071784893" lon="17.870955364177">
        <ele>22.2</ele>
        <time>2016-04-10T14:15:15Z</time>
      </trkpt>
      <trkpt lat="59.055990145187" lon="17.870960477136">
        <ele>21.8</ele>
        <time>2016-04-10T14:15:16Z</time>
      </trkpt>
      <trkpt lat="59.055903895436" lon="17.8709819348">
        <ele>21.4</ele>
        <time>2016-04-10T14:15:17Z</time>
      </trkpt>
      <trkpt lat="59.055824351205" lon="17.870997776591">
        <ele>21</ele>
        <time>2016-04-10T14:15:18Z</time>
      </trkpt>
      <trkpt lat="59.055732988495" lon="17.871035662779">
        <ele>21</ele>
        <time>2016-04-10T14:15:19Z</time>
      </trkpt>
      <trkpt lat="59.055482285866" lon="17.871160972184">
        <ele>21</ele>
        <time>2016-04-10T14:15:22Z</time>
      </trkpt>
      <trkpt lat="59.055399472694" lon="17.871188464816">
        <ele>20.4</ele>
        <time>2016-04-10T14:15:23Z</time>
      </trkpt>
      <trkpt lat="59.055312720029" lon="17.871200283295">
        <ele>20</ele>
        <time>2016-04-10T14:15:24Z</time>
      </trkpt>
      <trkpt lat="59.055223285156" lon="17.871177400708">
        <ele>19.4</ele>
        <time>2016-04-10T14:15:25Z</time>
      </trkpt>
      <trkpt lat="59.055130246066" lon="17.871153093198">
        <ele>18.8</ele>
        <time>2016-04-10T14:15:26Z</time>
      </trkpt>
      <trkpt lat="59.055026478144" lon="17.871151500637">
        <ele>18.4</ele>
        <time>2016-04-10T14:15:27Z</time>
      </trkpt>
      <trkpt lat="59.054831431331" lon="17.871205396254">
        <ele>17.8</ele>
        <time>2016-04-10T14:15:29Z</time>
      </trkpt>
      <trkpt lat="59.054733111644" lon="17.871244958822">
        <ele>16.8</ele>
        <time>2016-04-10T14:15:30Z</time>
      </trkpt>
      <trkpt lat="59.05463286412" lon="17.871274546929">
        <ele>16</ele>
        <time>2016-04-10T14:15:31Z</time>
      </trkpt>
      <trkpt lat="59.054534963528" lon="17.871303548303">
        <ele>15</ele>
        <time>2016-04-10T14:15:32Z</time>
      </trkpt>
      <trkpt lat="59.054432620529" lon="17.871317965171">
        <ele>14.2</ele>
        <time>2016-04-10T14:15:33Z</time>
      </trkpt>
      <trkpt lat="59.054325835123" lon="17.871318803361">
        <ele>13.2</ele>
        <time>2016-04-10T14:15:34Z</time>
      </trkpt>
      <trkpt lat="59.054224917047" lon="17.871311762565">
        <ele>12.4</ele>
        <time>2016-04-10T14:15:35Z</time>
      </trkpt>
      <trkpt lat="59.053823591675" lon="17.871228111203">
        <ele>12.4</ele>
        <time>2016-04-10T14:15:39Z</time>
      </trkpt>
      <trkpt lat="59.053734994992" lon="17.871143454013">
        <ele>12.4</ele>
        <time>2016-04-10T14:15:40Z</time>
      </trkpt>
      <trkpt lat="59.053622342256" lon="17.8708478244">
        <ele>12.4</ele>
        <time>2016-04-10T14:15:42Z</time>
      </trkpt>
      <trkpt lat="59.053586216267" lon="17.870325715849">
        <ele>12.4</ele>
        <time>2016-04-10T14:15:45Z</time>
      </trkpt>
      <trkpt lat="59.053562579309" lon="17.870173668183">
        <ele>12.8</ele>
        <time>2016-04-10T14:15:46Z</time>
      </trkpt>
      <trkpt lat="59.053507761683" lon="17.870053639375">
        <ele>13.2</ele>
        <time>2016-04-10T14:15:47Z</time>
      </trkpt>
      <trkpt lat="59.053430312927" lon="17.869987590003">
        <ele>13.6</ele>
        <time>2016-04-10T14:15:48Z</time>
      </trkpt>
      <trkpt lat="59.053344649909" lon="17.869975100972">
        <ele>14</ele>
        <time>2016-04-10T14:15:49Z</time>
      </trkpt>
      <trkpt lat="59.053260579452" lon="17.869998067378">
        <ele>14.4</ele>
        <time>2016-04-10T14:15:50Z</time>
      </trkpt>
      <trkpt lat="59.053091181253" lon="17.870057830325">
        <ele>14.4</ele>
        <time>2016-04-10T14:15:52Z</time>
      </trkpt>
      <trkpt lat="59.052937792483" lon="17.87009177702">
        <ele>14.4</ele>
        <time>2016-04-10T14:15:54Z</time>
      </trkpt>
      <trkpt lat="59.05276118585" lon="17.870106193888">
        <ele>14.4</ele>
        <time>2016-04-10T14:15:56Z</time>
      </trkpt>
      <trkpt lat="59.052579550077" lon="17.870124550249">
        <ele>13.8</ele>
        <time>2016-04-10T14:15:58Z</time>
      </trkpt>
      <trkpt lat="59.052499167656" lon="17.870147181379">
        <ele>13.4</ele>
        <time>2016-04-10T14:15:59Z</time>
      </trkpt>
      <trkpt lat="59.052413756095" lon="17.87015799403">
        <ele>13</ele>
        <time>2016-04-10T14:16:00Z</time>
      </trkpt>
      <trkpt lat="59.052336139701" lon="17.87014542118">
        <ele>12.4</ele>
        <time>2016-04-10T14:16:01Z</time>
      </trkpt>
      <trkpt lat="59.052258690945" lon="17.870119772566">
        <ele>12</ele>
        <time>2016-04-10T14:16:02Z</time>
      </trkpt>
      <trkpt lat="59.052026596134" lon="17.8699928706">
        <ele>12</ele>
        <time>2016-04-10T14:16:05Z</time>
      </trkpt>
      <trkpt lat="59.051887708051" lon="17.869870746317">
        <ele>12</ele>
        <time>2016-04-10T14:16:07Z</time>
      </trkpt>
      <trkpt lat="59.05182408943" lon="17.86981098337">
        <ele>12.4</ele>
        <time>2016-04-10T14:16:08Z</time>
      </trkpt>
      <trkpt lat="59.051759464981" lon="17.86974644274">
        <ele>12.8</ele>
        <time>2016-04-10T14:16:09Z</time>
      </trkpt>
      <trkpt lat="59.051697690378" lon="17.869686260698">
        <ele>13.4</ele>
        <time>2016-04-10T14:16:10Z</time>
      </trkpt>
      <trkpt lat="59.051635748137" lon="17.869632365081">
        <ele>13.8</ele>
        <time>2016-04-10T14:16:11Z</time>
      </trkpt>
      <trkpt lat="59.051573722077" lon="17.869574529971">
        <ele>14.2</ele>
        <time>2016-04-10T14:16:12Z</time>
      </trkpt>
      <trkpt lat="59.051514378225" lon="17.869519209431">
        <ele>14.2</ele>
        <time>2016-04-10T14:16:13Z</time>
      </trkpt>
      <trkpt lat="59.051165942642" lon="17.869305135705">
        <ele>14.8</ele>
        <time>2016-04-10T14:16:19Z</time>
      </trkpt>
      <trkpt lat="59.051104670953" lon="17.869271021372">
        <ele>15.4</ele>
        <time>2016-04-10T14:16:20Z</time>
      </trkpt>
      <trkpt lat="59.051041639065" lon="17.869251575364">
        <ele>16</ele>
        <time>2016-04-10T14:16:21Z</time>
      </trkpt>
      <trkpt lat="59.050977266073" lon="17.869232045537">
        <ele>16.4</ele>
        <time>2016-04-10T14:16:22Z</time>
      </trkpt>
      <trkpt lat="59.050912306348" lon="17.869217293393">
        <ele>17</ele>
        <time>2016-04-10T14:16:23Z</time>
      </trkpt>
      <trkpt lat="59.050782554536" lon="17.869161134663">
        <ele>17</ele>
        <time>2016-04-10T14:16:25Z</time>
      </trkpt>
      <trkpt lat="59.050367650486" lon="17.869095755843">
        <ele>17</ele>
        <time>2016-04-10T14:16:31Z</time>
      </trkpt>
      <trkpt lat="59.050224487634" lon="17.869109753616">
        <ele>17</ele>
        <time>2016-04-10T14:16:33Z</time>
      </trkpt>
      <trkpt lat="59.05001276084" lon="17.869220981429">
        <ele>17</ele>
        <time>2016-04-10T14:16:36Z</time>
      </trkpt>
      <trkpt lat="59.049773457595" lon="17.869479311587">
        <ele>17</ele>
        <time>2016-04-10T14:16:40Z</time>
      </trkpt>
      <trkpt lat="59.049729284982" lon="17.869559777827">
        <ele>17</ele>
        <time>2016-04-10T14:16:41Z</time>
      </trkpt>
      <trkpt lat="59.049586876501" lon="17.869884241176">
        <ele>16.6</ele>
        <time>2016-04-10T14:16:44Z</time>
      </trkpt>
      <trkpt lat="59.04953163978" lon="17.869979627198">
        <ele>16.2</ele>
        <time>2016-04-10T14:16:45Z</time>
      </trkpt>
      <trkpt lat="59.04947883381" lon="17.870085993509">
        <ele>15.8</ele>
        <time>2016-04-10T14:16:46Z</time>
      </trkpt>
      <trkpt lat="59.049428793867" lon="17.870183055911">
        <ele>15.4</ele>
        <time>2016-04-10T14:16:47Z</time>
      </trkpt>
      <trkpt lat="59.049380514123" lon="17.870284393082">
        <ele>15</ele>
        <time>2016-04-10T14:16:48Z</time>
      </trkpt>
      <trkpt lat="59.049208182259" lon="17.870559235583">
        <ele>15</ele>
        <time>2016-04-10T14:16:51Z</time>
      </trkpt>
      <trkpt lat="59.048938536536" lon="17.870788229091">
        <ele>15</ele>
        <time>2016-04-10T14:16:55Z</time>
      </trkpt>
      <trkpt lat="59.048672830306" lon="17.870983359723">
        <ele>15</ele>
        <time>2016-04-10T14:16:59Z</time>
      </trkpt>
      <trkpt lat="59.04860711621" lon="17.871042535937">
        <ele>15</ele>
        <time>2016-04-10T14:17:00Z</time>
      </trkpt>
      <trkpt lat="59.048404693325" lon="17.871233559438">
        <ele>15</ele>
        <time>2016-04-10T14:17:03Z</time>
      </trkpt>
      <trkpt lat="59.048231355633" lon="17.871480574031">
        <ele>15</ele>
        <time>2016-04-10T14:17:06Z</time>
      </trkpt>
      <trkpt lat="59.047994902234" lon="17.871979632357">
        <ele>15</ele>
        <time>2016-04-10T14:17:11Z</time>
      </trkpt>
      <trkpt lat="59.047756185722" lon="17.872507356781">
        <ele>15.4</ele>
        <time>2016-04-10T14:17:17Z</time>
      </trkpt>
      <trkpt lat="59.047718886267" lon="17.872593606532">
        <ele>16</ele>
        <time>2016-04-10T14:17:18Z</time>
      </trkpt>
      <trkpt lat="59.047679575156" lon="17.872686226527">
        <ele>16.4</ele>
        <time>2016-04-10T14:17:19Z</time>
      </trkpt>
      <trkpt lat="59.047636576009" lon="17.87278236692">
        <ele>17</ele>
        <time>2016-04-10T14:17:20Z</time>
      </trkpt>
      <trkpt lat="59.047595085604" lon="17.87288043515">
        <ele>17.4</ele>
        <time>2016-04-10T14:17:21Z</time>
      </trkpt>
      <trkpt lat="59.047463322136" lon="17.873161983171">
        <ele>17.4</ele>
        <time>2016-04-10T14:17:24Z</time>
      </trkpt>
      <trkpt lat="59.047300964733" lon="17.873572193357">
        <ele>17.4</ele>
        <time>2016-04-10T14:17:28Z</time>
      </trkpt>
      <trkpt lat="59.047240279777" lon="17.873669842492">
        <ele>17.4</ele>
        <time>2016-04-10T14:17:29Z</time>
      </trkpt>
      <trkpt lat="59.047093093613" lon="17.873970417426">
        <ele>17.4</ele>
        <time>2016-04-10T14:17:33Z</time>
      </trkpt>
      <trkpt lat="59.046971891339" lon="17.874253641827">
        <ele>17.4</ele>
        <time>2016-04-10T14:17:36Z</time>
      </trkpt>
      <trkpt lat="59.046826633012" lon="17.874575842063">
        <ele>17.4</ele>
        <time>2016-04-10T14:17:40Z</time>
      </trkpt>
      <trkpt lat="59.046741053813" lon="17.874731913041">
        <ele>17.4</ele>
        <time>2016-04-10T14:17:42Z</time>
      </trkpt>
      <trkpt lat="59.046632508208" lon="17.874896365919">
        <ele>17.4</ele>
        <time>2016-04-10T14:17:44Z</time>
      </trkpt>
      <trkpt lat="59.046586659215" lon="17.874983202403">
        <ele>17.4</ele>
        <time>2016-04-10T14:17:45Z</time>
      </trkpt>
      <trkpt lat="59.046417261016" lon="17.875221416001">
        <ele>17.4</ele>
        <time>2016-04-10T14:17:48Z</time>
      </trkpt>
      <trkpt lat="59.046284659358" lon="17.875378995721">
        <ele>17.4</ele>
        <time>2016-04-10T14:17:50Z</time>
      </trkpt>
      <trkpt lat="59.046081146826" lon="17.875574461629">
        <ele>17.4</ele>
        <time>2016-04-10T14:17:53Z</time>
      </trkpt>
      <trkpt lat="59.045875538819" lon="17.875802868404">
        <ele>17</ele>
        <time>2016-04-10T14:17:56Z</time>
      </trkpt>
      <trkpt lat="59.045812171655" lon="17.875904037937">
        <ele>16.4</ele>
        <time>2016-04-10T14:17:57Z</time>
      </trkpt>
      <trkpt lat="59.045750732328" lon="17.87602113308">
        <ele>15.4</ele>
        <time>2016-04-10T14:17:58Z</time>
      </trkpt>
      <trkpt lat="59.0456994351" lon="17.876140575155">
        <ele>15</ele>
        <time>2016-04-10T14:17:59Z</time>
      </trkpt>
      <trkpt lat="59.045600612499" lon="17.876390271956">
        <ele>15</ele>
        <time>2016-04-10T14:18:01Z</time>
      </trkpt>
      <trkpt lat="59.045544621407" lon="17.876516000456">
        <ele>15</ele>
        <time>2016-04-10T14:18:02Z</time>
      </trkpt>
      <trkpt lat="59.045424844056" lon="17.87677969503">
        <ele>14.6</ele>
        <time>2016-04-10T14:18:04Z</time>
      </trkpt>
      <trkpt lat="59.045359884331" lon="17.876909698299">
        <ele>14.2</ele>
        <time>2016-04-10T14:18:05Z</time>
      </trkpt>
      <trkpt lat="59.045295008425" lon="17.877043138147">
        <ele>13.6</ele>
        <time>2016-04-10T14:18:06Z</time>
      </trkpt>
      <trkpt lat="59.045224935741" lon="17.877164591878">
        <ele>13.2</ele>
        <time>2016-04-10T14:18:07Z</time>
      </trkpt>
      <trkpt lat="59.0451546116" lon="17.877286548523">
        <ele>12.6</ele>
        <time>2016-04-10T14:18:08Z</time>
      </trkpt>
      <trkpt lat="59.045085712382" lon="17.877400877639">
        <ele>12</ele>
        <time>2016-04-10T14:18:09Z</time>
      </trkpt>
      <trkpt lat="59.045015723517" lon="17.87751394947">
        <ele>11.4</ele>
        <time>2016-04-10T14:18:10Z</time>
      </trkpt>
      <trkpt lat="59.044940286417" lon="17.877609586949">
        <ele>10.8</ele>
        <time>2016-04-10T14:18:11Z</time>
      </trkpt>
      <trkpt lat="59.044866609516" lon="17.877705643523">
        <ele>10.2</ele>
        <time>2016-04-10T14:18:12Z</time>
      </trkpt>
      <trkpt lat="59.044788154932" lon="17.877804214667">
        <ele>9.8</ele>
        <time>2016-04-10T14:18:13Z</time>
      </trkpt>
      <trkpt lat="59.044706096131" lon="17.877904294553">
        <ele>9.2</ele>
        <time>2016-04-10T14:18:14Z</time>
      </trkpt>
      <trkpt lat="59.044631161945" lon="17.878004458258">
        <ele>8.8</ele>
        <time>2016-04-10T14:18:15Z</time>
      </trkpt>
      <trkpt lat="59.044554048465" lon="17.878098335538">
        <ele>8.2</ele>
        <time>2016-04-10T14:18:16Z</time>
      </trkpt>
      <trkpt lat="59.044190860738" lon="17.87855665783">
        <ele>8.2</ele>
        <time>2016-04-10T14:18:21Z</time>
      </trkpt>
      <trkpt lat="59.044112657611" lon="17.878627149609">
        <ele>8.2</ele>
        <time>2016-04-10T14:18:22Z</time>
      </trkpt>
      <trkpt lat="59.043857428756" lon="17.878757320516">
        <ele>8.2</ele>
        <time>2016-04-10T14:18:25Z</time>
      </trkpt>
      <trkpt lat="59.043679816295" lon="17.878858909144">
        <ele>7.8</ele>
        <time>2016-04-10T14:18:27Z</time>
      </trkpt>
      <trkpt lat="59.043592644535" lon="17.878920683747">
        <ele>7.4</ele>
        <time>2016-04-10T14:18:28Z</time>
      </trkpt>
      <trkpt lat="59.043498180522" lon="17.878994528286">
        <ele>7</ele>
        <time>2016-04-10T14:18:29Z</time>
      </trkpt>
      <trkpt lat="59.043408326554" lon="17.879055632337">
        <ele>6.4</ele>
        <time>2016-04-10T14:18:30Z</time>
      </trkpt>
      <trkpt lat="59.043319143138" lon="17.879124615374">
        <ele>6</ele>
        <time>2016-04-10T14:18:31Z</time>
      </trkpt>
      <trkpt lat="59.043225601134" lon="17.879204327243">
        <ele>5.4</ele>
        <time>2016-04-10T14:18:32Z</time>
      </trkpt>
      <trkpt lat="59.043139686659" lon="17.879310358278">
        <ele>4.6</ele>
        <time>2016-04-10T14:18:33Z</time>
      </trkpt>
      <trkpt lat="59.043055197107" lon="17.879430135629">
        <ele>4</ele>
        <time>2016-04-10T14:18:34Z</time>
      </trkpt>
      <trkpt lat="59.042976910161" lon="17.879555109758">
        <ele>3.2</ele>
        <time>2016-04-10T14:18:35Z</time>
      </trkpt>
      <trkpt lat="59.042892085333" lon="17.879691986185">
        <ele>2.4</ele>
        <time>2016-04-10T14:18:36Z</time>
      </trkpt>
      <trkpt lat="59.042822431744" lon="17.879851829018">
        <ele>1.6</ele>
        <time>2016-04-10T14:18:37Z</time>
      </trkpt>
      <trkpt lat="59.042763926082" lon="17.880020891941">
        <ele>0.8</ele>
        <time>2016-04-10T14:18:38Z</time>
      </trkpt>
      <trkpt lat="59.042709359913" lon="17.880193223805">
        <ele>0</ele>
        <time>2016-04-10T14:18:39Z</time>
      </trkpt>
      <trkpt lat="59.042654961382" lon="17.880364549841">
        <ele>0</ele>
        <time>2016-04-10T14:18:40Z</time>
      </trkpt>
      <trkpt lat="59.042602825964" lon="17.880542581397">
        <ele>0</ele>
        <time>2016-04-10T14:18:41Z</time>
      </trkpt>
      <trkpt lat="59.042550439089" lon="17.880711309044">
        <ele>0</ele>
        <time>2016-04-10T14:18:42Z</time>
      </trkpt>
      <trkpt lat="59.042496962567" lon="17.88089436974">
        <ele>0</ele>
        <time>2016-04-10T14:18:43Z</time>
      </trkpt>
      <trkpt lat="59.04244893428" lon="17.881075586418">
        <ele>0</ele>
        <time>2016-04-10T14:18:44Z</time>
      </trkpt>
      <trkpt lat="59.042403001468" lon="17.881235932165">
        <ele>0</ele>
        <time>2016-04-10T14:18:45Z</time>
      </trkpt>
      <trkpt lat="59.042353212982" lon="17.881399211577">
        <ele>0</ele>
        <time>2016-04-10T14:18:46Z</time>
      </trkpt>
      <trkpt lat="59.042305100876" lon="17.88156240717">
        <ele>0</ele>
        <time>2016-04-10T14:18:47Z</time>
      </trkpt>
      <trkpt lat="59.042258162236" lon="17.881724596935">
        <ele>0</ele>
        <time>2016-04-10T14:18:48Z</time>
      </trkpt>
      <trkpt lat="59.042021373561" lon="17.882562200202">
        <ele>0</ele>
        <time>2016-04-10T14:18:53Z</time>
      </trkpt>
      <trkpt lat="59.041971920351" lon="17.882734532066">
        <ele>0</ele>
        <time>2016-04-10T14:18:54Z</time>
      </trkpt>
      <trkpt lat="59.041923724426" lon="17.882905355188">
        <ele>0</ele>
        <time>2016-04-10T14:18:55Z</time>
      </trkpt>
      <trkpt lat="59.041874941768" lon="17.883076765043">
        <ele>0</ele>
        <time>2016-04-10T14:18:56Z</time>
      </trkpt>
      <trkpt lat="59.041825991472" lon="17.883246582337">
        <ele>0</ele>
        <time>2016-04-10T14:18:57Z</time>
      </trkpt>
      <trkpt lat="59.041777292633" lon="17.883409191197">
        <ele>0</ele>
        <time>2016-04-10T14:18:58Z</time>
      </trkpt>
      <trkpt lat="59.041682158068" lon="17.883737258763">
        <ele>0</ele>
        <time>2016-04-10T14:19:00Z</time>
      </trkpt>
      <trkpt lat="59.041430952525" lon="17.884630601665">
        <ele>0</ele>
        <time>2016-04-10T14:19:06Z</time>
      </trkpt>
      <trkpt lat="59.041392563423" lon="17.884766220807">
        <ele>0</ele>
        <time>2016-04-10T14:19:07Z</time>
      </trkpt>
      <trkpt lat="59.041251831322" lon="17.885453788064">
        <ele>0</ele>
        <time>2016-04-10T14:19:12Z</time>
      </trkpt>
      <trkpt lat="59.041228026726" lon="17.885601309504">
        <ele>0</ele>
        <time>2016-04-10T14:19:13Z</time>
      </trkpt>
      <trkpt lat="59.041204138311" lon="17.885764756554">
        <ele>0</ele>
        <time>2016-04-10T14:19:14Z</time>
      </trkpt>
      <trkpt lat="59.041181339543" lon="17.885918648238">
        <ele>0</ele>
        <time>2016-04-10T14:19:15Z</time>
      </trkpt>
      <trkpt lat="59.041049324618" lon="17.886810230941">
        <ele>0</ele>
        <time>2016-04-10T14:19:21Z</time>
      </trkpt>
      <trkpt lat="59.04102401128" lon="17.886946604454">
        <ele>0</ele>
        <time>2016-04-10T14:19:22Z</time>
      </trkpt>
      <trkpt lat="59.040958045727" lon="17.887452116843">
        <ele>0</ele>
        <time>2016-04-10T14:19:26Z</time>
      </trkpt>
      <trkpt lat="59.040925859231" lon="17.887942290355">
        <ele>0</ele>
        <time>2016-04-10T14:19:30Z</time>
      </trkpt>
      <trkpt lat="59.040920997729" lon="17.888216043209">
        <ele>0</ele>
        <time>2016-04-10T14:19:32Z</time>
      </trkpt>
      <trkpt lat="59.040911610001" lon="17.889148110489">
        <ele>0</ele>
        <time>2016-04-10T14:19:38Z</time>
      </trkpt>
      <trkpt lat="59.040912196734" lon="17.889462264101">
        <ele>0</ele>
        <time>2016-04-10T14:19:40Z</time>
      </trkpt>
      <trkpt lat="59.040910687992" lon="17.889617077794">
        <ele>0</ele>
        <time>2016-04-10T14:19:41Z</time>
      </trkpt>
      <trkpt lat="59.040909933621" lon="17.889772729677">
        <ele>0</ele>
        <time>2016-04-10T14:19:42Z</time>
      </trkpt>
      <trkpt lat="59.040907335232" lon="17.889927208094">
        <ele>0</ele>
        <time>2016-04-10T14:19:43Z</time>
      </trkpt>
      <trkpt lat="59.040902557549" lon="17.890088727307">
        <ele>0</ele>
        <time>2016-04-10T14:19:44Z</time>
      </trkpt>
      <trkpt lat="59.040897947504" lon="17.890390643345">
        <ele>0</ele>
        <time>2016-04-10T14:19:46Z</time>
      </trkpt>
      <trkpt lat="59.040889481785" lon="17.891557320006">
        <ele>0</ele>
        <time>2016-04-10T14:19:54Z</time>
      </trkpt>
      <trkpt lat="59.040888392138" lon="17.891700901953">
        <ele>0</ele>
        <time>2016-04-10T14:19:55Z</time>
      </trkpt>
      <trkpt lat="59.04087397527" lon="17.892793650256">
        <ele>0</ele>
        <time>2016-04-10T14:20:03Z</time>
      </trkpt>
      <trkpt lat="59.040861486239" lon="17.893849518199">
        <ele>0</ele>
        <time>2016-04-10T14:20:11Z</time>
      </trkpt>
      <trkpt lat="59.040847572285" lon="17.894887616514">
        <ele>0</ele>
        <time>2016-04-10T14:20:19Z</time>
      </trkpt>
      <trkpt lat="59.040842291688" lon="17.89522155141">
        <ele>0</ele>
        <time>2016-04-10T14:20:22Z</time>
      </trkpt>
      <trkpt lat="59.040837514005" lon="17.895316518337">
        <ele>0</ele>
        <time>2016-04-10T14:20:23Z</time>
      </trkpt>
      <trkpt lat="59.04084212405" lon="17.895410311798">
        <ele>0</ele>
        <time>2016-04-10T14:20:24Z</time>
      </trkpt>
      <trkpt lat="59.040849081027" lon="17.895499159938">
        <ele>0</ele>
        <time>2016-04-10T14:20:25Z</time>
      </trkpt>
      <trkpt lat="59.040852433787" lon="17.89558364949">
        <ele>0</ele>
        <time>2016-04-10T14:20:26Z</time>
      </trkpt>
      <trkpt lat="59.040851176502" lon="17.895661517341">
        <ele>0</ele>
        <time>2016-04-10T14:20:27Z</time>
      </trkpt>
      <trkpt lat="59.040850422131" lon="17.895741145391">
        <ele>0</ele>
        <time>2016-04-10T14:20:28Z</time>
      </trkpt>
      <trkpt lat="59.040849919217" lon="17.895823455649">
        <ele>0</ele>
        <time>2016-04-10T14:20:29Z</time>
      </trkpt>
      <trkpt lat="59.040842710783" lon="17.895913980169">
        <ele>0</ele>
        <time>2016-04-10T14:20:30Z</time>
      </trkpt>
      <trkpt lat="59.040835502349" lon="17.895995955151">
        <ele>0</ele>
        <time>2016-04-10T14:20:31Z</time>
      </trkpt>
      <trkpt lat="59.040831562856" lon="17.896152529043">
        <ele>0</ele>
        <time>2016-04-10T14:20:33Z</time>
      </trkpt>
      <trkpt lat="59.040826366078" lon="17.89645704347">
        <ele>0</ele>
        <time>2016-04-10T14:20:36Z</time>
      </trkpt>
      <trkpt lat="59.040827539544" lon="17.897031287439">
        <ele>0</ele>
        <time>2016-04-10T14:20:41Z</time>
      </trkpt>
      <trkpt lat="59.040819241463" lon="17.897931754956">
        <ele>0</ele>
        <time>2016-04-10T14:20:49Z</time>
      </trkpt>
      <trkpt lat="59.040809267002" lon="17.898577245075">
        <ele>0</ele>
        <time>2016-04-10T14:20:56Z</time>
      </trkpt>
      <trkpt lat="59.040807590622" lon="17.898666344672">
        <ele>0</ele>
        <time>2016-04-10T14:20:57Z</time>
      </trkpt>
      <trkpt lat="59.040804321681" lon="17.898762987979">
        <ele>0</ele>
        <time>2016-04-10T14:20:58Z</time>
      </trkpt>
      <trkpt lat="59.040807003889" lon="17.898862481132">
        <ele>0</ele>
        <time>2016-04-10T14:20:59Z</time>
      </trkpt>
      <trkpt lat="59.040805578966" lon="17.898964405036">
        <ele>0</ele>
        <time>2016-04-10T14:21:00Z</time>
      </trkpt>
      <trkpt lat="59.040799711636" lon="17.899262716857">
        <ele>0</ele>
        <time>2016-04-10T14:21:03Z</time>
      </trkpt>
      <trkpt lat="59.040741205974" lon="17.899925641328">
        <ele>0</ele>
        <time>2016-04-10T14:21:09Z</time>
      </trkpt>
      <trkpt lat="59.040649507988" lon="17.900696776128">
        <ele>0</ele>
        <time>2016-04-10T14:21:15Z</time>
      </trkpt>
      <trkpt lat="59.040489078422" lon="17.90179966653">
        <ele>0</ele>
        <time>2016-04-10T14:21:23Z</time>
      </trkpt>
      <trkpt lat="59.040473823364" lon="17.90193042417">
        <ele>0</ele>
        <time>2016-04-10T14:21:24Z</time>
      </trkpt>
      <trkpt lat="59.040455550822" lon="17.902058164326">
        <ele>0</ele>
        <time>2016-04-10T14:21:25Z</time>
      </trkpt>
      <trkpt lat="59.040435434262" lon="17.90218858669">
        <ele>0</ele>
        <time>2016-04-10T14:21:26Z</time>
      </trkpt>
      <trkpt lat="59.040414730969" lon="17.90232102071">
        <ele>0</ele>
        <time>2016-04-10T14:21:27Z</time>
      </trkpt>
      <trkpt lat="59.040383215025" lon="17.902576417203">
        <ele>0</ele>
        <time>2016-04-10T14:21:29Z</time>
      </trkpt>
      <trkpt lat="59.040364523388" lon="17.902708348309">
        <ele>0</ele>
        <time>2016-04-10T14:21:30Z</time>
      </trkpt>
      <trkpt lat="59.040347843407" lon="17.902829299126">
        <ele>0</ele>
        <time>2016-04-10T14:21:31Z</time>
      </trkpt>
      <trkpt lat="59.040329487046" lon="17.90294966321">
        <ele>0</ele>
        <time>2016-04-10T14:21:32Z</time>
      </trkpt>
      <trkpt lat="59.040313477617" lon="17.903066590715">
        <ele>0</ele>
        <time>2016-04-10T14:21:33Z</time>
      </trkpt>
      <trkpt lat="59.040277854542" lon="17.903297847336">
        <ele>0</ele>
        <time>2016-04-10T14:21:35Z</time>
      </trkpt>
      <trkpt lat="59.040263018579" lon="17.903410919167">
        <ele>0</ele>
        <time>2016-04-10T14:21:36Z</time>
      </trkpt>
      <trkpt lat="59.040247092969" lon="17.903527092301">
        <ele>0</ele>
        <time>2016-04-10T14:21:37Z</time>
      </trkpt>
      <trkpt lat="59.040223707468" lon="17.90364871367">
        <ele>0</ele>
        <time>2016-04-10T14:21:38Z</time>
      </trkpt>
      <trkpt lat="59.040208368591" lon="17.903762288415">
        <ele>0</ele>
        <time>2016-04-10T14:21:39Z</time>
      </trkpt>
      <trkpt lat="59.04012798617" lon="17.904343321723">
        <ele>0</ele>
        <time>2016-04-10T14:21:44Z</time>
      </trkpt>
      <trkpt lat="59.040119771908" lon="17.904448933663">
        <ele>0</ele>
        <time>2016-04-10T14:21:45Z</time>
      </trkpt>
      <trkpt lat="59.040065624834" lon="17.904729559675">
        <ele>0</ele>
        <time>2016-04-10T14:21:48Z</time>
      </trkpt>
      <trkpt lat="59.040040060039" lon="17.904911866">
        <ele>0</ele>
        <time>2016-04-10T14:21:50Z</time>
      </trkpt>
      <trkpt lat="59.040029331207" lon="17.905006413832">
        <ele>0</ele>
        <time>2016-04-10T14:21:51Z</time>
      </trkpt>
      <trkpt lat="59.040014243787" lon="17.905093585592">
        <ele>0</ele>
        <time>2016-04-10T14:21:52Z</time>
      </trkpt>
      <trkpt lat="59.040006364801" lon="17.905182517551">
        <ele>0</ele>
        <time>2016-04-10T14:21:53Z</time>
      </trkpt>
      <trkpt lat="59.039993121399" lon="17.905267342379">
        <ele>0</ele>
        <time>2016-04-10T14:21:54Z</time>
      </trkpt>
      <trkpt lat="59.039980716187" lon="17.905344791135">
        <ele>0</ele>
        <time>2016-04-10T14:21:55Z</time>
      </trkpt>
      <trkpt lat="59.039958001238" lon="17.905502203217">
        <ele>0</ele>
        <time>2016-04-10T14:21:57Z</time>
      </trkpt>
      <trkpt lat="59.039948278234" lon="17.905572946453">
        <ele>0</ele>
        <time>2016-04-10T14:21:58Z</time>
      </trkpt>
      <trkpt lat="59.039945679845" lon="17.905648048277">
        <ele>0</ele>
        <time>2016-04-10T14:21:59Z</time>
      </trkpt>
      <trkpt lat="59.039934699556" lon="17.905727341051">
        <ele>0.4</ele>
        <time>2016-04-10T14:22:00Z</time>
      </trkpt>
      <trkpt lat="59.039930592425" lon="17.905818536123">
        <ele>0.8</ele>
        <time>2016-04-10T14:22:01Z</time>
      </trkpt>
      <trkpt lat="59.039931765891" lon="17.905906126978">
        <ele>1.2</ele>
        <time>2016-04-10T14:22:02Z</time>
      </trkpt>
      <trkpt lat="59.03993939342" lon="17.905996400041">
        <ele>1.8</ele>
        <time>2016-04-10T14:22:03Z</time>
      </trkpt>
      <trkpt lat="59.039947272406" lon="17.906089690588">
        <ele>2.6</ele>
        <time>2016-04-10T14:22:04Z</time>
      </trkpt>
      <trkpt lat="59.039960767265" lon="17.906179376918">
        <ele>3</ele>
        <time>2016-04-10T14:22:05Z</time>
      </trkpt>
      <trkpt lat="59.039976525237" lon="17.906271745456">
        <ele>3</ele>
        <time>2016-04-10T14:22:06Z</time>
      </trkpt>
      <trkpt lat="59.040037042555" lon="17.906533596012">
        <ele>3</ele>
        <time>2016-04-10T14:22:09Z</time>
      </trkpt>
      <trkpt lat="59.040088507421" lon="17.906674328113">
        <ele>3.4</ele>
        <time>2016-04-10T14:22:11Z</time>
      </trkpt>
      <trkpt lat="59.040118933718" lon="17.906735013069">
        <ele>3.8</ele>
        <time>2016-04-10T14:22:12Z</time>
      </trkpt>
      <trkpt lat="59.040140139925" lon="17.906814641119">
        <ele>4.2</ele>
        <time>2016-04-10T14:22:13Z</time>
      </trkpt>
      <trkpt lat="59.040172661697" lon="17.906890664952">
        <ele>4.8</ele>
        <time>2016-04-10T14:22:14Z</time>
      </trkpt>
      <trkpt lat="59.040195628103" lon="17.906969790088">
        <ele>5.2</ele>
        <time>2016-04-10T14:22:15Z</time>
      </trkpt>
      <trkpt lat="59.040217337224" lon="17.907049753414">
        <ele>5.2</ele>
        <time>2016-04-10T14:22:16Z</time>
      </trkpt>
      <trkpt lat="59.040291600858" lon="17.907294672532">
        <ele>5.2</ele>
        <time>2016-04-10T14:22:19Z</time>
      </trkpt>
      <trkpt lat="59.040359494248" lon="17.907547554455">
        <ele>5.2</ele>
        <time>2016-04-10T14:22:22Z</time>
      </trkpt>
      <trkpt lat="59.040466279654" lon="17.907894900391">
        <ele>5.2</ele>
        <time>2016-04-10T14:22:26Z</time>
      </trkpt>
      <trkpt lat="59.040516235778" lon="17.908066310246">
        <ele>5.2</ele>
        <time>2016-04-10T14:22:28Z</time>
      </trkpt>
      <trkpt lat="59.040581111684" lon="17.908263368715">
        <ele>5.2</ele>
        <time>2016-04-10T14:22:30Z</time>
      </trkpt>
      <trkpt lat="59.040678677" lon="17.90856805078">
        <ele>5.2</ele>
        <time>2016-04-10T14:22:33Z</time>
      </trkpt>
      <trkpt lat="59.040734081359" lon="17.908804252722">
        <ele>5.2</ele>
        <time>2016-04-10T14:22:35Z</time>
      </trkpt>
      <trkpt lat="59.040860396592" lon="17.909310435663">
        <ele>5.2</ele>
        <time>2016-04-10T14:22:39Z</time>
      </trkpt>
      <trkpt lat="59.040889146509" lon="17.909427446987">
        <ele>4.6</ele>
        <time>2016-04-10T14:22:40Z</time>
      </trkpt>
      <trkpt lat="59.040920494815" lon="17.909542781931">
        <ele>4.2</ele>
        <time>2016-04-10T14:22:41Z</time>
      </trkpt>
      <trkpt lat="59.040947568352" lon="17.909657278685">
        <ele>3.6</ele>
        <time>2016-04-10T14:22:42Z</time>
      </trkpt>
      <trkpt lat="59.040975815355" lon="17.909768255041">
        <ele>3.2</ele>
        <time>2016-04-10T14:22:43Z</time>
      </trkpt>
      <trkpt lat="59.040991908603" lon="17.909882667976">
        <ele>2.8</ele>
        <time>2016-04-10T14:22:44Z</time>
      </trkpt>
      <trkpt lat="59.041023508366" lon="17.909994817798">
        <ele>2.8</ele>
        <time>2016-04-10T14:22:45Z</time>
      </trkpt>
      <trkpt lat="59.041100035113" lon="17.91036764471">
        <ele>2.8</ele>
        <time>2016-04-10T14:22:48Z</time>
      </trkpt>
      <trkpt lat="59.041220063921" lon="17.911104497539">
        <ele>2.8</ele>
        <time>2016-04-10T14:22:54Z</time>
      </trkpt>
      <trkpt lat="59.041319976169" lon="17.911867920991">
        <ele>2.8</ele>
        <time>2016-04-10T14:23:00Z</time>
      </trkpt>
      <trkpt lat="59.041362137126" lon="17.912602175431">
        <ele>2.8</ele>
        <time>2016-04-10T14:23:05Z</time>
      </trkpt>
      <trkpt lat="59.041390216491" lon="17.912842987418">
        <ele>3.2</ele>
        <time>2016-04-10T14:23:07Z</time>
      </trkpt>
      <trkpt lat="59.041392144328" lon="17.912959747285">
        <ele>3.6</ele>
        <time>2016-04-10T14:23:08Z</time>
      </trkpt>
      <trkpt lat="59.041386444636" lon="17.913065191587">
        <ele>4.2</ele>
        <time>2016-04-10T14:23:09Z</time>
      </trkpt>
      <trkpt lat="59.041377811279" lon="17.913184717481">
        <ele>4.6</ele>
        <time>2016-04-10T14:23:10Z</time>
      </trkpt>
      <trkpt lat="59.04136096366" lon="17.91329711876">
        <ele>5</ele>
        <time>2016-04-10T14:23:11Z</time>
      </trkpt>
      <trkpt lat="59.041260213222" lon="17.913654439157">
        <ele>5</ele>
        <time>2016-04-10T14:23:14Z</time>
      </trkpt>
      <trkpt lat="59.041217381713" lon="17.913786286444">
        <ele>5</ele>
        <time>2016-04-10T14:23:15Z</time>
      </trkpt>
      <trkpt lat="59.041079164182" lon="17.91418560016">
        <ele>5</ele>
        <time>2016-04-10T14:23:18Z</time>
      </trkpt>
      <trkpt lat="59.040789569537" lon="17.914997638632">
        <ele>5</ele>
        <time>2016-04-10T14:23:24Z</time>
      </trkpt>
      <trkpt lat="59.040455383184" lon="17.915896932683">
        <ele>5</ele>
        <time>2016-04-10T14:23:31Z</time>
      </trkpt>
      <trkpt lat="59.040199902872" lon="17.916564970113">
        <ele>5</ele>
        <time>2016-04-10T14:23:36Z</time>
      </trkpt>
      <trkpt lat="59.040098733339" lon="17.916836543673">
        <ele>5</ele>
        <time>2016-04-10T14:23:38Z</time>
      </trkpt>
      <trkpt lat="59.04002824156" lon="17.917094538555">
        <ele>5</ele>
        <time>2016-04-10T14:23:40Z</time>
      </trkpt>
      <trkpt lat="59.039956660134" lon="17.917314647249">
        <ele>5</ele>
        <time>2016-04-10T14:23:42Z</time>
      </trkpt>
      <trkpt lat="59.039802265536" lon="17.91770935092">
        <ele>4.6</ele>
        <time>2016-04-10T14:23:45Z</time>
      </trkpt>
      <trkpt lat="59.039747028815" lon="17.917839605646">
        <ele>4.2</ele>
        <time>2016-04-10T14:23:46Z</time>
      </trkpt>
      <trkpt lat="59.039688020239" lon="17.917970614743">
        <ele>3.8</ele>
        <time>2016-04-10T14:23:47Z</time>
      </trkpt>
      <trkpt lat="59.039624150161" lon="17.918100115098">
        <ele>3.4</ele>
        <time>2016-04-10T14:23:48Z</time>
      </trkpt>
      <trkpt lat="59.039558100789" lon="17.91821897044">
        <ele>2.8</ele>
        <time>2016-04-10T14:23:49Z</time>
      </trkpt>
      <trkpt lat="59.03948090349" lon="17.918340843266">
        <ele>2.2</ele>
        <time>2016-04-10T14:23:50Z</time>
      </trkpt>
      <trkpt lat="59.039404209105" lon="17.918473361105">
        <ele>1.6</ele>
        <time>2016-04-10T14:23:51Z</time>
      </trkpt>
      <trkpt lat="59.039325251607" lon="17.918607387686">
        <ele>0.8</ele>
        <time>2016-04-10T14:23:52Z</time>
      </trkpt>
      <trkpt lat="59.039240929693" lon="17.918750215262">
        <ele>0.2</ele>
        <time>2016-04-10T14:23:53Z</time>
      </trkpt>
      <trkpt lat="59.039169515905" lon="17.918864292921">
        <ele>0</ele>
        <time>2016-04-10T14:23:54Z</time>
      </trkpt>
      <trkpt lat="59.039097096289" lon="17.918974850182">
        <ele>0</ele>
        <time>2016-04-10T14:23:55Z</time>
      </trkpt>
      <trkpt lat="59.039025850139" lon="17.91909320261">
        <ele>0</ele>
        <time>2016-04-10T14:23:56Z</time>
      </trkpt>
      <trkpt lat="59.038766346515" lon="17.919539371147">
        <ele>0</ele>
        <time>2016-04-10T14:24:00Z</time>
      </trkpt>
      <trkpt lat="59.038709433414" lon="17.919666692208">
        <ele>0</ele>
        <time>2016-04-10T14:24:01Z</time>
      </trkpt>
      <trkpt lat="59.038642462033" lon="17.919979756173">
        <ele>0</ele>
        <time>2016-04-10T14:24:03Z</time>
      </trkpt>
      <trkpt lat="59.03865444815" lon="17.920528686804">
        <ele>0</ele>
        <time>2016-04-10T14:24:06Z</time>
      </trkpt>
      <trkpt lat="59.038665009344" lon="17.920727505472">
        <ele>0</ele>
        <time>2016-04-10T14:24:07Z</time>
      </trkpt>
      <trkpt lat="59.03867791747" lon="17.920932862022">
        <ele>0</ele>
        <time>2016-04-10T14:24:08Z</time>
      </trkpt>
      <trkpt lat="59.03869132851" lon="17.921119191659">
        <ele>0</ele>
        <time>2016-04-10T14:24:09Z</time>
      </trkpt>
      <trkpt lat="59.038698453125" lon="17.921313987015">
        <ele>0</ele>
        <time>2016-04-10T14:24:10Z</time>
      </trkpt>
      <trkpt lat="59.038708595224" lon="17.921502328308">
        <ele>0</ele>
        <time>2016-04-10T14:24:11Z</time>
      </trkpt>
      <trkpt lat="59.038719324056" lon="17.921681700968">
        <ele>0</ele>
        <time>2016-04-10T14:24:12Z</time>
      </trkpt>
      <trkpt lat="59.038733154191" lon="17.921849338968">
        <ele>0</ele>
        <time>2016-04-10T14:24:13Z</time>
      </trkpt>
      <trkpt lat="59.03877263294" lon="17.922527937592">
        <ele>0</ele>
        <time>2016-04-10T14:24:17Z</time>
      </trkpt>
      <trkpt lat="59.038857625406" lon="17.923691429131">
        <ele>0</ele>
        <time>2016-04-10T14:24:24Z</time>
      </trkpt>
      <trkpt lat="59.038880088898" lon="17.924023017095">
        <ele>0</ele>
        <time>2016-04-10T14:24:26Z</time>
      </trkpt>
      <trkpt lat="59.038946808822" lon="17.924913258694">
        <ele>0</ele>
        <time>2016-04-10T14:24:32Z</time>
      </trkpt>
      <trkpt lat="59.038956364188" lon="17.925165386246">
        <ele>0</ele>
        <time>2016-04-10T14:24:34Z</time>
      </trkpt>
      <trkpt lat="59.038959297853" lon="17.925291030927">
        <ele>0</ele>
        <time>2016-04-10T14:24:35Z</time>
      </trkpt>
      <trkpt lat="59.038961309509" lon="17.925415837418">
        <ele>0</ele>
        <time>2016-04-10T14:24:36Z</time>
      </trkpt>
      <trkpt lat="59.038961896242" lon="17.925538632253">
        <ele>0</ele>
        <time>2016-04-10T14:24:37Z</time>
      </trkpt>
      <trkpt lat="59.038959968405" lon="17.925664863667">
        <ele>0</ele>
        <time>2016-04-10T14:24:38Z</time>
      </trkpt>
      <trkpt lat="59.038952676152" lon="17.925792436185">
        <ele>0</ele>
        <time>2016-04-10T14:24:39Z</time>
      </trkpt>
      <trkpt lat="59.038939348931" lon="17.925921601264">
        <ele>0</ele>
        <time>2016-04-10T14:24:40Z</time>
      </trkpt>
      <trkpt lat="59.03887153936" lon="17.926301552791">
        <ele>0</ele>
        <time>2016-04-10T14:24:43Z</time>
      </trkpt>
      <trkpt lat="59.03883884995" lon="17.926418731753">
        <ele>0</ele>
        <time>2016-04-10T14:24:44Z</time>
      </trkpt>
      <trkpt lat="59.038622345473" lon="17.927172935115">
        <ele>0</ele>
        <time>2016-04-10T14:24:51Z</time>
      </trkpt>
      <trkpt lat="59.038546824554" lon="17.927376363828">
        <ele>0</ele>
        <time>2016-04-10T14:24:53Z</time>
      </trkpt>
      <trkpt lat="59.03850608852" lon="17.927482227225">
        <ele>0</ele>
        <time>2016-04-10T14:24:54Z</time>
      </trkpt>
      <trkpt lat="59.03846501721" lon="17.927593035943">
        <ele>0</ele>
        <time>2016-04-10T14:24:55Z</time>
      </trkpt>
      <trkpt lat="59.038425957556" lon="17.927702419738">
        <ele>0</ele>
        <time>2016-04-10T14:24:56Z</time>
      </trkpt>
      <trkpt lat="59.038385137703" lon="17.927809875696">
        <ele>0</ele>
        <time>2016-04-10T14:24:57Z</time>
      </trkpt>
      <trkpt lat="59.038340797452" lon="17.927907441012">
        <ele>0</ele>
        <time>2016-04-10T14:24:58Z</time>
      </trkpt>
      <trkpt lat="59.038248009819" lon="17.928082455084">
        <ele>0</ele>
        <time>2016-04-10T14:25:00Z</time>
      </trkpt>
      <trkpt lat="59.038075426498" lon="17.928417982541">
        <ele>0</ele>
        <time>2016-04-10T14:25:04Z</time>
      </trkpt>
      <trkpt lat="59.038034522826" lon="17.928504567568">
        <ele>0</ele>
        <time>2016-04-10T14:25:05Z</time>
      </trkpt>
      <trkpt lat="59.037735708091" lon="17.929059030253">
        <ele>0</ele>
        <time>2016-04-10T14:25:11Z</time>
      </trkpt>
      <trkpt lat="59.037431696578" lon="17.929562950081">
        <ele>0</ele>
        <time>2016-04-10T14:25:16Z</time>
      </trkpt>
      <trkpt lat="59.037274033039" lon="17.929747603338">
        <ele>0</ele>
        <time>2016-04-10T14:25:18Z</time>
      </trkpt>
      <trkpt lat="59.037194656446" lon="17.929823962447">
        <ele>0</ele>
        <time>2016-04-10T14:25:19Z</time>
      </trkpt>
      <trkpt lat="59.037117040052" lon="17.929894621864">
        <ele>0</ele>
        <time>2016-04-10T14:25:20Z</time>
      </trkpt>
      <trkpt lat="59.037039004563" lon="17.929962766711">
        <ele>0</ele>
        <time>2016-04-10T14:25:21Z</time>
      </trkpt>
      <trkpt lat="59.03696130435" lon="17.930021691468">
        <ele>0</ele>
        <time>2016-04-10T14:25:22Z</time>
      </trkpt>
      <trkpt lat="59.036884023232" lon="17.930070893221">
        <ele>0</ele>
        <time>2016-04-10T14:25:23Z</time>
      </trkpt>
      <trkpt lat="59.036806323019" lon="17.930111293979">
        <ele>0</ele>
        <time>2016-04-10T14:25:24Z</time>
      </trkpt>
      <trkpt lat="59.036724264218" lon="17.930140462991">
        <ele>0</ele>
        <time>2016-04-10T14:25:25Z</time>
      </trkpt>
      <trkpt lat="59.036304917761" lon="17.930188491278">
        <ele>0</ele>
        <time>2016-04-10T14:25:30Z</time>
      </trkpt>
      <trkpt lat="59.035906526054" lon="17.930228892036">
        <ele>0</ele>
        <time>2016-04-10T14:25:35Z</time>
      </trkpt>
      <trkpt lat="59.035425404994" lon="17.930271891183">
        <ele>0</ele>
        <time>2016-04-10T14:25:41Z</time>
      </trkpt>
      <trkpt lat="59.035346782772" lon="17.930282452377">
        <ele>0</ele>
        <time>2016-04-10T14:25:42Z</time>
      </trkpt>
      <trkpt lat="59.035264975428" lon="17.930291085734">
        <ele>0</ele>
        <time>2016-04-10T14:25:43Z</time>
      </trkpt>
      <trkpt lat="59.03518517974" lon="17.930303490946">
        <ele>0</ele>
        <time>2016-04-10T14:25:44Z</time>
      </trkpt>
      <trkpt lat="59.03510387531" lon="17.930317321081">
        <ele>0</ele>
        <time>2016-04-10T14:25:45Z</time>
      </trkpt>
      <trkpt lat="59.034700370644" lon="17.93034925612">
        <ele>0</ele>
        <time>2016-04-10T14:25:50Z</time>
      </trkpt>
      <trkpt lat="59.034483363253" lon="17.930362415703">
        <ele>0</ele>
        <time>2016-04-10T14:25:53Z</time>
      </trkpt>
      <trkpt lat="59.03441153037" lon="17.930365014092">
        <ele>0</ele>
        <time>2016-04-10T14:25:54Z</time>
      </trkpt>
      <trkpt lat="59.034341709143" lon="17.930353782346">
        <ele>0</ele>
        <time>2016-04-10T14:25:55Z</time>
      </trkpt>
      <trkpt lat="59.034272642287" lon="17.930333498148">
        <ele>0</ele>
        <time>2016-04-10T14:25:56Z</time>
      </trkpt>
      <trkpt lat="59.03420365925" lon="17.930308603905">
        <ele>0</ele>
        <time>2016-04-10T14:25:57Z</time>
      </trkpt>
      <trkpt lat="59.034068123927" lon="17.930245404379">
        <ele>0</ele>
        <time>2016-04-10T14:25:59Z</time>
      </trkpt>
      <trkpt lat="59.033999643804" lon="17.930208859295">
        <ele>0</ele>
        <time>2016-04-10T14:26:00Z</time>
      </trkpt>
      <trkpt lat="59.033933091518" lon="17.930170805469">
        <ele>0</ele>
        <time>2016-04-10T14:26:01Z</time>
      </trkpt>
      <trkpt lat="59.033867042146" lon="17.930127219589">
        <ele>0</ele>
        <time>2016-04-10T14:26:02Z</time>
      </trkpt>
      <trkpt lat="59.033802836792" lon="17.930086567374">
        <ele>0</ele>
        <time>2016-04-10T14:26:03Z</time>
      </trkpt>
      <trkpt lat="59.033616674793" lon="17.92995782139">
        <ele>0</ele>
        <time>2016-04-10T14:26:06Z</time>
      </trkpt>
      <trkpt lat="59.033554984009" lon="17.929907278533">
        <ele>0</ele>
        <time>2016-04-10T14:26:07Z</time>
      </trkpt>
      <trkpt lat="59.033492287397" lon="17.929861764816">
        <ele>0.2</ele>
        <time>2016-04-10T14:26:08Z</time>
      </trkpt>
      <trkpt lat="59.033429758423" lon="17.929814155624">
        <ele>0.8</ele>
        <time>2016-04-10T14:26:09Z</time>
      </trkpt>
      <trkpt lat="59.033369911657" lon="17.929762942215">
        <ele>1.2</ele>
        <time>2016-04-10T14:26:10Z</time>
      </trkpt>
      <trkpt lat="59.033309394339" lon="17.929712818453">
        <ele>1.8</ele>
        <time>2016-04-10T14:26:11Z</time>
      </trkpt>
      <trkpt lat="59.032965484982" lon="17.92946328929">
        <ele>2.2</ele>
        <time>2016-04-10T14:26:17Z</time>
      </trkpt>
      <trkpt lat="59.032910751175" lon="17.929426911844">
        <ele>2.6</ele>
        <time>2016-04-10T14:26:18Z</time>
      </trkpt>
      <trkpt lat="59.032856101187" lon="17.929397491375">
        <ele>3</ele>
        <time>2016-04-10T14:26:19Z</time>
      </trkpt>
      <trkpt lat="59.032799774819" lon="17.929383242145">
        <ele>3.4</ele>
        <time>2016-04-10T14:26:20Z</time>
      </trkpt>
      <trkpt lat="59.032744202822" lon="17.929382487774">
        <ele>3.8</ele>
        <time>2016-04-10T14:26:21Z</time>
      </trkpt>
      <trkpt lat="59.032689971929" lon="17.929384918525">
        <ele>3.8</ele>
        <time>2016-04-10T14:26:22Z</time>
      </trkpt>
      <trkpt lat="59.03263372938" lon="17.929395060624">
        <ele>3.8</ele>
        <time>2016-04-10T14:26:23Z</time>
      </trkpt>
      <trkpt lat="59.032474305642" lon="17.929547695023">
        <ele>3.8</ele>
        <time>2016-04-10T14:26:26Z</time>
      </trkpt>
      <trkpt lat="59.032434156341" lon="17.929625143779">
        <ele>3.8</ele>
        <time>2016-04-10T14:26:27Z</time>
      </trkpt>
      <trkpt lat="59.032386295692" lon="17.929697311938">
        <ele>3.8</ele>
        <time>2016-04-10T14:26:28Z</time>
      </trkpt>
      <trkpt lat="59.032282276313" lon="17.929815245271">
        <ele>3.8</ele>
        <time>2016-04-10T14:26:30Z</time>
      </trkpt>
      <trkpt lat="59.032086810405" lon="17.929847096491">
        <ele>3.8</ele>
        <time>2016-04-10T14:26:33Z</time>
      </trkpt>
      <trkpt lat="59.031956807136" lon="17.929764618595">
        <ele>3.8</ele>
        <time>2016-04-10T14:26:35Z</time>
      </trkpt>
      <trkpt lat="59.031838957622" lon="17.929683565622">
        <ele>3.8</ele>
        <time>2016-04-10T14:26:37Z</time>
      </trkpt>
      <trkpt lat="59.031504938907" lon="17.929411992062">
        <ele>3.8</ele>
        <time>2016-04-10T14:26:43Z</time>
      </trkpt>
      <trkpt lat="59.031258008133" lon="17.929196241956">
        <ele>3.8</ele>
        <time>2016-04-10T14:26:48Z</time>
      </trkpt>
      <trkpt lat="59.031211237131" lon="17.929154080999">
        <ele>4.2</ele>
        <time>2016-04-10T14:26:49Z</time>
      </trkpt>
      <trkpt lat="59.031162622111" lon="17.929113428784">
        <ele>4.6</ele>
        <time>2016-04-10T14:26:50Z</time>
      </trkpt>
      <trkpt lat="59.031116437842" lon="17.929075291139">
        <ele>5</ele>
        <time>2016-04-10T14:26:51Z</time>
      </trkpt>
      <trkpt lat="59.031072600505" lon="17.929034806562">
        <ele>5.4</ele>
        <time>2016-04-10T14:26:52Z</time>
      </trkpt>
      <trkpt lat="59.031028679349" lon="17.928995914546">
        <ele>5.8</ele>
        <time>2016-04-10T14:26:53Z</time>
      </trkpt>
      <trkpt lat="59.030939328295" lon="17.928919052523">
        <ele>5.8</ele>
        <time>2016-04-10T14:26:55Z</time>
      </trkpt>
      <trkpt lat="59.030763559852" lon="17.928782176096">
        <ele>6.4</ele>
        <time>2016-04-10T14:26:59Z</time>
      </trkpt>
      <trkpt lat="59.030719722515" lon="17.928748816134">
        <ele>6.8</ele>
        <time>2016-04-10T14:27:00Z</time>
      </trkpt>
      <trkpt lat="59.030676304273" lon="17.928713695973">
        <ele>7.6</ele>
        <time>2016-04-10T14:27:01Z</time>
      </trkpt>
      <trkpt lat="59.03063045528" lon="17.92867287612">
        <ele>8.2</ele>
        <time>2016-04-10T14:27:02Z</time>
      </trkpt>
      <trkpt lat="59.030355026046" lon="17.928417311989">
        <ele>8.6</ele>
        <time>2016-04-10T14:27:08Z</time>
      </trkpt>
      <trkpt lat="59.030305740474" lon="17.928372049729">
        <ele>9</ele>
        <time>2016-04-10T14:27:09Z</time>
      </trkpt>
      <trkpt lat="59.030259304748" lon="17.928330978419">
        <ele>9.4</ele>
        <time>2016-04-10T14:27:10Z</time>
      </trkpt>
      <trkpt lat="59.030214293945" lon="17.928294517154">
        <ele>9.8</ele>
        <time>2016-04-10T14:27:11Z</time>
      </trkpt>
      <trkpt lat="59.030169786056" lon="17.928259145536">
        <ele>10.2</ele>
        <time>2016-04-10T14:27:12Z</time>
      </trkpt>
      <trkpt lat="59.030082195201" lon="17.928177757287">
        <ele>10.2</ele>
        <time>2016-04-10T14:27:14Z</time>
      </trkpt>
      <trkpt lat="59.02981657279" lon="17.927943231725">
        <ele>10.2</ele>
        <time>2016-04-10T14:27:20Z</time>
      </trkpt>
      <trkpt lat="59.029767622494" lon="17.9279117996">
        <ele>10.6</ele>
        <time>2016-04-10T14:27:21Z</time>
      </trkpt>
      <trkpt lat="59.029715738533" lon="17.927885564253">
        <ele>11</ele>
        <time>2016-04-10T14:27:22Z</time>
      </trkpt>
      <trkpt lat="59.02966066945" lon="17.927862765485">
        <ele>11.6</ele>
        <time>2016-04-10T14:27:23Z</time>
      </trkpt>
      <trkpt lat="59.029600068313" lon="17.927839463803">
        <ele>12</ele>
        <time>2016-04-10T14:27:24Z</time>
      </trkpt>
      <trkpt lat="59.02953829371" lon="17.92782127508">
        <ele>12.4</ele>
        <time>2016-04-10T14:27:25Z</time>
      </trkpt>
      <trkpt lat="59.029275856421" lon="17.927773749707">
        <ele>12</ele>
        <time>2016-04-10T14:27:29Z</time>
      </trkpt>
      <trkpt lat="59.029205699918" lon="17.927758243192">
        <ele>11.6</ele>
        <time>2016-04-10T14:27:30Z</time>
      </trkpt>
      <trkpt lat="59.029134621406" lon="17.927738713365">
        <ele>11</ele>
        <time>2016-04-10T14:27:31Z</time>
      </trkpt>
      <trkpt lat="59.029056921193" lon="17.927704431394">
        <ele>10.6</ele>
        <time>2016-04-10T14:27:32Z</time>
      </trkpt>
      <trkpt lat="59.028979556256" lon="17.927686242671">
        <ele>10</ele>
        <time>2016-04-10T14:27:33Z</time>
      </trkpt>
      <trkpt lat="59.028905041165" lon="17.927710131086">
        <ele>9.4</ele>
        <time>2016-04-10T14:27:34Z</time>
      </trkpt>
      <trkpt lat="59.028848379521" lon="17.927780036132">
        <ele>9</ele>
        <time>2016-04-10T14:27:35Z</time>
      </trkpt>
      <trkpt lat="59.02881325936" lon="17.927870225376">
        <ele>8.4</ele>
        <time>2016-04-10T14:27:36Z</time>
      </trkpt>
      <trkpt lat="59.028800770329" lon="17.927932670531">
        <ele>7.8</ele>
        <time>2016-04-10T14:27:37Z</time>
      </trkpt>
      <trkpt lat="59.028805128917" lon="17.927985895596">
        <ele>8.2</ele>
        <time>2016-04-10T14:27:38Z</time>
      </trkpt>
      <trkpt lat="59.028825413115" lon="17.928040377946">
        <ele>8.8</ele>
        <time>2016-04-10T14:27:39Z</time>
      </trkpt>
      <trkpt lat="59.028848128064" lon="17.928099805617">
        <ele>9.4</ele>
        <time>2016-04-10T14:27:40Z</time>
      </trkpt>
      <trkpt lat="59.028870172461" lon="17.928161412582">
        <ele>10</ele>
        <time>2016-04-10T14:27:41Z</time>
      </trkpt>
      <trkpt lat="59.02889875474" lon="17.928227881049">
        <ele>10.6</ele>
        <time>2016-04-10T14:27:42Z</time>
      </trkpt>
      <trkpt lat="59.028927504657" lon="17.928297031724">
        <ele>11.2</ele>
        <time>2016-04-10T14:27:43Z</time>
      </trkpt>
      <trkpt lat="59.028956170755" lon="17.928367607322">
        <ele>11.8</ele>
        <time>2016-04-10T14:27:44Z</time>
      </trkpt>
      <trkpt lat="59.028986261776" lon="17.928440362214">
        <ele>12.4</ele>
        <time>2016-04-10T14:27:45Z</time>
      </trkpt>
      <trkpt lat="59.029023058317" lon="17.928516805142">
        <ele>12.4</ele>
        <time>2016-04-10T14:27:46Z</time>
      </trkpt>
      <trkpt lat="59.029155492337" lon="17.928744541365">
        <ele>12.4</ele>
        <time>2016-04-10T14:27:49Z</time>
      </trkpt>
      <trkpt lat="59.029322124509" lon="17.929204623856">
        <ele>12.4</ele>
        <time>2016-04-10T14:27:54Z</time>
      </trkpt>
      <trkpt lat="59.029349952417" lon="17.929681805423">
        <ele>12.4</ele>
        <time>2016-04-10T14:27:58Z</time>
      </trkpt>
      <trkpt lat="59.029342324888" lon="17.929955558277">
        <ele>12.4</ele>
        <time>2016-04-10T14:28:00Z</time>
      </trkpt>
      <trkpt lat="59.029320783405" lon="17.930098302034">
        <ele>12</ele>
        <time>2016-04-10T14:28:01Z</time>
      </trkpt>
      <trkpt lat="59.029278957724" lon="17.930238866497">
        <ele>11.6</ele>
        <time>2016-04-10T14:28:02Z</time>
      </trkpt>
      <trkpt lat="59.029221960804" lon="17.930366103739">
        <ele>10.8</ele>
        <time>2016-04-10T14:28:03Z</time>
      </trkpt>
      <trkpt lat="59.029144763505" lon="17.930467357091">
        <ele>9.8</ele>
        <time>2016-04-10T14:28:04Z</time>
      </trkpt>
      <trkpt lat="59.029052897881" lon="17.930522090898">
        <ele>9</ele>
        <time>2016-04-10T14:28:05Z</time>
      </trkpt>
      <trkpt lat="59.028958936782" lon="17.930549918806">
        <ele>8.2</ele>
        <time>2016-04-10T14:28:06Z</time>
      </trkpt>
      <trkpt lat="59.028864137493" lon="17.93056718552">
        <ele>7.4</ele>
        <time>2016-04-10T14:28:07Z</time>
      </trkpt>
      <trkpt lat="59.028772858602" lon="17.930574058678">
        <ele>6.6</ele>
        <time>2016-04-10T14:28:08Z</time>
      </trkpt>
      <trkpt lat="59.028684429557" lon="17.930590738659">
        <ele>5.8</ele>
        <time>2016-04-10T14:28:09Z</time>
      </trkpt>
      <trkpt lat="59.028600442919" lon="17.930631893788">
        <ele>5.4</ele>
        <time>2016-04-10T14:28:10Z</time>
      </trkpt>
      <trkpt lat="59.028525257276" lon="17.930696685875">
        <ele>4.8</ele>
        <time>2016-04-10T14:28:11Z</time>
      </trkpt>
      <trkpt lat="59.02845283766" lon="17.930781929798">
        <ele>4.2</ele>
        <time>2016-04-10T14:28:12Z</time>
      </trkpt>
      <trkpt lat="59.028383519347" lon="17.930883099331">
        <ele>3.6</ele>
        <time>2016-04-10T14:28:13Z</time>
      </trkpt>
      <trkpt lat="59.028317218518" lon="17.930995668248">
        <ele>3</ele>
        <time>2016-04-10T14:28:14Z</time>
      </trkpt>
      <trkpt lat="59.02824999568" lon="17.931108991536">
        <ele>3</ele>
        <time>2016-04-10T14:28:15Z</time>
      </trkpt>
      <trkpt lat="59.027786979524" lon="17.931911726099">
        <ele>3</ele>
        <time>2016-04-10T14:28:22Z</time>
      </trkpt>
      <trkpt lat="59.027662675947" lon="17.932161506719">
        <ele>3</ele>
        <time>2016-04-10T14:28:24Z</time>
      </trkpt>
      <trkpt lat="59.027601990991" lon="17.932306681227">
        <ele>2.6</ele>
        <time>2016-04-10T14:28:25Z</time>
      </trkpt>
      <trkpt lat="59.027552453962" lon="17.932456884875">
        <ele>2.2</ele>
        <time>2016-04-10T14:28:26Z</time>
      </trkpt>
      <trkpt lat="59.027508784263" lon="17.932618655545">
        <ele>1.8</ele>
        <time>2016-04-10T14:28:27Z</time>
      </trkpt>
      <trkpt lat="59.027471568627" lon="17.932791155047">
        <ele>1.4</ele>
        <time>2016-04-10T14:28:28Z</time>
      </trkpt>
      <trkpt lat="59.027437202837" lon="17.932971449716">
        <ele>1</ele>
        <time>2016-04-10T14:28:29Z</time>
      </trkpt>
      <trkpt lat="59.027408285282" lon="17.933155683878">
        <ele>0.6</ele>
        <time>2016-04-10T14:28:30Z</time>
      </trkpt>
      <trkpt lat="59.027384815962" lon="17.933345366275">
        <ele>0.2</ele>
        <time>2016-04-10T14:28:31Z</time>
      </trkpt>
      <trkpt lat="59.027364364126" lon="17.933546615694">
        <ele>0</ele>
        <time>2016-04-10T14:28:32Z</time>
      </trkpt>
      <trkpt lat="59.027349276706" lon="17.933739567032">
        <ele>0</ele>
        <time>2016-04-10T14:28:33Z</time>
      </trkpt>
      <trkpt lat="59.0273346922" lon="17.933930674352">
        <ele>0</ele>
        <time>2016-04-10T14:28:34Z</time>
      </trkpt>
      <trkpt lat="59.02732128116" lon="17.934115579066">
        <ele>0</ele>
        <time>2016-04-10T14:28:35Z</time>
      </trkpt>
      <trkpt lat="59.027307618663" lon="17.934298639762">
        <ele>0</ele>
        <time>2016-04-10T14:28:36Z</time>
      </trkpt>
      <trkpt lat="59.02726009329" lon="17.935019734619">
        <ele>0</ele>
        <time>2016-04-10T14:28:40Z</time>
      </trkpt>
      <trkpt lat="59.027194463013" lon="17.935531114338">
        <ele>0</ele>
        <time>2016-04-10T14:28:43Z</time>
      </trkpt>
      <trkpt lat="59.027129922383" lon="17.935639743762">
        <ele>0</ele>
        <time>2016-04-10T14:28:44Z</time>
      </trkpt>
      <trkpt lat="59.027053311817" lon="17.935704954944">
        <ele>0</ele>
        <time>2016-04-10T14:28:45Z</time>
      </trkpt>
      <trkpt lat="59.026973935224" lon="17.935755749258">
        <ele>0</ele>
        <time>2016-04-10T14:28:46Z</time>
      </trkpt>
      <trkpt lat="59.026892379337" lon="17.935823307372">
        <ele>0</ele>
        <time>2016-04-10T14:28:47Z</time>
      </trkpt>
      <trkpt lat="59.026818199522" lon="17.935908551295">
        <ele>0</ele>
        <time>2016-04-10T14:28:48Z</time>
      </trkpt>
      <trkpt lat="59.026747372467" lon="17.935998740539">
        <ele>0</ele>
        <time>2016-04-10T14:28:49Z</time>
      </trkpt>
      <trkpt lat="59.026683502389" lon="17.936094126561">
        <ele>0</ele>
        <time>2016-04-10T14:28:50Z</time>
      </trkpt>
      <trkpt lat="59.026624074718" lon="17.936198816492">
        <ele>0</ele>
        <time>2016-04-10T14:28:51Z</time>
      </trkpt>
      <trkpt lat="59.026571184929" lon="17.9363104634">
        <ele>0</ele>
        <time>2016-04-10T14:28:52Z</time>
      </trkpt>
      <trkpt lat="59.026525084479" lon="17.936435269891">
        <ele>0</ele>
        <time>2016-04-10T14:28:53Z</time>
      </trkpt>
      <trkpt lat="59.026445204972" lon="17.936876409288">
        <ele>0</ele>
        <time>2016-04-10T14:28:56Z</time>
      </trkpt>
      <trkpt lat="59.026472446147" lon="17.937330289173">
        <ele>0</ele>
        <time>2016-04-10T14:28:59Z</time>
      </trkpt>
      <trkpt lat="59.0266138488" lon="17.938182560765">
        <ele>0</ele>
        <time>2016-04-10T14:29:05Z</time>
      </trkpt>
      <trkpt lat="59.026634132998" lon="17.938286580144">
        <ele>0</ele>
        <time>2016-04-10T14:29:06Z</time>
      </trkpt>
      <trkpt lat="59.026653411368" lon="17.938390431885">
        <ele>0</ele>
        <time>2016-04-10T14:29:07Z</time>
      </trkpt>
      <trkpt lat="59.026670426625" lon="17.938508113761">
        <ele>0</ele>
        <time>2016-04-10T14:29:08Z</time>
      </trkpt>
      <trkpt lat="59.026691297556" lon="17.938632584976">
        <ele>0</ele>
        <time>2016-04-10T14:29:09Z</time>
      </trkpt>
      <trkpt lat="59.026717365265" lon="17.938771305421">
        <ele>0</ele>
        <time>2016-04-10T14:29:10Z</time>
      </trkpt>
      <trkpt lat="59.026849883104" lon="17.939471948442">
        <ele>0</ele>
        <time>2016-04-10T14:29:15Z</time>
      </trkpt>
      <trkpt lat="59.026948873343" lon="17.939896072582">
        <ele>0</ele>
        <time>2016-04-10T14:29:18Z</time>
      </trkpt>
      <trkpt lat="59.026986088979" lon="17.940031859362">
        <ele>0</ele>
        <time>2016-04-10T14:29:19Z</time>
      </trkpt>
      <trkpt lat="59.027029758678" lon="17.940162365545">
        <ele>0</ele>
        <time>2016-04-10T14:29:20Z</time>
      </trkpt>
      <trkpt lat="59.027078289879" lon="17.940282478172">
        <ele>0</ele>
        <time>2016-04-10T14:29:21Z</time>
      </trkpt>
      <trkpt lat="59.027130928211" lon="17.94039831603">
        <ele>0</ele>
        <time>2016-04-10T14:29:22Z</time>
      </trkpt>
      <trkpt lat="59.027242910395" lon="17.940618927638">
        <ele>0</ele>
        <time>2016-04-10T14:29:24Z</time>
      </trkpt>
      <trkpt lat="59.027297392745" lon="17.940713978384">
        <ele>0</ele>
        <time>2016-04-10T14:29:25Z</time>
      </trkpt>
      <trkpt lat="59.027349695801" lon="17.940804670542">
        <ele>0</ele>
        <time>2016-04-10T14:29:26Z</time>
      </trkpt>
      <trkpt lat="59.027400406296" lon="17.940891004112">
        <ele>0</ele>
        <time>2016-04-10T14:29:27Z</time>
      </trkpt>
      <trkpt lat="59.027449943325" lon="17.940973817284">
        <ele>0</ele>
        <time>2016-04-10T14:29:28Z</time>
      </trkpt>
      <trkpt lat="59.027545245528" lon="17.941133492479">
        <ele>0</ele>
        <time>2016-04-10T14:29:30Z</time>
      </trkpt>
      <trkpt lat="59.027588831408" lon="17.941207672294">
        <ele>0</ele>
        <time>2016-04-10T14:29:31Z</time>
      </trkpt>
      <trkpt lat="59.027630154175" lon="17.941281349195">
        <ele>0</ele>
        <time>2016-04-10T14:29:32Z</time>
      </trkpt>
      <trkpt lat="59.027665358155" lon="17.941339771038">
        <ele>0</ele>
        <time>2016-04-10T14:29:33Z</time>
      </trkpt>
      <trkpt lat="59.027697796108" lon="17.941396097406">
        <ele>0</ele>
        <time>2016-04-10T14:29:34Z</time>
      </trkpt>
      <trkpt lat="59.027732413355" lon="17.941453010507">
        <ele>0</ele>
        <time>2016-04-10T14:29:35Z</time>
      </trkpt>
      <trkpt lat="59.027762839652" lon="17.941505900296">
        <ele>0</ele>
        <time>2016-04-10T14:29:36Z</time>
      </trkpt>
      <trkpt lat="59.027790332284" lon="17.941554263859">
        <ele>0</ele>
        <time>2016-04-10T14:29:37Z</time>
      </trkpt>
      <trkpt lat="59.027811706129" lon="17.941596592454">
        <ele>0</ele>
        <time>2016-04-10T14:29:38Z</time>
      </trkpt>
      <trkpt lat="59.027836097458" lon="17.941640178334">
        <ele>0</ele>
        <time>2016-04-10T14:29:39Z</time>
      </trkpt>
      <trkpt lat="59.027861662253" lon="17.941689715363">
        <ele>0.6</ele>
        <time>2016-04-10T14:29:40Z</time>
      </trkpt>
      <trkpt lat="59.027887478505" lon="17.941745622636">
        <ele>1.2</ele>
        <time>2016-04-10T14:29:41Z</time>
      </trkpt>
      <trkpt lat="59.027913127119" lon="17.941808403067">
        <ele>1.8</ele>
        <time>2016-04-10T14:29:42Z</time>
      </trkpt>
      <trkpt lat="59.027942212312" lon="17.941874452439">
        <ele>2.4</ele>
        <time>2016-04-10T14:29:43Z</time>
      </trkpt>
      <trkpt lat="59.027972470971" lon="17.941960450733">
        <ele>3</ele>
        <time>2016-04-10T14:29:44Z</time>
      </trkpt>
      <trkpt lat="59.027995437377" lon="17.942056758764">
        <ele>3.6</ele>
        <time>2016-04-10T14:29:45Z</time>
      </trkpt>
      <trkpt lat="59.028023432923" lon="17.942380300104">
        <ele>3.2</ele>
        <time>2016-04-10T14:29:48Z</time>
      </trkpt>
      <trkpt lat="59.028030976633" lon="17.942528911191">
        <ele>2.8</ele>
        <time>2016-04-10T14:29:49Z</time>
      </trkpt>
      <trkpt lat="59.028043549483" lon="17.942704092901">
        <ele>2.2</ele>
        <time>2016-04-10T14:29:50Z</time>
      </trkpt>
      <trkpt lat="59.028061067654" lon="17.942881118629">
        <ele>1.8</ele>
        <time>2016-04-10T14:29:51Z</time>
      </trkpt>
      <trkpt lat="59.02808571044" lon="17.943048421353">
        <ele>1.4</ele>
        <time>2016-04-10T14:29:52Z</time>
      </trkpt>
      <trkpt lat="59.028113454529" lon="17.943215556439">
        <ele>0.4</ele>
        <time>2016-04-10T14:29:53Z</time>
      </trkpt>
      <trkpt lat="59.028141952989" lon="17.943390486692">
        <ele>0</ele>
        <time>2016-04-10T14:29:54Z</time>
      </trkpt>
      <trkpt lat="59.028161566635" lon="17.943567931515">
        <ele>0</ele>
        <time>2016-04-10T14:29:55Z</time>
      </trkpt>
      <trkpt lat="59.028165841404" lon="17.943751159849">
        <ele>0</ele>
        <time>2016-04-10T14:29:56Z</time>
      </trkpt>
      <trkpt lat="59.028157124228" lon="17.943928017939">
        <ele>0</ele>
        <time>2016-04-10T14:29:57Z</time>
      </trkpt>
      <trkpt lat="59.028137426763" lon="17.944096242672">
        <ele>0</ele>
        <time>2016-04-10T14:29:58Z</time>
      </trkpt>
      <trkpt lat="59.028108173932" lon="17.944254409125">
        <ele>0</ele>
        <time>2016-04-10T14:29:59Z</time>
      </trkpt>
      <trkpt lat="59.028066934984" lon="17.944392710475">
        <ele>0</ele>
        <time>2016-04-10T14:30:00Z</time>
      </trkpt>
      <trkpt lat="59.028020415439" lon="17.944515086215">
        <ele>0</ele>
        <time>2016-04-10T14:30:01Z</time>
      </trkpt>
      <trkpt lat="59.027836600372" lon="17.944953459585">
        <ele>0</ele>
        <time>2016-04-10T14:30:05Z</time>
      </trkpt>
      <trkpt lat="59.027554549437" lon="17.945622167567">
        <ele>0</ele>
        <time>2016-04-10T14:30:11Z</time>
      </trkpt>
      <trkpt lat="59.027343325557" lon="17.946170679103">
        <ele>0</ele>
        <time>2016-04-10T14:30:16Z</time>
      </trkpt>
      <trkpt lat="59.02730284098" lon="17.946278051242">
        <ele>0</ele>
        <time>2016-04-10T14:30:17Z</time>
      </trkpt>
      <trkpt lat="59.027261182937" lon="17.946388440865">
        <ele>0</ele>
        <time>2016-04-10T14:30:18Z</time>
      </trkpt>
      <trkpt lat="59.027221201274" lon="17.946499584859">
        <ele>0</ele>
        <time>2016-04-10T14:30:19Z</time>
      </trkpt>
      <trkpt lat="59.02704719303" lon="17.946968216888">
        <ele>0</ele>
        <time>2016-04-10T14:30:23Z</time>
      </trkpt>
      <trkpt lat="59.026958596347" lon="17.947222691372">
        <ele>0</ele>
        <time>2016-04-10T14:30:25Z</time>
      </trkpt>
      <trkpt lat="59.026916100114" lon="17.947347581682">
        <ele>0</ele>
        <time>2016-04-10T14:30:26Z</time>
      </trkpt>
      <trkpt lat="59.026874106795" lon="17.947472220535">
        <ele>0</ele>
        <time>2016-04-10T14:30:27Z</time>
      </trkpt>
      <trkpt lat="59.026832867847" lon="17.947598787225">
        <ele>0</ele>
        <time>2016-04-10T14:30:28Z</time>
      </trkpt>
      <trkpt lat="59.026793053822" lon="17.947719989499">
        <ele>0</ele>
        <time>2016-04-10T14:30:29Z</time>
      </trkpt>
      <trkpt lat="59.026678892344" lon="17.948067083978">
        <ele>0</ele>
        <time>2016-04-10T14:30:32Z</time>
      </trkpt>
      <trkpt lat="59.026577052259" lon="17.948367742731">
        <ele>0</ele>
        <time>2016-04-10T14:30:35Z</time>
      </trkpt>
      <trkpt lat="59.026544781944" lon="17.948455501224">
        <ele>0</ele>
        <time>2016-04-10T14:30:36Z</time>
      </trkpt>
      <trkpt lat="59.026516702579" lon="17.948541248061">
        <ele>0</ele>
        <time>2016-04-10T14:30:37Z</time>
      </trkpt>
      <trkpt lat="59.026490131956" lon="17.948622217215">
        <ele>0</ele>
        <time>2016-04-10T14:30:38Z</time>
      </trkpt>
      <trkpt lat="59.026465070075" lon="17.94869807341">
        <ele>0</ele>
        <time>2016-04-10T14:30:39Z</time>
      </trkpt>
      <trkpt lat="59.026439253823" lon="17.948777030908">
        <ele>0</ele>
        <time>2016-04-10T14:30:40Z</time>
      </trkpt>
      <trkpt lat="59.026415700684" lon="17.948852635646">
        <ele>0</ele>
        <time>2016-04-10T14:30:41Z</time>
      </trkpt>
      <trkpt lat="59.026394075382" lon="17.948932096058">
        <ele>0.2</ele>
        <time>2016-04-10T14:30:42Z</time>
      </trkpt>
      <trkpt lat="59.026374713193" lon="17.949009796271">
        <ele>1.2</ele>
        <time>2016-04-10T14:30:43Z</time>
      </trkpt>
      <trkpt lat="59.026340095946" lon="17.94917332714">
        <ele>1.6</ele>
        <time>2016-04-10T14:30:45Z</time>
      </trkpt>
      <trkpt lat="59.02632802601" lon="17.949254799208">
        <ele>2</ele>
        <time>2016-04-10T14:30:46Z</time>
      </trkpt>
      <trkpt lat="59.026315034065" lon="17.949342976796">
        <ele>2.4</ele>
        <time>2016-04-10T14:30:47Z</time>
      </trkpt>
      <trkpt lat="59.026304053776" lon="17.949432076393">
        <ele>2.8</ele>
        <time>2016-04-10T14:30:48Z</time>
      </trkpt>
      <trkpt lat="59.026294163134" lon="17.949521930361">
        <ele>3.4</ele>
        <time>2016-04-10T14:30:49Z</time>
      </trkpt>
      <trkpt lat="59.026249822883" lon="17.949963237396">
        <ele>3.4</ele>
        <time>2016-04-10T14:30:54Z</time>
      </trkpt>
      <trkpt lat="59.026217049654" lon="17.950342518371">
        <ele>3.4</ele>
        <time>2016-04-10T14:30:58Z</time>
      </trkpt>
      <trkpt lat="59.02620397389" lon="17.950438658764">
        <ele>3.4</ele>
        <time>2016-04-10T14:30:59Z</time>
      </trkpt>
      <trkpt lat="59.026112946456" lon="17.950942997687">
        <ele>3.4</ele>
        <time>2016-04-10T14:31:04Z</time>
      </trkpt>
      <trkpt lat="59.026018147167" lon="17.951458568356">
        <ele>3.8</ele>
        <time>2016-04-10T14:31:09Z</time>
      </trkpt>
      <trkpt lat="59.025996018951" lon="17.951561078993">
        <ele>4.2</ele>
        <time>2016-04-10T14:31:10Z</time>
      </trkpt>
      <trkpt lat="59.025975315658" lon="17.951668367313">
        <ele>4.6</ele>
        <time>2016-04-10T14:31:11Z</time>
      </trkpt>
      <trkpt lat="59.025955199098" lon="17.951777164375">
        <ele>5</ele>
        <time>2016-04-10T14:31:12Z</time>
      </trkpt>
      <trkpt lat="59.025935585452" lon="17.95188822455">
        <ele>5.4</ele>
        <time>2016-04-10T14:31:13Z</time>
      </trkpt>
      <trkpt lat="59.025887892441" lon="17.952259375082">
        <ele>4.8</ele>
        <time>2016-04-10T14:31:16Z</time>
      </trkpt>
      <trkpt lat="59.025874900496" lon="17.952387701971">
        <ele>4.4</ele>
        <time>2016-04-10T14:31:17Z</time>
      </trkpt>
      <trkpt lat="59.02586115418" lon="17.95252357257">
        <ele>4</ele>
        <time>2016-04-10T14:31:18Z</time>
      </trkpt>
      <trkpt lat="59.025844474199" lon="17.952654078753">
        <ele>3.6</ele>
        <time>2016-04-10T14:31:19Z</time>
      </trkpt>
      <trkpt lat="59.025826201657" lon="17.952787686239">
        <ele>3.2</ele>
        <time>2016-04-10T14:31:20Z</time>
      </trkpt>
      <trkpt lat="59.025751854204" lon="17.953205356316">
        <ele>3.2</ele>
        <time>2016-04-10T14:31:23Z</time>
      </trkpt>
      <trkpt lat="59.025715644396" lon="17.953343070933">
        <ele>2.6</ele>
        <time>2016-04-10T14:31:24Z</time>
      </trkpt>
      <trkpt lat="59.025670633593" lon="17.953486736699">
        <ele>2.2</ele>
        <time>2016-04-10T14:31:25Z</time>
      </trkpt>
      <trkpt lat="59.025621180383" lon="17.953627217343">
        <ele>1.8</ele>
        <time>2016-04-10T14:31:26Z</time>
      </trkpt>
      <trkpt lat="59.025564099644" lon="17.953768955272">
        <ele>1.2</ele>
        <time>2016-04-10T14:31:27Z</time>
      </trkpt>
      <trkpt lat="59.025500816299" lon="17.953904239138">
        <ele>0.8</ele>
        <time>2016-04-10T14:31:28Z</time>
      </trkpt>
      <trkpt lat="59.025430073063" lon="17.954030470552">
        <ele>0.2</ele>
        <time>2016-04-10T14:31:29Z</time>
      </trkpt>
      <trkpt lat="59.025353294859" lon="17.954148739161">
        <ele>0</ele>
        <time>2016-04-10T14:31:30Z</time>
      </trkpt>
      <trkpt lat="59.025270146411" lon="17.954254854015">
        <ele>0</ele>
        <time>2016-04-10T14:31:31Z</time>
      </trkpt>
      <trkpt lat="59.025182890832" lon="17.954347222553">
        <ele>0</ele>
        <time>2016-04-10T14:31:32Z</time>
      </trkpt>
      <trkpt lat="59.025087923905" lon="17.954428946078">
        <ele>0</ele>
        <time>2016-04-10T14:31:33Z</time>
      </trkpt>
      <trkpt lat="59.0249961421" lon="17.954497258563">
        <ele>0</ele>
        <time>2016-04-10T14:31:34Z</time>
      </trkpt>
      <trkpt lat="59.024902767734" lon="17.954559452261">
        <ele>0</ele>
        <time>2016-04-10T14:31:35Z</time>
      </trkpt>
      <trkpt lat="59.02481425487" lon="17.954620891588">
        <ele>0</ele>
        <time>2016-04-10T14:31:36Z</time>
      </trkpt>
      <trkpt lat="59.024727166929" lon="17.954683672019">
        <ele>0</ele>
        <time>2016-04-10T14:31:37Z</time>
      </trkpt>
      <trkpt lat="59.024643431748" lon="17.954750056667">
        <ele>0</ele>
        <time>2016-04-10T14:31:38Z</time>
      </trkpt>
      <trkpt lat="59.024485013838" lon="17.954911743518">
        <ele>0</ele>
        <time>2016-04-10T14:31:40Z</time>
      </trkpt>
      <trkpt lat="59.02423506558" lon="17.955304016438">
        <ele>0</ele>
        <time>2016-04-10T14:31:44Z</time>
      </trkpt>
      <trkpt lat="59.024183181619" lon="17.955417339726">
        <ele>0</ele>
        <time>2016-04-10T14:31:45Z</time>
      </trkpt>
      <trkpt lat="59.024140182472" lon="17.955528316082">
        <ele>0</ele>
        <time>2016-04-10T14:31:46Z</time>
      </trkpt>
      <trkpt lat="59.024101122818" lon="17.955638454248">
        <ele>0</ele>
        <time>2016-04-10T14:31:47Z</time>
      </trkpt>
      <trkpt lat="59.024063488087" lon="17.955741216342">
        <ele>0</ele>
        <time>2016-04-10T14:31:48Z</time>
      </trkpt>
      <trkpt lat="59.024030966315" lon="17.955837189097">
        <ele>0</ele>
        <time>2016-04-10T14:31:49Z</time>
      </trkpt>
      <trkpt lat="59.024000959113" lon="17.955920253726">
        <ele>0</ele>
        <time>2016-04-10T14:31:50Z</time>
      </trkpt>
      <trkpt lat="59.023975813413" lon="17.955993427713">
        <ele>0</ele>
        <time>2016-04-10T14:31:51Z</time>
      </trkpt>
      <trkpt lat="59.023954188111" lon="17.956064422406">
        <ele>0</ele>
        <time>2016-04-10T14:31:52Z</time>
      </trkpt>
      <trkpt lat="59.02393583175" lon="17.956129549769">
        <ele>0</ele>
        <time>2016-04-10T14:31:53Z</time>
      </trkpt>
      <trkpt lat="59.023915296095" lon="17.956195934417">
        <ele>0</ele>
        <time>2016-04-10T14:31:54Z</time>
      </trkpt>
      <trkpt lat="59.023891994413" lon="17.956256954649">
        <ele>0</ele>
        <time>2016-04-10T14:31:55Z</time>
      </trkpt>
      <trkpt lat="59.023867519265" lon="17.956318142519">
        <ele>0.8</ele>
        <time>2016-04-10T14:31:56Z</time>
      </trkpt>
      <trkpt lat="59.023844636678" lon="17.956371367584">
        <ele>1.4</ele>
        <time>2016-04-10T14:31:57Z</time>
      </trkpt>
      <trkpt lat="59.023817144046" lon="17.956430208522">
        <ele>3</ele>
        <time>2016-04-10T14:31:58Z</time>
      </trkpt>
      <trkpt lat="59.023762242601" lon="17.956544118543">
        <ele>3</ele>
        <time>2016-04-10T14:32:00Z</time>
      </trkpt>
      <trkpt lat="59.02373298977" lon="17.956593068839">
        <ele>3.4</ele>
        <time>2016-04-10T14:32:01Z</time>
      </trkpt>
      <trkpt lat="59.023705580957" lon="17.956647132094">
        <ele>3.8</ele>
        <time>2016-04-10T14:32:02Z</time>
      </trkpt>
      <trkpt lat="59.023676076669" lon="17.956702201177">
        <ele>4.2</ele>
        <time>2016-04-10T14:32:03Z</time>
      </trkpt>
      <trkpt lat="59.023645063639" lon="17.956762467038">
        <ele>4.6</ele>
        <time>2016-04-10T14:32:04Z</time>
      </trkpt>
      <trkpt lat="59.023610362573" lon="17.956824996012">
        <ele>5</ele>
        <time>2016-04-10T14:32:05Z</time>
      </trkpt>
      <trkpt lat="59.023580355371" lon="17.956888363176">
        <ele>5</ele>
        <time>2016-04-10T14:32:06Z</time>
      </trkpt>
      <trkpt lat="59.023547665961" lon="17.956956005109">
        <ele>5.6</ele>
        <time>2016-04-10T14:32:07Z</time>
      </trkpt>
      <trkpt lat="59.023514054542" lon="17.957026748345">
        <ele>6</ele>
        <time>2016-04-10T14:32:08Z</time>
      </trkpt>
      <trkpt lat="59.023480191666" lon="17.957098581228">
        <ele>6.4</ele>
        <time>2016-04-10T14:32:09Z</time>
      </trkpt>
      <trkpt lat="59.023443562763" lon="17.957159433822">
        <ele>6.8</ele>
        <time>2016-04-10T14:32:10Z</time>
      </trkpt>
      <trkpt lat="59.02340861024" lon="17.957213916172">
        <ele>7.2</ele>
        <time>2016-04-10T14:32:11Z</time>
      </trkpt>
      <trkpt lat="59.02337759721" lon="17.9572735953">
        <ele>7.2</ele>
        <time>2016-04-10T14:32:12Z</time>
      </trkpt>
      <trkpt lat="59.023190597021" lon="17.957584647609">
        <ele>7.2</ele>
        <time>2016-04-10T14:32:16Z</time>
      </trkpt>
      <trkpt lat="59.023122033079" lon="17.957669640075">
        <ele>6.8</ele>
        <time>2016-04-10T14:32:17Z</time>
      </trkpt>
      <trkpt lat="59.023046847436" lon="17.957750190134">
        <ele>6.4</ele>
        <time>2016-04-10T14:32:18Z</time>
      </trkpt>
      <trkpt lat="59.022962357884" lon="17.957844067414">
        <ele>5.4</ele>
        <time>2016-04-10T14:32:19Z</time>
      </trkpt>
      <trkpt lat="59.022877281599" lon="17.957933837563">
        <ele>4.6</ele>
        <time>2016-04-10T14:32:20Z</time>
      </trkpt>
      <trkpt lat="59.022788098183" lon="17.958033246897">
        <ele>3.6</ele>
        <time>2016-04-10T14:32:21Z</time>
      </trkpt>
      <trkpt lat="59.02269363417" lon="17.958154113895">
        <ele>1.2</ele>
        <time>2016-04-10T14:32:22Z</time>
      </trkpt>
      <trkpt lat="59.022598583424" lon="17.958296354738">
        <ele>0</ele>
        <time>2016-04-10T14:32:23Z</time>
      </trkpt>
      <trkpt lat="59.022509735284" lon="17.958468518964">
        <ele>0</ele>
        <time>2016-04-10T14:32:24Z</time>
      </trkpt>
      <trkpt lat="59.02243211889" lon="17.958660464474">
        <ele>0</ele>
        <time>2016-04-10T14:32:25Z</time>
      </trkpt>
      <trkpt lat="59.022346958786" lon="17.958869425241">
        <ele>0</ele>
        <time>2016-04-10T14:32:26Z</time>
      </trkpt>
      <trkpt lat="59.022268252745" lon="17.959069249737">
        <ele>0</ele>
        <time>2016-04-10T14:32:27Z</time>
      </trkpt>
      <trkpt lat="59.022192480369" lon="17.959270918251">
        <ele>0</ele>
        <time>2016-04-10T14:32:28Z</time>
      </trkpt>
      <trkpt lat="59.022118971106" lon="17.959467306168">
        <ele>0</ele>
        <time>2016-04-10T14:32:29Z</time>
      </trkpt>
      <trkpt lat="59.022045042748" lon="17.959663442628">
        <ele>0</ele>
        <time>2016-04-10T14:32:30Z</time>
      </trkpt>
      <trkpt lat="59.021967929268" lon="17.959851197188">
        <ele>0</ele>
        <time>2016-04-10T14:32:31Z</time>
      </trkpt>
      <trkpt lat="59.021892408349" lon="17.960034425522">
        <ele>0</ele>
        <time>2016-04-10T14:32:32Z</time>
      </trkpt>
      <trkpt lat="59.021811439195" lon="17.960222682996">
        <ele>0</ele>
        <time>2016-04-10T14:32:33Z</time>
      </trkpt>
      <trkpt lat="59.021730386222" lon="17.960400630733">
        <ele>0</ele>
        <time>2016-04-10T14:32:34Z</time>
      </trkpt>
      <trkpt lat="59.021648327421" lon="17.960578159375">
        <ele>0</ele>
        <time>2016-04-10T14:32:35Z</time>
      </trkpt>
      <trkpt lat="59.021568447914" lon="17.960755268922">
        <ele>0</ele>
        <time>2016-04-10T14:32:36Z</time>
      </trkpt>
      <trkpt lat="59.02148831695" lon="17.960926511139">
        <ele>0</ele>
        <time>2016-04-10T14:32:37Z</time>
      </trkpt>
      <trkpt lat="59.021327552108" lon="17.961236892896">
        <ele>0</ele>
        <time>2016-04-10T14:32:39Z</time>
      </trkpt>
      <trkpt lat="59.020979954715" lon="17.961697813577">
        <ele>0</ele>
        <time>2016-04-10T14:32:43Z</time>
      </trkpt>
      <trkpt lat="59.020671668433" lon="17.962091679058">
        <ele>0</ele>
        <time>2016-04-10T14:32:47Z</time>
      </trkpt>
      <trkpt lat="59.020602853034" lon="17.962196033713">
        <ele>0</ele>
        <time>2016-04-10T14:32:48Z</time>
      </trkpt>
      <trkpt lat="59.020533450902" lon="17.962302400024">
        <ele>0</ele>
        <time>2016-04-10T14:32:49Z</time>
      </trkpt>
      <trkpt lat="59.020094993713" lon="17.963069092417">
        <ele>0</ele>
        <time>2016-04-10T14:32:56Z</time>
      </trkpt>
      <trkpt lat="59.020040846639" lon="17.963210578889">
        <ele>0</ele>
        <time>2016-04-10T14:32:57Z</time>
      </trkpt>
      <trkpt lat="59.019990890515" lon="17.963374864129">
        <ele>0</ele>
        <time>2016-04-10T14:32:58Z</time>
      </trkpt>
      <trkpt lat="59.019952585232" lon="17.96356588763">
        <ele>0</ele>
        <time>2016-04-10T14:32:59Z</time>
      </trkpt>
      <trkpt lat="59.019929702645" lon="17.963769986895">
        <ele>0</ele>
        <time>2016-04-10T14:33:00Z</time>
      </trkpt>
      <trkpt lat="59.019912938845" lon="17.963982635698">
        <ele>0</ele>
        <time>2016-04-10T14:33:01Z</time>
      </trkpt>
      <trkpt lat="59.019897767606" lon="17.964197715252">
        <ele>0</ele>
        <time>2016-04-10T14:33:02Z</time>
      </trkpt>
      <trkpt lat="59.019884356566" lon="17.964418159222">
        <ele>0</ele>
        <time>2016-04-10T14:33:03Z</time>
      </trkpt>
      <trkpt lat="59.019872957182" lon="17.964653187698">
        <ele>0</ele>
        <time>2016-04-10T14:33:04Z</time>
      </trkpt>
      <trkpt lat="59.019864323825" lon="17.964891988029">
        <ele>0</ele>
        <time>2016-04-10T14:33:05Z</time>
      </trkpt>
      <trkpt lat="59.019854433183" lon="17.965132045645">
        <ele>0</ele>
        <time>2016-04-10T14:33:06Z</time>
      </trkpt>
      <trkpt lat="59.019845380731" lon="17.965379227876">
        <ele>0</ele>
        <time>2016-04-10T14:33:07Z</time>
      </trkpt>
      <trkpt lat="59.019835741546" lon="17.965620123682">
        <ele>0</ele>
        <time>2016-04-10T14:33:08Z</time>
      </trkpt>
      <trkpt lat="59.01982618618" lon="17.965858756375">
        <ele>0</ele>
        <time>2016-04-10T14:33:09Z</time>
      </trkpt>
      <trkpt lat="59.019814954434" lon="17.966096299421">
        <ele>0</ele>
        <time>2016-04-10T14:33:10Z</time>
      </trkpt>
      <trkpt lat="59.019803219774" lon="17.966324119463">
        <ele>0</ele>
        <time>2016-04-10T14:33:11Z</time>
      </trkpt>
      <trkpt lat="59.019791988028" lon="17.966540456302">
        <ele>0</ele>
        <time>2016-04-10T14:33:12Z</time>
      </trkpt>
      <trkpt lat="59.019772458201" lon="17.966732737088">
        <ele>0</ele>
        <time>2016-04-10T14:33:13Z</time>
      </trkpt>
      <trkpt lat="59.019676569265" lon="17.967010429435">
        <ele>0</ele>
        <time>2016-04-10T14:33:15Z</time>
      </trkpt>
      <trkpt lat="59.019519827735" lon="17.967052003659">
        <ele>0</ele>
        <time>2016-04-10T14:33:17Z</time>
      </trkpt>
      <trkpt lat="59.01944229516" lon="17.966995425834">
        <ele>0</ele>
        <time>2016-04-10T14:33:18Z</time>
      </trkpt>
      <trkpt lat="59.019364259671" lon="17.966933567412">
        <ele>0</ele>
        <time>2016-04-10T14:33:19Z</time>
      </trkpt>
      <trkpt lat="59.019279015748" lon="17.966876570492">
        <ele>0</ele>
        <time>2016-04-10T14:33:20Z</time>
      </trkpt>
      <trkpt lat="59.019195699662" lon="17.966834660992">
        <ele>0</ele>
        <time>2016-04-10T14:33:21Z</time>
      </trkpt>
      <trkpt lat="59.018774676825" lon="17.96664958864">
        <ele>0</ele>
        <time>2016-04-10T14:33:26Z</time>
      </trkpt>
      <trkpt lat="59.018185093979" lon="17.966397796364">
        <ele>0</ele>
        <time>2016-04-10T14:33:33Z</time>
      </trkpt>
      <trkpt lat="59.01810370573" lon="17.966364184945">
        <ele>0</ele>
        <time>2016-04-10T14:33:34Z</time>
      </trkpt>
      <trkpt lat="59.017694082277" lon="17.966249101458">
        <ele>0</ele>
        <time>2016-04-10T14:33:39Z</time>
      </trkpt>
      <trkpt lat="59.01761504096" lon="17.966270475303">
        <ele>0</ele>
        <time>2016-04-10T14:33:40Z</time>
      </trkpt>
      <trkpt lat="59.017417731034" lon="17.966472898188">
        <ele>0</ele>
        <time>2016-04-10T14:33:43Z</time>
      </trkpt>
      <trkpt lat="59.017277669485" lon="17.966717649668">
        <ele>0</ele>
        <time>2016-04-10T14:33:47Z</time>
      </trkpt>
      <trkpt lat="59.017220588746" lon="17.966777077339">
        <ele>0</ele>
        <time>2016-04-10T14:33:48Z</time>
      </trkpt>
      <trkpt lat="59.01708111393" lon="17.966758301883">
        <ele>0</ele>
        <time>2016-04-10T14:33:50Z</time>
      </trkpt>
      <trkpt lat="59.01687659557" lon="17.966537187361">
        <ele>0</ele>
        <time>2016-04-10T14:33:53Z</time>
      </trkpt>
      <trkpt lat="59.016805852334" lon="17.966459906243">
        <ele>0</ele>
        <time>2016-04-10T14:33:54Z</time>
      </trkpt>
      <trkpt lat="59.016371334638" lon="17.966063610011">
        <ele>0</ele>
        <time>2016-04-10T14:34:00Z</time>
      </trkpt>
      <trkpt lat="59.015887112275" lon="17.965645520839">
        <ele>0</ele>
        <time>2016-04-10T14:34:07Z</time>
      </trkpt>
      <trkpt lat="59.015671110712" lon="17.965492467345">
        <ele>0</ele>
        <time>2016-04-10T14:34:10Z</time>
      </trkpt>
      <trkpt lat="59.015156462052" lon="17.965152665119">
        <ele>0</ele>
        <time>2016-04-10T14:34:17Z</time>
      </trkpt>
      <trkpt lat="59.014649943835" lon="17.964892993857">
        <ele>0</ele>
        <time>2016-04-10T14:34:24Z</time>
      </trkpt>
      <trkpt lat="59.014138983211" lon="17.96464631454">
        <ele>0</ele>
        <time>2016-04-10T14:34:31Z</time>
      </trkpt>
      <trkpt lat="59.013571277124" lon="17.964402820345">
        <ele>0</ele>
        <time>2016-04-10T14:34:39Z</time>
      </trkpt>
      <trkpt lat="59.013072302617" lon="17.964184304212">
        <ele>0</ele>
        <time>2016-04-10T14:34:46Z</time>
      </trkpt>
      <trkpt lat="59.012604005864" lon="17.963981294594">
        <ele>0</ele>
        <time>2016-04-10T14:34:53Z</time>
      </trkpt>
      <trkpt lat="59.01210394171" lon="17.963741236978">
        <ele>0</ele>
        <time>2016-04-10T14:35:01Z</time>
      </trkpt>
      <trkpt lat="59.011697922474" lon="17.963513416936">
        <ele>0</ele>
        <time>2016-04-10T14:35:08Z</time>
      </trkpt>
      <trkpt lat="59.011639668269" lon="17.963471758893">
        <ele>0</ele>
        <time>2016-04-10T14:35:09Z</time>
      </trkpt>
      <trkpt lat="59.011580575874" lon="17.963430771402">
        <ele>0</ele>
        <time>2016-04-10T14:35:10Z</time>
      </trkpt>
      <trkpt lat="59.011521902574" lon="17.963388275169">
        <ele>0</ele>
        <time>2016-04-10T14:35:11Z</time>
      </trkpt>
      <trkpt lat="59.011464570378" lon="17.963340330701">
        <ele>0</ele>
        <time>2016-04-10T14:35:12Z</time>
      </trkpt>
      <trkpt lat="59.011292825247" lon="17.963177302746">
        <ele>0</ele>
        <time>2016-04-10T14:35:15Z</time>
      </trkpt>
      <trkpt lat="59.010923518733" lon="17.962722584671">
        <ele>0</ele>
        <time>2016-04-10T14:35:22Z</time>
      </trkpt>
      <trkpt lat="59.010873897885" lon="17.962656535299">
        <ele>0</ele>
        <time>2016-04-10T14:35:23Z</time>
      </trkpt>
      <trkpt lat="59.010820589001" lon="17.96258688171">
        <ele>0</ele>
        <time>2016-04-10T14:35:24Z</time>
      </trkpt>
      <trkpt lat="59.010765771375" lon="17.962515132646">
        <ele>0</ele>
        <time>2016-04-10T14:35:25Z</time>
      </trkpt>
      <trkpt lat="59.010710953749" lon="17.962438773537">
        <ele>0</ele>
        <time>2016-04-10T14:35:26Z</time>
      </trkpt>
      <trkpt lat="59.010594948253" lon="17.962288653708">
        <ele>0</ele>
        <time>2016-04-10T14:35:28Z</time>
      </trkpt>
      <trkpt lat="59.010173673959" lon="17.961744333122">
        <ele>0</ele>
        <time>2016-04-10T14:35:35Z</time>
      </trkpt>
      <trkpt lat="59.009756674434" lon="17.961193055559">
        <ele>0</ele>
        <time>2016-04-10T14:35:42Z</time>
      </trkpt>
      <trkpt lat="59.009438078415" lon="17.960767003582">
        <ele>0</ele>
        <time>2016-04-10T14:35:48Z</time>
      </trkpt>
      <trkpt lat="59.009331628285" lon="17.960633815191">
        <ele>0</ele>
        <time>2016-04-10T14:35:50Z</time>
      </trkpt>
      <trkpt lat="59.009274966641" lon="17.960557958996">
        <ele>0</ele>
        <time>2016-04-10T14:35:51Z</time>
      </trkpt>
      <trkpt lat="59.009221154843" lon="17.960484952647">
        <ele>0</ele>
        <time>2016-04-10T14:35:52Z</time>
      </trkpt>
      <trkpt lat="59.009167175407" lon="17.960407252434">
        <ele>0</ele>
        <time>2016-04-10T14:35:53Z</time>
      </trkpt>
      <trkpt lat="59.009115291446" lon="17.960344220546">
        <ele>0</ele>
        <time>2016-04-10T14:35:54Z</time>
      </trkpt>
      <trkpt lat="59.00906047382" lon="17.960277416803">
        <ele>0</ele>
        <time>2016-04-10T14:35:55Z</time>
      </trkpt>
      <trkpt lat="59.008794097038" lon="17.959914815809">
        <ele>0</ele>
        <time>2016-04-10T14:36:00Z</time>
      </trkpt>
      <trkpt lat="59.00843937503" lon="17.959440735545">
        <ele>0</ele>
        <time>2016-04-10T14:36:06Z</time>
      </trkpt>
      <trkpt lat="59.007975436865" lon="17.958849141043">
        <ele>0</ele>
        <time>2016-04-10T14:36:13Z</time>
      </trkpt>
      <trkpt lat="59.007636808105" lon="17.95839593171">
        <ele>0</ele>
        <time>2016-04-10T14:36:18Z</time>
      </trkpt>
      <trkpt lat="59.007213270698" lon="17.957827219795">
        <ele>0</ele>
        <time>2016-04-10T14:36:24Z</time>
      </trkpt>
      <trkpt lat="59.007086284913" lon="17.957640973977">
        <ele>0</ele>
        <time>2016-04-10T14:36:26Z</time>
      </trkpt>
      <trkpt lat="59.007025767595" lon="17.957550114181">
        <ele>0</ele>
        <time>2016-04-10T14:36:27Z</time>
      </trkpt>
      <trkpt lat="59.00696332244" lon="17.957463948249">
        <ele>0</ele>
        <time>2016-04-10T14:36:28Z</time>
      </trkpt>
      <trkpt lat="59.006898195077" lon="17.957377027946">
        <ele>0</ele>
        <time>2016-04-10T14:36:29Z</time>
      </trkpt>
      <trkpt lat="59.006837342483" lon="17.957295136783">
        <ele>0</ele>
        <time>2016-04-10T14:36:30Z</time>
      </trkpt>
      <trkpt lat="59.006776992803" lon="17.95720737829">
        <ele>0</ele>
        <time>2016-04-10T14:36:31Z</time>
      </trkpt>
      <trkpt lat="59.006432999627" lon="17.956661213686">
        <ele>0</ele>
        <time>2016-04-10T14:36:37Z</time>
      </trkpt>
      <trkpt lat="59.006378601096" lon="17.956572197908">
        <ele>0</ele>
        <time>2016-04-10T14:36:38Z</time>
      </trkpt>
      <trkpt lat="59.006324873117" lon="17.956481841026">
        <ele>0</ele>
        <time>2016-04-10T14:36:39Z</time>
      </trkpt>
      <trkpt lat="59.00627013931" lon="17.956391400325">
        <ele>0</ele>
        <time>2016-04-10T14:36:40Z</time>
      </trkpt>
      <trkpt lat="59.006215489322" lon="17.95629626576">
        <ele>0</ele>
        <time>2016-04-10T14:36:41Z</time>
      </trkpt>
      <trkpt lat="59.005841572763" lon="17.955587576115">
        <ele>0</ele>
        <time>2016-04-10T14:36:48Z</time>
      </trkpt>
      <trkpt lat="59.0056842445" lon="17.955277697272">
        <ele>0</ele>
        <time>2016-04-10T14:36:51Z</time>
      </trkpt>
      <trkpt lat="59.005627499037" lon="17.955174348445">
        <ele>0</ele>
        <time>2016-04-10T14:36:52Z</time>
      </trkpt>
      <trkpt lat="59.005575950352" lon="17.955079632975">
        <ele>0</ele>
        <time>2016-04-10T14:36:53Z</time>
      </trkpt>
      <trkpt lat="59.005529514626" lon="17.954979636908">
        <ele>0</ele>
        <time>2016-04-10T14:36:54Z</time>
      </trkpt>
      <trkpt lat="59.005488024221" lon="17.954873522054">
        <ele>0</ele>
        <time>2016-04-10T14:36:55Z</time>
      </trkpt>
      <trkpt lat="59.00529364796" lon="17.954459120918">
        <ele>0</ele>
        <time>2016-04-10T14:36:59Z</time>
      </trkpt>
      <trkpt lat="59.005247379872" lon="17.954368847855">
        <ele>0</ele>
        <time>2016-04-10T14:37:00Z</time>
      </trkpt>
      <trkpt lat="59.005199938318" lon="17.954275976403">
        <ele>0</ele>
        <time>2016-04-10T14:37:01Z</time>
      </trkpt>
      <trkpt lat="59.00514696471" lon="17.954179249277">
        <ele>0</ele>
        <time>2016-04-10T14:37:02Z</time>
      </trkpt>
      <trkpt lat="59.005094577835" lon="17.954078079744">
        <ele>0</ele>
        <time>2016-04-10T14:37:03Z</time>
      </trkpt>
      <trkpt lat="59.004947643128" lon="17.953761243924">
        <ele>0</ele>
        <time>2016-04-10T14:37:06Z</time>
      </trkpt>
      <trkpt lat="59.004709764806" lon="17.953168308318">
        <ele>0</ele>
        <time>2016-04-10T14:37:11Z</time>
      </trkpt>
      <trkpt lat="59.004360407214" lon="17.952155355703">
        <ele>0</ele>
        <time>2016-04-10T14:37:19Z</time>
      </trkpt>
      <trkpt lat="59.004274660377" lon="17.951907083825">
        <ele>0</ele>
        <time>2016-04-10T14:37:21Z</time>
      </trkpt>
      <trkpt lat="59.00395505853" lon="17.951031342913">
        <ele>0</ele>
        <time>2016-04-10T14:37:28Z</time>
      </trkpt>
      <trkpt lat="59.003695722544" lon="17.950447711216">
        <ele>0</ele>
        <time>2016-04-10T14:37:33Z</time>
      </trkpt>
      <trkpt lat="59.003358602526" lon="17.949857709275">
        <ele>0</ele>
        <time>2016-04-10T14:37:39Z</time>
      </trkpt>
      <trkpt lat="59.003012346237" lon="17.949403158838">
        <ele>0</ele>
        <time>2016-04-10T14:37:45Z</time>
      </trkpt>
      <trkpt lat="59.002600794947" lon="17.948992026643">
        <ele>0</ele>
        <time>2016-04-10T14:37:52Z</time>
      </trkpt>
      <trkpt lat="59.002220089049" lon="17.948683069809">
        <ele>0</ele>
        <time>2016-04-10T14:37:58Z</time>
      </trkpt>
      <trkpt lat="59.001662525061" lon="17.948193399211">
        <ele>0</ele>
        <time>2016-04-10T14:38:06Z</time>
      </trkpt>
      <trkpt lat="59.00158884816" lon="17.948117123921">
        <ele>0</ele>
        <time>2016-04-10T14:38:07Z</time>
      </trkpt>
      <trkpt lat="59.001122479244" lon="17.947511280189">
        <ele>0</ele>
        <time>2016-04-10T14:38:14Z</time>
      </trkpt>
      <trkpt lat="59.000780749181" lon="17.946895545815">
        <ele>0</ele>
        <time>2016-04-10T14:38:20Z</time>
      </trkpt>
      <trkpt lat="59.000392499573" lon="17.946078562022">
        <ele>0</ele>
        <time>2016-04-10T14:38:27Z</time>
      </trkpt>
      <trkpt lat="59.000123105307" lon="17.945477244516">
        <ele>0</ele>
        <time>2016-04-10T14:38:32Z</time>
      </trkpt>
      <trkpt lat="59.0000683715" lon="17.945359059726">
        <ele>0</ele>
        <time>2016-04-10T14:38:33Z</time>
      </trkpt>
      <trkpt lat="59.000020007937" lon="17.945246490809">
        <ele>0</ele>
        <time>2016-04-10T14:38:34Z</time>
      </trkpt>
      <trkpt lat="58.999969381261" lon="17.945133670435">
        <ele>0</ele>
        <time>2016-04-10T14:38:35Z</time>
      </trkpt>
      <trkpt lat="58.999918838404" lon="17.945023113174">
        <ele>0</ele>
        <time>2016-04-10T14:38:36Z</time>
      </trkpt>
      <trkpt lat="58.999641146057" lon="17.944303862335">
        <ele>0</ele>
        <time>2016-04-10T14:38:42Z</time>
      </trkpt>
      <trkpt lat="58.999379127863" lon="17.943430803631">
        <ele>0</ele>
        <time>2016-04-10T14:38:49Z</time>
      </trkpt>
      <trkpt lat="58.999147703604" lon="17.942612143458">
        <ele>0</ele>
        <time>2016-04-10T14:38:56Z</time>
      </trkpt>
      <trkpt lat="58.999084504078" lon="17.942405110528">
        <ele>0</ele>
        <time>2016-04-10T14:38:58Z</time>
      </trkpt>
      <trkpt lat="58.9990457797" lon="17.942302096977">
        <ele>0</ele>
        <time>2016-04-10T14:38:59Z</time>
      </trkpt>
      <trkpt lat="58.999008815521" lon="17.942186091481">
        <ele>0</ele>
        <time>2016-04-10T14:39:00Z</time>
      </trkpt>
      <trkpt lat="58.998977802491" lon="17.942071007994">
        <ele>0</ele>
        <time>2016-04-10T14:39:01Z</time>
      </trkpt>
      <trkpt lat="58.998951399506" lon="17.941953577575">
        <ele>0</ele>
        <time>2016-04-10T14:39:02Z</time>
      </trkpt>
      <trkpt lat="58.998819971314" lon="17.941469271393">
        <ele>0</ele>
        <time>2016-04-10T14:39:06Z</time>
      </trkpt>
      <trkpt lat="58.998617213153" lon="17.940765946164">
        <ele>0</ele>
        <time>2016-04-10T14:39:12Z</time>
      </trkpt>
      <trkpt lat="58.998451419171" lon="17.940170495988">
        <ele>0</ele>
        <time>2016-04-10T14:39:17Z</time>
      </trkpt>
      <trkpt lat="58.998419484132" lon="17.940054825768">
        <ele>0</ele>
        <time>2016-04-10T14:39:18Z</time>
      </trkpt>
      <trkpt lat="58.998386375627" lon="17.939939155548">
        <ele>0</ele>
        <time>2016-04-10T14:39:19Z</time>
      </trkpt>
      <trkpt lat="58.998351423104" lon="17.939820216387">
        <ele>0</ele>
        <time>2016-04-10T14:39:20Z</time>
      </trkpt>
      <trkpt lat="58.998317560228" lon="17.93970764747">
        <ele>0</ele>
        <time>2016-04-10T14:39:21Z</time>
      </trkpt>
      <trkpt lat="58.998092506213" lon="17.938870128022">
        <ele>0</ele>
        <time>2016-04-10T14:39:28Z</time>
      </trkpt>
      <trkpt lat="58.997965520428" lon="17.938376769388">
        <ele>0</ele>
        <time>2016-04-10T14:39:32Z</time>
      </trkpt>
      <trkpt lat="58.997936602873" lon="17.938251795259">
        <ele>0</ele>
        <time>2016-04-10T14:39:33Z</time>
      </trkpt>
      <trkpt lat="58.997906511852" lon="17.938134448659">
        <ele>0</ele>
        <time>2016-04-10T14:39:34Z</time>
      </trkpt>
      <trkpt lat="58.997875163546" lon="17.938008468702">
        <ele>0</ele>
        <time>2016-04-10T14:39:35Z</time>
      </trkpt>
      <trkpt lat="58.997846665086" lon="17.937891457378">
        <ele>0</ele>
        <time>2016-04-10T14:39:36Z</time>
      </trkpt>
      <trkpt lat="58.997625718202" lon="17.936949247999">
        <ele>0</ele>
        <time>2016-04-10T14:39:44Z</time>
      </trkpt>
      <trkpt lat="58.997392449925" lon="17.936020114384">
        <ele>0</ele>
        <time>2016-04-10T14:39:52Z</time>
      </trkpt>
      <trkpt lat="58.997096820312" lon="17.935130208061">
        <ele>0</ele>
        <time>2016-04-10T14:40:00Z</time>
      </trkpt>
      <trkpt lat="58.997056251916" lon="17.935030379632">
        <ele>0</ele>
        <time>2016-04-10T14:40:01Z</time>
      </trkpt>
      <trkpt lat="58.997011911665" lon="17.934936083257">
        <ele>0</ele>
        <time>2016-04-10T14:40:02Z</time>
      </trkpt>
      <trkpt lat="58.996969499251" lon="17.934845139642">
        <ele>0</ele>
        <time>2016-04-10T14:40:03Z</time>
      </trkpt>
      <trkpt lat="58.996924572267" lon="17.934754028389">
        <ele>0</ele>
        <time>2016-04-10T14:40:04Z</time>
      </trkpt>
      <trkpt lat="58.996878052722" lon="17.93466844919">
        <ele>0</ele>
        <time>2016-04-10T14:40:05Z</time>
      </trkpt>
      <trkpt lat="58.996782750519" lon="17.934505924149">
        <ele>0</ele>
        <time>2016-04-10T14:40:07Z</time>
      </trkpt>
      <trkpt lat="58.996478655187" lon="17.93408674533">
        <ele>0</ele>
        <time>2016-04-10T14:40:13Z</time>
      </trkpt>
      <trkpt lat="58.996160394444" lon="17.933696903161">
        <ele>0</ele>
        <time>2016-04-10T14:40:19Z</time>
      </trkpt>
      <trkpt lat="58.996103900438" lon="17.933645438295">
        <ele>0</ele>
        <time>2016-04-10T14:40:20Z</time>
      </trkpt>
      <trkpt lat="58.996048998993" lon="17.933593302877">
        <ele>0</ele>
        <time>2016-04-10T14:40:21Z</time>
      </trkpt>
      <trkpt lat="58.995992085892" lon="17.93352599622">
        <ele>0</ele>
        <time>2016-04-10T14:40:22Z</time>
      </trkpt>
      <trkpt lat="58.995937435904" lon="17.93346480835">
        <ele>0</ele>
        <time>2016-04-10T14:40:23Z</time>
      </trkpt>
      <trkpt lat="58.995706179283" lon="17.933242604181">
        <ele>0</ele>
        <time>2016-04-10T14:40:27Z</time>
      </trkpt>
      <trkpt lat="58.995303848083" lon="17.932893581865">
        <ele>0</ele>
        <time>2016-04-10T14:40:34Z</time>
      </trkpt>
      <trkpt lat="58.995247689353" lon="17.932848906338">
        <ele>0</ele>
        <time>2016-04-10T14:40:35Z</time>
      </trkpt>
      <trkpt lat="58.995190440976" lon="17.93281185834">
        <ele>0</ele>
        <time>2016-04-10T14:40:36Z</time>
      </trkpt>
      <trkpt lat="58.995131264762" lon="17.932778163102">
        <ele>0</ele>
        <time>2016-04-10T14:40:37Z</time>
      </trkpt>
      <trkpt lat="58.995074603118" lon="17.932751089565">
        <ele>0</ele>
        <time>2016-04-10T14:40:38Z</time>
      </trkpt>
      <trkpt lat="58.99490847386" lon="17.932697445405">
        <ele>0</ele>
        <time>2016-04-10T14:40:41Z</time>
      </trkpt>
      <trkpt lat="58.994855248795" lon="17.932699876156">
        <ele>0</ele>
        <time>2016-04-10T14:40:42Z</time>
      </trkpt>
      <trkpt lat="58.994699429274" lon="17.932731978833">
        <ele>0</ele>
        <time>2016-04-10T14:40:45Z</time>
      </trkpt>
      <trkpt lat="58.994640336879" lon="17.932741534199">
        <ele>0</ele>
        <time>2016-04-10T14:40:46Z</time>
      </trkpt>
      <trkpt lat="58.994584429606" lon="17.932752179212">
        <ele>0</ele>
        <time>2016-04-10T14:40:47Z</time>
      </trkpt>
      <trkpt lat="58.994529025247" lon="17.932739103448">
        <ele>0</ele>
        <time>2016-04-10T14:40:48Z</time>
      </trkpt>
      <trkpt lat="58.99447093868" lon="17.932723177838">
        <ele>0</ele>
        <time>2016-04-10T14:40:49Z</time>
      </trkpt>
      <trkpt lat="58.99442148547" lon="17.932678167035">
        <ele>0</ele>
        <time>2016-04-10T14:40:50Z</time>
      </trkpt>
      <trkpt lat="58.99427731679" lon="17.932460153816">
        <ele>0</ele>
        <time>2016-04-10T14:40:53Z</time>
      </trkpt>
      <trkpt lat="58.994239765878" lon="17.932378095015">
        <ele>0</ele>
        <time>2016-04-10T14:40:54Z</time>
      </trkpt>
      <trkpt lat="58.994208501391" lon="17.932271896342">
        <ele>0</ele>
        <time>2016-04-10T14:40:55Z</time>
      </trkpt>
      <trkpt lat="58.994185367347" lon="17.932181036546">
        <ele>0</ele>
        <time>2016-04-10T14:40:56Z</time>
      </trkpt>
      <trkpt lat="58.994176901628" lon="17.93207508933">
        <ele>0</ele>
        <time>2016-04-10T14:40:57Z</time>
      </trkpt>
      <trkpt lat="58.994187881917" lon="17.931740148606">
        <ele>0</ele>
        <time>2016-04-10T14:41:00Z</time>
      </trkpt>
      <trkpt lat="58.994200119491" lon="17.931635291037">
        <ele>0</ele>
        <time>2016-04-10T14:41:01Z</time>
      </trkpt>
      <trkpt lat="58.99432174086" lon="17.9311388311">
        <ele>0</ele>
        <time>2016-04-10T14:41:06Z</time>
      </trkpt>
      <trkpt lat="58.994471609232" lon="17.930477750647">
        <ele>0</ele>
        <time>2016-04-10T14:41:12Z</time>
      </trkpt>
      <trkpt lat="58.994485942281" lon="17.930356213097">
        <ele>0</ele>
        <time>2016-04-10T14:41:13Z</time>
      </trkpt>
      <trkpt lat="58.99444746936" lon="17.929961509426">
        <ele>0</ele>
        <time>2016-04-10T14:41:16Z</time>
      </trkpt>
      <trkpt lat="58.994289722002" lon="17.92965104385">
        <ele>0</ele>
        <time>2016-04-10T14:41:19Z</time>
      </trkpt>
      <trkpt lat="58.99413733906" lon="17.929540738046">
        <ele>0</ele>
        <time>2016-04-10T14:41:21Z</time>
      </trkpt>
      <trkpt lat="58.994059135933" lon="17.929499247641">
        <ele>0</ele>
        <time>2016-04-10T14:41:22Z</time>
      </trkpt>
      <trkpt lat="58.993977831503" lon="17.929454823571">
        <ele>0</ele>
        <time>2016-04-10T14:41:23Z</time>
      </trkpt>
      <trkpt lat="58.993898706367" lon="17.929415763917">
        <ele>0</ele>
        <time>2016-04-10T14:41:24Z</time>
      </trkpt>
      <trkpt lat="58.99382301781" lon="17.929381062851">
        <ele>0</ele>
        <time>2016-04-10T14:41:25Z</time>
      </trkpt>
      <trkpt lat="58.993749089452" lon="17.929342673749">
        <ele>0</ele>
        <time>2016-04-10T14:41:26Z</time>
      </trkpt>
      <trkpt lat="58.993672562705" lon="17.929293304358">
        <ele>0</ele>
        <time>2016-04-10T14:41:27Z</time>
      </trkpt>
      <trkpt lat="58.993592683198" lon="17.929248125917">
        <ele>0</ele>
        <time>2016-04-10T14:41:28Z</time>
      </trkpt>
      <trkpt lat="58.993514228614" lon="17.92921015591">
        <ele>0</ele>
        <time>2016-04-10T14:41:29Z</time>
      </trkpt>
      <trkpt lat="58.993433091822" lon="17.929168162591">
        <ele>0</ele>
        <time>2016-04-10T14:41:30Z</time>
      </trkpt>
      <trkpt lat="58.992999747592" lon="17.928908072234">
        <ele>0</ele>
        <time>2016-04-10T14:41:36Z</time>
      </trkpt>
      <trkpt lat="58.992451906608" lon="17.928514793486">
        <ele>0</ele>
        <time>2016-04-10T14:41:44Z</time>
      </trkpt>
      <trkpt lat="58.992378145888" lon="17.928457964204">
        <ele>0</ele>
        <time>2016-04-10T14:41:45Z</time>
      </trkpt>
      <trkpt lat="58.991921667614" lon="17.928047167285">
        <ele>0</ele>
        <time>2016-04-10T14:41:52Z</time>
      </trkpt>
      <trkpt lat="58.991409701162" lon="17.927578786713">
        <ele>0</ele>
        <time>2016-04-10T14:42:00Z</time>
      </trkpt>
      <trkpt lat="58.991349435301" lon="17.927516257739">
        <ele>0</ele>
        <time>2016-04-10T14:42:01Z</time>
      </trkpt>
      <trkpt lat="58.991287325422" lon="17.927461188656">
        <ele>0</ele>
        <time>2016-04-10T14:42:02Z</time>
      </trkpt>
      <trkpt lat="58.991225299362" lon="17.927401174252">
        <ele>0</ele>
        <time>2016-04-10T14:42:03Z</time>
      </trkpt>
      <trkpt lat="58.991166877519" lon="17.927337807088">
        <ele>0</ele>
        <time>2016-04-10T14:42:04Z</time>
      </trkpt>
      <trkpt lat="58.99097149543" lon="17.92713395928">
        <ele>0</ele>
        <time>2016-04-10T14:42:07Z</time>
      </trkpt>
      <trkpt lat="58.990577210854" lon="17.926741602541">
        <ele>0</ele>
        <time>2016-04-10T14:42:13Z</time>
      </trkpt>
      <trkpt lat="58.990221985932" lon="17.926307168664">
        <ele>0</ele>
        <time>2016-04-10T14:42:19Z</time>
      </trkpt>
      <trkpt lat="58.989782858191" lon="17.925798303515">
        <ele>0</ele>
        <time>2016-04-10T14:42:26Z</time>
      </trkpt>
      <trkpt lat="58.989421011568" lon="17.925379459972">
        <ele>0</ele>
        <time>2016-04-10T14:42:32Z</time>
      </trkpt>
      <trkpt lat="58.989045753905" lon="17.924935470729">
        <ele>0</ele>
        <time>2016-04-10T14:42:39Z</time>
      </trkpt>
      <trkpt lat="58.988665550921" lon="17.92449114621">
        <ele>0</ele>
        <time>2016-04-10T14:42:46Z</time>
      </trkpt>
      <trkpt lat="58.988208905009" lon="17.92387423837">
        <ele>0</ele>
        <time>2016-04-10T14:42:55Z</time>
      </trkpt>
      <trkpt lat="58.988158026876" lon="17.923804836238">
        <ele>0</ele>
        <time>2016-04-10T14:42:56Z</time>
      </trkpt>
      <trkpt lat="58.98792132202" lon="17.92346436346">
        <ele>0</ele>
        <time>2016-04-10T14:43:01Z</time>
      </trkpt>
      <trkpt lat="58.98787522157" lon="17.923395799518">
        <ele>0</ele>
        <time>2016-04-10T14:43:02Z</time>
      </trkpt>
      <trkpt lat="58.987831803328" lon="17.923327822309">
        <ele>0</ele>
        <time>2016-04-10T14:43:03Z</time>
      </trkpt>
      <trkpt lat="58.987788804181" lon="17.92325565415">
        <ele>0</ele>
        <time>2016-04-10T14:43:04Z</time>
      </trkpt>
      <trkpt lat="58.987745888853" lon="17.923186335837">
        <ele>0</ele>
        <time>2016-04-10T14:43:05Z</time>
      </trkpt>
      <trkpt lat="58.987481523727" lon="17.922758942756">
        <ele>0</ele>
        <time>2016-04-10T14:43:11Z</time>
      </trkpt>
      <trkpt lat="58.987174662368" lon="17.922264829751">
        <ele>0</ele>
        <time>2016-04-10T14:43:18Z</time>
      </trkpt>
      <trkpt lat="58.986886492646" lon="17.921754874955">
        <ele>0</ele>
        <time>2016-04-10T14:43:24Z</time>
      </trkpt>
      <trkpt lat="58.986497907762" lon="17.921104523334">
        <ele>0</ele>
        <time>2016-04-10T14:43:31Z</time>
      </trkpt>
      <trkpt lat="58.986134887673" lon="17.92045023222">
        <ele>0</ele>
        <time>2016-04-10T14:43:37Z</time>
      </trkpt>
      <trkpt lat="58.985713864836" lon="17.919747829">
        <ele>0</ele>
        <time>2016-04-10T14:43:44Z</time>
      </trkpt>
      <trkpt lat="58.985270881421" lon="17.919163694389">
        <ele>0</ele>
        <time>2016-04-10T14:43:51Z</time>
      </trkpt>
      <trkpt lat="58.984895875215" lon="17.918755747316">
        <ele>0</ele>
        <time>2016-04-10T14:43:57Z</time>
      </trkpt>
      <trkpt lat="58.984833597698" lon="17.918695146179">
        <ele>0</ele>
        <time>2016-04-10T14:43:58Z</time>
      </trkpt>
      <trkpt lat="58.984773164199" lon="17.918635383232">
        <ele>0</ele>
        <time>2016-04-10T14:43:59Z</time>
      </trkpt>
      <trkpt lat="58.984715832003" lon="17.918586600574">
        <ele>0</ele>
        <time>2016-04-10T14:44:00Z</time>
      </trkpt>
      <trkpt lat="58.984656069056" lon="17.918532704957">
        <ele>0</ele>
        <time>2016-04-10T14:44:01Z</time>
      </trkpt>
      <trkpt lat="58.984539644465" lon="17.918422902067">
        <ele>0</ele>
        <time>2016-04-10T14:44:03Z</time>
      </trkpt>
      <trkpt lat="58.984150389029" lon="17.918054349924">
        <ele>0</ele>
        <time>2016-04-10T14:44:10Z</time>
      </trkpt>
      <trkpt lat="58.98409833743" lon="17.917988803466">
        <ele>0</ele>
        <time>2016-04-10T14:44:11Z</time>
      </trkpt>
      <trkpt lat="58.984042262519" lon="17.917929124338">
        <ele>0</ele>
        <time>2016-04-10T14:44:12Z</time>
      </trkpt>
      <trkpt lat="58.983991132929" lon="17.917863494061">
        <ele>0</ele>
        <time>2016-04-10T14:44:13Z</time>
      </trkpt>
      <trkpt lat="58.983932543448" lon="17.917796690318">
        <ele>0</ele>
        <time>2016-04-10T14:44:14Z</time>
      </trkpt>
      <trkpt lat="58.983821147997" lon="17.917682361202">
        <ele>0</ele>
        <time>2016-04-10T14:44:16Z</time>
      </trkpt>
      <trkpt lat="58.983455613338" lon="17.917342475157">
        <ele>0</ele>
        <time>2016-04-10T14:44:23Z</time>
      </trkpt>
      <trkpt lat="58.983400711893" lon="17.917296877621">
        <ele>0</ele>
        <time>2016-04-10T14:44:24Z</time>
      </trkpt>
      <trkpt lat="58.983350252855" lon="17.917247927325">
        <ele>0</ele>
        <time>2016-04-10T14:44:25Z</time>
      </trkpt>
      <trkpt lat="58.983300548188" lon="17.917186571817">
        <ele>0</ele>
        <time>2016-04-10T14:44:26Z</time>
      </trkpt>
      <trkpt lat="58.983246904028" lon="17.917130245449">
        <ele>0</ele>
        <time>2016-04-10T14:44:27Z</time>
      </trkpt>
      <trkpt lat="58.983091335964" lon="17.916965457295">
        <ele>0</ele>
        <time>2016-04-10T14:44:30Z</time>
      </trkpt>
      <trkpt lat="58.982863096827" lon="17.916757334718">
        <ele>0</ele>
        <time>2016-04-10T14:44:35Z</time>
      </trkpt>
      <trkpt lat="58.982818924214" lon="17.916722214557">
        <ele>0</ele>
        <time>2016-04-10T14:44:36Z</time>
      </trkpt>
      <trkpt lat="58.982774416325" lon="17.916683993093">
        <ele>0</ele>
        <time>2016-04-10T14:44:37Z</time>
      </trkpt>
      <trkpt lat="58.982734518481" lon="17.916647112733">
        <ele>0</ele>
        <time>2016-04-10T14:44:38Z</time>
      </trkpt>
      <trkpt lat="58.982683975624" lon="17.916624062508">
        <ele>0</ele>
        <time>2016-04-10T14:44:39Z</time>
      </trkpt>
      <trkpt lat="58.982588002869" lon="17.916590115813">
        <ele>0</ele>
        <time>2016-04-10T14:44:41Z</time>
      </trkpt>
      <trkpt lat="58.982327828693" lon="17.916481486389">
        <ele>0</ele>
        <time>2016-04-10T14:44:46Z</time>
      </trkpt>
      <trkpt lat="58.982221210925" lon="17.916404792004">
        <ele>0</ele>
        <time>2016-04-10T14:44:48Z</time>
      </trkpt>
      <trkpt lat="58.981861878872" lon="17.916065157416">
        <ele>0</ele>
        <time>2016-04-10T14:44:55Z</time>
      </trkpt>
      <trkpt lat="58.981460469681" lon="17.915666430433">
        <ele>0</ele>
        <time>2016-04-10T14:45:02Z</time>
      </trkpt>
      <trkpt lat="58.981085463475" lon="17.915297207738">
        <ele>0</ele>
        <time>2016-04-10T14:45:08Z</time>
      </trkpt>
      <trkpt lat="58.981015977524" lon="17.915233756755">
        <ele>0</ele>
        <time>2016-04-10T14:45:09Z</time>
      </trkpt>
      <trkpt lat="58.980950514885" lon="17.915170808686">
        <ele>0</ele>
        <time>2016-04-10T14:45:10Z</time>
      </trkpt>
      <trkpt lat="58.980885136065" lon="17.915105346047">
        <ele>0</ele>
        <time>2016-04-10T14:45:11Z</time>
      </trkpt>
      <trkpt lat="58.980816991218" lon="17.915043487625">
        <ele>0</ele>
        <time>2016-04-10T14:45:12Z</time>
      </trkpt>
      <trkpt lat="58.980747505267" lon="17.914973666398">
        <ele>0</ele>
        <time>2016-04-10T14:45:13Z</time>
      </trkpt>
      <trkpt lat="58.980676175298" lon="17.914910383053">
        <ele>0</ele>
        <time>2016-04-10T14:45:14Z</time>
      </trkpt>
      <trkpt lat="58.980448187618" lon="17.914701841381">
        <ele>0</ele>
        <time>2016-04-10T14:45:17Z</time>
      </trkpt>
      <trkpt lat="58.980199664283" lon="17.914507548939">
        <ele>0</ele>
        <time>2016-04-10T14:45:20Z</time>
      </trkpt>
      <trkpt lat="58.980110145591" lon="17.914442170119">
        <ele>0</ele>
        <time>2016-04-10T14:45:21Z</time>
      </trkpt>
      <trkpt lat="58.980021716546" lon="17.914366397743">
        <ele>0</ele>
        <time>2016-04-10T14:45:22Z</time>
      </trkpt>
      <trkpt lat="58.979930270017" lon="17.914287272607">
        <ele>0</ele>
        <time>2016-04-10T14:45:23Z</time>
      </trkpt>
      <trkpt lat="58.979840248411" lon="17.91419817301">
        <ele>0</ele>
        <time>2016-04-10T14:45:24Z</time>
      </trkpt>
      <trkpt lat="58.979747041683" lon="17.914106642662">
        <ele>0</ele>
        <time>2016-04-10T14:45:25Z</time>
      </trkpt>
      <trkpt lat="58.979655511335" lon="17.914005808405">
        <ele>0</ele>
        <time>2016-04-10T14:45:26Z</time>
      </trkpt>
      <trkpt lat="58.979562723702" lon="17.913903800682">
        <ele>0</ele>
        <time>2016-04-10T14:45:27Z</time>
      </trkpt>
      <trkpt lat="58.97947152863" lon="17.913800619493">
        <ele>0</ele>
        <time>2016-04-10T14:45:28Z</time>
      </trkpt>
      <trkpt lat="58.979376896979" lon="17.913710514068">
        <ele>0</ele>
        <time>2016-04-10T14:45:29Z</time>
      </trkpt>
      <trkpt lat="58.979280672767" lon="17.913632310941">
        <ele>0</ele>
        <time>2016-04-10T14:45:30Z</time>
      </trkpt>
      <trkpt lat="58.979183023632" lon="17.913542959887">
        <ele>0</ele>
        <time>2016-04-10T14:45:31Z</time>
      </trkpt>
      <trkpt lat="58.979082524651" lon="17.913458135059">
        <ele>0</ele>
        <time>2016-04-10T14:45:32Z</time>
      </trkpt>
      <trkpt lat="58.978978337634" lon="17.913362162304">
        <ele>0</ele>
        <time>2016-04-10T14:45:33Z</time>
      </trkpt>
      <trkpt lat="58.978878593024" lon="17.913286557566">
        <ele>0</ele>
        <time>2016-04-10T14:45:34Z</time>
      </trkpt>
      <trkpt lat="58.978778094043" lon="17.913196368322">
        <ele>0</ele>
        <time>2016-04-10T14:45:35Z</time>
      </trkpt>
      <trkpt lat="58.978677008329" lon="17.913088325631">
        <ele>0</ele>
        <time>2016-04-10T14:45:36Z</time>
      </trkpt>
      <trkpt lat="58.978577096081" lon="17.912968799737">
        <ele>0</ele>
        <time>2016-04-10T14:45:37Z</time>
      </trkpt>
      <trkpt lat="58.978483721715" lon="17.912817506442">
        <ele>0</ele>
        <time>2016-04-10T14:45:38Z</time>
      </trkpt>
      <trkpt lat="58.978399818896" lon="17.912649449347">
        <ele>0</ele>
        <time>2016-04-10T14:45:39Z</time>
      </trkpt>
      <trkpt lat="58.978320274665" lon="17.912457671475">
        <ele>0</ele>
        <time>2016-04-10T14:45:40Z</time>
      </trkpt>
      <trkpt lat="58.978252129818" lon="17.912255500047">
        <ele>0</ele>
        <time>2016-04-10T14:45:41Z</time>
      </trkpt>
      <trkpt lat="58.978183314419" lon="17.912048048022">
        <ele>0</ele>
        <time>2016-04-10T14:45:42Z</time>
      </trkpt>
      <trkpt lat="58.978105111292" lon="17.91184872644">
        <ele>0</ele>
        <time>2016-04-10T14:45:43Z</time>
      </trkpt>
      <trkpt lat="58.978039313377" lon="17.911650578324">
        <ele>0</ele>
        <time>2016-04-10T14:45:44Z</time>
      </trkpt>
      <trkpt lat="58.97799379966" lon="17.911428122698">
        <ele>0</ele>
        <time>2016-04-10T14:45:45Z</time>
      </trkpt>
      <trkpt lat="58.977990111624" lon="17.911195944068">
        <ele>0</ele>
        <time>2016-04-10T14:45:46Z</time>
      </trkpt>
      <trkpt lat="58.97801726898" lon="17.910964016895">
        <ele>0</ele>
        <time>2016-04-10T14:45:47Z</time>
      </trkpt>
      <trkpt lat="58.978063704706" lon="17.910763940942">
        <ele>0</ele>
        <time>2016-04-10T14:45:48Z</time>
      </trkpt>
      <trkpt lat="58.97811449902" lon="17.910565289912">
        <ele>0</ele>
        <time>2016-04-10T14:45:49Z</time>
      </trkpt>
      <trkpt lat="58.978162694945" lon="17.910366387425">
        <ele>0</ele>
        <time>2016-04-10T14:45:50Z</time>
      </trkpt>
      <trkpt lat="58.978196893097" lon="17.910163880721">
        <ele>0</ele>
        <time>2016-04-10T14:45:51Z</time>
      </trkpt>
      <trkpt lat="58.978291943843" lon="17.90955376222">
        <ele>0</ele>
        <time>2016-04-10T14:45:54Z</time>
      </trkpt>
      <trkpt lat="58.978337038465" lon="17.909165344974">
        <ele>0</ele>
        <time>2016-04-10T14:45:56Z</time>
      </trkpt>
      <trkpt lat="58.978357155025" lon="17.90897541112">
        <ele>0</ele>
        <time>2016-04-10T14:45:57Z</time>
      </trkpt>
      <trkpt lat="58.97837349973" lon="17.908786399275">
        <ele>0</ele>
        <time>2016-04-10T14:45:58Z</time>
      </trkpt>
      <trkpt lat="58.978390766444" lon="17.908599734362">
        <ele>0</ele>
        <time>2016-04-10T14:45:59Z</time>
      </trkpt>
      <trkpt lat="58.978402417285" lon="17.908421702806">
        <ele>0</ele>
        <time>2016-04-10T14:46:00Z</time>
      </trkpt>
      <trkpt lat="58.978402333466" lon="17.908245682906">
        <ele>0</ele>
        <time>2016-04-10T14:46:01Z</time>
      </trkpt>
      <trkpt lat="58.978386240218" lon="17.908089276652">
        <ele>0</ele>
        <time>2016-04-10T14:46:02Z</time>
      </trkpt>
      <trkpt lat="58.978353969903" lon="17.907945443248">
        <ele>0</ele>
        <time>2016-04-10T14:46:03Z</time>
      </trkpt>
      <trkpt lat="58.978299655191" lon="17.907831868503">
        <ele>0</ele>
        <time>2016-04-10T14:46:04Z</time>
      </trkpt>
      <trkpt lat="58.978242825909" lon="17.907757940145">
        <ele>0</ele>
        <time>2016-04-10T14:46:05Z</time>
      </trkpt>
      <trkpt lat="58.97820334716" lon="17.90769800956">
        <ele>0</ele>
        <time>2016-04-10T14:46:06Z</time>
      </trkpt>
      <trkpt lat="58.978151798475" lon="17.907639755355">
        <ele>0</ele>
        <time>2016-04-10T14:46:07Z</time>
      </trkpt>
      <trkpt lat="58.978118103237" lon="17.907533472863">
        <ele>0</ele>
        <time>2016-04-10T14:46:08Z</time>
      </trkpt>
      <trkpt lat="58.978115923943" lon="17.907399278644">
        <ele>0</ele>
        <time>2016-04-10T14:46:09Z</time>
      </trkpt>
      <trkpt lat="58.978133442114" lon="17.90727975275">
        <ele>0</ele>
        <time>2016-04-10T14:46:10Z</time>
      </trkpt>
      <trkpt lat="58.978147607525" lon="17.907170033679">
        <ele>0</ele>
        <time>2016-04-10T14:46:11Z</time>
      </trkpt>
      <trkpt lat="58.978158587814" lon="17.90705930878">
        <ele>0</ele>
        <time>2016-04-10T14:46:12Z</time>
      </trkpt>
      <trkpt lat="58.978174261967" lon="17.906849258366">
        <ele>0</ele>
        <time>2016-04-10T14:46:14Z</time>
      </trkpt>
      <trkpt lat="58.97818155422" lon="17.906746831548">
        <ele>0</ele>
        <time>2016-04-10T14:46:15Z</time>
      </trkpt>
      <trkpt lat="58.978184990799" lon="17.906640716694">
        <ele>0</ele>
        <time>2016-04-10T14:46:16Z</time>
      </trkpt>
      <trkpt lat="58.97818742155" lon="17.906541055903">
        <ele>0</ele>
        <time>2016-04-10T14:46:17Z</time>
      </trkpt>
      <trkpt lat="58.978190858129" lon="17.906442736216">
        <ele>0</ele>
        <time>2016-04-10T14:46:18Z</time>
      </trkpt>
      <trkpt lat="58.978192031595" lon="17.906341147588">
        <ele>0</ele>
        <time>2016-04-10T14:46:19Z</time>
      </trkpt>
      <trkpt lat="58.978191780138" lon="17.906237798761">
        <ele>0</ele>
        <time>2016-04-10T14:46:20Z</time>
      </trkpt>
      <trkpt lat="58.978189684663" lon="17.906129672251">
        <ele>0</ele>
        <time>2016-04-10T14:46:21Z</time>
      </trkpt>
      <trkpt lat="58.978188427378" lon="17.906025149958">
        <ele>0</ele>
        <time>2016-04-10T14:46:22Z</time>
      </trkpt>
      <trkpt lat="58.978190522853" lon="17.905798084287">
        <ele>0</ele>
        <time>2016-04-10T14:46:24Z</time>
      </trkpt>
      <trkpt lat="58.978225307738" lon="17.905577724136">
        <ele>0</ele>
        <time>2016-04-10T14:46:26Z</time>
      </trkpt>
      <trkpt lat="58.978274341853" lon="17.905508992556">
        <ele>0</ele>
        <time>2016-04-10T14:46:27Z</time>
      </trkpt>
      <trkpt lat="58.978385737304" lon="17.905438584596">
        <ele>0</ele>
        <time>2016-04-10T14:46:29Z</time>
      </trkpt>
      <trkpt lat="58.978443488595" lon="17.905443194641">
        <ele>0</ele>
        <time>2016-04-10T14:46:30Z</time>
      </trkpt>
      <trkpt lat="58.978494869642" lon="17.905419390045">
        <ele>0</ele>
        <time>2016-04-10T14:46:31Z</time>
      </trkpt>
      <trkpt lat="58.978542730291" lon="17.905408409756">
        <ele>0</ele>
        <time>2016-04-10T14:46:32Z</time>
      </trkpt>
      <trkpt lat="58.978580700298" lon="17.905369685378">
        <ele>0</ele>
        <time>2016-04-10T14:46:33Z</time>
      </trkpt>
      <trkpt lat="58.978617832115" lon="17.905332888837">
        <ele>0</ele>
        <time>2016-04-10T14:46:34Z</time>
      </trkpt>
      <trkpt lat="58.978650689163" lon="17.905278825582">
        <ele>0</ele>
        <time>2016-04-10T14:46:35Z</time>
      </trkpt>
      <trkpt lat="58.978687401885" lon="17.905224678508">
        <ele>0</ele>
        <time>2016-04-10T14:46:36Z</time>
      </trkpt>
      <trkpt lat="58.978722270589" lon="17.905172040176">
        <ele>0</ele>
        <time>2016-04-10T14:46:37Z</time>
      </trkpt>
      <trkpt lat="58.978757139293" lon="17.90510800246">
        <ele>0</ele>
        <time>2016-04-10T14:46:38Z</time>
      </trkpt>
      <trkpt lat="58.978795276938" lon="17.905051676092">
        <ele>0</ele>
        <time>2016-04-10T14:46:39Z</time>
      </trkpt>
      <trkpt lat="58.978865349622" lon="17.904940196822">
        <ele>0</ele>
        <time>2016-04-10T14:46:41Z</time>
      </trkpt>
      <trkpt lat="58.978902146163" lon="17.904885379196">
        <ele>0</ele>
        <time>2016-04-10T14:46:42Z</time>
      </trkpt>
      <trkpt lat="58.978938691247" lon="17.904842715325">
        <ele>0</ele>
        <time>2016-04-10T14:46:43Z</time>
      </trkpt>
      <trkpt lat="58.978979594919" lon="17.904790160812">
        <ele>0</ele>
        <time>2016-04-10T14:46:44Z</time>
      </trkpt>
      <trkpt lat="58.979062156634" lon="17.904704246337">
        <ele>0</ele>
        <time>2016-04-10T14:46:46Z</time>
      </trkpt>
      <trkpt lat="58.979100797193" lon="17.904665857235">
        <ele>0</ele>
        <time>2016-04-10T14:46:47Z</time>
      </trkpt>
      <trkpt lat="58.979136587906" lon="17.904634508929">
        <ele>0</ele>
        <time>2016-04-10T14:46:48Z</time>
      </trkpt>
      <trkpt lat="58.979185873478" lon="17.904605759012">
        <ele>0</ele>
        <time>2016-04-10T14:46:49Z</time>
      </trkpt>
      <trkpt lat="58.979233231213" lon="17.90457407543">
        <ele>0</ele>
        <time>2016-04-10T14:46:50Z</time>
      </trkpt>
      <trkpt lat="58.979284193165" lon="17.904557479268">
        <ele>0</ele>
        <time>2016-04-10T14:46:51Z</time>
      </trkpt>
      <trkpt lat="58.979475132847" lon="17.904483718548">
        <ele>0</ele>
        <time>2016-04-10T14:46:55Z</time>
      </trkpt>
      <trkpt lat="58.979525927161" lon="17.904476426295">
        <ele>0</ele>
        <time>2016-04-10T14:46:56Z</time>
      </trkpt>
      <trkpt lat="58.979633969852" lon="17.904430577302">
        <ele>0</ele>
        <time>2016-04-10T14:46:58Z</time>
      </trkpt>
      <trkpt lat="58.979791884848" lon="17.90431423653">
        <ele>0</ele>
        <time>2016-04-10T14:47:01Z</time>
      </trkpt>
      <trkpt lat="58.979894982218" lon="17.904244918217">
        <ele>0</ele>
        <time>2016-04-10T14:47:03Z</time>
      </trkpt>
      <trkpt lat="58.980111654333" lon="17.904104102297">
        <ele>0</ele>
        <time>2016-04-10T14:47:07Z</time>
      </trkpt>
      <trkpt lat="58.980423461013" lon="17.90386329031">
        <ele>0</ele>
        <time>2016-04-10T14:47:13Z</time>
      </trkpt>
      <trkpt lat="58.980513482619" lon="17.903800677517">
        <ele>0</ele>
        <time>2016-04-10T14:47:15Z</time>
      </trkpt>
      <trkpt lat="58.980554721567" lon="17.903759187112">
        <ele>0</ele>
        <time>2016-04-10T14:47:16Z</time>
      </trkpt>
      <trkpt lat="58.980593948859" lon="17.903725575693">
        <ele>0</ele>
        <time>2016-04-10T14:47:17Z</time>
      </trkpt>
      <trkpt lat="58.980631918866" lon="17.90370068145">
        <ele>0</ele>
        <time>2016-04-10T14:47:18Z</time>
      </trkpt>
      <trkpt lat="58.98066762576" lon="17.903677547406">
        <ele>0</ele>
        <time>2016-04-10T14:47:19Z</time>
      </trkpt>
      <trkpt lat="58.980703165016" lon="17.903660280692">
        <ele>0</ele>
        <time>2016-04-10T14:47:20Z</time>
      </trkpt>
      <trkpt lat="58.980736273521" lon="17.903629602938">
        <ele>0</ele>
        <time>2016-04-10T14:47:21Z</time>
      </trkpt>
      <trkpt lat="58.980762844144" lon="17.903596494433">
        <ele>0</ele>
        <time>2016-04-10T14:47:22Z</time>
      </trkpt>
      <trkpt lat="58.980801065608" lon="17.903572773656">
        <ele>0</ele>
        <time>2016-04-10T14:47:23Z</time>
      </trkpt>
      <trkpt lat="58.980842556013" lon="17.903554752571">
        <ele>0</ele>
        <time>2016-04-10T14:47:24Z</time>
      </trkpt>
      <trkpt lat="58.98088136421" lon="17.903526254111">
        <ele>0</ele>
        <time>2016-04-10T14:47:25Z</time>
      </trkpt>
      <trkpt lat="58.981031903134" lon="17.903457354893">
        <ele>0</ele>
        <time>2016-04-10T14:47:29Z</time>
      </trkpt>
      <trkpt lat="58.981067693847" lon="17.903452325753">
        <ele>0</ele>
        <time>2016-04-10T14:47:30Z</time>
      </trkpt>
      <trkpt lat="58.981109687166" lon="17.90343413703">
        <ele>0</ele>
        <time>2016-04-10T14:47:31Z</time>
      </trkpt>
      <trkpt lat="58.981144974965" lon="17.903404884199">
        <ele>0</ele>
        <time>2016-04-10T14:47:32Z</time>
      </trkpt>
      <trkpt lat="58.981177580556" lon="17.903395245014">
        <ele>0</ele>
        <time>2016-04-10T14:47:33Z</time>
      </trkpt>
      <trkpt lat="58.981216221115" lon="17.903389545322">
        <ele>0</ele>
        <time>2016-04-10T14:47:34Z</time>
      </trkpt>
      <trkpt lat="58.981375225758" lon="17.90339558029">
        <ele>0</ele>
        <time>2016-04-10T14:47:38Z</time>
      </trkpt>
      <trkpt lat="58.981409340091" lon="17.903397005213">
        <ele>0</ele>
        <time>2016-04-10T14:47:39Z</time>
      </trkpt>
      <trkpt lat="58.981447310098" lon="17.903404297466">
        <ele>0</ele>
        <time>2016-04-10T14:47:40Z</time>
      </trkpt>
      <trkpt lat="58.981490895978" lon="17.903401950534">
        <ele>0</ele>
        <time>2016-04-10T14:47:41Z</time>
      </trkpt>
      <trkpt lat="58.981531883469" lon="17.903416451221">
        <ele>0</ele>
        <time>2016-04-10T14:47:42Z</time>
      </trkpt>
      <trkpt lat="58.981606650017" lon="17.903429024071">
        <ele>0</ele>
        <time>2016-04-10T14:47:44Z</time>
      </trkpt>
      <trkpt lat="58.981649062431" lon="17.90342743151">
        <ele>0</ele>
        <time>2016-04-10T14:47:45Z</time>
      </trkpt>
      <trkpt lat="58.981678818176" lon="17.903437825066">
        <ele>0.2</ele>
        <time>2016-04-10T14:47:46Z</time>
      </trkpt>
      <trkpt lat="58.981718548382" lon="17.90343497522">
        <ele>0.6</ele>
        <time>2016-04-10T14:47:47Z</time>
      </trkpt>
      <trkpt lat="58.981754339095" lon="17.903449978821">
        <ele>1</ele>
        <time>2016-04-10T14:47:48Z</time>
      </trkpt>
      <trkpt lat="58.981787112324" lon="17.903464060413">
        <ele>1.4</ele>
        <time>2016-04-10T14:47:49Z</time>
      </trkpt>
      <trkpt lat="58.981828602729" lon="17.903471101209">
        <ele>2</ele>
        <time>2016-04-10T14:47:50Z</time>
      </trkpt>
      <trkpt lat="58.98194418913" lon="17.903475962711">
        <ele>2</ele>
        <time>2016-04-10T14:47:53Z</time>
      </trkpt>
      <trkpt lat="58.981989116114" lon="17.903482668231">
        <ele>2.4</ele>
        <time>2016-04-10T14:47:54Z</time>
      </trkpt>
      <trkpt lat="58.98202800813" lon="17.903491385407">
        <ele>3.2</ele>
        <time>2016-04-10T14:47:55Z</time>
      </trkpt>
      <trkpt lat="58.982064553214" lon="17.903491553045">
        <ele>3.8</ele>
        <time>2016-04-10T14:47:56Z</time>
      </trkpt>
      <trkpt lat="58.982106714171" lon="17.903487697371">
        <ele>4.2</ele>
        <time>2016-04-10T14:47:57Z</time>
      </trkpt>
      <trkpt lat="58.982150300051" lon="17.90350203042">
        <ele>4.2</ele>
        <time>2016-04-10T14:47:58Z</time>
      </trkpt>
      <trkpt lat="58.982185252574" lon="17.90352969069">
        <ele>4.2</ele>
        <time>2016-04-10T14:47:59Z</time>
      </trkpt>
      <trkpt lat="58.98238423888" lon="17.903284687753">
        <ele>4.2</ele>
        <time>2016-04-10T14:48:07Z</time>
      </trkpt>
      <trkpt lat="58.982415754824" lon="17.90319609107">
        <ele>4.2</ele>
        <time>2016-04-10T14:48:08Z</time>
      </trkpt>
      <trkpt lat="58.982435955203" lon="17.903129706422">
        <ele>4.2</ele>
        <time>2016-04-10T14:48:09Z</time>
      </trkpt>
      <trkpt lat="58.982473589934" lon="17.903068770009">
        <ele>4.2</ele>
        <time>2016-04-10T14:48:10Z</time>
      </trkpt>
      <trkpt lat="58.982586745584" lon="17.902873723196">
        <ele>4.6</ele>
        <time>2016-04-10T14:48:13Z</time>
      </trkpt>
      <trkpt lat="58.982623709763" lon="17.902809601661">
        <ele>5</ele>
        <time>2016-04-10T14:48:14Z</time>
      </trkpt>
      <trkpt lat="58.98265581244" lon="17.902750844542">
        <ele>5.4</ele>
        <time>2016-04-10T14:48:15Z</time>
      </trkpt>
      <trkpt lat="58.982685652004" lon="17.902693344708">
        <ele>5.8</ele>
        <time>2016-04-10T14:48:16Z</time>
      </trkpt>
      <trkpt lat="58.98271532393" lon="17.902639449091">
        <ele>6.2</ele>
        <time>2016-04-10T14:48:17Z</time>
      </trkpt>
      <trkpt lat="58.982743906209" lon="17.902568370579">
        <ele>6.2</ele>
        <time>2016-04-10T14:48:18Z</time>
      </trkpt>
      <trkpt lat="58.98276729171" lon="17.902509026727">
        <ele>6.2</ele>
        <time>2016-04-10T14:48:19Z</time>
      </trkpt>
      <trkpt lat="58.982790090478" lon="17.902441636251">
        <ele>6.6</ele>
        <time>2016-04-10T14:48:20Z</time>
      </trkpt>
      <trkpt lat="58.982811548142" lon="17.90236879754">
        <ele>7.2</ele>
        <time>2016-04-10T14:48:21Z</time>
      </trkpt>
      <trkpt lat="58.98283183234" lon="17.902291767879">
        <ele>7.6</ele>
        <time>2016-04-10T14:48:22Z</time>
      </trkpt>
      <trkpt lat="58.982847422674" lon="17.902221527557">
        <ele>8</ele>
        <time>2016-04-10T14:48:23Z</time>
      </trkpt>
      <trkpt lat="58.982862761551" lon="17.902144665534">
        <ele>8.6</ele>
        <time>2016-04-10T14:48:24Z</time>
      </trkpt>
      <trkpt lat="58.983190410022" lon="17.901836965985">
        <ele>8.6</ele>
        <time>2016-04-10T14:50:47Z</time>
      </trkpt>
      <trkpt lat="58.983285879863" lon="17.901540498182">
        <ele>8.6</ele>
        <time>2016-04-10T14:50:51Z</time>
      </trkpt>
      <trkpt lat="58.983302140749" lon="17.90143505388">
        <ele>8.6</ele>
        <time>2016-04-10T14:50:52Z</time>
      </trkpt>
      <trkpt lat="58.98333977548" lon="17.90108217589">
        <ele>8.6</ele>
        <time>2016-04-10T14:50:55Z</time>
      </trkpt>
      <trkpt lat="58.983347067733" lon="17.900700045069">
        <ele>8.6</ele>
        <time>2016-04-10T14:50:58Z</time>
      </trkpt>
      <trkpt lat="58.983349749941" lon="17.900440625264">
        <ele>8.6</ele>
        <time>2016-04-10T14:51:00Z</time>
      </trkpt>
      <trkpt lat="58.983410099621" lon="17.900331073831">
        <ele>8.6</ele>
        <time>2016-04-10T14:51:01Z</time>
      </trkpt>
      <trkpt lat="58.98347137131" lon="17.900269550685">
        <ele>8.6</ele>
        <time>2016-04-10T14:51:02Z</time>
      </trkpt>
      <trkpt lat="58.983670106159" lon="17.900328307804">
        <ele>8.6</ele>
        <time>2016-04-10T14:51:05Z</time>
      </trkpt>
      <trkpt lat="58.983879988935" lon="17.900411456252">
        <ele>8.2</ele>
        <time>2016-04-10T14:51:08Z</time>
      </trkpt>
      <trkpt lat="58.983963891754" lon="17.900432746278">
        <ele>7.8</ele>
        <time>2016-04-10T14:51:09Z</time>
      </trkpt>
      <trkpt lat="58.984043100709" lon="17.900451270277">
        <ele>7.2</ele>
        <time>2016-04-10T14:51:10Z</time>
      </trkpt>
      <trkpt lat="58.984121722931" lon="17.900472225027">
        <ele>6.8</ele>
        <time>2016-04-10T14:51:11Z</time>
      </trkpt>
      <trkpt lat="58.984199590782" lon="17.900495191433">
        <ele>6.4</ele>
        <time>2016-04-10T14:51:12Z</time>
      </trkpt>
      <trkpt lat="58.984595551738" lon="17.900590493636">
        <ele>6.4</ele>
        <time>2016-04-10T14:51:17Z</time>
      </trkpt>
      <trkpt lat="58.98504046299" lon="17.900716641231">
        <ele>6.4</ele>
        <time>2016-04-10T14:51:23Z</time>
      </trkpt>
      <trkpt lat="58.98533382949" lon="17.900792245969">
        <ele>7</ele>
        <time>2016-04-10T14:51:28Z</time>
      </trkpt>
      <trkpt lat="58.985377834465" lon="17.900812027253">
        <ele>7.6</ele>
        <time>2016-04-10T14:51:29Z</time>
      </trkpt>
      <trkpt lat="58.985420414517" lon="17.900825605931">
        <ele>8</ele>
        <time>2016-04-10T14:51:30Z</time>
      </trkpt>
      <trkpt lat="58.985467017881" lon="17.900831305623">
        <ele>8.6</ele>
        <time>2016-04-10T14:51:31Z</time>
      </trkpt>
      <trkpt lat="58.985517057824" lon="17.900840358075">
        <ele>9.2</ele>
        <time>2016-04-10T14:51:32Z</time>
      </trkpt>
      <trkpt lat="58.985618562633" lon="17.900874388589">
        <ele>9.2</ele>
        <time>2016-04-10T14:51:34Z</time>
      </trkpt>
      <trkpt lat="58.985669273128" lon="17.90088603943">
        <ele>9.6</ele>
        <time>2016-04-10T14:51:35Z</time>
      </trkpt>
      <trkpt lat="58.985721660003" lon="17.900893834597">
        <ele>10</ele>
        <time>2016-04-10T14:51:36Z</time>
      </trkpt>
      <trkpt lat="58.985775220344" lon="17.900905988352">
        <ele>10.8</ele>
        <time>2016-04-10T14:51:37Z</time>
      </trkpt>
      <trkpt lat="58.985829618875" lon="17.900926188731">
        <ele>11.4</ele>
        <time>2016-04-10T14:51:38Z</time>
      </trkpt>
      <trkpt lat="58.98594067905" lon="17.900964661652">
        <ele>11.4</ele>
        <time>2016-04-10T14:51:40Z</time>
      </trkpt>
      <trkpt lat="58.986061629867" lon="17.90097991671">
        <ele>11.8</ele>
        <time>2016-04-10T14:51:42Z</time>
      </trkpt>
      <trkpt lat="58.986127260144" lon="17.900994417397">
        <ele>12.2</ele>
        <time>2016-04-10T14:51:43Z</time>
      </trkpt>
      <trkpt lat="58.986190794946" lon="17.901014366319">
        <ele>12.6</ele>
        <time>2016-04-10T14:51:44Z</time>
      </trkpt>
      <trkpt lat="58.98625667668" lon="17.90103272268">
        <ele>13</ele>
        <time>2016-04-10T14:51:45Z</time>
      </trkpt>
      <trkpt lat="58.986322474595" lon="17.901051581955">
        <ele>13.4</ele>
        <time>2016-04-10T14:51:46Z</time>
      </trkpt>
      <trkpt lat="58.986526741498" lon="17.901101789536">
        <ele>13.4</ele>
        <time>2016-04-10T14:51:49Z</time>
      </trkpt>
      <trkpt lat="58.986934688571" lon="17.901198600481">
        <ele>13.4</ele>
        <time>2016-04-10T14:51:55Z</time>
      </trkpt>
      <trkpt lat="58.987333164097" lon="17.901216789204">
        <ele>13.4</ele>
        <time>2016-04-10T14:52:01Z</time>
      </trkpt>
      <trkpt lat="58.987584202002" lon="17.901005649143">
        <ele>13.4</ele>
        <time>2016-04-10T14:52:05Z</time>
      </trkpt>
      <trkpt lat="58.98764471932" lon="17.900925518179">
        <ele>13.4</ele>
        <time>2016-04-10T14:52:06Z</time>
      </trkpt>
      <trkpt lat="58.987874048104" lon="17.900537017114">
        <ele>13.4</ele>
        <time>2016-04-10T14:52:10Z</time>
      </trkpt>
      <trkpt lat="58.988052414936" lon="17.900196125241">
        <ele>13</ele>
        <time>2016-04-10T14:52:13Z</time>
      </trkpt>
      <trkpt lat="58.988119889231" lon="17.900068887999">
        <ele>12.6</ele>
        <time>2016-04-10T14:52:14Z</time>
      </trkpt>
      <trkpt lat="58.988193063218" lon="17.899935615789">
        <ele>11.8</ele>
        <time>2016-04-10T14:52:15Z</time>
      </trkpt>
      <trkpt lat="58.988271601621" lon="17.899788345806">
        <ele>11.2</ele>
        <time>2016-04-10T14:52:16Z</time>
      </trkpt>
      <trkpt lat="58.988349720929" lon="17.899634873217">
        <ele>10.4</ele>
        <time>2016-04-10T14:52:17Z</time>
      </trkpt>
      <trkpt lat="58.988426247676" lon="17.899479975705">
        <ele>9.6</ele>
        <time>2016-04-10T14:52:18Z</time>
      </trkpt>
      <trkpt lat="58.988506965373" lon="17.89930605128">
        <ele>8.6</ele>
        <time>2016-04-10T14:52:19Z</time>
      </trkpt>
      <trkpt lat="58.988578546799" lon="17.899156685822">
        <ele>7.4</ele>
        <time>2016-04-10T14:52:20Z</time>
      </trkpt>
      <trkpt lat="58.988650044406" lon="17.899008410011">
        <ele>6.4</ele>
        <time>2016-04-10T14:52:21Z</time>
      </trkpt>
      <trkpt lat="58.988719362719" lon="17.898861307666">
        <ele>5.6</ele>
        <time>2016-04-10T14:52:22Z</time>
      </trkpt>
      <trkpt lat="58.988788178118" lon="17.898717809538">
        <ele>4.8</ele>
        <time>2016-04-10T14:52:23Z</time>
      </trkpt>
      <trkpt lat="58.988858753716" lon="17.898575568695">
        <ele>3.8</ele>
        <time>2016-04-10T14:52:24Z</time>
      </trkpt>
      <trkpt lat="58.988930167504" lon="17.898449253462">
        <ele>3</ele>
        <time>2016-04-10T14:52:25Z</time>
      </trkpt>
      <trkpt lat="58.988999150541" lon="17.89833878002">
        <ele>3.6</ele>
        <time>2016-04-10T14:52:26Z</time>
      </trkpt>
      <trkpt lat="58.989069726139" lon="17.898240208876">
        <ele>4</ele>
        <time>2016-04-10T14:52:27Z</time>
      </trkpt>
      <trkpt lat="58.989140553194" lon="17.89815354003">
        <ele>4.2</ele>
        <time>2016-04-10T14:52:28Z</time>
      </trkpt>
      <trkpt lat="58.989211883163" lon="17.898075755998">
        <ele>4.6</ele>
        <time>2016-04-10T14:52:29Z</time>
      </trkpt>
      <trkpt lat="58.989284973331" lon="17.898010628635">
        <ele>5</ele>
        <time>2016-04-10T14:52:30Z</time>
      </trkpt>
      <trkpt lat="58.989360913345" lon="17.89796578547">
        <ele>5.4</ele>
        <time>2016-04-10T14:52:31Z</time>
      </trkpt>
      <trkpt lat="58.989439703205" lon="17.89793058149">
        <ele>5.8</ele>
        <time>2016-04-10T14:52:32Z</time>
      </trkpt>
      <trkpt lat="58.989517738694" lon="17.897903172677">
        <ele>6.4</ele>
        <time>2016-04-10T14:52:33Z</time>
      </trkpt>
      <trkpt lat="58.989604491359" lon="17.897881463556">
        <ele>6.8</ele>
        <time>2016-04-10T14:52:34Z</time>
      </trkpt>
      <trkpt lat="58.989758383043" lon="17.897865705584">
        <ele>6.8</ele>
        <time>2016-04-10T14:52:36Z</time>
      </trkpt>
      <trkpt lat="58.990223997588" lon="17.897909291464">
        <ele>6.8</ele>
        <time>2016-04-10T14:52:42Z</time>
      </trkpt>
      <trkpt lat="58.990706878847" lon="17.8980135623">
        <ele>6.8</ele>
        <time>2016-04-10T14:52:48Z</time>
      </trkpt>
      <trkpt lat="58.990785333431" lon="17.898008030246">
        <ele>6.8</ele>
        <time>2016-04-10T14:52:49Z</time>
      </trkpt>
      <trkpt lat="58.991007621419" lon="17.897949776041">
        <ele>6.8</ele>
        <time>2016-04-10T14:52:52Z</time>
      </trkpt>
      <trkpt lat="58.991180037102" lon="17.897865873222">
        <ele>6.8</ele>
        <time>2016-04-10T14:52:55Z</time>
      </trkpt>
      <trkpt lat="58.991225886095" lon="17.897820946238">
        <ele>7.2</ele>
        <time>2016-04-10T14:52:56Z</time>
      </trkpt>
      <trkpt lat="58.991272238002" lon="17.897770235743">
        <ele>7.6</ele>
        <time>2016-04-10T14:52:57Z</time>
      </trkpt>
      <trkpt lat="58.991321942669" lon="17.897716591583">
        <ele>8</ele>
        <time>2016-04-10T14:52:58Z</time>
      </trkpt>
      <trkpt lat="58.991371731155" lon="17.897659510844">
        <ele>8.4</ele>
        <time>2016-04-10T14:52:59Z</time>
      </trkpt>
      <trkpt lat="58.991423028383" lon="17.897600418449">
        <ele>9</ele>
        <time>2016-04-10T14:53:00Z</time>
      </trkpt>
      <trkpt lat="58.991527383038" lon="17.897497069622">
        <ele>9</ele>
        <time>2016-04-10T14:53:02Z</time>
      </trkpt>
      <trkpt lat="58.991824018479" lon="17.897225160786">
        <ele>9</ele>
        <time>2016-04-10T14:53:07Z</time>
      </trkpt>
      <trkpt lat="58.992100034446" lon="17.897029778697">
        <ele>8.4</ele>
        <time>2016-04-10T14:53:11Z</time>
      </trkpt>
      <trkpt lat="58.992176728831" lon="17.896980828401">
        <ele>8</ele>
        <time>2016-04-10T14:53:12Z</time>
      </trkpt>
      <trkpt lat="58.99226649898" lon="17.896927351879">
        <ele>7</ele>
        <time>2016-04-10T14:53:13Z</time>
      </trkpt>
      <trkpt lat="58.992423911062" lon="17.896825427975">
        <ele>6.4</ele>
        <time>2016-04-10T14:53:15Z</time>
      </trkpt>
      <trkpt lat="58.992504712578" lon="17.896760635888">
        <ele>6</ele>
        <time>2016-04-10T14:53:16Z</time>
      </trkpt>
      <trkpt lat="58.992590291777" lon="17.89667664925">
        <ele>5.4</ele>
        <time>2016-04-10T14:53:17Z</time>
      </trkpt>
      <trkpt lat="58.992671093293" lon="17.896587046739">
        <ele>5</ele>
        <time>2016-04-10T14:53:18Z</time>
      </trkpt>
      <trkpt lat="58.992751224257" lon="17.896494594382">
        <ele>4.6</ele>
        <time>2016-04-10T14:53:19Z</time>
      </trkpt>
      <trkpt lat="58.992830349393" lon="17.896390407365">
        <ele>4</ele>
        <time>2016-04-10T14:53:20Z</time>
      </trkpt>
      <trkpt lat="58.992911150909" lon="17.896282867588">
        <ele>3.6</ele>
        <time>2016-04-10T14:53:21Z</time>
      </trkpt>
      <trkpt lat="58.992992120063" lon="17.89617624982">
        <ele>3.2</ele>
        <time>2016-04-10T14:53:22Z</time>
      </trkpt>
      <trkpt lat="58.99307451414" lon="17.896068793862">
        <ele>2.8</ele>
        <time>2016-04-10T14:53:23Z</time>
      </trkpt>
      <trkpt lat="58.993155399475" lon="17.895962176094">
        <ele>2.4</ele>
        <time>2016-04-10T14:53:24Z</time>
      </trkpt>
      <trkpt lat="58.993242319778" lon="17.895849271901">
        <ele>2</ele>
        <time>2016-04-10T14:53:25Z</time>
      </trkpt>
      <trkpt lat="58.993327563701" lon="17.895752712413">
        <ele>1.6</ele>
        <time>2016-04-10T14:53:26Z</time>
      </trkpt>
      <trkpt lat="58.993414735461" lon="17.895666714119">
        <ele>1.2</ele>
        <time>2016-04-10T14:53:27Z</time>
      </trkpt>
      <trkpt lat="58.993501739583" lon="17.895590187372">
        <ele>0.8</ele>
        <time>2016-04-10T14:53:28Z</time>
      </trkpt>
      <trkpt lat="58.993594946311" lon="17.895524305638">
        <ele>0.4</ele>
        <time>2016-04-10T14:53:29Z</time>
      </trkpt>
      <trkpt lat="58.993687733944" lon="17.895457669533">
        <ele>0</ele>
        <time>2016-04-10T14:53:30Z</time>
      </trkpt>
      <trkpt lat="58.993983279738" lon="17.895294725397">
        <ele>0</ele>
        <time>2016-04-10T14:53:33Z</time>
      </trkpt>
      <trkpt lat="58.9940836949" lon="17.895248876404">
        <ele>0</ele>
        <time>2016-04-10T14:53:34Z</time>
      </trkpt>
      <trkpt lat="58.994183523329" lon="17.895197495357">
        <ele>0</ele>
        <time>2016-04-10T14:53:35Z</time>
      </trkpt>
      <trkpt lat="58.994286872156" lon="17.895153071287">
        <ele>0</ele>
        <time>2016-04-10T14:53:36Z</time>
      </trkpt>
      <trkpt lat="58.99438795787" lon="17.895112754348">
        <ele>0</ele>
        <time>2016-04-10T14:53:37Z</time>
      </trkpt>
      <trkpt lat="58.994488959765" lon="17.895077634187">
        <ele>0</ele>
        <time>2016-04-10T14:53:38Z</time>
      </trkpt>
      <trkpt lat="58.994590464574" lon="17.895050141555">
        <ele>0</ele>
        <time>2016-04-10T14:53:39Z</time>
      </trkpt>
      <trkpt lat="58.994696244152" lon="17.895028264796">
        <ele>0</ele>
        <time>2016-04-10T14:53:40Z</time>
      </trkpt>
      <trkpt lat="58.994785595206" lon="17.895017955059">
        <ele>0</ele>
        <time>2016-04-10T14:53:41Z</time>
      </trkpt>
      <trkpt lat="58.994978546544" lon="17.895026001683">
        <ele>0</ele>
        <time>2016-04-10T14:53:43Z</time>
      </trkpt>
      <trkpt lat="58.995324635195" lon="17.895142677731">
        <ele>0</ele>
        <time>2016-04-10T14:53:47Z</time>
      </trkpt>
      <trkpt lat="58.995569470494" lon="17.895212834234">
        <ele>0</ele>
        <time>2016-04-10T14:53:51Z</time>
      </trkpt>
      <trkpt lat="58.995629568717" lon="17.89521987503">
        <ele>0</ele>
        <time>2016-04-10T14:53:52Z</time>
      </trkpt>
      <trkpt lat="58.995687236189" lon="17.895222473419">
        <ele>0</ele>
        <time>2016-04-10T14:53:53Z</time>
      </trkpt>
      <trkpt lat="58.995743143462" lon="17.895212834234">
        <ele>0</ele>
        <time>2016-04-10T14:53:54Z</time>
      </trkpt>
      <trkpt lat="58.995794021595" lon="17.895196908624">
        <ele>0</ele>
        <time>2016-04-10T14:53:55Z</time>
      </trkpt>
      <trkpt lat="58.995842133701" lon="17.895176456788">
        <ele>0</ele>
        <time>2016-04-10T14:53:56Z</time>
      </trkpt>
      <trkpt lat="58.995883875563" lon="17.895157429875">
        <ele>0</ele>
        <time>2016-04-10T14:53:57Z</time>
      </trkpt>
      <trkpt lat="58.99593358023" lon="17.895125243379">
        <ele>0</ele>
        <time>2016-04-10T14:53:58Z</time>
      </trkpt>
      <trkpt lat="58.995985799467" lon="17.895090877589">
        <ele>0</ele>
        <time>2016-04-10T14:53:59Z</time>
      </trkpt>
      <trkpt lat="58.996034665944" lon="17.895057769084">
        <ele>0.4</ele>
        <time>2016-04-10T14:54:00Z</time>
      </trkpt>
      <trkpt lat="58.996082023679" lon="17.895016278679">
        <ele>1</ele>
        <time>2016-04-10T14:54:01Z</time>
      </trkpt>
      <trkpt lat="58.99613893678" lon="17.894954755533">
        <ele>1.8</ele>
        <time>2016-04-10T14:54:02Z</time>
      </trkpt>
      <trkpt lat="58.996241447417" lon="17.894826428644">
        <ele>2.2</ele>
        <time>2016-04-10T14:54:04Z</time>
      </trkpt>
      <trkpt lat="58.996282099632" lon="17.894777897443">
        <ele>3.2</ele>
        <time>2016-04-10T14:54:05Z</time>
      </trkpt>
      <trkpt lat="58.996323673856" lon="17.894729785337">
        <ele>3.8</ele>
        <time>2016-04-10T14:54:06Z</time>
      </trkpt>
      <trkpt lat="58.996363068786" lon="17.894666837268">
        <ele>4.2</ele>
        <time>2016-04-10T14:54:07Z</time>
      </trkpt>
      <trkpt lat="58.996440768999" lon="17.894543539519">
        <ele>4.2</ele>
        <time>2016-04-10T14:54:09Z</time>
      </trkpt>
      <trkpt lat="58.996532466985" lon="17.894120421207">
        <ele>4.2</ele>
        <time>2016-04-10T14:54:12Z</time>
      </trkpt>
      <trkpt lat="58.996541687075" lon="17.893930571172">
        <ele>3.6</ele>
        <time>2016-04-10T14:54:13Z</time>
      </trkpt>
      <trkpt lat="58.996544536921" lon="17.89373627873">
        <ele>3.2</ele>
        <time>2016-04-10T14:54:14Z</time>
      </trkpt>
      <trkpt lat="58.996546800034" lon="17.893545506686">
        <ele>2.2</ele>
        <time>2016-04-10T14:54:15Z</time>
      </trkpt>
      <trkpt lat="58.996546380939" lon="17.893345766009">
        <ele>1.4</ele>
        <time>2016-04-10T14:54:16Z</time>
      </trkpt>
      <trkpt lat="58.996549566061" lon="17.893146528246">
        <ele>0.6</ele>
        <time>2016-04-10T14:54:17Z</time>
      </trkpt>
      <trkpt lat="58.996564234386" lon="17.892937064565">
        <ele>0</ele>
        <time>2016-04-10T14:54:18Z</time>
      </trkpt>
      <trkpt lat="58.996590888828" lon="17.892726678875">
        <ele>0</ele>
        <time>2016-04-10T14:54:19Z</time>
      </trkpt>
      <trkpt lat="58.996628272102" lon="17.89250749219">
        <ele>0</ele>
        <time>2016-04-10T14:54:20Z</time>
      </trkpt>
      <trkpt lat="58.996666577385" lon="17.892303895839">
        <ele>0</ele>
        <time>2016-04-10T14:54:21Z</time>
      </trkpt>
      <trkpt lat="58.996706223772" lon="17.892123265894">
        <ele>0</ele>
        <time>2016-04-10T14:54:22Z</time>
      </trkpt>
      <trkpt lat="58.996745199607" lon="17.891949090012">
        <ele>0</ele>
        <time>2016-04-10T14:54:23Z</time>
      </trkpt>
      <trkpt lat="58.996873610315" lon="17.891132776771">
        <ele>0</ele>
        <time>2016-04-10T14:54:28Z</time>
      </trkpt>
      <trkpt lat="58.996923063525" lon="17.890705718966">
        <ele>0</ele>
        <time>2016-04-10T14:54:31Z</time>
      </trkpt>
      <trkpt lat="58.99700478705" lon="17.890465158436">
        <ele>0</ele>
        <time>2016-04-10T14:54:33Z</time>
      </trkpt>
      <trkpt lat="58.997264793588" lon="17.890149579901">
        <ele>0</ele>
        <time>2016-04-10T14:54:37Z</time>
      </trkpt>
      <trkpt lat="58.997336291195" lon="17.890098785587">
        <ele>0</ele>
        <time>2016-04-10T14:54:38Z</time>
      </trkpt>
      <trkpt lat="58.997696964352" lon="17.889868786251">
        <ele>0</ele>
        <time>2016-04-10T14:54:43Z</time>
      </trkpt>
      <trkpt lat="58.998004328625" lon="17.889597799424">
        <ele>0</ele>
        <time>2016-04-10T14:54:48Z</time>
      </trkpt>
      <trkpt lat="58.998104827606" lon="17.889489756733">
        <ele>0</ele>
        <time>2016-04-10T14:54:50Z</time>
      </trkpt>
      <trkpt lat="58.998142629975" lon="17.889443404826">
        <ele>0</ele>
        <time>2016-04-10T14:54:51Z</time>
      </trkpt>
      <trkpt lat="58.998179677973" lon="17.889396550005">
        <ele>0</ele>
        <time>2016-04-10T14:54:52Z</time>
      </trkpt>
      <trkpt lat="58.998218905265" lon="17.88934835408">
        <ele>0</ele>
        <time>2016-04-10T14:54:53Z</time>
      </trkpt>
      <trkpt lat="58.998261820593" lon="17.889290183694">
        <ele>0</ele>
        <time>2016-04-10T14:54:54Z</time>
      </trkpt>
      <trkpt lat="58.998315297115" lon="17.88923016929">
        <ele>0</ele>
        <time>2016-04-10T14:54:55Z</time>
      </trkpt>
      <trkpt lat="58.998365420877" lon="17.88916143771">
        <ele>0</ele>
        <time>2016-04-10T14:54:56Z</time>
      </trkpt>
      <trkpt lat="58.998411186051" lon="17.889083821316">
        <ele>0.2</ele>
        <time>2016-04-10T14:54:57Z</time>
      </trkpt>
      <trkpt lat="58.998455442483" lon="17.888999247945">
        <ele>0.8</ele>
        <time>2016-04-10T14:54:58Z</time>
      </trkpt>
      <trkpt lat="58.998531047221" lon="17.888850217763">
        <ele>1.2</ele>
        <time>2016-04-10T14:55:00Z</time>
      </trkpt>
      <trkpt lat="58.998561557337" lon="17.888770422075">
        <ele>1.8</ele>
        <time>2016-04-10T14:55:01Z</time>
      </trkpt>
      <trkpt lat="58.998583350277" lon="17.888689369102">
        <ele>2.2</ele>
        <time>2016-04-10T14:55:02Z</time>
      </trkpt>
      <trkpt lat="58.998606651959" lon="17.888607310301">
        <ele>2.8</ele>
        <time>2016-04-10T14:55:03Z</time>
      </trkpt>
      <trkpt lat="58.998637916446" lon="17.888518713618">
        <ele>3.2</ele>
        <time>2016-04-10T14:55:04Z</time>
      </trkpt>
      <trkpt lat="58.998821731513" lon="17.887958551241">
        <ele>3.2</ele>
        <time>2016-04-10T14:55:09Z</time>
      </trkpt>
      <trkpt lat="58.998985178563" lon="17.887549346883">
        <ele>2.4</ele>
        <time>2016-04-10T14:55:12Z</time>
      </trkpt>
      <trkpt lat="58.999034464135" lon="17.887417918691">
        <ele>2</ele>
        <time>2016-04-10T14:55:13Z</time>
      </trkpt>
      <trkpt lat="58.999078133834" lon="17.887281461359">
        <ele>1.6</ele>
        <time>2016-04-10T14:55:14Z</time>
      </trkpt>
      <trkpt lat="58.999120630067" lon="17.887157660696">
        <ele>1</ele>
        <time>2016-04-10T14:55:15Z</time>
      </trkpt>
      <trkpt lat="58.999206460723" lon="17.88693520507">
        <ele>1.6</ele>
        <time>2016-04-10T14:55:17Z</time>
      </trkpt>
      <trkpt lat="58.99924778349" lon="17.886846440749">
        <ele>2</ele>
        <time>2016-04-10T14:55:18Z</time>
      </trkpt>
      <trkpt lat="58.999293297207" lon="17.886754910401">
        <ele>2.6</ele>
        <time>2016-04-10T14:55:19Z</time>
      </trkpt>
      <trkpt lat="58.999349036842" lon="17.886662625682">
        <ele>3</ele>
        <time>2016-04-10T14:55:20Z</time>
      </trkpt>
      <trkpt lat="58.999402178088" lon="17.886582243261">
        <ele>3.6</ele>
        <time>2016-04-10T14:55:21Z</time>
      </trkpt>
      <trkpt lat="58.99952103343" lon="17.886412425967">
        <ele>3.6</ele>
        <time>2016-04-10T14:55:23Z</time>
      </trkpt>
      <trkpt lat="58.999577275979" lon="17.886308658045">
        <ele>3.6</ele>
        <time>2016-04-10T14:55:24Z</time>
      </trkpt>
      <trkpt lat="58.999662771359" lon="17.886069773895">
        <ele>3.6</ele>
        <time>2016-04-10T14:55:26Z</time>
      </trkpt>
      <trkpt lat="58.99972303722" lon="17.885815886144">
        <ele>3.6</ele>
        <time>2016-04-10T14:55:28Z</time>
      </trkpt>
      <trkpt lat="58.999833426843" lon="17.88526972154">
        <ele>3.6</ele>
        <time>2016-04-10T14:55:32Z</time>
      </trkpt>
      <trkpt lat="58.999900230586" lon="17.884907120546">
        <ele>3.6</ele>
        <time>2016-04-10T14:55:35Z</time>
      </trkpt>
      <trkpt lat="58.999924119001" lon="17.884802765891">
        <ele>3.6</ele>
        <time>2016-04-10T14:55:36Z</time>
      </trkpt>
      <trkpt lat="59.000020929946" lon="17.884352071128">
        <ele>4</ele>
        <time>2016-04-10T14:55:40Z</time>
      </trkpt>
      <trkpt lat="59.000047249112" lon="17.884240843315">
        <ele>4.4</ele>
        <time>2016-04-10T14:55:41Z</time>
      </trkpt>
      <trkpt lat="59.000074657925" lon="17.884135985746">
        <ele>4.8</ele>
        <time>2016-04-10T14:55:42Z</time>
      </trkpt>
      <trkpt lat="59.000105922412" lon="17.88403339129">
        <ele>5.2</ele>
        <time>2016-04-10T14:55:43Z</time>
      </trkpt>
      <trkpt lat="59.000132325397" lon="17.883941944761">
        <ele>5.6</ele>
        <time>2016-04-10T14:55:44Z</time>
      </trkpt>
      <trkpt lat="59.000186304833" lon="17.883762069187">
        <ele>5.6</ele>
        <time>2016-04-10T14:55:46Z</time>
      </trkpt>
      <trkpt lat="59.000209522696" lon="17.883651260469">
        <ele>5.6</ele>
        <time>2016-04-10T14:55:47Z</time>
      </trkpt>
      <trkpt lat="59.000312620066" lon="17.883245827966">
        <ele>5.6</ele>
        <time>2016-04-10T14:55:51Z</time>
      </trkpt>
      <trkpt lat="59.000369197891" lon="17.882990599111">
        <ele>5.6</ele>
        <time>2016-04-10T14:55:53Z</time>
      </trkpt>
      <trkpt lat="59.000439186756" lon="17.88272246213">
        <ele>5.6</ele>
        <time>2016-04-10T14:55:55Z</time>
      </trkpt>
      <trkpt lat="59.000478414048" lon="17.882598326191">
        <ele>5.6</ele>
        <time>2016-04-10T14:55:56Z</time>
      </trkpt>
      <trkpt lat="59.000702797511" lon="17.88198569312">
        <ele>5.6</ele>
        <time>2016-04-10T14:56:01Z</time>
      </trkpt>
      <trkpt lat="59.000758704784" lon="17.881519994756">
        <ele>5.6</ele>
        <time>2016-04-10T14:56:04Z</time>
      </trkpt>
      <trkpt lat="59.000740516061" lon="17.881206930791">
        <ele>5.2</ele>
        <time>2016-04-10T14:56:06Z</time>
      </trkpt>
      <trkpt lat="59.000723249347" lon="17.881057313876">
        <ele>4.8</ele>
        <time>2016-04-10T14:56:07Z</time>
      </trkpt>
      <trkpt lat="59.000702546054" lon="17.880905182391">
        <ele>4.4</ele>
        <time>2016-04-10T14:56:08Z</time>
      </trkpt>
      <trkpt lat="59.000683770598" lon="17.880747854128">
        <ele>4</ele>
        <time>2016-04-10T14:56:09Z</time>
      </trkpt>
      <trkpt lat="59.000661223287" lon="17.880588514209">
        <ele>3.4</ele>
        <time>2016-04-10T14:56:10Z</time>
      </trkpt>
      <trkpt lat="59.000594084268" lon="17.880280227927">
        <ele>3.4</ele>
        <time>2016-04-10T14:56:12Z</time>
      </trkpt>
      <trkpt lat="59.000485706301" lon="17.880030782583">
        <ele>3</ele>
        <time>2016-04-10T14:56:14Z</time>
      </trkpt>
      <trkpt lat="59.000425356621" lon="17.879926092652">
        <ele>2.6</ele>
        <time>2016-04-10T14:56:15Z</time>
      </trkpt>
      <trkpt lat="59.000366348045" lon="17.879819223427">
        <ele>2.2</ele>
        <time>2016-04-10T14:56:16Z</time>
      </trkpt>
      <trkpt lat="59.000312368609" lon="17.879700284266">
        <ele>1.8</ele>
        <time>2016-04-10T14:56:17Z</time>
      </trkpt>
      <trkpt lat="59.00027708081" lon="17.879560557993">
        <ele>1.4</ele>
        <time>2016-04-10T14:56:18Z</time>
      </trkpt>
      <trkpt lat="59.000254868775" lon="17.879408510327">
        <ele>1.4</ele>
        <time>2016-04-10T14:56:19Z</time>
      </trkpt>
      <trkpt lat="59.000215557664" lon="17.878781125112">
        <ele>1.4</ele>
        <time>2016-04-10T14:56:23Z</time>
      </trkpt>
      <trkpt lat="59.000140539659" lon="17.877677564158">
        <ele>1.4</ele>
        <time>2016-04-10T14:56:30Z</time>
      </trkpt>
      <trkpt lat="59.000094439209" lon="17.877406158236">
        <ele>1.4</ele>
        <time>2016-04-10T14:56:32Z</time>
      </trkpt>
      <trkpt lat="59.00003232933" lon="17.877200885505">
        <ele>1.4</ele>
        <time>2016-04-10T14:56:34Z</time>
      </trkpt>
      <trkpt lat="59.000001232481" lon="17.877116898867">
        <ele>2</ele>
        <time>2016-04-10T14:56:35Z</time>
      </trkpt>
      <trkpt lat="58.999970722365" lon="17.877041461767">
        <ele>2.4</ele>
        <time>2016-04-10T14:56:36Z</time>
      </trkpt>
      <trkpt lat="58.999946582493" lon="17.876983039924">
        <ele>3</ele>
        <time>2016-04-10T14:56:37Z</time>
      </trkpt>
      <trkpt lat="58.999918084033" lon="17.876914978896">
        <ele>3.4</ele>
        <time>2016-04-10T14:56:38Z</time>
      </trkpt>
      <trkpt lat="58.999891681048" lon="17.876863597849">
        <ele>4</ele>
        <time>2016-04-10T14:56:39Z</time>
      </trkpt>
      <trkpt lat="58.999863182588" lon="17.876808780223">
        <ele>4.4</ele>
        <time>2016-04-10T14:56:40Z</time>
      </trkpt>
      <trkpt lat="58.999834851766" lon="17.876754046416">
        <ele>4.8</ele>
        <time>2016-04-10T14:56:41Z</time>
      </trkpt>
      <trkpt lat="58.999806688582" lon="17.876702916826">
        <ele>5.2</ele>
        <time>2016-04-10T14:56:42Z</time>
      </trkpt>
      <trkpt lat="58.999771316964" lon="17.876642902422">
        <ele>5.8</ele>
        <time>2016-04-10T14:56:43Z</time>
      </trkpt>
      <trkpt lat="58.999741561219" lon="17.876573751747">
        <ele>6.2</ele>
        <time>2016-04-10T14:56:44Z</time>
      </trkpt>
      <trkpt lat="58.999713565673" lon="17.876505187805">
        <ele>6.6</ele>
        <time>2016-04-10T14:56:45Z</time>
      </trkpt>
      <trkpt lat="58.999690180172" lon="17.876431091809">
        <ele>7</ele>
        <time>2016-04-10T14:56:46Z</time>
      </trkpt>
      <trkpt lat="58.999669057784" lon="17.876362695505">
        <ele>7.4</ele>
        <time>2016-04-10T14:56:47Z</time>
      </trkpt>
      <trkpt lat="58.999664028644" lon="17.87628181017">
        <ele>7.8</ele>
        <time>2016-04-10T14:56:48Z</time>
      </trkpt>
      <trkpt lat="58.999660843522" lon="17.876201092473">
        <ele>8.2</ele>
        <time>2016-04-10T14:56:49Z</time>
      </trkpt>
      <trkpt lat="58.999667632861" lon="17.876112914885">
        <ele>8.8</ele>
        <time>2016-04-10T14:56:50Z</time>
      </trkpt>
      <trkpt lat="58.999676350037" lon="17.87603202955">
        <ele>9.6</ele>
        <time>2016-04-10T14:56:51Z</time>
      </trkpt>
      <trkpt lat="58.999686073041" lon="17.8759440196">
        <ele>10</ele>
        <time>2016-04-10T14:56:52Z</time>
      </trkpt>
      <trkpt lat="58.999702333927" lon="17.875855925831">
        <ele>10.4</ele>
        <time>2016-04-10T14:56:53Z</time>
      </trkpt>
      <trkpt lat="58.999724462143" lon="17.875750984443">
        <ele>10.4</ele>
        <time>2016-04-10T14:56:54Z</time>
      </trkpt>
      <trkpt lat="58.999744997798" lon="17.875642187381">
        <ele>10.4</ele>
        <time>2016-04-10T14:56:55Z</time>
      </trkpt>
      <trkpt lat="58.99976913767" lon="17.875544454427">
        <ele>10.4</ele>
        <time>2016-04-10T14:56:56Z</time>
      </trkpt>
      <trkpt lat="58.999827056599" lon="17.875357202781">
        <ele>10.4</ele>
        <time>2016-04-10T14:56:58Z</time>
      </trkpt>
      <trkpt lat="58.999862092941" lon="17.875263241682">
        <ele>10.4</ele>
        <time>2016-04-10T14:56:59Z</time>
      </trkpt>
      <trkpt lat="59.000094020114" lon="17.874781785346">
        <ele>10.4</ele>
        <time>2016-04-10T14:57:04Z</time>
      </trkpt>
      <trkpt lat="59.000239697536" lon="17.874483557344">
        <ele>10.4</ele>
        <time>2016-04-10T14:57:07Z</time>
      </trkpt>
      <trkpt lat="59.000336340843" lon="17.874276272957">
        <ele>10.4</ele>
        <time>2016-04-10T14:57:09Z</time>
      </trkpt>
      <trkpt lat="59.000453771262" lon="17.873869834626">
        <ele>10.4</ele>
        <time>2016-04-10T14:57:12Z</time>
      </trkpt>
      <trkpt lat="59.000486376853" lon="17.873730527448">
        <ele>10.4</ele>
        <time>2016-04-10T14:57:13Z</time>
      </trkpt>
      <trkpt lat="59.000516970788" lon="17.873593148107">
        <ele>10</ele>
        <time>2016-04-10T14:57:14Z</time>
      </trkpt>
      <trkpt lat="59.000547564723" lon="17.873452499825">
        <ele>9.2</ele>
        <time>2016-04-10T14:57:15Z</time>
      </trkpt>
      <trkpt lat="59.000580254133" lon="17.873311348629">
        <ele>8.8</ele>
        <time>2016-04-10T14:57:16Z</time>
      </trkpt>
      <trkpt lat="59.00061570957" lon="17.8731696107">
        <ele>8.4</ele>
        <time>2016-04-10T14:57:17Z</time>
      </trkpt>
      <trkpt lat="59.000698941837" lon="17.872891080163">
        <ele>8.4</ele>
        <time>2016-04-10T14:57:19Z</time>
      </trkpt>
      <trkpt lat="59.000732385618" lon="17.8727505157">
        <ele>8.4</ele>
        <time>2016-04-10T14:57:20Z</time>
      </trkpt>
      <trkpt lat="59.00074395264" lon="17.872447007101">
        <ele>8.4</ele>
        <time>2016-04-10T14:57:22Z</time>
      </trkpt>
      <trkpt lat="59.000725428641" lon="17.872284146784">
        <ele>8</ele>
        <time>2016-04-10T14:57:23Z</time>
      </trkpt>
      <trkpt lat="59.000693745059" lon="17.87212606415">
        <ele>7.4</ele>
        <time>2016-04-10T14:57:24Z</time>
      </trkpt>
      <trkpt lat="59.000655188319" lon="17.871980051452">
        <ele>7</ele>
        <time>2016-04-10T14:57:25Z</time>
      </trkpt>
      <trkpt lat="59.000614284647" lon="17.871843091206">
        <ele>6.6</ele>
        <time>2016-04-10T14:57:26Z</time>
      </trkpt>
      <trkpt lat="59.000574805898" lon="17.871708813168">
        <ele>6.2</ele>
        <time>2016-04-10T14:57:27Z</time>
      </trkpt>
      <trkpt lat="59.000422758232" lon="17.871159714899">
        <ele>6.2</ele>
        <time>2016-04-10T14:57:31Z</time>
      </trkpt>
      <trkpt lat="59.00024774416" lon="17.870333762473">
        <ele>6.2</ele>
        <time>2016-04-10T14:57:37Z</time>
      </trkpt>
      <trkpt lat="59.00014464679" lon="17.869747364749">
        <ele>6.2</ele>
        <time>2016-04-10T14:57:42Z</time>
      </trkpt>
      <trkpt lat="59.000102234376" lon="17.869292227579">
        <ele>6.6</ele>
        <time>2016-04-10T14:57:46Z</time>
      </trkpt>
      <trkpt lat="59.000092511372" lon="17.869165493251">
        <ele>7</ele>
        <time>2016-04-10T14:57:47Z</time>
      </trkpt>
      <trkpt lat="59.000090080621" lon="17.869040351484">
        <ele>7.4</ele>
        <time>2016-04-10T14:57:48Z</time>
      </trkpt>
      <trkpt lat="59.000087398413" lon="17.868911102586">
        <ele>7.8</ele>
        <time>2016-04-10T14:57:49Z</time>
      </trkpt>
      <trkpt lat="59.000090499716" lon="17.868791828149">
        <ele>8.2</ele>
        <time>2016-04-10T14:57:50Z</time>
      </trkpt>
      <trkpt lat="59.000101144729" lon="17.868259912775">
        <ele>8.2</ele>
        <time>2016-04-10T14:57:54Z</time>
      </trkpt>
      <trkpt lat="59.000138695641" lon="17.867725818107">
        <ele>7.6</ele>
        <time>2016-04-10T14:57:57Z</time>
      </trkpt>
      <trkpt lat="59.000154202156" lon="17.867529681647">
        <ele>7.2</ele>
        <time>2016-04-10T14:57:58Z</time>
      </trkpt>
      <trkpt lat="59.000162667875" lon="17.867321139975">
        <ele>6.2</ele>
        <time>2016-04-10T14:57:59Z</time>
      </trkpt>
      <trkpt lat="59.000161745866" lon="17.867113604131">
        <ele>5.2</ele>
        <time>2016-04-10T14:58:00Z</time>
      </trkpt>
      <trkpt lat="59.000149340654" lon="17.866912857626">
        <ele>4</ele>
        <time>2016-04-10T14:58:01Z</time>
      </trkpt>
      <trkpt lat="59.000133079768" lon="17.866717894632">
        <ele>3</ele>
        <time>2016-04-10T14:58:02Z</time>
      </trkpt>
      <trkpt lat="59.000114304312" lon="17.866513376272">
        <ele>1.8</ele>
        <time>2016-04-10T14:58:03Z</time>
      </trkpt>
      <trkpt lat="59.000098630159" lon="17.866317742726">
        <ele>0</ele>
        <time>2016-04-10T14:58:04Z</time>
      </trkpt>
      <trkpt lat="59.000067198034" lon="17.86552028876">
        <ele>0</ele>
        <time>2016-04-10T14:58:08Z</time>
      </trkpt>
      <trkpt lat="59.000041381782" lon="17.864921402005">
        <ele>0</ele>
        <time>2016-04-10T14:58:11Z</time>
      </trkpt>
      <trkpt lat="59.000010284933" lon="17.864702131501">
        <ele>0</ele>
        <time>2016-04-10T14:58:12Z</time>
      </trkpt>
      <trkpt lat="58.999967956338" lon="17.864464923731">
        <ele>0</ele>
        <time>2016-04-10T14:58:13Z</time>
      </trkpt>
      <trkpt lat="58.999912803436" lon="17.864228721789">
        <ele>0</ele>
        <time>2016-04-10T14:58:14Z</time>
      </trkpt>
      <trkpt lat="58.999854716869" lon="17.8639830483">
        <ele>0</ele>
        <time>2016-04-10T14:58:15Z</time>
      </trkpt>
      <trkpt lat="58.999806520944" lon="17.863725304875">
        <ele>0</ele>
        <time>2016-04-10T14:58:16Z</time>
      </trkpt>
      <trkpt lat="58.999771484602" lon="17.863474350789">
        <ele>0</ele>
        <time>2016-04-10T14:58:17Z</time>
      </trkpt>
      <trkpt lat="58.999748685834" lon="17.863207471093">
        <ele>0</ele>
        <time>2016-04-10T14:58:18Z</time>
      </trkpt>
      <trkpt lat="58.999742567047" lon="17.862928102366">
        <ele>0</ele>
        <time>2016-04-10T14:58:19Z</time>
      </trkpt>
      <trkpt lat="58.999739381925" lon="17.862668012009">
        <ele>0</ele>
        <time>2016-04-10T14:58:20Z</time>
      </trkpt>
      <trkpt lat="58.999734939518" lon="17.862413034611">
        <ele>0</ele>
        <time>2016-04-10T14:58:21Z</time>
      </trkpt>
      <trkpt lat="58.999726054704" lon="17.862165684742">
        <ele>0</ele>
        <time>2016-04-10T14:58:22Z</time>
      </trkpt>
      <trkpt lat="58.999685234851" lon="17.861691101564">
        <ele>0</ele>
        <time>2016-04-10T14:58:24Z</time>
      </trkpt>
      <trkpt lat="58.999660424427" lon="17.861468394481">
        <ele>0</ele>
        <time>2016-04-10T14:58:25Z</time>
      </trkpt>
      <trkpt lat="58.999638631487" lon="17.861251638547">
        <ele>0</ele>
        <time>2016-04-10T14:58:26Z</time>
      </trkpt>
      <trkpt lat="58.999622957334" lon="17.861049131843">
        <ele>0</ele>
        <time>2016-04-10T14:58:27Z</time>
      </trkpt>
      <trkpt lat="58.999620107488" lon="17.860858024523">
        <ele>0</ele>
        <time>2016-04-10T14:58:28Z</time>
      </trkpt>
      <trkpt lat="58.999619856031" lon="17.860680495881">
        <ele>0</ele>
        <time>2016-04-10T14:58:29Z</time>
      </trkpt>
      <trkpt lat="58.999622622058" lon="17.860514282804">
        <ele>0</ele>
        <time>2016-04-10T14:58:30Z</time>
      </trkpt>
      <trkpt lat="58.999624801352" lon="17.860360558758">
        <ele>0</ele>
        <time>2016-04-10T14:58:31Z</time>
      </trkpt>
      <trkpt lat="58.999623963162" lon="17.860222257408">
        <ele>0</ele>
        <time>2016-04-10T14:58:32Z</time>
      </trkpt>
      <trkpt lat="58.999624801352" lon="17.860102731514">
        <ele>0</ele>
        <time>2016-04-10T14:58:33Z</time>
      </trkpt>
      <trkpt lat="58.999622370601" lon="17.859982032154">
        <ele>0</ele>
        <time>2016-04-10T14:58:34Z</time>
      </trkpt>
      <trkpt lat="58.999621364773" lon="17.859865942839">
        <ele>0</ele>
        <time>2016-04-10T14:58:35Z</time>
      </trkpt>
      <trkpt lat="58.999623879343" lon="17.859741052529">
        <ele>0</ele>
        <time>2016-04-10T14:58:36Z</time>
      </trkpt>
      <trkpt lat="58.9996241308" lon="17.859607947957">
        <ele>0</ele>
        <time>2016-04-10T14:58:37Z</time>
      </trkpt>
      <trkpt lat="58.999624717533" lon="17.859469478969">
        <ele>0</ele>
        <time>2016-04-10T14:58:38Z</time>
      </trkpt>
      <trkpt lat="58.999612479959" lon="17.858441355115">
        <ele>0</ele>
        <time>2016-04-10T14:58:45Z</time>
      </trkpt>
      <trkpt lat="58.999632764157" lon="17.857743310483">
        <ele>0</ele>
        <time>2016-04-10T14:58:51Z</time>
      </trkpt>
      <trkpt lat="58.999671404716" lon="17.857531080775">
        <ele>0</ele>
        <time>2016-04-10T14:58:53Z</time>
      </trkpt>
      <trkpt lat="58.999695460769" lon="17.857458744978">
        <ele>0</ele>
        <time>2016-04-10T14:58:54Z</time>
      </trkpt>
      <trkpt lat="58.999717421347" lon="17.857396383642">
        <ele>0</ele>
        <time>2016-04-10T14:58:55Z</time>
      </trkpt>
      <trkpt lat="58.999735274794" lon="17.857339805817">
        <ele>0</ele>
        <time>2016-04-10T14:58:56Z</time>
      </trkpt>
      <trkpt lat="58.999754217888" lon="17.857285491105">
        <ele>0</ele>
        <time>2016-04-10T14:58:57Z</time>
      </trkpt>
      <trkpt lat="58.999775927009" lon="17.857225392882">
        <ele>0</ele>
        <time>2016-04-10T14:58:58Z</time>
      </trkpt>
      <trkpt lat="58.999803335822" lon="17.85716604903">
        <ele>0</ele>
        <time>2016-04-10T14:58:59Z</time>
      </trkpt>
      <trkpt lat="58.999825212581" lon="17.857103100961">
        <ele>0</ele>
        <time>2016-04-10T14:59:00Z</time>
      </trkpt>
      <trkpt lat="58.999852034661" lon="17.857035375209">
        <ele>0</ele>
        <time>2016-04-10T14:59:01Z</time>
      </trkpt>
      <trkpt lat="58.999884472614" lon="17.856960441023">
        <ele>0</ele>
        <time>2016-04-10T14:59:02Z</time>
      </trkpt>
      <trkpt lat="58.999915904739" lon="17.856873604539">
        <ele>0.6</ele>
        <time>2016-04-10T14:59:03Z</time>
      </trkpt>
      <trkpt lat="58.999944738475" lon="17.856784588761">
        <ele>0.6</ele>
        <time>2016-04-10T14:59:04Z</time>
      </trkpt>
      <trkpt lat="59.000049596044" lon="17.856374965308">
        <ele>0.6</ele>
        <time>2016-04-10T14:59:08Z</time>
      </trkpt>
      <trkpt lat="59.000074406468" lon="17.856257199613">
        <ele>0.6</ele>
        <time>2016-04-10T14:59:09Z</time>
      </trkpt>
      <trkpt lat="59.000106676783" lon="17.856140607384">
        <ele>0.6</ele>
        <time>2016-04-10T14:59:10Z</time>
      </trkpt>
      <trkpt lat="59.000188819403" lon="17.855923180898">
        <ele>0</ele>
        <time>2016-04-10T14:59:12Z</time>
      </trkpt>
      <trkpt lat="59.000242882658" lon="17.855830057989">
        <ele>0</ele>
        <time>2016-04-10T14:59:13Z</time>
      </trkpt>
      <trkpt lat="59.000299963397" lon="17.855760236762">
        <ele>0</ele>
        <time>2016-04-10T14:59:14Z</time>
      </trkpt>
      <trkpt lat="59.000362492371" lon="17.855710867371">
        <ele>0</ele>
        <time>2016-04-10T14:59:15Z</time>
      </trkpt>
      <trkpt lat="59.000420998033" lon="17.855669293147">
        <ele>0</ele>
        <time>2016-04-10T14:59:16Z</time>
      </trkpt>
      <trkpt lat="59.000477156763" lon="17.855634256805">
        <ele>0</ele>
        <time>2016-04-10T14:59:17Z</time>
      </trkpt>
      <trkpt lat="59.000699360932" lon="17.855520262965">
        <ele>0</ele>
        <time>2016-04-10T14:59:21Z</time>
      </trkpt>
      <trkpt lat="59.000749233237" lon="17.855493105609">
        <ele>0</ele>
        <time>2016-04-10T14:59:22Z</time>
      </trkpt>
      <trkpt lat="59.000796842429" lon="17.855462260217">
        <ele>0</ele>
        <time>2016-04-10T14:59:23Z</time>
      </trkpt>
      <trkpt lat="59.00084621182" lon="17.855440718734">
        <ele>0</ele>
        <time>2016-04-10T14:59:24Z</time>
      </trkpt>
      <trkpt lat="59.000888037501" lon="17.855424876943">
        <ele>0.2</ele>
        <time>2016-04-10T14:59:25Z</time>
      </trkpt>
      <trkpt lat="59.001009155956" lon="17.855381710158">
        <ele>0.6</ele>
        <time>2016-04-10T14:59:28Z</time>
      </trkpt>
      <trkpt lat="59.001049808171" lon="17.855364443444">
        <ele>1</ele>
        <time>2016-04-10T14:59:29Z</time>
      </trkpt>
      <trkpt lat="59.00108761054" lon="17.855351116223">
        <ele>1.4</ele>
        <time>2016-04-10T14:59:30Z</time>
      </trkpt>
      <trkpt lat="59.001124155624" lon="17.855343069599">
        <ele>2</ele>
        <time>2016-04-10T14:59:31Z</time>
      </trkpt>
      <trkpt lat="59.001160616889" lon="17.855336028803">
        <ele>2.4</ele>
        <time>2016-04-10T14:59:32Z</time>
      </trkpt>
      <trkpt lat="59.00126279225" lon="17.855316582795">
        <ele>2.8</ele>
        <time>2016-04-10T14:59:35Z</time>
      </trkpt>
      <trkpt lat="59.001292464176" lon="17.855315576967">
        <ele>3.2</ele>
        <time>2016-04-10T14:59:36Z</time>
      </trkpt>
      <trkpt lat="59.001314005659" lon="17.855325802885">
        <ele>3.6</ele>
        <time>2016-04-10T14:59:37Z</time>
      </trkpt>
      <trkpt lat="59.001337223522" lon="17.855336950812">
        <ele>4</ele>
        <time>2016-04-10T14:59:38Z</time>
      </trkpt>
      <trkpt lat="59.001359770833" lon="17.855339046287">
        <ele>4.4</ele>
        <time>2016-04-10T14:59:39Z</time>
      </trkpt>
      <trkpt lat="59.001386341456" lon="17.855343740151">
        <ele>4.4</ele>
        <time>2016-04-10T14:59:40Z</time>
      </trkpt>
      <trkpt lat="59.001408302034" lon="17.855340638848">
        <ele>5</ele>
        <time>2016-04-10T14:59:41Z</time>
      </trkpt>
      <trkpt lat="59.00143126844" lon="17.855343907789">
        <ele>5.4</ele>
        <time>2016-04-10T14:59:42Z</time>
      </trkpt>
      <trkpt lat="59.001455156855" lon="17.855350026576">
        <ele>5.8</ele>
        <time>2016-04-10T14:59:43Z</time>
      </trkpt>
      <trkpt lat="59.001484409686" lon="17.855350697128">
        <ele>6.6</ele>
        <time>2016-04-10T14:59:44Z</time>
      </trkpt>
      <trkpt lat="59.001506537902" lon="17.855362934702">
        <ele>6.6</ele>
        <time>2016-04-10T14:59:45Z</time>
      </trkpt>
      <trkpt lat="59.001555572017" lon="17.855376094285">
        <ele>7</ele>
        <time>2016-04-10T14:59:47Z</time>
      </trkpt>
      <trkpt lat="59.001579376613" lon="17.855387828945">
        <ele>7.6</ele>
        <time>2016-04-10T14:59:48Z</time>
      </trkpt>
      <trkpt lat="59.0016022592" lon="17.855398893053">
        <ele>8</ele>
        <time>2016-04-10T14:59:49Z</time>
      </trkpt>
      <trkpt lat="59.001630087108" lon="17.855409118971">
        <ele>8.4</ele>
        <time>2016-04-10T14:59:50Z</time>
      </trkpt>
      <trkpt lat="59.001661854509" lon="17.855420602174">
        <ele>9</ele>
        <time>2016-04-10T14:59:51Z</time>
      </trkpt>
      <trkpt lat="59.001751289382" lon="17.855440048182">
        <ele>9.4</ele>
        <time>2016-04-10T14:59:54Z</time>
      </trkpt>
      <trkpt lat="59.001783056783" lon="17.855451866661">
        <ele>9.8</ele>
        <time>2016-04-10T14:59:55Z</time>
      </trkpt>
      <trkpt lat="59.001812728709" lon="17.855471731764">
        <ele>10.2</ele>
        <time>2016-04-10T14:59:56Z</time>
      </trkpt>
      <trkpt lat="59.001847597413" lon="17.855482795872">
        <ele>10.6</ele>
        <time>2016-04-10T14:59:57Z</time>
      </trkpt>
      <trkpt lat="59.001885064506" lon="17.855486148632">
        <ele>11</ele>
        <time>2016-04-10T14:59:58Z</time>
      </trkpt>
      <trkpt lat="59.001973409732" lon="17.855487573555">
        <ele>11.4</ele>
        <time>2016-04-10T15:00:01Z</time>
      </trkpt>
      <trkpt lat="59.001999393622" lon="17.855490842496">
        <ele>11.8</ele>
        <time>2016-04-10T15:00:02Z</time>
      </trkpt>
      <trkpt lat="59.002025042236" lon="17.85548547808">
        <ele>12.2</ele>
        <time>2016-04-10T15:00:03Z</time>
      </trkpt>
      <trkpt lat="59.002055803809" lon="17.855476425628">
        <ele>12.6</ele>
        <time>2016-04-10T15:00:04Z</time>
      </trkpt>
      <trkpt lat="59.00208589483" lon="17.855465445339">
        <ele>13</ele>
        <time>2016-04-10T15:00:05Z</time>
      </trkpt>
      <trkpt lat="59.002186058535" lon="17.855466367348">
        <ele>13</ele>
        <time>2016-04-10T15:00:08Z</time>
      </trkpt>
      <trkpt lat="59.00221581428" lon="17.855460583837">
        <ele>13.4</ele>
        <time>2016-04-10T15:00:09Z</time>
      </trkpt>
      <trkpt lat="59.002239367419" lon="17.855443820037">
        <ele>14</ele>
        <time>2016-04-10T15:00:10Z</time>
      </trkpt>
      <trkpt lat="59.002265016033" lon="17.855433761757">
        <ele>14.4</ele>
        <time>2016-04-10T15:00:11Z</time>
      </trkpt>
      <trkpt lat="59.002295274692" lon="17.855423032925">
        <ele>14.8</ele>
        <time>2016-04-10T15:00:12Z</time>
      </trkpt>
      <trkpt lat="59.002329221387" lon="17.855400234157">
        <ele>15.2</ele>
        <time>2016-04-10T15:00:13Z</time>
      </trkpt>
      <trkpt lat="59.002539607077" lon="17.85520468443">
        <ele>15.2</ele>
        <time>2016-04-10T15:00:19Z</time>
      </trkpt>
      <trkpt lat="59.002576655075" lon="17.855160092722">
        <ele>15.2</ele>
        <time>2016-04-10T15:00:20Z</time>
      </trkpt>
      <trkpt lat="59.002644464646" lon="17.855052636764">
        <ele>15.8</ele>
        <time>2016-04-10T15:00:22Z</time>
      </trkpt>
      <trkpt lat="59.002672124916" lon="17.854998238233">
        <ele>16.2</ele>
        <time>2016-04-10T15:00:23Z</time>
      </trkpt>
      <trkpt lat="59.002696516245" lon="17.854934200517">
        <ele>16.6</ele>
        <time>2016-04-10T15:00:24Z</time>
      </trkpt>
      <trkpt lat="59.002728954198" lon="17.854875694855">
        <ele>17</ele>
        <time>2016-04-10T15:00:25Z</time>
      </trkpt>
      <trkpt lat="59.002756111554" lon="17.854819452306">
        <ele>17.6</ele>
        <time>2016-04-10T15:00:26Z</time>
      </trkpt>
      <trkpt lat="59.002815203949" lon="17.854585848753">
        <ele>17.6</ele>
        <time>2016-04-10T15:00:29Z</time>
      </trkpt>
      <trkpt lat="59.002850407929" lon="17.854345372042">
        <ele>18</ele>
        <time>2016-04-10T15:00:32Z</time>
      </trkpt>
      <trkpt lat="59.002858957467" lon="17.854264738164">
        <ele>18.8</ele>
        <time>2016-04-10T15:00:33Z</time>
      </trkpt>
      <trkpt lat="59.002863148417" lon="17.854167591943">
        <ele>19.2</ele>
        <time>2016-04-10T15:00:34Z</time>
      </trkpt>
      <trkpt lat="59.002866333539" lon="17.854048652782">
        <ele>19.6</ele>
        <time>2016-04-10T15:00:35Z</time>
      </trkpt>
      <trkpt lat="59.002871446498" lon="17.853758639042">
        <ele>19.6</ele>
        <time>2016-04-10T15:00:37Z</time>
      </trkpt>
      <trkpt lat="59.002861304399" lon="17.853600221132">
        <ele>19</ele>
        <time>2016-04-10T15:00:38Z</time>
      </trkpt>
      <trkpt lat="59.002837080708" lon="17.853425458517">
        <ele>18.4</ele>
        <time>2016-04-10T15:00:39Z</time>
      </trkpt>
      <trkpt lat="59.002808582248" lon="17.853252372282">
        <ele>17.4</ele>
        <time>2016-04-10T15:00:40Z</time>
      </trkpt>
      <trkpt lat="59.002774803191" lon="17.853076771477">
        <ele>16.4</ele>
        <time>2016-04-10T15:00:41Z</time>
      </trkpt>
      <trkpt lat="59.002733899519" lon="17.852907792373">
        <ele>15.2</ele>
        <time>2016-04-10T15:00:42Z</time>
      </trkpt>
      <trkpt lat="59.002691570924" lon="17.852741411658">
        <ele>14.2</ele>
        <time>2016-04-10T15:00:43Z</time>
      </trkpt>
      <trkpt lat="59.002641195705" lon="17.852563631559">
        <ele>13</ele>
        <time>2016-04-10T15:00:44Z</time>
      </trkpt>
      <trkpt lat="59.002591491038" lon="17.852390126229">
        <ele>12</ele>
        <time>2016-04-10T15:00:45Z</time>
      </trkpt>
      <trkpt lat="59.002539439439" lon="17.852219806021">
        <ele>11</ele>
        <time>2016-04-10T15:00:46Z</time>
      </trkpt>
      <trkpt lat="59.002487052564" lon="17.852037583515">
        <ele>10</ele>
        <time>2016-04-10T15:00:47Z</time>
      </trkpt>
      <trkpt lat="59.002441790304" lon="17.85184773348">
        <ele>9</ele>
        <time>2016-04-10T15:00:48Z</time>
      </trkpt>
      <trkpt lat="59.002409184713" lon="17.85164908245">
        <ele>8</ele>
        <time>2016-04-10T15:00:49Z</time>
      </trkpt>
      <trkpt lat="59.002400718994" lon="17.851418664019">
        <ele>7</ele>
        <time>2016-04-10T15:00:50Z</time>
      </trkpt>
      <trkpt lat="59.002418991536" lon="17.851180785697">
        <ele>6.2</ele>
        <time>2016-04-10T15:00:51Z</time>
      </trkpt>
      <trkpt lat="59.002453105869" lon="17.850963275392">
        <ele>5.2</ele>
        <time>2016-04-10T15:00:52Z</time>
      </trkpt>
      <trkpt lat="59.002487639297" lon="17.850746603277">
        <ele>4.2</ele>
        <time>2016-04-10T15:00:53Z</time>
      </trkpt>
      <trkpt lat="59.002522005087" lon="17.85057452287">
        <ele>3.4</ele>
        <time>2016-04-10T15:00:54Z</time>
      </trkpt>
      <trkpt lat="59.002568776089" lon="17.850427755801">
        <ele>2.4</ele>
        <time>2016-04-10T15:00:55Z</time>
      </trkpt>
      <trkpt lat="59.002640189877" lon="17.850330861037">
        <ele>1.6</ele>
        <time>2016-04-10T15:00:56Z</time>
      </trkpt>
      <trkpt lat="59.00272291923" lon="17.850314348694">
        <ele>0.6</ele>
        <time>2016-04-10T15:00:57Z</time>
      </trkpt>
      <trkpt lat="59.002809420438" lon="17.850332453598">
        <ele>0.6</ele>
        <time>2016-04-10T15:00:58Z</time>
      </trkpt>
      <trkpt lat="59.002988038727" lon="17.85038173917">
        <ele>0.6</ele>
        <time>2016-04-10T15:01:00Z</time>
      </trkpt>
      <trkpt lat="59.00334737078" lon="17.850442675583">
        <ele>0.6</ele>
        <time>2016-04-10T15:01:04Z</time>
      </trkpt>
      <trkpt lat="59.003730591248" lon="17.850387522681">
        <ele>0.2</ele>
        <time>2016-04-10T15:01:08Z</time>
      </trkpt>
      <trkpt lat="59.003819942302" lon="17.850354749452">
        <ele>0</ele>
        <time>2016-04-10T15:01:09Z</time>
      </trkpt>
      <trkpt lat="59.003908538985" lon="17.850316025074">
        <ele>0</ele>
        <time>2016-04-10T15:01:10Z</time>
      </trkpt>
      <trkpt lat="59.003997554763" lon="17.85026439257">
        <ele>0</ele>
        <time>2016-04-10T15:01:11Z</time>
      </trkpt>
      <trkpt lat="59.004087911645" lon="17.850207060374">
        <ele>0</ele>
        <time>2016-04-10T15:01:12Z</time>
      </trkpt>
      <trkpt lat="59.004268709228" lon="17.850078062933">
        <ele>0</ele>
        <time>2016-04-10T15:01:14Z</time>
      </trkpt>
      <trkpt lat="59.004356635359" lon="17.850006900602">
        <ele>0</ele>
        <time>2016-04-10T15:01:15Z</time>
      </trkpt>
      <trkpt lat="59.004443471843" lon="17.849928194561">
        <ele>0</ele>
        <time>2016-04-10T15:01:16Z</time>
      </trkpt>
      <trkpt lat="59.004532403802" lon="17.849852925099">
        <ele>0</ele>
        <time>2016-04-10T15:01:17Z</time>
      </trkpt>
      <trkpt lat="59.004625191435" lon="17.849772794135">
        <ele>0</ele>
        <time>2016-04-10T15:01:18Z</time>
      </trkpt>
      <trkpt lat="59.004819064782" lon="17.849609179447">
        <ele>0</ele>
        <time>2016-04-10T15:01:20Z</time>
      </trkpt>
      <trkpt lat="59.005034144336" lon="17.849431483167">
        <ele>0</ele>
        <time>2016-04-10T15:01:22Z</time>
      </trkpt>
      <trkpt lat="59.005136487335" lon="17.849333834032">
        <ele>0</ele>
        <time>2016-04-10T15:01:23Z</time>
      </trkpt>
      <trkpt lat="59.005236986316" lon="17.849241381675">
        <ele>0</ele>
        <time>2016-04-10T15:01:24Z</time>
      </trkpt>
      <trkpt lat="59.005334803089" lon="17.84914876168">
        <ele>0</ele>
        <time>2016-04-10T15:01:25Z</time>
      </trkpt>
      <trkpt lat="59.005429602378" lon="17.849071480562">
        <ele>0</ele>
        <time>2016-04-10T15:01:26Z</time>
      </trkpt>
      <trkpt lat="59.005612327798" lon="17.848972657961">
        <ele>0</ele>
        <time>2016-04-10T15:01:28Z</time>
      </trkpt>
      <trkpt lat="59.005698409911" lon="17.848989757037">
        <ele>0</ele>
        <time>2016-04-10T15:01:29Z</time>
      </trkpt>
      <trkpt lat="59.005858839477" lon="17.849106433085">
        <ele>0</ele>
        <time>2016-04-10T15:01:31Z</time>
      </trkpt>
      <trkpt lat="59.005932264921" lon="17.849192850474">
        <ele>0</ele>
        <time>2016-04-10T15:01:32Z</time>
      </trkpt>
      <trkpt lat="59.006002505243" lon="17.849286392478">
        <ele>0</ele>
        <time>2016-04-10T15:01:33Z</time>
      </trkpt>
      <trkpt lat="59.006070985366" lon="17.849385634174">
        <ele>0</ele>
        <time>2016-04-10T15:01:34Z</time>
      </trkpt>
      <trkpt lat="59.006133430521" lon="17.849484121499">
        <ele>0</ele>
        <time>2016-04-10T15:01:35Z</time>
      </trkpt>
      <trkpt lat="59.006248597827" lon="17.849687885488">
        <ele>0</ele>
        <time>2016-04-10T15:01:37Z</time>
      </trkpt>
      <trkpt lat="59.00654590382" lon="17.850304960966">
        <ele>0</ele>
        <time>2016-04-10T15:01:43Z</time>
      </trkpt>
      <trkpt lat="59.006599799437" lon="17.850398251513">
        <ele>0</ele>
        <time>2016-04-10T15:01:44Z</time>
      </trkpt>
      <trkpt lat="59.00665486852" lon="17.850485507092">
        <ele>0</ele>
        <time>2016-04-10T15:01:45Z</time>
      </trkpt>
      <trkpt lat="59.006708093585" lon="17.850571002472">
        <ele>0</ele>
        <time>2016-04-10T15:01:46Z</time>
      </trkpt>
      <trkpt lat="59.006764839048" lon="17.850648786504">
        <ele>0</ele>
        <time>2016-04-10T15:01:47Z</time>
      </trkpt>
      <trkpt lat="59.006820075769" lon="17.850726821993">
        <ele>0</ele>
        <time>2016-04-10T15:01:48Z</time>
      </trkpt>
      <trkpt lat="59.006875396309" lon="17.85080418693">
        <ele>0</ele>
        <time>2016-04-10T15:01:49Z</time>
      </trkpt>
      <trkpt lat="59.00708737456" lon="17.851132003039">
        <ele>0</ele>
        <time>2016-04-10T15:01:53Z</time>
      </trkpt>
      <trkpt lat="59.007230034498" lon="17.851415814173">
        <ele>0</ele>
        <time>2016-04-10T15:01:56Z</time>
      </trkpt>
      <trkpt lat="59.007273536559" lon="17.851498627345">
        <ele>0</ele>
        <time>2016-04-10T15:01:57Z</time>
      </trkpt>
      <trkpt lat="59.007314691688" lon="17.851576662834">
        <ele>0</ele>
        <time>2016-04-10T15:01:58Z</time>
      </trkpt>
      <trkpt lat="59.007359451034" lon="17.851661739119">
        <ele>0</ele>
        <time>2016-04-10T15:01:59Z</time>
      </trkpt>
      <trkpt lat="59.007404713294" lon="17.851746144852">
        <ele>0</ele>
        <time>2016-04-10T15:02:00Z</time>
      </trkpt>
      <trkpt lat="59.007561119548" lon="17.851984945183">
        <ele>0</ele>
        <time>2016-04-10T15:02:03Z</time>
      </trkpt>
      <trkpt lat="59.007719034544" lon="17.852216117985">
        <ele>0</ele>
        <time>2016-04-10T15:02:06Z</time>
      </trkpt>
      <trkpt lat="59.007771924333" lon="17.852278982235">
        <ele>0</ele>
        <time>2016-04-10T15:02:07Z</time>
      </trkpt>
      <trkpt lat="59.007825233217" lon="17.85233304549">
        <ele>0</ele>
        <time>2016-04-10T15:02:08Z</time>
      </trkpt>
      <trkpt lat="59.007883319784" lon="17.852372943334">
        <ele>0</ele>
        <time>2016-04-10T15:02:09Z</time>
      </trkpt>
      <trkpt lat="59.007945094387" lon="17.852412338264">
        <ele>0</ele>
        <time>2016-04-10T15:02:10Z</time>
      </trkpt>
      <trkpt lat="59.008008293913" lon="17.8524495539">
        <ele>0.4</ele>
        <time>2016-04-10T15:02:11Z</time>
      </trkpt>
      <trkpt lat="59.008071577258" lon="17.852484422604">
        <ele>0.8</ele>
        <time>2016-04-10T15:02:12Z</time>
      </trkpt>
      <trkpt lat="59.008137961906" lon="17.852497917463">
        <ele>1.2</ele>
        <time>2016-04-10T15:02:13Z</time>
      </trkpt>
      <trkpt lat="59.008201161432" lon="17.852504203888">
        <ele>1.6</ele>
        <time>2016-04-10T15:02:14Z</time>
      </trkpt>
      <trkpt lat="59.008262349302" lon="17.852513423978">
        <ele>2</ele>
        <time>2016-04-10T15:02:15Z</time>
      </trkpt>
      <trkpt lat="59.008427891827" lon="17.852537396212">
        <ele>2</ele>
        <time>2016-04-10T15:02:18Z</time>
      </trkpt>
      <trkpt lat="59.008540879839" lon="17.852551729261">
        <ele>2</ele>
        <time>2016-04-10T15:02:20Z</time>
      </trkpt>
      <trkpt lat="59.008767526415" lon="17.852552232175">
        <ele>2</ele>
        <time>2016-04-10T15:02:24Z</time>
      </trkpt>
      <trkpt lat="59.008879760056" lon="17.852527421751">
        <ele>2.4</ele>
        <time>2016-04-10T15:02:26Z</time>
      </trkpt>
      <trkpt lat="59.00893306894" lon="17.85251577091">
        <ele>2.8</ele>
        <time>2016-04-10T15:02:27Z</time>
      </trkpt>
      <trkpt lat="59.008989730584" lon="17.852504455345">
        <ele>3.2</ele>
        <time>2016-04-10T15:02:28Z</time>
      </trkpt>
      <trkpt lat="59.009042788011" lon="17.852489870839">
        <ele>3.6</ele>
        <time>2016-04-10T15:02:29Z</time>
      </trkpt>
      <trkpt lat="59.009089391375" lon="17.852466150062">
        <ele>4.2</ele>
        <time>2016-04-10T15:02:30Z</time>
      </trkpt>
      <trkpt lat="59.009178490972" lon="17.852407812038">
        <ele>4.6</ele>
        <time>2016-04-10T15:02:32Z</time>
      </trkpt>
      <trkpt lat="59.009224172327" lon="17.852372272782">
        <ele>5</ele>
        <time>2016-04-10T15:02:33Z</time>
      </trkpt>
      <trkpt lat="59.009266584741" lon="17.852336230612">
        <ele>5.4</ele>
        <time>2016-04-10T15:02:34Z</time>
      </trkpt>
      <trkpt lat="59.009307153137" lon="17.852299182614">
        <ele>6</ele>
        <time>2016-04-10T15:02:35Z</time>
      </trkpt>
      <trkpt lat="59.009350236103" lon="17.852250316137">
        <ele>7</ele>
        <time>2016-04-10T15:02:36Z</time>
      </trkpt>
      <trkpt lat="59.009392983793" lon="17.852192061932">
        <ele>7.4</ele>
        <time>2016-04-10T15:02:37Z</time>
      </trkpt>
      <trkpt lat="59.009434138922" lon="17.852132885718">
        <ele>8</ele>
        <time>2016-04-10T15:02:38Z</time>
      </trkpt>
      <trkpt lat="59.009474120585" lon="17.852079828291">
        <ele>8.4</ele>
        <time>2016-04-10T15:02:39Z</time>
      </trkpt>
      <trkpt lat="59.00951058185" lon="17.852041103913">
        <ele>9</ele>
        <time>2016-04-10T15:02:40Z</time>
      </trkpt>
      <trkpt lat="59.009547629848" lon="17.851995925472">
        <ele>9.4</ele>
        <time>2016-04-10T15:02:41Z</time>
      </trkpt>
      <trkpt lat="59.009586773321" lon="17.851951836678">
        <ele>10</ele>
        <time>2016-04-10T15:02:42Z</time>
      </trkpt>
      <trkpt lat="59.009630191563" lon="17.851898443975">
        <ele>10.6</ele>
        <time>2016-04-10T15:02:43Z</time>
      </trkpt>
      <trkpt lat="59.009675621461" lon="17.851849577498">
        <ele>10.6</ele>
        <time>2016-04-10T15:02:44Z</time>
      </trkpt>
      <trkpt lat="59.009761871212" lon="17.851768189249">
        <ele>11</ele>
        <time>2016-04-10T15:02:46Z</time>
      </trkpt>
      <trkpt lat="59.009798248658" lon="17.851728878138">
        <ele>11.4</ele>
        <time>2016-04-10T15:02:47Z</time>
      </trkpt>
      <trkpt lat="59.009836470122" lon="17.851696440185">
        <ele>11.8</ele>
        <time>2016-04-10T15:02:48Z</time>
      </trkpt>
      <trkpt lat="59.009875110681" lon="17.851651010287">
        <ele>12.2</ele>
        <time>2016-04-10T15:02:49Z</time>
      </trkpt>
      <trkpt lat="59.009911488127" lon="17.85159711467">
        <ele>12.8</ele>
        <time>2016-04-10T15:02:50Z</time>
      </trkpt>
      <trkpt lat="59.010013579669" lon="17.851344232747">
        <ele>12.8</ele>
        <time>2016-04-10T15:02:53Z</time>
      </trkpt>
      <trkpt lat="59.01011743141" lon="17.851141809862">
        <ele>12.8</ele>
        <time>2016-04-10T15:02:55Z</time>
      </trkpt>
      <trkpt lat="59.010179876565" lon="17.85102546909">
        <ele>12.8</ele>
        <time>2016-04-10T15:02:56Z</time>
      </trkpt>
      <trkpt lat="59.010339048846" lon="17.850776191384">
        <ele>12.2</ele>
        <time>2016-04-10T15:02:58Z</time>
      </trkpt>
      <trkpt lat="59.010431249746" lon="17.850673513109">
        <ele>11.8</ele>
        <time>2016-04-10T15:02:59Z</time>
      </trkpt>
      <trkpt lat="59.010535436763" lon="17.850566476246">
        <ele>10.8</ele>
        <time>2016-04-10T15:03:00Z</time>
      </trkpt>
      <trkpt lat="59.010648760051" lon="17.850483243979">
        <ele>8.6</ele>
        <time>2016-04-10T15:03:01Z</time>
      </trkpt>
      <trkpt lat="59.010768621221" lon="17.850400933721">
        <ele>7.4</ele>
        <time>2016-04-10T15:03:02Z</time>
      </trkpt>
      <trkpt lat="59.010890074952" lon="17.850338572385">
        <ele>5.8</ele>
        <time>2016-04-10T15:03:03Z</time>
      </trkpt>
      <trkpt lat="59.011019240031" lon="17.850281659284">
        <ele>4.4</ele>
        <time>2016-04-10T15:03:04Z</time>
      </trkpt>
      <trkpt lat="59.011138263011" lon="17.85023170316">
        <ele>2.8</ele>
        <time>2016-04-10T15:03:05Z</time>
      </trkpt>
      <trkpt lat="59.011256447801" lon="17.850186105624">
        <ele>1.4</ele>
        <time>2016-04-10T15:03:06Z</time>
      </trkpt>
      <trkpt lat="59.011375219324" lon="17.850155176413">
        <ele>0</ele>
        <time>2016-04-10T15:03:07Z</time>
      </trkpt>
      <trkpt lat="59.011490721906" lon="17.850133132016">
        <ele>0</ele>
        <time>2016-04-10T15:03:08Z</time>
      </trkpt>
      <trkpt lat="59.011601530624" lon="17.850121145899">
        <ele>0</ele>
        <time>2016-04-10T15:03:09Z</time>
      </trkpt>
      <trkpt lat="59.011711417333" lon="17.850116787311">
        <ele>0</ele>
        <time>2016-04-10T15:03:10Z</time>
      </trkpt>
      <trkpt lat="59.012231514228" lon="17.850088121213">
        <ele>0</ele>
        <time>2016-04-10T15:03:15Z</time>
      </trkpt>
      <trkpt lat="59.01285244538" lon="17.850029531732">
        <ele>0</ele>
        <time>2016-04-10T15:03:21Z</time>
      </trkpt>
      <trkpt lat="59.012950765067" lon="17.850029364094">
        <ele>0</ele>
        <time>2016-04-10T15:03:22Z</time>
      </trkpt>
      <trkpt lat="59.013245975585" lon="17.850058616925">
        <ele>0</ele>
        <time>2016-04-10T15:03:25Z</time>
      </trkpt>
      <trkpt lat="59.013346223109" lon="17.850062304961">
        <ele>0</ele>
        <time>2016-04-10T15:03:26Z</time>
      </trkpt>
      <trkpt lat="59.013451080678" lon="17.850048223369">
        <ele>0</ele>
        <time>2016-04-10T15:03:27Z</time>
      </trkpt>
      <trkpt lat="59.013548059261" lon="17.850022574755">
        <ele>0</ele>
        <time>2016-04-10T15:03:28Z</time>
      </trkpt>
      <trkpt lat="59.013644199654" lon="17.849989382431">
        <ele>0</ele>
        <time>2016-04-10T15:03:29Z</time>
      </trkpt>
      <trkpt lat="59.013888867315" lon="17.849876226781">
        <ele>0</ele>
        <time>2016-04-10T15:03:32Z</time>
      </trkpt>
      <trkpt lat="59.014140659591" lon="17.8495829441">
        <ele>0</ele>
        <time>2016-04-10T15:03:36Z</time>
      </trkpt>
      <trkpt lat="59.014202182737" lon="17.84952594718">
        <ele>0</ele>
        <time>2016-04-10T15:03:37Z</time>
      </trkpt>
      <trkpt lat="59.014261861865" lon="17.849464340215">
        <ele>0</ele>
        <time>2016-04-10T15:03:38Z</time>
      </trkpt>
      <trkpt lat="59.014321457174" lon="17.849406421286">
        <ele>0.4</ele>
        <time>2016-04-10T15:03:39Z</time>
      </trkpt>
      <trkpt lat="59.014383147958" lon="17.849353699135">
        <ele>0.8</ele>
        <time>2016-04-10T15:03:40Z</time>
      </trkpt>
      <trkpt lat="59.014445928389" lon="17.849307011952">
        <ele>1.2</ele>
        <time>2016-04-10T15:03:41Z</time>
      </trkpt>
      <trkpt lat="59.014636029881" lon="17.849178601244">
        <ele>1.6</ele>
        <time>2016-04-10T15:03:44Z</time>
      </trkpt>
      <trkpt lat="59.014699564683" lon="17.849148007309">
        <ele>2.2</ele>
        <time>2016-04-10T15:03:45Z</time>
      </trkpt>
      <trkpt lat="59.014765278779" lon="17.84912445417">
        <ele>2.6</ele>
        <time>2016-04-10T15:03:46Z</time>
      </trkpt>
      <trkpt lat="59.01482638283" lon="17.849092183855">
        <ele>3</ele>
        <time>2016-04-10T15:03:47Z</time>
      </trkpt>
      <trkpt lat="59.01488589432" lon="17.849068127802">
        <ele>3.4</ele>
        <time>2016-04-10T15:03:48Z</time>
      </trkpt>
      <trkpt lat="59.015014221209" lon="17.84899537291">
        <ele>4.4</ele>
        <time>2016-04-10T15:03:50Z</time>
      </trkpt>
      <trkpt lat="59.015075660536" lon="17.848948518089">
        <ele>4.8</ele>
        <time>2016-04-10T15:03:51Z</time>
      </trkpt>
      <trkpt lat="59.01513986589" lon="17.848895879757">
        <ele>5.2</ele>
        <time>2016-04-10T15:03:52Z</time>
      </trkpt>
      <trkpt lat="59.015205915262" lon="17.848831255308">
        <ele>5.8</ele>
        <time>2016-04-10T15:03:53Z</time>
      </trkpt>
      <trkpt lat="59.015343629879" lon="17.848688343913">
        <ele>5.2</ele>
        <time>2016-04-10T15:03:55Z</time>
      </trkpt>
      <trkpt lat="59.015415965676" lon="17.848610559881">
        <ele>4.8</ele>
        <time>2016-04-10T15:03:56Z</time>
      </trkpt>
      <trkpt lat="59.0154910675" lon="17.848535877152">
        <ele>4.4</ele>
        <time>2016-04-10T15:03:57Z</time>
      </trkpt>
      <trkpt lat="59.015562900383" lon="17.848467564667">
        <ele>4</ele>
        <time>2016-04-10T15:03:58Z</time>
      </trkpt>
      <trkpt lat="59.015635990551" lon="17.848390535006">
        <ele>3.6</ele>
        <time>2016-04-10T15:03:59Z</time>
      </trkpt>
      <trkpt lat="59.016154830161" lon="17.847926093927">
        <ele>3.6</ele>
        <time>2016-04-10T15:04:06Z</time>
      </trkpt>
      <trkpt lat="59.016552299859" lon="17.8475545243">
        <ele>3.6</ele>
        <time>2016-04-10T15:04:12Z</time>
      </trkpt>
      <trkpt lat="59.016940968562" lon="17.847130903074">
        <ele>3.6</ele>
        <time>2016-04-10T15:04:19Z</time>
      </trkpt>
      <trkpt lat="59.017018417318" lon="17.847036103785">
        <ele>4</ele>
        <time>2016-04-10T15:04:21Z</time>
      </trkpt>
      <trkpt lat="59.017054710945" lon="17.846989668059">
        <ele>4.4</ele>
        <time>2016-04-10T15:04:22Z</time>
      </trkpt>
      <trkpt lat="59.017724676212" lon="17.846101605754">
        <ele>12.2</ele>
        <time>2016-04-10T15:04:52Z</time>
      </trkpt>
      <trkpt lat="59.017755773061" lon="17.846048464508">
        <ele>12.6</ele>
        <time>2016-04-10T15:04:53Z</time>
      </trkpt>
      <trkpt lat="59.01781033923" lon="17.845981074032">
        <ele>12.6</ele>
        <time>2016-04-10T15:04:55Z</time>
      </trkpt>
      <trkpt lat="59.017842441907" lon="17.845940589455">
        <ele>12.6</ele>
        <time>2016-04-10T15:04:56Z</time>
      </trkpt>
      <trkpt lat="59.01792768583" lon="17.84584042575">
        <ele>12.6</ele>
        <time>2016-04-10T15:04:58Z</time>
      </trkpt>
      <trkpt lat="59.018031872847" lon="17.845728862661">
        <ele>12.6</ele>
        <time>2016-04-10T15:05:00Z</time>
      </trkpt>
      <trkpt lat="59.018149722361" lon="17.845606151645">
        <ele>12.6</ele>
        <time>2016-04-10T15:05:02Z</time>
      </trkpt>
      <trkpt lat="59.018342086966" lon="17.845432478677">
        <ele>12.6</ele>
        <time>2016-04-10T15:05:05Z</time>
      </trkpt>
      <trkpt lat="59.018409393623" lon="17.845379253612">
        <ele>12.2</ele>
        <time>2016-04-10T15:05:06Z</time>
      </trkpt>
      <trkpt lat="59.018473515158" lon="17.845330470954">
        <ele>11.8</ele>
        <time>2016-04-10T15:05:07Z</time>
      </trkpt>
      <trkpt lat="59.018532775191" lon="17.845282275029">
        <ele>11.2</ele>
        <time>2016-04-10T15:05:08Z</time>
      </trkpt>
      <trkpt lat="59.018598908382" lon="17.845234498199">
        <ele>10.8</ele>
        <time>2016-04-10T15:05:09Z</time>
      </trkpt>
      <trkpt lat="59.018670741265" lon="17.845176914546">
        <ele>10.4</ele>
        <time>2016-04-10T15:05:10Z</time>
      </trkpt>
      <trkpt lat="59.018733018782" lon="17.845122767472">
        <ele>10.4</ele>
        <time>2016-04-10T15:05:11Z</time>
      </trkpt>
      <trkpt lat="59.019082460193" lon="17.844808278584">
        <ele>10.4</ele>
        <time>2016-04-10T15:05:16Z</time>
      </trkpt>
      <trkpt lat="59.019554025887" lon="17.84430989081">
        <ele>10.4</ele>
        <time>2016-04-10T15:05:23Z</time>
      </trkpt>
      <trkpt lat="59.020014276016" lon="17.843809575199">
        <ele>10.4</ele>
        <time>2016-04-10T15:05:30Z</time>
      </trkpt>
      <trkpt lat="59.0202436048" lon="17.843485447126">
        <ele>10.8</ele>
        <time>2016-04-10T15:05:34Z</time>
      </trkpt>
      <trkpt lat="59.020298673883" lon="17.843418140469">
        <ele>11.2</ele>
        <time>2016-04-10T15:05:35Z</time>
      </trkpt>
      <trkpt lat="59.020346785989" lon="17.843360556816">
        <ele>11.8</ele>
        <time>2016-04-10T15:05:36Z</time>
      </trkpt>
      <trkpt lat="59.020392048249" lon="17.843301045326">
        <ele>12.2</ele>
        <time>2016-04-10T15:05:37Z</time>
      </trkpt>
      <trkpt lat="59.02043806488" lon="17.843253100858">
        <ele>12.6</ele>
        <time>2016-04-10T15:05:38Z</time>
      </trkpt>
      <trkpt lat="59.020526829201" lon="17.843169533315">
        <ele>12.6</ele>
        <time>2016-04-10T15:05:40Z</time>
      </trkpt>
      <trkpt lat="59.020672338985" lon="17.843025448454">
        <ele>13</ele>
        <time>2016-04-10T15:05:43Z</time>
      </trkpt>
      <trkpt lat="59.020725647869" lon="17.842978677452">
        <ele>13.4</ele>
        <time>2016-04-10T15:05:44Z</time>
      </trkpt>
      <trkpt lat="59.020773676156" lon="17.842942886739">
        <ele>13.8</ele>
        <time>2016-04-10T15:05:45Z</time>
      </trkpt>
      <trkpt lat="59.020832097999" lon="17.842884716353">
        <ele>14.2</ele>
        <time>2016-04-10T15:05:46Z</time>
      </trkpt>
      <trkpt lat="59.020886328892" lon="17.84284222012">
        <ele>14.8</ele>
        <time>2016-04-10T15:05:47Z</time>
      </trkpt>
      <trkpt lat="59.020937877577" lon="17.842789246512">
        <ele>14.8</ele>
        <time>2016-04-10T15:05:48Z</time>
      </trkpt>
      <trkpt lat="59.021115490038" lon="17.842629571317">
        <ele>14.8</ele>
        <time>2016-04-10T15:05:51Z</time>
      </trkpt>
      <trkpt lat="59.021239877434" lon="17.842508033767">
        <ele>14.8</ele>
        <time>2016-04-10T15:05:53Z</time>
      </trkpt>
      <trkpt lat="59.021421764664" lon="17.842200585675">
        <ele>14.8</ele>
        <time>2016-04-10T15:05:56Z</time>
      </trkpt>
      <trkpt lat="59.021517402143" lon="17.841967736493">
        <ele>14.8</ele>
        <time>2016-04-10T15:05:58Z</time>
      </trkpt>
      <trkpt lat="59.021561323299" lon="17.841844103468">
        <ele>14.2</ele>
        <time>2016-04-10T15:05:59Z</time>
      </trkpt>
      <trkpt lat="59.021612620527" lon="17.841715944217">
        <ele>13.8</ele>
        <time>2016-04-10T15:06:00Z</time>
      </trkpt>
      <trkpt lat="59.021667354334" lon="17.841599687264">
        <ele>13.4</ele>
        <time>2016-04-10T15:06:01Z</time>
      </trkpt>
      <trkpt lat="59.021722758693" lon="17.841489716736">
        <ele>13</ele>
        <time>2016-04-10T15:06:02Z</time>
      </trkpt>
      <trkpt lat="59.021780593803" lon="17.841384691529">
        <ele>12.6</ele>
        <time>2016-04-10T15:06:03Z</time>
      </trkpt>
      <trkpt lat="59.021962816309" lon="17.841077578713">
        <ele>12.6</ele>
        <time>2016-04-10T15:06:06Z</time>
      </trkpt>
      <trkpt lat="59.022073960303" lon="17.840855626001">
        <ele>12.6</ele>
        <time>2016-04-10T15:06:08Z</time>
      </trkpt>
      <trkpt lat="59.022150319412" lon="17.840597631119">
        <ele>12.6</ele>
        <time>2016-04-10T15:06:10Z</time>
      </trkpt>
      <trkpt lat="59.022176051845" lon="17.840149786202">
        <ele>12.6</ele>
        <time>2016-04-10T15:06:13Z</time>
      </trkpt>
      <trkpt lat="59.022129364662" lon="17.839761452775">
        <ele>13</ele>
        <time>2016-04-10T15:06:16Z</time>
      </trkpt>
      <trkpt lat="59.022105727704" lon="17.839652152799">
        <ele>13.6</ele>
        <time>2016-04-10T15:06:17Z</time>
      </trkpt>
      <trkpt lat="59.022083850945" lon="17.839528771231">
        <ele>14</ele>
        <time>2016-04-10T15:06:18Z</time>
      </trkpt>
      <trkpt lat="59.022074044122" lon="17.83939390646">
        <ele>14.8</ele>
        <time>2016-04-10T15:06:19Z</time>
      </trkpt>
      <trkpt lat="59.022068092973" lon="17.839121410891">
        <ele>14.8</ele>
        <time>2016-04-10T15:06:21Z</time>
      </trkpt>
      <trkpt lat="59.022126430997" lon="17.838693095801">
        <ele>14.8</ele>
        <time>2016-04-10T15:06:24Z</time>
      </trkpt>
      <trkpt lat="59.022193821473" lon="17.838406602459">
        <ele>14.8</ele>
        <time>2016-04-10T15:06:26Z</time>
      </trkpt>
      <trkpt lat="59.02231896324" lon="17.837993793884">
        <ele>14.8</ele>
        <time>2016-04-10T15:06:29Z</time>
      </trkpt>
      <trkpt lat="59.022515351157" lon="17.837354506371">
        <ele>14.8</ele>
        <time>2016-04-10T15:06:34Z</time>
      </trkpt>
      <trkpt lat="59.022696651654" lon="17.836891238758">
        <ele>15.4</ele>
        <time>2016-04-10T15:06:39Z</time>
      </trkpt>
      <trkpt lat="59.022730095435" lon="17.836813035631">
        <ele>15.8</ele>
        <time>2016-04-10T15:06:40Z</time>
      </trkpt>
      <trkpt lat="59.022759683542" lon="17.836735000142">
        <ele>16.4</ele>
        <time>2016-04-10T15:06:41Z</time>
      </trkpt>
      <trkpt lat="59.022789942201" lon="17.836663502535">
        <ele>16.8</ele>
        <time>2016-04-10T15:06:42Z</time>
      </trkpt>
      <trkpt lat="59.022824475629" lon="17.836593932765">
        <ele>17.4</ele>
        <time>2016-04-10T15:06:43Z</time>
      </trkpt>
      <trkpt lat="59.022851884442" lon="17.836525704099">
        <ele>18.2</ele>
        <time>2016-04-10T15:06:44Z</time>
      </trkpt>
      <trkpt lat="59.022882897472" lon="17.8364568887">
        <ele>18.6</ele>
        <time>2016-04-10T15:06:45Z</time>
      </trkpt>
      <trkpt lat="59.022914581054" lon="17.83637809884">
        <ele>19.2</ele>
        <time>2016-04-10T15:06:46Z</time>
      </trkpt>
      <trkpt lat="59.022947270464" lon="17.836297967876">
        <ele>19.6</ele>
        <time>2016-04-10T15:06:47Z</time>
      </trkpt>
      <trkpt lat="59.022978451132" lon="17.83619034428">
        <ele>19.6</ele>
        <time>2016-04-10T15:06:48Z</time>
      </trkpt>
      <trkpt lat="59.023057743906" lon="17.83599420782">
        <ele>19.6</ele>
        <time>2016-04-10T15:06:50Z</time>
      </trkpt>
      <trkpt lat="59.023175090506" lon="17.835697907655">
        <ele>19.6</ele>
        <time>2016-04-10T15:06:53Z</time>
      </trkpt>
      <trkpt lat="59.023240050231" lon="17.835489282164">
        <ele>19.6</ele>
        <time>2016-04-10T15:06:55Z</time>
      </trkpt>
      <trkpt lat="59.023278606971" lon="17.835396159255">
        <ele>19.6</ele>
        <time>2016-04-10T15:06:56Z</time>
      </trkpt>
      <trkpt lat="59.023435097044" lon="17.835010675674">
        <ele>19.6</ele>
        <time>2016-04-10T15:07:00Z</time>
      </trkpt>
      <trkpt lat="59.023512964895" lon="17.834810180626">
        <ele>19.6</ele>
        <time>2016-04-10T15:07:02Z</time>
      </trkpt>
      <trkpt lat="59.023646069467" lon="17.834504911828">
        <ele>19.6</ele>
        <time>2016-04-10T15:07:05Z</time>
      </trkpt>
      <trkpt lat="59.023740868756" lon="17.834282791478">
        <ele>19.6</ele>
        <time>2016-04-10T15:07:07Z</time>
      </trkpt>
      <trkpt lat="59.023839775176" lon="17.834066287001">
        <ele>19.6</ele>
        <time>2016-04-10T15:07:09Z</time>
      </trkpt>
      <trkpt lat="59.023945470935" lon="17.833865540496">
        <ele>19.6</ele>
        <time>2016-04-10T15:07:11Z</time>
      </trkpt>
      <trkpt lat="59.024109169442" lon="17.833590697995">
        <ele>19.6</ele>
        <time>2016-04-10T15:07:14Z</time>
      </trkpt>
      <trkpt lat="59.024348807963" lon="17.833214685961">
        <ele>20</ele>
        <time>2016-04-10T15:07:19Z</time>
      </trkpt>
      <trkpt lat="59.0243926453" lon="17.833146373476">
        <ele>20.4</ele>
        <time>2016-04-10T15:07:20Z</time>
      </trkpt>
      <trkpt lat="59.02443874575" lon="17.833077809534">
        <ele>20.8</ele>
        <time>2016-04-10T15:07:21Z</time>
      </trkpt>
      <trkpt lat="59.024487109313" lon="17.833019303872">
        <ele>21.4</ele>
        <time>2016-04-10T15:07:22Z</time>
      </trkpt>
      <trkpt lat="59.024537316894" lon="17.832959792382">
        <ele>21.8</ele>
        <time>2016-04-10T15:07:23Z</time>
      </trkpt>
      <trkpt lat="59.024700428668" lon="17.832813947322">
        <ele>21.8</ele>
        <time>2016-04-10T15:07:26Z</time>
      </trkpt>
      <trkpt lat="59.02487544274" lon="17.832667515529">
        <ele>22.2</ele>
        <time>2016-04-10T15:07:29Z</time>
      </trkpt>
      <trkpt lat="59.024933864583" lon="17.832620241613">
        <ele>22.6</ele>
        <time>2016-04-10T15:07:30Z</time>
      </trkpt>
      <trkpt lat="59.024992118788" lon="17.832576823371">
        <ele>23</ele>
        <time>2016-04-10T15:07:31Z</time>
      </trkpt>
      <trkpt lat="59.025049450984" lon="17.832532231663">
        <ele>23.4</ele>
        <time>2016-04-10T15:07:32Z</time>
      </trkpt>
      <trkpt lat="59.025107789008" lon="17.832482275539">
        <ele>23.8</ele>
        <time>2016-04-10T15:07:33Z</time>
      </trkpt>
      <trkpt lat="59.02548061592" lon="17.832219922069">
        <ele>23.8</ele>
        <time>2016-04-10T15:07:39Z</time>
      </trkpt>
      <trkpt lat="59.025969532147" lon="17.83192144261">
        <ele>23.8</ele>
        <time>2016-04-10T15:07:47Z</time>
      </trkpt>
      <trkpt lat="59.026424753136" lon="17.831684989211">
        <ele>23.8</ele>
        <time>2016-04-10T15:07:54Z</time>
      </trkpt>
      <trkpt lat="59.026920877797" lon="17.831520033419">
        <ele>23.8</ele>
        <time>2016-04-10T15:08:01Z</time>
      </trkpt>
      <trkpt lat="59.027497133422" lon="17.831393969643">
        <ele>23.8</ele>
        <time>2016-04-10T15:08:09Z</time>
      </trkpt>
      <trkpt lat="59.027919329725" lon="17.831258266682">
        <ele>23.8</ele>
        <time>2016-04-10T15:08:15Z</time>
      </trkpt>
      <trkpt lat="59.028410173789" lon="17.831088030293">
        <ele>24.2</ele>
        <time>2016-04-10T15:08:22Z</time>
      </trkpt>
      <trkpt lat="59.028475720247" lon="17.831065985896">
        <ele>25</ele>
        <time>2016-04-10T15:08:23Z</time>
      </trkpt>
      <trkpt lat="59.028538919773" lon="17.831044779689">
        <ele>25.6</ele>
        <time>2016-04-10T15:08:24Z</time>
      </trkpt>
      <trkpt lat="59.028601364928" lon="17.831012677012">
        <ele>26</ele>
        <time>2016-04-10T15:08:25Z</time>
      </trkpt>
      <trkpt lat="59.028786521099" lon="17.830877812241">
        <ele>26</ele>
        <time>2016-04-10T15:08:28Z</time>
      </trkpt>
      <trkpt lat="59.028902442776" lon="17.830758370166">
        <ele>26</ele>
        <time>2016-04-10T15:08:30Z</time>
      </trkpt>
      <trkpt lat="59.029048204017" lon="17.830514205419">
        <ele>26</ele>
        <time>2016-04-10T15:08:33Z</time>
      </trkpt>
      <trkpt lat="59.029122970565" lon="17.830314129466">
        <ele>26.4</ele>
        <time>2016-04-10T15:08:35Z</time>
      </trkpt>
      <trkpt lat="59.029148283903" lon="17.830201644368">
        <ele>27</ele>
        <time>2016-04-10T15:08:36Z</time>
      </trkpt>
      <trkpt lat="59.029176363268" lon="17.830090416555">
        <ele>27.4</ele>
        <time>2016-04-10T15:08:37Z</time>
      </trkpt>
      <trkpt lat="59.029206202832" lon="17.829979524018">
        <ele>28</ele>
        <time>2016-04-10T15:08:38Z</time>
      </trkpt>
      <trkpt lat="59.029234198378" lon="17.82986620073">
        <ele>28.4</ele>
        <time>2016-04-10T15:08:39Z</time>
      </trkpt>
      <trkpt lat="59.029293290773" lon="17.829655898859">
        <ele>28.4</ele>
        <time>2016-04-10T15:08:41Z</time>
      </trkpt>
      <trkpt lat="59.029346432019" lon="17.829593956618">
        <ele>28.4</ele>
        <time>2016-04-10T15:08:42Z</time>
      </trkpt>
      <trkpt lat="59.029478698401" lon="17.829615749558">
        <ele>28.4</ele>
        <time>2016-04-10T15:08:44Z</time>
      </trkpt>
      <trkpt lat="59.029551118017" lon="17.82964743314">
        <ele>28.4</ele>
        <time>2016-04-10T15:08:45Z</time>
      </trkpt>
      <trkpt lat="59.029787655235" lon="17.829737287108">
        <ele>28</ele>
        <time>2016-04-10T15:08:48Z</time>
      </trkpt>
      <trkpt lat="59.029862840878" lon="17.82976897069">
        <ele>27.6</ele>
        <time>2016-04-10T15:08:49Z</time>
      </trkpt>
      <trkpt lat="59.02994313948" lon="17.829798391159">
        <ele>27.2</ele>
        <time>2016-04-10T15:08:50Z</time>
      </trkpt>
      <trkpt lat="59.03001857658" lon="17.829827895447">
        <ele>26.8</ele>
        <time>2016-04-10T15:08:51Z</time>
      </trkpt>
      <trkpt lat="59.030094768051" lon="17.829847425274">
        <ele>26.4</ele>
        <time>2016-04-10T15:08:52Z</time>
      </trkpt>
      <trkpt lat="59.030320492618" lon="17.82992403584">
        <ele>26.4</ele>
        <time>2016-04-10T15:08:55Z</time>
      </trkpt>
      <trkpt lat="59.030833464898" lon="17.830101313025">
        <ele>26.8</ele>
        <time>2016-04-10T15:09:02Z</time>
      </trkpt>
      <trkpt lat="59.030904375772" lon="17.830133164245">
        <ele>27.2</ele>
        <time>2016-04-10T15:09:03Z</time>
      </trkpt>
      <trkpt lat="59.030979309958" lon="17.830168452044">
        <ele>27.6</ele>
        <time>2016-04-10T15:09:04Z</time>
      </trkpt>
      <trkpt lat="59.03105122666" lon="17.830202817834">
        <ele>28</ele>
        <time>2016-04-10T15:09:05Z</time>
      </trkpt>
      <trkpt lat="59.031124400647" lon="17.830236429253">
        <ele>28.4</ele>
        <time>2016-04-10T15:09:06Z</time>
      </trkpt>
      <trkpt lat="59.031478871198" lon="17.830483192389">
        <ele>28.4</ele>
        <time>2016-04-10T15:09:11Z</time>
      </trkpt>
      <trkpt lat="59.032051690244" lon="17.830894073127">
        <ele>28.4</ele>
        <time>2016-04-10T15:09:19Z</time>
      </trkpt>
      <trkpt lat="59.032428959563" lon="17.831297242517">
        <ele>28.4</ele>
        <time>2016-04-10T15:09:25Z</time>
      </trkpt>
      <trkpt lat="59.032560052479" lon="17.831404614656">
        <ele>28.4</ele>
        <time>2016-04-10T15:09:27Z</time>
      </trkpt>
      <trkpt lat="59.032706232815" lon="17.831408721787">
        <ele>28.4</ele>
        <time>2016-04-10T15:09:29Z</time>
      </trkpt>
      <trkpt lat="59.032919384532" lon="17.831205544531">
        <ele>28.4</ele>
        <time>2016-04-10T15:09:32Z</time>
      </trkpt>
      <trkpt lat="59.033088195998" lon="17.831124240101">
        <ele>28.4</ele>
        <time>2016-04-10T15:09:34Z</time>
      </trkpt>
      <trkpt lat="59.033181235088" lon="17.831134968933">
        <ele>28.4</ele>
        <time>2016-04-10T15:09:35Z</time>
      </trkpt>
      <trkpt lat="59.033526653187" lon="17.831206550359">
        <ele>28</ele>
        <time>2016-04-10T15:09:39Z</time>
      </trkpt>
      <trkpt lat="59.033616255698" lon="17.831234462086">
        <ele>27.6</ele>
        <time>2016-04-10T15:09:40Z</time>
      </trkpt>
      <trkpt lat="59.033704014191" lon="17.831260362157">
        <ele>27.2</ele>
        <time>2016-04-10T15:09:41Z</time>
      </trkpt>
      <trkpt lat="59.033797556195" lon="17.831296320508">
        <ele>26.8</ele>
        <time>2016-04-10T15:09:42Z</time>
      </trkpt>
      <trkpt lat="59.033888667448" lon="17.831329931927">
        <ele>26.2</ele>
        <time>2016-04-10T15:09:43Z</time>
      </trkpt>
      <trkpt lat="59.033983718194" lon="17.831369829771">
        <ele>25.8</ele>
        <time>2016-04-10T15:09:44Z</time>
      </trkpt>
      <trkpt lat="59.034080110044" lon="17.83140344119">
        <ele>25.2</ele>
        <time>2016-04-10T15:09:45Z</time>
      </trkpt>
      <trkpt lat="59.034181531034" lon="17.831432526383">
        <ele>24.8</ele>
        <time>2016-04-10T15:09:46Z</time>
      </trkpt>
      <trkpt lat="59.034287729707" lon="17.831455911884">
        <ele>24.2</ele>
        <time>2016-04-10T15:09:47Z</time>
      </trkpt>
      <trkpt lat="59.034395688579" lon="17.831474016788">
        <ele>23.6</ele>
        <time>2016-04-10T15:09:48Z</time>
      </trkpt>
      <trkpt lat="59.03450456946" lon="17.831490193855">
        <ele>22.8</ele>
        <time>2016-04-10T15:09:49Z</time>
      </trkpt>
      <trkpt lat="59.03462191606" lon="17.831502179972">
        <ele>22.2</ele>
        <time>2016-04-10T15:09:50Z</time>
      </trkpt>
      <trkpt lat="59.034734652615" lon="17.831505365094">
        <ele>21.6</ele>
        <time>2016-04-10T15:09:51Z</time>
      </trkpt>
      <trkpt lat="59.034846131885" lon="17.831495558271">
        <ele>21</ele>
        <time>2016-04-10T15:09:52Z</time>
      </trkpt>
      <trkpt lat="59.034965825417" lon="17.831463623232">
        <ele>20.4</ele>
        <time>2016-04-10T15:09:53Z</time>
      </trkpt>
      <trkpt lat="59.035084429302" lon="17.831421294637">
        <ele>19.6</ele>
        <time>2016-04-10T15:09:54Z</time>
      </trkpt>
      <trkpt lat="59.035194567468" lon="17.831389359598">
        <ele>18.6</ele>
        <time>2016-04-10T15:09:55Z</time>
      </trkpt>
      <trkpt lat="59.03531258462" lon="17.831330099565">
        <ele>17.8</ele>
        <time>2016-04-10T15:09:56Z</time>
      </trkpt>
      <trkpt lat="59.035429595944" lon="17.831256925578">
        <ele>16.8</ele>
        <time>2016-04-10T15:09:57Z</time>
      </trkpt>
      <trkpt lat="59.035553648064" lon="17.831170675827">
        <ele>16</ele>
        <time>2016-04-10T15:09:58Z</time>
      </trkpt>
      <trkpt lat="59.035801919942" lon="17.830980322878">
        <ele>15.6</ele>
        <time>2016-04-10T15:10:00Z</time>
      </trkpt>
      <trkpt lat="59.035924044225" lon="17.830886948512">
        <ele>15</ele>
        <time>2016-04-10T15:10:01Z</time>
      </trkpt>
      <trkpt lat="59.036045581775" lon="17.830790137567">
        <ele>13.8</ele>
        <time>2016-04-10T15:10:02Z</time>
      </trkpt>
      <trkpt lat="59.036167286963" lon="17.830697098477">
        <ele>13</ele>
        <time>2016-04-10T15:10:03Z</time>
      </trkpt>
      <trkpt lat="59.03628991416" lon="17.830589223424">
        <ele>12.2</ele>
        <time>2016-04-10T15:10:04Z</time>
      </trkpt>
      <trkpt lat="59.036416983764" lon="17.830487131882">
        <ele>11.4</ele>
        <time>2016-04-10T15:10:05Z</time>
      </trkpt>
      <trkpt lat="59.036540449151" lon="17.830375065879">
        <ele>10.4</ele>
        <time>2016-04-10T15:10:06Z</time>
      </trkpt>
      <trkpt lat="59.036664668909" lon="17.830243972963">
        <ele>9.6</ele>
        <time>2016-04-10T15:10:07Z</time>
      </trkpt>
      <trkpt lat="59.036781680233" lon="17.830090919469">
        <ele>8.8</ele>
        <time>2016-04-10T15:10:08Z</time>
      </trkpt>
      <trkpt lat="59.036893578598" lon="17.829929986989">
        <ele>7.8</ele>
        <time>2016-04-10T15:10:09Z</time>
      </trkpt>
      <trkpt lat="59.0369990229" lon="17.829763773912">
        <ele>6.6</ele>
        <time>2016-04-10T15:10:10Z</time>
      </trkpt>
      <trkpt lat="59.037105137754" lon="17.829592699333">
        <ele>5.6</ele>
        <time>2016-04-10T15:10:11Z</time>
      </trkpt>
      <trkpt lat="59.037205133821" lon="17.829408046076">
        <ele>4.6</ele>
        <time>2016-04-10T15:10:12Z</time>
      </trkpt>
      <trkpt lat="59.037305213707" lon="17.829223476638">
        <ele>3.8</ele>
        <time>2016-04-10T15:10:13Z</time>
      </trkpt>
      <trkpt lat="59.037400935005" lon="17.829037314639">
        <ele>3.2</ele>
        <time>2016-04-10T15:10:14Z</time>
      </trkpt>
      <trkpt lat="59.037494477009" lon="17.828855427409">
        <ele>2.6</ele>
        <time>2016-04-10T15:10:15Z</time>
      </trkpt>
      <trkpt lat="59.037590952678" lon="17.828663230442">
        <ele>2</ele>
        <time>2016-04-10T15:10:16Z</time>
      </trkpt>
      <trkpt lat="59.037683069759" lon="17.828481427031">
        <ele>1.2</ele>
        <time>2016-04-10T15:10:17Z</time>
      </trkpt>
      <trkpt lat="59.037776108849" lon="17.82830800552">
        <ele>0.6</ele>
        <time>2016-04-10T15:10:18Z</time>
      </trkpt>
      <trkpt lat="59.037865962817" lon="17.828133075267">
        <ele>0</ele>
        <time>2016-04-10T15:10:19Z</time>
      </trkpt>
      <trkpt lat="59.037953972767" lon="17.827967616561">
        <ele>0</ele>
        <time>2016-04-10T15:10:20Z</time>
      </trkpt>
      <trkpt lat="59.038206603233" lon="17.8274798738">
        <ele>0</ele>
        <time>2016-04-10T15:10:23Z</time>
      </trkpt>
      <trkpt lat="59.038289332586" lon="17.827317097302">
        <ele>0.2</ele>
        <time>2016-04-10T15:10:24Z</time>
      </trkpt>
      <trkpt lat="59.038374911785" lon="17.82714878875">
        <ele>0.6</ele>
        <time>2016-04-10T15:10:25Z</time>
      </trkpt>
      <trkpt lat="59.038456467672" lon="17.826984084415">
        <ele>1.6</ele>
        <time>2016-04-10T15:10:26Z</time>
      </trkpt>
      <trkpt lat="59.03888159764" lon="17.82613457885">
        <ele>1.6</ele>
        <time>2016-04-10T15:10:31Z</time>
      </trkpt>
      <trkpt lat="59.038970278142" lon="17.825965180651">
        <ele>1</ele>
        <time>2016-04-10T15:10:32Z</time>
      </trkpt>
      <trkpt lat="59.039053845685" lon="17.825799051393">
        <ele>0.6</ele>
        <time>2016-04-10T15:10:33Z</time>
      </trkpt>
      <trkpt lat="59.039139257246" lon="17.82563082666">
        <ele>0</ele>
        <time>2016-04-10T15:10:34Z</time>
      </trkpt>
      <trkpt lat="59.039218633839" lon="17.825465787049">
        <ele>0</ele>
        <time>2016-04-10T15:10:35Z</time>
      </trkpt>
      <trkpt lat="59.039303458667" lon="17.825304351655">
        <ele>0</ele>
        <time>2016-04-10T15:10:36Z</time>
      </trkpt>
      <trkpt lat="59.039545611758" lon="17.824844352983">
        <ele>0</ele>
        <time>2016-04-10T15:10:39Z</time>
      </trkpt>
      <trkpt lat="59.039836966602" lon="17.824306318822">
        <ele>0</ele>
        <time>2016-04-10T15:10:43Z</time>
      </trkpt>
      <trkpt lat="59.039901842508" lon="17.824185200367">
        <ele>0.2</ele>
        <time>2016-04-10T15:10:44Z</time>
      </trkpt>
      <trkpt lat="59.039968310975" lon="17.82406173498">
        <ele>0.6</ele>
        <time>2016-04-10T15:10:45Z</time>
      </trkpt>
      <trkpt lat="59.040037294012" lon="17.823945561846">
        <ele>1.4</ele>
        <time>2016-04-10T15:10:46Z</time>
      </trkpt>
      <trkpt lat="59.040108121067" lon="17.823800974071">
        <ele>2</ele>
        <time>2016-04-10T15:10:47Z</time>
      </trkpt>
      <trkpt lat="59.040175260086" lon="17.823673485372">
        <ele>2.6</ele>
        <time>2016-04-10T15:10:48Z</time>
      </trkpt>
      <trkpt lat="59.040243069657" lon="17.823552199279">
        <ele>3.4</ele>
        <time>2016-04-10T15:10:49Z</time>
      </trkpt>
      <trkpt lat="59.040313812893" lon="17.823430494091">
        <ele>4</ele>
        <time>2016-04-10T15:10:50Z</time>
      </trkpt>
      <trkpt lat="59.040722765794" lon="17.822937135457">
        <ele>4</ele>
        <time>2016-04-10T15:10:55Z</time>
      </trkpt>
      <trkpt lat="59.041220063921" lon="17.822508233634">
        <ele>4</ele>
        <time>2016-04-10T15:11:01Z</time>
      </trkpt>
      <trkpt lat="59.041686097561" lon="17.822253423874">
        <ele>4</ele>
        <time>2016-04-10T15:11:06Z</time>
      </trkpt>
      <trkpt lat="59.042277189149" lon="17.821983610513">
        <ele>4</ele>
        <time>2016-04-10T15:11:12Z</time>
      </trkpt>
      <trkpt lat="59.042373245723" lon="17.821939605538">
        <ele>4</ele>
        <time>2016-04-10T15:11:13Z</time>
      </trkpt>
      <trkpt lat="59.042680526177" lon="17.821794095754">
        <ele>3.6</ele>
        <time>2016-04-10T15:11:16Z</time>
      </trkpt>
      <trkpt lat="59.042786557212" lon="17.82174078687">
        <ele>3</ele>
        <time>2016-04-10T15:11:17Z</time>
      </trkpt>
      <trkpt lat="59.042901473061" lon="17.821700972845">
        <ele>2.2</ele>
        <time>2016-04-10T15:11:18Z</time>
      </trkpt>
      <trkpt lat="59.043006917363" lon="17.821650932902">
        <ele>1.6</ele>
        <time>2016-04-10T15:11:19Z</time>
      </trkpt>
      <trkpt lat="59.043114624778" lon="17.821601814968">
        <ele>0.8</ele>
        <time>2016-04-10T15:11:20Z</time>
      </trkpt>
      <trkpt lat="59.043219314709" lon="17.821550433921">
        <ele>0</ele>
        <time>2016-04-10T15:11:21Z</time>
      </trkpt>
      <trkpt lat="59.043323585545" lon="17.821501818901">
        <ele>0</ele>
        <time>2016-04-10T15:11:22Z</time>
      </trkpt>
      <trkpt lat="59.043425006535" lon="17.821452114234">
        <ele>0</ele>
        <time>2016-04-10T15:11:23Z</time>
      </trkpt>
      <trkpt lat="59.04352684662" lon="17.82139629078">
        <ele>0</ele>
        <time>2016-04-10T15:11:24Z</time>
      </trkpt>
      <trkpt lat="59.043631788008" lon="17.821343568629">
        <ele>0</ele>
        <time>2016-04-10T15:11:25Z</time>
      </trkpt>
      <trkpt lat="59.043738321957" lon="17.821280872017">
        <ele>0</ele>
        <time>2016-04-10T15:11:26Z</time>
      </trkpt>
      <trkpt lat="59.04403059881" lon="17.821024637334">
        <ele>0</ele>
        <time>2016-04-10T15:11:29Z</time>
      </trkpt>
      <trkpt lat="59.044121290968" lon="17.820916762281">
        <ele>0</ele>
        <time>2016-04-10T15:11:30Z</time>
      </trkpt>
      <trkpt lat="59.044540553606" lon="17.820492386684">
        <ele>0</ele>
        <time>2016-04-10T15:11:35Z</time>
      </trkpt>
      <trkpt lat="59.044623366778" lon="17.820422984552">
        <ele>0</ele>
        <time>2016-04-10T15:11:36Z</time>
      </trkpt>
      <trkpt lat="59.044708275425" lon="17.820350481117">
        <ele>0</ele>
        <time>2016-04-10T15:11:37Z</time>
      </trkpt>
      <trkpt lat="59.044793435529" lon="17.820262135891">
        <ele>0</ele>
        <time>2016-04-10T15:11:38Z</time>
      </trkpt>
      <trkpt lat="59.044865016955" lon="17.820140933617">
        <ele>0</ele>
        <time>2016-04-10T15:11:39Z</time>
      </trkpt>
      <trkpt lat="59.044920337495" lon="17.819988047761">
        <ele>0</ele>
        <time>2016-04-10T15:11:40Z</time>
      </trkpt>
      <trkpt lat="59.045042545597" lon="17.819444481546">
        <ele>0</ele>
        <time>2016-04-10T15:11:43Z</time>
      </trkpt>
      <trkpt lat="59.045119239982" lon="17.819086155321">
        <ele>0</ele>
        <time>2016-04-10T15:11:45Z</time>
      </trkpt>
      <trkpt lat="59.04516466988" lon="17.818915164561">
        <ele>0</ele>
        <time>2016-04-10T15:11:46Z</time>
      </trkpt>
      <trkpt lat="59.045205908828" lon="17.818746101638">
        <ele>0</ele>
        <time>2016-04-10T15:11:47Z</time>
      </trkpt>
      <trkpt lat="59.045242370093" lon="17.818571339023">
        <ele>0</ele>
        <time>2016-04-10T15:11:48Z</time>
      </trkpt>
      <trkpt lat="59.045259720626" lon="17.818370676337">
        <ele>0</ele>
        <time>2016-04-10T15:11:49Z</time>
      </trkpt>
      <trkpt lat="59.045226947397" lon="17.81776692808">
        <ele>0</ele>
        <time>2016-04-10T15:11:52Z</time>
      </trkpt>
      <trkpt lat="59.045202891344" lon="17.817571965086">
        <ele>0</ele>
        <time>2016-04-10T15:11:53Z</time>
      </trkpt>
      <trkpt lat="59.045098536689" lon="17.816587510931">
        <ele>0</ele>
        <time>2016-04-10T15:11:58Z</time>
      </trkpt>
      <trkpt lat="59.045006335789" lon="17.816024833984">
        <ele>0</ele>
        <time>2016-04-10T15:12:01Z</time>
      </trkpt>
      <trkpt lat="59.044942214254" lon="17.815871361395">
        <ele>0</ele>
        <time>2016-04-10T15:12:02Z</time>
      </trkpt>
      <trkpt lat="59.044756387531" lon="17.815635578548">
        <ele>0</ele>
        <time>2016-04-10T15:12:04Z</time>
      </trkpt>
      <trkpt lat="59.044659660405" lon="17.815538097051">
        <ele>0</ele>
        <time>2016-04-10T15:12:05Z</time>
      </trkpt>
      <trkpt lat="59.044564442021" lon="17.815435670233">
        <ele>0</ele>
        <time>2016-04-10T15:12:06Z</time>
      </trkpt>
      <trkpt lat="59.044474588053" lon="17.815308768267">
        <ele>0</ele>
        <time>2016-04-10T15:12:07Z</time>
      </trkpt>
      <trkpt lat="59.04440443155" lon="17.815142722828">
        <ele>0</ele>
        <time>2016-04-10T15:12:08Z</time>
      </trkpt>
      <trkpt lat="59.044356989996" lon="17.814962260521">
        <ele>0</ele>
        <time>2016-04-10T15:12:09Z</time>
      </trkpt>
      <trkpt lat="59.044309799899" lon="17.814778026359">
        <ele>0</ele>
        <time>2016-04-10T15:12:10Z</time>
      </trkpt>
      <trkpt lat="59.044268393313" lon="17.814578704777">
        <ele>0</ele>
        <time>2016-04-10T15:12:11Z</time>
      </trkpt>
      <trkpt lat="59.044255066092" lon="17.814361865024">
        <ele>0</ele>
        <time>2016-04-10T15:12:12Z</time>
      </trkpt>
      <trkpt lat="59.044248695848" lon="17.814141001959">
        <ele>0</ele>
        <time>2016-04-10T15:12:13Z</time>
      </trkpt>
      <trkpt lat="59.044243582889" lon="17.813906476397">
        <ele>0</ele>
        <time>2016-04-10T15:12:14Z</time>
      </trkpt>
      <trkpt lat="59.044255485187" lon="17.81367153174">
        <ele>0</ele>
        <time>2016-04-10T15:12:15Z</time>
      </trkpt>
      <trkpt lat="59.044272248987" lon="17.813432899047">
        <ele>0</ele>
        <time>2016-04-10T15:12:16Z</time>
      </trkpt>
      <trkpt lat="59.04428876133" lon="17.813190913594">
        <ele>0</ele>
        <time>2016-04-10T15:12:17Z</time>
      </trkpt>
      <trkpt lat="59.044306195682" lon="17.812946581209">
        <ele>0</ele>
        <time>2016-04-10T15:12:18Z</time>
      </trkpt>
      <trkpt lat="59.044314326125" lon="17.812686993766">
        <ele>0</ele>
        <time>2016-04-10T15:12:19Z</time>
      </trkpt>
      <trkpt lat="59.044321786016" lon="17.812444253942">
        <ele>0</ele>
        <time>2016-04-10T15:12:20Z</time>
      </trkpt>
      <trkpt lat="59.044331006106" lon="17.812205034516">
        <ele>0</ele>
        <time>2016-04-10T15:12:21Z</time>
      </trkpt>
      <trkpt lat="59.044340812929" lon="17.811960031579">
        <ele>0</ele>
        <time>2016-04-10T15:12:22Z</time>
      </trkpt>
      <trkpt lat="59.044345422974" lon="17.811715280099">
        <ele>0</ele>
        <time>2016-04-10T15:12:23Z</time>
      </trkpt>
      <trkpt lat="59.044361935317" lon="17.811229213718">
        <ele>0</ele>
        <time>2016-04-10T15:12:25Z</time>
      </trkpt>
      <trkpt lat="59.044371658321" lon="17.810973817225">
        <ele>0</ele>
        <time>2016-04-10T15:12:26Z</time>
      </trkpt>
      <trkpt lat="59.044375011081" lon="17.810735016894">
        <ele>0</ele>
        <time>2016-04-10T15:12:27Z</time>
      </trkpt>
      <trkpt lat="59.044380459316" lon="17.810499904599">
        <ele>0</ele>
        <time>2016-04-10T15:12:28Z</time>
      </trkpt>
      <trkpt lat="59.044385320818" lon="17.810268228883">
        <ele>0</ele>
        <time>2016-04-10T15:12:29Z</time>
      </trkpt>
      <trkpt lat="59.044389176492" lon="17.810047281999">
        <ele>0</ele>
        <time>2016-04-10T15:12:30Z</time>
      </trkpt>
      <trkpt lat="59.044412226717" lon="17.808994180083">
        <ele>0</ele>
        <time>2016-04-10T15:12:35Z</time>
      </trkpt>
      <trkpt lat="59.044421865902" lon="17.808795864329">
        <ele>0</ele>
        <time>2016-04-10T15:12:36Z</time>
      </trkpt>
      <trkpt lat="59.044513731526" lon="17.807879974116">
        <ele>0</ele>
        <time>2016-04-10T15:12:41Z</time>
      </trkpt>
      <trkpt lat="59.044582630744" lon="17.807212104324">
        <ele>0</ele>
        <time>2016-04-10T15:12:45Z</time>
      </trkpt>
      <trkpt lat="59.044605764788" lon="17.807055111337">
        <ele>0</ele>
        <time>2016-04-10T15:12:46Z</time>
      </trkpt>
      <trkpt lat="59.044744233776" lon="17.806859813067">
        <ele>0</ele>
        <time>2016-04-10T15:12:48Z</time>
      </trkpt>
      <trkpt lat="59.044899298926" lon="17.806924772792">
        <ele>0</ele>
        <time>2016-04-10T15:12:50Z</time>
      </trkpt>
      <trkpt lat="59.044969623067" lon="17.806967520482">
        <ele>0</ele>
        <time>2016-04-10T15:12:51Z</time>
      </trkpt>
      <trkpt lat="59.04504061776" lon="17.807008172697">
        <ele>0</ele>
        <time>2016-04-10T15:12:52Z</time>
      </trkpt>
      <trkpt lat="59.045107505322" lon="17.807046645618">
        <ele>0</ele>
        <time>2016-04-10T15:12:53Z</time>
      </trkpt>
      <trkpt lat="59.045170369572" lon="17.80708419653">
        <ele>0</ele>
        <time>2016-04-10T15:12:54Z</time>
      </trkpt>
      <trkpt lat="59.045222840266" lon="17.807107330574">
        <ele>0</ele>
        <time>2016-04-10T15:12:55Z</time>
      </trkpt>
      <trkpt lat="59.045279921005" lon="17.807122585632">
        <ele>0</ele>
        <time>2016-04-10T15:12:56Z</time>
      </trkpt>
      <trkpt lat="59.045343288169" lon="17.807144630029">
        <ele>0</ele>
        <time>2016-04-10T15:12:57Z</time>
      </trkpt>
      <trkpt lat="59.045401626193" lon="17.807176062154">
        <ele>0</ele>
        <time>2016-04-10T15:12:58Z</time>
      </trkpt>
      <trkpt lat="59.04545468362" lon="17.80720238132">
        <ele>0</ele>
        <time>2016-04-10T15:12:59Z</time>
      </trkpt>
      <trkpt lat="59.04551084235" lon="17.807233226712">
        <ele>0</ele>
        <time>2016-04-10T15:13:00Z</time>
      </trkpt>
      <trkpt lat="59.045570521478" lon="17.807250577245">
        <ele>0</ele>
        <time>2016-04-10T15:13:01Z</time>
      </trkpt>
      <trkpt lat="59.045628356588" lon="17.807265161751">
        <ele>0</ele>
        <time>2016-04-10T15:13:02Z</time>
      </trkpt>
      <trkpt lat="59.045678731807" lon="17.807278488972">
        <ele>0</ele>
        <time>2016-04-10T15:13:03Z</time>
      </trkpt>
      <trkpt lat="59.045732208329" lon="17.807288966347">
        <ele>0</ele>
        <time>2016-04-10T15:13:04Z</time>
      </trkpt>
      <trkpt lat="59.045788031783" lon="17.807290642727">
        <ele>0</ele>
        <time>2016-04-10T15:13:05Z</time>
      </trkpt>
      <trkpt lat="59.045849135834" lon="17.807308579993">
        <ele>0</ele>
        <time>2016-04-10T15:13:06Z</time>
      </trkpt>
      <trkpt lat="59.045907222401" lon="17.807324505603">
        <ele>0</ele>
        <time>2016-04-10T15:13:07Z</time>
      </trkpt>
      <trkpt lat="59.04596597952" lon="17.807346047086">
        <ele>0</ele>
        <time>2016-04-10T15:13:08Z</time>
      </trkpt>
      <trkpt lat="59.046199331616" lon="17.807382256894">
        <ele>0</ele>
        <time>2016-04-10T15:13:12Z</time>
      </trkpt>
      <trkpt lat="59.046429666228" lon="17.807398769237">
        <ele>0</ele>
        <time>2016-04-10T15:13:16Z</time>
      </trkpt>
      <trkpt lat="59.046491776107" lon="17.807396757581">
        <ele>0</ele>
        <time>2016-04-10T15:13:17Z</time>
      </trkpt>
      <trkpt lat="59.046551539054" lon="17.80739097407">
        <ele>0</ele>
        <time>2016-04-10T15:13:18Z</time>
      </trkpt>
      <trkpt lat="59.046611888734" lon="17.807388962414">
        <ele>0</ele>
        <time>2016-04-10T15:13:19Z</time>
      </trkpt>
      <trkpt lat="59.046735940854" lon="17.807380580514">
        <ele>0</ele>
        <time>2016-04-10T15:13:21Z</time>
      </trkpt>
      <trkpt lat="59.047231394963" lon="17.807390219699">
        <ele>0</ele>
        <time>2016-04-10T15:13:28Z</time>
      </trkpt>
      <trkpt lat="59.047852326115" lon="17.807383765636">
        <ele>0</ele>
        <time>2016-04-10T15:13:36Z</time>
      </trkpt>
      <trkpt lat="59.047932205622" lon="17.807381334885">
        <ele>0</ele>
        <time>2016-04-10T15:13:37Z</time>
      </trkpt>
      <trkpt lat="59.048008732369" lon="17.807383514179">
        <ele>0</ele>
        <time>2016-04-10T15:13:38Z</time>
      </trkpt>
      <trkpt lat="59.048086097306" lon="17.807382424532">
        <ele>0</ele>
        <time>2016-04-10T15:13:39Z</time>
      </trkpt>
      <trkpt lat="59.048167485555" lon="17.807372869166">
        <ele>0</ele>
        <time>2016-04-10T15:13:40Z</time>
      </trkpt>
      <trkpt lat="59.04825172365" lon="17.807365576913">
        <ele>0</ele>
        <time>2016-04-10T15:13:41Z</time>
      </trkpt>
      <trkpt lat="59.048334620641" lon="17.80734906457">
        <ele>0</ele>
        <time>2016-04-10T15:13:42Z</time>
      </trkpt>
      <trkpt lat="59.048505779039" lon="17.807318638273">
        <ele>0</ele>
        <time>2016-04-10T15:13:44Z</time>
      </trkpt>
      <trkpt lat="59.048679368188" lon="17.807281757913">
        <ele>0</ele>
        <time>2016-04-10T15:13:46Z</time>
      </trkpt>
      <trkpt lat="59.048763941559" lon="17.807262228086">
        <ele>0</ele>
        <time>2016-04-10T15:13:47Z</time>
      </trkpt>
      <trkpt lat="59.048850694224" lon="17.807243704087">
        <ele>0</ele>
        <time>2016-04-10T15:13:48Z</time>
      </trkpt>
      <trkpt lat="59.048932669206" lon="17.80721830693">
        <ele>0</ele>
        <time>2016-04-10T15:13:49Z</time>
      </trkpt>
      <trkpt lat="59.049014308912" lon="17.80718645571">
        <ele>0</ele>
        <time>2016-04-10T15:13:50Z</time>
      </trkpt>
      <trkpt lat="59.049174654659" lon="17.807112275895">
        <ele>0</ele>
        <time>2016-04-10T15:13:52Z</time>
      </trkpt>
      <trkpt lat="59.049249253569" lon="17.807061900676">
        <ele>0</ele>
        <time>2016-04-10T15:13:53Z</time>
      </trkpt>
      <trkpt lat="59.049321757004" lon="17.807004065566">
        <ele>0</ele>
        <time>2016-04-10T15:13:54Z</time>
      </trkpt>
      <trkpt lat="59.049394763353" lon="17.806948493569">
        <ele>0</ele>
        <time>2016-04-10T15:13:55Z</time>
      </trkpt>
      <trkpt lat="59.049469362263" lon="17.806879342894">
        <ele>0</ele>
        <time>2016-04-10T15:13:56Z</time>
      </trkpt>
      <trkpt lat="59.049541530422" lon="17.806810276038">
        <ele>0</ele>
        <time>2016-04-10T15:13:57Z</time>
      </trkpt>
      <trkpt lat="59.049741019642" lon="17.806558232305">
        <ele>0</ele>
        <time>2016-04-10T15:14:00Z</time>
      </trkpt>
      <trkpt lat="59.049858952975" lon="17.80635916218">
        <ele>0</ele>
        <time>2016-04-10T15:14:02Z</time>
      </trkpt>
      <trkpt lat="59.050110242337" lon="17.805771423352">
        <ele>0</ele>
        <time>2016-04-10T15:14:07Z</time>
      </trkpt>
      <trkpt lat="59.050426323786" lon="17.804794429088">
        <ele>0</ele>
        <time>2016-04-10T15:14:14Z</time>
      </trkpt>
      <trkpt lat="59.050542916015" lon="17.804496201086">
        <ele>0</ele>
        <time>2016-04-10T15:14:16Z</time>
      </trkpt>
      <trkpt lat="59.050605612627" lon="17.804343231411">
        <ele>0</ele>
        <time>2016-04-10T15:14:17Z</time>
      </trkpt>
      <trkpt lat="59.050666129945" lon="17.804205097699">
        <ele>0</ele>
        <time>2016-04-10T15:14:18Z</time>
      </trkpt>
      <trkpt lat="59.050731592584" lon="17.804085320348">
        <ele>0</ele>
        <time>2016-04-10T15:14:19Z</time>
      </trkpt>
      <trkpt lat="59.050797474318" lon="17.803980965693">
        <ele>0</ele>
        <time>2016-04-10T15:14:20Z</time>
      </trkpt>
      <trkpt lat="59.050863607509" lon="17.803875940486">
        <ele>0</ele>
        <time>2016-04-10T15:14:21Z</time>
      </trkpt>
      <trkpt lat="59.050926723216" lon="17.803782147025">
        <ele>0</ele>
        <time>2016-04-10T15:14:22Z</time>
      </trkpt>
      <trkpt lat="59.050983887774" lon="17.80368868884">
        <ele>0</ele>
        <time>2016-04-10T15:14:23Z</time>
      </trkpt>
      <trkpt lat="59.051042561074" lon="17.80359481156">
        <ele>0</ele>
        <time>2016-04-10T15:14:24Z</time>
      </trkpt>
      <trkpt lat="59.051099977089" lon="17.803497749158">
        <ele>0</ele>
        <time>2016-04-10T15:14:25Z</time>
      </trkpt>
      <trkpt lat="59.051161751692" lon="17.803412589054">
        <ele>0</ele>
        <time>2016-04-10T15:14:26Z</time>
      </trkpt>
      <trkpt lat="59.051219922078" lon="17.803327177493">
        <ele>0</ele>
        <time>2016-04-10T15:14:27Z</time>
      </trkpt>
      <trkpt lat="59.051279936482" lon="17.803245034873">
        <ele>0</ele>
        <time>2016-04-10T15:14:28Z</time>
      </trkpt>
      <trkpt lat="59.051338525963" lon="17.803163059891">
        <ele>0</ele>
        <time>2016-04-10T15:14:29Z</time>
      </trkpt>
      <trkpt lat="59.05139661253" lon="17.803087119877">
        <ele>0</ele>
        <time>2016-04-10T15:14:30Z</time>
      </trkpt>
      <trkpt lat="59.051463080997" lon="17.803027189292">
        <ele>0</ele>
        <time>2016-04-10T15:14:31Z</time>
      </trkpt>
      <trkpt lat="59.051536674079" lon="17.802974634779">
        <ele>0</ele>
        <time>2016-04-10T15:14:32Z</time>
      </trkpt>
      <trkpt lat="59.051614039016" lon="17.802932809098">
        <ele>0</ele>
        <time>2016-04-10T15:14:33Z</time>
      </trkpt>
      <trkpt lat="59.051774049487" lon="17.802900874059">
        <ele>0</ele>
        <time>2016-04-10T15:14:35Z</time>
      </trkpt>
      <trkpt lat="59.052085353253" lon="17.802954853495">
        <ele>0</ele>
        <time>2016-04-10T15:14:39Z</time>
      </trkpt>
      <trkpt lat="59.052705110939" lon="17.803133136508">
        <ele>0</ele>
        <time>2016-04-10T15:14:47Z</time>
      </trkpt>
      <trkpt lat="59.05278130241" lon="17.803162054063">
        <ele>0</ele>
        <time>2016-04-10T15:14:48Z</time>
      </trkpt>
      <trkpt lat="59.053011720841" lon="17.803307899123">
        <ele>0</ele>
        <time>2016-04-10T15:14:51Z</time>
      </trkpt>
      <trkpt lat="59.053083134629" lon="17.803375121961">
        <ele>0</ele>
        <time>2016-04-10T15:14:52Z</time>
      </trkpt>
      <trkpt lat="59.053150357467" lon="17.803440668419">
        <ele>0</ele>
        <time>2016-04-10T15:14:53Z</time>
      </trkpt>
      <trkpt lat="59.053216490658" lon="17.803505209049">
        <ele>0</ele>
        <time>2016-04-10T15:14:54Z</time>
      </trkpt>
      <trkpt lat="59.05328170184" lon="17.803571845154">
        <ele>0</ele>
        <time>2016-04-10T15:14:55Z</time>
      </trkpt>
      <trkpt lat="59.053689313637" lon="17.803953473061">
        <ele>0</ele>
        <time>2016-04-10T15:15:01Z</time>
      </trkpt>
      <trkpt lat="59.054170099421" lon="17.8042201013">
        <ele>0</ele>
        <time>2016-04-10T15:15:07Z</time>
      </trkpt>
      <trkpt lat="59.054735039481" lon="17.80450676228">
        <ele>0</ele>
        <time>2016-04-10T15:15:14Z</time>
      </trkpt>
      <trkpt lat="59.054897396884" lon="17.804581528828">
        <ele>0</ele>
        <time>2016-04-10T15:15:16Z</time>
      </trkpt>
      <trkpt lat="59.055458397451" lon="17.804843295565">
        <ele>0</ele>
        <time>2016-04-10T15:15:23Z</time>
      </trkpt>
      <trkpt lat="59.055538193139" lon="17.804872716034">
        <ele>0</ele>
        <time>2016-04-10T15:15:24Z</time>
      </trkpt>
      <trkpt lat="59.056091733815" lon="17.805135740056">
        <ele>0</ele>
        <time>2016-04-10T15:15:31Z</time>
      </trkpt>
      <trkpt lat="59.056170607494" lon="17.80517396152">
        <ele>0</ele>
        <time>2016-04-10T15:15:32Z</time>
      </trkpt>
      <trkpt lat="59.056716772098" lon="17.805419802647">
        <ele>0</ele>
        <time>2016-04-10T15:15:39Z</time>
      </trkpt>
      <trkpt lat="59.057180039711" lon="17.805465986916">
        <ele>0</ele>
        <time>2016-04-10T15:15:45Z</time>
      </trkpt>
      <trkpt lat="59.05772662341" lon="17.805402200657">
        <ele>0</ele>
        <time>2016-04-10T15:15:52Z</time>
      </trkpt>
      <trkpt lat="59.057877916705" lon="17.805396249508">
        <ele>0</ele>
        <time>2016-04-10T15:15:54Z</time>
      </trkpt>
      <trkpt lat="59.058323749966" lon="17.805464561993">
        <ele>0</ele>
        <time>2016-04-10T15:16:00Z</time>
      </trkpt>
      <trkpt lat="59.059000420753" lon="17.805591212502">
        <ele>0</ele>
        <time>2016-04-10T15:16:09Z</time>
      </trkpt>
      <trkpt lat="59.059549435203" lon="17.805679306271">
        <ele>0</ele>
        <time>2016-04-10T15:16:17Z</time>
      </trkpt>
      <trkpt lat="59.059783206394" lon="17.805716102812">
        <ele>0</ele>
        <time>2016-04-10T15:16:20Z</time>
      </trkpt>
      <trkpt lat="59.060329454817" lon="17.80577159099">
        <ele>0</ele>
        <time>2016-04-10T15:16:27Z</time>
      </trkpt>
      <trkpt lat="59.060481670121" lon="17.805767735316">
        <ele>0</ele>
        <time>2016-04-10T15:16:29Z</time>
      </trkpt>
      <trkpt lat="59.060985338492" lon="17.805673438941">
        <ele>0</ele>
        <time>2016-04-10T15:16:36Z</time>
      </trkpt>
      <trkpt lat="59.061106373128" lon="17.805665308498">
        <ele>0</ele>
        <time>2016-04-10T15:16:38Z</time>
      </trkpt>
      <trkpt lat="59.061157921813" lon="17.805660363177">
        <ele>0</ele>
        <time>2016-04-10T15:16:39Z</time>
      </trkpt>
      <trkpt lat="59.061210727783" lon="17.805673187484">
        <ele>0</ele>
        <time>2016-04-10T15:16:40Z</time>
      </trkpt>
      <trkpt lat="59.061264036667" lon="17.805683664859">
        <ele>0</ele>
        <time>2016-04-10T15:16:41Z</time>
      </trkpt>
      <trkpt lat="59.061317094094" lon="17.805698249365">
        <ele>0</ele>
        <time>2016-04-10T15:16:42Z</time>
      </trkpt>
      <trkpt lat="59.061370905892" lon="17.805724568531">
        <ele>0</ele>
        <time>2016-04-10T15:16:43Z</time>
      </trkpt>
      <trkpt lat="59.061427399898" lon="17.805752899353">
        <ele>0</ele>
        <time>2016-04-10T15:16:44Z</time>
      </trkpt>
      <trkpt lat="59.061485737922" lon="17.805791539912">
        <ele>0</ele>
        <time>2016-04-10T15:16:45Z</time>
      </trkpt>
      <trkpt lat="59.061603084522" lon="17.805856583456">
        <ele>0</ele>
        <time>2016-04-10T15:16:47Z</time>
      </trkpt>
      <trkpt lat="59.06210784254" lon="17.806122541143">
        <ele>0</ele>
        <time>2016-04-10T15:16:56Z</time>
      </trkpt>
      <trkpt lat="59.062259974025" lon="17.806179538063">
        <ele>0</ele>
        <time>2016-04-10T15:16:59Z</time>
      </trkpt>
      <trkpt lat="59.062311941805" lon="17.806203677935">
        <ele>0</ele>
        <time>2016-04-10T15:17:00Z</time>
      </trkpt>
      <trkpt lat="59.062356701151" lon="17.80622505178">
        <ele>0</ele>
        <time>2016-04-10T15:17:01Z</time>
      </trkpt>
      <trkpt lat="59.062401460497" lon="17.806251706222">
        <ele>0.6</ele>
        <time>2016-04-10T15:17:02Z</time>
      </trkpt>
      <trkpt lat="59.062488129343" lon="17.806294118636">
        <ele>0.6</ele>
        <time>2016-04-10T15:17:04Z</time>
      </trkpt>
      <trkpt lat="59.062573792361" lon="17.806334938489">
        <ele>1.2</ele>
        <time>2016-04-10T15:17:06Z</time>
      </trkpt>
      <trkpt lat="59.062620563363" lon="17.806353881583">
        <ele>1.6</ele>
        <time>2016-04-10T15:17:07Z</time>
      </trkpt>
      <trkpt lat="59.062662221406" lon="17.806370729202">
        <ele>2</ele>
        <time>2016-04-10T15:17:08Z</time>
      </trkpt>
      <trkpt lat="59.062703963268" lon="17.80638514607">
        <ele>2.6</ele>
        <time>2016-04-10T15:17:09Z</time>
      </trkpt>
      <trkpt lat="59.062743358198" lon="17.806400065852">
        <ele>3</ele>
        <time>2016-04-10T15:17:10Z</time>
      </trkpt>
      <trkpt lat="59.062830278501" lon="17.80641364453">
        <ele>3</ele>
        <time>2016-04-10T15:17:12Z</time>
      </trkpt>
      <trkpt lat="59.062914097501" lon="17.80641029177">
        <ele>3</ele>
        <time>2016-04-10T15:17:14Z</time>
      </trkpt>
      <trkpt lat="59.062945613445" lon="17.80639520435">
        <ele>3.4</ele>
        <time>2016-04-10T15:17:15Z</time>
      </trkpt>
      <trkpt lat="59.062986517117" lon="17.806403753888">
        <ele>3.8</ele>
        <time>2016-04-10T15:17:16Z</time>
      </trkpt>
      <trkpt lat="59.063015350853" lon="17.806394533798">
        <ele>4.2</ele>
        <time>2016-04-10T15:17:17Z</time>
      </trkpt>
      <trkpt lat="59.063047788806" lon="17.806390678124">
        <ele>4.6</ele>
        <time>2016-04-10T15:17:18Z</time>
      </trkpt>
      <trkpt lat="59.063079807664" lon="17.806386235717">
        <ele>5</ele>
        <time>2016-04-10T15:17:19Z</time>
      </trkpt>
      <trkpt lat="59.063149293615" lon="17.806349522995">
        <ele>5.4</ele>
        <time>2016-04-10T15:17:21Z</time>
      </trkpt>
      <trkpt lat="59.063182653577" lon="17.806328065331">
        <ele>6</ele>
        <time>2016-04-10T15:17:22Z</time>
      </trkpt>
      <trkpt lat="59.063215426806" lon="17.806301913803">
        <ele>6.4</ele>
        <time>2016-04-10T15:17:23Z</time>
      </trkpt>
      <trkpt lat="59.063246607474" lon="17.806279450311">
        <ele>6.8</ele>
        <time>2016-04-10T15:17:24Z</time>
      </trkpt>
      <trkpt lat="59.063277285228" lon="17.806254136973">
        <ele>7.2</ele>
        <time>2016-04-10T15:17:25Z</time>
      </trkpt>
      <trkpt lat="59.063336964356" lon="17.806197140053">
        <ele>8.2</ele>
        <time>2016-04-10T15:17:27Z</time>
      </trkpt>
      <trkpt lat="59.063362361513" lon="17.806181046805">
        <ele>8.6</ele>
        <time>2016-04-10T15:17:28Z</time>
      </trkpt>
      <trkpt lat="59.063394128914" lon="17.806146681015">
        <ele>9.2</ele>
        <time>2016-04-10T15:17:29Z</time>
      </trkpt>
      <trkpt lat="59.063423968478" lon="17.806109213922">
        <ele>9.6</ele>
        <time>2016-04-10T15:17:30Z</time>
      </trkpt>
      <trkpt lat="59.063481216855" lon="17.806026736026">
        <ele>10</ele>
        <time>2016-04-10T15:17:32Z</time>
      </trkpt>
      <trkpt lat="59.063513151894" lon="17.805968984735">
        <ele>10.6</ele>
        <time>2016-04-10T15:17:33Z</time>
      </trkpt>
      <trkpt lat="59.063542069449" lon="17.805941827379">
        <ele>11</ele>
        <time>2016-04-10T15:17:34Z</time>
      </trkpt>
      <trkpt lat="59.063580961465" lon="17.805902935363">
        <ele>11.6</ele>
        <time>2016-04-10T15:17:35Z</time>
      </trkpt>
      <trkpt lat="59.063626894277" lon="17.805898744413">
        <ele>12</ele>
        <time>2016-04-10T15:17:36Z</time>
      </trkpt>
      <trkpt lat="59.063695290581" lon="17.805974265332">
        <ele>12</ele>
        <time>2016-04-10T15:17:38Z</time>
      </trkpt>
      <trkpt lat="59.063799812874" lon="17.806189512524">
        <ele>12</ele>
        <time>2016-04-10T15:17:42Z</time>
      </trkpt>
      <trkpt lat="59.063816660493" lon="17.806248604919">
        <ele>12</ele>
        <time>2016-04-10T15:17:43Z</time>
      </trkpt>
      <trkpt lat="59.063849685179" lon="17.80636922046">
        <ele>12</ele>
        <time>2016-04-10T15:17:45Z</time>
      </trkpt>
      <trkpt lat="59.063863347676" lon="17.806435605108">
        <ele>12.4</ele>
        <time>2016-04-10T15:17:46Z</time>
      </trkpt>
      <trkpt lat="59.063876004345" lon="17.806504755783">
        <ele>12.8</ele>
        <time>2016-04-10T15:17:47Z</time>
      </trkpt>
      <trkpt lat="59.063884134788" lon="17.806574493191">
        <ele>13.2</ele>
        <time>2016-04-10T15:17:48Z</time>
      </trkpt>
      <trkpt lat="59.063887403729" lon="17.806643979142">
        <ele>13.6</ele>
        <time>2016-04-10T15:17:49Z</time>
      </trkpt>
      <trkpt lat="59.063893857792" lon="17.806707430125">
        <ele>14</ele>
        <time>2016-04-10T15:17:50Z</time>
      </trkpt>
      <trkpt lat="59.063943813916" lon="17.806942793877">
        <ele>14</ele>
        <time>2016-04-10T15:17:54Z</time>
      </trkpt>
      <trkpt lat="59.063960493897" lon="17.806986798852">
        <ele>14.4</ele>
        <time>2016-04-10T15:17:55Z</time>
      </trkpt>
      <trkpt lat="59.06397868262" lon="17.807030384732">
        <ele>15</ele>
        <time>2016-04-10T15:17:56Z</time>
      </trkpt>
      <trkpt lat="59.064001229931" lon="17.807068857653">
        <ele>15.4</ele>
        <time>2016-04-10T15:17:57Z</time>
      </trkpt>
      <trkpt lat="59.064044145259" lon="17.807094422448">
        <ele>15.8</ele>
        <time>2016-04-10T15:17:58Z</time>
      </trkpt>
      <trkpt lat="59.064082785818" lon="17.807118059406">
        <ele>16.2</ele>
        <time>2016-04-10T15:17:59Z</time>
      </trkpt>
      <trkpt lat="59.064222260634" lon="17.807187461538">
        <ele>16.2</ele>
        <time>2016-04-10T15:18:04Z</time>
      </trkpt>
      <trkpt lat="59.064254111854" lon="17.807197016904">
        <ele>16.6</ele>
        <time>2016-04-10T15:18:05Z</time>
      </trkpt>
      <trkpt lat="59.064278670821" lon="17.807208416288">
        <ele>17</ele>
        <time>2016-04-10T15:18:06Z</time>
      </trkpt>
      <trkpt lat="59.064311192593" lon="17.807209757392">
        <ele>17.4</ele>
        <time>2016-04-10T15:18:07Z</time>
      </trkpt>
      <trkpt lat="59.06434329527" lon="17.807215540903">
        <ele>17.8</ele>
        <time>2016-04-10T15:18:08Z</time>
      </trkpt>
      <trkpt lat="59.064379840354" lon="17.807218558387">
        <ele>18.2</ele>
        <time>2016-04-10T15:18:09Z</time>
      </trkpt>
      <trkpt lat="59.064471286883" lon="17.80722752702">
        <ele>18.2</ele>
        <time>2016-04-10T15:18:11Z</time>
      </trkpt>
      <trkpt lat="59.064518393161" lon="17.807239010223">
        <ele>18.2</ele>
        <time>2016-04-10T15:18:12Z</time>
      </trkpt>
      <trkpt lat="59.064676475795" lon="17.807254516738">
        <ele>18.6</ele>
        <time>2016-04-10T15:18:16Z</time>
      </trkpt>
      <trkpt lat="59.064722240969" lon="17.807255354928">
        <ele>19</ele>
        <time>2016-04-10T15:18:17Z</time>
      </trkpt>
      <trkpt lat="59.064771777998" lon="17.807253175634">
        <ele>19.4</ele>
        <time>2016-04-10T15:18:18Z</time>
      </trkpt>
      <trkpt lat="59.064824751606" lon="17.807252505082">
        <ele>19.8</ele>
        <time>2016-04-10T15:18:19Z</time>
      </trkpt>
      <trkpt lat="59.064871271151" lon="17.807252169806">
        <ele>20.2</ele>
        <time>2016-04-10T15:18:20Z</time>
      </trkpt>
      <trkpt lat="59.064952575581" lon="17.807216211455">
        <ele>20.2</ele>
        <time>2016-04-10T15:18:21Z</time>
      </trkpt>
      <trkpt lat="59.065089116732" lon="17.807154855947">
        <ele>20.2</ele>
        <time>2016-04-10T15:18:23Z</time>
      </trkpt>
      <trkpt lat="59.065615835328" lon="17.806784795062">
        <ele>20.2</ele>
        <time>2016-04-10T15:18:31Z</time>
      </trkpt>
      <trkpt lat="59.065927977284" lon="17.80652428561">
        <ele>20.2</ele>
        <time>2016-04-10T15:18:36Z</time>
      </trkpt>
      <trkpt lat="59.065988746059" lon="17.806457398048">
        <ele>20.2</ele>
        <time>2016-04-10T15:18:37Z</time>
      </trkpt>
      <trkpt lat="59.066400800263" lon="17.805935792411">
        <ele>20.2</ele>
        <time>2016-04-10T15:18:44Z</time>
      </trkpt>
      <trkpt lat="59.066834563588" lon="17.805456934464">
        <ele>20.2</ele>
        <time>2016-04-10T15:18:51Z</time>
      </trkpt>
      <trkpt lat="59.067206719948" lon="17.805063739535">
        <ele>20.2</ele>
        <time>2016-04-10T15:18:57Z</time>
      </trkpt>
      <trkpt lat="59.067433031248" lon="17.804834075475">
        <ele>20.2</ele>
        <time>2016-04-10T15:19:00Z</time>
      </trkpt>
      <trkpt lat="59.067520538284" lon="17.804775066899">
        <ele>19.8</ele>
        <time>2016-04-10T15:19:01Z</time>
      </trkpt>
      <trkpt lat="59.067610224614" lon="17.804734498503">
        <ele>19.4</ele>
        <time>2016-04-10T15:19:02Z</time>
      </trkpt>
      <trkpt lat="59.067699491849" lon="17.804717818522">
        <ele>19</ele>
        <time>2016-04-10T15:19:03Z</time>
      </trkpt>
      <trkpt lat="59.067799571735" lon="17.804733241218">
        <ele>17.8</ele>
        <time>2016-04-10T15:19:04Z</time>
      </trkpt>
      <trkpt lat="59.06787458974" lon="17.804755369434">
        <ele>17.2</ele>
        <time>2016-04-10T15:19:05Z</time>
      </trkpt>
      <trkpt lat="59.067956648541" lon="17.804787723568">
        <ele>16.6</ele>
        <time>2016-04-10T15:19:06Z</time>
      </trkpt>
      <trkpt lat="59.068038455885" lon="17.80482862724">
        <ele>15.8</ele>
        <time>2016-04-10T15:19:07Z</time>
      </trkpt>
      <trkpt lat="59.068193269578" lon="17.804906243634">
        <ele>15.8</ele>
        <time>2016-04-10T15:19:09Z</time>
      </trkpt>
      <trkpt lat="59.068487138992" lon="17.805051418142">
        <ele>16.2</ele>
        <time>2016-04-10T15:19:13Z</time>
      </trkpt>
      <trkpt lat="59.068562995187" lon="17.805081173887">
        <ele>16.6</ele>
        <time>2016-04-10T15:19:14Z</time>
      </trkpt>
      <trkpt lat="59.068635917717" lon="17.805108498881">
        <ele>17</ele>
        <time>2016-04-10T15:19:15Z</time>
      </trkpt>
      <trkpt lat="59.068705990401" lon="17.805141020653">
        <ele>17.4</ele>
        <time>2016-04-10T15:19:16Z</time>
      </trkpt>
      <trkpt lat="59.068774721981" lon="17.805174296796">
        <ele>17.8</ele>
        <time>2016-04-10T15:19:17Z</time>
      </trkpt>
      <trkpt lat="59.06913941845" lon="17.805327015014">
        <ele>17.8</ele>
        <time>2016-04-10T15:19:22Z</time>
      </trkpt>
      <trkpt lat="59.069480142685" lon="17.805506303855">
        <ele>17.8</ele>
        <time>2016-04-10T15:19:27Z</time>
      </trkpt>
      <trkpt lat="59.069687007977" lon="17.805615771469">
        <ele>17.8</ele>
        <time>2016-04-10T15:19:30Z</time>
      </trkpt>
      <trkpt lat="59.06983008701" lon="17.805680982651">
        <ele>17.8</ele>
        <time>2016-04-10T15:19:32Z</time>
      </trkpt>
      <trkpt lat="59.070357057063" lon="17.805864797718">
        <ele>17.8</ele>
        <time>2016-04-10T15:19:39Z</time>
      </trkpt>
      <trkpt lat="59.070786713257" lon="17.806091360475">
        <ele>17.8</ele>
        <time>2016-04-10T15:19:44Z</time>
      </trkpt>
      <trkpt lat="59.070940521122" lon="17.806241061209">
        <ele>17.4</ele>
        <time>2016-04-10T15:19:46Z</time>
      </trkpt>
      <trkpt lat="59.071018053697" lon="17.80632144363">
        <ele>17</ele>
        <time>2016-04-10T15:19:47Z</time>
      </trkpt>
      <trkpt lat="59.071097178833" lon="17.806403502431">
        <ele>16.6</ele>
        <time>2016-04-10T15:19:48Z</time>
      </trkpt>
      <trkpt lat="59.071178986177" lon="17.806484303947">
        <ele>16.2</ele>
        <time>2016-04-10T15:19:49Z</time>
      </trkpt>
      <trkpt lat="59.071261799349" lon="17.806562674712">
        <ele>15.8</ele>
        <time>2016-04-10T15:19:50Z</time>
      </trkpt>
      <trkpt lat="59.071592297666" lon="17.80682184306">
        <ele>15</ele>
        <time>2016-04-10T15:19:54Z</time>
      </trkpt>
      <trkpt lat="59.071675613752" lon="17.806871044813">
        <ele>14.6</ele>
        <time>2016-04-10T15:19:55Z</time>
      </trkpt>
      <trkpt lat="59.071757169639" lon="17.806915468883">
        <ele>14.2</ele>
        <time>2016-04-10T15:19:56Z</time>
      </trkpt>
      <trkpt lat="59.071838809345" lon="17.806957043107">
        <ele>13.8</ele>
        <time>2016-04-10T15:19:57Z</time>
      </trkpt>
      <trkpt lat="59.072096636589" lon="17.807096434104">
        <ele>13.8</ele>
        <time>2016-04-10T15:20:00Z</time>
      </trkpt>
      <trkpt lat="59.072670796739" lon="17.807425758955">
        <ele>13.8</ele>
        <time>2016-04-10T15:20:07Z</time>
      </trkpt>
      <trkpt lat="59.072750424789" lon="17.807483342608">
        <ele>13.8</ele>
        <time>2016-04-10T15:20:08Z</time>
      </trkpt>
      <trkpt lat="59.073093747413" lon="17.807633713894">
        <ele>13.8</ele>
        <time>2016-04-10T15:20:12Z</time>
      </trkpt>
      <trkpt lat="59.073182679372" lon="17.807650980608">
        <ele>13.8</ele>
        <time>2016-04-10T15:20:13Z</time>
      </trkpt>
      <trkpt lat="59.07351309387" lon="17.80770948627">
        <ele>13.8</ele>
        <time>2016-04-10T15:20:17Z</time>
      </trkpt>
      <trkpt lat="59.073764131775" lon="17.807933115362">
        <ele>13.4</ele>
        <time>2016-04-10T15:20:20Z</time>
      </trkpt>
      <trkpt lat="59.073842167264" lon="17.808065633201">
        <ele>13</ele>
        <time>2016-04-10T15:20:21Z</time>
      </trkpt>
      <trkpt lat="59.073904360962" lon="17.808216507401">
        <ele>12.4</ele>
        <time>2016-04-10T15:20:22Z</time>
      </trkpt>
      <trkpt lat="59.073963872452" lon="17.808388755446">
        <ele>11.8</ele>
        <time>2016-04-10T15:20:23Z</time>
      </trkpt>
      <trkpt lat="59.074017516612" lon="17.808545748433">
        <ele>11</ele>
        <time>2016-04-10T15:20:24Z</time>
      </trkpt>
      <trkpt lat="59.07405875556" lon="17.80870944694">
        <ele>10.4</ele>
        <time>2016-04-10T15:20:25Z</time>
      </trkpt>
      <trkpt lat="59.074101000336" lon="17.808865434099">
        <ele>9.8</ele>
        <time>2016-04-10T15:20:26Z</time>
      </trkpt>
      <trkpt lat="59.074184064965" lon="17.809166176671">
        <ele>9.8</ele>
        <time>2016-04-10T15:20:28Z</time>
      </trkpt>
      <trkpt lat="59.074498050939" lon="17.810226151745">
        <ele>9.8</ele>
        <time>2016-04-10T15:20:35Z</time>
      </trkpt>
      <trkpt lat="59.074547671787" lon="17.810398483609">
        <ele>9.4</ele>
        <time>2016-04-10T15:20:36Z</time>
      </trkpt>
      <trkpt lat="59.074595783893" lon="17.810578945916">
        <ele>9</ele>
        <time>2016-04-10T15:20:37Z</time>
      </trkpt>
      <trkpt lat="59.074644315094" lon="17.810770304693">
        <ele>8.2</ele>
        <time>2016-04-10T15:20:38Z</time>
      </trkpt>
      <trkpt lat="59.074689577354" lon="17.810954035941">
        <ele>7.4</ele>
        <time>2016-04-10T15:20:39Z</time>
      </trkpt>
      <trkpt lat="59.074734923433" lon="17.811137180456">
        <ele>6.6</ele>
        <time>2016-04-10T15:20:40Z</time>
      </trkpt>
      <trkpt lat="59.074778928408" lon="17.811320073514">
        <ele>5.8</ele>
        <time>2016-04-10T15:20:41Z</time>
      </trkpt>
      <trkpt lat="59.074823771573" lon="17.811499194717">
        <ele>4</ele>
        <time>2016-04-10T15:20:42Z</time>
      </trkpt>
      <trkpt lat="59.074867441272" lon="17.811676890997">
        <ele>3.2</ele>
        <time>2016-04-10T15:20:43Z</time>
      </trkpt>
      <trkpt lat="59.075112779485" lon="17.812692022906">
        <ele>3.2</ele>
        <time>2016-04-10T15:20:49Z</time>
      </trkpt>
      <trkpt lat="59.075150665673" lon="17.812853709757">
        <ele>3.2</ele>
        <time>2016-04-10T15:20:50Z</time>
      </trkpt>
      <trkpt lat="59.075391142384" lon="17.813972861045">
        <ele>3.2</ele>
        <time>2016-04-10T15:20:57Z</time>
      </trkpt>
      <trkpt lat="59.0754132706" lon="17.814123735245">
        <ele>3.2</ele>
        <time>2016-04-10T15:20:58Z</time>
      </trkpt>
      <trkpt lat="59.075535730159" lon="17.815134592385">
        <ele>3.2</ele>
        <time>2016-04-10T15:21:05Z</time>
      </trkpt>
      <trkpt lat="59.075586692111" lon="17.815514376274">
        <ele>3.2</ele>
        <time>2016-04-10T15:21:08Z</time>
      </trkpt>
      <trkpt lat="59.075618375693" lon="17.815611187219">
        <ele>3.2</ele>
        <time>2016-04-10T15:21:09Z</time>
      </trkpt>
      <trkpt lat="59.075781738924" lon="17.81571839172">
        <ele>3.2</ele>
        <time>2016-04-10T15:21:12Z</time>
      </trkpt>
      <trkpt lat="59.076017857047" lon="17.815676314582">
        <ele>3.2</ele>
        <time>2016-04-10T15:21:15Z</time>
      </trkpt>
      <trkpt lat="59.076106621368" lon="17.815673464736">
        <ele>3.2</ele>
        <time>2016-04-10T15:21:16Z</time>
      </trkpt>
      <trkpt lat="59.076521022504" lon="17.815660053696">
        <ele>3.2</ele>
        <time>2016-04-10T15:21:21Z</time>
      </trkpt>
      <trkpt lat="59.077074060266" lon="17.81565636566">
        <ele>3.2</ele>
        <time>2016-04-10T15:21:28Z</time>
      </trkpt>
      <trkpt lat="59.077463148064" lon="17.815794499372">
        <ele>3.2</ele>
        <time>2016-04-10T15:21:33Z</time>
      </trkpt>
      <trkpt lat="59.077708821553" lon="17.815799360874">
        <ele>3.2</ele>
        <time>2016-04-10T15:21:36Z</time>
      </trkpt>
      <trkpt lat="59.077787192318" lon="17.815744962343">
        <ele>3.2</ele>
        <time>2016-04-10T15:21:37Z</time>
      </trkpt>
      <trkpt lat="59.077861958866" lon="17.815676146944">
        <ele>3.6</ele>
        <time>2016-04-10T15:21:38Z</time>
      </trkpt>
      <trkpt lat="59.0779362225" lon="17.8155859577">
        <ele>4</ele>
        <time>2016-04-10T15:21:39Z</time>
      </trkpt>
      <trkpt lat="59.078004451166" lon="17.815486548366">
        <ele>4.4</ele>
        <time>2016-04-10T15:21:40Z</time>
      </trkpt>
      <trkpt lat="59.078071254909" lon="17.815382948082">
        <ele>5</ele>
        <time>2016-04-10T15:21:41Z</time>
      </trkpt>
      <trkpt lat="59.078135963177" lon="17.81527918016">
        <ele>5.4</ele>
        <time>2016-04-10T15:21:42Z</time>
      </trkpt>
      <trkpt lat="59.078587999044" lon="17.814548781394">
        <ele>5.4</ele>
        <time>2016-04-10T15:21:49Z</time>
      </trkpt>
      <trkpt lat="59.079036598332" lon="17.8138425225">
        <ele>5.4</ele>
        <time>2016-04-10T15:21:56Z</time>
      </trkpt>
      <trkpt lat="59.079436079686" lon="17.813137269434">
        <ele>5.4</ele>
        <time>2016-04-10T15:22:03Z</time>
      </trkpt>
      <trkpt lat="59.079643028797" lon="17.812493958609">
        <ele>5.4</ele>
        <time>2016-04-10T15:22:09Z</time>
      </trkpt>
      <trkpt lat="59.079703629934" lon="17.812293882656">
        <ele>5.8</ele>
        <time>2016-04-10T15:22:11Z</time>
      </trkpt>
      <trkpt lat="59.07973581643" lon="17.812198915729">
        <ele>6.2</ele>
        <time>2016-04-10T15:22:12Z</time>
      </trkpt>
      <trkpt lat="59.079769008754" lon="17.81210579282">
        <ele>6.6</ele>
        <time>2016-04-10T15:22:13Z</time>
      </trkpt>
      <trkpt lat="59.079805637657" lon="17.81201443011">
        <ele>7</ele>
        <time>2016-04-10T15:22:14Z</time>
      </trkpt>
      <trkpt lat="59.079846625148" lon="17.81192390559">
        <ele>7.6</ele>
        <time>2016-04-10T15:22:15Z</time>
      </trkpt>
      <trkpt lat="59.079939245143" lon="17.811732630632">
        <ele>7.6</ele>
        <time>2016-04-10T15:22:17Z</time>
      </trkpt>
      <trkpt lat="59.080102021641" lon="17.811470360981">
        <ele>7.6</ele>
        <time>2016-04-10T15:22:20Z</time>
      </trkpt>
      <trkpt lat="59.080526397238" lon="17.810887316017">
        <ele>7.6</ele>
        <time>2016-04-10T15:22:27Z</time>
      </trkpt>
      <trkpt lat="59.080923280203" lon="17.81036068124">
        <ele>7.6</ele>
        <time>2016-04-10T15:22:34Z</time>
      </trkpt>
      <trkpt lat="59.081154704462" lon="17.810026997801">
        <ele>8</ele>
        <time>2016-04-10T15:22:40Z</time>
      </trkpt>
      <trkpt lat="59.081187896786" lon="17.809969665605">
        <ele>8.4</ele>
        <time>2016-04-10T15:22:41Z</time>
      </trkpt>
      <trkpt lat="59.0812219273" lon="17.809907723364">
        <ele>8.8</ele>
        <time>2016-04-10T15:22:42Z</time>
      </trkpt>
      <trkpt lat="59.081255706357" lon="17.809836225757">
        <ele>9.2</ele>
        <time>2016-04-10T15:22:43Z</time>
      </trkpt>
      <trkpt lat="59.081290491242" lon="17.809758274087">
        <ele>9.6</ele>
        <time>2016-04-10T15:22:44Z</time>
      </trkpt>
      <trkpt lat="59.081369784016" lon="17.809585858404">
        <ele>9.6</ele>
        <time>2016-04-10T15:22:46Z</time>
      </trkpt>
      <trkpt lat="59.081649823295" lon="17.809026450398">
        <ele>9.6</ele>
        <time>2016-04-10T15:22:53Z</time>
      </trkpt>
      <trkpt lat="59.081807989748" lon="17.808697041728">
        <ele>10.2</ele>
        <time>2016-04-10T15:22:58Z</time>
      </trkpt>
      <trkpt lat="59.081833889819" lon="17.808642727016">
        <ele>10.6</ele>
        <time>2016-04-10T15:22:59Z</time>
      </trkpt>
      <trkpt lat="59.081865741039" lon="17.808594195815">
        <ele>11</ele>
        <time>2016-04-10T15:23:00Z</time>
      </trkpt>
      <trkpt lat="59.081901280295" lon="17.808542898587">
        <ele>11.4</ele>
        <time>2016-04-10T15:23:01Z</time>
      </trkpt>
      <trkpt lat="59.081943189795" lon="17.808484979658">
        <ele>12</ele>
        <time>2016-04-10T15:23:02Z</time>
      </trkpt>
      <trkpt lat="59.081991804815" lon="17.80843284424">
        <ele>12.4</ele>
        <time>2016-04-10T15:23:03Z</time>
      </trkpt>
      <trkpt lat="59.082043521138" lon="17.808382385202">
        <ele>12.8</ele>
        <time>2016-04-10T15:23:04Z</time>
      </trkpt>
      <trkpt lat="59.082098757859" lon="17.808324214816">
        <ele>13.2</ele>
        <time>2016-04-10T15:23:05Z</time>
      </trkpt>
      <trkpt lat="59.082158856082" lon="17.808263865136">
        <ele>13.6</ele>
        <time>2016-04-10T15:23:06Z</time>
      </trkpt>
      <trkpt lat="59.082219289581" lon="17.808201252343">
        <ele>14</ele>
        <time>2016-04-10T15:23:07Z</time>
      </trkpt>
      <trkpt lat="59.082339150751" lon="17.808060352604">
        <ele>13.6</ele>
        <time>2016-04-10T15:23:09Z</time>
      </trkpt>
      <trkpt lat="59.082401092992" lon="17.80797854526">
        <ele>12.8</ele>
        <time>2016-04-10T15:23:10Z</time>
      </trkpt>
      <trkpt lat="59.082459766292" lon="17.807894474803">
        <ele>12.4</ele>
        <time>2016-04-10T15:23:11Z</time>
      </trkpt>
      <trkpt lat="59.082515925022" lon="17.807809482337">
        <ele>11.8</ele>
        <time>2016-04-10T15:23:12Z</time>
      </trkpt>
      <trkpt lat="59.082842316208" lon="17.807426345688">
        <ele>11.8</ele>
        <time>2016-04-10T15:23:17Z</time>
      </trkpt>
      <trkpt lat="59.083065526205" lon="17.807436823063">
        <ele>11.8</ele>
        <time>2016-04-10T15:23:20Z</time>
      </trkpt>
      <trkpt lat="59.08319502656" lon="17.807529359239">
        <ele>11.8</ele>
        <time>2016-04-10T15:23:22Z</time>
      </trkpt>
      <trkpt lat="59.083370124451" lon="17.807685262579">
        <ele>11.8</ele>
        <time>2016-04-10T15:23:25Z</time>
      </trkpt>
      <trkpt lat="59.08356718292" lon="17.807669336969">
        <ele>11.8</ele>
        <time>2016-04-10T15:23:28Z</time>
      </trkpt>
      <trkpt lat="59.083746723218" lon="17.807440930194">
        <ele>11.8</ele>
        <time>2016-04-10T15:23:31Z</time>
      </trkpt>
      <trkpt lat="59.083915786141" lon="17.807158963078">
        <ele>11.8</ele>
        <time>2016-04-10T15:23:34Z</time>
      </trkpt>
      <trkpt lat="59.084032126913" lon="17.80702300866">
        <ele>11.8</ele>
        <time>2016-04-10T15:23:36Z</time>
      </trkpt>
      <trkpt lat="59.08421929474" lon="17.806819831404">
        <ele>11.8</ele>
        <time>2016-04-10T15:23:40Z</time>
      </trkpt>
      <trkpt lat="59.084257348566" lon="17.80676484614">
        <ele>12.4</ele>
        <time>2016-04-10T15:23:41Z</time>
      </trkpt>
      <trkpt lat="59.084292720184" lon="17.806710196152">
        <ele>13</ele>
        <time>2016-04-10T15:23:42Z</time>
      </trkpt>
      <trkpt lat="59.0843232303" lon="17.806655797621">
        <ele>13.4</ele>
        <time>2016-04-10T15:23:43Z</time>
      </trkpt>
      <trkpt lat="59.084350555294" lon="17.806604332755">
        <ele>14</ele>
        <time>2016-04-10T15:23:44Z</time>
      </trkpt>
      <trkpt lat="59.084378718478" lon="17.806553873717">
        <ele>14.6</ele>
        <time>2016-04-10T15:23:45Z</time>
      </trkpt>
      <trkpt lat="59.084406378748" lon="17.80650081629">
        <ele>14.6</ele>
        <time>2016-04-10T15:23:46Z</time>
      </trkpt>
      <trkpt lat="59.084461196374" lon="17.806387828278">
        <ele>14.6</ele>
        <time>2016-04-10T15:23:48Z</time>
      </trkpt>
      <trkpt lat="59.084496400354" lon="17.806222872486">
        <ele>14.6</ele>
        <time>2016-04-10T15:23:50Z</time>
      </trkpt>
      <trkpt lat="59.084558426414" lon="17.805637229133">
        <ele>14.6</ele>
        <time>2016-04-10T15:23:55Z</time>
      </trkpt>
      <trkpt lat="59.084554319283" lon="17.805262474384">
        <ele>14.6</ele>
        <time>2016-04-10T15:23:58Z</time>
      </trkpt>
      <trkpt lat="59.08452942504" lon="17.805035241075">
        <ele>14.6</ele>
        <time>2016-04-10T15:24:00Z</time>
      </trkpt>
      <trkpt lat="59.084470667921" lon="17.80445814726">
        <ele>14.6</ele>
        <time>2016-04-10T15:24:05Z</time>
      </trkpt>
      <trkpt lat="59.08443135681" lon="17.804169223167">
        <ele>14.6</ele>
        <time>2016-04-10T15:24:08Z</time>
      </trkpt>
      <trkpt lat="59.084402187798" lon="17.803984150815">
        <ele>15</ele>
        <time>2016-04-10T15:24:10Z</time>
      </trkpt>
      <trkpt lat="59.084391626604" lon="17.803898990711">
        <ele>15.4</ele>
        <time>2016-04-10T15:24:11Z</time>
      </trkpt>
      <trkpt lat="59.084384837265" lon="17.803815926082">
        <ele>16</ele>
        <time>2016-04-10T15:24:12Z</time>
      </trkpt>
      <trkpt lat="59.084379640487" lon="17.803733783462">
        <ele>16.4</ele>
        <time>2016-04-10T15:24:13Z</time>
      </trkpt>
      <trkpt lat="59.084373605519" lon="17.803654239231">
        <ele>16.8</ele>
        <time>2016-04-10T15:24:14Z</time>
      </trkpt>
      <trkpt lat="59.08436849256" lon="17.80356966586">
        <ele>17.4</ele>
        <time>2016-04-10T15:24:15Z</time>
      </trkpt>
      <trkpt lat="59.084367402913" lon="17.803482242643">
        <ele>17.8</ele>
        <time>2016-04-10T15:24:16Z</time>
      </trkpt>
      <trkpt lat="59.084368995474" lon="17.803393394503">
        <ele>18.2</ele>
        <time>2016-04-10T15:24:17Z</time>
      </trkpt>
      <trkpt lat="59.084366480904" lon="17.80331401791">
        <ele>18.6</ele>
        <time>2016-04-10T15:24:18Z</time>
      </trkpt>
      <trkpt lat="59.08436430161" lon="17.803241346837">
        <ele>19</ele>
        <time>2016-04-10T15:24:19Z</time>
      </trkpt>
      <trkpt lat="59.084367067637" lon="17.80309022118">
        <ele>19</ele>
        <time>2016-04-10T15:24:21Z</time>
      </trkpt>
      <trkpt lat="59.084369079293" lon="17.803021573419">
        <ele>19</ele>
        <time>2016-04-10T15:24:22Z</time>
      </trkpt>
      <trkpt lat="59.084380394858" lon="17.802877488558">
        <ele>19.4</ele>
        <time>2016-04-10T15:24:24Z</time>
      </trkpt>
      <trkpt lat="59.084384250532" lon="17.802797357594">
        <ele>19.8</ele>
        <time>2016-04-10T15:24:25Z</time>
      </trkpt>
      <trkpt lat="59.084390117862" lon="17.802723345417">
        <ele>20.2</ele>
        <time>2016-04-10T15:24:26Z</time>
      </trkpt>
      <trkpt lat="59.084396907201" lon="17.802654278561">
        <ele>20.8</ele>
        <time>2016-04-10T15:24:27Z</time>
      </trkpt>
      <trkpt lat="59.084398499762" lon="17.802585044067">
        <ele>21.2</ele>
        <time>2016-04-10T15:24:28Z</time>
      </trkpt>
      <trkpt lat="59.08438693274" lon="17.80238362701">
        <ele>21.2</ele>
        <time>2016-04-10T15:24:31Z</time>
      </trkpt>
      <trkpt lat="59.084380981591" lon="17.802321014217">
        <ele>21.6</ele>
        <time>2016-04-10T15:24:32Z</time>
      </trkpt>
      <trkpt lat="59.08437016894" lon="17.802248762239">
        <ele>22</ele>
        <time>2016-04-10T15:24:33Z</time>
      </trkpt>
      <trkpt lat="59.084362541411" lon="17.802175085338">
        <ele>22.4</ele>
        <time>2016-04-10T15:24:34Z</time>
      </trkpt>
      <trkpt lat="59.084366145628" lon="17.802099564419">
        <ele>22.8</ele>
        <time>2016-04-10T15:24:35Z</time>
      </trkpt>
      <trkpt lat="59.084369414569" lon="17.802026809527">
        <ele>23.2</ele>
        <time>2016-04-10T15:24:36Z</time>
      </trkpt>
      <trkpt lat="59.08438357998" lon="17.801793122155">
        <ele>23.2</ele>
        <time>2016-04-10T15:24:39Z</time>
      </trkpt>
      <trkpt lat="59.084394979364" lon="17.80171223682">
        <ele>23.2</ele>
        <time>2016-04-10T15:24:40Z</time>
      </trkpt>
      <trkpt lat="59.08441207844" lon="17.801638895195">
        <ele>23.2</ele>
        <time>2016-04-10T15:24:41Z</time>
      </trkpt>
      <trkpt lat="59.08446991355" lon="17.801412751533">
        <ele>23.2</ele>
        <time>2016-04-10T15:24:44Z</time>
      </trkpt>
      <trkpt lat="59.084491035938" lon="17.801337649709">
        <ele>23.2</ele>
        <time>2016-04-10T15:24:45Z</time>
      </trkpt>
      <trkpt lat="59.084585919046" lon="17.800966666815">
        <ele>23.6</ele>
        <time>2016-04-10T15:24:49Z</time>
      </trkpt>
      <trkpt lat="59.084605197416" lon="17.8008505775">
        <ele>24</ele>
        <time>2016-04-10T15:24:50Z</time>
      </trkpt>
      <trkpt lat="59.084619279008" lon="17.800750916709">
        <ele>24.4</ele>
        <time>2016-04-10T15:24:51Z</time>
      </trkpt>
      <trkpt lat="59.084627241813" lon="17.800646981149">
        <ele>24.8</ele>
        <time>2016-04-10T15:24:52Z</time>
      </trkpt>
      <trkpt lat="59.084635539894" lon="17.800544135236">
        <ele>25.2</ele>
        <time>2016-04-10T15:24:53Z</time>
      </trkpt>
      <trkpt lat="59.084651716961" lon="17.80032922332">
        <ele>25.2</ele>
        <time>2016-04-10T15:24:55Z</time>
      </trkpt>
      <trkpt lat="59.084653644798" lon="17.799993863501">
        <ele>25.2</ele>
        <time>2016-04-10T15:24:58Z</time>
      </trkpt>
      <trkpt lat="59.084657919567" lon="17.799764786174">
        <ele>25.2</ele>
        <time>2016-04-10T15:25:00Z</time>
      </trkpt>
      <trkpt lat="59.084658841576" lon="17.799550880086">
        <ele>25.2</ele>
        <time>2016-04-10T15:25:02Z</time>
      </trkpt>
      <trkpt lat="59.084654231531" lon="17.799337812188">
        <ele>25.2</ele>
        <time>2016-04-10T15:25:04Z</time>
      </trkpt>
      <trkpt lat="59.084650040581" lon="17.799228009298">
        <ele>25.2</ele>
        <time>2016-04-10T15:25:05Z</time>
      </trkpt>
      <trkpt lat="59.084665547096" lon="17.798940174852">
        <ele>25.2</ele>
        <time>2016-04-10T15:25:08Z</time>
      </trkpt>
      <trkpt lat="59.084676024471" lon="17.798673714251">
        <ele>25.2</ele>
        <time>2016-04-10T15:25:11Z</time>
      </trkpt>
      <trkpt lat="59.084687340036" lon="17.798477829248">
        <ele>25.2</ele>
        <time>2016-04-10T15:25:13Z</time>
      </trkpt>
      <trkpt lat="59.084692452995" lon="17.798380850665">
        <ele>26.2</ele>
        <time>2016-04-10T15:25:14Z</time>
      </trkpt>
      <trkpt lat="59.084694883746" lon="17.798290829059">
        <ele>26.6</ele>
        <time>2016-04-10T15:25:15Z</time>
      </trkpt>
      <trkpt lat="59.084698990877" lon="17.79820524986">
        <ele>27</ele>
        <time>2016-04-10T15:25:16Z</time>
      </trkpt>
      <trkpt lat="59.084703265646" lon="17.798112126951">
        <ele>27.6</ele>
        <time>2016-04-10T15:25:17Z</time>
      </trkpt>
      <trkpt lat="59.084756323073" lon="17.797772660001">
        <ele>27.6</ele>
        <time>2016-04-10T15:25:21Z</time>
      </trkpt>
      <trkpt lat="59.084774847072" lon="17.79760510582">
        <ele>27.6</ele>
        <time>2016-04-10T15:25:23Z</time>
      </trkpt>
      <trkpt lat="59.084781552592" lon="17.797510055074">
        <ele>27.6</ele>
        <time>2016-04-10T15:25:24Z</time>
      </trkpt>
      <trkpt lat="59.084779876212" lon="17.797329592767">
        <ele>27.6</ele>
        <time>2016-04-10T15:25:26Z</time>
      </trkpt>
      <trkpt lat="59.084783312791" lon="17.797229345243">
        <ele>27.6</ele>
        <time>2016-04-10T15:25:27Z</time>
      </trkpt>
      <trkpt lat="59.084794376899" lon="17.796757444273">
        <ele>27.6</ele>
        <time>2016-04-10T15:25:31Z</time>
      </trkpt>
      <trkpt lat="59.084806363016" lon="17.79637548109">
        <ele>27.6</ele>
        <time>2016-04-10T15:25:34Z</time>
      </trkpt>
      <trkpt lat="59.084828072137" lon="17.796115558371">
        <ele>27.6</ele>
        <time>2016-04-10T15:25:36Z</time>
      </trkpt>
      <trkpt lat="59.084865371592" lon="17.795880865171">
        <ele>28</ele>
        <time>2016-04-10T15:25:38Z</time>
      </trkpt>
      <trkpt lat="59.084887667446" lon="17.795773409213">
        <ele>28.8</ele>
        <time>2016-04-10T15:25:39Z</time>
      </trkpt>
      <trkpt lat="59.084906359083" lon="17.795667545816">
        <ele>29.2</ele>
        <time>2016-04-10T15:25:40Z</time>
      </trkpt>
      <trkpt lat="59.084921781779" lon="17.795553635795">
        <ele>29.6</ele>
        <time>2016-04-10T15:25:41Z</time>
      </trkpt>
      <trkpt lat="59.084987663513" lon="17.795144850532">
        <ele>29.6</ele>
        <time>2016-04-10T15:25:45Z</time>
      </trkpt>
      <trkpt lat="59.085012725394" lon="17.794945026036">
        <ele>29.6</ele>
        <time>2016-04-10T15:25:47Z</time>
      </trkpt>
      <trkpt lat="59.085043319329" lon="17.794761043331">
        <ele>29.6</ele>
        <time>2016-04-10T15:25:49Z</time>
      </trkpt>
      <trkpt lat="59.085076427834" lon="17.794598015376">
        <ele>29.6</ele>
        <time>2016-04-10T15:25:51Z</time>
      </trkpt>
      <trkpt lat="59.085093107815" lon="17.794510592159">
        <ele>30</ele>
        <time>2016-04-10T15:25:52Z</time>
      </trkpt>
      <trkpt lat="59.085109871615" lon="17.794422163114">
        <ele>30.4</ele>
        <time>2016-04-10T15:25:53Z</time>
      </trkpt>
      <trkpt lat="59.085122779741" lon="17.794332560603">
        <ele>30.8</ele>
        <time>2016-04-10T15:25:54Z</time>
      </trkpt>
      <trkpt lat="59.085136442238" lon="17.794234660011">
        <ele>31.2</ele>
        <time>2016-04-10T15:25:55Z</time>
      </trkpt>
      <trkpt lat="59.085152032572" lon="17.794149416088">
        <ele>31.6</ele>
        <time>2016-04-10T15:25:56Z</time>
      </trkpt>
      <trkpt lat="59.085172652046" lon="17.794065848545">
        <ele>31.6</ele>
        <time>2016-04-10T15:25:57Z</time>
      </trkpt>
      <trkpt lat="59.085193522977" lon="17.793984292658">
        <ele>31.6</ele>
        <time>2016-04-10T15:25:58Z</time>
      </trkpt>
      <trkpt lat="59.085208107483" lon="17.793896534165">
        <ele>31.6</ele>
        <time>2016-04-10T15:25:59Z</time>
      </trkpt>
      <trkpt lat="59.08527373776" lon="17.793533681714">
        <ele>31.6</ele>
        <time>2016-04-10T15:26:03Z</time>
      </trkpt>
      <trkpt lat="59.085389910894" lon="17.792973100242">
        <ele>31.6</ele>
        <time>2016-04-10T15:26:09Z</time>
      </trkpt>
      <trkpt lat="59.085488230581" lon="17.792566578092">
        <ele>31.6</ele>
        <time>2016-04-10T15:26:13Z</time>
      </trkpt>
      <trkpt lat="59.085561153111" lon="17.792371698917">
        <ele>31.6</ele>
        <time>2016-04-10T15:26:15Z</time>
      </trkpt>
      <trkpt lat="59.085810095541" lon="17.791954699392">
        <ele>31.6</ele>
        <time>2016-04-10T15:26:20Z</time>
      </trkpt>
      <trkpt lat="59.08590657121" lon="17.791820337535">
        <ele>31.6</ele>
        <time>2016-04-10T15:26:22Z</time>
      </trkpt>
      <trkpt lat="59.086000197033" lon="17.791715312328">
        <ele>31.6</ele>
        <time>2016-04-10T15:26:24Z</time>
      </trkpt>
      <trkpt lat="59.086270261851" lon="17.791392190083">
        <ele>31.6</ele>
        <time>2016-04-10T15:26:30Z</time>
      </trkpt>
      <trkpt lat="59.086589779879" lon="17.790978794775">
        <ele>31.6</ele>
        <time>2016-04-10T15:26:37Z</time>
      </trkpt>
      <trkpt lat="59.086729170876" lon="17.790747538154">
        <ele>31.6</ele>
        <time>2016-04-10T15:26:40Z</time>
      </trkpt>
      <trkpt lat="59.086837297386" lon="17.790551988427">
        <ele>31.6</ele>
        <time>2016-04-10T15:26:42Z</time>
      </trkpt>
      <trkpt lat="59.086998313685" lon="17.790255520624">
        <ele>31.2</ele>
        <time>2016-04-10T15:26:45Z</time>
      </trkpt>
      <trkpt lat="59.087052460759" lon="17.790151752702">
        <ele>30.8</ele>
        <time>2016-04-10T15:26:46Z</time>
      </trkpt>
      <trkpt lat="59.087105685824" lon="17.790046643676">
        <ele>30.4</ele>
        <time>2016-04-10T15:26:47Z</time>
      </trkpt>
      <trkpt lat="59.087162850382" lon="17.789946228514">
        <ele>30</ele>
        <time>2016-04-10T15:26:48Z</time>
      </trkpt>
      <trkpt lat="59.087224038252" lon="17.789830809751">
        <ele>29.6</ele>
        <time>2016-04-10T15:26:49Z</time>
      </trkpt>
      <trkpt lat="59.087337948273" lon="17.789595194542">
        <ele>29</ele>
        <time>2016-04-10T15:26:51Z</time>
      </trkpt>
      <trkpt lat="59.08739771122" lon="17.789477009752">
        <ele>28.6</ele>
        <time>2016-04-10T15:26:52Z</time>
      </trkpt>
      <trkpt lat="59.08745638452" lon="17.7893673745">
        <ele>27.6</ele>
        <time>2016-04-10T15:26:53Z</time>
      </trkpt>
      <trkpt lat="59.087512710888" lon="17.789255811411">
        <ele>27</ele>
        <time>2016-04-10T15:26:54Z</time>
      </trkpt>
      <trkpt lat="59.087705997502" lon="17.78892229561">
        <ele>27</ele>
        <time>2016-04-10T15:26:57Z</time>
      </trkpt>
      <trkpt lat="59.087906324912" lon="17.788602526125">
        <ele>26.6</ele>
        <time>2016-04-10T15:27:00Z</time>
      </trkpt>
      <trkpt lat="59.087976565234" lon="17.788494902529">
        <ele>26.2</ele>
        <time>2016-04-10T15:27:01Z</time>
      </trkpt>
      <trkpt lat="59.088059629863" lon="17.788406473484">
        <ele>25.6</ele>
        <time>2016-04-10T15:27:02Z</time>
      </trkpt>
      <trkpt lat="59.088152501315" lon="17.788356684998">
        <ele>25.2</ele>
        <time>2016-04-10T15:27:03Z</time>
      </trkpt>
      <trkpt lat="59.088251156278" lon="17.788337658085">
        <ele>24.8</ele>
        <time>2016-04-10T15:27:04Z</time>
      </trkpt>
      <trkpt lat="59.088346961395" lon="17.788327348348">
        <ele>24.4</ele>
        <time>2016-04-10T15:27:05Z</time>
      </trkpt>
      <trkpt lat="59.088446203091" lon="17.788316200421">
        <ele>23.8</ele>
        <time>2016-04-10T15:27:06Z</time>
      </trkpt>
      <trkpt lat="59.088546115339" lon="17.788302370286">
        <ele>23.4</ele>
        <time>2016-04-10T15:27:07Z</time>
      </trkpt>
      <trkpt lat="59.088645357035" lon="17.788287618142">
        <ele>23</ele>
        <time>2016-04-10T15:27:08Z</time>
      </trkpt>
      <trkpt lat="59.088747448577" lon="17.788305723046">
        <ele>22.6</ele>
        <time>2016-04-10T15:27:09Z</time>
      </trkpt>
      <trkpt lat="59.088849204843" lon="17.78833556261">
        <ele>22</ele>
        <time>2016-04-10T15:27:10Z</time>
      </trkpt>
      <trkpt lat="59.088949787643" lon="17.788367497649">
        <ele>21.6</ele>
        <time>2016-04-10T15:27:11Z</time>
      </trkpt>
      <trkpt lat="59.089050705719" lon="17.788402701629">
        <ele>21.2</ele>
        <time>2016-04-10T15:27:12Z</time>
      </trkpt>
      <trkpt lat="59.089155898564" lon="17.78844368912">
        <ele>20.8</ele>
        <time>2016-04-10T15:27:13Z</time>
      </trkpt>
      <trkpt lat="59.089255056441" lon="17.788482664955">
        <ele>20.4</ele>
        <time>2016-04-10T15:27:14Z</time>
      </trkpt>
      <trkpt lat="59.089551775701" lon="17.78860210703">
        <ele>20.4</ele>
        <time>2016-04-10T15:27:17Z</time>
      </trkpt>
      <trkpt lat="59.089650263026" lon="17.788652985163">
        <ele>20</ele>
        <time>2016-04-10T15:27:18Z</time>
      </trkpt>
      <trkpt lat="59.089752270749" lon="17.788714675947">
        <ele>19.4</ele>
        <time>2016-04-10T15:27:19Z</time>
      </trkpt>
      <trkpt lat="59.089848411142" lon="17.788792459979">
        <ele>19</ele>
        <time>2016-04-10T15:27:20Z</time>
      </trkpt>
      <trkpt lat="59.089941869327" lon="17.788884744698">
        <ele>18.6</ele>
        <time>2016-04-10T15:27:21Z</time>
      </trkpt>
      <trkpt lat="59.090031136562" lon="17.788997313615">
        <ele>18</ele>
        <time>2016-04-10T15:27:22Z</time>
      </trkpt>
      <trkpt lat="59.090117302494" lon="17.789116504233">
        <ele>17.6</ele>
        <time>2016-04-10T15:27:23Z</time>
      </trkpt>
      <trkpt lat="59.090203384607" lon="17.789245669312">
        <ele>17.2</ele>
        <time>2016-04-10T15:27:24Z</time>
      </trkpt>
      <trkpt lat="59.090290053453" lon="17.789369721432">
        <ele>16.8</ele>
        <time>2016-04-10T15:27:25Z</time>
      </trkpt>
      <trkpt lat="59.090377392851" lon="17.789492683905">
        <ele>16.4</ele>
        <time>2016-04-10T15:27:26Z</time>
      </trkpt>
      <trkpt lat="59.090465654258" lon="17.789611874523">
        <ele>16</ele>
        <time>2016-04-10T15:27:27Z</time>
      </trkpt>
      <trkpt lat="59.090559950633" lon="17.789725197811">
        <ele>15.4</ele>
        <time>2016-04-10T15:27:28Z</time>
      </trkpt>
      <trkpt lat="59.090648798773" lon="17.789820080919">
        <ele>15</ele>
        <time>2016-04-10T15:27:29Z</time>
      </trkpt>
      <trkpt lat="59.09074041294" lon="17.789910689258">
        <ele>14.4</ele>
        <time>2016-04-10T15:27:30Z</time>
      </trkpt>
      <trkpt lat="59.090833535849" lon="17.789997190466">
        <ele>14</ele>
        <time>2016-04-10T15:27:31Z</time>
      </trkpt>
      <trkpt lat="59.091230921728" lon="17.790264656895">
        <ele>14</ele>
        <time>2016-04-10T15:27:35Z</time>
      </trkpt>
      <trkpt lat="59.091338964419" lon="17.790313355734">
        <ele>13.4</ele>
        <time>2016-04-10T15:27:36Z</time>
      </trkpt>
      <trkpt lat="59.091440888323" lon="17.790359707641">
        <ele>13</ele>
        <time>2016-04-10T15:27:37Z</time>
      </trkpt>
      <trkpt lat="59.091544907702" lon="17.790403712616">
        <ele>12.4</ele>
        <time>2016-04-10T15:27:38Z</time>
      </trkpt>
      <trkpt lat="59.091650016728" lon="17.790444783926">
        <ele>12</ele>
        <time>2016-04-10T15:27:39Z</time>
      </trkpt>
      <trkpt lat="59.091753449374" lon="17.790490297643">
        <ele>11.4</ele>
        <time>2016-04-10T15:27:40Z</time>
      </trkpt>
      <trkpt lat="59.091854283631" lon="17.790535140808">
        <ele>11.4</ele>
        <time>2016-04-10T15:27:41Z</time>
      </trkpt>
      <trkpt lat="59.091953441508" lon="17.790581408896">
        <ele>10.6</ele>
        <time>2016-04-10T15:27:42Z</time>
      </trkpt>
      <trkpt lat="59.092057796163" lon="17.790632035572">
        <ele>10.2</ele>
        <time>2016-04-10T15:27:43Z</time>
      </trkpt>
      <trkpt lat="59.092155780574" lon="17.790675369995">
        <ele>9.8</ele>
        <time>2016-04-10T15:27:44Z</time>
      </trkpt>
      <trkpt lat="59.092252591519" lon="17.790714262011">
        <ele>9.2</ele>
        <time>2016-04-10T15:27:45Z</time>
      </trkpt>
      <trkpt lat="59.092537408481" lon="17.790843007995">
        <ele>9.2</ele>
        <time>2016-04-10T15:27:48Z</time>
      </trkpt>
      <trkpt lat="59.093121291635" lon="17.791092872434">
        <ele>9.2</ele>
        <time>2016-04-10T15:27:54Z</time>
      </trkpt>
      <trkpt lat="59.093309884385" lon="17.791182223488">
        <ele>9.2</ele>
        <time>2016-04-10T15:27:56Z</time>
      </trkpt>
      <trkpt lat="59.093846828899" lon="17.791470225572">
        <ele>9.2</ele>
        <time>2016-04-10T15:28:02Z</time>
      </trkpt>
      <trkpt lat="59.093929390614" lon="17.791522863904">
        <ele>9.2</ele>
        <time>2016-04-10T15:28:03Z</time>
      </trkpt>
      <trkpt lat="59.094091664198" lon="17.791637025382">
        <ele>9.8</ele>
        <time>2016-04-10T15:28:05Z</time>
      </trkpt>
      <trkpt lat="59.094174058275" lon="17.791698967623">
        <ele>10.2</ele>
        <time>2016-04-10T15:28:06Z</time>
      </trkpt>
      <trkpt lat="59.094251087936" lon="17.791762837701">
        <ele>11.4</ele>
        <time>2016-04-10T15:28:07Z</time>
      </trkpt>
      <trkpt lat="59.094326608855" lon="17.791828887073">
        <ele>11.8</ele>
        <time>2016-04-10T15:28:08Z</time>
      </trkpt>
      <trkpt lat="59.094402548869" lon="17.791900971413">
        <ele>11.8</ele>
        <time>2016-04-10T15:28:09Z</time>
      </trkpt>
      <trkpt lat="59.09447706396" lon="17.791974815952">
        <ele>12.2</ele>
        <time>2016-04-10T15:28:10Z</time>
      </trkpt>
      <trkpt lat="59.094549483576" lon="17.792049247224">
        <ele>12.6</ele>
        <time>2016-04-10T15:28:11Z</time>
      </trkpt>
      <trkpt lat="59.094621735554" lon="17.792129126731">
        <ele>13</ele>
        <time>2016-04-10T15:28:12Z</time>
      </trkpt>
      <trkpt lat="59.094693149342" lon="17.792203306546">
        <ele>13.4</ele>
        <time>2016-04-10T15:28:13Z</time>
      </trkpt>
      <trkpt lat="59.094767999709" lon="17.792283186053">
        <ele>13.8</ele>
        <time>2016-04-10T15:28:14Z</time>
      </trkpt>
      <trkpt lat="59.094837066565" lon="17.792362814103">
        <ele>13.8</ele>
        <time>2016-04-10T15:28:15Z</time>
      </trkpt>
      <trkpt lat="59.095320869833" lon="17.792945691429">
        <ele>13.8</ele>
        <time>2016-04-10T15:28:22Z</time>
      </trkpt>
      <trkpt lat="59.095393457087" lon="17.793028420782">
        <ele>13.8</ele>
        <time>2016-04-10T15:28:23Z</time>
      </trkpt>
      <trkpt lat="59.095677100583" lon="17.793305274939">
        <ele>13.8</ele>
        <time>2016-04-10T15:28:27Z</time>
      </trkpt>
      <trkpt lat="59.095824119109" lon="17.793394374536">
        <ele>13.8</ele>
        <time>2016-04-10T15:28:29Z</time>
      </trkpt>
      <trkpt lat="59.096351843533" lon="17.79361280685">
        <ele>13.8</ele>
        <time>2016-04-10T15:28:36Z</time>
      </trkpt>
      <trkpt lat="59.096833299869" lon="17.793874992682">
        <ele>13.8</ele>
        <time>2016-04-10T15:28:42Z</time>
      </trkpt>
      <trkpt lat="59.09734786471" lon="17.794228541224">
        <ele>13.4</ele>
        <time>2016-04-10T15:28:48Z</time>
      </trkpt>
      <trkpt lat="59.097435287927" lon="17.794289980551">
        <ele>12.8</ele>
        <time>2016-04-10T15:28:49Z</time>
      </trkpt>
      <trkpt lat="59.097520783307" lon="17.794350246412">
        <ele>12.4</ele>
        <time>2016-04-10T15:28:50Z</time>
      </trkpt>
      <trkpt lat="59.097609882904" lon="17.794401124545">
        <ele>11.8</ele>
        <time>2016-04-10T15:28:51Z</time>
      </trkpt>
      <trkpt lat="59.097697306121" lon="17.794462647691">
        <ele>11.4</ele>
        <time>2016-04-10T15:28:52Z</time>
      </trkpt>
      <trkpt lat="59.09778539989" lon="17.794525176665">
        <ele>11.4</ele>
        <time>2016-04-10T15:28:53Z</time>
      </trkpt>
      <trkpt lat="59.098047334265" lon="17.79469491014">
        <ele>11</ele>
        <time>2016-04-10T15:28:56Z</time>
      </trkpt>
      <trkpt lat="59.098136266224" lon="17.79475023068">
        <ele>10</ele>
        <time>2016-04-10T15:28:57Z</time>
      </trkpt>
      <trkpt lat="59.098230981694" lon="17.794811670007">
        <ele>9.6</ele>
        <time>2016-04-10T15:28:58Z</time>
      </trkpt>
      <trkpt lat="59.098320416567" lon="17.794866319995">
        <ele>9.2</ele>
        <time>2016-04-10T15:28:59Z</time>
      </trkpt>
      <trkpt lat="59.098410019078" lon="17.794912168988">
        <ele>9.2</ele>
        <time>2016-04-10T15:29:00Z</time>
      </trkpt>
      <trkpt lat="59.098887368283" lon="17.795024067353">
        <ele>9.2</ele>
        <time>2016-04-10T15:29:05Z</time>
      </trkpt>
      <trkpt lat="59.099080906354" lon="17.794965813148">
        <ele>8.6</ele>
        <time>2016-04-10T15:29:07Z</time>
      </trkpt>
      <trkpt lat="59.099174615996" lon="17.794929687159">
        <ele>8.2</ele>
        <time>2016-04-10T15:29:08Z</time>
      </trkpt>
      <trkpt lat="59.099267235991" lon="17.794903284174">
        <ele>7.8</ele>
        <time>2016-04-10T15:29:09Z</time>
      </trkpt>
      <trkpt lat="59.099359353072" lon="17.794886101279">
        <ele>7.4</ele>
        <time>2016-04-10T15:29:10Z</time>
      </trkpt>
      <trkpt lat="59.099454403818" lon="17.794886604193">
        <ele>7</ele>
        <time>2016-04-10T15:29:11Z</time>
      </trkpt>
      <trkpt lat="59.09974341173" lon="17.794992635228">
        <ele>7</ele>
        <time>2016-04-10T15:29:14Z</time>
      </trkpt>
      <trkpt lat="59.100008195951" lon="17.795280469674">
        <ele>7</ele>
        <time>2016-04-10T15:29:17Z</time>
      </trkpt>
      <trkpt lat="59.100234507251" lon="17.795692188602">
        <ele>6.6</ele>
        <time>2016-04-10T15:29:20Z</time>
      </trkpt>
      <trkpt lat="59.100303490288" lon="17.795840967327">
        <ele>6</ele>
        <time>2016-04-10T15:29:21Z</time>
      </trkpt>
      <trkpt lat="59.100372389506" lon="17.79598572274">
        <ele>5</ele>
        <time>2016-04-10T15:29:22Z</time>
      </trkpt>
      <trkpt lat="59.100439779982" lon="17.796130813429">
        <ele>4.6</ele>
        <time>2016-04-10T15:29:23Z</time>
      </trkpt>
      <trkpt lat="59.100730128998" lon="17.796680749888">
        <ele>4.2</ele>
        <time>2016-04-10T15:29:27Z</time>
      </trkpt>
      <trkpt lat="59.100814786188" lon="17.796796587746">
        <ele>3.6</ele>
        <time>2016-04-10T15:29:28Z</time>
      </trkpt>
      <trkpt lat="59.10091603954" lon="17.79689515889">
        <ele>3</ele>
        <time>2016-04-10T15:29:29Z</time>
      </trkpt>
      <trkpt lat="59.101015113598" lon="17.796982498288">
        <ele>2.6</ele>
        <time>2016-04-10T15:29:30Z</time>
      </trkpt>
      <trkpt lat="59.101112176" lon="17.797090038065">
        <ele>2</ele>
        <time>2016-04-10T15:29:31Z</time>
      </trkpt>
      <trkpt lat="59.10120270052" lon="17.79722540575">
        <ele>1.4</ele>
        <time>2016-04-10T15:29:32Z</time>
      </trkpt>
      <trkpt lat="59.101276796516" lon="17.797397653795">
        <ele>0.6</ele>
        <time>2016-04-10T15:29:33Z</time>
      </trkpt>
      <trkpt lat="59.101322729328" lon="17.797598316481">
        <ele>0</ele>
        <time>2016-04-10T15:29:34Z</time>
      </trkpt>
      <trkpt lat="59.101337816748" lon="17.797810127094">
        <ele>0</ele>
        <time>2016-04-10T15:29:35Z</time>
      </trkpt>
      <trkpt lat="59.101326668821" lon="17.798030990159">
        <ele>0</ele>
        <time>2016-04-10T15:29:36Z</time>
      </trkpt>
      <trkpt lat="59.101305211157" lon="17.798252607595">
        <ele>0</ele>
        <time>2016-04-10T15:29:37Z</time>
      </trkpt>
      <trkpt lat="59.101279814" lon="17.798473303022">
        <ele>0</ele>
        <time>2016-04-10T15:29:38Z</time>
      </trkpt>
      <trkpt lat="59.101251064083" lon="17.798696848295">
        <ele>0</ele>
        <time>2016-04-10T15:29:39Z</time>
      </trkpt>
      <trkpt lat="59.101228768229" lon="17.798919303921">
        <ele>0</ele>
        <time>2016-04-10T15:29:40Z</time>
      </trkpt>
      <trkpt lat="59.1012211407" lon="17.799149722352">
        <ele>0</ele>
        <time>2016-04-10T15:29:41Z</time>
      </trkpt>
      <trkpt lat="59.101230276971" lon="17.79937955405">
        <ele>0</ele>
        <time>2016-04-10T15:29:42Z</time>
      </trkpt>
      <trkpt lat="59.101252489006" lon="17.799617767648">
        <ele>0</ele>
        <time>2016-04-10T15:29:43Z</time>
      </trkpt>
      <trkpt lat="59.101280484552" lon="17.799837373428">
        <ele>0</ele>
        <time>2016-04-10T15:29:44Z</time>
      </trkpt>
      <trkpt lat="59.101308480098" lon="17.800057230665">
        <ele>0</ele>
        <time>2016-04-10T15:29:45Z</time>
      </trkpt>
      <trkpt lat="59.101338152024" lon="17.800259988826">
        <ele>0</ele>
        <time>2016-04-10T15:29:46Z</time>
      </trkpt>
      <trkpt lat="59.101374110375" lon="17.80044908449">
        <ele>0</ele>
        <time>2016-04-10T15:29:47Z</time>
      </trkpt>
      <trkpt lat="59.101421049015" lon="17.800630217349">
        <ele>0</ele>
        <time>2016-04-10T15:29:48Z</time>
      </trkpt>
      <trkpt lat="59.101572677586" lon="17.800920482546">
        <ele>0</ele>
        <time>2016-04-10T15:29:50Z</time>
      </trkpt>
      <trkpt lat="59.101775938661" lon="17.801058616258">
        <ele>0</ele>
        <time>2016-04-10T15:29:52Z</time>
      </trkpt>
      <trkpt lat="59.101887837026" lon="17.80105928681">
        <ele>0</ele>
        <time>2016-04-10T15:29:53Z</time>
      </trkpt>
      <trkpt lat="59.101999232477" lon="17.801040259897">
        <ele>0</ele>
        <time>2016-04-10T15:29:54Z</time>
      </trkpt>
      <trkpt lat="59.10211297486" lon="17.801007402849">
        <ele>0</ele>
        <time>2016-04-10T15:29:55Z</time>
      </trkpt>
      <trkpt lat="59.102224705587" lon="17.800974881077">
        <ele>0</ele>
        <time>2016-04-10T15:29:56Z</time>
      </trkpt>
      <trkpt lat="59.102339118522" lon="17.800930289369">
        <ele>0</ele>
        <time>2016-04-10T15:29:57Z</time>
      </trkpt>
      <trkpt lat="59.102457051855" lon="17.800868598585">
        <ele>0</ele>
        <time>2016-04-10T15:29:58Z</time>
      </trkpt>
      <trkpt lat="59.102567525297" lon="17.800801040471">
        <ele>0</ele>
        <time>2016-04-10T15:29:59Z</time>
      </trkpt>
      <trkpt lat="59.102676657635" lon="17.800710432132">
        <ele>0</ele>
        <time>2016-04-10T15:30:00Z</time>
      </trkpt>
      <trkpt lat="59.102777324254" lon="17.800601383613">
        <ele>0</ele>
        <time>2016-04-10T15:30:01Z</time>
      </trkpt>
      <trkpt lat="59.102980585329" lon="17.800392674303">
        <ele>0</ele>
        <time>2016-04-10T15:30:03Z</time>
      </trkpt>
      <trkpt lat="59.103079827025" lon="17.800277758454">
        <ele>0</ele>
        <time>2016-04-10T15:30:04Z</time>
      </trkpt>
      <trkpt lat="59.103179906911" lon="17.800157478189">
        <ele>0</ele>
        <time>2016-04-10T15:30:05Z</time>
      </trkpt>
      <trkpt lat="59.103285099756" lon="17.800034599535">
        <ele>0</ele>
        <time>2016-04-10T15:30:06Z</time>
      </trkpt>
      <trkpt lat="59.10338953823" lon="17.799923371722">
        <ele>0</ele>
        <time>2016-04-10T15:30:07Z</time>
      </trkpt>
      <trkpt lat="59.103491043039" lon="17.799812227728">
        <ele>0</ele>
        <time>2016-04-10T15:30:08Z</time>
      </trkpt>
      <trkpt lat="59.103593134581" lon="17.799705526141">
        <ele>0</ele>
        <time>2016-04-10T15:30:09Z</time>
      </trkpt>
      <trkpt lat="59.103698327426" lon="17.79960335078">
        <ele>0</ele>
        <time>2016-04-10T15:30:10Z</time>
      </trkpt>
      <trkpt lat="59.103804861375" lon="17.799504779636">
        <ele>0</ele>
        <time>2016-04-10T15:30:11Z</time>
      </trkpt>
      <trkpt lat="59.104022287861" lon="17.799320210198">
        <ele>0</ele>
        <time>2016-04-10T15:30:13Z</time>
      </trkpt>
      <trkpt lat="59.104138628633" lon="17.799237145569">
        <ele>0</ele>
        <time>2016-04-10T15:30:14Z</time>
      </trkpt>
      <trkpt lat="59.104253041568" lon="17.799174868052">
        <ele>0</ele>
        <time>2016-04-10T15:30:15Z</time>
      </trkpt>
      <trkpt lat="59.104370052892" lon="17.799139496434">
        <ele>0</ele>
        <time>2016-04-10T15:30:16Z</time>
      </trkpt>
      <trkpt lat="59.104488992053" lon="17.799134383475">
        <ele>0</ele>
        <time>2016-04-10T15:30:17Z</time>
      </trkpt>
      <trkpt lat="59.10460407554" lon="17.799153829483">
        <ele>0</ele>
        <time>2016-04-10T15:30:18Z</time>
      </trkpt>
      <trkpt lat="59.104720164855" lon="17.799184842513">
        <ele>0</ele>
        <time>2016-04-10T15:30:19Z</time>
      </trkpt>
      <trkpt lat="59.104956199159" lon="17.799278552155">
        <ele>0</ele>
        <time>2016-04-10T15:30:21Z</time>
      </trkpt>
      <trkpt lat="59.105322236732" lon="17.799451386933">
        <ele>0</ele>
        <time>2016-04-10T15:30:24Z</time>
      </trkpt>
      <trkpt lat="59.10543975097" lon="17.799529254784">
        <ele>0</ele>
        <time>2016-04-10T15:30:25Z</time>
      </trkpt>
      <trkpt lat="59.105553074258" lon="17.799623886435">
        <ele>0</ele>
        <time>2016-04-10T15:30:26Z</time>
      </trkpt>
      <trkpt lat="59.105657848008" lon="17.799719943009">
        <ele>0</ele>
        <time>2016-04-10T15:30:27Z</time>
      </trkpt>
      <trkpt lat="59.105773937323" lon="17.799835697048">
        <ele>0</ele>
        <time>2016-04-10T15:30:28Z</time>
      </trkpt>
      <trkpt lat="59.105882231471" lon="17.799942147178">
        <ele>0</ele>
        <time>2016-04-10T15:30:29Z</time>
      </trkpt>
      <trkpt lat="59.105991112352" lon="17.800045412186">
        <ele>0</ele>
        <time>2016-04-10T15:30:30Z</time>
      </trkpt>
      <trkpt lat="59.10609689193" lon="17.800148761013">
        <ele>0</ele>
        <time>2016-04-10T15:30:31Z</time>
      </trkpt>
      <trkpt lat="59.106201162766" lon="17.800247415976">
        <ele>0</ele>
        <time>2016-04-10T15:30:32Z</time>
      </trkpt>
      <trkpt lat="59.10630308667" lon="17.800342969636">
        <ele>0</ele>
        <time>2016-04-10T15:30:33Z</time>
      </trkpt>
      <trkpt lat="59.106780771151" lon="17.800811350208">
        <ele>0</ele>
        <time>2016-04-10T15:30:38Z</time>
      </trkpt>
      <trkpt lat="59.106944050563" lon="17.801012012894">
        <ele>0</ele>
        <time>2016-04-10T15:30:40Z</time>
      </trkpt>
      <trkpt lat="59.107021164043" lon="17.801113936798">
        <ele>0</ele>
        <time>2016-04-10T15:30:41Z</time>
      </trkpt>
      <trkpt lat="59.107097271695" lon="17.80122273386">
        <ele>0</ele>
        <time>2016-04-10T15:30:42Z</time>
      </trkpt>
      <trkpt lat="59.10717061332" lon="17.801327591429">
        <ele>0</ele>
        <time>2016-04-10T15:30:43Z</time>
      </trkpt>
      <trkpt lat="59.107242781479" lon="17.801433287188">
        <ele>0</ele>
        <time>2016-04-10T15:30:44Z</time>
      </trkpt>
      <trkpt lat="59.107316877475" lon="17.80154292244">
        <ele>0</ele>
        <time>2016-04-10T15:30:45Z</time>
      </trkpt>
      <trkpt lat="59.107384938503" lon="17.801647360914">
        <ele>0</ele>
        <time>2016-04-10T15:30:46Z</time>
      </trkpt>
      <trkpt lat="59.107454340635" lon="17.801752637578">
        <ele>0</ele>
        <time>2016-04-10T15:30:47Z</time>
      </trkpt>
      <trkpt lat="59.107525670604" lon="17.801856154043">
        <ele>0</ele>
        <time>2016-04-10T15:30:48Z</time>
      </trkpt>
      <trkpt lat="59.107821132579" lon="17.802311710308">
        <ele>0</ele>
        <time>2016-04-10T15:30:52Z</time>
      </trkpt>
      <trkpt lat="59.107890534711" lon="17.802429643641">
        <ele>0</ele>
        <time>2016-04-10T15:30:53Z</time>
      </trkpt>
      <trkpt lat="59.107955242979" lon="17.802550091544">
        <ele>0</ele>
        <time>2016-04-10T15:30:54Z</time>
      </trkpt>
      <trkpt lat="59.108014586831" lon="17.80267699351">
        <ele>0</ele>
        <time>2016-04-10T15:30:55Z</time>
      </trkpt>
      <trkpt lat="59.108069236819" lon="17.802807080598">
        <ele>0</ele>
        <time>2016-04-10T15:30:56Z</time>
      </trkpt>
      <trkpt lat="59.108119025305" lon="17.802931216537">
        <ele>0</ele>
        <time>2016-04-10T15:30:57Z</time>
      </trkpt>
      <trkpt lat="59.108334691592" lon="17.803531192939">
        <ele>0</ele>
        <time>2016-04-10T15:31:02Z</time>
      </trkpt>
      <trkpt lat="59.108374086522" lon="17.803632362472">
        <ele>0</ele>
        <time>2016-04-10T15:31:03Z</time>
      </trkpt>
      <trkpt lat="59.108411553615" lon="17.803727664675">
        <ele>0</ele>
        <time>2016-04-10T15:31:04Z</time>
      </trkpt>
      <trkpt lat="59.108447847242" lon="17.803818273014">
        <ele>0</ele>
        <time>2016-04-10T15:31:05Z</time>
      </trkpt>
      <trkpt lat="59.108488164181" lon="17.803894715942">
        <ele>0</ele>
        <time>2016-04-10T15:31:06Z</time>
      </trkpt>
      <trkpt lat="59.108529403129" lon="17.803968141386">
        <ele>0</ele>
        <time>2016-04-10T15:31:07Z</time>
      </trkpt>
      <trkpt lat="59.108574330113" lon="17.80404324321">
        <ele>0</ele>
        <time>2016-04-10T15:31:08Z</time>
      </trkpt>
      <trkpt lat="59.108619089459" lon="17.804112477704">
        <ele>0</ele>
        <time>2016-04-10T15:31:09Z</time>
      </trkpt>
      <trkpt lat="59.108667285384" lon="17.804181209284">
        <ele>0</ele>
        <time>2016-04-10T15:31:10Z</time>
      </trkpt>
      <trkpt lat="59.108719504621" lon="17.804244995543">
        <ele>0</ele>
        <time>2016-04-10T15:31:11Z</time>
      </trkpt>
      <trkpt lat="59.108832660271" lon="17.804366616912">
        <ele>0</ele>
        <time>2016-04-10T15:31:13Z</time>
      </trkpt>
      <trkpt lat="59.109231973987" lon="17.804628383649">
        <ele>0</ele>
        <time>2016-04-10T15:31:19Z</time>
      </trkpt>
      <trkpt lat="59.10968853608" lon="17.804729553182">
        <ele>0</ele>
        <time>2016-04-10T15:31:25Z</time>
      </trkpt>
      <trkpt lat="59.110169321864" lon="17.804926192556">
        <ele>0</ele>
        <time>2016-04-10T15:31:31Z</time>
      </trkpt>
      <trkpt lat="59.110603755741" lon="17.805235652304">
        <ele>0</ele>
        <time>2016-04-10T15:31:37Z</time>
      </trkpt>
      <trkpt lat="59.111071465761" lon="17.805483002173">
        <ele>0</ele>
        <time>2016-04-10T15:31:43Z</time>
      </trkpt>
      <trkpt lat="59.111487040363" lon="17.805595319633">
        <ele>0</ele>
        <time>2016-04-10T15:31:48Z</time>
      </trkpt>
      <trkpt lat="59.111571278458" lon="17.805619208048">
        <ele>0</ele>
        <time>2016-04-10T15:31:49Z</time>
      </trkpt>
      <trkpt lat="59.111654678363" lon="17.805641336264">
        <ele>0</ele>
        <time>2016-04-10T15:31:50Z</time>
      </trkpt>
      <trkpt lat="59.111737491535" lon="17.805661620462">
        <ele>0</ele>
        <time>2016-04-10T15:31:51Z</time>
      </trkpt>
      <trkpt lat="59.11222825178" lon="17.805742086702">
        <ele>0</ele>
        <time>2016-04-10T15:31:57Z</time>
      </trkpt>
      <trkpt lat="59.112815906789" lon="17.805792294283">
        <ele>0</ele>
        <time>2016-04-10T15:32:04Z</time>
      </trkpt>
      <trkpt lat="59.112900312522" lon="17.805800592364">
        <ele>0</ele>
        <time>2016-04-10T15:32:05Z</time>
      </trkpt>
      <trkpt lat="59.113480256183" lon="17.80585373361">
        <ele>0</ele>
        <time>2016-04-10T15:32:12Z</time>
      </trkpt>
      <trkpt lat="59.11404460951" lon="17.805904695562">
        <ele>0</ele>
        <time>2016-04-10T15:32:19Z</time>
      </trkpt>
      <trkpt lat="59.114123483189" lon="17.805910814349">
        <ele>0</ele>
        <time>2016-04-10T15:32:20Z</time>
      </trkpt>
      <trkpt lat="59.114461692854" lon="17.805918944792">
        <ele>0</ele>
        <time>2016-04-10T15:32:24Z</time>
      </trkpt>
      <trkpt lat="59.114547774967" lon="17.80590821596">
        <ele>0</ele>
        <time>2016-04-10T15:32:25Z</time>
      </trkpt>
      <trkpt lat="59.114636790745" lon="17.805895475472">
        <ele>0</ele>
        <time>2016-04-10T15:32:26Z</time>
      </trkpt>
      <trkpt lat="59.11472605798" lon="17.805880471871">
        <ele>0</ele>
        <time>2016-04-10T15:32:27Z</time>
      </trkpt>
      <trkpt lat="59.114815576672" lon="17.805858343655">
        <ele>0</ele>
        <time>2016-04-10T15:32:28Z</time>
      </trkpt>
      <trkpt lat="59.115089916259" lon="17.805760862158">
        <ele>0</ele>
        <time>2016-04-10T15:32:31Z</time>
      </trkpt>
      <trkpt lat="59.115178345304" lon="17.805716018993">
        <ele>0</ele>
        <time>2016-04-10T15:32:32Z</time>
      </trkpt>
      <trkpt lat="59.115266606711" lon="17.805669918543">
        <ele>0</ele>
        <time>2016-04-10T15:32:33Z</time>
      </trkpt>
      <trkpt lat="59.115354868118" lon="17.805614933279">
        <ele>0</ele>
        <time>2016-04-10T15:32:34Z</time>
      </trkpt>
      <trkpt lat="59.115443632439" lon="17.805554918875">
        <ele>0</ele>
        <time>2016-04-10T15:32:35Z</time>
      </trkpt>
      <trkpt lat="59.11561956852" lon="17.805418293905">
        <ele>0</ele>
        <time>2016-04-10T15:32:37Z</time>
      </trkpt>
      <trkpt lat="59.116090379843" lon="17.804955864482">
        <ele>0</ele>
        <time>2016-04-10T15:32:43Z</time>
      </trkpt>
      <trkpt lat="59.116607459254" lon="17.804396288838">
        <ele>0</ele>
        <time>2016-04-10T15:32:50Z</time>
      </trkpt>
      <trkpt lat="59.117019848734" lon="17.80403821407">
        <ele>0</ele>
        <time>2016-04-10T15:32:56Z</time>
      </trkpt>
      <trkpt lat="59.117359064227" lon="17.803831516416">
        <ele>0</ele>
        <time>2016-04-10T15:33:01Z</time>
      </trkpt>
      <trkpt lat="59.117428131083" lon="17.803802515042">
        <ele>0</ele>
        <time>2016-04-10T15:33:02Z</time>
      </trkpt>
      <trkpt lat="59.117497868491" lon="17.803774268039">
        <ele>0</ele>
        <time>2016-04-10T15:33:03Z</time>
      </trkpt>
      <trkpt lat="59.117567270623" lon="17.803744177018">
        <ele>0</ele>
        <time>2016-04-10T15:33:04Z</time>
      </trkpt>
      <trkpt lat="59.11800421907" lon="17.803663962235">
        <ele>0</ele>
        <time>2016-04-10T15:33:10Z</time>
      </trkpt>
      <trkpt lat="59.118371597747" lon="17.803674858705">
        <ele>0</ele>
        <time>2016-04-10T15:33:15Z</time>
      </trkpt>
      <trkpt lat="59.118442760078" lon="17.803683240605">
        <ele>0</ele>
        <time>2016-04-10T15:33:16Z</time>
      </trkpt>
      <trkpt lat="59.118515012056" lon="17.803691454867">
        <ele>0</ele>
        <time>2016-04-10T15:33:17Z</time>
      </trkpt>
      <trkpt lat="59.118586928758" lon="17.803691454867">
        <ele>0</ele>
        <time>2016-04-10T15:33:18Z</time>
      </trkpt>
      <trkpt lat="59.118659013098" lon="17.803693215066">
        <ele>0</ele>
        <time>2016-04-10T15:33:19Z</time>
      </trkpt>
      <trkpt lat="59.119181624563" lon="17.803732693815">
        <ele>0</ele>
        <time>2016-04-10T15:33:26Z</time>
      </trkpt>
      <trkpt lat="59.11979124015" lon="17.803836545556">
        <ele>0</ele>
        <time>2016-04-10T15:33:34Z</time>
      </trkpt>
      <trkpt lat="59.119866761069" lon="17.803860685428">
        <ele>0</ele>
        <time>2016-04-10T15:33:35Z</time>
      </trkpt>
      <trkpt lat="59.120234810298" lon="17.804035028948">
        <ele>0</ele>
        <time>2016-04-10T15:33:40Z</time>
      </trkpt>
      <trkpt lat="59.120304463887" lon="17.804074088602">
        <ele>0</ele>
        <time>2016-04-10T15:33:41Z</time>
      </trkpt>
      <trkpt lat="59.120373111648" lon="17.804114908455">
        <ele>0</ele>
        <time>2016-04-10T15:33:42Z</time>
      </trkpt>
      <trkpt lat="59.1204408374" lon="17.804152710824">
        <ele>0</ele>
        <time>2016-04-10T15:33:43Z</time>
      </trkpt>
      <trkpt lat="59.120512586464" lon="17.804195961428">
        <ele>0</ele>
        <time>2016-04-10T15:33:44Z</time>
      </trkpt>
      <trkpt lat="59.120933022568" lon="17.804494021792">
        <ele>0</ele>
        <time>2016-04-10T15:33:50Z</time>
      </trkpt>
      <trkpt lat="59.12125639627" lon="17.804883528685">
        <ele>0</ele>
        <time>2016-04-10T15:33:55Z</time>
      </trkpt>
      <trkpt lat="59.121565017828" lon="17.805481744888">
        <ele>0</ele>
        <time>2016-04-10T15:34:01Z</time>
      </trkpt>
      <trkpt lat="59.121884871132" lon="17.806433509633">
        <ele>0</ele>
        <time>2016-04-10T15:34:09Z</time>
      </trkpt>
      <trkpt lat="59.122126018395" lon="17.807296090962">
        <ele>0</ele>
        <time>2016-04-10T15:34:16Z</time>
      </trkpt>
      <trkpt lat="59.122386444028" lon="17.808305690817">
        <ele>0</ele>
        <time>2016-04-10T15:34:24Z</time>
      </trkpt>
      <trkpt lat="59.122566068145" lon="17.808900051346">
        <ele>0</ele>
        <time>2016-04-10T15:34:28Z</time>
      </trkpt>
      <trkpt lat="59.122611833319" lon="17.80905478122">
        <ele>0</ele>
        <time>2016-04-10T15:34:29Z</time>
      </trkpt>
      <trkpt lat="59.12266036452" lon="17.809216468071">
        <ele>0</ele>
        <time>2016-04-10T15:34:30Z</time>
      </trkpt>
      <trkpt lat="59.122703279848" lon="17.809370443574">
        <ele>0</ele>
        <time>2016-04-10T15:34:31Z</time>
      </trkpt>
      <trkpt lat="59.122743680606" lon="17.809530621683">
        <ele>0</ele>
        <time>2016-04-10T15:34:32Z</time>
      </trkpt>
      <trkpt lat="59.122837390248" lon="17.809996990599">
        <ele>0</ele>
        <time>2016-04-10T15:34:35Z</time>
      </trkpt>
      <trkpt lat="59.122941577265" lon="17.810748092658">
        <ele>0</ele>
        <time>2016-04-10T15:34:40Z</time>
      </trkpt>
      <trkpt lat="59.12295876016" lon="17.810896368469">
        <ele>0</ele>
        <time>2016-04-10T15:34:41Z</time>
      </trkpt>
      <trkpt lat="59.122976110693" lon="17.811042464986">
        <ele>0</ele>
        <time>2016-04-10T15:34:42Z</time>
      </trkpt>
      <trkpt lat="59.122988683543" lon="17.811191243711">
        <ele>0</ele>
        <time>2016-04-10T15:34:43Z</time>
      </trkpt>
      <trkpt lat="59.123037466201" lon="17.811775797417">
        <ele>0</ele>
        <time>2016-04-10T15:34:47Z</time>
      </trkpt>
      <trkpt lat="59.12306101934" lon="17.811919798459">
        <ele>0</ele>
        <time>2016-04-10T15:34:48Z</time>
      </trkpt>
      <trkpt lat="59.123093541112" lon="17.812061620207">
        <ele>0</ele>
        <time>2016-04-10T15:34:49Z</time>
      </trkpt>
      <trkpt lat="59.12313226549" lon="17.812201514118">
        <ele>0</ele>
        <time>2016-04-10T15:34:50Z</time>
      </trkpt>
      <trkpt lat="59.123177108655" lon="17.812356663087">
        <ele>0</ele>
        <time>2016-04-10T15:34:51Z</time>
      </trkpt>
      <trkpt lat="59.123232513014" lon="17.812493539514">
        <ele>0</ele>
        <time>2016-04-10T15:34:52Z</time>
      </trkpt>
      <trkpt lat="59.123296299273" lon="17.812608455363">
        <ele>0</ele>
        <time>2016-04-10T15:34:53Z</time>
      </trkpt>
      <trkpt lat="59.123518251985" lon="17.812897630913">
        <ele>0</ele>
        <time>2016-04-10T15:34:56Z</time>
      </trkpt>
      <trkpt lat="59.123599724053" lon="17.812992765478">
        <ele>0</ele>
        <time>2016-04-10T15:34:57Z</time>
      </trkpt>
      <trkpt lat="59.123767110596" lon="17.813196361829">
        <ele>0</ele>
        <time>2016-04-10T15:34:59Z</time>
      </trkpt>
      <trkpt lat="59.123916224597" lon="17.81344605863">
        <ele>0</ele>
        <time>2016-04-10T15:35:01Z</time>
      </trkpt>
      <trkpt lat="59.123972634784" lon="17.813575642804">
        <ele>0</ele>
        <time>2016-04-10T15:35:02Z</time>
      </trkpt>
      <trkpt lat="59.124024518745" lon="17.813708998833">
        <ele>0</ele>
        <time>2016-04-10T15:35:03Z</time>
      </trkpt>
      <trkpt lat="59.124074977783" lon="17.813841600491">
        <ele>0</ele>
        <time>2016-04-10T15:35:04Z</time>
      </trkpt>
      <trkpt lat="59.124122838432" lon="17.813972106674">
        <ele>0</ele>
        <time>2016-04-10T15:35:05Z</time>
      </trkpt>
      <trkpt lat="59.124166256674" lon="17.814105378884">
        <ele>0</ele>
        <time>2016-04-10T15:35:06Z</time>
      </trkpt>
      <trkpt lat="59.124375804174" lon="17.814598066966">
        <ele>0</ele>
        <time>2016-04-10T15:35:10Z</time>
      </trkpt>
      <trkpt lat="59.124481248476" lon="17.814829826501">
        <ele>0</ele>
        <time>2016-04-10T15:35:12Z</time>
      </trkpt>
      <trkpt lat="59.124541430518" lon="17.814947759834">
        <ele>0</ele>
        <time>2016-04-10T15:35:13Z</time>
      </trkpt>
      <trkpt lat="59.12460747989" lon="17.815064100606">
        <ele>0</ele>
        <time>2016-04-10T15:35:14Z</time>
      </trkpt>
      <trkpt lat="59.124668583941" lon="17.815166275967">
        <ele>0</ele>
        <time>2016-04-10T15:35:15Z</time>
      </trkpt>
      <trkpt lat="59.12472985563" lon="17.815264428016">
        <ele>0</ele>
        <time>2016-04-10T15:35:16Z</time>
      </trkpt>
      <trkpt lat="59.12478936712" lon="17.815362412427">
        <ele>0</ele>
        <time>2016-04-10T15:35:17Z</time>
      </trkpt>
      <trkpt lat="59.124850471171" lon="17.815464168693">
        <ele>0</ele>
        <time>2016-04-10T15:35:18Z</time>
      </trkpt>
      <trkpt lat="59.124919118932" lon="17.815572127565">
        <ele>0</ele>
        <time>2016-04-10T15:35:19Z</time>
      </trkpt>
      <trkpt lat="59.124986593227" lon="17.815674722021">
        <ele>0</ele>
        <time>2016-04-10T15:35:20Z</time>
      </trkpt>
      <trkpt lat="59.125124726939" lon="17.815903212615">
        <ele>0</ele>
        <time>2016-04-10T15:35:22Z</time>
      </trkpt>
      <trkpt lat="59.125320025209" lon="17.816246786696">
        <ele>0</ele>
        <time>2016-04-10T15:35:25Z</time>
      </trkpt>
      <trkpt lat="59.125381715993" lon="17.816364217115">
        <ele>0</ele>
        <time>2016-04-10T15:35:26Z</time>
      </trkpt>
      <trkpt lat="59.125443322958" lon="17.816476450756">
        <ele>0</ele>
        <time>2016-04-10T15:35:27Z</time>
      </trkpt>
      <trkpt lat="59.125502834448" lon="17.816587175655">
        <ele>0</ele>
        <time>2016-04-10T15:35:28Z</time>
      </trkpt>
      <trkpt lat="59.125563938499" lon="17.816696140355">
        <ele>0</ele>
        <time>2016-04-10T15:35:29Z</time>
      </trkpt>
      <trkpt lat="59.125627054206" lon="17.816809044548">
        <ele>0</ele>
        <time>2016-04-10T15:35:30Z</time>
      </trkpt>
      <trkpt lat="59.126047322672" lon="17.817550004508">
        <ele>0</ele>
        <time>2016-04-10T15:35:37Z</time>
      </trkpt>
      <trkpt lat="59.126163914901" lon="17.817741195647">
        <ele>0</ele>
        <time>2016-04-10T15:35:39Z</time>
      </trkpt>
      <trkpt lat="59.126562725703" lon="17.818453070414">
        <ele>0</ele>
        <time>2016-04-10T15:35:46Z</time>
      </trkpt>
      <trkpt lat="59.127009397154" lon="17.819250272923">
        <ele>0</ele>
        <time>2016-04-10T15:35:54Z</time>
      </trkpt>
      <trkpt lat="59.127494290069" lon="17.820168677706">
        <ele>0</ele>
        <time>2016-04-10T15:36:03Z</time>
      </trkpt>
      <trkpt lat="59.127898800563" lon="17.820912822788">
        <ele>0</ele>
        <time>2016-04-10T15:36:10Z</time>
      </trkpt>
      <trkpt lat="59.127956300397" lon="17.821011896846">
        <ele>0</ele>
        <time>2016-04-10T15:36:11Z</time>
      </trkpt>
      <trkpt lat="59.128378329062" lon="17.821633917645">
        <ele>0</ele>
        <time>2016-04-10T15:36:18Z</time>
      </trkpt>
      <trkpt lat="59.128751072155" lon="17.822130377582">
        <ele>0</ele>
        <time>2016-04-10T15:36:24Z</time>
      </trkpt>
      <trkpt lat="59.129210232637" lon="17.822800091392">
        <ele>0</ele>
        <time>2016-04-10T15:36:31Z</time>
      </trkpt>
      <trkpt lat="59.129335793499" lon="17.822991701626">
        <ele>0</ele>
        <time>2016-04-10T15:36:33Z</time>
      </trkpt>
      <trkpt lat="59.129395724084" lon="17.823095553367">
        <ele>0</ele>
        <time>2016-04-10T15:36:34Z</time>
      </trkpt>
      <trkpt lat="59.129459342705" lon="17.823185994068">
        <ele>0</ele>
        <time>2016-04-10T15:36:35Z</time>
      </trkpt>
      <trkpt lat="59.129524050973" lon="17.823267466136">
        <ele>0</ele>
        <time>2016-04-10T15:36:36Z</time>
      </trkpt>
      <trkpt lat="59.129590687078" lon="17.823347513281">
        <ele>0</ele>
        <time>2016-04-10T15:36:37Z</time>
      </trkpt>
      <trkpt lat="59.13005655308" lon="17.823777672389">
        <ele>0</ele>
        <time>2016-04-10T15:36:44Z</time>
      </trkpt>
      <trkpt lat="59.13017976701" lon="17.823860653199">
        <ele>0</ele>
        <time>2016-04-10T15:36:46Z</time>
      </trkpt>
      <trkpt lat="59.130237937396" lon="17.823905664002">
        <ele>0</ele>
        <time>2016-04-10T15:36:47Z</time>
      </trkpt>
      <trkpt lat="59.130295353411" lon="17.823953692289">
        <ele>0</ele>
        <time>2016-04-10T15:36:48Z</time>
      </trkpt>
      <trkpt lat="59.130349668123" lon="17.823996691436">
        <ele>0</ele>
        <time>2016-04-10T15:36:49Z</time>
      </trkpt>
      <trkpt lat="59.130405323939" lon="17.824041702239">
        <ele>0</ele>
        <time>2016-04-10T15:36:50Z</time>
      </trkpt>
      <trkpt lat="59.130460728298" lon="17.824089227612">
        <ele>0</ele>
        <time>2016-04-10T15:36:51Z</time>
      </trkpt>
      <trkpt lat="59.130516803209" lon="17.824140692478">
        <ele>0</ele>
        <time>2016-04-10T15:36:52Z</time>
      </trkpt>
      <trkpt lat="59.130578326355" lon="17.824198862864">
        <ele>0</ele>
        <time>2016-04-10T15:36:53Z</time>
      </trkpt>
      <trkpt lat="59.130638173121" lon="17.82426038601">
        <ele>0</ele>
        <time>2016-04-10T15:36:54Z</time>
      </trkpt>
      <trkpt lat="59.130683938295" lon="17.824335906929">
        <ele>0</ele>
        <time>2016-04-10T15:36:55Z</time>
      </trkpt>
      <trkpt lat="59.130738336826" lon="17.824412014581">
        <ele>0</ele>
        <time>2016-04-10T15:36:56Z</time>
      </trkpt>
      <trkpt lat="59.130783766724" lon="17.824492983735">
        <ele>0</ele>
        <time>2016-04-10T15:36:57Z</time>
      </trkpt>
      <trkpt lat="59.130918882952" lon="17.824786098778">
        <ele>0</ele>
        <time>2016-04-10T15:37:00Z</time>
      </trkpt>
      <trkpt lat="59.130968419981" lon="17.824881065705">
        <ele>0</ele>
        <time>2016-04-10T15:37:01Z</time>
      </trkpt>
      <trkpt lat="59.131160616948" lon="17.825256910101">
        <ele>0</ele>
        <time>2016-04-10T15:37:05Z</time>
      </trkpt>
      <trkpt lat="59.131472004533" lon="17.825901226754">
        <ele>0</ele>
        <time>2016-04-10T15:37:11Z</time>
      </trkpt>
      <trkpt lat="59.131789846181" lon="17.826585944165">
        <ele>0</ele>
        <time>2016-04-10T15:37:17Z</time>
      </trkpt>
      <trkpt lat="59.132146076931" lon="17.827232775388">
        <ele>0</ele>
        <time>2016-04-10T15:37:23Z</time>
      </trkpt>
      <trkpt lat="59.1325778286" lon="17.827914223858">
        <ele>0</ele>
        <time>2016-04-10T15:37:30Z</time>
      </trkpt>
      <trkpt lat="59.1330053055" lon="17.828568598791">
        <ele>0</ele>
        <time>2016-04-10T15:37:37Z</time>
      </trkpt>
      <trkpt lat="59.133472847882" lon="17.829254992582">
        <ele>0</ele>
        <time>2016-04-10T15:37:45Z</time>
      </trkpt>
      <trkpt lat="59.133531605001" lon="17.829345768559">
        <ele>0</ele>
        <time>2016-04-10T15:37:46Z</time>
      </trkpt>
      <trkpt lat="59.133808040063" lon="17.82973628128">
        <ele>0</ele>
        <time>2016-04-10T15:37:51Z</time>
      </trkpt>
      <trkpt lat="59.133863779698" lon="17.829811550742">
        <ele>0</ele>
        <time>2016-04-10T15:37:52Z</time>
      </trkpt>
      <trkpt lat="59.133922452998" lon="17.829888077489">
        <ele>0</ele>
        <time>2016-04-10T15:37:53Z</time>
      </trkpt>
      <trkpt lat="59.133982467402" lon="17.829961335295">
        <ele>0</ele>
        <time>2016-04-10T15:37:54Z</time>
      </trkpt>
      <trkpt lat="59.134040051055" lon="17.830032413807">
        <ele>0</ele>
        <time>2016-04-10T15:37:55Z</time>
      </trkpt>
      <trkpt lat="59.134194864748" lon="17.830245397886">
        <ele>0</ele>
        <time>2016-04-10T15:37:58Z</time>
      </trkpt>
      <trkpt lat="59.134248760365" lon="17.830303316815">
        <ele>0</ele>
        <time>2016-04-10T15:37:59Z</time>
      </trkpt>
      <trkpt lat="59.134459313693" lon="17.830549074123">
        <ele>0</ele>
        <time>2016-04-10T15:38:03Z</time>
      </trkpt>
      <trkpt lat="59.134573642809" lon="17.830663151782">
        <ele>0</ele>
        <time>2016-04-10T15:38:05Z</time>
      </trkpt>
      <trkpt lat="59.134809425656" lon="17.830879991535">
        <ele>0</ele>
        <time>2016-04-10T15:38:09Z</time>
      </trkpt>
      <trkpt lat="59.134864662377" lon="17.830934222428">
        <ele>0</ele>
        <time>2016-04-10T15:38:10Z</time>
      </trkpt>
      <trkpt lat="59.134918474175" lon="17.830993063366">
        <ele>0</ele>
        <time>2016-04-10T15:38:11Z</time>
      </trkpt>
      <trkpt lat="59.134971112507" lon="17.831047629535">
        <ele>0</ele>
        <time>2016-04-10T15:38:12Z</time>
      </trkpt>
      <trkpt lat="59.135029701988" lon="17.831087192103">
        <ele>0</ele>
        <time>2016-04-10T15:38:13Z</time>
      </trkpt>
      <trkpt lat="59.135153083556" lon="17.831184086867">
        <ele>0</ele>
        <time>2016-04-10T15:38:15Z</time>
      </trkpt>
      <trkpt lat="59.135619368653" lon="17.831460773386">
        <ele>0</ele>
        <time>2016-04-10T15:38:22Z</time>
      </trkpt>
      <trkpt lat="59.135980963819" lon="17.831619778029">
        <ele>0</ele>
        <time>2016-04-10T15:38:27Z</time>
      </trkpt>
      <trkpt lat="59.136053383435" lon="17.831651293973">
        <ele>0</ele>
        <time>2016-04-10T15:38:28Z</time>
      </trkpt>
      <trkpt lat="59.13613007782" lon="17.831675769121">
        <ele>0</ele>
        <time>2016-04-10T15:38:29Z</time>
      </trkpt>
      <trkpt lat="59.136207861852" lon="17.831704686676">
        <ele>0</ele>
        <time>2016-04-10T15:38:30Z</time>
      </trkpt>
      <trkpt lat="59.13629352487" lon="17.831730251471">
        <ele>0</ele>
        <time>2016-04-10T15:38:31Z</time>
      </trkpt>
      <trkpt lat="59.13655420196" lon="17.831797893404">
        <ele>0</ele>
        <time>2016-04-10T15:38:34Z</time>
      </trkpt>
      <trkpt lat="59.136648163059" lon="17.831816249765">
        <ele>0</ele>
        <time>2016-04-10T15:38:35Z</time>
      </trkpt>
      <trkpt lat="59.136743046167" lon="17.831833600298">
        <ele>0</ele>
        <time>2016-04-10T15:38:36Z</time>
      </trkpt>
      <trkpt lat="59.136836169076" lon="17.831850783193">
        <ele>0</ele>
        <time>2016-04-10T15:38:37Z</time>
      </trkpt>
      <trkpt lat="59.136929878718" lon="17.831865032423">
        <ele>0</ele>
        <time>2016-04-10T15:38:38Z</time>
      </trkpt>
      <trkpt lat="59.137124338798" lon="17.831879700748">
        <ele>0</ele>
        <time>2016-04-10T15:38:40Z</time>
      </trkpt>
      <trkpt lat="59.13721721025" lon="17.831887412096">
        <ele>0</ele>
        <time>2016-04-10T15:38:41Z</time>
      </trkpt>
      <trkpt lat="59.137310836073" lon="17.831894369073">
        <ele>0</ele>
        <time>2016-04-10T15:38:42Z</time>
      </trkpt>
      <trkpt lat="59.137403707525" lon="17.831901493688">
        <ele>0</ele>
        <time>2016-04-10T15:38:43Z</time>
      </trkpt>
      <trkpt lat="59.137496411339" lon="17.831904762629">
        <ele>0</ele>
        <time>2016-04-10T15:38:44Z</time>
      </trkpt>
      <trkpt lat="59.137588444601" lon="17.83191138433">
        <ele>0</ele>
        <time>2016-04-10T15:38:45Z</time>
      </trkpt>
      <trkpt lat="59.138118767414" lon="17.83194910288">
        <ele>0</ele>
        <time>2016-04-10T15:38:51Z</time>
      </trkpt>
      <trkpt lat="59.138278442609" lon="17.831956814228">
        <ele>0</ele>
        <time>2016-04-10T15:38:53Z</time>
      </trkpt>
      <trkpt lat="59.138729388829" lon="17.831989252181">
        <ele>0</ele>
        <time>2016-04-10T15:38:59Z</time>
      </trkpt>
      <trkpt lat="59.138797449857" lon="17.831992018208">
        <ele>0</ele>
        <time>2016-04-10T15:39:00Z</time>
      </trkpt>
      <trkpt lat="59.138862074306" lon="17.83199687971">
        <ele>0</ele>
        <time>2016-04-10T15:39:01Z</time>
      </trkpt>
      <trkpt lat="59.138929129506" lon="17.831998891366">
        <ele>0</ele>
        <time>2016-04-10T15:39:02Z</time>
      </trkpt>
      <trkpt lat="59.138989479186" lon="17.832003166135">
        <ele>0</ele>
        <time>2016-04-10T15:39:03Z</time>
      </trkpt>
      <trkpt lat="59.139218975608" lon="17.832015738985">
        <ele>0</ele>
        <time>2016-04-10T15:39:07Z</time>
      </trkpt>
      <trkpt lat="59.139335148742" lon="17.832020013754">
        <ele>0</ele>
        <time>2016-04-10T15:39:09Z</time>
      </trkpt>
      <trkpt lat="59.139398012992" lon="17.832022276867">
        <ele>0</ele>
        <time>2016-04-10T15:39:10Z</time>
      </trkpt>
      <trkpt lat="59.139457105387" lon="17.832026551636">
        <ele>0</ele>
        <time>2016-04-10T15:39:11Z</time>
      </trkpt>
      <trkpt lat="59.139512845022" lon="17.832057899942">
        <ele>0</ele>
        <time>2016-04-10T15:39:12Z</time>
      </trkpt>
      <trkpt lat="59.139552072314" lon="17.832145909892">
        <ele>0</ele>
        <time>2016-04-10T15:39:13Z</time>
      </trkpt>
      <trkpt lat="59.139612841089" lon="17.832429721026">
        <ele>0</ele>
        <time>2016-04-10T15:39:16Z</time>
      </trkpt>
      <trkpt lat="59.139691463311" lon="17.832511779827">
        <ele>0</ele>
        <time>2016-04-10T15:39:18Z</time>
      </trkpt>
      <trkpt lat="59.140517834832" lon="17.8322324111">
        <ele>0</ele>
        <time>2016-04-10T15:42:12Z</time>
      </trkpt>
      <trkpt lat="59.140554296097" lon="17.832220927897">
        <ele>0</ele>
        <time>2016-04-10T15:42:13Z</time>
      </trkpt>
      <trkpt lat="59.140668541394" lon="17.832201146613">
        <ele>0</ele>
        <time>2016-04-10T15:42:15Z</time>
      </trkpt>
      <trkpt lat="59.1407334173" lon="17.832196788025">
        <ele>0</ele>
        <time>2016-04-10T15:42:16Z</time>
      </trkpt>
      <trkpt lat="59.141150500644" lon="17.832193602903">
        <ele>0</ele>
        <time>2016-04-10T15:42:22Z</time>
      </trkpt>
      <trkpt lat="59.141222249708" lon="17.832202152441">
        <ele>0</ele>
        <time>2016-04-10T15:42:23Z</time>
      </trkpt>
      <trkpt lat="59.141295339876" lon="17.83220223626">
        <ele>0</ele>
        <time>2016-04-10T15:42:24Z</time>
      </trkpt>
      <trkpt lat="59.141370860795" lon="17.832209444694">
        <ele>0</ele>
        <time>2016-04-10T15:42:25Z</time>
      </trkpt>
      <trkpt lat="59.141448812465" lon="17.832209193237">
        <ele>0</ele>
        <time>2016-04-10T15:42:26Z</time>
      </trkpt>
      <trkpt lat="59.141601614502" lon="17.832217239861">
        <ele>0</ele>
        <time>2016-04-10T15:42:28Z</time>
      </trkpt>
      <trkpt lat="59.142083322295" lon="17.832239787172">
        <ele>0</ele>
        <time>2016-04-10T15:42:34Z</time>
      </trkpt>
      <trkpt lat="59.142636192419" lon="17.832309859856">
        <ele>0</ele>
        <time>2016-04-10T15:42:41Z</time>
      </trkpt>
      <trkpt lat="59.142715233736" lon="17.832328719131">
        <ele>0</ele>
        <time>2016-04-10T15:42:42Z</time>
      </trkpt>
      <trkpt lat="59.143184033403" lon="17.83250147009">
        <ele>0</ele>
        <time>2016-04-10T15:42:48Z</time>
      </trkpt>
      <trkpt lat="59.143264667281" lon="17.83254505597">
        <ele>0</ele>
        <time>2016-04-10T15:42:49Z</time>
      </trkpt>
      <trkpt lat="59.143342367494" lon="17.83258528909">
        <ele>0</ele>
        <time>2016-04-10T15:42:50Z</time>
      </trkpt>
      <trkpt lat="59.143419313336" lon="17.832627869142">
        <ele>0</ele>
        <time>2016-04-10T15:42:51Z</time>
      </trkpt>
      <trkpt lat="59.143496342997" lon="17.832670030099">
        <ele>0</ele>
        <time>2016-04-10T15:42:52Z</time>
      </trkpt>
      <trkpt lat="59.143569936079" lon="17.832726524105">
        <ele>0</ele>
        <time>2016-04-10T15:42:53Z</time>
      </trkpt>
      <trkpt lat="59.143726761428" lon="17.832833309511">
        <ele>0</ele>
        <time>2016-04-10T15:42:55Z</time>
      </trkpt>
      <trkpt lat="59.144158177821" lon="17.833207561346">
        <ele>0</ele>
        <time>2016-04-10T15:43:01Z</time>
      </trkpt>
      <trkpt lat="59.144425392793" lon="17.833390957318">
        <ele>0</ele>
        <time>2016-04-10T15:43:05Z</time>
      </trkpt>
      <trkpt lat="59.144487586491" lon="17.833438482691">
        <ele>0</ele>
        <time>2016-04-10T15:43:06Z</time>
      </trkpt>
      <trkpt lat="59.144608202032" lon="17.833511321402">
        <ele>0</ele>
        <time>2016-04-10T15:43:08Z</time>
      </trkpt>
      <trkpt lat="59.14466620478" lon="17.833549375228">
        <ele>0</ele>
        <time>2016-04-10T15:43:09Z</time>
      </trkpt>
      <trkpt lat="59.144726973555" lon="17.833580807353">
        <ele>0</ele>
        <time>2016-04-10T15:43:10Z</time>
      </trkpt>
      <trkpt lat="59.144782797009" lon="17.833607377976">
        <ele>0</ele>
        <time>2016-04-10T15:43:11Z</time>
      </trkpt>
      <trkpt lat="59.144849852209" lon="17.833635876436">
        <ele>0</ele>
        <time>2016-04-10T15:43:12Z</time>
      </trkpt>
      <trkpt lat="59.144908609328" lon="17.833660938317">
        <ele>0</ele>
        <time>2016-04-10T15:43:13Z</time>
      </trkpt>
      <trkpt lat="59.14501321544" lon="17.833709553337">
        <ele>0</ele>
        <time>2016-04-10T15:43:15Z</time>
      </trkpt>
      <trkpt lat="59.145078510441" lon="17.833723383472">
        <ele>0</ele>
        <time>2016-04-10T15:43:16Z</time>
      </trkpt>
      <trkpt lat="59.145145984736" lon="17.833738387073">
        <ele>0</ele>
        <time>2016-04-10T15:43:17Z</time>
      </trkpt>
      <trkpt lat="59.145207172606" lon="17.833747104249">
        <ele>0</ele>
        <time>2016-04-10T15:43:18Z</time>
      </trkpt>
      <trkpt lat="59.145271210322" lon="17.833752636303">
        <ele>0</ele>
        <time>2016-04-10T15:43:19Z</time>
      </trkpt>
      <trkpt lat="59.145466424773" lon="17.833767556085">
        <ele>0</ele>
        <time>2016-04-10T15:43:22Z</time>
      </trkpt>
      <trkpt lat="59.145861296082" lon="17.83379647364">
        <ele>0</ele>
        <time>2016-04-10T15:43:28Z</time>
      </trkpt>
      <trkpt lat="59.145922148676" lon="17.833808962671">
        <ele>0</ele>
        <time>2016-04-10T15:43:29Z</time>
      </trkpt>
      <trkpt lat="59.145980402881" lon="17.833810806689">
        <ele>0</ele>
        <time>2016-04-10T15:43:30Z</time>
      </trkpt>
      <trkpt lat="59.146042764217" lon="17.833811644879">
        <ele>0</ele>
        <time>2016-04-10T15:43:31Z</time>
      </trkpt>
      <trkpt lat="59.14610453882" lon="17.833808795033">
        <ele>0</ele>
        <time>2016-04-10T15:43:32Z</time>
      </trkpt>
      <trkpt lat="59.146237391935" lon="17.833795048717">
        <ele>0</ele>
        <time>2016-04-10T15:43:34Z</time>
      </trkpt>
      <trkpt lat="59.146674591839" lon="17.833678121212">
        <ele>0</ele>
        <time>2016-04-10T15:43:40Z</time>
      </trkpt>
      <trkpt lat="59.147014310246" lon="17.833508639194">
        <ele>0</ele>
        <time>2016-04-10T15:43:44Z</time>
      </trkpt>
      <trkpt lat="59.147094105934" lon="17.83343437556">
        <ele>0</ele>
        <time>2016-04-10T15:43:45Z</time>
      </trkpt>
      <trkpt lat="59.147186725929" lon="17.83338156959">
        <ele>0</ele>
        <time>2016-04-10T15:43:46Z</time>
      </trkpt>
      <trkpt lat="59.147284039788" lon="17.833322728652">
        <ele>0</ele>
        <time>2016-04-10T15:43:47Z</time>
      </trkpt>
      <trkpt lat="59.147379090534" lon="17.833264474447">
        <ele>0</ele>
        <time>2016-04-10T15:43:48Z</time>
      </trkpt>
      <trkpt lat="59.147475314746" lon="17.833214350685">
        <ele>0</ele>
        <time>2016-04-10T15:43:49Z</time>
      </trkpt>
      <trkpt lat="59.147573550614" lon="17.833176296859">
        <ele>0</ele>
        <time>2016-04-10T15:43:50Z</time>
      </trkpt>
      <trkpt lat="59.147665919152" lon="17.833117791197">
        <ele>0</ele>
        <time>2016-04-10T15:43:51Z</time>
      </trkpt>
      <trkpt lat="59.147756862767" lon="17.833066493969">
        <ele>0</ele>
        <time>2016-04-10T15:43:52Z</time>
      </trkpt>
      <trkpt lat="59.14793514578" lon="17.832971946137">
        <ele>0</ele>
        <time>2016-04-10T15:43:54Z</time>
      </trkpt>
      <trkpt lat="59.148025167386" lon="17.832927019153">
        <ele>0</ele>
        <time>2016-04-10T15:43:55Z</time>
      </trkpt>
      <trkpt lat="59.148113931707" lon="17.832865747464">
        <ele>0</ele>
        <time>2016-04-10T15:43:56Z</time>
      </trkpt>
      <trkpt lat="59.148196325784" lon="17.832817132444">
        <ele>0</ele>
        <time>2016-04-10T15:43:57Z</time>
      </trkpt>
      <trkpt lat="59.148275870015" lon="17.832771451089">
        <ele>0</ele>
        <time>2016-04-10T15:43:58Z</time>
      </trkpt>
      <trkpt lat="59.148587509057" lon="17.832593754809">
        <ele>0</ele>
        <time>2016-04-10T15:44:02Z</time>
      </trkpt>
      <trkpt lat="59.1487381318" lon="17.832504990488">
        <ele>0</ele>
        <time>2016-04-10T15:44:04Z</time>
      </trkpt>
      <trkpt lat="59.14881440709" lon="17.832462578074">
        <ele>0</ele>
        <time>2016-04-10T15:44:05Z</time>
      </trkpt>
      <trkpt lat="59.148892023484" lon="17.832416477624">
        <ele>0</ele>
        <time>2016-04-10T15:44:06Z</time>
      </trkpt>
      <trkpt lat="59.148969556059" lon="17.8323749034">
        <ele>0</ele>
        <time>2016-04-10T15:44:07Z</time>
      </trkpt>
      <trkpt lat="59.149046166625" lon="17.832330814606">
        <ele>0</ele>
        <time>2016-04-10T15:44:08Z</time>
      </trkpt>
      <trkpt lat="59.149271723554" lon="17.832197626215">
        <ele>0</ele>
        <time>2016-04-10T15:44:11Z</time>
      </trkpt>
      <trkpt lat="59.149421424288" lon="17.832085979307">
        <ele>0</ele>
        <time>2016-04-10T15:44:13Z</time>
      </trkpt>
      <trkpt lat="59.14949585556" lon="17.832025210532">
        <ele>0</ele>
        <time>2016-04-10T15:44:14Z</time>
      </trkpt>
      <trkpt lat="59.149571460298" lon="17.831969722354">
        <ele>0</ele>
        <time>2016-04-10T15:44:15Z</time>
      </trkpt>
      <trkpt lat="59.149641030068" lon="17.831906606647">
        <ele>0</ele>
        <time>2016-04-10T15:44:16Z</time>
      </trkpt>
      <trkpt lat="59.149710516019" lon="17.831836114868">
        <ele>0</ele>
        <time>2016-04-10T15:44:17Z</time>
      </trkpt>
      <trkpt lat="59.149779918151" lon="17.831762689424">
        <ele>0</ele>
        <time>2016-04-10T15:44:18Z</time>
      </trkpt>
      <trkpt lat="59.150239833004" lon="17.831176794614">
        <ele>0</ele>
        <time>2016-04-10T15:44:25Z</time>
      </trkpt>
      <trkpt lat="59.150618611065" lon="17.830648064362">
        <ele>0</ele>
        <time>2016-04-10T15:44:31Z</time>
      </trkpt>
      <trkpt lat="59.150683067876" lon="17.830555360548">
        <ele>0</ele>
        <time>2016-04-10T15:44:32Z</time>
      </trkpt>
      <trkpt lat="59.150749284886" lon="17.830465422761">
        <ele>0</ele>
        <time>2016-04-10T15:44:33Z</time>
      </trkpt>
      <trkpt lat="59.150818351742" lon="17.830373473318">
        <ele>0</ele>
        <time>2016-04-10T15:44:34Z</time>
      </trkpt>
      <trkpt lat="59.150895884317" lon="17.830268783387">
        <ele>0</ele>
        <time>2016-04-10T15:44:35Z</time>
      </trkpt>
      <trkpt lat="59.151269633238" lon="17.829756314021">
        <ele>0</ele>
        <time>2016-04-10T15:44:40Z</time>
      </trkpt>
      <trkpt lat="59.151347920184" lon="17.829651540271">
        <ele>0</ele>
        <time>2016-04-10T15:44:41Z</time>
      </trkpt>
      <trkpt lat="59.151433247926" lon="17.829538887535">
        <ele>0</ele>
        <time>2016-04-10T15:44:42Z</time>
      </trkpt>
      <trkpt lat="59.151512289243" lon="17.829431431577">
        <ele>0</ele>
        <time>2016-04-10T15:44:43Z</time>
      </trkpt>
      <trkpt lat="59.151591582017" lon="17.82932472999">
        <ele>0</ele>
        <time>2016-04-10T15:44:44Z</time>
      </trkpt>
      <trkpt lat="59.151669198411" lon="17.829212915444">
        <ele>0</ele>
        <time>2016-04-10T15:44:45Z</time>
      </trkpt>
      <trkpt lat="59.151745473701" lon="17.829107052047">
        <ele>0</ele>
        <time>2016-04-10T15:44:46Z</time>
      </trkpt>
      <trkpt lat="59.151821665172" lon="17.828994064035">
        <ele>0</ele>
        <time>2016-04-10T15:44:47Z</time>
      </trkpt>
      <trkpt lat="59.151901293222" lon="17.828887781543">
        <ele>0</ele>
        <time>2016-04-10T15:44:48Z</time>
      </trkpt>
      <trkpt lat="59.152063566806" lon="17.828670690333">
        <ele>0</ele>
        <time>2016-04-10T15:44:50Z</time>
      </trkpt>
      <trkpt lat="59.152519290709" lon="17.828024948757">
        <ele>0</ele>
        <time>2016-04-10T15:44:56Z</time>
      </trkpt>
      <trkpt lat="59.152592045601" lon="17.827912128383">
        <ele>0</ele>
        <time>2016-04-10T15:44:57Z</time>
      </trkpt>
      <trkpt lat="59.152673098574" lon="17.827798637457">
        <ele>0</ele>
        <time>2016-04-10T15:44:58Z</time>
      </trkpt>
      <trkpt lat="59.152748787131" lon="17.827692187327">
        <ele>0</ele>
        <time>2016-04-10T15:44:59Z</time>
      </trkpt>
      <trkpt lat="59.15282430805" lon="17.827591101613">
        <ele>0</ele>
        <time>2016-04-10T15:45:00Z</time>
      </trkpt>
      <trkpt lat="59.152899493693" lon="17.827493368659">
        <ele>0</ele>
        <time>2016-04-10T15:45:01Z</time>
      </trkpt>
      <trkpt lat="59.153256311176" lon="17.826989616469">
        <ele>0</ele>
        <time>2016-04-10T15:45:06Z</time>
      </trkpt>
      <trkpt lat="59.153664509706" lon="17.826411935921">
        <ele>0</ele>
        <time>2016-04-10T15:45:12Z</time>
      </trkpt>
      <trkpt lat="59.153732822191" lon="17.826315879347">
        <ele>0</ele>
        <time>2016-04-10T15:45:13Z</time>
      </trkpt>
      <trkpt lat="59.153799542115" lon="17.82622091242">
        <ele>0</ele>
        <time>2016-04-10T15:45:14Z</time>
      </trkpt>
      <trkpt lat="59.153866094401" lon="17.826122508914">
        <ele>0</ele>
        <time>2016-04-10T15:45:15Z</time>
      </trkpt>
      <trkpt lat="59.153931054126" lon="17.826023434856">
        <ele>0</ele>
        <time>2016-04-10T15:45:16Z</time>
      </trkpt>
      <trkpt lat="59.154229030671" lon="17.825487663808">
        <ele>0</ele>
        <time>2016-04-10T15:45:21Z</time>
      </trkpt>
      <trkpt lat="59.154530695252" lon="17.824713427705">
        <ele>0</ele>
        <time>2016-04-10T15:45:27Z</time>
      </trkpt>
      <trkpt lat="59.154798832233" lon="17.82370885699">
        <ele>0</ele>
        <time>2016-04-10T15:45:34Z</time>
      </trkpt>
      <trkpt lat="59.155079625883" lon="17.822667070639">
        <ele>0</ele>
        <time>2016-04-10T15:45:41Z</time>
      </trkpt>
      <trkpt lat="59.155195463741" lon="17.822207155786">
        <ele>0</ele>
        <time>2016-04-10T15:45:44Z</time>
      </trkpt>
      <trkpt lat="59.155236535051" lon="17.822058879975">
        <ele>0</ele>
        <time>2016-04-10T15:45:45Z</time>
      </trkpt>
      <trkpt lat="59.155279869474" lon="17.821914040743">
        <ele>0</ele>
        <time>2016-04-10T15:45:46Z</time>
      </trkpt>
      <trkpt lat="59.155326891933" lon="17.821771632262">
        <ele>0</ele>
        <time>2016-04-10T15:45:47Z</time>
      </trkpt>
      <trkpt lat="59.155373830573" lon="17.82163098398">
        <ele>0</ele>
        <time>2016-04-10T15:45:48Z</time>
      </trkpt>
      <trkpt lat="59.155506599869" lon="17.821217840129">
        <ele>0</ele>
        <time>2016-04-10T15:45:51Z</time>
      </trkpt>
      <trkpt lat="59.155778843981" lon="17.82030245283">
        <ele>0</ele>
        <time>2016-04-10T15:45:58Z</time>
      </trkpt>
      <trkpt lat="59.155815640522" lon="17.820183094574">
        <ele>0</ele>
        <time>2016-04-10T15:45:59Z</time>
      </trkpt>
      <trkpt lat="59.1559214201" lon="17.820047978346">
        <ele>0</ele>
        <time>2016-04-10T15:46:01Z</time>
      </trkpt>
      <trkpt lat="59.15596584417" lon="17.820021240085">
        <ele>0</ele>
        <time>2016-04-10T15:46:02Z</time>
      </trkpt>
      <trkpt lat="59.155983697617" lon="17.819967009192">
        <ele>0</ele>
        <time>2016-04-10T15:46:03Z</time>
      </trkpt>
      <trkpt lat="59.155974645165" lon="17.819899702535">
        <ele>0</ele>
        <time>2016-04-10T15:46:04Z</time>
      </trkpt>
      <trkpt lat="59.15596249141" lon="17.819805992893">
        <ele>0</ele>
        <time>2016-04-10T15:46:05Z</time>
      </trkpt>
      <trkpt lat="59.15603206118" lon="17.819497874249">
        <ele>0</ele>
        <time>2016-04-10T15:46:08Z</time>
      </trkpt>
      <trkpt lat="59.15606894154" lon="17.819396285621">
        <ele>0</ele>
        <time>2016-04-10T15:46:09Z</time>
      </trkpt>
      <trkpt lat="59.156194418583" lon="17.819082383466">
        <ele>0</ele>
        <time>2016-04-10T15:46:12Z</time>
      </trkpt>
      <trkpt lat="59.156289972243" lon="17.81872414106">
        <ele>0</ele>
        <time>2016-04-10T15:46:15Z</time>
      </trkpt>
      <trkpt lat="59.15651485862" lon="17.817722755467">
        <ele>0</ele>
        <time>2016-04-10T15:46:23Z</time>
      </trkpt>
      <trkpt lat="59.156542015976" lon="17.817605241229">
        <ele>0</ele>
        <time>2016-04-10T15:46:24Z</time>
      </trkpt>
      <trkpt lat="59.156653411427" lon="17.817146416023">
        <ele>0</ele>
        <time>2016-04-10T15:46:28Z</time>
      </trkpt>
      <trkpt lat="59.156679898231" lon="17.817034433839">
        <ele>0</ele>
        <time>2016-04-10T15:46:29Z</time>
      </trkpt>
      <trkpt lat="59.15670596594" lon="17.816919182714">
        <ele>0</ele>
        <time>2016-04-10T15:46:30Z</time>
      </trkpt>
      <trkpt lat="59.156734799676" lon="17.816804602141">
        <ele>0</ele>
        <time>2016-04-10T15:46:31Z</time>
      </trkpt>
      <trkpt lat="59.156915848716" lon="17.816092643555">
        <ele>0</ele>
        <time>2016-04-10T15:46:37Z</time>
      </trkpt>
      <trkpt lat="59.157177699272" lon="17.815125372295">
        <ele>0</ele>
        <time>2016-04-10T15:46:45Z</time>
      </trkpt>
      <trkpt lat="59.157479782948" lon="17.814127423281">
        <ele>0</ele>
        <time>2016-04-10T15:46:53Z</time>
      </trkpt>
      <trkpt lat="59.157747165558" lon="17.81325411312">
        <ele>0</ele>
        <time>2016-04-10T15:47:00Z</time>
      </trkpt>
      <trkpt lat="59.157921676716" lon="17.812654471994">
        <ele>0</ele>
        <time>2016-04-10T15:47:05Z</time>
      </trkpt>
      <trkpt lat="59.157956461601" lon="17.812532012435">
        <ele>0</ele>
        <time>2016-04-10T15:47:06Z</time>
      </trkpt>
      <trkpt lat="59.157989905382" lon="17.812413995283">
        <ele>0</ele>
        <time>2016-04-10T15:47:07Z</time>
      </trkpt>
      <trkpt lat="59.15802443881" lon="17.812294972303">
        <ele>0</ele>
        <time>2016-04-10T15:47:08Z</time>
      </trkpt>
      <trkpt lat="59.158059056057" lon="17.812173937667">
        <ele>0</ele>
        <time>2016-04-10T15:47:09Z</time>
      </trkpt>
      <trkpt lat="59.158270447575" lon="17.811285875362">
        <ele>0</ele>
        <time>2016-04-10T15:47:16Z</time>
      </trkpt>
      <trkpt lat="59.158353344566" lon="17.810736022722">
        <ele>0</ele>
        <time>2016-04-10T15:47:20Z</time>
      </trkpt>
      <trkpt lat="59.158370276004" lon="17.810603588702">
        <ele>0</ele>
        <time>2016-04-10T15:47:21Z</time>
      </trkpt>
      <trkpt lat="59.158385279605" lon="17.810469897397">
        <ele>0</ele>
        <time>2016-04-10T15:47:22Z</time>
      </trkpt>
      <trkpt lat="59.158399277378" lon="17.810336038454">
        <ele>0</ele>
        <time>2016-04-10T15:47:23Z</time>
      </trkpt>
      <trkpt lat="59.158409922391" lon="17.81020226333">
        <ele>0</ele>
        <time>2016-04-10T15:47:24Z</time>
      </trkpt>
      <trkpt lat="59.158443869086" lon="17.809588456793">
        <ele>0</ele>
        <time>2016-04-10T15:47:29Z</time>
      </trkpt>
      <trkpt lat="59.158458705049" lon="17.808624957388">
        <ele>0</ele>
        <time>2016-04-10T15:47:37Z</time>
      </trkpt>
      <trkpt lat="59.158460549067" lon="17.8084864884">
        <ele>0</ele>
        <time>2016-04-10T15:47:38Z</time>
      </trkpt>
      <trkpt lat="59.158450490787" lon="17.807913501716">
        <ele>0</ele>
        <time>2016-04-10T15:47:42Z</time>
      </trkpt>
      <trkpt lat="59.158411012038" lon="17.807315704608">
        <ele>0</ele>
        <time>2016-04-10T15:47:46Z</time>
      </trkpt>
      <trkpt lat="59.158403719785" lon="17.80717555924">
        <ele>0</ele>
        <time>2016-04-10T15:47:47Z</time>
      </trkpt>
      <trkpt lat="59.158405060889" lon="17.807040778288">
        <ele>0</ele>
        <time>2016-04-10T15:47:48Z</time>
      </trkpt>
      <trkpt lat="59.158410425305" lon="17.806906164974">
        <ele>0</ele>
        <time>2016-04-10T15:47:49Z</time>
      </trkpt>
      <trkpt lat="59.15841587354" lon="17.806762415389">
        <ele>0</ele>
        <time>2016-04-10T15:47:50Z</time>
      </trkpt>
      <trkpt lat="59.158429955132" lon="17.806488411078">
        <ele>0</ele>
        <time>2016-04-10T15:47:52Z</time>
      </trkpt>
      <trkpt lat="59.158442527982" lon="17.806351869927">
        <ele>0</ele>
        <time>2016-04-10T15:47:53Z</time>
      </trkpt>
      <trkpt lat="59.158502710024" lon="17.805959429369">
        <ele>0</ele>
        <time>2016-04-10T15:47:56Z</time>
      </trkpt>
      <trkpt lat="59.158541182945" lon="17.80582523515">
        <ele>0</ele>
        <time>2016-04-10T15:47:57Z</time>
      </trkpt>
      <trkpt lat="59.158726339116" lon="17.805341348063">
        <ele>0</ele>
        <time>2016-04-10T15:48:01Z</time>
      </trkpt>
      <trkpt lat="59.158938233548" lon="17.804690074433">
        <ele>0</ele>
        <time>2016-04-10T15:48:06Z</time>
      </trkpt>
      <trkpt lat="59.159121294244" lon="17.803992029801">
        <ele>0</ele>
        <time>2016-04-10T15:48:11Z</time>
      </trkpt>
      <trkpt lat="59.159168232884" lon="17.803857416487">
        <ele>0</ele>
        <time>2016-04-10T15:48:12Z</time>
      </trkpt>
      <trkpt lat="59.159336122341" lon="17.803524319781">
        <ele>0</ele>
        <time>2016-04-10T15:48:15Z</time>
      </trkpt>
      <trkpt lat="59.159469813646" lon="17.803340253257">
        <ele>0</ele>
        <time>2016-04-10T15:48:17Z</time>
      </trkpt>
      <trkpt lat="59.159675254015" lon="17.803107739351">
        <ele>0</ele>
        <time>2016-04-10T15:48:20Z</time>
      </trkpt>
      <trkpt lat="59.160074567731" lon="17.802829627909">
        <ele>0</ele>
        <time>2016-04-10T15:48:25Z</time>
      </trkpt>
      <trkpt lat="59.160488465953" lon="17.80263676039">
        <ele>0</ele>
        <time>2016-04-10T15:48:30Z</time>
      </trkpt>
      <trkpt lat="59.160570357116" lon="17.802596108175">
        <ele>0</ele>
        <time>2016-04-10T15:48:31Z</time>
      </trkpt>
      <trkpt lat="59.160653170288" lon="17.802555623598">
        <ele>0</ele>
        <time>2016-04-10T15:48:32Z</time>
      </trkpt>
      <trkpt lat="59.160736737831" lon="17.802522431274">
        <ele>0</ele>
        <time>2016-04-10T15:48:33Z</time>
      </trkpt>
      <trkpt lat="59.160822065573" lon="17.802490999149">
        <ele>0</ele>
        <time>2016-04-10T15:48:34Z</time>
      </trkpt>
      <trkpt lat="59.161270497223" lon="17.802316907086">
        <ele>0</ele>
        <time>2016-04-10T15:48:39Z</time>
      </trkpt>
      <trkpt lat="59.161355824965" lon="17.802277009242">
        <ele>0</ele>
        <time>2016-04-10T15:48:40Z</time>
      </trkpt>
      <trkpt lat="59.161442409992" lon="17.80223023824">
        <ele>0</ele>
        <time>2016-04-10T15:48:41Z</time>
      </trkpt>
      <trkpt lat="59.161532096322" lon="17.802174163329">
        <ele>0</ele>
        <time>2016-04-10T15:48:42Z</time>
      </trkpt>
      <trkpt lat="59.16161440658" lon="17.802114065106">
        <ele>0</ele>
        <time>2016-04-10T15:48:43Z</time>
      </trkpt>
      <trkpt lat="59.161685233635" lon="17.802022618577">
        <ele>0</ele>
        <time>2016-04-10T15:48:44Z</time>
      </trkpt>
      <trkpt lat="59.161893020936" lon="17.801530014314">
        <ele>0</ele>
        <time>2016-04-10T15:48:48Z</time>
      </trkpt>
      <trkpt lat="59.161928476373" lon="17.801403447624">
        <ele>0</ele>
        <time>2016-04-10T15:48:49Z</time>
      </trkpt>
      <trkpt lat="59.162000560713" lon="17.800999607682">
        <ele>0</ele>
        <time>2016-04-10T15:48:52Z</time>
      </trkpt>
      <trkpt lat="59.162080775496" lon="17.800620661983">
        <ele>0</ele>
        <time>2016-04-10T15:48:55Z</time>
      </trkpt>
      <trkpt lat="59.162110195965" lon="17.800503902116">
        <ele>0</ele>
        <time>2016-04-10T15:48:56Z</time>
      </trkpt>
      <trkpt lat="59.162140706081" lon="17.800378844168">
        <ele>0</ele>
        <time>2016-04-10T15:48:57Z</time>
      </trkpt>
      <trkpt lat="59.162169204541" lon="17.800258563903">
        <ele>0</ele>
        <time>2016-04-10T15:48:58Z</time>
      </trkpt>
      <trkpt lat="59.162201893951" lon="17.800143480416">
        <ele>0</ele>
        <time>2016-04-10T15:48:59Z</time>
      </trkpt>
      <trkpt lat="59.162366849743" lon="17.799585162057">
        <ele>0</ele>
        <time>2016-04-10T15:49:04Z</time>
      </trkpt>
      <trkpt lat="59.162466510534" lon="17.79924628184">
        <ele>0</ele>
        <time>2016-04-10T15:49:07Z</time>
      </trkpt>
      <trkpt lat="59.162545970946" lon="17.799028939173">
        <ele>0</ele>
        <time>2016-04-10T15:49:09Z</time>
      </trkpt>
      <trkpt lat="59.162693660024" lon="17.798691651517">
        <ele>0</ele>
        <time>2016-04-10T15:49:12Z</time>
      </trkpt>
      <trkpt lat="59.162750740763" lon="17.798585285206">
        <ele>0</ele>
        <time>2016-04-10T15:49:13Z</time>
      </trkpt>
      <trkpt lat="59.163214427471" lon="17.797790094353">
        <ele>0</ele>
        <time>2016-04-10T15:49:21Z</time>
      </trkpt>
      <trkpt lat="59.163646262959" lon="17.79706866422">
        <ele>0</ele>
        <time>2016-04-10T15:49:28Z</time>
      </trkpt>
      <trkpt lat="59.163945832065" lon="17.796730789831">
        <ele>0</ele>
        <time>2016-04-10T15:49:33Z</time>
      </trkpt>
      <trkpt lat="59.164145656561" lon="17.796760042662">
        <ele>0</ele>
        <time>2016-04-10T15:49:36Z</time>
      </trkpt>
      <trkpt lat="59.1642111192" lon="17.79678954695">
        <ele>0</ele>
        <time>2016-04-10T15:49:37Z</time>
      </trkpt>
      <trkpt lat="59.164277839124" lon="17.796823493645">
        <ele>0</ele>
        <time>2016-04-10T15:49:38Z</time>
      </trkpt>
      <trkpt lat="59.164341122469" lon="17.796854758132">
        <ele>0</ele>
        <time>2016-04-10T15:49:39Z</time>
      </trkpt>
      <trkpt lat="59.164401975063" lon="17.796888034275">
        <ele>0</ele>
        <time>2016-04-10T15:49:40Z</time>
      </trkpt>
      <trkpt lat="59.164461821829" lon="17.796928183576">
        <ele>0</ele>
        <time>2016-04-10T15:49:41Z</time>
      </trkpt>
      <trkpt lat="59.164581263904" lon="17.79700160902">
        <ele>0</ele>
        <time>2016-04-10T15:49:43Z</time>
      </trkpt>
      <trkpt lat="59.164638847557" lon="17.797031700041">
        <ele>0</ele>
        <time>2016-04-10T15:49:44Z</time>
      </trkpt>
      <trkpt lat="59.164697939952" lon="17.797058857397">
        <ele>0</ele>
        <time>2016-04-10T15:49:45Z</time>
      </trkpt>
      <trkpt lat="59.164756361795" lon="17.797085763296">
        <ele>0</ele>
        <time>2016-04-10T15:49:46Z</time>
      </trkpt>
      <trkpt lat="59.164815789466" lon="17.797113675023">
        <ele>0</ele>
        <time>2016-04-10T15:49:47Z</time>
      </trkpt>
      <trkpt lat="59.164874714223" lon="17.797144268958">
        <ele>0</ele>
        <time>2016-04-10T15:49:48Z</time>
      </trkpt>
      <trkpt lat="59.165051153218" lon="17.797240744627">
        <ele>0</ele>
        <time>2016-04-10T15:49:51Z</time>
      </trkpt>
      <trkpt lat="59.165406964873" lon="17.797425565522">
        <ele>0</ele>
        <time>2016-04-10T15:49:57Z</time>
      </trkpt>
      <trkpt lat="59.165465973449" lon="17.797456410914">
        <ele>0</ele>
        <time>2016-04-10T15:49:58Z</time>
      </trkpt>
      <trkpt lat="59.165525820215" lon="17.797485579926">
        <ele>0</ele>
        <time>2016-04-10T15:49:59Z</time>
      </trkpt>
      <trkpt lat="59.165583906782" lon="17.797512569644">
        <ele>0</ele>
        <time>2016-04-10T15:50:00Z</time>
      </trkpt>
      <trkpt lat="59.16564190953" lon="17.797536206602">
        <ele>0</ele>
        <time>2016-04-10T15:50:01Z</time>
      </trkpt>
      <trkpt lat="59.165921613533" lon="17.797661851283">
        <ele>0</ele>
        <time>2016-04-10T15:50:06Z</time>
      </trkpt>
      <trkpt lat="59.166278431016" lon="17.797912805369">
        <ele>0</ele>
        <time>2016-04-10T15:50:13Z</time>
      </trkpt>
      <trkpt lat="59.166323106543" lon="17.797955804516">
        <ele>0</ele>
        <time>2016-04-10T15:50:14Z</time>
      </trkpt>
      <trkpt lat="59.166371302468" lon="17.79799318779">
        <ele>0</ele>
        <time>2016-04-10T15:50:15Z</time>
      </trkpt>
      <trkpt lat="59.166420085126" lon="17.798033923824">
        <ele>0</ele>
        <time>2016-04-10T15:50:16Z</time>
      </trkpt>
      <trkpt lat="59.166471047078" lon="17.798072899659">
        <ele>0</ele>
        <time>2016-04-10T15:50:17Z</time>
      </trkpt>
      <trkpt lat="59.166522428125" lon="17.798108271277">
        <ele>0</ele>
        <time>2016-04-10T15:50:18Z</time>
      </trkpt>
      <trkpt lat="59.166574228267" lon="17.798136350642">
        <ele>0</ele>
        <time>2016-04-10T15:50:19Z</time>
      </trkpt>
      <trkpt lat="59.166630470816" lon="17.798162669808">
        <ele>0</ele>
        <time>2016-04-10T15:50:20Z</time>
      </trkpt>
      <trkpt lat="59.166684450252" lon="17.798186558223">
        <ele>0</ele>
        <time>2016-04-10T15:50:21Z</time>
      </trkpt>
      <trkpt lat="59.166738513507" lon="17.798200304539">
        <ele>0</ele>
        <time>2016-04-10T15:50:22Z</time>
      </trkpt>
      <trkpt lat="59.166901206186" lon="17.798207177697">
        <ele>0</ele>
        <time>2016-04-10T15:50:25Z</time>
      </trkpt>
      <trkpt lat="59.166954934165" lon="17.79819770615">
        <ele>0</ele>
        <time>2016-04-10T15:50:26Z</time>
      </trkpt>
      <trkpt lat="59.167009919429" lon="17.798187815508">
        <ele>0</ele>
        <time>2016-04-10T15:50:27Z</time>
      </trkpt>
      <trkpt lat="59.167067335444" lon="17.7981767514">
        <ele>0</ele>
        <time>2016-04-10T15:50:28Z</time>
      </trkpt>
      <trkpt lat="59.167121063423" lon="17.798162250713">
        <ele>0</ele>
        <time>2016-04-10T15:50:29Z</time>
      </trkpt>
      <trkpt lat="59.167224663707" lon="17.798131070045">
        <ele>0</ele>
        <time>2016-04-10T15:50:31Z</time>
      </trkpt>
      <trkpt lat="59.167274536012" lon="17.798114557702">
        <ele>0</ele>
        <time>2016-04-10T15:50:32Z</time>
      </trkpt>
      <trkpt lat="59.167324659774" lon="17.798098129178">
        <ele>0</ele>
        <time>2016-04-10T15:50:33Z</time>
      </trkpt>
      <trkpt lat="59.167374029165" lon="17.798082622663">
        <ele>0</ele>
        <time>2016-04-10T15:50:34Z</time>
      </trkpt>
      <trkpt lat="59.1674213869" lon="17.798067702881">
        <ele>0</ele>
        <time>2016-04-10T15:50:35Z</time>
      </trkpt>
      <trkpt lat="59.167695894125" lon="17.797992601057">
        <ele>0</ele>
        <time>2016-04-10T15:50:41Z</time>
      </trkpt>
      <trkpt lat="59.167926480194" lon="17.797915739034">
        <ele>0</ele>
        <time>2016-04-10T15:50:46Z</time>
      </trkpt>
      <trkpt lat="59.167976436318" lon="17.797899142872">
        <ele>0</ele>
        <time>2016-04-10T15:50:47Z</time>
      </trkpt>
      <trkpt lat="59.16802656008" lon="17.797885396556">
        <ele>0</ele>
        <time>2016-04-10T15:50:48Z</time>
      </trkpt>
      <trkpt lat="59.168075007462" lon="17.797876092647">
        <ele>0</ele>
        <time>2016-04-10T15:50:49Z</time>
      </trkpt>
      <trkpt lat="59.16812714288" lon="17.797863016883">
        <ele>0</ele>
        <time>2016-04-10T15:50:50Z</time>
      </trkpt>
      <trkpt lat="59.168401901562" lon="17.797807193429">
        <ele>0</ele>
        <time>2016-04-10T15:50:55Z</time>
      </trkpt>
      <trkpt lat="59.168762323262" lon="17.797779700797">
        <ele>0</ele>
        <time>2016-04-10T15:51:02Z</time>
      </trkpt>
      <trkpt lat="59.168910682892" lon="17.79779202219">
        <ele>0</ele>
        <time>2016-04-10T15:51:05Z</time>
      </trkpt>
      <trkpt lat="59.168963824138" lon="17.79780040409">
        <ele>0.2</ele>
        <time>2016-04-10T15:51:06Z</time>
      </trkpt>
      <trkpt lat="59.169016211013" lon="17.797804092126">
        <ele>0.6</ele>
        <time>2016-04-10T15:51:07Z</time>
      </trkpt>
      <trkpt lat="59.169069352259" lon="17.797808031619">
        <ele>1</ele>
        <time>2016-04-10T15:51:08Z</time>
      </trkpt>
      <trkpt lat="59.169122493505" lon="17.797815742967">
        <ele>1.4</ele>
        <time>2016-04-10T15:51:09Z</time>
      </trkpt>
      <trkpt lat="59.169176053846" lon="17.79781800608">
        <ele>1.4</ele>
        <time>2016-04-10T15:51:10Z</time>
      </trkpt>
      <trkpt lat="59.169398760929" lon="17.797794788217">
        <ele>1.4</ele>
        <time>2016-04-10T15:51:14Z</time>
      </trkpt>
      <trkpt lat="59.169744095209" lon="17.797810043275">
        <ele>1.4</ele>
        <time>2016-04-10T15:51:20Z</time>
      </trkpt>
      <trkpt lat="59.16997954278" lon="17.797859664123">
        <ele>1.4</ele>
        <time>2016-04-10T15:51:24Z</time>
      </trkpt>
      <trkpt lat="59.170097057018" lon="17.797888833135">
        <ele>1.4</ele>
        <time>2016-04-10T15:51:26Z</time>
      </trkpt>
      <trkpt lat="59.170157909612" lon="17.797915152301">
        <ele>1.4</ele>
        <time>2016-04-10T15:51:27Z</time>
      </trkpt>
      <trkpt lat="59.170277351687" lon="17.798023530268">
        <ele>1.4</ele>
        <time>2016-04-10T15:51:29Z</time>
      </trkpt>
      <trkpt lat="59.170335857349" lon="17.798074324582">
        <ele>1.4</ele>
        <time>2016-04-10T15:51:30Z</time>
      </trkpt>
      <trkpt lat="59.170469548654" lon="17.798106594897">
        <ele>1.4</ele>
        <time>2016-04-10T15:51:32Z</time>
      </trkpt>
      <trkpt lat="59.170602904683" lon="17.798138613755">
        <ele>1.4</ele>
        <time>2016-04-10T15:51:34Z</time>
      </trkpt>
      <trkpt lat="59.170837765521" lon="17.798245566799">
        <ele>1.4</ele>
        <time>2016-04-10T15:51:38Z</time>
      </trkpt>
      <trkpt lat="59.171057622758" lon="17.798344557038">
        <ele>2</ele>
        <time>2016-04-10T15:51:42Z</time>
      </trkpt>
      <trkpt lat="59.171111602194" lon="17.798372133489">
        <ele>2.4</ele>
        <time>2016-04-10T15:51:43Z</time>
      </trkpt>
      <trkpt lat="59.171162312689" lon="17.798398704112">
        <ele>2.8</ele>
        <time>2016-04-10T15:51:44Z</time>
      </trkpt>
      <trkpt lat="59.171211598261" lon="17.798429298047">
        <ele>3.2</ele>
        <time>2016-04-10T15:51:45Z</time>
      </trkpt>
      <trkpt lat="59.171263146946" lon="17.798456539222">
        <ele>3.8</ele>
        <time>2016-04-10T15:51:46Z</time>
      </trkpt>
      <trkpt lat="59.171514101032" lon="17.798613951304">
        <ele>3.8</ele>
        <time>2016-04-10T15:51:51Z</time>
      </trkpt>
      <trkpt lat="59.171555088523" lon="17.798646640714">
        <ele>3.8</ele>
        <time>2016-04-10T15:51:52Z</time>
      </trkpt>
      <trkpt lat="59.171584592811" lon="17.798669942396">
        <ele>4.2</ele>
        <time>2016-04-10T15:51:53Z</time>
      </trkpt>
      <trkpt lat="59.171611917805" lon="17.798691986793">
        <ele>4.6</ele>
        <time>2016-04-10T15:51:54Z</time>
      </trkpt>
      <trkpt lat="59.171641505912" lon="17.798721742538">
        <ele>5</ele>
        <time>2016-04-10T15:51:55Z</time>
      </trkpt>
      <trkpt lat="59.171667070707" lon="17.79874839698">
        <ele>5.6</ele>
        <time>2016-04-10T15:51:56Z</time>
      </trkpt>
      <trkpt lat="59.17169364133" lon="17.798779158553">
        <ele>6</ele>
        <time>2016-04-10T15:51:57Z</time>
      </trkpt>
      <trkpt lat="59.171719792858" lon="17.798808914298">
        <ele>6.6</ele>
        <time>2016-04-10T15:51:58Z</time>
      </trkpt>
      <trkpt lat="59.17174728549" lon="17.798838670043">
        <ele>7</ele>
        <time>2016-04-10T15:51:59Z</time>
      </trkpt>
      <trkpt lat="59.171775029579" lon="17.798861636449">
        <ele>7.6</ele>
        <time>2016-04-10T15:52:00Z</time>
      </trkpt>
      <trkpt lat="59.171802773668" lon="17.798888542348">
        <ele>8</ele>
        <time>2016-04-10T15:52:01Z</time>
      </trkpt>
      <trkpt lat="59.171861111692" lon="17.798955178453">
        <ele>8.4</ele>
        <time>2016-04-10T15:52:03Z</time>
      </trkpt>
      <trkpt lat="59.171888771962" lon="17.79898811932">
        <ele>9</ele>
        <time>2016-04-10T15:52:04Z</time>
      </trkpt>
      <trkpt lat="59.171910900178" lon="17.799016450142">
        <ele>9.4</ele>
        <time>2016-04-10T15:52:05Z</time>
      </trkpt>
      <trkpt lat="59.171930513824" lon="17.799044110412">
        <ele>9.8</ele>
        <time>2016-04-10T15:52:06Z</time>
      </trkpt>
      <trkpt lat="59.171953564049" lon="17.799085936093">
        <ele>10.2</ele>
        <time>2016-04-10T15:52:07Z</time>
      </trkpt>
      <trkpt lat="59.172018104679" lon="17.799223902167">
        <ele>10.2</ele>
        <time>2016-04-10T15:52:10Z</time>
      </trkpt>
      <trkpt lat="59.172044926759" lon="17.799283832752">
        <ele>10.2</ele>
        <time>2016-04-10T15:52:11Z</time>
      </trkpt>
      <trkpt lat="59.172138049668" lon="17.799470330027">
        <ele>10.8</ele>
        <time>2016-04-10T15:52:14Z</time>
      </trkpt>
      <trkpt lat="59.172160932255" lon="17.799542749643">
        <ele>11.2</ele>
        <time>2016-04-10T15:52:15Z</time>
      </trkpt>
      <trkpt lat="59.172184653032" lon="17.799609888662">
        <ele>12</ele>
        <time>2016-04-10T15:52:16Z</time>
      </trkpt>
      <trkpt lat="59.172207870895" lon="17.799664454831">
        <ele>12.4</ele>
        <time>2016-04-10T15:52:17Z</time>
      </trkpt>
      <trkpt lat="59.172279955235" lon="17.799818933248">
        <ele>12.4</ele>
        <time>2016-04-10T15:52:20Z</time>
      </trkpt>
      <trkpt lat="59.172390093401" lon="17.800111042463">
        <ele>12.8</ele>
        <time>2016-04-10T15:52:25Z</time>
      </trkpt>
      <trkpt lat="59.172413395083" lon="17.800177678568">
        <ele>13.2</ele>
        <time>2016-04-10T15:52:26Z</time>
      </trkpt>
      <trkpt lat="59.172436361489" lon="17.800248254166">
        <ele>13.6</ele>
        <time>2016-04-10T15:52:27Z</time>
      </trkpt>
      <trkpt lat="59.172458489705" lon="17.80031497409">
        <ele>14</ele>
        <time>2016-04-10T15:52:28Z</time>
      </trkpt>
      <trkpt lat="59.172475588781" lon="17.800383286575">
        <ele>14.4</ele>
        <time>2016-04-10T15:52:29Z</time>
      </trkpt>
      <trkpt lat="59.172530071131" lon="17.800565006167">
        <ele>14.4</ele>
        <time>2016-04-10T15:52:32Z</time>
      </trkpt>
      <trkpt lat="59.172622607307" lon="17.800896426493">
        <ele>14.4</ele>
        <time>2016-04-10T15:52:37Z</time>
      </trkpt>
      <trkpt lat="59.172679436589" lon="17.80115903142">
        <ele>14.4</ele>
        <time>2016-04-10T15:52:41Z</time>
      </trkpt>
      <trkpt lat="59.172743306667" lon="17.801351144568">
        <ele>14.8</ele>
        <time>2016-04-10T15:52:44Z</time>
      </trkpt>
      <trkpt lat="59.172761663028" lon="17.801413589723">
        <ele>15.2</ele>
        <time>2016-04-10T15:52:45Z</time>
      </trkpt>
      <trkpt lat="59.172779181199" lon="17.801484500597">
        <ele>15.6</ele>
        <time>2016-04-10T15:52:46Z</time>
      </trkpt>
      <trkpt lat="59.172799633035" lon="17.801559770059">
        <ele>16.2</ele>
        <time>2016-04-10T15:52:47Z</time>
      </trkpt>
      <trkpt lat="59.172817151206" lon="17.801633866055">
        <ele>16.6</ele>
        <time>2016-04-10T15:52:48Z</time>
      </trkpt>
      <trkpt lat="59.172868029339" lon="17.801851627817">
        <ele>16.6</ele>
        <time>2016-04-10T15:52:51Z</time>
      </trkpt>
      <trkpt lat="59.172884122587" lon="17.801930836772">
        <ele>16.6</ele>
        <time>2016-04-10T15:52:52Z</time>
      </trkpt>
      <trkpt lat="59.172942292973" lon="17.80215480114">
        <ele>16.6</ele>
        <time>2016-04-10T15:52:55Z</time>
      </trkpt>
      <trkpt lat="59.172975485297" lon="17.802311626489">
        <ele>16.6</ele>
        <time>2016-04-10T15:52:57Z</time>
      </trkpt>
      <trkpt lat="59.172996020952" lon="17.802406509597">
        <ele>17</ele>
        <time>2016-04-10T15:52:58Z</time>
      </trkpt>
      <trkpt lat="59.173014712589" lon="17.802496615022">
        <ele>17.4</ele>
        <time>2016-04-10T15:52:59Z</time>
      </trkpt>
      <trkpt lat="59.173030386742" lon="17.802582613316">
        <ele>17.8</ele>
        <time>2016-04-10T15:53:00Z</time>
      </trkpt>
      <trkpt lat="59.173053520786" lon="17.802659894434">
        <ele>18.2</ele>
        <time>2016-04-10T15:53:01Z</time>
      </trkpt>
      <trkpt lat="59.173079839952" lon="17.802731559679">
        <ele>18.8</ele>
        <time>2016-04-10T15:53:02Z</time>
      </trkpt>
      <trkpt lat="59.173182015313" lon="17.802920655343">
        <ele>18.8</ele>
        <time>2016-04-10T15:53:05Z</time>
      </trkpt>
      <trkpt lat="59.173245550115" lon="17.803030458233">
        <ele>18.8</ele>
        <time>2016-04-10T15:53:07Z</time>
      </trkpt>
      <trkpt lat="59.173276730783" lon="17.803084940583">
        <ele>19.2</ele>
        <time>2016-04-10T15:53:08Z</time>
      </trkpt>
      <trkpt lat="59.17330631889" lon="17.803139171476">
        <ele>19.6</ele>
        <time>2016-04-10T15:53:09Z</time>
      </trkpt>
      <trkpt lat="59.173333727703" lon="17.803191390713">
        <ele>20</ele>
        <time>2016-04-10T15:53:10Z</time>
      </trkpt>
      <trkpt lat="59.173363567267" lon="17.803240341009">
        <ele>20.4</ele>
        <time>2016-04-10T15:53:11Z</time>
      </trkpt>
      <trkpt lat="59.17339432884" lon="17.803289207486">
        <ele>20.8</ele>
        <time>2016-04-10T15:53:12Z</time>
      </trkpt>
      <trkpt lat="59.173458450375" lon="17.803378390902">
        <ele>20.8</ele>
        <time>2016-04-10T15:53:14Z</time>
      </trkpt>
      <trkpt lat="59.173626088375" lon="17.803602858184">
        <ele>20.8</ele>
        <time>2016-04-10T15:53:19Z</time>
      </trkpt>
      <trkpt lat="59.173664645115" lon="17.803648204263">
        <ele>21.2</ele>
        <time>2016-04-10T15:53:20Z</time>
      </trkpt>
      <trkpt lat="59.173701609294" lon="17.803691035772">
        <ele>21.8</ele>
        <time>2016-04-10T15:53:21Z</time>
      </trkpt>
      <trkpt lat="59.173733292876" lon="17.803729508693">
        <ele>22.2</ele>
        <time>2016-04-10T15:53:22Z</time>
      </trkpt>
      <trkpt lat="59.173761204603" lon="17.803761276094">
        <ele>22.6</ele>
        <time>2016-04-10T15:53:23Z</time>
      </trkpt>
      <trkpt lat="59.173789535425" lon="17.803791870029">
        <ele>23</ele>
        <time>2016-04-10T15:53:24Z</time>
      </trkpt>
      <trkpt lat="59.17382096755" lon="17.803821877231">
        <ele>23</ele>
        <time>2016-04-10T15:53:25Z</time>
      </trkpt>
      <trkpt lat="59.17404224971" lon="17.80402983217">
        <ele>23</ele>
        <time>2016-04-10T15:53:30Z</time>
      </trkpt>
      <trkpt lat="59.174097402612" lon="17.804064030322">
        <ele>23.4</ele>
        <time>2016-04-10T15:53:31Z</time>
      </trkpt>
      <trkpt lat="59.174148029288" lon="17.804102335605">
        <ele>23.8</ele>
        <time>2016-04-10T15:53:32Z</time>
      </trkpt>
      <trkpt lat="59.174200499982" lon="17.804134689739">
        <ele>24.2</ele>
        <time>2016-04-10T15:53:33Z</time>
      </trkpt>
      <trkpt lat="59.174251294296" lon="17.804179616723">
        <ele>24.6</ele>
        <time>2016-04-10T15:53:34Z</time>
      </trkpt>
      <trkpt lat="59.174296808013" lon="17.804225549535">
        <ele>25</ele>
        <time>2016-04-10T15:53:35Z</time>
      </trkpt>
      <trkpt lat="59.174535440706" lon="17.804473150861">
        <ele>25</ele>
        <time>2016-04-10T15:53:40Z</time>
      </trkpt>
      <trkpt lat="59.17481170813" lon="17.804761236764">
        <ele>25</ele>
        <time>2016-04-10T15:53:45Z</time>
      </trkpt>
      <trkpt lat="59.1750992073" lon="17.80508846614">
        <ele>25</ele>
        <time>2016-04-10T15:53:50Z</time>
      </trkpt>
      <trkpt lat="59.175227115094" lon="17.805217966495">
        <ele>24.6</ele>
        <time>2016-04-10T15:53:52Z</time>
      </trkpt>
      <trkpt lat="59.175288051507" lon="17.805282255668">
        <ele>24.2</ele>
        <time>2016-04-10T15:53:53Z</time>
      </trkpt>
      <trkpt lat="59.175353430327" lon="17.805343694995">
        <ele>23.6</ele>
        <time>2016-04-10T15:53:54Z</time>
      </trkpt>
      <trkpt lat="59.17542023407" lon="17.805407229797">
        <ele>22.6</ele>
        <time>2016-04-10T15:53:55Z</time>
      </trkpt>
      <trkpt lat="59.175482595406" lon="17.805467663296">
        <ele>22.6</ele>
        <time>2016-04-10T15:53:56Z</time>
      </trkpt>
      <trkpt lat="59.175813848094" lon="17.805823391132">
        <ele>22.6</ele>
        <time>2016-04-10T15:54:01Z</time>
      </trkpt>
      <trkpt lat="59.176071842976" lon="17.806198145881">
        <ele>22.2</ele>
        <time>2016-04-10T15:54:05Z</time>
      </trkpt>
      <trkpt lat="59.176135880692" lon="17.806302919631">
        <ele>21.6</ele>
        <time>2016-04-10T15:54:06Z</time>
      </trkpt>
      <trkpt lat="59.176202013883" lon="17.806403250974">
        <ele>21</ele>
        <time>2016-04-10T15:54:07Z</time>
      </trkpt>
      <trkpt lat="59.176264878133" lon="17.806500145738">
        <ele>20.4</ele>
        <time>2016-04-10T15:54:08Z</time>
      </trkpt>
      <trkpt lat="59.176326736555" lon="17.806605506221">
        <ele>20</ele>
        <time>2016-04-10T15:54:09Z</time>
      </trkpt>
      <trkpt lat="59.176445759535" lon="17.806821675422">
        <ele>20</ele>
        <time>2016-04-10T15:54:11Z</time>
      </trkpt>
      <trkpt lat="59.176803499027" lon="17.807497927114">
        <ele>20</ele>
        <time>2016-04-10T15:54:17Z</time>
      </trkpt>
      <trkpt lat="59.17708404122" lon="17.808124725596">
        <ele>19.4</ele>
        <time>2016-04-10T15:54:22Z</time>
      </trkpt>
      <trkpt lat="59.17714858185" lon="17.808247101336">
        <ele>19</ele>
        <time>2016-04-10T15:54:23Z</time>
      </trkpt>
      <trkpt lat="59.177209350625" lon="17.808370315266">
        <ele>18.6</ele>
        <time>2016-04-10T15:54:24Z</time>
      </trkpt>
      <trkpt lat="59.177270622314" lon="17.808490930807">
        <ele>18</ele>
        <time>2016-04-10T15:54:25Z</time>
      </trkpt>
      <trkpt lat="59.177329044157" lon="17.808613725642">
        <ele>17.6</ele>
        <time>2016-04-10T15:54:26Z</time>
      </trkpt>
      <trkpt lat="59.177548482299" lon="17.80908327968">
        <ele>17.6</ele>
        <time>2016-04-10T15:54:30Z</time>
      </trkpt>
      <trkpt lat="59.177700613784" lon="17.809368683375">
        <ele>17.6</ele>
        <time>2016-04-10T15:54:33Z</time>
      </trkpt>
      <trkpt lat="59.17791720208" lon="17.809727931609">
        <ele>17.6</ele>
        <time>2016-04-10T15:54:37Z</time>
      </trkpt>
      <trkpt lat="59.17823068514" lon="17.810188097919">
        <ele>17.6</ele>
        <time>2016-04-10T15:54:42Z</time>
      </trkpt>
      <trkpt lat="59.178303104756" lon="17.810271749281">
        <ele>17.6</ele>
        <time>2016-04-10T15:54:43Z</time>
      </trkpt>
      <trkpt lat="59.178437550432" lon="17.810439638738">
        <ele>17.6</ele>
        <time>2016-04-10T15:54:45Z</time>
      </trkpt>
      <trkpt lat="59.178572834298" lon="17.810622783253">
        <ele>17.6</ele>
        <time>2016-04-10T15:54:47Z</time>
      </trkpt>
      <trkpt lat="59.179032246237" lon="17.811148076926">
        <ele>17.6</ele>
        <time>2016-04-10T15:54:53Z</time>
      </trkpt>
      <trkpt lat="59.179497693144" lon="17.811723745818">
        <ele>17.6</ele>
        <time>2016-04-10T15:54:59Z</time>
      </trkpt>
      <trkpt lat="59.179986190276" lon="17.812508626934">
        <ele>17.6</ele>
        <time>2016-04-10T15:55:06Z</time>
      </trkpt>
      <trkpt lat="59.180432442632" lon="17.813289987652">
        <ele>17.6</ele>
        <time>2016-04-10T15:55:13Z</time>
      </trkpt>
      <trkpt lat="59.180501844764" lon="17.813389229348">
        <ele>17.6</ele>
        <time>2016-04-10T15:55:14Z</time>
      </trkpt>
      <trkpt lat="59.180622208848" lon="17.813598022477">
        <ele>17.6</ele>
        <time>2016-04-10T15:55:16Z</time>
      </trkpt>
      <trkpt lat="59.181068545023" lon="17.814314088194">
        <ele>17.6</ele>
        <time>2016-04-10T15:55:23Z</time>
      </trkpt>
      <trkpt lat="59.181143311571" lon="17.814405953818">
        <ele>17.6</ele>
        <time>2016-04-10T15:55:24Z</time>
      </trkpt>
      <trkpt lat="59.181224029268" lon="17.814495891605">
        <ele>17.2</ele>
        <time>2016-04-10T15:55:25Z</time>
      </trkpt>
      <trkpt lat="59.181310279019" lon="17.814580800252">
        <ele>16.8</ele>
        <time>2016-04-10T15:55:26Z</time>
      </trkpt>
      <trkpt lat="59.181401977005" lon="17.814662523777">
        <ele>16.4</ele>
        <time>2016-04-10T15:55:27Z</time>
      </trkpt>
      <trkpt lat="59.181496189561" lon="17.814739888714">
        <ele>15.6</ele>
        <time>2016-04-10T15:55:28Z</time>
      </trkpt>
      <trkpt lat="59.181595515076" lon="17.814812811244">
        <ele>15</ele>
        <time>2016-04-10T15:55:29Z</time>
      </trkpt>
      <trkpt lat="59.181691236374" lon="17.814877268055">
        <ele>14.2</ele>
        <time>2016-04-10T15:55:30Z</time>
      </trkpt>
      <trkpt lat="59.181788214957" lon="17.814935019346">
        <ele>13.2</ele>
        <time>2016-04-10T15:55:31Z</time>
      </trkpt>
      <trkpt lat="59.181883098065" lon="17.814987992954">
        <ele>12.4</ele>
        <time>2016-04-10T15:55:32Z</time>
      </trkpt>
      <trkpt lat="59.181979825191" lon="17.815029818635">
        <ele>11.6</ele>
        <time>2016-04-10T15:55:33Z</time>
      </trkpt>
      <trkpt lat="59.182079402163" lon="17.81506795628">
        <ele>10.6</ele>
        <time>2016-04-10T15:55:34Z</time>
      </trkpt>
      <trkpt lat="59.182172525072" lon="17.815098634034">
        <ele>10.6</ele>
        <time>2016-04-10T15:55:35Z</time>
      </trkpt>
      <trkpt lat="59.182555242626" lon="17.815202318137">
        <ele>10.6</ele>
        <time>2016-04-10T15:55:40Z</time>
      </trkpt>
      <trkpt lat="59.182638558712" lon="17.81522302143">
        <ele>10.6</ele>
        <time>2016-04-10T15:55:42Z</time>
      </trkpt>
      <trkpt lat="59.183159158521" lon="17.815380517331">
        <ele>10.6</ele>
        <time>2016-04-10T15:55:57Z</time>
      </trkpt>
      <trkpt lat="59.183315732413" lon="17.815420415175">
        <ele>10.2</ele>
        <time>2016-04-10T15:55:59Z</time>
      </trkpt>
      <trkpt lat="59.183406676028" lon="17.815449751825">
        <ele>9.8</ele>
        <time>2016-04-10T15:56:00Z</time>
      </trkpt>
      <trkpt lat="59.183497954919" lon="17.815480764855">
        <ele>9.4</ele>
        <time>2016-04-10T15:56:01Z</time>
      </trkpt>
      <trkpt lat="59.183591329285" lon="17.815517309939">
        <ele>9</ele>
        <time>2016-04-10T15:56:02Z</time>
      </trkpt>
      <trkpt lat="59.183687553497" lon="17.815557375421">
        <ele>8.4</ele>
        <time>2016-04-10T15:56:03Z</time>
      </trkpt>
      <trkpt lat="59.183784783537" lon="17.815608505011">
        <ele>7.8</ele>
        <time>2016-04-10T15:56:04Z</time>
      </trkpt>
      <trkpt lat="59.183890646934" lon="17.815671536899">
        <ele>7.2</ele>
        <time>2016-04-10T15:56:05Z</time>
      </trkpt>
      <trkpt lat="59.183994247218" lon="17.815734149692">
        <ele>6.6</ele>
        <time>2016-04-10T15:56:06Z</time>
      </trkpt>
      <trkpt lat="59.184094997656" lon="17.815805228204">
        <ele>5.8</ele>
        <time>2016-04-10T15:56:07Z</time>
      </trkpt>
      <trkpt lat="59.184195412818" lon="17.815882006408">
        <ele>5.4</ele>
        <time>2016-04-10T15:56:08Z</time>
      </trkpt>
      <trkpt lat="59.184295157428" lon="17.815963394657">
        <ele>5</ele>
        <time>2016-04-10T15:56:09Z</time>
      </trkpt>
      <trkpt lat="59.184392387468" lon="17.816054422091">
        <ele>4.4</ele>
        <time>2016-04-10T15:56:10Z</time>
      </trkpt>
      <trkpt lat="59.184487857309" lon="17.816147125905">
        <ele>4</ele>
        <time>2016-04-10T15:56:11Z</time>
      </trkpt>
      <trkpt lat="59.184578633286" lon="17.816240500271">
        <ele>3.6</ele>
        <time>2016-04-10T15:56:12Z</time>
      </trkpt>
      <trkpt lat="59.184968391636" lon="17.816595725193">
        <ele>3.2</ele>
        <time>2016-04-10T15:56:16Z</time>
      </trkpt>
      <trkpt lat="59.185077691612" lon="17.816670827017">
        <ele>2.8</ele>
        <time>2016-04-10T15:56:17Z</time>
      </trkpt>
      <trkpt lat="59.185192104547" lon="17.816745006832">
        <ele>2.2</ele>
        <time>2016-04-10T15:56:18Z</time>
      </trkpt>
      <trkpt lat="59.18531003788" lon="17.816815247154">
        <ele>1.6</ele>
        <time>2016-04-10T15:56:19Z</time>
      </trkpt>
      <trkpt lat="59.185428893222" lon="17.816885487476">
        <ele>0.8</ele>
        <time>2016-04-10T15:56:20Z</time>
      </trkpt>
      <trkpt lat="59.185549341125" lon="17.816959499653">
        <ele>0</ele>
        <time>2016-04-10T15:56:21Z</time>
      </trkpt>
      <trkpt lat="59.185669956666" lon="17.817035439667">
        <ele>0</ele>
        <time>2016-04-10T15:56:22Z</time>
      </trkpt>
      <trkpt lat="59.185800295211" lon="17.817115067717">
        <ele>0</ele>
        <time>2016-04-10T15:56:23Z</time>
      </trkpt>
      <trkpt lat="59.185926861901" lon="17.817186565324">
        <ele>0</ele>
        <time>2016-04-10T15:56:24Z</time>
      </trkpt>
      <trkpt lat="59.186058876826" lon="17.817252363239">
        <ele>0</ele>
        <time>2016-04-10T15:56:25Z</time>
      </trkpt>
      <trkpt lat="59.186189466828" lon="17.817304833933">
        <ele>0</ele>
        <time>2016-04-10T15:56:26Z</time>
      </trkpt>
      <trkpt lat="59.186324918332" lon="17.817329225262">
        <ele>0</ele>
        <time>2016-04-10T15:56:27Z</time>
      </trkpt>
      <trkpt lat="59.186462381492" lon="17.817355292971">
        <ele>0</ele>
        <time>2016-04-10T15:56:28Z</time>
      </trkpt>
      <trkpt lat="59.186602610679" lon="17.817372643504">
        <ele>0</ele>
        <time>2016-04-10T15:56:29Z</time>
      </trkpt>
      <trkpt lat="59.186752395232" lon="17.817405584371">
        <ele>0</ele>
        <time>2016-04-10T15:56:30Z</time>
      </trkpt>
      <trkpt lat="59.186891786229" lon="17.817459731445">
        <ele>0</ele>
        <time>2016-04-10T15:56:31Z</time>
      </trkpt>
      <trkpt lat="59.187028830294" lon="17.817542125522">
        <ele>0</ele>
        <time>2016-04-10T15:56:32Z</time>
      </trkpt>
      <trkpt lat="59.187160426124" lon="17.81765041967">
        <ele>0</ele>
        <time>2016-04-10T15:56:33Z</time>
      </trkpt>
      <trkpt lat="59.187280035837" lon="17.817781931681">
        <ele>0</ele>
        <time>2016-04-10T15:56:34Z</time>
      </trkpt>
      <trkpt lat="59.18739126365" lon="17.817940768686">
        <ele>0</ele>
        <time>2016-04-10T15:56:35Z</time>
      </trkpt>
      <trkpt lat="59.187493103735" lon="17.818112765274">
        <ele>0</ele>
        <time>2016-04-10T15:56:36Z</time>
      </trkpt>
      <trkpt lat="59.187585304635" lon="17.81829582597">
        <ele>0</ele>
        <time>2016-04-10T15:56:37Z</time>
      </trkpt>
      <trkpt lat="59.187677421716" lon="17.818481736512">
        <ele>0</ele>
        <time>2016-04-10T15:56:38Z</time>
      </trkpt>
      <trkpt lat="59.187762917096" lon="17.818648871598">
        <ele>0</ele>
        <time>2016-04-10T15:56:39Z</time>
      </trkpt>
      <trkpt lat="59.188145383193" lon="17.819237280978">
        <ele>0</ele>
        <time>2016-04-10T15:56:43Z</time>
      </trkpt>
      <trkpt lat="59.188642932777" lon="17.819848237669">
        <ele>0</ele>
        <time>2016-04-10T15:56:48Z</time>
      </trkpt>
      <trkpt lat="59.188740078998" lon="17.819966841554">
        <ele>0</ele>
        <time>2016-04-10T15:56:49Z</time>
      </trkpt>
      <trkpt lat="59.189016933155" lon="17.820368083107">
        <ele>0</ele>
        <time>2016-04-10T15:56:52Z</time>
      </trkpt>
      <trkpt lat="59.189109301693" lon="17.820510659226">
        <ele>0</ele>
        <time>2016-04-10T15:56:53Z</time>
      </trkpt>
      <trkpt lat="59.189193875064" lon="17.820646026911">
        <ele>0</ele>
        <time>2016-04-10T15:56:54Z</time>
      </trkpt>
      <trkpt lat="59.189278364616" lon="17.820776952189">
        <ele>0</ele>
        <time>2016-04-10T15:56:55Z</time>
      </trkpt>
      <trkpt lat="59.189362351254" lon="17.820904357069">
        <ele>0</ele>
        <time>2016-04-10T15:56:56Z</time>
      </trkpt>
      <trkpt lat="59.189703159308" lon="17.821390758726">
        <ele>0</ele>
        <time>2016-04-10T15:57:00Z</time>
      </trkpt>
      <trkpt lat="59.189877670466" lon="17.821616902388">
        <ele>0</ele>
        <time>2016-04-10T15:57:02Z</time>
      </trkpt>
      <trkpt lat="59.189967524434" lon="17.821727794925">
        <ele>0</ele>
        <time>2016-04-10T15:57:03Z</time>
      </trkpt>
      <trkpt lat="59.190059390058" lon="17.821835921435">
        <ele>0</ele>
        <time>2016-04-10T15:57:04Z</time>
      </trkpt>
      <trkpt lat="59.190151842415" lon="17.821942874479">
        <ele>0</ele>
        <time>2016-04-10T15:57:05Z</time>
      </trkpt>
      <trkpt lat="59.19024362422" lon="17.822053850835">
        <ele>0</ele>
        <time>2016-04-10T15:57:06Z</time>
      </trkpt>
      <trkpt lat="59.190335070749" lon="17.822162815535">
        <ele>0</ele>
        <time>2016-04-10T15:57:07Z</time>
      </trkpt>
      <trkpt lat="59.190617289322" lon="17.822487865617">
        <ele>0</ele>
        <time>2016-04-10T15:57:10Z</time>
      </trkpt>
      <trkpt lat="59.190707227109" lon="17.822592974643">
        <ele>0</ele>
        <time>2016-04-10T15:57:11Z</time>
      </trkpt>
      <trkpt lat="59.190797332534" lon="17.822694563271">
        <ele>0</ele>
        <time>2016-04-10T15:57:12Z</time>
      </trkpt>
      <trkpt lat="59.19088400138" lon="17.822797073908">
        <ele>0</ele>
        <time>2016-04-10T15:57:13Z</time>
      </trkpt>
      <trkpt lat="59.190971843692" lon="17.822899333088">
        <ele>0</ele>
        <time>2016-04-10T15:57:14Z</time>
      </trkpt>
      <trkpt lat="59.191479535375" lon="17.823505847372">
        <ele>0</ele>
        <time>2016-04-10T15:57:20Z</time>
      </trkpt>
      <trkpt lat="59.1915612589" lon="17.823600311385">
        <ele>0</ele>
        <time>2016-04-10T15:57:21Z</time>
      </trkpt>
      <trkpt lat="59.192041960865" lon="17.824182853435">
        <ele>0</ele>
        <time>2016-04-10T15:57:27Z</time>
      </trkpt>
      <trkpt lat="59.192193505617" lon="17.824386365967">
        <ele>0</ele>
        <time>2016-04-10T15:57:29Z</time>
      </trkpt>
      <trkpt lat="59.192635483204" lon="17.825005788377">
        <ele>0</ele>
        <time>2016-04-10T15:57:35Z</time>
      </trkpt>
      <trkpt lat="59.193055416394" lon="17.825685225191">
        <ele>0</ele>
        <time>2016-04-10T15:57:41Z</time>
      </trkpt>
      <trkpt lat="59.193124567069" lon="17.825801482144">
        <ele>0</ele>
        <time>2016-04-10T15:57:42Z</time>
      </trkpt>
      <trkpt lat="59.193192711916" lon="17.825924444617">
        <ele>0</ele>
        <time>2016-04-10T15:57:43Z</time>
      </trkpt>
      <trkpt lat="59.193262030229" lon="17.826045143977">
        <ele>0</ele>
        <time>2016-04-10T15:57:44Z</time>
      </trkpt>
      <trkpt lat="59.193334701302" lon="17.826173806142">
        <ele>0</ele>
        <time>2016-04-10T15:57:45Z</time>
      </trkpt>
      <trkpt lat="59.193404690167" lon="17.826299199366">
        <ele>0</ele>
        <time>2016-04-10T15:57:46Z</time>
      </trkpt>
      <trkpt lat="59.193601748636" lon="17.82667604959">
        <ele>0</ele>
        <time>2016-04-10T15:57:49Z</time>
      </trkpt>
      <trkpt lat="59.193731668086" lon="17.826924656744">
        <ele>0</ele>
        <time>2016-04-10T15:57:51Z</time>
      </trkpt>
      <trkpt lat="59.193797046906" lon="17.827041919525">
        <ele>0</ele>
        <time>2016-04-10T15:57:52Z</time>
      </trkpt>
      <trkpt lat="59.19386460502" lon="17.827171587518">
        <ele>0</ele>
        <time>2016-04-10T15:57:53Z</time>
      </trkpt>
      <trkpt lat="59.193928558917" lon="17.827289688489">
        <ele>0</ele>
        <time>2016-04-10T15:57:54Z</time>
      </trkpt>
      <trkpt lat="59.193990668796" lon="17.827412986238">
        <ele>0</ele>
        <time>2016-04-10T15:57:55Z</time>
      </trkpt>
      <trkpt lat="59.194116564934" lon="17.827662263944">
        <ele>0</ele>
        <time>2016-04-10T15:57:57Z</time>
      </trkpt>
      <trkpt lat="59.19448989476" lon="17.828426944681">
        <ele>0</ele>
        <time>2016-04-10T15:58:03Z</time>
      </trkpt>
      <trkpt lat="59.194670859981" lon="17.828809746054">
        <ele>0</ele>
        <time>2016-04-10T15:58:06Z</time>
      </trkpt>
      <trkpt lat="59.195045363273" lon="17.829592699333">
        <ele>0</ele>
        <time>2016-04-10T15:58:12Z</time>
      </trkpt>
      <trkpt lat="59.195165978814" lon="17.829858908477">
        <ele>0</ele>
        <time>2016-04-10T15:58:14Z</time>
      </trkpt>
      <trkpt lat="59.195493711104" lon="17.830669941121">
        <ele>0</ele>
        <time>2016-04-10T15:58:20Z</time>
      </trkpt>
      <trkpt lat="59.195533106034" lon="17.830811511412">
        <ele>0</ele>
        <time>2016-04-10T15:58:21Z</time>
      </trkpt>
      <trkpt lat="59.195759584972" lon="17.831463707051">
        <ele>0</ele>
        <time>2016-04-10T15:58:26Z</time>
      </trkpt>
      <trkpt lat="59.196016741664" lon="17.832120680373">
        <ele>0</ele>
        <time>2016-04-10T15:58:31Z</time>
      </trkpt>
      <trkpt lat="59.196314047657" lon="17.832854934813">
        <ele>0</ele>
        <time>2016-04-10T15:58:36Z</time>
      </trkpt>
      <trkpt lat="59.196371212215" lon="17.833002791529">
        <ele>0</ele>
        <time>2016-04-10T15:58:37Z</time>
      </trkpt>
      <trkpt lat="59.196427706221" lon="17.833153414272">
        <ele>0</ele>
        <time>2016-04-10T15:58:38Z</time>
      </trkpt>
      <trkpt lat="59.19648897791" lon="17.8333136762">
        <ele>0</ele>
        <time>2016-04-10T15:58:39Z</time>
      </trkpt>
      <trkpt lat="59.196550584875" lon="17.83346203583">
        <ele>0</ele>
        <time>2016-04-10T15:58:40Z</time>
      </trkpt>
      <trkpt lat="59.19672534749" lon="17.833920777217">
        <ele>0</ele>
        <time>2016-04-10T15:58:43Z</time>
      </trkpt>
      <trkpt lat="59.196839006054" lon="17.834225040187">
        <ele>0</ele>
        <time>2016-04-10T15:58:45Z</time>
      </trkpt>
      <trkpt lat="59.196893572223" lon="17.834391923816">
        <ele>0</ele>
        <time>2016-04-10T15:58:46Z</time>
      </trkpt>
      <trkpt lat="59.19694579146" lon="17.834553526848">
        <ele>0</ele>
        <time>2016-04-10T15:58:47Z</time>
      </trkpt>
      <trkpt lat="59.197002034009" lon="17.834713704957">
        <ele>0</ele>
        <time>2016-04-10T15:58:48Z</time>
      </trkpt>
      <trkpt lat="59.197059114748" lon="17.834870278849">
        <ele>0</ele>
        <time>2016-04-10T15:58:49Z</time>
      </trkpt>
      <trkpt lat="59.197397492051" lon="17.835804693061">
        <ele>0</ele>
        <time>2016-04-10T15:58:55Z</time>
      </trkpt>
      <trkpt lat="59.197489860589" lon="17.836126306564">
        <ele>0</ele>
        <time>2016-04-10T15:58:57Z</time>
      </trkpt>
      <trkpt lat="59.197534368478" lon="17.836291932908">
        <ele>0</ele>
        <time>2016-04-10T15:58:58Z</time>
      </trkpt>
      <trkpt lat="59.197580133652" lon="17.836454625587">
        <ele>0</ele>
        <time>2016-04-10T15:58:59Z</time>
      </trkpt>
      <trkpt lat="59.197627910482" lon="17.836626957451">
        <ele>0</ele>
        <time>2016-04-10T15:59:00Z</time>
      </trkpt>
      <trkpt lat="59.197671915457" lon="17.836797696754">
        <ele>0</ele>
        <time>2016-04-10T15:59:01Z</time>
      </trkpt>
      <trkpt lat="59.197719608468" lon="17.836963406917">
        <ele>0</ele>
        <time>2016-04-10T15:59:02Z</time>
      </trkpt>
      <trkpt lat="59.197994115693" lon="17.837732697699">
        <ele>0</ele>
        <time>2016-04-10T15:59:07Z</time>
      </trkpt>
      <trkpt lat="59.198054968287" lon="17.837881644062">
        <ele>0</ele>
        <time>2016-04-10T15:59:08Z</time>
      </trkpt>
      <trkpt lat="59.198120011831" lon="17.838032266805">
        <ele>0</ele>
        <time>2016-04-10T15:59:09Z</time>
      </trkpt>
      <trkpt lat="59.19817793076" lon="17.838180458797">
        <ele>0</ele>
        <time>2016-04-10T15:59:10Z</time>
      </trkpt>
      <trkpt lat="59.198235682051" lon="17.838333093196">
        <ele>0</ele>
        <time>2016-04-10T15:59:11Z</time>
      </trkpt>
      <trkpt lat="59.198287817469" lon="17.838482207197">
        <ele>0</ele>
        <time>2016-04-10T15:59:12Z</time>
      </trkpt>
      <trkpt lat="59.198341545448" lon="17.838635428329">
        <ele>0</ele>
        <time>2016-04-10T15:59:13Z</time>
      </trkpt>
      <trkpt lat="59.198394435237" lon="17.838786889262">
        <ele>0</ele>
        <time>2016-04-10T15:59:14Z</time>
      </trkpt>
      <trkpt lat="59.19844698975" lon="17.838914042685">
        <ele>0</ele>
        <time>2016-04-10T15:59:15Z</time>
      </trkpt>
      <trkpt lat="59.198500550091" lon="17.839030634914">
        <ele>0</ele>
        <time>2016-04-10T15:59:16Z</time>
      </trkpt>
      <trkpt lat="59.198553188423" lon="17.839145466944">
        <ele>0</ele>
        <time>2016-04-10T15:59:17Z</time>
      </trkpt>
      <trkpt lat="59.198605240022" lon="17.839260298974">
        <ele>0</ele>
        <time>2016-04-10T15:59:18Z</time>
      </trkpt>
      <trkpt lat="59.198699452578" lon="17.839487699921">
        <ele>0</ele>
        <time>2016-04-10T15:59:20Z</time>
      </trkpt>
      <trkpt lat="59.198742703182" lon="17.839616865">
        <ele>0</ele>
        <time>2016-04-10T15:59:21Z</time>
      </trkpt>
      <trkpt lat="59.19877891299" lon="17.839742844957">
        <ele>0</ele>
        <time>2016-04-10T15:59:22Z</time>
      </trkpt>
      <trkpt lat="59.198809423106" lon="17.839874859882">
        <ele>0</ele>
        <time>2016-04-10T15:59:23Z</time>
      </trkpt>
      <trkpt lat="59.198835993729" lon="17.840010395205">
        <ele>0</ele>
        <time>2016-04-10T15:59:24Z</time>
      </trkpt>
      <trkpt lat="59.198909251535" lon="17.840423706694">
        <ele>0</ele>
        <time>2016-04-10T15:59:27Z</time>
      </trkpt>
      <trkpt lat="59.199023999746" lon="17.841339177812">
        <ele>0</ele>
        <time>2016-04-10T15:59:33Z</time>
      </trkpt>
      <trkpt lat="59.199066915074" lon="17.84243569797">
        <ele>0</ele>
        <time>2016-04-10T15:59:40Z</time>
      </trkpt>
      <trkpt lat="59.199057862622" lon="17.842907934216">
        <ele>0</ele>
        <time>2016-04-10T15:59:43Z</time>
      </trkpt>
      <trkpt lat="59.199052665844" lon="17.843066268307">
        <ele>0</ele>
        <time>2016-04-10T15:59:44Z</time>
      </trkpt>
      <trkpt lat="59.199043613392" lon="17.843221333457">
        <ele>0</ele>
        <time>2016-04-10T15:59:45Z</time>
      </trkpt>
      <trkpt lat="59.199037243148" lon="17.843384780507">
        <ele>0</ele>
        <time>2016-04-10T15:59:46Z</time>
      </trkpt>
      <trkpt lat="59.199031459637" lon="17.843538420734">
        <ele>0</ele>
        <time>2016-04-10T15:59:47Z</time>
      </trkpt>
      <trkpt lat="59.199027352506" lon="17.843691977142">
        <ele>0</ele>
        <time>2016-04-10T15:59:48Z</time>
      </trkpt>
      <trkpt lat="59.199034309483" lon="17.844098583111">
        <ele>0</ele>
        <time>2016-04-10T15:59:51Z</time>
      </trkpt>
      <trkpt lat="59.199026681954" lon="17.844699062427">
        <ele>0</ele>
        <time>2016-04-10T15:59:56Z</time>
      </trkpt>
      <trkpt lat="59.199019305882" lon="17.844986226321">
        <ele>0</ele>
        <time>2016-04-10T15:59:58Z</time>
      </trkpt>
      <trkpt lat="59.199008912326" lon="17.84540791971">
        <ele>0</ele>
        <time>2016-04-10T16:00:01Z</time>
      </trkpt>
      <trkpt lat="59.198993070535" lon="17.846107975998">
        <ele>0</ele>
        <time>2016-04-10T16:00:06Z</time>
      </trkpt>
      <trkpt lat="59.198987119386" lon="17.846512067397">
        <ele>0</ele>
        <time>2016-04-10T16:00:09Z</time>
      </trkpt>
      <trkpt lat="59.19898510773" lon="17.846645758702">
        <ele>0</ele>
        <time>2016-04-10T16:00:10Z</time>
      </trkpt>
      <trkpt lat="59.198991477974" lon="17.846777438351">
        <ele>0</ele>
        <time>2016-04-10T16:00:11Z</time>
      </trkpt>
      <trkpt lat="59.199005056652" lon="17.846906268154">
        <ele>0</ele>
        <time>2016-04-10T16:00:12Z</time>
      </trkpt>
      <trkpt lat="59.199023496832" lon="17.84703568469">
        <ele>0</ele>
        <time>2016-04-10T16:00:13Z</time>
      </trkpt>
      <trkpt lat="59.199068172359" lon="17.847419072796">
        <ele>0</ele>
        <time>2016-04-10T16:00:16Z</time>
      </trkpt>
      <trkpt lat="59.199065825427" lon="17.847544885115">
        <ele>0</ele>
        <time>2016-04-10T16:00:17Z</time>
      </trkpt>
      <trkpt lat="59.199064903418" lon="17.847671954719">
        <ele>0</ele>
        <time>2016-04-10T16:00:18Z</time>
      </trkpt>
      <trkpt lat="59.199063813771" lon="17.847798018495">
        <ele>0</ele>
        <time>2016-04-10T16:00:19Z</time>
      </trkpt>
      <trkpt lat="59.199066831255" lon="17.847928692316">
        <ele>0</ele>
        <time>2016-04-10T16:00:20Z</time>
      </trkpt>
      <trkpt lat="59.199066076884" lon="17.848060288146">
        <ele>0</ele>
        <time>2016-04-10T16:00:21Z</time>
      </trkpt>
      <trkpt lat="59.19906473578" lon="17.848192303071">
        <ele>0</ele>
        <time>2016-04-10T16:00:22Z</time>
      </trkpt>
      <trkpt lat="59.199068591454" lon="17.848739054408">
        <ele>0</ele>
        <time>2016-04-10T16:00:26Z</time>
      </trkpt>
      <trkpt lat="59.1990630594" lon="17.848865118184">
        <ele>0</ele>
        <time>2016-04-10T16:00:27Z</time>
      </trkpt>
      <trkpt lat="59.19906222121" lon="17.849399967223">
        <ele>0</ele>
        <time>2016-04-10T16:00:31Z</time>
      </trkpt>
      <trkpt lat="59.199057862622" lon="17.849792575419">
        <ele>0</ele>
        <time>2016-04-10T16:00:34Z</time>
      </trkpt>
      <trkpt lat="59.199054928957" lon="17.849925847629">
        <ele>0</ele>
        <time>2016-04-10T16:00:35Z</time>
      </trkpt>
      <trkpt lat="59.199054006948" lon="17.850051743767">
        <ele>0</ele>
        <time>2016-04-10T16:00:36Z</time>
      </trkpt>
      <trkpt lat="59.199052917301" lon="17.850171018204">
        <ele>0</ele>
        <time>2016-04-10T16:00:37Z</time>
      </trkpt>
      <trkpt lat="59.19905300112" lon="17.850286939881">
        <ele>0</ele>
        <time>2016-04-10T16:00:38Z</time>
      </trkpt>
      <trkpt lat="59.199055096595" lon="17.850981799391">
        <ele>0</ele>
        <time>2016-04-10T16:00:44Z</time>
      </trkpt>
      <trkpt lat="59.199046798514" lon="17.851438780579">
        <ele>0</ele>
        <time>2016-04-10T16:00:49Z</time>
      </trkpt>
      <trkpt lat="59.199034812397" lon="17.851639694722">
        <ele>0</ele>
        <time>2016-04-10T16:00:51Z</time>
      </trkpt>
      <trkpt lat="59.199026681954" lon="17.851741870083">
        <ele>0</ele>
        <time>2016-04-10T16:00:52Z</time>
      </trkpt>
      <trkpt lat="59.199017713321" lon="17.851843458711">
        <ele>0</ele>
        <time>2016-04-10T16:00:53Z</time>
      </trkpt>
      <trkpt lat="59.199009079964" lon="17.851951501402">
        <ele>0</ele>
        <time>2016-04-10T16:00:54Z</time>
      </trkpt>
      <trkpt lat="59.199006649213" lon="17.852060885197">
        <ele>0</ele>
        <time>2016-04-10T16:00:55Z</time>
      </trkpt>
      <trkpt lat="59.19899684239" lon="17.852275294199">
        <ele>0</ele>
        <time>2016-04-10T16:00:57Z</time>
      </trkpt>
      <trkpt lat="59.198995668924" lon="17.852370177307">
        <ele>0</ele>
        <time>2016-04-10T16:00:58Z</time>
      </trkpt>
      <trkpt lat="59.198996423295" lon="17.852467072071">
        <ele>0</ele>
        <time>2016-04-10T16:00:59Z</time>
      </trkpt>
      <trkpt lat="59.198997429123" lon="17.852565391758">
        <ele>0</ele>
        <time>2016-04-10T16:01:00Z</time>
      </trkpt>
      <trkpt lat="59.198993824906" lon="17.852659352857">
        <ele>0</ele>
        <time>2016-04-10T16:01:01Z</time>
      </trkpt>
      <trkpt lat="59.198987454662" lon="17.852848197064">
        <ele>0</ele>
        <time>2016-04-10T16:01:03Z</time>
      </trkpt>
      <trkpt lat="59.198988292852" lon="17.852939978869">
        <ele>0</ele>
        <time>2016-04-10T16:01:04Z</time>
      </trkpt>
      <trkpt lat="59.198985862101" lon="17.853020696566">
        <ele>0</ele>
        <time>2016-04-10T16:01:05Z</time>
      </trkpt>
      <trkpt lat="59.19898510773" lon="17.853095966028">
        <ele>0</ele>
        <time>2016-04-10T16:01:06Z</time>
      </trkpt>
      <trkpt lat="59.198989633956" lon="17.853174169155">
        <ele>0</ele>
        <time>2016-04-10T16:01:07Z</time>
      </trkpt>
      <trkpt lat="59.1989960042" lon="17.853419842644">
        <ele>0</ele>
        <time>2016-04-10T16:01:10Z</time>
      </trkpt>
      <trkpt lat="59.198995501286" lon="17.853508690784">
        <ele>0</ele>
        <time>2016-04-10T16:01:11Z</time>
      </trkpt>
      <trkpt lat="59.198989131042" lon="17.853582283866">
        <ele>0</ele>
        <time>2016-04-10T16:01:12Z</time>
      </trkpt>
      <trkpt lat="59.198984185721" lon="17.853652775645">
        <ele>0</ele>
        <time>2016-04-10T16:01:13Z</time>
      </trkpt>
      <trkpt lat="59.198978234572" lon="17.853733241885">
        <ele>0</ele>
        <time>2016-04-10T16:01:14Z</time>
      </trkpt>
      <trkpt lat="59.198970439405" lon="17.853803566026">
        <ele>0</ele>
        <time>2016-04-10T16:01:15Z</time>
      </trkpt>
      <trkpt lat="59.19895996203" lon="17.853952847665">
        <ele>0</ele>
        <time>2016-04-10T16:01:17Z</time>
      </trkpt>
      <trkpt lat="59.198950909578" lon="17.854115707982">
        <ele>0</ele>
        <time>2016-04-10T16:01:19Z</time>
      </trkpt>
      <trkpt lat="59.198942862954" lon="17.854196006584">
        <ele>0</ele>
        <time>2016-04-10T16:01:20Z</time>
      </trkpt>
      <trkpt lat="59.198933391407" lon="17.854274796444">
        <ele>0</ele>
        <time>2016-04-10T16:01:21Z</time>
      </trkpt>
      <trkpt lat="59.198923333127" lon="17.854351239372">
        <ele>0</ele>
        <time>2016-04-10T16:01:22Z</time>
      </trkpt>
      <trkpt lat="59.19890464149" lon="17.854520889028">
        <ele>0</ele>
        <time>2016-04-10T16:01:24Z</time>
      </trkpt>
      <trkpt lat="59.198898187427" lon="17.854706464294">
        <ele>0</ele>
        <time>2016-04-10T16:01:26Z</time>
      </trkpt>
      <trkpt lat="59.198888548242" lon="17.855368382937">
        <ele>0</ele>
        <time>2016-04-10T16:01:32Z</time>
      </trkpt>
      <trkpt lat="59.198893996477" lon="17.85571681852">
        <ele>0</ele>
        <time>2016-04-10T16:01:35Z</time>
      </trkpt>
      <trkpt lat="59.198910005906" lon="17.855964336027">
        <ele>0</ele>
        <time>2016-04-10T16:01:37Z</time>
      </trkpt>
      <trkpt lat="59.198905563499" lon="17.856607143938">
        <ele>0</ele>
        <time>2016-04-10T16:01:42Z</time>
      </trkpt>
      <trkpt lat="59.198858373402" lon="17.85754994005">
        <ele>0</ele>
        <time>2016-04-10T16:01:49Z</time>
      </trkpt>
      <trkpt lat="59.198847896027" lon="17.85781480809">
        <ele>0</ele>
        <time>2016-04-10T16:01:51Z</time>
      </trkpt>
      <trkpt lat="59.198842866887" lon="17.857949253766">
        <ele>0</ele>
        <time>2016-04-10T16:01:52Z</time>
      </trkpt>
      <trkpt lat="59.198838005385" lon="17.858084369994">
        <ele>0</ele>
        <time>2016-04-10T16:01:53Z</time>
      </trkpt>
      <trkpt lat="59.198832892426" lon="17.858225940285">
        <ele>0</ele>
        <time>2016-04-10T16:01:54Z</time>
      </trkpt>
      <trkpt lat="59.198828785295" lon="17.858367762033">
        <ele>0</ele>
        <time>2016-04-10T16:01:55Z</time>
      </trkpt>
      <trkpt lat="59.198817637368" lon="17.858778642771">
        <ele>0</ele>
        <time>2016-04-10T16:01:58Z</time>
      </trkpt>
      <trkpt lat="59.198769441443" lon="17.859749685886">
        <ele>0</ele>
        <time>2016-04-10T16:02:05Z</time>
      </trkpt>
      <trkpt lat="59.198749408702" lon="17.860582427651">
        <ele>0</ele>
        <time>2016-04-10T16:02:11Z</time>
      </trkpt>
      <trkpt lat="59.198748235236" lon="17.861398657073">
        <ele>0</ele>
        <time>2016-04-10T16:02:17Z</time>
      </trkpt>
      <trkpt lat="59.198736919671" lon="17.862224693318">
        <ele>0</ele>
        <time>2016-04-10T16:02:23Z</time>
      </trkpt>
      <trkpt lat="59.198753180557" lon="17.863154581304">
        <ele>0</ele>
        <time>2016-04-10T16:02:30Z</time>
      </trkpt>
      <trkpt lat="59.198766759235" lon="17.864240121173">
        <ele>0</ele>
        <time>2016-04-10T16:02:38Z</time>
      </trkpt>
      <trkpt lat="59.198779499723" lon="17.865167326951">
        <ele>0</ele>
        <time>2016-04-10T16:02:45Z</time>
      </trkpt>
      <trkpt lat="59.198772710384" lon="17.865304706292">
        <ele>0</ele>
        <time>2016-04-10T16:02:46Z</time>
      </trkpt>
      <trkpt lat="59.198772710384" lon="17.865429931878">
        <ele>0</ele>
        <time>2016-04-10T16:02:47Z</time>
      </trkpt>
      <trkpt lat="59.198779667361" lon="17.865562365898">
        <ele>0</ele>
        <time>2016-04-10T16:02:48Z</time>
      </trkpt>
      <trkpt lat="59.198789222727" lon="17.865689519321">
        <ele>0</ele>
        <time>2016-04-10T16:02:49Z</time>
      </trkpt>
      <trkpt lat="59.198798023722" lon="17.865810973052">
        <ele>0</ele>
        <time>2016-04-10T16:02:50Z</time>
      </trkpt>
      <trkpt lat="59.198871030071" lon="17.866663831377">
        <ele>0</ele>
        <time>2016-04-10T16:02:57Z</time>
      </trkpt>
      <trkpt lat="59.198969768853" lon="17.867244780866">
        <ele>0</ele>
        <time>2016-04-10T16:03:02Z</time>
      </trkpt>
      <trkpt lat="59.19907060311" lon="17.867655242509">
        <ele>0</ele>
        <time>2016-04-10T16:03:06Z</time>
      </trkpt>
      <trkpt lat="59.199092563688" lon="17.867737636586">
        <ele>0</ele>
        <time>2016-04-10T16:03:07Z</time>
      </trkpt>
      <trkpt lat="59.19910999804" lon="17.86781692936">
        <ele>0</ele>
        <time>2016-04-10T16:03:08Z</time>
      </trkpt>
      <trkpt lat="59.199123911994" lon="17.867891109175">
        <ele>0</ele>
        <time>2016-04-10T16:03:09Z</time>
      </trkpt>
      <trkpt lat="59.199140843432" lon="17.867965372809">
        <ele>0</ele>
        <time>2016-04-10T16:03:10Z</time>
      </trkpt>
      <trkpt lat="59.199155930852" lon="17.868033266199">
        <ele>0</ele>
        <time>2016-04-10T16:03:11Z</time>
      </trkpt>
      <trkpt lat="59.199171269729" lon="17.868101411046">
        <ele>0</ele>
        <time>2016-04-10T16:03:12Z</time>
      </trkpt>
      <trkpt lat="59.199186440968" lon="17.868168801522">
        <ele>0</ele>
        <time>2016-04-10T16:03:13Z</time>
      </trkpt>
      <trkpt lat="59.199260536964" lon="17.868451020095">
        <ele>0</ele>
        <time>2016-04-10T16:03:17Z</time>
      </trkpt>
      <trkpt lat="59.199271684891" lon="17.868532659801">
        <ele>0</ele>
        <time>2016-04-10T16:03:18Z</time>
      </trkpt>
      <trkpt lat="59.199281156438" lon="17.86860901891">
        <ele>0</ele>
        <time>2016-04-10T16:03:19Z</time>
      </trkpt>
      <trkpt lat="59.199308062337" lon="17.868665932011">
        <ele>0</ele>
        <time>2016-04-10T16:03:20Z</time>
      </trkpt>
      <trkpt lat="59.199327675983" lon="17.868735753238">
        <ele>0</ele>
        <time>2016-04-10T16:03:21Z</time>
      </trkpt>
      <trkpt lat="59.199347541086" lon="17.868797276384">
        <ele>0</ele>
        <time>2016-04-10T16:03:22Z</time>
      </trkpt>
      <trkpt lat="59.199385427274" lon="17.868924765083">
        <ele>0</ele>
        <time>2016-04-10T16:03:24Z</time>
      </trkpt>
      <trkpt lat="59.199406968757" lon="17.868981091451">
        <ele>0</ele>
        <time>2016-04-10T16:03:25Z</time>
      </trkpt>
      <trkpt lat="59.199428677878" lon="17.86903565762">
        <ele>0</ele>
        <time>2016-04-10T16:03:26Z</time>
      </trkpt>
      <trkpt lat="59.199450219361" lon="17.869096258757">
        <ele>0</ele>
        <time>2016-04-10T16:03:27Z</time>
      </trkpt>
      <trkpt lat="59.199475700337" lon="17.869159877378">
        <ele>0</ele>
        <time>2016-04-10T16:03:28Z</time>
      </trkpt>
      <trkpt lat="59.199529595954" lon="17.869277140159">
        <ele>0</ele>
        <time>2016-04-10T16:03:30Z</time>
      </trkpt>
      <trkpt lat="59.199597573163" lon="17.869385099031">
        <ele>0</ele>
        <time>2016-04-10T16:03:32Z</time>
      </trkpt>
      <trkpt lat="59.199626742175" lon="17.869446286901">
        <ele>0</ele>
        <time>2016-04-10T16:03:33Z</time>
      </trkpt>
      <trkpt lat="59.199702095456" lon="17.869635131108">
        <ele>0</ele>
        <time>2016-04-10T16:03:36Z</time>
      </trkpt>
      <trkpt lat="59.19972942045" lon="17.869687434164">
        <ele>0</ele>
        <time>2016-04-10T16:03:37Z</time>
      </trkpt>
      <trkpt lat="59.199755488159" lon="17.86974644274">
        <ele>0</ele>
        <time>2016-04-10T16:03:38Z</time>
      </trkpt>
      <trkpt lat="59.199778203108" lon="17.869808971714">
        <ele>0</ele>
        <time>2016-04-10T16:03:39Z</time>
      </trkpt>
      <trkpt lat="59.199802091523" lon="17.869876613647">
        <ele>0</ele>
        <time>2016-04-10T16:03:40Z</time>
      </trkpt>
      <trkpt lat="59.199883815048" lon="17.870083898034">
        <ele>0</ele>
        <time>2016-04-10T16:03:43Z</time>
      </trkpt>
      <trkpt lat="59.199921114503" lon="17.870153216347">
        <ele>0</ele>
        <time>2016-04-10T16:03:44Z</time>
      </trkpt>
      <trkpt lat="59.199954725922" lon="17.870226893248">
        <ele>0</ele>
        <time>2016-04-10T16:03:45Z</time>
      </trkpt>
      <trkpt lat="59.199989175531" lon="17.870297552665">
        <ele>0</ele>
        <time>2016-04-10T16:03:46Z</time>
      </trkpt>
      <trkpt lat="59.200028738099" lon="17.870358824354">
        <ele>0</ele>
        <time>2016-04-10T16:03:47Z</time>
      </trkpt>
      <trkpt lat="59.200066791925" lon="17.870423281165">
        <ele>0</ele>
        <time>2016-04-10T16:03:48Z</time>
      </trkpt>
      <trkpt lat="59.20020551237" lon="17.870695357639">
        <ele>0</ele>
        <time>2016-04-10T16:03:52Z</time>
      </trkpt>
      <trkpt lat="59.200278937814" lon="17.870836425016">
        <ele>0</ele>
        <time>2016-04-10T16:03:54Z</time>
      </trkpt>
      <trkpt lat="59.200371557809" lon="17.871030466001">
        <ele>0</ele>
        <time>2016-04-10T16:03:56Z</time>
      </trkpt>
      <trkpt lat="59.200458561931" lon="17.871224590805">
        <ele>0</ele>
        <time>2016-04-10T16:03:58Z</time>
      </trkpt>
      <trkpt lat="59.200623182447" lon="17.871679560337">
        <ele>0</ele>
        <time>2016-04-10T16:04:02Z</time>
      </trkpt>
      <trkpt lat="59.200656793866" lon="17.87182180118">
        <ele>0</ele>
        <time>2016-04-10T16:04:03Z</time>
      </trkpt>
      <trkpt lat="59.200733320613" lon="17.872463351806">
        <ele>0</ele>
        <time>2016-04-10T16:04:07Z</time>
      </trkpt>
      <trkpt lat="59.200740445228" lon="17.872642053914">
        <ele>0</ele>
        <time>2016-04-10T16:04:08Z</time>
      </trkpt>
      <trkpt lat="59.200745977282" lon="17.872827042447">
        <ele>0</ele>
        <time>2016-04-10T16:04:09Z</time>
      </trkpt>
      <trkpt lat="59.200752431345" lon="17.873021334889">
        <ele>0</ele>
        <time>2016-04-10T16:04:10Z</time>
      </trkpt>
      <trkpt lat="59.200760142693" lon="17.873209592363">
        <ele>0</ele>
        <time>2016-04-10T16:04:11Z</time>
      </trkpt>
      <trkpt lat="59.200763076358" lon="17.87340095114">
        <ele>0</ele>
        <time>2016-04-10T16:04:12Z</time>
      </trkpt>
      <trkpt lat="59.200765004195" lon="17.873591052632">
        <ele>0</ele>
        <time>2016-04-10T16:04:13Z</time>
      </trkpt>
      <trkpt lat="59.200764249824" lon="17.87378316578">
        <ele>0</ele>
        <time>2016-04-10T16:04:14Z</time>
      </trkpt>
      <trkpt lat="59.200759807417" lon="17.873975698023">
        <ele>0</ele>
        <time>2016-04-10T16:04:15Z</time>
      </trkpt>
      <trkpt lat="59.200752934259" lon="17.874170074284">
        <ele>0</ele>
        <time>2016-04-10T16:04:16Z</time>
      </trkpt>
      <trkpt lat="59.20074195397" lon="17.874361935975">
        <ele>0</ele>
        <time>2016-04-10T16:04:17Z</time>
      </trkpt>
      <trkpt lat="59.200725860722" lon="17.874558072435">
        <ele>0</ele>
        <time>2016-04-10T16:04:18Z</time>
      </trkpt>
      <trkpt lat="59.200707420542" lon="17.874739959665">
        <ele>0</ele>
        <time>2016-04-10T16:04:19Z</time>
      </trkpt>
      <trkpt lat="59.200545230777" lon="17.875758947248">
        <ele>0</ele>
        <time>2016-04-10T16:04:25Z</time>
      </trkpt>
      <trkpt lat="59.200374323836" lon="17.876754800787">
        <ele>0</ele>
        <time>2016-04-10T16:04:31Z</time>
      </trkpt>
      <trkpt lat="59.200315147622" lon="17.877078006851">
        <ele>0</ele>
        <time>2016-04-10T16:04:33Z</time>
      </trkpt>
      <trkpt lat="59.200119094981" lon="17.87816270853">
        <ele>0</ele>
        <time>2016-04-10T16:04:40Z</time>
      </trkpt>
      <trkpt lat="59.200092608177" lon="17.878324395381">
        <ele>0</ele>
        <time>2016-04-10T16:04:41Z</time>
      </trkpt>
      <trkpt lat="59.199901417038" lon="17.879377832573">
        <ele>0</ele>
        <time>2016-04-10T16:04:48Z</time>
      </trkpt>
      <trkpt lat="59.199875349329" lon="17.879532646266">
        <ele>0</ele>
        <time>2016-04-10T16:04:49Z</time>
      </trkpt>
      <trkpt lat="59.199712489012" lon="17.880555321885">
        <ele>0</ele>
        <time>2016-04-10T16:04:56Z</time>
      </trkpt>
      <trkpt lat="59.199612325307" lon="17.881685704919">
        <ele>0</ele>
        <time>2016-04-10T16:05:03Z</time>
      </trkpt>
      <trkpt lat="59.199565219029" lon="17.882405291034">
        <ele>0</ele>
        <time>2016-04-10T16:05:07Z</time>
      </trkpt>
      <trkpt lat="59.199552813817" lon="17.882596565992">
        <ele>0</ele>
        <time>2016-04-10T16:05:08Z</time>
      </trkpt>
      <trkpt lat="59.199544096641" lon="17.882783985276">
        <ele>0</ele>
        <time>2016-04-10T16:05:09Z</time>
      </trkpt>
      <trkpt lat="59.199538145492" lon="17.882986743437">
        <ele>0</ele>
        <time>2016-04-10T16:05:10Z</time>
      </trkpt>
      <trkpt lat="59.199538732225" lon="17.883177264024">
        <ele>0</ele>
        <time>2016-04-10T16:05:11Z</time>
      </trkpt>
      <trkpt lat="59.199544431917" lon="17.883369796267">
        <ele>0</ele>
        <time>2016-04-10T16:05:12Z</time>
      </trkpt>
      <trkpt lat="59.199549963971" lon="17.883561574139">
        <ele>0</ele>
        <time>2016-04-10T16:05:13Z</time>
      </trkpt>
      <trkpt lat="59.199560022251" lon="17.883748322871">
        <ele>0</ele>
        <time>2016-04-10T16:05:14Z</time>
      </trkpt>
      <trkpt lat="59.199572511282" lon="17.883929707187">
        <ele>0</ele>
        <time>2016-04-10T16:05:15Z</time>
      </trkpt>
      <trkpt lat="59.199665801829" lon="17.884587686337">
        <ele>0</ele>
        <time>2016-04-10T16:05:19Z</time>
      </trkpt>
      <trkpt lat="59.199827153404" lon="17.885279863639">
        <ele>0</ele>
        <time>2016-04-10T16:05:24Z</time>
      </trkpt>
      <trkpt lat="59.199874762596" lon="17.885418332627">
        <ele>0</ele>
        <time>2016-04-10T16:05:25Z</time>
      </trkpt>
      <trkpt lat="59.19991633682" lon="17.885543893489">
        <ele>0</ele>
        <time>2016-04-10T16:05:26Z</time>
      </trkpt>
      <trkpt lat="59.199957156673" lon="17.885667358876">
        <ele>0</ele>
        <time>2016-04-10T16:05:27Z</time>
      </trkpt>
      <trkpt lat="59.200002418933" lon="17.885791243358">
        <ele>0</ele>
        <time>2016-04-10T16:05:28Z</time>
      </trkpt>
      <trkpt lat="59.200090764159" lon="17.886026439472">
        <ele>0</ele>
        <time>2016-04-10T16:05:30Z</time>
      </trkpt>
      <trkpt lat="59.200258821254" lon="17.886514517509">
        <ele>0</ele>
        <time>2016-04-10T16:05:34Z</time>
      </trkpt>
      <trkpt lat="59.200306011351" lon="17.886630439186">
        <ele>0</ele>
        <time>2016-04-10T16:05:35Z</time>
      </trkpt>
      <trkpt lat="59.200351860344" lon="17.886744433026">
        <ele>0</ele>
        <time>2016-04-10T16:05:36Z</time>
      </trkpt>
      <trkpt lat="59.200398882803" lon="17.886860522341">
        <ele>0</ele>
        <time>2016-04-10T16:05:37Z</time>
      </trkpt>
      <trkpt lat="59.200444228882" lon="17.886979796778">
        <ele>0</ele>
        <time>2016-04-10T16:05:38Z</time>
      </trkpt>
      <trkpt lat="59.200478678491" lon="17.887092868609">
        <ele>0</ele>
        <time>2016-04-10T16:05:39Z</time>
      </trkpt>
      <trkpt lat="59.200566939898" lon="17.887343319781">
        <ele>0</ele>
        <time>2016-04-10T16:05:41Z</time>
      </trkpt>
      <trkpt lat="59.200611531606" lon="17.887453541766">
        <ele>0</ele>
        <time>2016-04-10T16:05:42Z</time>
      </trkpt>
      <trkpt lat="59.200655871857" lon="17.887557812602">
        <ele>0</ele>
        <time>2016-04-10T16:05:43Z</time>
      </trkpt>
      <trkpt lat="59.200700128289" lon="17.887665687655">
        <ele>0</ele>
        <time>2016-04-10T16:05:44Z</time>
      </trkpt>
      <trkpt lat="59.200748575671" lon="17.887778172753">
        <ele>0</ele>
        <time>2016-04-10T16:05:45Z</time>
      </trkpt>
      <trkpt lat="59.200790652809" lon="17.887895603172">
        <ele>0</ele>
        <time>2016-04-10T16:05:46Z</time>
      </trkpt>
      <trkpt lat="59.201071614097" lon="17.888668330533">
        <ele>0</ele>
        <time>2016-04-10T16:05:53Z</time>
      </trkpt>
      <trkpt lat="59.201110003199" lon="17.888778217242">
        <ele>0</ele>
        <time>2016-04-10T16:05:54Z</time>
      </trkpt>
      <trkpt lat="59.201148895215" lon="17.88889237872">
        <ele>0</ele>
        <time>2016-04-10T16:05:55Z</time>
      </trkpt>
      <trkpt lat="59.201185105023" lon="17.889006121103">
        <ele>0</ele>
        <time>2016-04-10T16:05:56Z</time>
      </trkpt>
      <trkpt lat="59.201221566288" lon="17.889120450219">
        <ele>0</ele>
        <time>2016-04-10T16:05:57Z</time>
      </trkpt>
      <trkpt lat="59.201454331651" lon="17.889937517831">
        <ele>0</ele>
        <time>2016-04-10T16:06:04Z</time>
      </trkpt>
      <trkpt lat="59.20160109872" lon="17.890540846993">
        <ele>0</ele>
        <time>2016-04-10T16:06:09Z</time>
      </trkpt>
      <trkpt lat="59.201632614664" lon="17.890666659312">
        <ele>0</ele>
        <time>2016-04-10T16:06:10Z</time>
      </trkpt>
      <trkpt lat="59.201821207414" lon="17.891419353932">
        <ele>0</ele>
        <time>2016-04-10T16:06:16Z</time>
      </trkpt>
      <trkpt lat="59.201909468821" lon="17.891808609368">
        <ele>0</ele>
        <time>2016-04-10T16:06:19Z</time>
      </trkpt>
      <trkpt lat="59.201937045272" lon="17.891934002592">
        <ele>0</ele>
        <time>2016-04-10T16:06:20Z</time>
      </trkpt>
      <trkpt lat="59.201963112981" lon="17.892058809083">
        <ele>0</ele>
        <time>2016-04-10T16:06:21Z</time>
      </trkpt>
      <trkpt lat="59.201990354156" lon="17.892177161511">
        <ele>0</ele>
        <time>2016-04-10T16:06:22Z</time>
      </trkpt>
      <trkpt lat="59.20201851734" lon="17.892308254427">
        <ele>0</ele>
        <time>2016-04-10T16:06:23Z</time>
      </trkpt>
      <trkpt lat="59.202213564153" lon="17.893098667597">
        <ele>0</ele>
        <time>2016-04-10T16:06:29Z</time>
      </trkpt>
      <trkpt lat="59.202427721698" lon="17.893655393395">
        <ele>0</ele>
        <time>2016-04-10T16:06:34Z</time>
      </trkpt>
      <trkpt lat="59.202759225843" lon="17.894512694127">
        <ele>0</ele>
        <time>2016-04-10T16:06:41Z</time>
      </trkpt>
      <trkpt lat="59.203065249012" lon="17.895451634565">
        <ele>0</ele>
        <time>2016-04-10T16:06:48Z</time>
      </trkpt>
      <trkpt lat="59.20315426479" lon="17.895740558658">
        <ele>0</ele>
        <time>2016-04-10T16:06:50Z</time>
      </trkpt>
      <trkpt lat="59.203453582439" lon="17.89673364617">
        <ele>0</ele>
        <time>2016-04-10T16:06:57Z</time>
      </trkpt>
      <trkpt lat="59.20349876088" lon="17.896871193149">
        <ele>0</ele>
        <time>2016-04-10T16:06:58Z</time>
      </trkpt>
      <trkpt lat="59.203832779595" lon="17.897839134961">
        <ele>0</ele>
        <time>2016-04-10T16:07:05Z</time>
      </trkpt>
      <trkpt lat="59.203879131502" lon="17.897970982248">
        <ele>0</ele>
        <time>2016-04-10T16:07:06Z</time>
      </trkpt>
      <trkpt lat="59.204153051994" lon="17.898710265828">
        <ele>0</ele>
        <time>2016-04-10T16:07:12Z</time>
      </trkpt>
      <trkpt lat="59.204271320603" lon="17.89903950686">
        <ele>0</ele>
        <time>2016-04-10T16:07:15Z</time>
      </trkpt>
      <trkpt lat="59.204308536239" lon="17.899150483216">
        <ele>0</ele>
        <time>2016-04-10T16:07:16Z</time>
      </trkpt>
      <trkpt lat="59.204344075495" lon="17.899264560875">
        <ele>0</ele>
        <time>2016-04-10T16:07:17Z</time>
      </trkpt>
      <trkpt lat="59.204383638063" lon="17.899372938842">
        <ele>0</ele>
        <time>2016-04-10T16:07:18Z</time>
      </trkpt>
      <trkpt lat="59.204426385753" lon="17.899487603234">
        <ele>0</ele>
        <time>2016-04-10T16:07:19Z</time>
      </trkpt>
      <trkpt lat="59.204503666871" lon="17.899713160163">
        <ele>0</ele>
        <time>2016-04-10T16:07:21Z</time>
      </trkpt>
      <trkpt lat="59.204539038489" lon="17.899827070184">
        <ele>0</ele>
        <time>2016-04-10T16:07:22Z</time>
      </trkpt>
      <trkpt lat="59.204576505582" lon="17.899941315481">
        <ele>0</ele>
        <time>2016-04-10T16:07:23Z</time>
      </trkpt>
      <trkpt lat="59.204617493073" lon="17.900053968217">
        <ele>0</ele>
        <time>2016-04-10T16:07:24Z</time>
      </trkpt>
      <trkpt lat="59.204657390917" lon="17.900168632609">
        <ele>0</ele>
        <time>2016-04-10T16:07:25Z</time>
      </trkpt>
      <trkpt lat="59.204741880469" lon="17.900403409628">
        <ele>0</ele>
        <time>2016-04-10T16:07:27Z</time>
      </trkpt>
      <trkpt lat="59.2050142084" lon="17.901147303253">
        <ele>0</ele>
        <time>2016-04-10T16:07:34Z</time>
      </trkpt>
      <trkpt lat="59.205047903638" lon="17.901240426162">
        <ele>0</ele>
        <time>2016-04-10T16:07:35Z</time>
      </trkpt>
      <trkpt lat="59.205080844505" lon="17.901330699225">
        <ele>0</ele>
        <time>2016-04-10T16:07:36Z</time>
      </trkpt>
      <trkpt lat="59.205111689897" lon="17.901419295908">
        <ele>0</ele>
        <time>2016-04-10T16:07:37Z</time>
      </trkpt>
      <trkpt lat="59.205143205841" lon="17.90150127089">
        <ele>0</ele>
        <time>2016-04-10T16:07:38Z</time>
      </trkpt>
      <trkpt lat="59.205365912924" lon="17.902013069704">
        <ele>0</ele>
        <time>2016-04-10T16:07:51Z</time>
      </trkpt>
      <trkpt lat="59.205414276487" lon="17.902018098844">
        <ele>0</ele>
        <time>2016-04-10T16:07:52Z</time>
      </trkpt>
      <trkpt lat="59.205547883973" lon="17.901885245729">
        <ele>0</ele>
        <time>2016-04-10T16:07:55Z</time>
      </trkpt>
      <trkpt lat="59.205596079898" lon="17.901821627108">
        <ele>0</ele>
        <time>2016-04-10T16:07:56Z</time>
      </trkpt>
      <trkpt lat="59.205687861703" lon="17.901693803133">
        <ele>0</ele>
        <time>2016-04-10T16:07:58Z</time>
      </trkpt>
      <trkpt lat="59.205777883309" lon="17.901543096571">
        <ele>0</ele>
        <time>2016-04-10T16:08:00Z</time>
      </trkpt>
      <trkpt lat="59.206019533486" lon="17.901138502258">
        <ele>0</ele>
        <time>2016-04-10T16:08:05Z</time>
      </trkpt>
      <trkpt lat="59.206170742962" lon="17.900911017492">
        <ele>0</ele>
        <time>2016-04-10T16:08:08Z</time>
      </trkpt>
      <trkpt lat="59.206221956371" lon="17.900836250944">
        <ele>0</ele>
        <time>2016-04-10T16:08:09Z</time>
      </trkpt>
      <trkpt lat="59.206275851988" lon="17.900759808016">
        <ele>0</ele>
        <time>2016-04-10T16:08:10Z</time>
      </trkpt>
      <trkpt lat="59.206322371533" lon="17.900671630428">
        <ele>0</ele>
        <time>2016-04-10T16:08:11Z</time>
      </trkpt>
      <trkpt lat="59.206369142535" lon="17.900569538886">
        <ele>0.4</ele>
        <time>2016-04-10T16:08:12Z</time>
      </trkpt>
      <trkpt lat="59.206452374802" lon="17.900360159024">
        <ele>0.4</ele>
        <time>2016-04-10T16:08:14Z</time>
      </trkpt>
      <trkpt lat="59.206742975275" lon="17.899642668384">
        <ele>0.8</ele>
        <time>2016-04-10T16:08:21Z</time>
      </trkpt>
      <trkpt lat="59.206780693825" lon="17.899540995937">
        <ele>1.2</ele>
        <time>2016-04-10T16:08:22Z</time>
      </trkpt>
      <trkpt lat="59.206818496194" lon="17.89943680892">
        <ele>1.6</ele>
        <time>2016-04-10T16:08:23Z</time>
      </trkpt>
      <trkpt lat="59.206856717658" lon="17.899333376274">
        <ele>2</ele>
        <time>2016-04-10T16:08:24Z</time>
      </trkpt>
      <trkpt lat="59.206892340733" lon="17.899231871465">
        <ele>2.4</ele>
        <time>2016-04-10T16:08:25Z</time>
      </trkpt>
      <trkpt lat="59.20709543417" lon="17.89872686199">
        <ele>2.4</ele>
        <time>2016-04-10T16:08:30Z</time>
      </trkpt>
      <trkpt lat="59.207434565844" lon="17.897935191535">
        <ele>2.4</ele>
        <time>2016-04-10T16:08:38Z</time>
      </trkpt>
      <trkpt lat="59.207657692022" lon="17.897528669385">
        <ele>2.4</ele>
        <time>2016-04-10T16:08:42Z</time>
      </trkpt>
      <trkpt lat="59.207720975367" lon="17.897455411579">
        <ele>2.4</ele>
        <time>2016-04-10T16:08:43Z</time>
      </trkpt>
      <trkpt lat="59.207912753239" lon="17.897278804946">
        <ele>2.4</ele>
        <time>2016-04-10T16:08:46Z</time>
      </trkpt>
      <trkpt lat="59.208051725141" lon="17.897204289855">
        <ele>2.4</ele>
        <time>2016-04-10T16:08:48Z</time>
      </trkpt>
      <trkpt lat="59.20812976063" lon="17.897172270997">
        <ele>2.8</ele>
        <time>2016-04-10T16:08:49Z</time>
      </trkpt>
      <trkpt lat="59.208205784463" lon="17.897155423378">
        <ele>3.2</ele>
        <time>2016-04-10T16:08:50Z</time>
      </trkpt>
      <trkpt lat="59.208279964278" lon="17.897154333731">
        <ele>3.8</ele>
        <time>2016-04-10T16:08:51Z</time>
      </trkpt>
      <trkpt lat="59.208424552053" lon="17.89719297429">
        <ele>4.6</ele>
        <time>2016-04-10T16:08:52Z</time>
      </trkpt>
      <trkpt lat="59.208424552053" lon="17.89719297429">
        <ele>4.6</ele>
        <time>2016-04-10T16:08:53Z</time>
      </trkpt>
      <trkpt lat="59.208806682874" lon="17.897320127713">
        <ele>5</ele>
        <time>2016-04-10T16:08:59Z</time>
      </trkpt>
      <trkpt lat="59.208865104717" lon="17.897319960075">
        <ele>5.4</ele>
        <time>2016-04-10T16:09:00Z</time>
      </trkpt>
      <trkpt lat="59.20892604113" lon="17.897317696962">
        <ele>5.8</ele>
        <time>2016-04-10T16:09:01Z</time>
      </trkpt>
      <trkpt lat="59.208987480457" lon="17.897307554863">
        <ele>6.2</ele>
        <time>2016-04-10T16:09:02Z</time>
      </trkpt>
      <trkpt lat="59.209050428526" lon="17.89729439528">
        <ele>6.6</ele>
        <time>2016-04-10T16:09:03Z</time>
      </trkpt>
      <trkpt lat="59.209110275292" lon="17.897271847969">
        <ele>6.6</ele>
        <time>2016-04-10T16:09:04Z</time>
      </trkpt>
      <trkpt lat="59.209166769298" lon="17.897251144676">
        <ele>6.6</ele>
        <time>2016-04-10T16:09:05Z</time>
      </trkpt>
      <trkpt lat="59.209279422034" lon="17.897207558796">
        <ele>7</ele>
        <time>2016-04-10T16:09:07Z</time>
      </trkpt>
      <trkpt lat="59.209335245488" lon="17.897178473603">
        <ele>7.4</ele>
        <time>2016-04-10T16:09:08Z</time>
      </trkpt>
      <trkpt lat="59.209391152761" lon="17.897147460573">
        <ele>8.2</ele>
        <time>2016-04-10T16:09:09Z</time>
      </trkpt>
      <trkpt lat="59.209450245156" lon="17.897110328756">
        <ele>8.8</ele>
        <time>2016-04-10T16:09:10Z</time>
      </trkpt>
      <trkpt lat="59.209607992514" lon="17.89700605792">
        <ele>8.8</ele>
        <time>2016-04-10T16:09:13Z</time>
      </trkpt>
      <trkpt lat="59.209661552855" lon="17.896981163677">
        <ele>9.2</ele>
        <time>2016-04-10T16:09:14Z</time>
      </trkpt>
      <trkpt lat="59.209712095712" lon="17.896952497579">
        <ele>9.6</ele>
        <time>2016-04-10T16:09:15Z</time>
      </trkpt>
      <trkpt lat="59.209764147311" lon="17.896932045743">
        <ele>10</ele>
        <time>2016-04-10T16:09:16Z</time>
      </trkpt>
      <trkpt lat="59.209814271073" lon="17.896908324966">
        <ele>10.6</ele>
        <time>2016-04-10T16:09:17Z</time>
      </trkpt>
      <trkpt lat="59.209868082871" lon="17.896888459863">
        <ele>11</ele>
        <time>2016-04-10T16:09:18Z</time>
      </trkpt>
      <trkpt lat="59.209917787538" lon="17.896884185094">
        <ele>11.6</ele>
        <time>2016-04-10T16:09:19Z</time>
      </trkpt>
      <trkpt lat="59.209966486377" lon="17.896869768226">
        <ele>12</ele>
        <time>2016-04-10T16:09:20Z</time>
      </trkpt>
      <trkpt lat="59.210016945415" lon="17.896876892841">
        <ele>12.6</ele>
        <time>2016-04-10T16:09:21Z</time>
      </trkpt>
      <trkpt lat="59.210069499928" lon="17.896883514542">
        <ele>13.2</ele>
        <time>2016-04-10T16:09:22Z</time>
      </trkpt>
      <trkpt lat="59.210118198767" lon="17.896901032713">
        <ele>14</ele>
        <time>2016-04-10T16:09:23Z</time>
      </trkpt>
      <trkpt lat="59.210172262022" lon="17.896909833708">
        <ele>14.6</ele>
        <time>2016-04-10T16:09:24Z</time>
      </trkpt>
      <trkpt lat="59.210220374128" lon="17.896930956096">
        <ele>15.2</ele>
        <time>2016-04-10T16:09:25Z</time>
      </trkpt>
      <trkpt lat="59.210268737691" lon="17.896943277489">
        <ele>15.8</ele>
        <time>2016-04-10T16:09:26Z</time>
      </trkpt>
      <trkpt lat="59.210309976639" lon="17.896946378792">
        <ele>16.4</ele>
        <time>2016-04-10T16:09:27Z</time>
      </trkpt>
      <trkpt lat="59.210354484528" lon="17.896964316058">
        <ele>17</ele>
        <time>2016-04-10T16:09:28Z</time>
      </trkpt>
      <trkpt lat="59.210397399856" lon="17.896964651334">
        <ele>17.6</ele>
        <time>2016-04-10T16:09:29Z</time>
      </trkpt>
      <trkpt lat="59.210442578297" lon="17.89697001575">
        <ele>18.2</ele>
        <time>2016-04-10T16:09:30Z</time>
      </trkpt>
      <trkpt lat="59.210489181661" lon="17.896971356854">
        <ele>18.8</ele>
        <time>2016-04-10T16:09:31Z</time>
      </trkpt>
      <trkpt lat="59.210530755885" lon="17.896955850339">
        <ele>19.4</ele>
        <time>2016-04-10T16:09:32Z</time>
      </trkpt>
      <trkpt lat="59.210573587394" lon="17.896939673272">
        <ele>20</ele>
        <time>2016-04-10T16:09:33Z</time>
      </trkpt>
      <trkpt lat="59.210617760007" lon="17.89691972435">
        <ele>20.6</ele>
        <time>2016-04-10T16:09:34Z</time>
      </trkpt>
      <trkpt lat="59.210661597344" lon="17.896895165383">
        <ele>21</ele>
        <time>2016-04-10T16:09:35Z</time>
      </trkpt>
      <trkpt lat="59.210705099405" lon="17.896863146525">
        <ele>21.4</ele>
        <time>2016-04-10T16:09:36Z</time>
      </trkpt>
      <trkpt lat="59.210747260362" lon="17.896834480427">
        <ele>21.8</ele>
        <time>2016-04-10T16:09:37Z</time>
      </trkpt>
      <trkpt lat="59.210792019708" lon="17.896801707198">
        <ele>22.2</ele>
        <time>2016-04-10T16:09:38Z</time>
      </trkpt>
      <trkpt lat="59.210836192321" lon="17.896759546241">
        <ele>22.6</ele>
        <time>2016-04-10T16:09:39Z</time>
      </trkpt>
      <trkpt lat="59.211027802555" lon="17.896512615467">
        <ele>22.6</ele>
        <time>2016-04-10T16:09:44Z</time>
      </trkpt>
      <trkpt lat="59.211072142806" lon="17.896433741788">
        <ele>22.6</ele>
        <time>2016-04-10T16:09:45Z</time>
      </trkpt>
      <trkpt lat="59.211207761948" lon="17.896265433236">
        <ele>22.6</ele>
        <time>2016-04-10T16:09:48Z</time>
      </trkpt>
      <trkpt lat="59.211308596205" lon="17.896216231483">
        <ele>22.6</ele>
        <time>2016-04-10T16:09:50Z</time>
      </trkpt>
      <trkpt lat="59.211417477086" lon="17.89619888095">
        <ele>22.6</ele>
        <time>2016-04-10T16:09:52Z</time>
      </trkpt>
      <trkpt lat="59.211599196678" lon="17.896175243992">
        <ele>22.6</ele>
        <time>2016-04-10T16:09:55Z</time>
      </trkpt>
      <trkpt lat="59.211900693621" lon="17.896252189834">
        <ele>22.6</ele>
        <time>2016-04-10T16:10:00Z</time>
      </trkpt>
      <trkpt lat="59.212296989853" lon="17.896377834515">
        <ele>22.2</ele>
        <time>2016-04-10T16:10:06Z</time>
      </trkpt>
      <trkpt lat="59.212371253487" lon="17.896409601916">
        <ele>21.6</ele>
        <time>2016-04-10T16:10:07Z</time>
      </trkpt>
      <trkpt lat="59.212450881537" lon="17.896439273842">
        <ele>21.2</ele>
        <time>2016-04-10T16:10:08Z</time>
      </trkpt>
      <trkpt lat="59.212532102148" lon="17.896482272989">
        <ele>20.8</ele>
        <time>2016-04-10T16:10:09Z</time>
      </trkpt>
      <trkpt lat="59.212615250596" lon="17.896539689004">
        <ele>20.2</ele>
        <time>2016-04-10T16:10:10Z</time>
      </trkpt>
      <trkpt lat="59.212706026573" lon="17.896603559082">
        <ele>19.4</ele>
        <time>2016-04-10T16:10:11Z</time>
      </trkpt>
      <trkpt lat="59.212795629084" lon="17.896671452472">
        <ele>18.6</ele>
        <time>2016-04-10T16:10:12Z</time>
      </trkpt>
      <trkpt lat="59.212888081441" lon="17.896744458821">
        <ele>17.6</ele>
        <time>2016-04-10T16:10:13Z</time>
      </trkpt>
      <trkpt lat="59.212985562938" lon="17.896822829586">
        <ele>16.8</ele>
        <time>2016-04-10T16:10:14Z</time>
      </trkpt>
      <trkpt lat="59.213086061919" lon="17.896909163156">
        <ele>16</ele>
        <time>2016-04-10T16:10:15Z</time>
      </trkpt>
      <trkpt lat="59.213192344411" lon="17.89700019059">
        <ele>15</ele>
        <time>2016-04-10T16:10:16Z</time>
      </trkpt>
      <trkpt lat="59.213304829509" lon="17.897094486965">
        <ele>14</ele>
        <time>2016-04-10T16:10:17Z</time>
      </trkpt>
      <trkpt lat="59.213429971276" lon="17.897202110561">
        <ele>13</ele>
        <time>2016-04-10T16:10:18Z</time>
      </trkpt>
      <trkpt lat="59.213547736971" lon="17.897304118284">
        <ele>11.4</ele>
        <time>2016-04-10T16:10:19Z</time>
      </trkpt>
      <trkpt lat="59.213668101055" lon="17.897406377464">
        <ele>9.8</ele>
        <time>2016-04-10T16:10:20Z</time>
      </trkpt>
      <trkpt lat="59.213787375492" lon="17.897507044083">
        <ele>8</ele>
        <time>2016-04-10T16:10:21Z</time>
      </trkpt>
      <trkpt lat="59.213908745404" lon="17.897609470901">
        <ele>6.4</ele>
        <time>2016-04-10T16:10:22Z</time>
      </trkpt>
      <trkpt lat="59.214031540239" lon="17.897712903547">
        <ele>3.2</ele>
        <time>2016-04-10T16:10:23Z</time>
      </trkpt>
      <trkpt lat="59.214154083617" lon="17.897818347849">
        <ele>1.6</ele>
        <time>2016-04-10T16:10:24Z</time>
      </trkpt>
      <trkpt lat="59.214276375538" lon="17.897927061092">
        <ele>0</ele>
        <time>2016-04-10T16:10:25Z</time>
      </trkpt>
      <trkpt lat="59.214401768762" lon="17.89803703162">
        <ele>0</ele>
        <time>2016-04-10T16:10:26Z</time>
      </trkpt>
      <trkpt lat="59.214516600792" lon="17.898147840338">
        <ele>0</ele>
        <time>2016-04-10T16:10:27Z</time>
      </trkpt>
      <trkpt lat="59.214629672623" lon="17.89825579921">
        <ele>0</ele>
        <time>2016-04-10T16:10:28Z</time>
      </trkpt>
      <trkpt lat="59.214745007567" lon="17.89835889658">
        <ele>0</ele>
        <time>2016-04-10T16:10:29Z</time>
      </trkpt>
      <trkpt lat="59.21485791176" lon="17.89846199395">
        <ele>0</ele>
        <time>2016-04-10T16:10:30Z</time>
      </trkpt>
      <trkpt lat="59.215265188281" lon="17.898900702596">
        <ele>0</ele>
        <time>2016-04-10T16:10:34Z</time>
      </trkpt>
      <trkpt lat="59.21568855805" lon="17.899461284068">
        <ele>0</ele>
        <time>2016-04-10T16:10:39Z</time>
      </trkpt>
      <trkpt lat="59.216097091856" lon="17.900192772481">
        <ele>0</ele>
        <time>2016-04-10T16:10:45Z</time>
      </trkpt>
      <trkpt lat="59.216161381029" lon="17.900318668619">
        <ele>0</ele>
        <time>2016-04-10T16:10:46Z</time>
      </trkpt>
      <trkpt lat="59.216508643146" lon="17.901109752341">
        <ele>0</ele>
        <time>2016-04-10T16:10:52Z</time>
      </trkpt>
      <trkpt lat="59.21675138297" lon="17.90174099323">
        <ele>0</ele>
        <time>2016-04-10T16:10:57Z</time>
      </trkpt>
      <trkpt lat="59.216925977947" lon="17.902228316896">
        <ele>0</ele>
        <time>2016-04-10T16:11:01Z</time>
      </trkpt>
      <trkpt lat="59.216958332081" lon="17.902361924382">
        <ele>0</ele>
        <time>2016-04-10T16:11:02Z</time>
      </trkpt>
      <trkpt lat="59.216985070342" lon="17.902498046438">
        <ele>0</ele>
        <time>2016-04-10T16:11:03Z</time>
      </trkpt>
      <trkpt lat="59.216991775862" lon="17.902644645869">
        <ele>0</ele>
        <time>2016-04-10T16:11:04Z</time>
      </trkpt>
      <trkpt lat="59.216988926016" lon="17.902785629427">
        <ele>0</ele>
        <time>2016-04-10T16:11:05Z</time>
      </trkpt>
      <trkpt lat="59.216991021491" lon="17.902905825873">
        <ele>0</ele>
        <time>2016-04-10T16:11:06Z</time>
      </trkpt>
      <trkpt lat="59.21701122187" lon="17.903014874392">
        <ele>0</ele>
        <time>2016-04-10T16:11:07Z</time>
      </trkpt>
      <trkpt lat="59.217054137198" lon="17.903092071691">
        <ele>0</ele>
        <time>2016-04-10T16:11:08Z</time>
      </trkpt>
      <trkpt lat="59.217172489626" lon="17.903133478277">
        <ele>0</ele>
        <time>2016-04-10T16:11:10Z</time>
      </trkpt>
      <trkpt lat="59.217234850962" lon="17.903143201281">
        <ele>0</ele>
        <time>2016-04-10T16:11:11Z</time>
      </trkpt>
      <trkpt lat="59.217295452099" lon="17.903181255107">
        <ele>0</ele>
        <time>2016-04-10T16:11:12Z</time>
      </trkpt>
      <trkpt lat="59.217345911137" lon="17.903245879556">
        <ele>0</ele>
        <time>2016-04-10T16:11:13Z</time>
      </trkpt>
      <trkpt lat="59.217395699623" lon="17.903338331913">
        <ele>0</ele>
        <time>2016-04-10T16:11:14Z</time>
      </trkpt>
      <trkpt lat="59.217440039874" lon="17.903438663256">
        <ele>0</ele>
        <time>2016-04-10T16:11:15Z</time>
      </trkpt>
      <trkpt lat="59.217525367616" lon="17.903659023407">
        <ele>0</ele>
        <time>2016-04-10T16:11:17Z</time>
      </trkpt>
      <trkpt lat="59.217571048971" lon="17.903771173229">
        <ele>0</ele>
        <time>2016-04-10T16:11:18Z</time>
      </trkpt>
      <trkpt lat="59.217783027222" lon="17.904317421652">
        <ele>0</ele>
        <time>2016-04-10T16:11:23Z</time>
      </trkpt>
      <trkpt lat="59.217865002204" lon="17.904528226437">
        <ele>0</ele>
        <time>2016-04-10T16:11:25Z</time>
      </trkpt>
      <trkpt lat="59.218194913788" lon="17.905334816674">
        <ele>0</ele>
        <time>2016-04-10T16:11:33Z</time>
      </trkpt>
      <trkpt lat="59.21831712189" lon="17.90564612044">
        <ele>0</ele>
        <time>2016-04-10T16:11:36Z</time>
      </trkpt>
      <trkpt lat="59.218417453233" lon="17.905974858558">
        <ele>0</ele>
        <time>2016-04-10T16:11:39Z</time>
      </trkpt>
      <trkpt lat="59.218685841671" lon="17.90667374138">
        <ele>0</ele>
        <time>2016-04-10T16:11:46Z</time>
      </trkpt>
      <trkpt lat="59.218908716392" lon="17.907266425529">
        <ele>0</ele>
        <time>2016-04-10T16:11:52Z</time>
      </trkpt>
      <trkpt lat="59.218944339467" lon="17.907339096602">
        <ele>0</ele>
        <time>2016-04-10T16:11:53Z</time>
      </trkpt>
      <trkpt lat="59.21897593923" lon="17.907550069025">
        <ele>0</ele>
        <time>2016-04-10T16:11:55Z</time>
      </trkpt>
      <trkpt lat="59.219026398268" lon="17.907870089967">
        <ele>0</ele>
        <time>2016-04-10T16:11:58Z</time>
      </trkpt>
      <trkpt lat="59.219155395709" lon="17.908266386199">
        <ele>0</ele>
        <time>2016-04-10T16:12:02Z</time>
      </trkpt>
      <trkpt lat="59.219302749511" lon="17.908658156205">
        <ele>0</ele>
        <time>2016-04-10T16:12:06Z</time>
      </trkpt>
      <trkpt lat="59.219332756713" lon="17.908758571367">
        <ele>0</ele>
        <time>2016-04-10T16:12:07Z</time>
      </trkpt>
      <trkpt lat="59.219567617551" lon="17.909341281055">
        <ele>0</ele>
        <time>2016-04-10T16:12:13Z</time>
      </trkpt>
      <trkpt lat="59.219702901417" lon="17.909588211829">
        <ele>0</ele>
        <time>2016-04-10T16:12:16Z</time>
      </trkpt>
      <trkpt lat="59.219766771495" lon="17.909594414435">
        <ele>0</ele>
        <time>2016-04-10T16:12:17Z</time>
      </trkpt>
      <trkpt lat="59.219938097531" lon="17.909397942699">
        <ele>0</ele>
        <time>2016-04-10T16:12:20Z</time>
      </trkpt>
      <trkpt lat="59.219992412243" lon="17.909312447319">
        <ele>0</ele>
        <time>2016-04-10T16:12:21Z</time>
      </trkpt>
      <trkpt lat="59.220334896677" lon="17.908814730097">
        <ele>0</ele>
        <time>2016-04-10T16:12:28Z</time>
      </trkpt>
      <trkpt lat="59.220395497814" lon="17.908634686885">
        <ele>0</ele>
        <time>2016-04-10T16:12:30Z</time>
      </trkpt>
      <trkpt lat="59.220378314919" lon="17.908524381081">
        <ele>0</ele>
        <time>2016-04-10T16:12:31Z</time>
      </trkpt>
      <trkpt lat="59.220316121221" lon="17.908377362555">
        <ele>0</ele>
        <time>2016-04-10T16:12:33Z</time>
      </trkpt>
      <trkpt lat="59.220280079051" lon="17.908302512188">
        <ele>0</ele>
        <time>2016-04-10T16:12:34Z</time>
      </trkpt>
      <trkpt lat="59.220242109044" lon="17.908219112283">
        <ele>0</ele>
        <time>2016-04-10T16:12:35Z</time>
      </trkpt>
      <trkpt lat="59.220196511508" lon="17.908122720433">
        <ele>0</ele>
        <time>2016-04-10T16:12:36Z</time>
      </trkpt>
      <trkpt lat="59.220149572868" lon="17.908036135406">
        <ele>0</ele>
        <time>2016-04-10T16:12:37Z</time>
      </trkpt>
      <trkpt lat="59.220062568746" lon="17.907865479922">
        <ele>0</ele>
        <time>2016-04-10T16:12:39Z</time>
      </trkpt>
      <trkpt lat="59.219877328756" lon="17.907425933086">
        <ele>0</ele>
        <time>2016-04-10T16:12:44Z</time>
      </trkpt>
    </trkseg>
  </trk>
</gpx>